<?xml version="1.0" encoding="UTF-8" standalone="no" ?>
<gpx xmlns="http://www.topografix.com/GPX/1/1" xmlns:xsi="http://www.w3.org/2001/XMLSchema-instance" xsi:schemaLocation="http://www.topografix.com/GPX/1/1 http://www.topografix.com/GPX/1/1/gpx.xsd" version="1.1" creator="VisuGPX - https://www.visugpx.com">
  <metadata>
    <name>Gap Cyclisme sur route</name>
  </metadata>
  <trk>
    <name><![CDATA[Gap Cyclisme sur route_1]]></name>
    <trkseg>
      <trkpt lat="44.54222" lon="6.05367">
        <ele>769.4</ele>
        <time>2025-06-12T06:41:59Z</time>
      </trkpt>
      <trkpt lat="44.54223" lon="6.05365">
        <ele>769.4</ele>
        <time>2025-06-12T06:42:00Z</time>
      </trkpt>
      <trkpt lat="44.54225" lon="6.05364">
        <ele>769.4</ele>
        <time>2025-06-12T06:42:01Z</time>
      </trkpt>
      <trkpt lat="44.54227" lon="6.05364">
        <ele>769.4</ele>
        <time>2025-06-12T06:42:02Z</time>
      </trkpt>
      <trkpt lat="44.54228" lon="6.05364">
        <ele>769.4</ele>
        <time>2025-06-12T06:42:03Z</time>
      </trkpt>
      <trkpt lat="44.54229" lon="6.05365">
        <ele>769.4</ele>
        <time>2025-06-12T06:42:04Z</time>
      </trkpt>
      <trkpt lat="44.54231" lon="6.05365">
        <ele>769.4</ele>
        <time>2025-06-12T06:42:05Z</time>
      </trkpt>
      <trkpt lat="44.54232" lon="6.05366">
        <ele>769.4</ele>
        <time>2025-06-12T06:42:06Z</time>
      </trkpt>
      <trkpt lat="44.54234" lon="6.05367">
        <ele>769.4</ele>
        <time>2025-06-12T06:42:07Z</time>
      </trkpt>
      <trkpt lat="44.54235" lon="6.05368">
        <ele>769.4</ele>
        <time>2025-06-12T06:42:08Z</time>
      </trkpt>
      <trkpt lat="44.54239" lon="6.05369">
        <ele>769.8</ele>
        <time>2025-06-12T06:42:10Z</time>
      </trkpt>
      <trkpt lat="44.54243" lon="6.05371">
        <ele>769.8</ele>
        <time>2025-06-12T06:42:12Z</time>
      </trkpt>
      <trkpt lat="44.54245" lon="6.05372">
        <ele>770</ele>
        <time>2025-06-12T06:42:13Z</time>
      </trkpt>
      <trkpt lat="44.54247" lon="6.05372">
        <ele>770.2</ele>
        <time>2025-06-12T06:42:14Z</time>
      </trkpt>
      <trkpt lat="44.54251" lon="6.05372">
        <ele>770.4</ele>
        <time>2025-06-12T06:42:16Z</time>
      </trkpt>
      <trkpt lat="44.54253" lon="6.05372">
        <ele>770.6</ele>
        <time>2025-06-12T06:42:17Z</time>
      </trkpt>
      <trkpt lat="44.54255" lon="6.05372">
        <ele>770.8</ele>
        <time>2025-06-12T06:42:18Z</time>
      </trkpt>
      <trkpt lat="44.54259" lon="6.05373">
        <ele>771.2</ele>
        <time>2025-06-12T06:42:20Z</time>
      </trkpt>
      <trkpt lat="44.54261" lon="6.05373">
        <ele>771.4</ele>
        <time>2025-06-12T06:42:21Z</time>
      </trkpt>
      <trkpt lat="44.54263" lon="6.05373">
        <ele>772</ele>
        <time>2025-06-12T06:42:22Z</time>
      </trkpt>
      <trkpt lat="44.54265" lon="6.05374">
        <ele>772.2</ele>
        <time>2025-06-12T06:42:23Z</time>
      </trkpt>
      <trkpt lat="44.54267" lon="6.05373">
        <ele>772.4</ele>
        <time>2025-06-12T06:42:24Z</time>
      </trkpt>
      <trkpt lat="44.54268" lon="6.05373">
        <ele>772.4</ele>
        <time>2025-06-12T06:42:25Z</time>
      </trkpt>
      <trkpt lat="44.5427" lon="6.05372">
        <ele>772.6</ele>
        <time>2025-06-12T06:42:26Z</time>
      </trkpt>
      <trkpt lat="44.54274" lon="6.05372">
        <ele>773</ele>
        <time>2025-06-12T06:42:28Z</time>
      </trkpt>
      <trkpt lat="44.54275" lon="6.0537">
        <ele>773.2</ele>
        <time>2025-06-12T06:42:29Z</time>
      </trkpt>
      <trkpt lat="44.54277" lon="6.05369">
        <ele>773.4</ele>
        <time>2025-06-12T06:42:30Z</time>
      </trkpt>
      <trkpt lat="44.54278" lon="6.05367">
        <ele>773.6</ele>
        <time>2025-06-12T06:42:31Z</time>
      </trkpt>
      <trkpt lat="44.54279" lon="6.05364">
        <ele>773.8</ele>
        <time>2025-06-12T06:42:32Z</time>
      </trkpt>
      <trkpt lat="44.54281" lon="6.05361">
        <ele>773.8</ele>
        <time>2025-06-12T06:42:33Z</time>
      </trkpt>
      <trkpt lat="44.54281" lon="6.05358">
        <ele>774</ele>
        <time>2025-06-12T06:42:34Z</time>
      </trkpt>
      <trkpt lat="44.54282" lon="6.05356">
        <ele>774.2</ele>
        <time>2025-06-12T06:42:35Z</time>
      </trkpt>
      <trkpt lat="44.54283" lon="6.05353">
        <ele>774.4</ele>
        <time>2025-06-12T06:42:36Z</time>
      </trkpt>
      <trkpt lat="44.54284" lon="6.0535">
        <ele>774.4</ele>
        <time>2025-06-12T06:42:37Z</time>
      </trkpt>
      <trkpt lat="44.54285" lon="6.05348">
        <ele>774.4</ele>
        <time>2025-06-12T06:42:38Z</time>
      </trkpt>
      <trkpt lat="44.54287" lon="6.05342">
        <ele>775</ele>
        <time>2025-06-12T06:42:40Z</time>
      </trkpt>
      <trkpt lat="44.54288" lon="6.05339">
        <ele>775</ele>
        <time>2025-06-12T06:42:41Z</time>
      </trkpt>
      <trkpt lat="44.54289" lon="6.05336">
        <ele>775.2</ele>
        <time>2025-06-12T06:42:42Z</time>
      </trkpt>
      <trkpt lat="44.54291" lon="6.05331">
        <ele>775.8</ele>
        <time>2025-06-12T06:42:44Z</time>
      </trkpt>
      <trkpt lat="44.54291" lon="6.05328">
        <ele>776</ele>
        <time>2025-06-12T06:42:45Z</time>
      </trkpt>
      <trkpt lat="44.54292" lon="6.05325">
        <ele>776.2</ele>
        <time>2025-06-12T06:42:46Z</time>
      </trkpt>
      <trkpt lat="44.54293" lon="6.05322">
        <ele>776.4</ele>
        <time>2025-06-12T06:42:47Z</time>
      </trkpt>
      <trkpt lat="44.54293" lon="6.05319">
        <ele>776.6</ele>
        <time>2025-06-12T06:42:48Z</time>
      </trkpt>
      <trkpt lat="44.54294" lon="6.05316">
        <ele>776.8</ele>
        <time>2025-06-12T06:42:49Z</time>
      </trkpt>
      <trkpt lat="44.54294" lon="6.05313">
        <ele>777</ele>
        <time>2025-06-12T06:42:50Z</time>
      </trkpt>
      <trkpt lat="44.54295" lon="6.05309">
        <ele>777.4</ele>
        <time>2025-06-12T06:42:51Z</time>
      </trkpt>
      <trkpt lat="44.54296" lon="6.05306">
        <ele>777.6</ele>
        <time>2025-06-12T06:42:52Z</time>
      </trkpt>
      <trkpt lat="44.54296" lon="6.05302">
        <ele>777.8</ele>
        <time>2025-06-12T06:42:53Z</time>
      </trkpt>
      <trkpt lat="44.54297" lon="6.05299">
        <ele>777.8</ele>
        <time>2025-06-12T06:42:54Z</time>
      </trkpt>
      <trkpt lat="44.54298" lon="6.05296">
        <ele>777.8</ele>
        <time>2025-06-12T06:42:55Z</time>
      </trkpt>
      <trkpt lat="44.54299" lon="6.05294">
        <ele>777.8</ele>
        <time>2025-06-12T06:42:56Z</time>
      </trkpt>
      <trkpt lat="44.54301" lon="6.05293">
        <ele>777.8</ele>
        <time>2025-06-12T06:42:57Z</time>
      </trkpt>
      <trkpt lat="44.54303" lon="6.05291">
        <ele>777.8</ele>
        <time>2025-06-12T06:42:58Z</time>
      </trkpt>
      <trkpt lat="44.54305" lon="6.05291">
        <ele>778</ele>
        <time>2025-06-12T06:42:59Z</time>
      </trkpt>
      <trkpt lat="44.54308" lon="6.0529">
        <ele>778</ele>
        <time>2025-06-12T06:43:00Z</time>
      </trkpt>
      <trkpt lat="44.5431" lon="6.0529">
        <ele>778</ele>
        <time>2025-06-12T06:43:01Z</time>
      </trkpt>
      <trkpt lat="44.54313" lon="6.0529">
        <ele>778</ele>
        <time>2025-06-12T06:43:02Z</time>
      </trkpt>
      <trkpt lat="44.54316" lon="6.05291">
        <ele>778</ele>
        <time>2025-06-12T06:43:03Z</time>
      </trkpt>
      <trkpt lat="44.54319" lon="6.05292">
        <ele>778</ele>
        <time>2025-06-12T06:43:04Z</time>
      </trkpt>
      <trkpt lat="44.54321" lon="6.05292">
        <ele>778</ele>
        <time>2025-06-12T06:43:05Z</time>
      </trkpt>
      <trkpt lat="44.54324" lon="6.05293">
        <ele>778.2</ele>
        <time>2025-06-12T06:43:06Z</time>
      </trkpt>
      <trkpt lat="44.54326" lon="6.05294">
        <ele>778.2</ele>
        <time>2025-06-12T06:43:07Z</time>
      </trkpt>
      <trkpt lat="44.54328" lon="6.05294">
        <ele>778.2</ele>
        <time>2025-06-12T06:43:08Z</time>
      </trkpt>
      <trkpt lat="44.54331" lon="6.05295">
        <ele>778</ele>
        <time>2025-06-12T06:43:09Z</time>
      </trkpt>
      <trkpt lat="44.54334" lon="6.05296">
        <ele>778.2</ele>
        <time>2025-06-12T06:43:10Z</time>
      </trkpt>
      <trkpt lat="44.54336" lon="6.05297">
        <ele>778.2</ele>
        <time>2025-06-12T06:43:11Z</time>
      </trkpt>
      <trkpt lat="44.54339" lon="6.05297">
        <ele>778</ele>
        <time>2025-06-12T06:43:12Z</time>
      </trkpt>
      <trkpt lat="44.54341" lon="6.05298">
        <ele>778.2</ele>
        <time>2025-06-12T06:43:13Z</time>
      </trkpt>
      <trkpt lat="44.54344" lon="6.05299">
        <ele>778.2</ele>
        <time>2025-06-12T06:43:14Z</time>
      </trkpt>
      <trkpt lat="44.54346" lon="6.05299">
        <ele>778.4</ele>
        <time>2025-06-12T06:43:15Z</time>
      </trkpt>
      <trkpt lat="44.54349" lon="6.053">
        <ele>778.2</ele>
        <time>2025-06-12T06:43:16Z</time>
      </trkpt>
      <trkpt lat="44.54354" lon="6.05302">
        <ele>778.4</ele>
        <time>2025-06-12T06:43:18Z</time>
      </trkpt>
      <trkpt lat="44.54357" lon="6.05303">
        <ele>778.8</ele>
        <time>2025-06-12T06:43:19Z</time>
      </trkpt>
      <trkpt lat="44.5436" lon="6.05303">
        <ele>779</ele>
        <time>2025-06-12T06:43:20Z</time>
      </trkpt>
      <trkpt lat="44.54365" lon="6.05305">
        <ele>779.2</ele>
        <time>2025-06-12T06:43:22Z</time>
      </trkpt>
      <trkpt lat="44.54368" lon="6.05306">
        <ele>779.2</ele>
        <time>2025-06-12T06:43:23Z</time>
      </trkpt>
      <trkpt lat="44.54371" lon="6.05307">
        <ele>779.2</ele>
        <time>2025-06-12T06:43:24Z</time>
      </trkpt>
      <trkpt lat="44.54374" lon="6.05307">
        <ele>779.2</ele>
        <time>2025-06-12T06:43:25Z</time>
      </trkpt>
      <trkpt lat="44.54377" lon="6.05308">
        <ele>779.4</ele>
        <time>2025-06-12T06:43:26Z</time>
      </trkpt>
      <trkpt lat="44.5438" lon="6.05309">
        <ele>779.4</ele>
        <time>2025-06-12T06:43:27Z</time>
      </trkpt>
      <trkpt lat="44.54387" lon="6.05311">
        <ele>779.6</ele>
        <time>2025-06-12T06:43:29Z</time>
      </trkpt>
      <trkpt lat="44.54393" lon="6.05313">
        <ele>779.8</ele>
        <time>2025-06-12T06:43:31Z</time>
      </trkpt>
      <trkpt lat="44.54399" lon="6.05315">
        <ele>779.6</ele>
        <time>2025-06-12T06:43:33Z</time>
      </trkpt>
      <trkpt lat="44.54402" lon="6.05316">
        <ele>779.8</ele>
        <time>2025-06-12T06:43:34Z</time>
      </trkpt>
      <trkpt lat="44.54406" lon="6.05317">
        <ele>779.8</ele>
        <time>2025-06-12T06:43:35Z</time>
      </trkpt>
      <trkpt lat="44.54409" lon="6.05319">
        <ele>779.6</ele>
        <time>2025-06-12T06:43:36Z</time>
      </trkpt>
      <trkpt lat="44.54412" lon="6.0532">
        <ele>779.6</ele>
        <time>2025-06-12T06:43:37Z</time>
      </trkpt>
      <trkpt lat="44.54415" lon="6.05321">
        <ele>779.6</ele>
        <time>2025-06-12T06:43:38Z</time>
      </trkpt>
      <trkpt lat="44.54422" lon="6.05323">
        <ele>779.6</ele>
        <time>2025-06-12T06:43:40Z</time>
      </trkpt>
      <trkpt lat="44.54429" lon="6.05325">
        <ele>779.6</ele>
        <time>2025-06-12T06:43:42Z</time>
      </trkpt>
      <trkpt lat="44.54433" lon="6.05326">
        <ele>779.8</ele>
        <time>2025-06-12T06:43:43Z</time>
      </trkpt>
      <trkpt lat="44.54436" lon="6.05327">
        <ele>779.8</ele>
        <time>2025-06-12T06:43:44Z</time>
      </trkpt>
      <trkpt lat="44.5444" lon="6.05329">
        <ele>779.8</ele>
        <time>2025-06-12T06:43:45Z</time>
      </trkpt>
      <trkpt lat="44.54443" lon="6.0533">
        <ele>779.8</ele>
        <time>2025-06-12T06:43:46Z</time>
      </trkpt>
      <trkpt lat="44.54446" lon="6.05331">
        <ele>779.8</ele>
        <time>2025-06-12T06:43:47Z</time>
      </trkpt>
      <trkpt lat="44.54453" lon="6.05333">
        <ele>779.8</ele>
        <time>2025-06-12T06:43:49Z</time>
      </trkpt>
      <trkpt lat="44.54456" lon="6.05334">
        <ele>779.8</ele>
        <time>2025-06-12T06:43:50Z</time>
      </trkpt>
      <trkpt lat="44.5446" lon="6.05335">
        <ele>779.8</ele>
        <time>2025-06-12T06:43:51Z</time>
      </trkpt>
      <trkpt lat="44.54463" lon="6.05335">
        <ele>780</ele>
        <time>2025-06-12T06:43:52Z</time>
      </trkpt>
      <trkpt lat="44.54466" lon="6.05336">
        <ele>780</ele>
        <time>2025-06-12T06:43:53Z</time>
      </trkpt>
      <trkpt lat="44.5447" lon="6.05337">
        <ele>780</ele>
        <time>2025-06-12T06:43:54Z</time>
      </trkpt>
      <trkpt lat="44.54473" lon="6.05338">
        <ele>780</ele>
        <time>2025-06-12T06:43:55Z</time>
      </trkpt>
      <trkpt lat="44.54476" lon="6.05339">
        <ele>780.2</ele>
        <time>2025-06-12T06:43:56Z</time>
      </trkpt>
      <trkpt lat="44.5448" lon="6.0534">
        <ele>780.2</ele>
        <time>2025-06-12T06:43:57Z</time>
      </trkpt>
      <trkpt lat="44.54483" lon="6.05341">
        <ele>780.2</ele>
        <time>2025-06-12T06:43:58Z</time>
      </trkpt>
      <trkpt lat="44.5449" lon="6.05343">
        <ele>780.4</ele>
        <time>2025-06-12T06:44:00Z</time>
      </trkpt>
      <trkpt lat="44.54496" lon="6.05345">
        <ele>780.6</ele>
        <time>2025-06-12T06:44:02Z</time>
      </trkpt>
      <trkpt lat="44.54499" lon="6.05346">
        <ele>780.8</ele>
        <time>2025-06-12T06:44:03Z</time>
      </trkpt>
      <trkpt lat="44.54503" lon="6.05347">
        <ele>781</ele>
        <time>2025-06-12T06:44:04Z</time>
      </trkpt>
      <trkpt lat="44.54506" lon="6.05347">
        <ele>781.2</ele>
        <time>2025-06-12T06:44:05Z</time>
      </trkpt>
      <trkpt lat="44.54509" lon="6.05348">
        <ele>781.4</ele>
        <time>2025-06-12T06:44:06Z</time>
      </trkpt>
      <trkpt lat="44.54513" lon="6.05349">
        <ele>781.4</ele>
        <time>2025-06-12T06:44:07Z</time>
      </trkpt>
      <trkpt lat="44.5452" lon="6.0535">
        <ele>781.6</ele>
        <time>2025-06-12T06:44:09Z</time>
      </trkpt>
      <trkpt lat="44.54527" lon="6.05351">
        <ele>781.8</ele>
        <time>2025-06-12T06:44:11Z</time>
      </trkpt>
      <trkpt lat="44.5453" lon="6.05351">
        <ele>782.2</ele>
        <time>2025-06-12T06:44:12Z</time>
      </trkpt>
      <trkpt lat="44.54534" lon="6.05352">
        <ele>782.2</ele>
        <time>2025-06-12T06:44:13Z</time>
      </trkpt>
      <trkpt lat="44.54537" lon="6.05352">
        <ele>782.4</ele>
        <time>2025-06-12T06:44:14Z</time>
      </trkpt>
      <trkpt lat="44.54541" lon="6.05353">
        <ele>782.6</ele>
        <time>2025-06-12T06:44:15Z</time>
      </trkpt>
      <trkpt lat="44.54544" lon="6.05354">
        <ele>782.8</ele>
        <time>2025-06-12T06:44:16Z</time>
      </trkpt>
      <trkpt lat="44.54551" lon="6.05354">
        <ele>783</ele>
        <time>2025-06-12T06:44:18Z</time>
      </trkpt>
      <trkpt lat="44.54554" lon="6.05354">
        <ele>783.2</ele>
        <time>2025-06-12T06:44:19Z</time>
      </trkpt>
      <trkpt lat="44.54558" lon="6.05354">
        <ele>783.2</ele>
        <time>2025-06-12T06:44:20Z</time>
      </trkpt>
      <trkpt lat="44.54561" lon="6.05354">
        <ele>783.4</ele>
        <time>2025-06-12T06:44:21Z</time>
      </trkpt>
      <trkpt lat="44.54564" lon="6.05354">
        <ele>783.4</ele>
        <time>2025-06-12T06:44:22Z</time>
      </trkpt>
      <trkpt lat="44.54567" lon="6.05354">
        <ele>783.6</ele>
        <time>2025-06-12T06:44:23Z</time>
      </trkpt>
      <trkpt lat="44.54571" lon="6.05354">
        <ele>783.6</ele>
        <time>2025-06-12T06:44:24Z</time>
      </trkpt>
      <trkpt lat="44.54574" lon="6.05354">
        <ele>783.6</ele>
        <time>2025-06-12T06:44:25Z</time>
      </trkpt>
      <trkpt lat="44.54577" lon="6.05354">
        <ele>783.8</ele>
        <time>2025-06-12T06:44:26Z</time>
      </trkpt>
      <trkpt lat="44.5458" lon="6.05354">
        <ele>784</ele>
        <time>2025-06-12T06:44:27Z</time>
      </trkpt>
      <trkpt lat="44.54586" lon="6.05354">
        <ele>784.4</ele>
        <time>2025-06-12T06:44:29Z</time>
      </trkpt>
      <trkpt lat="44.54593" lon="6.05353">
        <ele>784.8</ele>
        <time>2025-06-12T06:44:31Z</time>
      </trkpt>
      <trkpt lat="44.54599" lon="6.05353">
        <ele>785.2</ele>
        <time>2025-06-12T06:44:33Z</time>
      </trkpt>
      <trkpt lat="44.54602" lon="6.05353">
        <ele>785.4</ele>
        <time>2025-06-12T06:44:34Z</time>
      </trkpt>
      <trkpt lat="44.54605" lon="6.05352">
        <ele>785.4</ele>
        <time>2025-06-12T06:44:35Z</time>
      </trkpt>
      <trkpt lat="44.54608" lon="6.05352">
        <ele>785.6</ele>
        <time>2025-06-12T06:44:36Z</time>
      </trkpt>
      <trkpt lat="44.54612" lon="6.05352">
        <ele>785.8</ele>
        <time>2025-06-12T06:44:37Z</time>
      </trkpt>
      <trkpt lat="44.54615" lon="6.05352">
        <ele>786</ele>
        <time>2025-06-12T06:44:38Z</time>
      </trkpt>
      <trkpt lat="44.54621" lon="6.05352">
        <ele>786.8</ele>
        <time>2025-06-12T06:44:40Z</time>
      </trkpt>
      <trkpt lat="44.54624" lon="6.05352">
        <ele>786.8</ele>
        <time>2025-06-12T06:44:41Z</time>
      </trkpt>
      <trkpt lat="44.54628" lon="6.05352">
        <ele>787</ele>
        <time>2025-06-12T06:44:42Z</time>
      </trkpt>
      <trkpt lat="44.54634" lon="6.05352">
        <ele>787.4</ele>
        <time>2025-06-12T06:44:44Z</time>
      </trkpt>
      <trkpt lat="44.54641" lon="6.05352">
        <ele>787.8</ele>
        <time>2025-06-12T06:44:46Z</time>
      </trkpt>
      <trkpt lat="44.54644" lon="6.05352">
        <ele>788</ele>
        <time>2025-06-12T06:44:47Z</time>
      </trkpt>
      <trkpt lat="44.54647" lon="6.05352">
        <ele>788</ele>
        <time>2025-06-12T06:44:48Z</time>
      </trkpt>
      <trkpt lat="44.5465" lon="6.05352">
        <ele>788.4</ele>
        <time>2025-06-12T06:44:49Z</time>
      </trkpt>
      <trkpt lat="44.54654" lon="6.05352">
        <ele>788.6</ele>
        <time>2025-06-12T06:44:50Z</time>
      </trkpt>
      <trkpt lat="44.54657" lon="6.05353">
        <ele>788.6</ele>
        <time>2025-06-12T06:44:51Z</time>
      </trkpt>
      <trkpt lat="44.54663" lon="6.05354">
        <ele>788.8</ele>
        <time>2025-06-12T06:44:53Z</time>
      </trkpt>
      <trkpt lat="44.54669" lon="6.05355">
        <ele>789</ele>
        <time>2025-06-12T06:44:55Z</time>
      </trkpt>
      <trkpt lat="44.54673" lon="6.05356">
        <ele>789</ele>
        <time>2025-06-12T06:44:56Z</time>
      </trkpt>
      <trkpt lat="44.54676" lon="6.05357">
        <ele>789</ele>
        <time>2025-06-12T06:44:57Z</time>
      </trkpt>
      <trkpt lat="44.54679" lon="6.05358">
        <ele>789.2</ele>
        <time>2025-06-12T06:44:58Z</time>
      </trkpt>
      <trkpt lat="44.54682" lon="6.05359">
        <ele>789.4</ele>
        <time>2025-06-12T06:44:59Z</time>
      </trkpt>
      <trkpt lat="44.54685" lon="6.0536">
        <ele>789.6</ele>
        <time>2025-06-12T06:45:00Z</time>
      </trkpt>
      <trkpt lat="44.54689" lon="6.05361">
        <ele>789.8</ele>
        <time>2025-06-12T06:45:01Z</time>
      </trkpt>
      <trkpt lat="44.54692" lon="6.05363">
        <ele>790</ele>
        <time>2025-06-12T06:45:02Z</time>
      </trkpt>
      <trkpt lat="44.54695" lon="6.05364">
        <ele>790.2</ele>
        <time>2025-06-12T06:45:03Z</time>
      </trkpt>
      <trkpt lat="44.54699" lon="6.05366">
        <ele>790.4</ele>
        <time>2025-06-12T06:45:04Z</time>
      </trkpt>
      <trkpt lat="44.54702" lon="6.05368">
        <ele>790.4</ele>
        <time>2025-06-12T06:45:05Z</time>
      </trkpt>
      <trkpt lat="44.54705" lon="6.05369">
        <ele>790.6</ele>
        <time>2025-06-12T06:45:06Z</time>
      </trkpt>
      <trkpt lat="44.54708" lon="6.05371">
        <ele>790.8</ele>
        <time>2025-06-12T06:45:07Z</time>
      </trkpt>
      <trkpt lat="44.54711" lon="6.05373">
        <ele>791</ele>
        <time>2025-06-12T06:45:08Z</time>
      </trkpt>
      <trkpt lat="44.54714" lon="6.05375">
        <ele>791.4</ele>
        <time>2025-06-12T06:45:09Z</time>
      </trkpt>
      <trkpt lat="44.5472" lon="6.05379">
        <ele>791.8</ele>
        <time>2025-06-12T06:45:11Z</time>
      </trkpt>
      <trkpt lat="44.54726" lon="6.05384">
        <ele>791.8</ele>
        <time>2025-06-12T06:45:13Z</time>
      </trkpt>
      <trkpt lat="44.54729" lon="6.05386">
        <ele>791.8</ele>
        <time>2025-06-12T06:45:14Z</time>
      </trkpt>
      <trkpt lat="44.54733" lon="6.05389">
        <ele>792</ele>
        <time>2025-06-12T06:45:15Z</time>
      </trkpt>
      <trkpt lat="44.54736" lon="6.05391">
        <ele>792.2</ele>
        <time>2025-06-12T06:45:16Z</time>
      </trkpt>
      <trkpt lat="44.54739" lon="6.05393">
        <ele>792.4</ele>
        <time>2025-06-12T06:45:17Z</time>
      </trkpt>
      <trkpt lat="44.54742" lon="6.05396">
        <ele>792.6</ele>
        <time>2025-06-12T06:45:18Z</time>
      </trkpt>
      <trkpt lat="44.54748" lon="6.054">
        <ele>792.8</ele>
        <time>2025-06-12T06:45:20Z</time>
      </trkpt>
      <trkpt lat="44.54754" lon="6.05405">
        <ele>792.8</ele>
        <time>2025-06-12T06:45:22Z</time>
      </trkpt>
      <trkpt lat="44.54758" lon="6.05408">
        <ele>792.8</ele>
        <time>2025-06-12T06:45:23Z</time>
      </trkpt>
      <trkpt lat="44.54761" lon="6.0541">
        <ele>793</ele>
        <time>2025-06-12T06:45:24Z</time>
      </trkpt>
      <trkpt lat="44.54764" lon="6.05413">
        <ele>793</ele>
        <time>2025-06-12T06:45:25Z</time>
      </trkpt>
      <trkpt lat="44.54767" lon="6.05416">
        <ele>793</ele>
        <time>2025-06-12T06:45:26Z</time>
      </trkpt>
      <trkpt lat="44.54771" lon="6.05418">
        <ele>793</ele>
        <time>2025-06-12T06:45:27Z</time>
      </trkpt>
      <trkpt lat="44.54777" lon="6.05423">
        <ele>793.2</ele>
        <time>2025-06-12T06:45:29Z</time>
      </trkpt>
      <trkpt lat="44.54783" lon="6.05428">
        <ele>793.6</ele>
        <time>2025-06-12T06:45:31Z</time>
      </trkpt>
      <trkpt lat="44.54786" lon="6.05431">
        <ele>793.6</ele>
        <time>2025-06-12T06:45:32Z</time>
      </trkpt>
      <trkpt lat="44.54789" lon="6.05433">
        <ele>793.6</ele>
        <time>2025-06-12T06:45:33Z</time>
      </trkpt>
      <trkpt lat="44.54791" lon="6.05436">
        <ele>793.6</ele>
        <time>2025-06-12T06:45:34Z</time>
      </trkpt>
      <trkpt lat="44.54794" lon="6.05439">
        <ele>793.8</ele>
        <time>2025-06-12T06:45:35Z</time>
      </trkpt>
      <trkpt lat="44.54797" lon="6.05442">
        <ele>793.8</ele>
        <time>2025-06-12T06:45:36Z</time>
      </trkpt>
      <trkpt lat="44.54803" lon="6.05447">
        <ele>793.8</ele>
        <time>2025-06-12T06:45:38Z</time>
      </trkpt>
      <trkpt lat="44.54806" lon="6.05449">
        <ele>794</ele>
        <time>2025-06-12T06:45:39Z</time>
      </trkpt>
      <trkpt lat="44.54809" lon="6.05452">
        <ele>794.2</ele>
        <time>2025-06-12T06:45:40Z</time>
      </trkpt>
      <trkpt lat="44.54812" lon="6.05455">
        <ele>794.2</ele>
        <time>2025-06-12T06:45:41Z</time>
      </trkpt>
      <trkpt lat="44.54815" lon="6.05458">
        <ele>794.2</ele>
        <time>2025-06-12T06:45:42Z</time>
      </trkpt>
      <trkpt lat="44.54818" lon="6.0546">
        <ele>794.2</ele>
        <time>2025-06-12T06:45:43Z</time>
      </trkpt>
      <trkpt lat="44.54821" lon="6.05463">
        <ele>794.4</ele>
        <time>2025-06-12T06:45:44Z</time>
      </trkpt>
      <trkpt lat="44.54824" lon="6.05466">
        <ele>794.4</ele>
        <time>2025-06-12T06:45:45Z</time>
      </trkpt>
      <trkpt lat="44.5483" lon="6.05471">
        <ele>794.4</ele>
        <time>2025-06-12T06:45:47Z</time>
      </trkpt>
      <trkpt lat="44.54838" lon="6.05477">
        <ele>794.4</ele>
        <time>2025-06-12T06:45:49Z</time>
      </trkpt>
      <trkpt lat="44.54841" lon="6.0548">
        <ele>794.4</ele>
        <time>2025-06-12T06:45:50Z</time>
      </trkpt>
      <trkpt lat="44.54845" lon="6.05482">
        <ele>794.4</ele>
        <time>2025-06-12T06:45:51Z</time>
      </trkpt>
      <trkpt lat="44.54848" lon="6.05485">
        <ele>794.6</ele>
        <time>2025-06-12T06:45:52Z</time>
      </trkpt>
      <trkpt lat="44.54852" lon="6.05487">
        <ele>794.6</ele>
        <time>2025-06-12T06:45:53Z</time>
      </trkpt>
      <trkpt lat="44.54855" lon="6.05489">
        <ele>794.6</ele>
        <time>2025-06-12T06:45:54Z</time>
      </trkpt>
      <trkpt lat="44.54859" lon="6.05491">
        <ele>794.6</ele>
        <time>2025-06-12T06:45:55Z</time>
      </trkpt>
      <trkpt lat="44.54862" lon="6.05493">
        <ele>794.8</ele>
        <time>2025-06-12T06:45:56Z</time>
      </trkpt>
      <trkpt lat="44.54869" lon="6.05496">
        <ele>794.8</ele>
        <time>2025-06-12T06:45:58Z</time>
      </trkpt>
      <trkpt lat="44.54877" lon="6.05498">
        <ele>795</ele>
        <time>2025-06-12T06:46:00Z</time>
      </trkpt>
      <trkpt lat="44.54884" lon="6.05501">
        <ele>795</ele>
        <time>2025-06-12T06:46:02Z</time>
      </trkpt>
      <trkpt lat="44.54887" lon="6.05502">
        <ele>795</ele>
        <time>2025-06-12T06:46:03Z</time>
      </trkpt>
      <trkpt lat="44.54891" lon="6.05503">
        <ele>795</ele>
        <time>2025-06-12T06:46:04Z</time>
      </trkpt>
      <trkpt lat="44.54894" lon="6.05504">
        <ele>795.2</ele>
        <time>2025-06-12T06:46:05Z</time>
      </trkpt>
      <trkpt lat="44.54898" lon="6.05505">
        <ele>795.4</ele>
        <time>2025-06-12T06:46:06Z</time>
      </trkpt>
      <trkpt lat="44.54901" lon="6.05506">
        <ele>795.4</ele>
        <time>2025-06-12T06:46:07Z</time>
      </trkpt>
      <trkpt lat="44.54905" lon="6.05508">
        <ele>795.4</ele>
        <time>2025-06-12T06:46:08Z</time>
      </trkpt>
      <trkpt lat="44.54908" lon="6.05509">
        <ele>795.8</ele>
        <time>2025-06-12T06:46:09Z</time>
      </trkpt>
      <trkpt lat="44.54911" lon="6.0551">
        <ele>796</ele>
        <time>2025-06-12T06:46:10Z</time>
      </trkpt>
      <trkpt lat="44.54915" lon="6.05511">
        <ele>796.2</ele>
        <time>2025-06-12T06:46:11Z</time>
      </trkpt>
      <trkpt lat="44.54918" lon="6.05512">
        <ele>796.2</ele>
        <time>2025-06-12T06:46:12Z</time>
      </trkpt>
      <trkpt lat="44.54921" lon="6.05513">
        <ele>796.4</ele>
        <time>2025-06-12T06:46:13Z</time>
      </trkpt>
      <trkpt lat="44.54924" lon="6.05514">
        <ele>796.6</ele>
        <time>2025-06-12T06:46:14Z</time>
      </trkpt>
      <trkpt lat="44.54928" lon="6.05515">
        <ele>796.8</ele>
        <time>2025-06-12T06:46:15Z</time>
      </trkpt>
      <trkpt lat="44.54934" lon="6.05517">
        <ele>797.2</ele>
        <time>2025-06-12T06:46:17Z</time>
      </trkpt>
      <trkpt lat="44.5494" lon="6.05518">
        <ele>797.6</ele>
        <time>2025-06-12T06:46:19Z</time>
      </trkpt>
      <trkpt lat="44.54947" lon="6.0552">
        <ele>798</ele>
        <time>2025-06-12T06:46:21Z</time>
      </trkpt>
      <trkpt lat="44.5495" lon="6.05521">
        <ele>798.2</ele>
        <time>2025-06-12T06:46:22Z</time>
      </trkpt>
      <trkpt lat="44.54953" lon="6.05521">
        <ele>798.4</ele>
        <time>2025-06-12T06:46:23Z</time>
      </trkpt>
      <trkpt lat="44.54956" lon="6.05522">
        <ele>798.6</ele>
        <time>2025-06-12T06:46:24Z</time>
      </trkpt>
      <trkpt lat="44.54959" lon="6.05522">
        <ele>798.6</ele>
        <time>2025-06-12T06:46:25Z</time>
      </trkpt>
      <trkpt lat="44.54963" lon="6.05523">
        <ele>799</ele>
        <time>2025-06-12T06:46:26Z</time>
      </trkpt>
      <trkpt lat="44.54966" lon="6.05523">
        <ele>799.2</ele>
        <time>2025-06-12T06:46:27Z</time>
      </trkpt>
      <trkpt lat="44.54969" lon="6.05524">
        <ele>799.6</ele>
        <time>2025-06-12T06:46:28Z</time>
      </trkpt>
      <trkpt lat="44.54976" lon="6.05524">
        <ele>800.2</ele>
        <time>2025-06-12T06:46:30Z</time>
      </trkpt>
      <trkpt lat="44.54979" lon="6.05525">
        <ele>800.2</ele>
        <time>2025-06-12T06:46:31Z</time>
      </trkpt>
      <trkpt lat="44.54982" lon="6.05525">
        <ele>800.6</ele>
        <time>2025-06-12T06:46:32Z</time>
      </trkpt>
      <trkpt lat="44.54986" lon="6.05525">
        <ele>800.8</ele>
        <time>2025-06-12T06:46:33Z</time>
      </trkpt>
      <trkpt lat="44.54989" lon="6.05524">
        <ele>801</ele>
        <time>2025-06-12T06:46:34Z</time>
      </trkpt>
      <trkpt lat="44.54993" lon="6.05524">
        <ele>801.2</ele>
        <time>2025-06-12T06:46:35Z</time>
      </trkpt>
      <trkpt lat="44.54996" lon="6.05524">
        <ele>801.6</ele>
        <time>2025-06-12T06:46:36Z</time>
      </trkpt>
      <trkpt lat="44.55" lon="6.05524">
        <ele>801.8</ele>
        <time>2025-06-12T06:46:37Z</time>
      </trkpt>
      <trkpt lat="44.55003" lon="6.05524">
        <ele>802</ele>
        <time>2025-06-12T06:46:38Z</time>
      </trkpt>
      <trkpt lat="44.55007" lon="6.05523">
        <ele>802.2</ele>
        <time>2025-06-12T06:46:39Z</time>
      </trkpt>
      <trkpt lat="44.55014" lon="6.05523">
        <ele>802.4</ele>
        <time>2025-06-12T06:46:41Z</time>
      </trkpt>
      <trkpt lat="44.55022" lon="6.05523">
        <ele>802.8</ele>
        <time>2025-06-12T06:46:43Z</time>
      </trkpt>
      <trkpt lat="44.55026" lon="6.05523">
        <ele>802.8</ele>
        <time>2025-06-12T06:46:44Z</time>
      </trkpt>
      <trkpt lat="44.5503" lon="6.05523">
        <ele>802.8</ele>
        <time>2025-06-12T06:46:45Z</time>
      </trkpt>
      <trkpt lat="44.55034" lon="6.05523">
        <ele>802.8</ele>
        <time>2025-06-12T06:46:46Z</time>
      </trkpt>
      <trkpt lat="44.55038" lon="6.05523">
        <ele>802.8</ele>
        <time>2025-06-12T06:46:47Z</time>
      </trkpt>
      <trkpt lat="44.55042" lon="6.05522">
        <ele>802.8</ele>
        <time>2025-06-12T06:46:48Z</time>
      </trkpt>
      <trkpt lat="44.55047" lon="6.05522">
        <ele>802.8</ele>
        <time>2025-06-12T06:46:49Z</time>
      </trkpt>
      <trkpt lat="44.55051" lon="6.05522">
        <ele>802.8</ele>
        <time>2025-06-12T06:46:50Z</time>
      </trkpt>
      <trkpt lat="44.55056" lon="6.05522">
        <ele>802.8</ele>
        <time>2025-06-12T06:46:51Z</time>
      </trkpt>
      <trkpt lat="44.55062" lon="6.05521">
        <ele>802.8</ele>
        <time>2025-06-12T06:46:52Z</time>
      </trkpt>
      <trkpt lat="44.55072" lon="6.0552">
        <ele>802.8</ele>
        <time>2025-06-12T06:46:54Z</time>
      </trkpt>
      <trkpt lat="44.55078" lon="6.0552">
        <ele>802.6</ele>
        <time>2025-06-12T06:46:55Z</time>
      </trkpt>
      <trkpt lat="44.55085" lon="6.0552">
        <ele>802.6</ele>
        <time>2025-06-12T06:46:56Z</time>
      </trkpt>
      <trkpt lat="44.55091" lon="6.05519">
        <ele>802.4</ele>
        <time>2025-06-12T06:46:57Z</time>
      </trkpt>
      <trkpt lat="44.55098" lon="6.05519">
        <ele>802.4</ele>
        <time>2025-06-12T06:46:58Z</time>
      </trkpt>
      <trkpt lat="44.55104" lon="6.05518">
        <ele>802.2</ele>
        <time>2025-06-12T06:46:59Z</time>
      </trkpt>
      <trkpt lat="44.55116" lon="6.05517">
        <ele>802</ele>
        <time>2025-06-12T06:47:01Z</time>
      </trkpt>
      <trkpt lat="44.55128" lon="6.05515">
        <ele>802</ele>
        <time>2025-06-12T06:47:03Z</time>
      </trkpt>
      <trkpt lat="44.55133" lon="6.05514">
        <ele>802</ele>
        <time>2025-06-12T06:47:04Z</time>
      </trkpt>
      <trkpt lat="44.55139" lon="6.05514">
        <ele>802</ele>
        <time>2025-06-12T06:47:05Z</time>
      </trkpt>
      <trkpt lat="44.55144" lon="6.05513">
        <ele>802</ele>
        <time>2025-06-12T06:47:06Z</time>
      </trkpt>
      <trkpt lat="44.55154" lon="6.05512">
        <ele>802</ele>
        <time>2025-06-12T06:47:08Z</time>
      </trkpt>
      <trkpt lat="44.55159" lon="6.05512">
        <ele>802.2</ele>
        <time>2025-06-12T06:47:09Z</time>
      </trkpt>
      <trkpt lat="44.55164" lon="6.05511">
        <ele>802.2</ele>
        <time>2025-06-12T06:47:10Z</time>
      </trkpt>
      <trkpt lat="44.55169" lon="6.0551">
        <ele>802.4</ele>
        <time>2025-06-12T06:47:11Z</time>
      </trkpt>
      <trkpt lat="44.55174" lon="6.0551">
        <ele>802.4</ele>
        <time>2025-06-12T06:47:12Z</time>
      </trkpt>
      <trkpt lat="44.55178" lon="6.0551">
        <ele>802.6</ele>
        <time>2025-06-12T06:47:13Z</time>
      </trkpt>
      <trkpt lat="44.55183" lon="6.05509">
        <ele>802.6</ele>
        <time>2025-06-12T06:47:14Z</time>
      </trkpt>
      <trkpt lat="44.55191" lon="6.05508">
        <ele>803</ele>
        <time>2025-06-12T06:47:16Z</time>
      </trkpt>
      <trkpt lat="44.55195" lon="6.05508">
        <ele>803</ele>
        <time>2025-06-12T06:47:17Z</time>
      </trkpt>
      <trkpt lat="44.55199" lon="6.05507">
        <ele>803.2</ele>
        <time>2025-06-12T06:47:18Z</time>
      </trkpt>
      <trkpt lat="44.55204" lon="6.05507">
        <ele>803.2</ele>
        <time>2025-06-12T06:47:19Z</time>
      </trkpt>
      <trkpt lat="44.55212" lon="6.05506">
        <ele>803.8</ele>
        <time>2025-06-12T06:47:21Z</time>
      </trkpt>
      <trkpt lat="44.55217" lon="6.05505">
        <ele>804</ele>
        <time>2025-06-12T06:47:22Z</time>
      </trkpt>
      <trkpt lat="44.55221" lon="6.05504">
        <ele>804.2</ele>
        <time>2025-06-12T06:47:23Z</time>
      </trkpt>
      <trkpt lat="44.55225" lon="6.05503">
        <ele>804.2</ele>
        <time>2025-06-12T06:47:24Z</time>
      </trkpt>
      <trkpt lat="44.55229" lon="6.05503">
        <ele>804.4</ele>
        <time>2025-06-12T06:47:25Z</time>
      </trkpt>
      <trkpt lat="44.55234" lon="6.05502">
        <ele>804.6</ele>
        <time>2025-06-12T06:47:26Z</time>
      </trkpt>
      <trkpt lat="44.55242" lon="6.05501">
        <ele>804.8</ele>
        <time>2025-06-12T06:47:28Z</time>
      </trkpt>
      <trkpt lat="44.55246" lon="6.05501">
        <ele>804.8</ele>
        <time>2025-06-12T06:47:29Z</time>
      </trkpt>
      <trkpt lat="44.55251" lon="6.05501">
        <ele>805</ele>
        <time>2025-06-12T06:47:30Z</time>
      </trkpt>
      <trkpt lat="44.55255" lon="6.055">
        <ele>805</ele>
        <time>2025-06-12T06:47:31Z</time>
      </trkpt>
      <trkpt lat="44.55259" lon="6.055">
        <ele>805.2</ele>
        <time>2025-06-12T06:47:32Z</time>
      </trkpt>
      <trkpt lat="44.55264" lon="6.055">
        <ele>805.2</ele>
        <time>2025-06-12T06:47:33Z</time>
      </trkpt>
      <trkpt lat="44.55268" lon="6.055">
        <ele>805.2</ele>
        <time>2025-06-12T06:47:34Z</time>
      </trkpt>
      <trkpt lat="44.55272" lon="6.055">
        <ele>805.4</ele>
        <time>2025-06-12T06:47:35Z</time>
      </trkpt>
      <trkpt lat="44.55281" lon="6.055">
        <ele>805.6</ele>
        <time>2025-06-12T06:47:37Z</time>
      </trkpt>
      <trkpt lat="44.55285" lon="6.055">
        <ele>805.6</ele>
        <time>2025-06-12T06:47:38Z</time>
      </trkpt>
      <trkpt lat="44.55289" lon="6.055">
        <ele>805.6</ele>
        <time>2025-06-12T06:47:39Z</time>
      </trkpt>
      <trkpt lat="44.55293" lon="6.055">
        <ele>806</ele>
        <time>2025-06-12T06:47:40Z</time>
      </trkpt>
      <trkpt lat="44.55301" lon="6.055">
        <ele>806.2</ele>
        <time>2025-06-12T06:47:42Z</time>
      </trkpt>
      <trkpt lat="44.55305" lon="6.055">
        <ele>806.2</ele>
        <time>2025-06-12T06:47:43Z</time>
      </trkpt>
      <trkpt lat="44.55309" lon="6.055">
        <ele>806</ele>
        <time>2025-06-12T06:47:44Z</time>
      </trkpt>
      <trkpt lat="44.55314" lon="6.055">
        <ele>806.4</ele>
        <time>2025-06-12T06:47:45Z</time>
      </trkpt>
      <trkpt lat="44.55322" lon="6.055">
        <ele>806.6</ele>
        <time>2025-06-12T06:47:47Z</time>
      </trkpt>
      <trkpt lat="44.55326" lon="6.055">
        <ele>806.8</ele>
        <time>2025-06-12T06:47:48Z</time>
      </trkpt>
      <trkpt lat="44.5533" lon="6.055">
        <ele>807</ele>
        <time>2025-06-12T06:47:49Z</time>
      </trkpt>
      <trkpt lat="44.55335" lon="6.055">
        <ele>807</ele>
        <time>2025-06-12T06:47:50Z</time>
      </trkpt>
      <trkpt lat="44.55343" lon="6.055">
        <ele>807.2</ele>
        <time>2025-06-12T06:47:52Z</time>
      </trkpt>
      <trkpt lat="44.55352" lon="6.055">
        <ele>807.4</ele>
        <time>2025-06-12T06:47:54Z</time>
      </trkpt>
      <trkpt lat="44.55356" lon="6.055">
        <ele>807.4</ele>
        <time>2025-06-12T06:47:55Z</time>
      </trkpt>
      <trkpt lat="44.55361" lon="6.055">
        <ele>807.4</ele>
        <time>2025-06-12T06:47:56Z</time>
      </trkpt>
      <trkpt lat="44.55365" lon="6.055">
        <ele>807.6</ele>
        <time>2025-06-12T06:47:57Z</time>
      </trkpt>
      <trkpt lat="44.55374" lon="6.05501">
        <ele>807.6</ele>
        <time>2025-06-12T06:47:59Z</time>
      </trkpt>
      <trkpt lat="44.55378" lon="6.05501">
        <ele>807.6</ele>
        <time>2025-06-12T06:48:00Z</time>
      </trkpt>
      <trkpt lat="44.55383" lon="6.05501">
        <ele>807.6</ele>
        <time>2025-06-12T06:48:01Z</time>
      </trkpt>
      <trkpt lat="44.55387" lon="6.05501">
        <ele>807.6</ele>
        <time>2025-06-12T06:48:02Z</time>
      </trkpt>
      <trkpt lat="44.55391" lon="6.05502">
        <ele>807.8</ele>
        <time>2025-06-12T06:48:03Z</time>
      </trkpt>
      <trkpt lat="44.55396" lon="6.05502">
        <ele>807.6</ele>
        <time>2025-06-12T06:48:04Z</time>
      </trkpt>
      <trkpt lat="44.55405" lon="6.05502">
        <ele>807.6</ele>
        <time>2025-06-12T06:48:06Z</time>
      </trkpt>
      <trkpt lat="44.55413" lon="6.05503">
        <ele>807.6</ele>
        <time>2025-06-12T06:48:08Z</time>
      </trkpt>
      <trkpt lat="44.55418" lon="6.05503">
        <ele>807.8</ele>
        <time>2025-06-12T06:48:09Z</time>
      </trkpt>
      <trkpt lat="44.55422" lon="6.05503">
        <ele>807.8</ele>
        <time>2025-06-12T06:48:10Z</time>
      </trkpt>
      <trkpt lat="44.55427" lon="6.05504">
        <ele>807.8</ele>
        <time>2025-06-12T06:48:11Z</time>
      </trkpt>
      <trkpt lat="44.55436" lon="6.05504">
        <ele>807.8</ele>
        <time>2025-06-12T06:48:13Z</time>
      </trkpt>
      <trkpt lat="44.55445" lon="6.05504">
        <ele>807.8</ele>
        <time>2025-06-12T06:48:15Z</time>
      </trkpt>
      <trkpt lat="44.55454" lon="6.05505">
        <ele>808</ele>
        <time>2025-06-12T06:48:17Z</time>
      </trkpt>
      <trkpt lat="44.55459" lon="6.05505">
        <ele>808</ele>
        <time>2025-06-12T06:48:18Z</time>
      </trkpt>
      <trkpt lat="44.55463" lon="6.05505">
        <ele>808</ele>
        <time>2025-06-12T06:48:19Z</time>
      </trkpt>
      <trkpt lat="44.55468" lon="6.05505">
        <ele>808</ele>
        <time>2025-06-12T06:48:20Z</time>
      </trkpt>
      <trkpt lat="44.55477" lon="6.05505">
        <ele>808</ele>
        <time>2025-06-12T06:48:22Z</time>
      </trkpt>
      <trkpt lat="44.55481" lon="6.05506">
        <ele>808</ele>
        <time>2025-06-12T06:48:23Z</time>
      </trkpt>
      <trkpt lat="44.55486" lon="6.05506">
        <ele>808</ele>
        <time>2025-06-12T06:48:24Z</time>
      </trkpt>
      <trkpt lat="44.5549" lon="6.05506">
        <ele>808</ele>
        <time>2025-06-12T06:48:25Z</time>
      </trkpt>
      <trkpt lat="44.55495" lon="6.05507">
        <ele>808</ele>
        <time>2025-06-12T06:48:26Z</time>
      </trkpt>
      <trkpt lat="44.555" lon="6.05507">
        <ele>808</ele>
        <time>2025-06-12T06:48:27Z</time>
      </trkpt>
      <trkpt lat="44.55508" lon="6.05507">
        <ele>808</ele>
        <time>2025-06-12T06:48:29Z</time>
      </trkpt>
      <trkpt lat="44.55513" lon="6.05507">
        <ele>808</ele>
        <time>2025-06-12T06:48:30Z</time>
      </trkpt>
      <trkpt lat="44.55517" lon="6.05507">
        <ele>808.2</ele>
        <time>2025-06-12T06:48:31Z</time>
      </trkpt>
      <trkpt lat="44.55522" lon="6.05508">
        <ele>808.2</ele>
        <time>2025-06-12T06:48:32Z</time>
      </trkpt>
      <trkpt lat="44.55526" lon="6.05508">
        <ele>808.2</ele>
        <time>2025-06-12T06:48:33Z</time>
      </trkpt>
      <trkpt lat="44.5553" lon="6.05508">
        <ele>808.2</ele>
        <time>2025-06-12T06:48:34Z</time>
      </trkpt>
      <trkpt lat="44.55534" lon="6.05508">
        <ele>808.4</ele>
        <time>2025-06-12T06:48:35Z</time>
      </trkpt>
      <trkpt lat="44.55538" lon="6.05509">
        <ele>808.4</ele>
        <time>2025-06-12T06:48:36Z</time>
      </trkpt>
      <trkpt lat="44.55547" lon="6.05509">
        <ele>808.8</ele>
        <time>2025-06-12T06:48:38Z</time>
      </trkpt>
      <trkpt lat="44.55551" lon="6.05509">
        <ele>808.8</ele>
        <time>2025-06-12T06:48:39Z</time>
      </trkpt>
      <trkpt lat="44.55555" lon="6.05509">
        <ele>809</ele>
        <time>2025-06-12T06:48:40Z</time>
      </trkpt>
      <trkpt lat="44.55559" lon="6.05509">
        <ele>809</ele>
        <time>2025-06-12T06:48:41Z</time>
      </trkpt>
      <trkpt lat="44.55563" lon="6.0551">
        <ele>809.2</ele>
        <time>2025-06-12T06:48:42Z</time>
      </trkpt>
      <trkpt lat="44.55567" lon="6.0551">
        <ele>809.4</ele>
        <time>2025-06-12T06:48:43Z</time>
      </trkpt>
      <trkpt lat="44.55571" lon="6.0551">
        <ele>809.6</ele>
        <time>2025-06-12T06:48:44Z</time>
      </trkpt>
      <trkpt lat="44.55575" lon="6.0551">
        <ele>809.6</ele>
        <time>2025-06-12T06:48:45Z</time>
      </trkpt>
      <trkpt lat="44.55583" lon="6.05511">
        <ele>810</ele>
        <time>2025-06-12T06:48:47Z</time>
      </trkpt>
      <trkpt lat="44.55587" lon="6.05511">
        <ele>810.2</ele>
        <time>2025-06-12T06:48:48Z</time>
      </trkpt>
      <trkpt lat="44.55591" lon="6.05511">
        <ele>810.4</ele>
        <time>2025-06-12T06:48:49Z</time>
      </trkpt>
      <trkpt lat="44.55595" lon="6.05511">
        <ele>810.8</ele>
        <time>2025-06-12T06:48:50Z</time>
      </trkpt>
      <trkpt lat="44.55599" lon="6.05511">
        <ele>811</ele>
        <time>2025-06-12T06:48:51Z</time>
      </trkpt>
      <trkpt lat="44.55603" lon="6.05512">
        <ele>811.4</ele>
        <time>2025-06-12T06:48:52Z</time>
      </trkpt>
      <trkpt lat="44.5561" lon="6.05512">
        <ele>811.8</ele>
        <time>2025-06-12T06:48:54Z</time>
      </trkpt>
      <trkpt lat="44.55618" lon="6.05512">
        <ele>812.2</ele>
        <time>2025-06-12T06:48:56Z</time>
      </trkpt>
      <trkpt lat="44.55622" lon="6.05512">
        <ele>812.4</ele>
        <time>2025-06-12T06:48:57Z</time>
      </trkpt>
      <trkpt lat="44.55626" lon="6.05513">
        <ele>812.6</ele>
        <time>2025-06-12T06:48:58Z</time>
      </trkpt>
      <trkpt lat="44.5563" lon="6.05513">
        <ele>813</ele>
        <time>2025-06-12T06:48:59Z</time>
      </trkpt>
      <trkpt lat="44.55634" lon="6.05513">
        <ele>813.2</ele>
        <time>2025-06-12T06:49:00Z</time>
      </trkpt>
      <trkpt lat="44.55637" lon="6.05513">
        <ele>813.4</ele>
        <time>2025-06-12T06:49:01Z</time>
      </trkpt>
      <trkpt lat="44.55641" lon="6.05513">
        <ele>813.6</ele>
        <time>2025-06-12T06:49:02Z</time>
      </trkpt>
      <trkpt lat="44.55645" lon="6.05513">
        <ele>814</ele>
        <time>2025-06-12T06:49:03Z</time>
      </trkpt>
      <trkpt lat="44.55653" lon="6.05514">
        <ele>814.4</ele>
        <time>2025-06-12T06:49:05Z</time>
      </trkpt>
      <trkpt lat="44.55656" lon="6.05514">
        <ele>814.6</ele>
        <time>2025-06-12T06:49:06Z</time>
      </trkpt>
      <trkpt lat="44.5566" lon="6.05514">
        <ele>814.8</ele>
        <time>2025-06-12T06:49:07Z</time>
      </trkpt>
      <trkpt lat="44.55664" lon="6.05514">
        <ele>815</ele>
        <time>2025-06-12T06:49:08Z</time>
      </trkpt>
      <trkpt lat="44.55671" lon="6.05515">
        <ele>815.4</ele>
        <time>2025-06-12T06:49:10Z</time>
      </trkpt>
      <trkpt lat="44.55679" lon="6.05515">
        <ele>815.8</ele>
        <time>2025-06-12T06:49:12Z</time>
      </trkpt>
      <trkpt lat="44.55683" lon="6.05516">
        <ele>816</ele>
        <time>2025-06-12T06:49:13Z</time>
      </trkpt>
      <trkpt lat="44.55686" lon="6.05516">
        <ele>816.2</ele>
        <time>2025-06-12T06:49:14Z</time>
      </trkpt>
      <trkpt lat="44.5569" lon="6.05516">
        <ele>816.6</ele>
        <time>2025-06-12T06:49:15Z</time>
      </trkpt>
      <trkpt lat="44.55694" lon="6.05516">
        <ele>817</ele>
        <time>2025-06-12T06:49:16Z</time>
      </trkpt>
      <trkpt lat="44.55697" lon="6.05516">
        <ele>817.4</ele>
        <time>2025-06-12T06:49:17Z</time>
      </trkpt>
      <trkpt lat="44.55704" lon="6.05517">
        <ele>818.4</ele>
        <time>2025-06-12T06:49:19Z</time>
      </trkpt>
      <trkpt lat="44.55708" lon="6.05517">
        <ele>818.6</ele>
        <time>2025-06-12T06:49:20Z</time>
      </trkpt>
      <trkpt lat="44.55711" lon="6.05518">
        <ele>818.8</ele>
        <time>2025-06-12T06:49:21Z</time>
      </trkpt>
      <trkpt lat="44.55715" lon="6.05519">
        <ele>819</ele>
        <time>2025-06-12T06:49:22Z</time>
      </trkpt>
      <trkpt lat="44.55718" lon="6.05519">
        <ele>819.2</ele>
        <time>2025-06-12T06:49:23Z</time>
      </trkpt>
      <trkpt lat="44.55722" lon="6.0552">
        <ele>819.6</ele>
        <time>2025-06-12T06:49:24Z</time>
      </trkpt>
      <trkpt lat="44.55728" lon="6.05522">
        <ele>820</ele>
        <time>2025-06-12T06:49:26Z</time>
      </trkpt>
      <trkpt lat="44.55735" lon="6.05527">
        <ele>820.2</ele>
        <time>2025-06-12T06:49:28Z</time>
      </trkpt>
      <trkpt lat="44.55738" lon="6.05531">
        <ele>820.4</ele>
        <time>2025-06-12T06:49:29Z</time>
      </trkpt>
      <trkpt lat="44.55741" lon="6.05536">
        <ele>820.6</ele>
        <time>2025-06-12T06:49:30Z</time>
      </trkpt>
      <trkpt lat="44.55744" lon="6.05541">
        <ele>820.6</ele>
        <time>2025-06-12T06:49:31Z</time>
      </trkpt>
      <trkpt lat="44.55749" lon="6.05552">
        <ele>820.6</ele>
        <time>2025-06-12T06:49:33Z</time>
      </trkpt>
      <trkpt lat="44.5575" lon="6.05559">
        <ele>820.6</ele>
        <time>2025-06-12T06:49:34Z</time>
      </trkpt>
      <trkpt lat="44.5575" lon="6.05567">
        <ele>820.6</ele>
        <time>2025-06-12T06:49:35Z</time>
      </trkpt>
      <trkpt lat="44.55751" lon="6.05582">
        <ele>820.6</ele>
        <time>2025-06-12T06:49:37Z</time>
      </trkpt>
      <trkpt lat="44.55751" lon="6.05591">
        <ele>820.6</ele>
        <time>2025-06-12T06:49:38Z</time>
      </trkpt>
      <trkpt lat="44.55751" lon="6.05599">
        <ele>820.6</ele>
        <time>2025-06-12T06:49:39Z</time>
      </trkpt>
      <trkpt lat="44.55751" lon="6.05607">
        <ele>820.6</ele>
        <time>2025-06-12T06:49:40Z</time>
      </trkpt>
      <trkpt lat="44.55751" lon="6.05616">
        <ele>820.6</ele>
        <time>2025-06-12T06:49:41Z</time>
      </trkpt>
      <trkpt lat="44.5575" lon="6.05624">
        <ele>820.4</ele>
        <time>2025-06-12T06:49:42Z</time>
      </trkpt>
      <trkpt lat="44.5575" lon="6.05633">
        <ele>820.4</ele>
        <time>2025-06-12T06:49:43Z</time>
      </trkpt>
      <trkpt lat="44.5575" lon="6.05641">
        <ele>820.2</ele>
        <time>2025-06-12T06:49:44Z</time>
      </trkpt>
      <trkpt lat="44.55749" lon="6.05658">
        <ele>819.4</ele>
        <time>2025-06-12T06:49:46Z</time>
      </trkpt>
      <trkpt lat="44.55749" lon="6.05673">
        <ele>818.8</ele>
        <time>2025-06-12T06:49:48Z</time>
      </trkpt>
      <trkpt lat="44.55749" lon="6.05681">
        <ele>818.6</ele>
        <time>2025-06-12T06:49:49Z</time>
      </trkpt>
      <trkpt lat="44.55749" lon="6.05689">
        <ele>818.6</ele>
        <time>2025-06-12T06:49:50Z</time>
      </trkpt>
      <trkpt lat="44.55748" lon="6.05696">
        <ele>818.6</ele>
        <time>2025-06-12T06:49:51Z</time>
      </trkpt>
      <trkpt lat="44.55748" lon="6.05703">
        <ele>818.4</ele>
        <time>2025-06-12T06:49:52Z</time>
      </trkpt>
      <trkpt lat="44.55748" lon="6.0571">
        <ele>818.4</ele>
        <time>2025-06-12T06:49:53Z</time>
      </trkpt>
      <trkpt lat="44.55748" lon="6.05725">
        <ele>818.4</ele>
        <time>2025-06-12T06:49:55Z</time>
      </trkpt>
      <trkpt lat="44.55747" lon="6.0574">
        <ele>818.4</ele>
        <time>2025-06-12T06:49:57Z</time>
      </trkpt>
      <trkpt lat="44.55747" lon="6.05747">
        <ele>818.4</ele>
        <time>2025-06-12T06:49:58Z</time>
      </trkpt>
      <trkpt lat="44.55747" lon="6.05756">
        <ele>818.2</ele>
        <time>2025-06-12T06:49:59Z</time>
      </trkpt>
      <trkpt lat="44.55747" lon="6.05764">
        <ele>818.2</ele>
        <time>2025-06-12T06:50:00Z</time>
      </trkpt>
      <trkpt lat="44.55747" lon="6.05772">
        <ele>818.2</ele>
        <time>2025-06-12T06:50:01Z</time>
      </trkpt>
      <trkpt lat="44.55747" lon="6.05781">
        <ele>818.2</ele>
        <time>2025-06-12T06:50:02Z</time>
      </trkpt>
      <trkpt lat="44.55746" lon="6.05799">
        <ele>818.2</ele>
        <time>2025-06-12T06:50:04Z</time>
      </trkpt>
      <trkpt lat="44.55746" lon="6.05818">
        <ele>818</ele>
        <time>2025-06-12T06:50:06Z</time>
      </trkpt>
      <trkpt lat="44.55745" lon="6.05828">
        <ele>817.8</ele>
        <time>2025-06-12T06:50:07Z</time>
      </trkpt>
      <trkpt lat="44.55745" lon="6.05838">
        <ele>817.6</ele>
        <time>2025-06-12T06:50:08Z</time>
      </trkpt>
      <trkpt lat="44.55745" lon="6.05848">
        <ele>817.4</ele>
        <time>2025-06-12T06:50:09Z</time>
      </trkpt>
      <trkpt lat="44.55744" lon="6.05858">
        <ele>817</ele>
        <time>2025-06-12T06:50:10Z</time>
      </trkpt>
      <trkpt lat="44.55744" lon="6.05869">
        <ele>816.6</ele>
        <time>2025-06-12T06:50:11Z</time>
      </trkpt>
      <trkpt lat="44.55744" lon="6.05879">
        <ele>816.4</ele>
        <time>2025-06-12T06:50:12Z</time>
      </trkpt>
      <trkpt lat="44.55744" lon="6.05889">
        <ele>816</ele>
        <time>2025-06-12T06:50:13Z</time>
      </trkpt>
      <trkpt lat="44.55743" lon="6.05909">
        <ele>815.6</ele>
        <time>2025-06-12T06:50:15Z</time>
      </trkpt>
      <trkpt lat="44.55743" lon="6.05929">
        <ele>815.2</ele>
        <time>2025-06-12T06:50:17Z</time>
      </trkpt>
      <trkpt lat="44.55742" lon="6.05938">
        <ele>815.2</ele>
        <time>2025-06-12T06:50:18Z</time>
      </trkpt>
      <trkpt lat="44.55742" lon="6.05948">
        <ele>815</ele>
        <time>2025-06-12T06:50:19Z</time>
      </trkpt>
      <trkpt lat="44.55742" lon="6.05958">
        <ele>814.6</ele>
        <time>2025-06-12T06:50:20Z</time>
      </trkpt>
      <trkpt lat="44.55741" lon="6.05976">
        <ele>814.2</ele>
        <time>2025-06-12T06:50:22Z</time>
      </trkpt>
      <trkpt lat="44.5574" lon="6.05994">
        <ele>814</ele>
        <time>2025-06-12T06:50:24Z</time>
      </trkpt>
      <trkpt lat="44.55739" lon="6.06003">
        <ele>813.6</ele>
        <time>2025-06-12T06:50:25Z</time>
      </trkpt>
      <trkpt lat="44.55737" lon="6.06011">
        <ele>813.4</ele>
        <time>2025-06-12T06:50:26Z</time>
      </trkpt>
      <trkpt lat="44.55735" lon="6.0602">
        <ele>813.4</ele>
        <time>2025-06-12T06:50:27Z</time>
      </trkpt>
      <trkpt lat="44.55732" lon="6.06027">
        <ele>813.4</ele>
        <time>2025-06-12T06:50:28Z</time>
      </trkpt>
      <trkpt lat="44.55729" lon="6.06034">
        <ele>813.4</ele>
        <time>2025-06-12T06:50:29Z</time>
      </trkpt>
      <trkpt lat="44.55725" lon="6.0604">
        <ele>813.4</ele>
        <time>2025-06-12T06:50:30Z</time>
      </trkpt>
      <trkpt lat="44.55721" lon="6.06046">
        <ele>813.2</ele>
        <time>2025-06-12T06:50:31Z</time>
      </trkpt>
      <trkpt lat="44.55717" lon="6.06052">
        <ele>813.2</ele>
        <time>2025-06-12T06:50:32Z</time>
      </trkpt>
      <trkpt lat="44.55713" lon="6.06057">
        <ele>813.2</ele>
        <time>2025-06-12T06:50:33Z</time>
      </trkpt>
      <trkpt lat="44.55709" lon="6.06063">
        <ele>813.2</ele>
        <time>2025-06-12T06:50:34Z</time>
      </trkpt>
      <trkpt lat="44.55705" lon="6.06068">
        <ele>813.2</ele>
        <time>2025-06-12T06:50:35Z</time>
      </trkpt>
      <trkpt lat="44.557" lon="6.06073">
        <ele>813.2</ele>
        <time>2025-06-12T06:50:36Z</time>
      </trkpt>
      <trkpt lat="44.55695" lon="6.06079">
        <ele>813.2</ele>
        <time>2025-06-12T06:50:37Z</time>
      </trkpt>
      <trkpt lat="44.55691" lon="6.06084">
        <ele>813.2</ele>
        <time>2025-06-12T06:50:38Z</time>
      </trkpt>
      <trkpt lat="44.55686" lon="6.06091">
        <ele>813.2</ele>
        <time>2025-06-12T06:50:39Z</time>
      </trkpt>
      <trkpt lat="44.55681" lon="6.06097">
        <ele>813.2</ele>
        <time>2025-06-12T06:50:40Z</time>
      </trkpt>
      <trkpt lat="44.55675" lon="6.06104">
        <ele>813</ele>
        <time>2025-06-12T06:50:41Z</time>
      </trkpt>
      <trkpt lat="44.5567" lon="6.06112">
        <ele>813</ele>
        <time>2025-06-12T06:50:42Z</time>
      </trkpt>
      <trkpt lat="44.55664" lon="6.06119">
        <ele>813</ele>
        <time>2025-06-12T06:50:43Z</time>
      </trkpt>
      <trkpt lat="44.55658" lon="6.06126">
        <ele>812.8</ele>
        <time>2025-06-12T06:50:44Z</time>
      </trkpt>
      <trkpt lat="44.55653" lon="6.06135">
        <ele>812.4</ele>
        <time>2025-06-12T06:50:45Z</time>
      </trkpt>
      <trkpt lat="44.55648" lon="6.06144">
        <ele>812.2</ele>
        <time>2025-06-12T06:50:46Z</time>
      </trkpt>
      <trkpt lat="44.55643" lon="6.06164">
        <ele>811.6</ele>
        <time>2025-06-12T06:50:48Z</time>
      </trkpt>
      <trkpt lat="44.55642" lon="6.06176">
        <ele>811</ele>
        <time>2025-06-12T06:50:49Z</time>
      </trkpt>
      <trkpt lat="44.55643" lon="6.06188">
        <ele>810.4</ele>
        <time>2025-06-12T06:50:50Z</time>
      </trkpt>
      <trkpt lat="44.55647" lon="6.06199">
        <ele>809.6</ele>
        <time>2025-06-12T06:50:51Z</time>
      </trkpt>
      <trkpt lat="44.55652" lon="6.06209">
        <ele>809</ele>
        <time>2025-06-12T06:50:52Z</time>
      </trkpt>
      <trkpt lat="44.55658" lon="6.06219">
        <ele>808.4</ele>
        <time>2025-06-12T06:50:53Z</time>
      </trkpt>
      <trkpt lat="44.55673" lon="6.06235">
        <ele>807.6</ele>
        <time>2025-06-12T06:50:55Z</time>
      </trkpt>
      <trkpt lat="44.55681" lon="6.06242">
        <ele>807.4</ele>
        <time>2025-06-12T06:50:56Z</time>
      </trkpt>
      <trkpt lat="44.55689" lon="6.06249">
        <ele>807</ele>
        <time>2025-06-12T06:50:57Z</time>
      </trkpt>
      <trkpt lat="44.55699" lon="6.06257">
        <ele>806.6</ele>
        <time>2025-06-12T06:50:58Z</time>
      </trkpt>
      <trkpt lat="44.55706" lon="6.06265">
        <ele>806</ele>
        <time>2025-06-12T06:50:59Z</time>
      </trkpt>
      <trkpt lat="44.55713" lon="6.06274">
        <ele>805.6</ele>
        <time>2025-06-12T06:51:00Z</time>
      </trkpt>
      <trkpt lat="44.55718" lon="6.06284">
        <ele>805</ele>
        <time>2025-06-12T06:51:01Z</time>
      </trkpt>
      <trkpt lat="44.55722" lon="6.06294">
        <ele>804.6</ele>
        <time>2025-06-12T06:51:02Z</time>
      </trkpt>
      <trkpt lat="44.55724" lon="6.06305">
        <ele>804</ele>
        <time>2025-06-12T06:51:03Z</time>
      </trkpt>
      <trkpt lat="44.55726" lon="6.06316">
        <ele>803.4</ele>
        <time>2025-06-12T06:51:04Z</time>
      </trkpt>
      <trkpt lat="44.55726" lon="6.06327">
        <ele>802.8</ele>
        <time>2025-06-12T06:51:05Z</time>
      </trkpt>
      <trkpt lat="44.55724" lon="6.06337">
        <ele>802</ele>
        <time>2025-06-12T06:51:06Z</time>
      </trkpt>
      <trkpt lat="44.55721" lon="6.06346">
        <ele>801.6</ele>
        <time>2025-06-12T06:51:07Z</time>
      </trkpt>
      <trkpt lat="44.55717" lon="6.06355">
        <ele>800.8</ele>
        <time>2025-06-12T06:51:08Z</time>
      </trkpt>
      <trkpt lat="44.55711" lon="6.06362">
        <ele>800.6</ele>
        <time>2025-06-12T06:51:09Z</time>
      </trkpt>
      <trkpt lat="44.55706" lon="6.06371">
        <ele>800.2</ele>
        <time>2025-06-12T06:51:10Z</time>
      </trkpt>
      <trkpt lat="44.557" lon="6.06379">
        <ele>799.8</ele>
        <time>2025-06-12T06:51:11Z</time>
      </trkpt>
      <trkpt lat="44.55693" lon="6.06387">
        <ele>799.4</ele>
        <time>2025-06-12T06:51:12Z</time>
      </trkpt>
      <trkpt lat="44.55686" lon="6.06395">
        <ele>799.2</ele>
        <time>2025-06-12T06:51:13Z</time>
      </trkpt>
      <trkpt lat="44.55679" lon="6.06402">
        <ele>798.8</ele>
        <time>2025-06-12T06:51:14Z</time>
      </trkpt>
      <trkpt lat="44.55671" lon="6.06409">
        <ele>798.6</ele>
        <time>2025-06-12T06:51:15Z</time>
      </trkpt>
      <trkpt lat="44.55664" lon="6.06416">
        <ele>798.2</ele>
        <time>2025-06-12T06:51:16Z</time>
      </trkpt>
      <trkpt lat="44.55656" lon="6.06424">
        <ele>798</ele>
        <time>2025-06-12T06:51:17Z</time>
      </trkpt>
      <trkpt lat="44.5564" lon="6.06438">
        <ele>797.4</ele>
        <time>2025-06-12T06:51:19Z</time>
      </trkpt>
      <trkpt lat="44.55631" lon="6.06445">
        <ele>797</ele>
        <time>2025-06-12T06:51:20Z</time>
      </trkpt>
      <trkpt lat="44.55623" lon="6.06453">
        <ele>796.4</ele>
        <time>2025-06-12T06:51:21Z</time>
      </trkpt>
      <trkpt lat="44.55615" lon="6.0646">
        <ele>795.8</ele>
        <time>2025-06-12T06:51:22Z</time>
      </trkpt>
      <trkpt lat="44.55608" lon="6.0647">
        <ele>795</ele>
        <time>2025-06-12T06:51:23Z</time>
      </trkpt>
      <trkpt lat="44.55601" lon="6.0648">
        <ele>794.2</ele>
        <time>2025-06-12T06:51:24Z</time>
      </trkpt>
      <trkpt lat="44.55594" lon="6.06505">
        <ele>793</ele>
        <time>2025-06-12T06:51:26Z</time>
      </trkpt>
      <trkpt lat="44.55592" lon="6.06519">
        <ele>792.6</ele>
        <time>2025-06-12T06:51:27Z</time>
      </trkpt>
      <trkpt lat="44.55593" lon="6.06533">
        <ele>792.2</ele>
        <time>2025-06-12T06:51:28Z</time>
      </trkpt>
      <trkpt lat="44.55595" lon="6.06548">
        <ele>791.4</ele>
        <time>2025-06-12T06:51:29Z</time>
      </trkpt>
      <trkpt lat="44.55599" lon="6.06563">
        <ele>790.4</ele>
        <time>2025-06-12T06:51:30Z</time>
      </trkpt>
      <trkpt lat="44.55603" lon="6.06577">
        <ele>789.6</ele>
        <time>2025-06-12T06:51:31Z</time>
      </trkpt>
      <trkpt lat="44.55607" lon="6.06592">
        <ele>789.2</ele>
        <time>2025-06-12T06:51:32Z</time>
      </trkpt>
      <trkpt lat="44.55612" lon="6.06607">
        <ele>789</ele>
        <time>2025-06-12T06:51:33Z</time>
      </trkpt>
      <trkpt lat="44.55616" lon="6.06621">
        <ele>788.4</ele>
        <time>2025-06-12T06:51:34Z</time>
      </trkpt>
      <trkpt lat="44.55621" lon="6.06636">
        <ele>788</ele>
        <time>2025-06-12T06:51:35Z</time>
      </trkpt>
      <trkpt lat="44.55626" lon="6.06651">
        <ele>787</ele>
        <time>2025-06-12T06:51:36Z</time>
      </trkpt>
      <trkpt lat="44.55631" lon="6.06666">
        <ele>786.6</ele>
        <time>2025-06-12T06:51:37Z</time>
      </trkpt>
      <trkpt lat="44.5564" lon="6.06696">
        <ele>785.4</ele>
        <time>2025-06-12T06:51:39Z</time>
      </trkpt>
      <trkpt lat="44.5565" lon="6.06726">
        <ele>784</ele>
        <time>2025-06-12T06:51:41Z</time>
      </trkpt>
      <trkpt lat="44.55654" lon="6.0674">
        <ele>783.2</ele>
        <time>2025-06-12T06:51:42Z</time>
      </trkpt>
      <trkpt lat="44.55659" lon="6.06755">
        <ele>782.6</ele>
        <time>2025-06-12T06:51:43Z</time>
      </trkpt>
      <trkpt lat="44.55666" lon="6.06769">
        <ele>781.8</ele>
        <time>2025-06-12T06:51:44Z</time>
      </trkpt>
      <trkpt lat="44.55673" lon="6.06781">
        <ele>781.2</ele>
        <time>2025-06-12T06:51:45Z</time>
      </trkpt>
      <trkpt lat="44.55682" lon="6.0679">
        <ele>780.2</ele>
        <time>2025-06-12T06:51:46Z</time>
      </trkpt>
      <trkpt lat="44.55691" lon="6.06798">
        <ele>779.6</ele>
        <time>2025-06-12T06:51:47Z</time>
      </trkpt>
      <trkpt lat="44.55702" lon="6.06805">
        <ele>779.2</ele>
        <time>2025-06-12T06:51:48Z</time>
      </trkpt>
      <trkpt lat="44.55713" lon="6.06808">
        <ele>779</ele>
        <time>2025-06-12T06:51:49Z</time>
      </trkpt>
      <trkpt lat="44.55724" lon="6.06811">
        <ele>778.6</ele>
        <time>2025-06-12T06:51:50Z</time>
      </trkpt>
      <trkpt lat="44.55734" lon="6.06812">
        <ele>777.8</ele>
        <time>2025-06-12T06:51:51Z</time>
      </trkpt>
      <trkpt lat="44.55743" lon="6.06814">
        <ele>777.2</ele>
        <time>2025-06-12T06:51:52Z</time>
      </trkpt>
      <trkpt lat="44.55752" lon="6.06817">
        <ele>776.8</ele>
        <time>2025-06-12T06:51:53Z</time>
      </trkpt>
      <trkpt lat="44.5576" lon="6.06821">
        <ele>776.2</ele>
        <time>2025-06-12T06:51:54Z</time>
      </trkpt>
      <trkpt lat="44.55772" lon="6.06835">
        <ele>775.2</ele>
        <time>2025-06-12T06:51:56Z</time>
      </trkpt>
      <trkpt lat="44.55775" lon="6.06844">
        <ele>774.8</ele>
        <time>2025-06-12T06:51:57Z</time>
      </trkpt>
      <trkpt lat="44.55777" lon="6.06854">
        <ele>774.4</ele>
        <time>2025-06-12T06:51:58Z</time>
      </trkpt>
      <trkpt lat="44.55779" lon="6.06865">
        <ele>774</ele>
        <time>2025-06-12T06:51:59Z</time>
      </trkpt>
      <trkpt lat="44.55782" lon="6.06875">
        <ele>773.8</ele>
        <time>2025-06-12T06:52:00Z</time>
      </trkpt>
      <trkpt lat="44.55786" lon="6.06886">
        <ele>773.4</ele>
        <time>2025-06-12T06:52:01Z</time>
      </trkpt>
      <trkpt lat="44.55789" lon="6.06896">
        <ele>773.2</ele>
        <time>2025-06-12T06:52:02Z</time>
      </trkpt>
      <trkpt lat="44.55793" lon="6.06906">
        <ele>772.8</ele>
        <time>2025-06-12T06:52:03Z</time>
      </trkpt>
      <trkpt lat="44.55797" lon="6.06916">
        <ele>772.6</ele>
        <time>2025-06-12T06:52:04Z</time>
      </trkpt>
      <trkpt lat="44.55801" lon="6.06926">
        <ele>772.4</ele>
        <time>2025-06-12T06:52:05Z</time>
      </trkpt>
      <trkpt lat="44.55808" lon="6.06945">
        <ele>771.6</ele>
        <time>2025-06-12T06:52:07Z</time>
      </trkpt>
      <trkpt lat="44.55816" lon="6.06964">
        <ele>770.6</ele>
        <time>2025-06-12T06:52:09Z</time>
      </trkpt>
      <trkpt lat="44.55821" lon="6.06973">
        <ele>770.4</ele>
        <time>2025-06-12T06:52:10Z</time>
      </trkpt>
      <trkpt lat="44.55825" lon="6.06983">
        <ele>770</ele>
        <time>2025-06-12T06:52:11Z</time>
      </trkpt>
      <trkpt lat="44.55829" lon="6.06992">
        <ele>770</ele>
        <time>2025-06-12T06:52:12Z</time>
      </trkpt>
      <trkpt lat="44.55833" lon="6.07001">
        <ele>769.8</ele>
        <time>2025-06-12T06:52:13Z</time>
      </trkpt>
      <trkpt lat="44.55838" lon="6.0701">
        <ele>769.8</ele>
        <time>2025-06-12T06:52:14Z</time>
      </trkpt>
      <trkpt lat="44.55843" lon="6.07018">
        <ele>769.6</ele>
        <time>2025-06-12T06:52:15Z</time>
      </trkpt>
      <trkpt lat="44.55848" lon="6.07027">
        <ele>769.4</ele>
        <time>2025-06-12T06:52:16Z</time>
      </trkpt>
      <trkpt lat="44.55854" lon="6.07036">
        <ele>769.4</ele>
        <time>2025-06-12T06:52:17Z</time>
      </trkpt>
      <trkpt lat="44.55859" lon="6.07045">
        <ele>769.2</ele>
        <time>2025-06-12T06:52:18Z</time>
      </trkpt>
      <trkpt lat="44.55865" lon="6.07053">
        <ele>769</ele>
        <time>2025-06-12T06:52:19Z</time>
      </trkpt>
      <trkpt lat="44.55871" lon="6.07061">
        <ele>768.8</ele>
        <time>2025-06-12T06:52:20Z</time>
      </trkpt>
      <trkpt lat="44.55883" lon="6.07078">
        <ele>768</ele>
        <time>2025-06-12T06:52:22Z</time>
      </trkpt>
      <trkpt lat="44.55896" lon="6.07094">
        <ele>767.6</ele>
        <time>2025-06-12T06:52:24Z</time>
      </trkpt>
      <trkpt lat="44.55909" lon="6.07109">
        <ele>767</ele>
        <time>2025-06-12T06:52:26Z</time>
      </trkpt>
      <trkpt lat="44.55915" lon="6.07117">
        <ele>766.6</ele>
        <time>2025-06-12T06:52:27Z</time>
      </trkpt>
      <trkpt lat="44.55922" lon="6.07124">
        <ele>766</ele>
        <time>2025-06-12T06:52:28Z</time>
      </trkpt>
      <trkpt lat="44.55928" lon="6.07132">
        <ele>765.6</ele>
        <time>2025-06-12T06:52:29Z</time>
      </trkpt>
      <trkpt lat="44.55935" lon="6.07139">
        <ele>765.2</ele>
        <time>2025-06-12T06:52:30Z</time>
      </trkpt>
      <trkpt lat="44.5594" lon="6.07147">
        <ele>765</ele>
        <time>2025-06-12T06:52:31Z</time>
      </trkpt>
      <trkpt lat="44.55951" lon="6.07161">
        <ele>764</ele>
        <time>2025-06-12T06:52:33Z</time>
      </trkpt>
      <trkpt lat="44.55962" lon="6.07173">
        <ele>763.8</ele>
        <time>2025-06-12T06:52:35Z</time>
      </trkpt>
      <trkpt lat="44.55966" lon="6.07179">
        <ele>763.8</ele>
        <time>2025-06-12T06:52:36Z</time>
      </trkpt>
      <trkpt lat="44.55971" lon="6.07185">
        <ele>763.6</ele>
        <time>2025-06-12T06:52:37Z</time>
      </trkpt>
      <trkpt lat="44.55976" lon="6.0719">
        <ele>763.4</ele>
        <time>2025-06-12T06:52:38Z</time>
      </trkpt>
      <trkpt lat="44.55981" lon="6.07194">
        <ele>763</ele>
        <time>2025-06-12T06:52:39Z</time>
      </trkpt>
      <trkpt lat="44.55988" lon="6.07197">
        <ele>762.8</ele>
        <time>2025-06-12T06:52:40Z</time>
      </trkpt>
      <trkpt lat="44.55999" lon="6.07205">
        <ele>762.4</ele>
        <time>2025-06-12T06:52:42Z</time>
      </trkpt>
      <trkpt lat="44.56004" lon="6.0721">
        <ele>762.2</ele>
        <time>2025-06-12T06:52:43Z</time>
      </trkpt>
      <trkpt lat="44.56008" lon="6.07216">
        <ele>762</ele>
        <time>2025-06-12T06:52:44Z</time>
      </trkpt>
      <trkpt lat="44.56012" lon="6.07224">
        <ele>761.8</ele>
        <time>2025-06-12T06:52:45Z</time>
      </trkpt>
      <trkpt lat="44.56015" lon="6.07231">
        <ele>761.6</ele>
        <time>2025-06-12T06:52:46Z</time>
      </trkpt>
      <trkpt lat="44.56019" lon="6.07239">
        <ele>761.6</ele>
        <time>2025-06-12T06:52:47Z</time>
      </trkpt>
      <trkpt lat="44.56022" lon="6.07246">
        <ele>761.4</ele>
        <time>2025-06-12T06:52:48Z</time>
      </trkpt>
      <trkpt lat="44.56026" lon="6.07254">
        <ele>761.2</ele>
        <time>2025-06-12T06:52:49Z</time>
      </trkpt>
      <trkpt lat="44.56031" lon="6.07262">
        <ele>760.8</ele>
        <time>2025-06-12T06:52:50Z</time>
      </trkpt>
      <trkpt lat="44.56036" lon="6.0727">
        <ele>760.4</ele>
        <time>2025-06-12T06:52:51Z</time>
      </trkpt>
      <trkpt lat="44.56042" lon="6.07277">
        <ele>760.2</ele>
        <time>2025-06-12T06:52:52Z</time>
      </trkpt>
      <trkpt lat="44.56047" lon="6.07284">
        <ele>760</ele>
        <time>2025-06-12T06:52:53Z</time>
      </trkpt>
      <trkpt lat="44.56051" lon="6.0729">
        <ele>759.6</ele>
        <time>2025-06-12T06:52:54Z</time>
      </trkpt>
      <trkpt lat="44.56056" lon="6.07296">
        <ele>759.6</ele>
        <time>2025-06-12T06:52:55Z</time>
      </trkpt>
      <trkpt lat="44.5606" lon="6.07302">
        <ele>759.4</ele>
        <time>2025-06-12T06:52:56Z</time>
      </trkpt>
      <trkpt lat="44.56071" lon="6.07315">
        <ele>759</ele>
        <time>2025-06-12T06:52:58Z</time>
      </trkpt>
      <trkpt lat="44.56077" lon="6.07322">
        <ele>758.2</ele>
        <time>2025-06-12T06:52:59Z</time>
      </trkpt>
      <trkpt lat="44.56082" lon="6.07329">
        <ele>757.8</ele>
        <time>2025-06-12T06:53:00Z</time>
      </trkpt>
      <trkpt lat="44.56089" lon="6.07337">
        <ele>757.4</ele>
        <time>2025-06-12T06:53:01Z</time>
      </trkpt>
      <trkpt lat="44.56095" lon="6.07344">
        <ele>757.2</ele>
        <time>2025-06-12T06:53:02Z</time>
      </trkpt>
      <trkpt lat="44.56101" lon="6.07352">
        <ele>757</ele>
        <time>2025-06-12T06:53:03Z</time>
      </trkpt>
      <trkpt lat="44.56108" lon="6.0736">
        <ele>756.8</ele>
        <time>2025-06-12T06:53:04Z</time>
      </trkpt>
      <trkpt lat="44.56115" lon="6.07368">
        <ele>756.6</ele>
        <time>2025-06-12T06:53:05Z</time>
      </trkpt>
      <trkpt lat="44.56127" lon="6.07384">
        <ele>755.8</ele>
        <time>2025-06-12T06:53:07Z</time>
      </trkpt>
      <trkpt lat="44.56139" lon="6.07399">
        <ele>754.4</ele>
        <time>2025-06-12T06:53:09Z</time>
      </trkpt>
      <trkpt lat="44.56151" lon="6.07415">
        <ele>753.6</ele>
        <time>2025-06-12T06:53:11Z</time>
      </trkpt>
      <trkpt lat="44.56157" lon="6.07422">
        <ele>753.2</ele>
        <time>2025-06-12T06:53:12Z</time>
      </trkpt>
      <trkpt lat="44.56162" lon="6.07429">
        <ele>752.6</ele>
        <time>2025-06-12T06:53:13Z</time>
      </trkpt>
      <trkpt lat="44.56167" lon="6.07435">
        <ele>752.2</ele>
        <time>2025-06-12T06:53:14Z</time>
      </trkpt>
      <trkpt lat="44.56173" lon="6.07442">
        <ele>752</ele>
        <time>2025-06-12T06:53:15Z</time>
      </trkpt>
      <trkpt lat="44.56178" lon="6.0745">
        <ele>751.8</ele>
        <time>2025-06-12T06:53:16Z</time>
      </trkpt>
      <trkpt lat="44.56184" lon="6.07458">
        <ele>751.8</ele>
        <time>2025-06-12T06:53:17Z</time>
      </trkpt>
      <trkpt lat="44.5619" lon="6.07466">
        <ele>751.6</ele>
        <time>2025-06-12T06:53:18Z</time>
      </trkpt>
      <trkpt lat="44.56196" lon="6.07476">
        <ele>751.6</ele>
        <time>2025-06-12T06:53:19Z</time>
      </trkpt>
      <trkpt lat="44.56203" lon="6.07486">
        <ele>751.4</ele>
        <time>2025-06-12T06:53:20Z</time>
      </trkpt>
      <trkpt lat="44.56209" lon="6.07496">
        <ele>751.4</ele>
        <time>2025-06-12T06:53:21Z</time>
      </trkpt>
      <trkpt lat="44.56216" lon="6.07507">
        <ele>751.2</ele>
        <time>2025-06-12T06:53:22Z</time>
      </trkpt>
      <trkpt lat="44.56222" lon="6.07518">
        <ele>751.2</ele>
        <time>2025-06-12T06:53:23Z</time>
      </trkpt>
      <trkpt lat="44.56228" lon="6.07529">
        <ele>751</ele>
        <time>2025-06-12T06:53:24Z</time>
      </trkpt>
      <trkpt lat="44.56235" lon="6.0754">
        <ele>750.6</ele>
        <time>2025-06-12T06:53:25Z</time>
      </trkpt>
      <trkpt lat="44.56248" lon="6.07562">
        <ele>748.8</ele>
        <time>2025-06-12T06:53:27Z</time>
      </trkpt>
      <trkpt lat="44.56253" lon="6.07574">
        <ele>747.6</ele>
        <time>2025-06-12T06:53:28Z</time>
      </trkpt>
      <trkpt lat="44.56259" lon="6.07586">
        <ele>746.8</ele>
        <time>2025-06-12T06:53:29Z</time>
      </trkpt>
      <trkpt lat="44.56263" lon="6.07598">
        <ele>746</ele>
        <time>2025-06-12T06:53:30Z</time>
      </trkpt>
      <trkpt lat="44.56267" lon="6.07608">
        <ele>745</ele>
        <time>2025-06-12T06:53:31Z</time>
      </trkpt>
      <trkpt lat="44.5627" lon="6.07619">
        <ele>744</ele>
        <time>2025-06-12T06:53:32Z</time>
      </trkpt>
      <trkpt lat="44.56273" lon="6.07628">
        <ele>742.8</ele>
        <time>2025-06-12T06:53:33Z</time>
      </trkpt>
      <trkpt lat="44.56275" lon="6.07637">
        <ele>741.8</ele>
        <time>2025-06-12T06:53:34Z</time>
      </trkpt>
      <trkpt lat="44.56277" lon="6.07644">
        <ele>740.6</ele>
        <time>2025-06-12T06:53:35Z</time>
      </trkpt>
      <trkpt lat="44.56278" lon="6.07651">
        <ele>739.6</ele>
        <time>2025-06-12T06:53:36Z</time>
      </trkpt>
      <trkpt lat="44.5628" lon="6.07661">
        <ele>738.4</ele>
        <time>2025-06-12T06:53:38Z</time>
      </trkpt>
      <trkpt lat="44.56282" lon="6.07669">
        <ele>738</ele>
        <time>2025-06-12T06:53:40Z</time>
      </trkpt>
      <trkpt lat="44.56283" lon="6.07673">
        <ele>738</ele>
        <time>2025-06-12T06:53:41Z</time>
      </trkpt>
      <trkpt lat="44.56283" lon="6.07678">
        <ele>737.8</ele>
        <time>2025-06-12T06:53:42Z</time>
      </trkpt>
      <trkpt lat="44.56284" lon="6.07683">
        <ele>737.8</ele>
        <time>2025-06-12T06:53:43Z</time>
      </trkpt>
      <trkpt lat="44.56286" lon="6.07689">
        <ele>737.8</ele>
        <time>2025-06-12T06:53:44Z</time>
      </trkpt>
      <trkpt lat="44.56287" lon="6.07695">
        <ele>737.6</ele>
        <time>2025-06-12T06:53:45Z</time>
      </trkpt>
      <trkpt lat="44.56289" lon="6.07701">
        <ele>737.6</ele>
        <time>2025-06-12T06:53:46Z</time>
      </trkpt>
      <trkpt lat="44.56291" lon="6.07708">
        <ele>737.6</ele>
        <time>2025-06-12T06:53:47Z</time>
      </trkpt>
      <trkpt lat="44.56293" lon="6.07716">
        <ele>737.6</ele>
        <time>2025-06-12T06:53:48Z</time>
      </trkpt>
      <trkpt lat="44.56295" lon="6.07724">
        <ele>737.6</ele>
        <time>2025-06-12T06:53:49Z</time>
      </trkpt>
      <trkpt lat="44.56296" lon="6.07732">
        <ele>737.6</ele>
        <time>2025-06-12T06:53:50Z</time>
      </trkpt>
      <trkpt lat="44.56298" lon="6.07741">
        <ele>737.6</ele>
        <time>2025-06-12T06:53:51Z</time>
      </trkpt>
      <trkpt lat="44.56301" lon="6.07749">
        <ele>737.4</ele>
        <time>2025-06-12T06:53:52Z</time>
      </trkpt>
      <trkpt lat="44.56302" lon="6.07759">
        <ele>737.2</ele>
        <time>2025-06-12T06:53:53Z</time>
      </trkpt>
      <trkpt lat="44.56306" lon="6.07777">
        <ele>736.4</ele>
        <time>2025-06-12T06:53:55Z</time>
      </trkpt>
      <trkpt lat="44.56308" lon="6.07786">
        <ele>736.2</ele>
        <time>2025-06-12T06:53:56Z</time>
      </trkpt>
      <trkpt lat="44.5631" lon="6.07796">
        <ele>735.8</ele>
        <time>2025-06-12T06:53:57Z</time>
      </trkpt>
      <trkpt lat="44.56312" lon="6.07806">
        <ele>735.6</ele>
        <time>2025-06-12T06:53:58Z</time>
      </trkpt>
      <trkpt lat="44.56314" lon="6.07815">
        <ele>735.2</ele>
        <time>2025-06-12T06:53:59Z</time>
      </trkpt>
      <trkpt lat="44.56317" lon="6.07825">
        <ele>734.8</ele>
        <time>2025-06-12T06:54:00Z</time>
      </trkpt>
      <trkpt lat="44.56321" lon="6.07833">
        <ele>734.4</ele>
        <time>2025-06-12T06:54:01Z</time>
      </trkpt>
      <trkpt lat="44.56326" lon="6.07838">
        <ele>734.2</ele>
        <time>2025-06-12T06:54:02Z</time>
      </trkpt>
      <trkpt lat="44.56338" lon="6.07845">
        <ele>733.8</ele>
        <time>2025-06-12T06:54:04Z</time>
      </trkpt>
      <trkpt lat="44.56344" lon="6.07847">
        <ele>733.6</ele>
        <time>2025-06-12T06:54:05Z</time>
      </trkpt>
      <trkpt lat="44.56349" lon="6.07849">
        <ele>733.2</ele>
        <time>2025-06-12T06:54:06Z</time>
      </trkpt>
      <trkpt lat="44.56355" lon="6.07852">
        <ele>733.2</ele>
        <time>2025-06-12T06:54:07Z</time>
      </trkpt>
      <trkpt lat="44.5636" lon="6.07855">
        <ele>733.2</ele>
        <time>2025-06-12T06:54:08Z</time>
      </trkpt>
      <trkpt lat="44.56364" lon="6.07858">
        <ele>733.2</ele>
        <time>2025-06-12T06:54:09Z</time>
      </trkpt>
      <trkpt lat="44.56368" lon="6.07863">
        <ele>733</ele>
        <time>2025-06-12T06:54:10Z</time>
      </trkpt>
      <trkpt lat="44.5637" lon="6.07869">
        <ele>733</ele>
        <time>2025-06-12T06:54:11Z</time>
      </trkpt>
      <trkpt lat="44.56371" lon="6.07882">
        <ele>733</ele>
        <time>2025-06-12T06:54:13Z</time>
      </trkpt>
      <trkpt lat="44.56371" lon="6.07896">
        <ele>733</ele>
        <time>2025-06-12T06:54:15Z</time>
      </trkpt>
      <trkpt lat="44.5637" lon="6.07903">
        <ele>733.2</ele>
        <time>2025-06-12T06:54:16Z</time>
      </trkpt>
      <trkpt lat="44.5637" lon="6.07911">
        <ele>733.6</ele>
        <time>2025-06-12T06:54:17Z</time>
      </trkpt>
      <trkpt lat="44.56369" lon="6.07918">
        <ele>733.8</ele>
        <time>2025-06-12T06:54:18Z</time>
      </trkpt>
      <trkpt lat="44.56369" lon="6.07925">
        <ele>734</ele>
        <time>2025-06-12T06:54:19Z</time>
      </trkpt>
      <trkpt lat="44.56368" lon="6.07932">
        <ele>734.2</ele>
        <time>2025-06-12T06:54:20Z</time>
      </trkpt>
      <trkpt lat="44.56369" lon="6.07947">
        <ele>734.2</ele>
        <time>2025-06-12T06:54:22Z</time>
      </trkpt>
      <trkpt lat="44.56371" lon="6.07961">
        <ele>734.2</ele>
        <time>2025-06-12T06:54:24Z</time>
      </trkpt>
      <trkpt lat="44.56372" lon="6.07968">
        <ele>734.4</ele>
        <time>2025-06-12T06:54:25Z</time>
      </trkpt>
      <trkpt lat="44.56372" lon="6.07975">
        <ele>734.4</ele>
        <time>2025-06-12T06:54:26Z</time>
      </trkpt>
      <trkpt lat="44.56371" lon="6.07982">
        <ele>734.4</ele>
        <time>2025-06-12T06:54:27Z</time>
      </trkpt>
      <trkpt lat="44.5637" lon="6.07989">
        <ele>734.4</ele>
        <time>2025-06-12T06:54:28Z</time>
      </trkpt>
      <trkpt lat="44.56369" lon="6.07995">
        <ele>734.4</ele>
        <time>2025-06-12T06:54:29Z</time>
      </trkpt>
      <trkpt lat="44.56367" lon="6.08008">
        <ele>734.4</ele>
        <time>2025-06-12T06:54:31Z</time>
      </trkpt>
      <trkpt lat="44.56365" lon="6.08022">
        <ele>734.6</ele>
        <time>2025-06-12T06:54:33Z</time>
      </trkpt>
      <trkpt lat="44.56366" lon="6.08029">
        <ele>734.6</ele>
        <time>2025-06-12T06:54:34Z</time>
      </trkpt>
      <trkpt lat="44.56365" lon="6.08036">
        <ele>734.6</ele>
        <time>2025-06-12T06:54:35Z</time>
      </trkpt>
      <trkpt lat="44.56365" lon="6.08043">
        <ele>734.8</ele>
        <time>2025-06-12T06:54:36Z</time>
      </trkpt>
      <trkpt lat="44.56364" lon="6.0805">
        <ele>735</ele>
        <time>2025-06-12T06:54:37Z</time>
      </trkpt>
      <trkpt lat="44.56364" lon="6.08057">
        <ele>735</ele>
        <time>2025-06-12T06:54:38Z</time>
      </trkpt>
      <trkpt lat="44.56364" lon="6.08072">
        <ele>735</ele>
        <time>2025-06-12T06:54:40Z</time>
      </trkpt>
      <trkpt lat="44.56364" lon="6.08079">
        <ele>735</ele>
        <time>2025-06-12T06:54:41Z</time>
      </trkpt>
      <trkpt lat="44.56363" lon="6.08087">
        <ele>735</ele>
        <time>2025-06-12T06:54:42Z</time>
      </trkpt>
      <trkpt lat="44.56363" lon="6.08094">
        <ele>735</ele>
        <time>2025-06-12T06:54:43Z</time>
      </trkpt>
      <trkpt lat="44.56362" lon="6.08102">
        <ele>735</ele>
        <time>2025-06-12T06:54:44Z</time>
      </trkpt>
      <trkpt lat="44.56363" lon="6.08109">
        <ele>735</ele>
        <time>2025-06-12T06:54:45Z</time>
      </trkpt>
      <trkpt lat="44.56365" lon="6.08123">
        <ele>735</ele>
        <time>2025-06-12T06:54:47Z</time>
      </trkpt>
      <trkpt lat="44.56368" lon="6.08129">
        <ele>735</ele>
        <time>2025-06-12T06:54:48Z</time>
      </trkpt>
      <trkpt lat="44.56372" lon="6.08134">
        <ele>735</ele>
        <time>2025-06-12T06:54:49Z</time>
      </trkpt>
      <trkpt lat="44.56377" lon="6.08138">
        <ele>734.8</ele>
        <time>2025-06-12T06:54:50Z</time>
      </trkpt>
      <trkpt lat="44.56381" lon="6.08141">
        <ele>734.8</ele>
        <time>2025-06-12T06:54:51Z</time>
      </trkpt>
      <trkpt lat="44.56385" lon="6.08143">
        <ele>734.8</ele>
        <time>2025-06-12T06:54:52Z</time>
      </trkpt>
      <trkpt lat="44.5639" lon="6.08147">
        <ele>734.8</ele>
        <time>2025-06-12T06:54:53Z</time>
      </trkpt>
      <trkpt lat="44.56394" lon="6.0815">
        <ele>734.8</ele>
        <time>2025-06-12T06:54:54Z</time>
      </trkpt>
      <trkpt lat="44.56402" lon="6.08159">
        <ele>734.8</ele>
        <time>2025-06-12T06:54:56Z</time>
      </trkpt>
      <trkpt lat="44.56405" lon="6.08164">
        <ele>734.8</ele>
        <time>2025-06-12T06:54:57Z</time>
      </trkpt>
      <trkpt lat="44.56409" lon="6.08169">
        <ele>734.8</ele>
        <time>2025-06-12T06:54:58Z</time>
      </trkpt>
      <trkpt lat="44.56413" lon="6.08174">
        <ele>734.8</ele>
        <time>2025-06-12T06:54:59Z</time>
      </trkpt>
      <trkpt lat="44.56416" lon="6.0818">
        <ele>734.8</ele>
        <time>2025-06-12T06:55:00Z</time>
      </trkpt>
      <trkpt lat="44.5642" lon="6.08185">
        <ele>734.8</ele>
        <time>2025-06-12T06:55:01Z</time>
      </trkpt>
      <trkpt lat="44.56426" lon="6.08196">
        <ele>735.2</ele>
        <time>2025-06-12T06:55:03Z</time>
      </trkpt>
      <trkpt lat="44.56432" lon="6.08206">
        <ele>735.6</ele>
        <time>2025-06-12T06:55:05Z</time>
      </trkpt>
      <trkpt lat="44.56434" lon="6.0821">
        <ele>735.8</ele>
        <time>2025-06-12T06:55:06Z</time>
      </trkpt>
      <trkpt lat="44.56437" lon="6.08214">
        <ele>736</ele>
        <time>2025-06-12T06:55:07Z</time>
      </trkpt>
      <trkpt lat="44.56441" lon="6.08217">
        <ele>736</ele>
        <time>2025-06-12T06:55:08Z</time>
      </trkpt>
      <trkpt lat="44.56449" lon="6.08221">
        <ele>736</ele>
        <time>2025-06-12T06:55:10Z</time>
      </trkpt>
      <trkpt lat="44.56454" lon="6.08222">
        <ele>736.2</ele>
        <time>2025-06-12T06:55:11Z</time>
      </trkpt>
      <trkpt lat="44.56458" lon="6.08223">
        <ele>736.2</ele>
        <time>2025-06-12T06:55:12Z</time>
      </trkpt>
      <trkpt lat="44.56462" lon="6.08223">
        <ele>736.4</ele>
        <time>2025-06-12T06:55:13Z</time>
      </trkpt>
      <trkpt lat="44.56467" lon="6.08222">
        <ele>736.8</ele>
        <time>2025-06-12T06:55:14Z</time>
      </trkpt>
      <trkpt lat="44.56471" lon="6.08222">
        <ele>736.8</ele>
        <time>2025-06-12T06:55:15Z</time>
      </trkpt>
      <trkpt lat="44.56475" lon="6.08221">
        <ele>737.2</ele>
        <time>2025-06-12T06:55:16Z</time>
      </trkpt>
      <trkpt lat="44.56479" lon="6.08221">
        <ele>737.4</ele>
        <time>2025-06-12T06:55:17Z</time>
      </trkpt>
      <trkpt lat="44.56482" lon="6.0822">
        <ele>737.8</ele>
        <time>2025-06-12T06:55:18Z</time>
      </trkpt>
      <trkpt lat="44.56486" lon="6.0822">
        <ele>738</ele>
        <time>2025-06-12T06:55:19Z</time>
      </trkpt>
      <trkpt lat="44.56493" lon="6.08219">
        <ele>738.8</ele>
        <time>2025-06-12T06:55:21Z</time>
      </trkpt>
      <trkpt lat="44.56497" lon="6.08218">
        <ele>739.2</ele>
        <time>2025-06-12T06:55:22Z</time>
      </trkpt>
      <trkpt lat="44.565" lon="6.08217">
        <ele>739.6</ele>
        <time>2025-06-12T06:55:23Z</time>
      </trkpt>
      <trkpt lat="44.56504" lon="6.08215">
        <ele>740</ele>
        <time>2025-06-12T06:55:24Z</time>
      </trkpt>
      <trkpt lat="44.56508" lon="6.08214">
        <ele>740.4</ele>
        <time>2025-06-12T06:55:25Z</time>
      </trkpt>
      <trkpt lat="44.56511" lon="6.08213">
        <ele>740.8</ele>
        <time>2025-06-12T06:55:26Z</time>
      </trkpt>
      <trkpt lat="44.56515" lon="6.08212">
        <ele>741</ele>
        <time>2025-06-12T06:55:27Z</time>
      </trkpt>
      <trkpt lat="44.56519" lon="6.08211">
        <ele>741.4</ele>
        <time>2025-06-12T06:55:28Z</time>
      </trkpt>
      <trkpt lat="44.56528" lon="6.08209">
        <ele>742</ele>
        <time>2025-06-12T06:55:30Z</time>
      </trkpt>
      <trkpt lat="44.56533" lon="6.08209">
        <ele>742.2</ele>
        <time>2025-06-12T06:55:31Z</time>
      </trkpt>
      <trkpt lat="44.56537" lon="6.08208">
        <ele>742.2</ele>
        <time>2025-06-12T06:55:32Z</time>
      </trkpt>
      <trkpt lat="44.56542" lon="6.08207">
        <ele>742.4</ele>
        <time>2025-06-12T06:55:33Z</time>
      </trkpt>
      <trkpt lat="44.56547" lon="6.08206">
        <ele>742.6</ele>
        <time>2025-06-12T06:55:34Z</time>
      </trkpt>
      <trkpt lat="44.56551" lon="6.08205">
        <ele>742.8</ele>
        <time>2025-06-12T06:55:35Z</time>
      </trkpt>
      <trkpt lat="44.56556" lon="6.08204">
        <ele>743</ele>
        <time>2025-06-12T06:55:36Z</time>
      </trkpt>
      <trkpt lat="44.5656" lon="6.08203">
        <ele>743.2</ele>
        <time>2025-06-12T06:55:37Z</time>
      </trkpt>
      <trkpt lat="44.56568" lon="6.08201">
        <ele>743.6</ele>
        <time>2025-06-12T06:55:39Z</time>
      </trkpt>
      <trkpt lat="44.56577" lon="6.08199">
        <ele>743.6</ele>
        <time>2025-06-12T06:55:41Z</time>
      </trkpt>
      <trkpt lat="44.56581" lon="6.08198">
        <ele>743.6</ele>
        <time>2025-06-12T06:55:42Z</time>
      </trkpt>
      <trkpt lat="44.56586" lon="6.08197">
        <ele>743.6</ele>
        <time>2025-06-12T06:55:43Z</time>
      </trkpt>
      <trkpt lat="44.5659" lon="6.08196">
        <ele>743.8</ele>
        <time>2025-06-12T06:55:44Z</time>
      </trkpt>
      <trkpt lat="44.56594" lon="6.08195">
        <ele>743.8</ele>
        <time>2025-06-12T06:55:45Z</time>
      </trkpt>
      <trkpt lat="44.56599" lon="6.08194">
        <ele>743.8</ele>
        <time>2025-06-12T06:55:46Z</time>
      </trkpt>
      <trkpt lat="44.56606" lon="6.0819">
        <ele>744.2</ele>
        <time>2025-06-12T06:55:48Z</time>
      </trkpt>
      <trkpt lat="44.5661" lon="6.08188">
        <ele>744.4</ele>
        <time>2025-06-12T06:55:49Z</time>
      </trkpt>
      <trkpt lat="44.56614" lon="6.08187">
        <ele>744.6</ele>
        <time>2025-06-12T06:55:50Z</time>
      </trkpt>
      <trkpt lat="44.56621" lon="6.08184">
        <ele>744.8</ele>
        <time>2025-06-12T06:55:52Z</time>
      </trkpt>
      <trkpt lat="44.56629" lon="6.08181">
        <ele>744.8</ele>
        <time>2025-06-12T06:55:54Z</time>
      </trkpt>
      <trkpt lat="44.56632" lon="6.0818">
        <ele>745</ele>
        <time>2025-06-12T06:55:55Z</time>
      </trkpt>
      <trkpt lat="44.56636" lon="6.08178">
        <ele>745</ele>
        <time>2025-06-12T06:55:56Z</time>
      </trkpt>
      <trkpt lat="44.5664" lon="6.08177">
        <ele>745</ele>
        <time>2025-06-12T06:55:57Z</time>
      </trkpt>
      <trkpt lat="44.56644" lon="6.08177">
        <ele>745.2</ele>
        <time>2025-06-12T06:55:58Z</time>
      </trkpt>
      <trkpt lat="44.56647" lon="6.08178">
        <ele>745.4</ele>
        <time>2025-06-12T06:55:59Z</time>
      </trkpt>
      <trkpt lat="44.5665" lon="6.0818">
        <ele>745.6</ele>
        <time>2025-06-12T06:56:00Z</time>
      </trkpt>
      <trkpt lat="44.56653" lon="6.08183">
        <ele>745.8</ele>
        <time>2025-06-12T06:56:01Z</time>
      </trkpt>
      <trkpt lat="44.56657" lon="6.08193">
        <ele>746</ele>
        <time>2025-06-12T06:56:03Z</time>
      </trkpt>
      <trkpt lat="44.56658" lon="6.08198">
        <ele>746.2</ele>
        <time>2025-06-12T06:56:04Z</time>
      </trkpt>
      <trkpt lat="44.5666" lon="6.08204">
        <ele>746.4</ele>
        <time>2025-06-12T06:56:05Z</time>
      </trkpt>
      <trkpt lat="44.56662" lon="6.08209">
        <ele>746.4</ele>
        <time>2025-06-12T06:56:06Z</time>
      </trkpt>
      <trkpt lat="44.56664" lon="6.08214">
        <ele>746.6</ele>
        <time>2025-06-12T06:56:07Z</time>
      </trkpt>
      <trkpt lat="44.56666" lon="6.08219">
        <ele>746.6</ele>
        <time>2025-06-12T06:56:08Z</time>
      </trkpt>
      <trkpt lat="44.56668" lon="6.08224">
        <ele>746.8</ele>
        <time>2025-06-12T06:56:09Z</time>
      </trkpt>
      <trkpt lat="44.5667" lon="6.08229">
        <ele>747.2</ele>
        <time>2025-06-12T06:56:10Z</time>
      </trkpt>
      <trkpt lat="44.56672" lon="6.08235">
        <ele>747.4</ele>
        <time>2025-06-12T06:56:11Z</time>
      </trkpt>
      <trkpt lat="44.56674" lon="6.08241">
        <ele>747.8</ele>
        <time>2025-06-12T06:56:12Z</time>
      </trkpt>
      <trkpt lat="44.56677" lon="6.08246">
        <ele>748</ele>
        <time>2025-06-12T06:56:13Z</time>
      </trkpt>
      <trkpt lat="44.56679" lon="6.08251">
        <ele>748</ele>
        <time>2025-06-12T06:56:14Z</time>
      </trkpt>
      <trkpt lat="44.56685" lon="6.0826">
        <ele>748.2</ele>
        <time>2025-06-12T06:56:16Z</time>
      </trkpt>
      <trkpt lat="44.5669" lon="6.08268">
        <ele>748.2</ele>
        <time>2025-06-12T06:56:18Z</time>
      </trkpt>
      <trkpt lat="44.56692" lon="6.08272">
        <ele>748.2</ele>
        <time>2025-06-12T06:56:19Z</time>
      </trkpt>
      <trkpt lat="44.56693" lon="6.08276">
        <ele>748.4</ele>
        <time>2025-06-12T06:56:20Z</time>
      </trkpt>
      <trkpt lat="44.56695" lon="6.0828">
        <ele>748.4</ele>
        <time>2025-06-12T06:56:21Z</time>
      </trkpt>
      <trkpt lat="44.56698" lon="6.08284">
        <ele>748.4</ele>
        <time>2025-06-12T06:56:22Z</time>
      </trkpt>
      <trkpt lat="44.567" lon="6.08288">
        <ele>748.6</ele>
        <time>2025-06-12T06:56:23Z</time>
      </trkpt>
      <trkpt lat="44.56706" lon="6.08298">
        <ele>748.6</ele>
        <time>2025-06-12T06:56:25Z</time>
      </trkpt>
      <trkpt lat="44.56708" lon="6.08303">
        <ele>748.6</ele>
        <time>2025-06-12T06:56:26Z</time>
      </trkpt>
      <trkpt lat="44.56711" lon="6.08308">
        <ele>748.6</ele>
        <time>2025-06-12T06:56:27Z</time>
      </trkpt>
      <trkpt lat="44.56713" lon="6.08313">
        <ele>748.6</ele>
        <time>2025-06-12T06:56:28Z</time>
      </trkpt>
      <trkpt lat="44.56715" lon="6.08317">
        <ele>748.6</ele>
        <time>2025-06-12T06:56:29Z</time>
      </trkpt>
      <trkpt lat="44.56717" lon="6.08321">
        <ele>748.8</ele>
        <time>2025-06-12T06:56:30Z</time>
      </trkpt>
      <trkpt lat="44.56718" lon="6.08325">
        <ele>748.8</ele>
        <time>2025-06-12T06:56:31Z</time>
      </trkpt>
      <trkpt lat="44.56719" lon="6.08328">
        <ele>749</ele>
        <time>2025-06-12T06:56:32Z</time>
      </trkpt>
      <trkpt lat="44.56721" lon="6.08334">
        <ele>749.2</ele>
        <time>2025-06-12T06:56:34Z</time>
      </trkpt>
      <trkpt lat="44.56722" lon="6.08337">
        <ele>749.2</ele>
        <time>2025-06-12T06:56:35Z</time>
      </trkpt>
      <trkpt lat="44.56723" lon="6.08342">
        <ele>749.4</ele>
        <time>2025-06-12T06:56:36Z</time>
      </trkpt>
      <trkpt lat="44.56726" lon="6.08344">
        <ele>749.6</ele>
        <time>2025-06-12T06:56:37Z</time>
      </trkpt>
      <trkpt lat="44.56732" lon="6.08346">
        <ele>750</ele>
        <time>2025-06-12T06:56:39Z</time>
      </trkpt>
      <trkpt lat="44.56736" lon="6.08346">
        <ele>750.2</ele>
        <time>2025-06-12T06:56:40Z</time>
      </trkpt>
      <trkpt lat="44.56739" lon="6.08346">
        <ele>750.8</ele>
        <time>2025-06-12T06:56:41Z</time>
      </trkpt>
      <trkpt lat="44.56745" lon="6.08346">
        <ele>751</ele>
        <time>2025-06-12T06:56:43Z</time>
      </trkpt>
      <trkpt lat="44.56749" lon="6.08346">
        <ele>751.2</ele>
        <time>2025-06-12T06:56:44Z</time>
      </trkpt>
      <trkpt lat="44.56752" lon="6.08346">
        <ele>751.2</ele>
        <time>2025-06-12T06:56:45Z</time>
      </trkpt>
      <trkpt lat="44.56755" lon="6.08346">
        <ele>751.2</ele>
        <time>2025-06-12T06:56:46Z</time>
      </trkpt>
      <trkpt lat="44.56761" lon="6.08346">
        <ele>751.6</ele>
        <time>2025-06-12T06:56:48Z</time>
      </trkpt>
      <trkpt lat="44.56764" lon="6.08346">
        <ele>751.8</ele>
        <time>2025-06-12T06:56:49Z</time>
      </trkpt>
      <trkpt lat="44.56767" lon="6.08346">
        <ele>752</ele>
        <time>2025-06-12T06:56:50Z</time>
      </trkpt>
      <trkpt lat="44.5677" lon="6.08346">
        <ele>752.4</ele>
        <time>2025-06-12T06:56:51Z</time>
      </trkpt>
      <trkpt lat="44.56773" lon="6.08346">
        <ele>752.6</ele>
        <time>2025-06-12T06:56:52Z</time>
      </trkpt>
      <trkpt lat="44.56776" lon="6.08346">
        <ele>752.8</ele>
        <time>2025-06-12T06:56:53Z</time>
      </trkpt>
      <trkpt lat="44.56778" lon="6.08346">
        <ele>753</ele>
        <time>2025-06-12T06:56:54Z</time>
      </trkpt>
      <trkpt lat="44.56781" lon="6.08346">
        <ele>753.2</ele>
        <time>2025-06-12T06:56:55Z</time>
      </trkpt>
      <trkpt lat="44.56784" lon="6.08346">
        <ele>753.4</ele>
        <time>2025-06-12T06:56:56Z</time>
      </trkpt>
      <trkpt lat="44.56787" lon="6.08345">
        <ele>753.6</ele>
        <time>2025-06-12T06:56:57Z</time>
      </trkpt>
      <trkpt lat="44.5679" lon="6.08345">
        <ele>754</ele>
        <time>2025-06-12T06:56:58Z</time>
      </trkpt>
      <trkpt lat="44.56793" lon="6.08345">
        <ele>754.2</ele>
        <time>2025-06-12T06:56:59Z</time>
      </trkpt>
      <trkpt lat="44.56796" lon="6.08345">
        <ele>754.4</ele>
        <time>2025-06-12T06:57:00Z</time>
      </trkpt>
      <trkpt lat="44.56799" lon="6.08345">
        <ele>754.6</ele>
        <time>2025-06-12T06:57:01Z</time>
      </trkpt>
      <trkpt lat="44.56805" lon="6.08344">
        <ele>755</ele>
        <time>2025-06-12T06:57:03Z</time>
      </trkpt>
      <trkpt lat="44.56808" lon="6.08344">
        <ele>755</ele>
        <time>2025-06-12T06:57:04Z</time>
      </trkpt>
      <trkpt lat="44.5681" lon="6.08344">
        <ele>755.2</ele>
        <time>2025-06-12T06:57:05Z</time>
      </trkpt>
      <trkpt lat="44.56816" lon="6.08344">
        <ele>755.6</ele>
        <time>2025-06-12T06:57:07Z</time>
      </trkpt>
      <trkpt lat="44.56821" lon="6.08343">
        <ele>756</ele>
        <time>2025-06-12T06:57:09Z</time>
      </trkpt>
      <trkpt lat="44.56824" lon="6.08343">
        <ele>756.2</ele>
        <time>2025-06-12T06:57:10Z</time>
      </trkpt>
      <trkpt lat="44.56827" lon="6.08342">
        <ele>756.4</ele>
        <time>2025-06-12T06:57:11Z</time>
      </trkpt>
      <trkpt lat="44.5683" lon="6.08341">
        <ele>756.6</ele>
        <time>2025-06-12T06:57:12Z</time>
      </trkpt>
      <trkpt lat="44.56832" lon="6.08341">
        <ele>756.8</ele>
        <time>2025-06-12T06:57:13Z</time>
      </trkpt>
      <trkpt lat="44.56835" lon="6.08341">
        <ele>757</ele>
        <time>2025-06-12T06:57:14Z</time>
      </trkpt>
      <trkpt lat="44.56838" lon="6.0834">
        <ele>757.2</ele>
        <time>2025-06-12T06:57:15Z</time>
      </trkpt>
      <trkpt lat="44.56841" lon="6.0834">
        <ele>757.4</ele>
        <time>2025-06-12T06:57:16Z</time>
      </trkpt>
      <trkpt lat="44.56847" lon="6.08339">
        <ele>757.8</ele>
        <time>2025-06-12T06:57:18Z</time>
      </trkpt>
      <trkpt lat="44.56853" lon="6.08339">
        <ele>758</ele>
        <time>2025-06-12T06:57:20Z</time>
      </trkpt>
      <trkpt lat="44.56858" lon="6.08337">
        <ele>758.2</ele>
        <time>2025-06-12T06:57:22Z</time>
      </trkpt>
      <trkpt lat="44.5686" lon="6.08337">
        <ele>758.4</ele>
        <time>2025-06-12T06:57:23Z</time>
      </trkpt>
      <trkpt lat="44.56863" lon="6.08336">
        <ele>758.6</ele>
        <time>2025-06-12T06:57:24Z</time>
      </trkpt>
      <trkpt lat="44.56869" lon="6.08335">
        <ele>759</ele>
        <time>2025-06-12T06:57:26Z</time>
      </trkpt>
      <trkpt lat="44.56872" lon="6.08334">
        <ele>759.2</ele>
        <time>2025-06-12T06:57:27Z</time>
      </trkpt>
      <trkpt lat="44.56875" lon="6.08333">
        <ele>759.4</ele>
        <time>2025-06-12T06:57:28Z</time>
      </trkpt>
      <trkpt lat="44.56878" lon="6.08333">
        <ele>759.6</ele>
        <time>2025-06-12T06:57:29Z</time>
      </trkpt>
      <trkpt lat="44.56881" lon="6.08333">
        <ele>760</ele>
        <time>2025-06-12T06:57:30Z</time>
      </trkpt>
      <trkpt lat="44.56884" lon="6.08333">
        <ele>760.2</ele>
        <time>2025-06-12T06:57:31Z</time>
      </trkpt>
      <trkpt lat="44.56887" lon="6.08332">
        <ele>760.2</ele>
        <time>2025-06-12T06:57:32Z</time>
      </trkpt>
      <trkpt lat="44.5689" lon="6.08332">
        <ele>760.4</ele>
        <time>2025-06-12T06:57:33Z</time>
      </trkpt>
      <trkpt lat="44.56893" lon="6.08332">
        <ele>760.6</ele>
        <time>2025-06-12T06:57:34Z</time>
      </trkpt>
      <trkpt lat="44.56896" lon="6.08331">
        <ele>760.6</ele>
        <time>2025-06-12T06:57:35Z</time>
      </trkpt>
      <trkpt lat="44.569" lon="6.08331">
        <ele>760.8</ele>
        <time>2025-06-12T06:57:36Z</time>
      </trkpt>
      <trkpt lat="44.56903" lon="6.08331">
        <ele>761</ele>
        <time>2025-06-12T06:57:37Z</time>
      </trkpt>
      <trkpt lat="44.56906" lon="6.0833">
        <ele>761.2</ele>
        <time>2025-06-12T06:57:38Z</time>
      </trkpt>
      <trkpt lat="44.5691" lon="6.0833">
        <ele>761.2</ele>
        <time>2025-06-12T06:57:39Z</time>
      </trkpt>
      <trkpt lat="44.56913" lon="6.0833">
        <ele>761.2</ele>
        <time>2025-06-12T06:57:40Z</time>
      </trkpt>
      <trkpt lat="44.56916" lon="6.0833">
        <ele>761.4</ele>
        <time>2025-06-12T06:57:41Z</time>
      </trkpt>
      <trkpt lat="44.56919" lon="6.08329">
        <ele>761.6</ele>
        <time>2025-06-12T06:57:42Z</time>
      </trkpt>
      <trkpt lat="44.56922" lon="6.08329">
        <ele>761.8</ele>
        <time>2025-06-12T06:57:43Z</time>
      </trkpt>
      <trkpt lat="44.56925" lon="6.08329">
        <ele>762</ele>
        <time>2025-06-12T06:57:44Z</time>
      </trkpt>
      <trkpt lat="44.56929" lon="6.08329">
        <ele>762</ele>
        <time>2025-06-12T06:57:45Z</time>
      </trkpt>
      <trkpt lat="44.56935" lon="6.0833">
        <ele>762.2</ele>
        <time>2025-06-12T06:57:47Z</time>
      </trkpt>
      <trkpt lat="44.56942" lon="6.08331">
        <ele>762.4</ele>
        <time>2025-06-12T06:57:49Z</time>
      </trkpt>
      <trkpt lat="44.56949" lon="6.08332">
        <ele>762.8</ele>
        <time>2025-06-12T06:57:51Z</time>
      </trkpt>
      <trkpt lat="44.56952" lon="6.08333">
        <ele>762.8</ele>
        <time>2025-06-12T06:57:52Z</time>
      </trkpt>
      <trkpt lat="44.56955" lon="6.08333">
        <ele>762.8</ele>
        <time>2025-06-12T06:57:53Z</time>
      </trkpt>
      <trkpt lat="44.56958" lon="6.08333">
        <ele>762.8</ele>
        <time>2025-06-12T06:57:54Z</time>
      </trkpt>
      <trkpt lat="44.56961" lon="6.08332">
        <ele>763</ele>
        <time>2025-06-12T06:57:55Z</time>
      </trkpt>
      <trkpt lat="44.56964" lon="6.08332">
        <ele>763</ele>
        <time>2025-06-12T06:57:56Z</time>
      </trkpt>
      <trkpt lat="44.56969" lon="6.08332">
        <ele>763.2</ele>
        <time>2025-06-12T06:57:58Z</time>
      </trkpt>
      <trkpt lat="44.56975" lon="6.08332">
        <ele>763.4</ele>
        <time>2025-06-12T06:58:00Z</time>
      </trkpt>
      <trkpt lat="44.56978" lon="6.08334">
        <ele>763.4</ele>
        <time>2025-06-12T06:58:01Z</time>
      </trkpt>
      <trkpt lat="44.56981" lon="6.08337">
        <ele>763.6</ele>
        <time>2025-06-12T06:58:02Z</time>
      </trkpt>
      <trkpt lat="44.56983" lon="6.0834">
        <ele>763.8</ele>
        <time>2025-06-12T06:58:03Z</time>
      </trkpt>
      <trkpt lat="44.56987" lon="6.08348">
        <ele>764.2</ele>
        <time>2025-06-12T06:58:05Z</time>
      </trkpt>
      <trkpt lat="44.5699" lon="6.08355">
        <ele>764.4</ele>
        <time>2025-06-12T06:58:07Z</time>
      </trkpt>
      <trkpt lat="44.56992" lon="6.08358">
        <ele>764.6</ele>
        <time>2025-06-12T06:58:08Z</time>
      </trkpt>
      <trkpt lat="44.56994" lon="6.08361">
        <ele>764.6</ele>
        <time>2025-06-12T06:58:09Z</time>
      </trkpt>
      <trkpt lat="44.56995" lon="6.08365">
        <ele>764.8</ele>
        <time>2025-06-12T06:58:10Z</time>
      </trkpt>
      <trkpt lat="44.56997" lon="6.08368">
        <ele>765</ele>
        <time>2025-06-12T06:58:11Z</time>
      </trkpt>
      <trkpt lat="44.56998" lon="6.08372">
        <ele>765.2</ele>
        <time>2025-06-12T06:58:12Z</time>
      </trkpt>
      <trkpt lat="44.57" lon="6.08375">
        <ele>765.4</ele>
        <time>2025-06-12T06:58:13Z</time>
      </trkpt>
      <trkpt lat="44.57001" lon="6.08378">
        <ele>765.6</ele>
        <time>2025-06-12T06:58:14Z</time>
      </trkpt>
      <trkpt lat="44.57004" lon="6.08385">
        <ele>765.8</ele>
        <time>2025-06-12T06:58:16Z</time>
      </trkpt>
      <trkpt lat="44.57006" lon="6.08389">
        <ele>765.8</ele>
        <time>2025-06-12T06:58:17Z</time>
      </trkpt>
      <trkpt lat="44.57007" lon="6.08392">
        <ele>766</ele>
        <time>2025-06-12T06:58:18Z</time>
      </trkpt>
      <trkpt lat="44.57008" lon="6.08396">
        <ele>766.2</ele>
        <time>2025-06-12T06:58:19Z</time>
      </trkpt>
      <trkpt lat="44.57012" lon="6.084">
        <ele>766.4</ele>
        <time>2025-06-12T06:58:20Z</time>
      </trkpt>
      <trkpt lat="44.57014" lon="6.08404">
        <ele>766.6</ele>
        <time>2025-06-12T06:58:21Z</time>
      </trkpt>
      <trkpt lat="44.57016" lon="6.08407">
        <ele>766.8</ele>
        <time>2025-06-12T06:58:22Z</time>
      </trkpt>
      <trkpt lat="44.57019" lon="6.08411">
        <ele>767</ele>
        <time>2025-06-12T06:58:23Z</time>
      </trkpt>
      <trkpt lat="44.57021" lon="6.08415">
        <ele>767</ele>
        <time>2025-06-12T06:58:24Z</time>
      </trkpt>
      <trkpt lat="44.57023" lon="6.08419">
        <ele>767.2</ele>
        <time>2025-06-12T06:58:25Z</time>
      </trkpt>
      <trkpt lat="44.57029" lon="6.08427">
        <ele>767.4</ele>
        <time>2025-06-12T06:58:27Z</time>
      </trkpt>
      <trkpt lat="44.57035" lon="6.08433">
        <ele>767.6</ele>
        <time>2025-06-12T06:58:29Z</time>
      </trkpt>
      <trkpt lat="44.57039" lon="6.08437">
        <ele>767.6</ele>
        <time>2025-06-12T06:58:30Z</time>
      </trkpt>
      <trkpt lat="44.57042" lon="6.0844">
        <ele>767.6</ele>
        <time>2025-06-12T06:58:31Z</time>
      </trkpt>
      <trkpt lat="44.57045" lon="6.08443">
        <ele>767.6</ele>
        <time>2025-06-12T06:58:32Z</time>
      </trkpt>
      <trkpt lat="44.57049" lon="6.08446">
        <ele>767.8</ele>
        <time>2025-06-12T06:58:33Z</time>
      </trkpt>
      <trkpt lat="44.57052" lon="6.08448">
        <ele>767.8</ele>
        <time>2025-06-12T06:58:34Z</time>
      </trkpt>
      <trkpt lat="44.57059" lon="6.08452">
        <ele>767.8</ele>
        <time>2025-06-12T06:58:36Z</time>
      </trkpt>
      <trkpt lat="44.57062" lon="6.08455">
        <ele>768</ele>
        <time>2025-06-12T06:58:37Z</time>
      </trkpt>
      <trkpt lat="44.57066" lon="6.08457">
        <ele>768.2</ele>
        <time>2025-06-12T06:58:38Z</time>
      </trkpt>
      <trkpt lat="44.57069" lon="6.08459">
        <ele>768.2</ele>
        <time>2025-06-12T06:58:39Z</time>
      </trkpt>
      <trkpt lat="44.57076" lon="6.08464">
        <ele>768.2</ele>
        <time>2025-06-12T06:58:41Z</time>
      </trkpt>
      <trkpt lat="44.57079" lon="6.08466">
        <ele>768.4</ele>
        <time>2025-06-12T06:58:42Z</time>
      </trkpt>
      <trkpt lat="44.57082" lon="6.08468">
        <ele>768.6</ele>
        <time>2025-06-12T06:58:43Z</time>
      </trkpt>
      <trkpt lat="44.57086" lon="6.0847">
        <ele>768.8</ele>
        <time>2025-06-12T06:58:44Z</time>
      </trkpt>
      <trkpt lat="44.57093" lon="6.08474">
        <ele>768.8</ele>
        <time>2025-06-12T06:58:46Z</time>
      </trkpt>
      <trkpt lat="44.57096" lon="6.08476">
        <ele>769</ele>
        <time>2025-06-12T06:58:47Z</time>
      </trkpt>
      <trkpt lat="44.57099" lon="6.08478">
        <ele>769.2</ele>
        <time>2025-06-12T06:58:48Z</time>
      </trkpt>
      <trkpt lat="44.57103" lon="6.0848">
        <ele>769.6</ele>
        <time>2025-06-12T06:58:49Z</time>
      </trkpt>
      <trkpt lat="44.5711" lon="6.08484">
        <ele>770</ele>
        <time>2025-06-12T06:58:51Z</time>
      </trkpt>
      <trkpt lat="44.57117" lon="6.08488">
        <ele>770.2</ele>
        <time>2025-06-12T06:58:53Z</time>
      </trkpt>
      <trkpt lat="44.5712" lon="6.0849">
        <ele>770.4</ele>
        <time>2025-06-12T06:58:54Z</time>
      </trkpt>
      <trkpt lat="44.57123" lon="6.08493">
        <ele>770.6</ele>
        <time>2025-06-12T06:58:55Z</time>
      </trkpt>
      <trkpt lat="44.57127" lon="6.08495">
        <ele>770.8</ele>
        <time>2025-06-12T06:58:56Z</time>
      </trkpt>
      <trkpt lat="44.57133" lon="6.08501">
        <ele>771</ele>
        <time>2025-06-12T06:58:58Z</time>
      </trkpt>
      <trkpt lat="44.5714" lon="6.08507">
        <ele>771.4</ele>
        <time>2025-06-12T06:59:00Z</time>
      </trkpt>
      <trkpt lat="44.57143" lon="6.0851">
        <ele>771.4</ele>
        <time>2025-06-12T06:59:01Z</time>
      </trkpt>
      <trkpt lat="44.57146" lon="6.08513">
        <ele>771.6</ele>
        <time>2025-06-12T06:59:02Z</time>
      </trkpt>
      <trkpt lat="44.57148" lon="6.08516">
        <ele>771.8</ele>
        <time>2025-06-12T06:59:03Z</time>
      </trkpt>
      <trkpt lat="44.57154" lon="6.08523">
        <ele>772</ele>
        <time>2025-06-12T06:59:05Z</time>
      </trkpt>
      <trkpt lat="44.57159" lon="6.0853">
        <ele>772.4</ele>
        <time>2025-06-12T06:59:07Z</time>
      </trkpt>
      <trkpt lat="44.57161" lon="6.08534">
        <ele>772.6</ele>
        <time>2025-06-12T06:59:08Z</time>
      </trkpt>
      <trkpt lat="44.57164" lon="6.08538">
        <ele>772.6</ele>
        <time>2025-06-12T06:59:09Z</time>
      </trkpt>
      <trkpt lat="44.57166" lon="6.08542">
        <ele>772.6</ele>
        <time>2025-06-12T06:59:10Z</time>
      </trkpt>
      <trkpt lat="44.57168" lon="6.08547">
        <ele>772.8</ele>
        <time>2025-06-12T06:59:11Z</time>
      </trkpt>
      <trkpt lat="44.5717" lon="6.08551">
        <ele>773</ele>
        <time>2025-06-12T06:59:12Z</time>
      </trkpt>
      <trkpt lat="44.57172" lon="6.08555">
        <ele>773</ele>
        <time>2025-06-12T06:59:13Z</time>
      </trkpt>
      <trkpt lat="44.57174" lon="6.0856">
        <ele>773</ele>
        <time>2025-06-12T06:59:14Z</time>
      </trkpt>
      <trkpt lat="44.57178" lon="6.08569">
        <ele>773.4</ele>
        <time>2025-06-12T06:59:16Z</time>
      </trkpt>
      <trkpt lat="44.57181" lon="6.08579">
        <ele>773.6</ele>
        <time>2025-06-12T06:59:18Z</time>
      </trkpt>
      <trkpt lat="44.57183" lon="6.08589">
        <ele>773.8</ele>
        <time>2025-06-12T06:59:20Z</time>
      </trkpt>
      <trkpt lat="44.57185" lon="6.08594">
        <ele>774</ele>
        <time>2025-06-12T06:59:21Z</time>
      </trkpt>
      <trkpt lat="44.57186" lon="6.08599">
        <ele>774.2</ele>
        <time>2025-06-12T06:59:22Z</time>
      </trkpt>
      <trkpt lat="44.57187" lon="6.08603">
        <ele>774.4</ele>
        <time>2025-06-12T06:59:23Z</time>
      </trkpt>
      <trkpt lat="44.57188" lon="6.08608">
        <ele>774.4</ele>
        <time>2025-06-12T06:59:24Z</time>
      </trkpt>
      <trkpt lat="44.57189" lon="6.08613">
        <ele>774.6</ele>
        <time>2025-06-12T06:59:25Z</time>
      </trkpt>
      <trkpt lat="44.57191" lon="6.08618">
        <ele>774.8</ele>
        <time>2025-06-12T06:59:26Z</time>
      </trkpt>
      <trkpt lat="44.57192" lon="6.08623">
        <ele>775</ele>
        <time>2025-06-12T06:59:27Z</time>
      </trkpt>
      <trkpt lat="44.57193" lon="6.08628">
        <ele>775.4</ele>
        <time>2025-06-12T06:59:28Z</time>
      </trkpt>
      <trkpt lat="44.57194" lon="6.08633">
        <ele>775.4</ele>
        <time>2025-06-12T06:59:29Z</time>
      </trkpt>
      <trkpt lat="44.57195" lon="6.08638">
        <ele>775.6</ele>
        <time>2025-06-12T06:59:30Z</time>
      </trkpt>
      <trkpt lat="44.57197" lon="6.08642">
        <ele>775.6</ele>
        <time>2025-06-12T06:59:31Z</time>
      </trkpt>
      <trkpt lat="44.57199" lon="6.08652">
        <ele>775.8</ele>
        <time>2025-06-12T06:59:33Z</time>
      </trkpt>
      <trkpt lat="44.57201" lon="6.08662">
        <ele>776.2</ele>
        <time>2025-06-12T06:59:35Z</time>
      </trkpt>
      <trkpt lat="44.57202" lon="6.08667">
        <ele>776.4</ele>
        <time>2025-06-12T06:59:36Z</time>
      </trkpt>
      <trkpt lat="44.57204" lon="6.08671">
        <ele>776.4</ele>
        <time>2025-06-12T06:59:37Z</time>
      </trkpt>
      <trkpt lat="44.57205" lon="6.08676">
        <ele>776.6</ele>
        <time>2025-06-12T06:59:38Z</time>
      </trkpt>
      <trkpt lat="44.57206" lon="6.08681">
        <ele>776.6</ele>
        <time>2025-06-12T06:59:39Z</time>
      </trkpt>
      <trkpt lat="44.57208" lon="6.08685">
        <ele>776.8</ele>
        <time>2025-06-12T06:59:40Z</time>
      </trkpt>
      <trkpt lat="44.57211" lon="6.08694">
        <ele>776.8</ele>
        <time>2025-06-12T06:59:42Z</time>
      </trkpt>
      <trkpt lat="44.57214" lon="6.08702">
        <ele>777</ele>
        <time>2025-06-12T06:59:44Z</time>
      </trkpt>
      <trkpt lat="44.57215" lon="6.08707">
        <ele>777.2</ele>
        <time>2025-06-12T06:59:45Z</time>
      </trkpt>
      <trkpt lat="44.57217" lon="6.08711">
        <ele>777.4</ele>
        <time>2025-06-12T06:59:46Z</time>
      </trkpt>
      <trkpt lat="44.57219" lon="6.08715">
        <ele>777.6</ele>
        <time>2025-06-12T06:59:47Z</time>
      </trkpt>
      <trkpt lat="44.5722" lon="6.08719">
        <ele>777.6</ele>
        <time>2025-06-12T06:59:48Z</time>
      </trkpt>
      <trkpt lat="44.57222" lon="6.08723">
        <ele>777.8</ele>
        <time>2025-06-12T06:59:49Z</time>
      </trkpt>
      <trkpt lat="44.57225" lon="6.08731">
        <ele>778.2</ele>
        <time>2025-06-12T06:59:51Z</time>
      </trkpt>
      <trkpt lat="44.57228" lon="6.08739">
        <ele>778.6</ele>
        <time>2025-06-12T06:59:53Z</time>
      </trkpt>
      <trkpt lat="44.5723" lon="6.08743">
        <ele>779</ele>
        <time>2025-06-12T06:59:54Z</time>
      </trkpt>
      <trkpt lat="44.57232" lon="6.08746">
        <ele>779.4</ele>
        <time>2025-06-12T06:59:55Z</time>
      </trkpt>
      <trkpt lat="44.57233" lon="6.0875">
        <ele>779.6</ele>
        <time>2025-06-12T06:59:56Z</time>
      </trkpt>
      <trkpt lat="44.57235" lon="6.08754">
        <ele>779.8</ele>
        <time>2025-06-12T06:59:57Z</time>
      </trkpt>
      <trkpt lat="44.57237" lon="6.08758">
        <ele>780.2</ele>
        <time>2025-06-12T06:59:58Z</time>
      </trkpt>
      <trkpt lat="44.57241" lon="6.08766">
        <ele>781</ele>
        <time>2025-06-12T07:00:00Z</time>
      </trkpt>
      <trkpt lat="44.57244" lon="6.08774">
        <ele>781.4</ele>
        <time>2025-06-12T07:00:02Z</time>
      </trkpt>
      <trkpt lat="44.57246" lon="6.08778">
        <ele>781.8</ele>
        <time>2025-06-12T07:00:03Z</time>
      </trkpt>
      <trkpt lat="44.57248" lon="6.08782">
        <ele>782</ele>
        <time>2025-06-12T07:00:04Z</time>
      </trkpt>
      <trkpt lat="44.5725" lon="6.08786">
        <ele>782.2</ele>
        <time>2025-06-12T07:00:05Z</time>
      </trkpt>
      <trkpt lat="44.57251" lon="6.0879">
        <ele>782.6</ele>
        <time>2025-06-12T07:00:06Z</time>
      </trkpt>
      <trkpt lat="44.57253" lon="6.08794">
        <ele>782.8</ele>
        <time>2025-06-12T07:00:07Z</time>
      </trkpt>
      <trkpt lat="44.57254" lon="6.08798">
        <ele>783.2</ele>
        <time>2025-06-12T07:00:08Z</time>
      </trkpt>
      <trkpt lat="44.57256" lon="6.08802">
        <ele>783.4</ele>
        <time>2025-06-12T07:00:09Z</time>
      </trkpt>
      <trkpt lat="44.57259" lon="6.08811">
        <ele>783.8</ele>
        <time>2025-06-12T07:00:11Z</time>
      </trkpt>
      <trkpt lat="44.5726" lon="6.08815">
        <ele>784</ele>
        <time>2025-06-12T07:00:12Z</time>
      </trkpt>
      <trkpt lat="44.57261" lon="6.08819">
        <ele>784.2</ele>
        <time>2025-06-12T07:00:13Z</time>
      </trkpt>
      <trkpt lat="44.57262" lon="6.08824">
        <ele>784.4</ele>
        <time>2025-06-12T07:00:14Z</time>
      </trkpt>
      <trkpt lat="44.57264" lon="6.08828">
        <ele>784.4</ele>
        <time>2025-06-12T07:00:15Z</time>
      </trkpt>
      <trkpt lat="44.57265" lon="6.08833">
        <ele>784.6</ele>
        <time>2025-06-12T07:00:16Z</time>
      </trkpt>
      <trkpt lat="44.57267" lon="6.08842">
        <ele>785</ele>
        <time>2025-06-12T07:00:18Z</time>
      </trkpt>
      <trkpt lat="44.57268" lon="6.08846">
        <ele>785.2</ele>
        <time>2025-06-12T07:00:19Z</time>
      </trkpt>
      <trkpt lat="44.57269" lon="6.08851">
        <ele>785.4</ele>
        <time>2025-06-12T07:00:20Z</time>
      </trkpt>
      <trkpt lat="44.5727" lon="6.0886">
        <ele>785.8</ele>
        <time>2025-06-12T07:00:22Z</time>
      </trkpt>
      <trkpt lat="44.57271" lon="6.08865">
        <ele>786.2</ele>
        <time>2025-06-12T07:00:23Z</time>
      </trkpt>
      <trkpt lat="44.57272" lon="6.0887">
        <ele>786.4</ele>
        <time>2025-06-12T07:00:24Z</time>
      </trkpt>
      <trkpt lat="44.57272" lon="6.08875">
        <ele>786.4</ele>
        <time>2025-06-12T07:00:25Z</time>
      </trkpt>
      <trkpt lat="44.57273" lon="6.0888">
        <ele>786.6</ele>
        <time>2025-06-12T07:00:26Z</time>
      </trkpt>
      <trkpt lat="44.57274" lon="6.08885">
        <ele>786.6</ele>
        <time>2025-06-12T07:00:27Z</time>
      </trkpt>
      <trkpt lat="44.57274" lon="6.08891">
        <ele>786.8</ele>
        <time>2025-06-12T07:00:28Z</time>
      </trkpt>
      <trkpt lat="44.57275" lon="6.08896">
        <ele>787</ele>
        <time>2025-06-12T07:00:29Z</time>
      </trkpt>
      <trkpt lat="44.57276" lon="6.08906">
        <ele>787.2</ele>
        <time>2025-06-12T07:00:31Z</time>
      </trkpt>
      <trkpt lat="44.57277" lon="6.08917">
        <ele>787.2</ele>
        <time>2025-06-12T07:00:33Z</time>
      </trkpt>
      <trkpt lat="44.57278" lon="6.08922">
        <ele>787.2</ele>
        <time>2025-06-12T07:00:34Z</time>
      </trkpt>
      <trkpt lat="44.57278" lon="6.08928">
        <ele>787.2</ele>
        <time>2025-06-12T07:00:35Z</time>
      </trkpt>
      <trkpt lat="44.57279" lon="6.08933">
        <ele>787.2</ele>
        <time>2025-06-12T07:00:36Z</time>
      </trkpt>
      <trkpt lat="44.5728" lon="6.08938">
        <ele>787.2</ele>
        <time>2025-06-12T07:00:37Z</time>
      </trkpt>
      <trkpt lat="44.5728" lon="6.08943">
        <ele>787.2</ele>
        <time>2025-06-12T07:00:38Z</time>
      </trkpt>
      <trkpt lat="44.57282" lon="6.08954">
        <ele>787.2</ele>
        <time>2025-06-12T07:00:40Z</time>
      </trkpt>
      <trkpt lat="44.57283" lon="6.08965">
        <ele>787.2</ele>
        <time>2025-06-12T07:00:42Z</time>
      </trkpt>
      <trkpt lat="44.57284" lon="6.0897">
        <ele>787.2</ele>
        <time>2025-06-12T07:00:43Z</time>
      </trkpt>
      <trkpt lat="44.57284" lon="6.08976">
        <ele>787.2</ele>
        <time>2025-06-12T07:00:44Z</time>
      </trkpt>
      <trkpt lat="44.57285" lon="6.08982">
        <ele>787.2</ele>
        <time>2025-06-12T07:00:45Z</time>
      </trkpt>
      <trkpt lat="44.57286" lon="6.08988">
        <ele>787.2</ele>
        <time>2025-06-12T07:00:46Z</time>
      </trkpt>
      <trkpt lat="44.57286" lon="6.08994">
        <ele>787</ele>
        <time>2025-06-12T07:00:47Z</time>
      </trkpt>
      <trkpt lat="44.57288" lon="6.09007">
        <ele>787</ele>
        <time>2025-06-12T07:00:49Z</time>
      </trkpt>
      <trkpt lat="44.57289" lon="6.0902">
        <ele>787</ele>
        <time>2025-06-12T07:00:51Z</time>
      </trkpt>
      <trkpt lat="44.57291" lon="6.09033">
        <ele>786.8</ele>
        <time>2025-06-12T07:00:53Z</time>
      </trkpt>
      <trkpt lat="44.57292" lon="6.0904">
        <ele>786.8</ele>
        <time>2025-06-12T07:00:54Z</time>
      </trkpt>
      <trkpt lat="44.57292" lon="6.09047">
        <ele>786.8</ele>
        <time>2025-06-12T07:00:55Z</time>
      </trkpt>
      <trkpt lat="44.57293" lon="6.09054">
        <ele>786.8</ele>
        <time>2025-06-12T07:00:56Z</time>
      </trkpt>
      <trkpt lat="44.57295" lon="6.09068">
        <ele>786.6</ele>
        <time>2025-06-12T07:00:58Z</time>
      </trkpt>
      <trkpt lat="44.57297" lon="6.09082">
        <ele>786.6</ele>
        <time>2025-06-12T07:01:00Z</time>
      </trkpt>
      <trkpt lat="44.57298" lon="6.09089">
        <ele>786.4</ele>
        <time>2025-06-12T07:01:01Z</time>
      </trkpt>
      <trkpt lat="44.57299" lon="6.09096">
        <ele>786.4</ele>
        <time>2025-06-12T07:01:02Z</time>
      </trkpt>
      <trkpt lat="44.57299" lon="6.09104">
        <ele>786.2</ele>
        <time>2025-06-12T07:01:03Z</time>
      </trkpt>
      <trkpt lat="44.57301" lon="6.09111">
        <ele>786.2</ele>
        <time>2025-06-12T07:01:04Z</time>
      </trkpt>
      <trkpt lat="44.57302" lon="6.09119">
        <ele>786</ele>
        <time>2025-06-12T07:01:05Z</time>
      </trkpt>
      <trkpt lat="44.57304" lon="6.09134">
        <ele>786</ele>
        <time>2025-06-12T07:01:07Z</time>
      </trkpt>
      <trkpt lat="44.57307" lon="6.09151">
        <ele>786</ele>
        <time>2025-06-12T07:01:09Z</time>
      </trkpt>
      <trkpt lat="44.5731" lon="6.09168">
        <ele>785.6</ele>
        <time>2025-06-12T07:01:11Z</time>
      </trkpt>
      <trkpt lat="44.57312" lon="6.09176">
        <ele>785.6</ele>
        <time>2025-06-12T07:01:12Z</time>
      </trkpt>
      <trkpt lat="44.57313" lon="6.09185">
        <ele>785.4</ele>
        <time>2025-06-12T07:01:13Z</time>
      </trkpt>
      <trkpt lat="44.57315" lon="6.09194">
        <ele>785.2</ele>
        <time>2025-06-12T07:01:14Z</time>
      </trkpt>
      <trkpt lat="44.57317" lon="6.09203">
        <ele>785</ele>
        <time>2025-06-12T07:01:15Z</time>
      </trkpt>
      <trkpt lat="44.57319" lon="6.09213">
        <ele>784.8</ele>
        <time>2025-06-12T07:01:16Z</time>
      </trkpt>
      <trkpt lat="44.57321" lon="6.09222">
        <ele>784.6</ele>
        <time>2025-06-12T07:01:17Z</time>
      </trkpt>
      <trkpt lat="44.57323" lon="6.09232">
        <ele>784.6</ele>
        <time>2025-06-12T07:01:18Z</time>
      </trkpt>
      <trkpt lat="44.57326" lon="6.09251">
        <ele>783.8</ele>
        <time>2025-06-12T07:01:20Z</time>
      </trkpt>
      <trkpt lat="44.5733" lon="6.09271">
        <ele>783.4</ele>
        <time>2025-06-12T07:01:22Z</time>
      </trkpt>
      <trkpt lat="44.57332" lon="6.09281">
        <ele>783.2</ele>
        <time>2025-06-12T07:01:23Z</time>
      </trkpt>
      <trkpt lat="44.57334" lon="6.09291">
        <ele>783</ele>
        <time>2025-06-12T07:01:24Z</time>
      </trkpt>
      <trkpt lat="44.57336" lon="6.09301">
        <ele>782.6</ele>
        <time>2025-06-12T07:01:25Z</time>
      </trkpt>
      <trkpt lat="44.57338" lon="6.09312">
        <ele>782.4</ele>
        <time>2025-06-12T07:01:26Z</time>
      </trkpt>
      <trkpt lat="44.5734" lon="6.09322">
        <ele>782.2</ele>
        <time>2025-06-12T07:01:27Z</time>
      </trkpt>
      <trkpt lat="44.57345" lon="6.09344">
        <ele>781.6</ele>
        <time>2025-06-12T07:01:29Z</time>
      </trkpt>
      <trkpt lat="44.57347" lon="6.09355">
        <ele>781.4</ele>
        <time>2025-06-12T07:01:30Z</time>
      </trkpt>
      <trkpt lat="44.5735" lon="6.09366">
        <ele>781</ele>
        <time>2025-06-12T07:01:31Z</time>
      </trkpt>
      <trkpt lat="44.57352" lon="6.09378">
        <ele>780.6</ele>
        <time>2025-06-12T07:01:32Z</time>
      </trkpt>
      <trkpt lat="44.57354" lon="6.0939">
        <ele>780.4</ele>
        <time>2025-06-12T07:01:33Z</time>
      </trkpt>
      <trkpt lat="44.57357" lon="6.09402">
        <ele>780.4</ele>
        <time>2025-06-12T07:01:34Z</time>
      </trkpt>
      <trkpt lat="44.57362" lon="6.09427">
        <ele>779.8</ele>
        <time>2025-06-12T07:01:36Z</time>
      </trkpt>
      <trkpt lat="44.57367" lon="6.09452">
        <ele>779</ele>
        <time>2025-06-12T07:01:38Z</time>
      </trkpt>
      <trkpt lat="44.57374" lon="6.09478">
        <ele>778</ele>
        <time>2025-06-12T07:01:40Z</time>
      </trkpt>
      <trkpt lat="44.57377" lon="6.0949">
        <ele>777.6</ele>
        <time>2025-06-12T07:01:41Z</time>
      </trkpt>
      <trkpt lat="44.57381" lon="6.09501">
        <ele>777.4</ele>
        <time>2025-06-12T07:01:42Z</time>
      </trkpt>
      <trkpt lat="44.57386" lon="6.09512">
        <ele>776.8</ele>
        <time>2025-06-12T07:01:43Z</time>
      </trkpt>
      <trkpt lat="44.57391" lon="6.09522">
        <ele>776.2</ele>
        <time>2025-06-12T07:01:44Z</time>
      </trkpt>
      <trkpt lat="44.57396" lon="6.09532">
        <ele>775.2</ele>
        <time>2025-06-12T07:01:45Z</time>
      </trkpt>
      <trkpt lat="44.57401" lon="6.0954">
        <ele>774</ele>
        <time>2025-06-12T07:01:46Z</time>
      </trkpt>
      <trkpt lat="44.57406" lon="6.09548">
        <ele>773.8</ele>
        <time>2025-06-12T07:01:47Z</time>
      </trkpt>
      <trkpt lat="44.57411" lon="6.09554">
        <ele>773.6</ele>
        <time>2025-06-12T07:01:48Z</time>
      </trkpt>
      <trkpt lat="44.57417" lon="6.09561">
        <ele>773.6</ele>
        <time>2025-06-12T07:01:49Z</time>
      </trkpt>
      <trkpt lat="44.57422" lon="6.09566">
        <ele>773.4</ele>
        <time>2025-06-12T07:01:50Z</time>
      </trkpt>
      <trkpt lat="44.57432" lon="6.09576">
        <ele>773.4</ele>
        <time>2025-06-12T07:01:52Z</time>
      </trkpt>
      <trkpt lat="44.57438" lon="6.09581">
        <ele>773.4</ele>
        <time>2025-06-12T07:01:53Z</time>
      </trkpt>
      <trkpt lat="44.57443" lon="6.09585">
        <ele>773.4</ele>
        <time>2025-06-12T07:01:54Z</time>
      </trkpt>
      <trkpt lat="44.57448" lon="6.09589">
        <ele>773.4</ele>
        <time>2025-06-12T07:01:55Z</time>
      </trkpt>
      <trkpt lat="44.57454" lon="6.09592">
        <ele>773.8</ele>
        <time>2025-06-12T07:01:56Z</time>
      </trkpt>
      <trkpt lat="44.57459" lon="6.09596">
        <ele>774</ele>
        <time>2025-06-12T07:01:57Z</time>
      </trkpt>
      <trkpt lat="44.57464" lon="6.096">
        <ele>774.4</ele>
        <time>2025-06-12T07:01:58Z</time>
      </trkpt>
      <trkpt lat="44.57468" lon="6.09603">
        <ele>774.8</ele>
        <time>2025-06-12T07:01:59Z</time>
      </trkpt>
      <trkpt lat="44.57473" lon="6.09606">
        <ele>775</ele>
        <time>2025-06-12T07:02:00Z</time>
      </trkpt>
      <trkpt lat="44.57477" lon="6.09609">
        <ele>775.4</ele>
        <time>2025-06-12T07:02:01Z</time>
      </trkpt>
      <trkpt lat="44.57485" lon="6.09616">
        <ele>776</ele>
        <time>2025-06-12T07:02:03Z</time>
      </trkpt>
      <trkpt lat="44.57489" lon="6.09619">
        <ele>776.2</ele>
        <time>2025-06-12T07:02:04Z</time>
      </trkpt>
      <trkpt lat="44.57493" lon="6.09621">
        <ele>776.6</ele>
        <time>2025-06-12T07:02:05Z</time>
      </trkpt>
      <trkpt lat="44.57497" lon="6.09624">
        <ele>776.8</ele>
        <time>2025-06-12T07:02:06Z</time>
      </trkpt>
      <trkpt lat="44.57501" lon="6.09627">
        <ele>777.2</ele>
        <time>2025-06-12T07:02:07Z</time>
      </trkpt>
      <trkpt lat="44.57505" lon="6.09629">
        <ele>777.6</ele>
        <time>2025-06-12T07:02:08Z</time>
      </trkpt>
      <trkpt lat="44.57512" lon="6.09635">
        <ele>778.4</ele>
        <time>2025-06-12T07:02:10Z</time>
      </trkpt>
      <trkpt lat="44.57516" lon="6.09638">
        <ele>778.6</ele>
        <time>2025-06-12T07:02:11Z</time>
      </trkpt>
      <trkpt lat="44.5752" lon="6.0964">
        <ele>779</ele>
        <time>2025-06-12T07:02:12Z</time>
      </trkpt>
      <trkpt lat="44.57523" lon="6.09643">
        <ele>779.8</ele>
        <time>2025-06-12T07:02:13Z</time>
      </trkpt>
      <trkpt lat="44.57527" lon="6.09646">
        <ele>780.2</ele>
        <time>2025-06-12T07:02:14Z</time>
      </trkpt>
      <trkpt lat="44.57531" lon="6.09649">
        <ele>780.4</ele>
        <time>2025-06-12T07:02:15Z</time>
      </trkpt>
      <trkpt lat="44.57535" lon="6.09651">
        <ele>780.8</ele>
        <time>2025-06-12T07:02:16Z</time>
      </trkpt>
      <trkpt lat="44.57539" lon="6.09654">
        <ele>781</ele>
        <time>2025-06-12T07:02:17Z</time>
      </trkpt>
      <trkpt lat="44.57547" lon="6.09659">
        <ele>781.6</ele>
        <time>2025-06-12T07:02:19Z</time>
      </trkpt>
      <trkpt lat="44.57555" lon="6.09665">
        <ele>782.4</ele>
        <time>2025-06-12T07:02:21Z</time>
      </trkpt>
      <trkpt lat="44.57559" lon="6.09668">
        <ele>782.6</ele>
        <time>2025-06-12T07:02:22Z</time>
      </trkpt>
      <trkpt lat="44.57563" lon="6.09671">
        <ele>783</ele>
        <time>2025-06-12T07:02:23Z</time>
      </trkpt>
      <trkpt lat="44.57567" lon="6.09674">
        <ele>783.2</ele>
        <time>2025-06-12T07:02:24Z</time>
      </trkpt>
      <trkpt lat="44.57571" lon="6.09677">
        <ele>783.6</ele>
        <time>2025-06-12T07:02:25Z</time>
      </trkpt>
      <trkpt lat="44.57575" lon="6.0968">
        <ele>783.8</ele>
        <time>2025-06-12T07:02:26Z</time>
      </trkpt>
      <trkpt lat="44.57582" lon="6.09686">
        <ele>784.4</ele>
        <time>2025-06-12T07:02:28Z</time>
      </trkpt>
      <trkpt lat="44.57586" lon="6.0969">
        <ele>784.6</ele>
        <time>2025-06-12T07:02:29Z</time>
      </trkpt>
      <trkpt lat="44.5759" lon="6.09693">
        <ele>784.8</ele>
        <time>2025-06-12T07:02:30Z</time>
      </trkpt>
      <trkpt lat="44.57593" lon="6.09697">
        <ele>784.8</ele>
        <time>2025-06-12T07:02:31Z</time>
      </trkpt>
      <trkpt lat="44.57597" lon="6.097">
        <ele>785</ele>
        <time>2025-06-12T07:02:32Z</time>
      </trkpt>
      <trkpt lat="44.57601" lon="6.09704">
        <ele>785.4</ele>
        <time>2025-06-12T07:02:33Z</time>
      </trkpt>
      <trkpt lat="44.57604" lon="6.09707">
        <ele>785.6</ele>
        <time>2025-06-12T07:02:34Z</time>
      </trkpt>
      <trkpt lat="44.57608" lon="6.09711">
        <ele>785.8</ele>
        <time>2025-06-12T07:02:35Z</time>
      </trkpt>
      <trkpt lat="44.57611" lon="6.09715">
        <ele>786</ele>
        <time>2025-06-12T07:02:36Z</time>
      </trkpt>
      <trkpt lat="44.57615" lon="6.09719">
        <ele>786</ele>
        <time>2025-06-12T07:02:37Z</time>
      </trkpt>
      <trkpt lat="44.57618" lon="6.09722">
        <ele>786.4</ele>
        <time>2025-06-12T07:02:38Z</time>
      </trkpt>
      <trkpt lat="44.57621" lon="6.09726">
        <ele>786.6</ele>
        <time>2025-06-12T07:02:39Z</time>
      </trkpt>
      <trkpt lat="44.57628" lon="6.09734">
        <ele>787</ele>
        <time>2025-06-12T07:02:41Z</time>
      </trkpt>
      <trkpt lat="44.57635" lon="6.09741">
        <ele>787.2</ele>
        <time>2025-06-12T07:02:43Z</time>
      </trkpt>
      <trkpt lat="44.57639" lon="6.09745">
        <ele>787.6</ele>
        <time>2025-06-12T07:02:44Z</time>
      </trkpt>
      <trkpt lat="44.57642" lon="6.09749">
        <ele>787.8</ele>
        <time>2025-06-12T07:02:45Z</time>
      </trkpt>
      <trkpt lat="44.57645" lon="6.09753">
        <ele>787.8</ele>
        <time>2025-06-12T07:02:46Z</time>
      </trkpt>
      <trkpt lat="44.57649" lon="6.09758">
        <ele>788</ele>
        <time>2025-06-12T07:02:47Z</time>
      </trkpt>
      <trkpt lat="44.57652" lon="6.09762">
        <ele>788.2</ele>
        <time>2025-06-12T07:02:48Z</time>
      </trkpt>
      <trkpt lat="44.57655" lon="6.09767">
        <ele>788.4</ele>
        <time>2025-06-12T07:02:49Z</time>
      </trkpt>
      <trkpt lat="44.57658" lon="6.09771">
        <ele>788.8</ele>
        <time>2025-06-12T07:02:50Z</time>
      </trkpt>
      <trkpt lat="44.57661" lon="6.09776">
        <ele>789</ele>
        <time>2025-06-12T07:02:51Z</time>
      </trkpt>
      <trkpt lat="44.57664" lon="6.09781">
        <ele>789.2</ele>
        <time>2025-06-12T07:02:52Z</time>
      </trkpt>
      <trkpt lat="44.57666" lon="6.09786">
        <ele>789.4</ele>
        <time>2025-06-12T07:02:53Z</time>
      </trkpt>
      <trkpt lat="44.57669" lon="6.09791">
        <ele>789.4</ele>
        <time>2025-06-12T07:02:54Z</time>
      </trkpt>
      <trkpt lat="44.57673" lon="6.09802">
        <ele>789.6</ele>
        <time>2025-06-12T07:02:56Z</time>
      </trkpt>
      <trkpt lat="44.57677" lon="6.09813">
        <ele>789.8</ele>
        <time>2025-06-12T07:02:58Z</time>
      </trkpt>
      <trkpt lat="44.57679" lon="6.09818">
        <ele>790</ele>
        <time>2025-06-12T07:02:59Z</time>
      </trkpt>
      <trkpt lat="44.57681" lon="6.09824">
        <ele>790</ele>
        <time>2025-06-12T07:03:00Z</time>
      </trkpt>
      <trkpt lat="44.57683" lon="6.09829">
        <ele>790.2</ele>
        <time>2025-06-12T07:03:01Z</time>
      </trkpt>
      <trkpt lat="44.57684" lon="6.09835">
        <ele>790.2</ele>
        <time>2025-06-12T07:03:02Z</time>
      </trkpt>
      <trkpt lat="44.57685" lon="6.09841">
        <ele>790.4</ele>
        <time>2025-06-12T07:03:03Z</time>
      </trkpt>
      <trkpt lat="44.57686" lon="6.09847">
        <ele>790.6</ele>
        <time>2025-06-12T07:03:04Z</time>
      </trkpt>
      <trkpt lat="44.57687" lon="6.09853">
        <ele>790.8</ele>
        <time>2025-06-12T07:03:05Z</time>
      </trkpt>
      <trkpt lat="44.57689" lon="6.09859">
        <ele>790.6</ele>
        <time>2025-06-12T07:03:06Z</time>
      </trkpt>
      <trkpt lat="44.5769" lon="6.09865">
        <ele>791</ele>
        <time>2025-06-12T07:03:07Z</time>
      </trkpt>
      <trkpt lat="44.57691" lon="6.09876">
        <ele>791.2</ele>
        <time>2025-06-12T07:03:09Z</time>
      </trkpt>
      <trkpt lat="44.57694" lon="6.09888">
        <ele>791.2</ele>
        <time>2025-06-12T07:03:11Z</time>
      </trkpt>
      <trkpt lat="44.57696" lon="6.099">
        <ele>791.6</ele>
        <time>2025-06-12T07:03:13Z</time>
      </trkpt>
      <trkpt lat="44.57697" lon="6.09906">
        <ele>791.8</ele>
        <time>2025-06-12T07:03:14Z</time>
      </trkpt>
      <trkpt lat="44.57698" lon="6.09912">
        <ele>792</ele>
        <time>2025-06-12T07:03:15Z</time>
      </trkpt>
      <trkpt lat="44.57699" lon="6.09917">
        <ele>792.2</ele>
        <time>2025-06-12T07:03:16Z</time>
      </trkpt>
      <trkpt lat="44.577" lon="6.09923">
        <ele>792.4</ele>
        <time>2025-06-12T07:03:17Z</time>
      </trkpt>
      <trkpt lat="44.57701" lon="6.09929">
        <ele>792.4</ele>
        <time>2025-06-12T07:03:18Z</time>
      </trkpt>
      <trkpt lat="44.57703" lon="6.09941">
        <ele>792.6</ele>
        <time>2025-06-12T07:03:20Z</time>
      </trkpt>
      <trkpt lat="44.57705" lon="6.09953">
        <ele>793</ele>
        <time>2025-06-12T07:03:22Z</time>
      </trkpt>
      <trkpt lat="44.57706" lon="6.09959">
        <ele>793.2</ele>
        <time>2025-06-12T07:03:23Z</time>
      </trkpt>
      <trkpt lat="44.57707" lon="6.09965">
        <ele>793.2</ele>
        <time>2025-06-12T07:03:24Z</time>
      </trkpt>
      <trkpt lat="44.57708" lon="6.09971">
        <ele>793.4</ele>
        <time>2025-06-12T07:03:25Z</time>
      </trkpt>
      <trkpt lat="44.57711" lon="6.09983">
        <ele>793.4</ele>
        <time>2025-06-12T07:03:27Z</time>
      </trkpt>
      <trkpt lat="44.57712" lon="6.09995">
        <ele>793.6</ele>
        <time>2025-06-12T07:03:29Z</time>
      </trkpt>
      <trkpt lat="44.57713" lon="6.10001">
        <ele>793.8</ele>
        <time>2025-06-12T07:03:30Z</time>
      </trkpt>
      <trkpt lat="44.57714" lon="6.10007">
        <ele>793.8</ele>
        <time>2025-06-12T07:03:31Z</time>
      </trkpt>
      <trkpt lat="44.57715" lon="6.10013">
        <ele>793.8</ele>
        <time>2025-06-12T07:03:32Z</time>
      </trkpt>
      <trkpt lat="44.57717" lon="6.10018">
        <ele>794</ele>
        <time>2025-06-12T07:03:33Z</time>
      </trkpt>
      <trkpt lat="44.57718" lon="6.10024">
        <ele>794</ele>
        <time>2025-06-12T07:03:34Z</time>
      </trkpt>
      <trkpt lat="44.5772" lon="6.10036">
        <ele>794.6</ele>
        <time>2025-06-12T07:03:36Z</time>
      </trkpt>
      <trkpt lat="44.57722" lon="6.10042">
        <ele>794.8</ele>
        <time>2025-06-12T07:03:37Z</time>
      </trkpt>
      <trkpt lat="44.57723" lon="6.10047">
        <ele>795</ele>
        <time>2025-06-12T07:03:38Z</time>
      </trkpt>
      <trkpt lat="44.57725" lon="6.10053">
        <ele>795.2</ele>
        <time>2025-06-12T07:03:39Z</time>
      </trkpt>
      <trkpt lat="44.57727" lon="6.10059">
        <ele>795.4</ele>
        <time>2025-06-12T07:03:40Z</time>
      </trkpt>
      <trkpt lat="44.5773" lon="6.10064">
        <ele>795.4</ele>
        <time>2025-06-12T07:03:41Z</time>
      </trkpt>
      <trkpt lat="44.57735" lon="6.10075">
        <ele>795.4</ele>
        <time>2025-06-12T07:03:43Z</time>
      </trkpt>
      <trkpt lat="44.57738" lon="6.1008">
        <ele>795.6</ele>
        <time>2025-06-12T07:03:44Z</time>
      </trkpt>
      <trkpt lat="44.57741" lon="6.10085">
        <ele>795.8</ele>
        <time>2025-06-12T07:03:45Z</time>
      </trkpt>
      <trkpt lat="44.57744" lon="6.10089">
        <ele>795.8</ele>
        <time>2025-06-12T07:03:46Z</time>
      </trkpt>
      <trkpt lat="44.57748" lon="6.10093">
        <ele>795.8</ele>
        <time>2025-06-12T07:03:47Z</time>
      </trkpt>
      <trkpt lat="44.57752" lon="6.10097">
        <ele>795.8</ele>
        <time>2025-06-12T07:03:48Z</time>
      </trkpt>
      <trkpt lat="44.57759" lon="6.10103">
        <ele>796</ele>
        <time>2025-06-12T07:03:50Z</time>
      </trkpt>
      <trkpt lat="44.57763" lon="6.10105">
        <ele>796</ele>
        <time>2025-06-12T07:03:51Z</time>
      </trkpt>
      <trkpt lat="44.57767" lon="6.10108">
        <ele>796.2</ele>
        <time>2025-06-12T07:03:52Z</time>
      </trkpt>
      <trkpt lat="44.57771" lon="6.1011">
        <ele>796.2</ele>
        <time>2025-06-12T07:03:53Z</time>
      </trkpt>
      <trkpt lat="44.5778" lon="6.10114">
        <ele>796.4</ele>
        <time>2025-06-12T07:03:55Z</time>
      </trkpt>
      <trkpt lat="44.57789" lon="6.10116">
        <ele>796.4</ele>
        <time>2025-06-12T07:03:57Z</time>
      </trkpt>
      <trkpt lat="44.57794" lon="6.10117">
        <ele>796.4</ele>
        <time>2025-06-12T07:03:58Z</time>
      </trkpt>
      <trkpt lat="44.578" lon="6.10117">
        <ele>796.4</ele>
        <time>2025-06-12T07:03:59Z</time>
      </trkpt>
      <trkpt lat="44.57805" lon="6.10116">
        <ele>796.4</ele>
        <time>2025-06-12T07:04:00Z</time>
      </trkpt>
      <trkpt lat="44.57816" lon="6.10115">
        <ele>796.4</ele>
        <time>2025-06-12T07:04:02Z</time>
      </trkpt>
      <trkpt lat="44.57826" lon="6.10114">
        <ele>796.4</ele>
        <time>2025-06-12T07:04:04Z</time>
      </trkpt>
      <trkpt lat="44.57832" lon="6.10113">
        <ele>796.4</ele>
        <time>2025-06-12T07:04:05Z</time>
      </trkpt>
      <trkpt lat="44.57843" lon="6.10112">
        <ele>795.8</ele>
        <time>2025-06-12T07:04:07Z</time>
      </trkpt>
      <trkpt lat="44.57854" lon="6.10111">
        <ele>795.4</ele>
        <time>2025-06-12T07:04:09Z</time>
      </trkpt>
      <trkpt lat="44.57859" lon="6.10111">
        <ele>795.2</ele>
        <time>2025-06-12T07:04:10Z</time>
      </trkpt>
      <trkpt lat="44.57865" lon="6.10111">
        <ele>795.2</ele>
        <time>2025-06-12T07:04:11Z</time>
      </trkpt>
      <trkpt lat="44.5787" lon="6.10112">
        <ele>795</ele>
        <time>2025-06-12T07:04:12Z</time>
      </trkpt>
      <trkpt lat="44.57875" lon="6.10114">
        <ele>795</ele>
        <time>2025-06-12T07:04:13Z</time>
      </trkpt>
      <trkpt lat="44.5788" lon="6.10115">
        <ele>795</ele>
        <time>2025-06-12T07:04:14Z</time>
      </trkpt>
      <trkpt lat="44.5789" lon="6.10118">
        <ele>795</ele>
        <time>2025-06-12T07:04:16Z</time>
      </trkpt>
      <trkpt lat="44.57898" lon="6.10122">
        <ele>795</ele>
        <time>2025-06-12T07:04:18Z</time>
      </trkpt>
      <trkpt lat="44.57906" lon="6.10124">
        <ele>795</ele>
        <time>2025-06-12T07:04:20Z</time>
      </trkpt>
      <trkpt lat="44.5791" lon="6.10125">
        <ele>795</ele>
        <time>2025-06-12T07:04:21Z</time>
      </trkpt>
      <trkpt lat="44.57913" lon="6.10125">
        <ele>795</ele>
        <time>2025-06-12T07:04:22Z</time>
      </trkpt>
      <trkpt lat="44.57916" lon="6.10126">
        <ele>795.2</ele>
        <time>2025-06-12T07:04:23Z</time>
      </trkpt>
      <trkpt lat="44.57921" lon="6.10127">
        <ele>795.6</ele>
        <time>2025-06-12T07:04:25Z</time>
      </trkpt>
      <trkpt lat="44.57926" lon="6.10129">
        <ele>796.2</ele>
        <time>2025-06-12T07:04:27Z</time>
      </trkpt>
      <trkpt lat="44.57929" lon="6.1013">
        <ele>796.6</ele>
        <time>2025-06-12T07:04:28Z</time>
      </trkpt>
      <trkpt lat="44.57935" lon="6.10131">
        <ele>797.6</ele>
        <time>2025-06-12T07:04:30Z</time>
      </trkpt>
      <trkpt lat="44.57938" lon="6.10132">
        <ele>798</ele>
        <time>2025-06-12T07:04:31Z</time>
      </trkpt>
      <trkpt lat="44.57942" lon="6.10133">
        <ele>798.2</ele>
        <time>2025-06-12T07:04:32Z</time>
      </trkpt>
      <trkpt lat="44.57945" lon="6.10134">
        <ele>798.6</ele>
        <time>2025-06-12T07:04:33Z</time>
      </trkpt>
      <trkpt lat="44.57948" lon="6.10135">
        <ele>799</ele>
        <time>2025-06-12T07:04:34Z</time>
      </trkpt>
      <trkpt lat="44.57952" lon="6.10136">
        <ele>799.2</ele>
        <time>2025-06-12T07:04:35Z</time>
      </trkpt>
      <trkpt lat="44.57955" lon="6.10138">
        <ele>799.6</ele>
        <time>2025-06-12T07:04:36Z</time>
      </trkpt>
      <trkpt lat="44.57957" lon="6.10142">
        <ele>799.8</ele>
        <time>2025-06-12T07:04:37Z</time>
      </trkpt>
      <trkpt lat="44.57959" lon="6.10146">
        <ele>800</ele>
        <time>2025-06-12T07:04:38Z</time>
      </trkpt>
      <trkpt lat="44.5796" lon="6.10151">
        <ele>800.2</ele>
        <time>2025-06-12T07:04:39Z</time>
      </trkpt>
      <trkpt lat="44.5796" lon="6.10156">
        <ele>800.4</ele>
        <time>2025-06-12T07:04:40Z</time>
      </trkpt>
      <trkpt lat="44.5796" lon="6.1016">
        <ele>800.6</ele>
        <time>2025-06-12T07:04:41Z</time>
      </trkpt>
      <trkpt lat="44.57958" lon="6.10169">
        <ele>801</ele>
        <time>2025-06-12T07:04:43Z</time>
      </trkpt>
      <trkpt lat="44.57956" lon="6.10172">
        <ele>801</ele>
        <time>2025-06-12T07:04:44Z</time>
      </trkpt>
      <trkpt lat="44.57954" lon="6.10174">
        <ele>801.2</ele>
        <time>2025-06-12T07:04:45Z</time>
      </trkpt>
      <trkpt lat="44.57952" lon="6.10176">
        <ele>801.4</ele>
        <time>2025-06-12T07:04:46Z</time>
      </trkpt>
      <trkpt lat="44.57949" lon="6.10178">
        <ele>801.6</ele>
        <time>2025-06-12T07:04:47Z</time>
      </trkpt>
      <trkpt lat="44.57947" lon="6.10179">
        <ele>801.8</ele>
        <time>2025-06-12T07:04:48Z</time>
      </trkpt>
      <trkpt lat="44.57944" lon="6.1018">
        <ele>801.8</ele>
        <time>2025-06-12T07:04:49Z</time>
      </trkpt>
      <trkpt lat="44.57941" lon="6.1018">
        <ele>802</ele>
        <time>2025-06-12T07:04:50Z</time>
      </trkpt>
      <trkpt lat="44.57939" lon="6.10181">
        <ele>802.4</ele>
        <time>2025-06-12T07:04:51Z</time>
      </trkpt>
      <trkpt lat="44.57936" lon="6.10182">
        <ele>802.6</ele>
        <time>2025-06-12T07:04:52Z</time>
      </trkpt>
      <trkpt lat="44.57934" lon="6.10183">
        <ele>803</ele>
        <time>2025-06-12T07:04:53Z</time>
      </trkpt>
      <trkpt lat="44.57931" lon="6.10184">
        <ele>803.2</ele>
        <time>2025-06-12T07:04:54Z</time>
      </trkpt>
      <trkpt lat="44.57929" lon="6.10184">
        <ele>803.6</ele>
        <time>2025-06-12T07:04:55Z</time>
      </trkpt>
      <trkpt lat="44.57926" lon="6.10185">
        <ele>803.8</ele>
        <time>2025-06-12T07:04:56Z</time>
      </trkpt>
      <trkpt lat="44.57924" lon="6.10186">
        <ele>804</ele>
        <time>2025-06-12T07:04:57Z</time>
      </trkpt>
      <trkpt lat="44.57921" lon="6.10187">
        <ele>804.4</ele>
        <time>2025-06-12T07:04:58Z</time>
      </trkpt>
      <trkpt lat="44.57919" lon="6.10188">
        <ele>804.6</ele>
        <time>2025-06-12T07:04:59Z</time>
      </trkpt>
      <trkpt lat="44.57916" lon="6.10189">
        <ele>805</ele>
        <time>2025-06-12T07:05:00Z</time>
      </trkpt>
      <trkpt lat="44.57911" lon="6.10193">
        <ele>805.4</ele>
        <time>2025-06-12T07:05:02Z</time>
      </trkpt>
      <trkpt lat="44.57907" lon="6.10196">
        <ele>805.6</ele>
        <time>2025-06-12T07:05:04Z</time>
      </trkpt>
      <trkpt lat="44.57904" lon="6.10199">
        <ele>806</ele>
        <time>2025-06-12T07:05:05Z</time>
      </trkpt>
      <trkpt lat="44.57902" lon="6.10201">
        <ele>806.2</ele>
        <time>2025-06-12T07:05:06Z</time>
      </trkpt>
      <trkpt lat="44.579" lon="6.10204">
        <ele>806.4</ele>
        <time>2025-06-12T07:05:07Z</time>
      </trkpt>
      <trkpt lat="44.57898" lon="6.10207">
        <ele>806.8</ele>
        <time>2025-06-12T07:05:08Z</time>
      </trkpt>
      <trkpt lat="44.57896" lon="6.1021">
        <ele>807</ele>
        <time>2025-06-12T07:05:09Z</time>
      </trkpt>
      <trkpt lat="44.57894" lon="6.10213">
        <ele>807.4</ele>
        <time>2025-06-12T07:05:10Z</time>
      </trkpt>
      <trkpt lat="44.57892" lon="6.10216">
        <ele>807.4</ele>
        <time>2025-06-12T07:05:11Z</time>
      </trkpt>
      <trkpt lat="44.57891" lon="6.1022">
        <ele>807.8</ele>
        <time>2025-06-12T07:05:12Z</time>
      </trkpt>
      <trkpt lat="44.5789" lon="6.10224">
        <ele>808</ele>
        <time>2025-06-12T07:05:13Z</time>
      </trkpt>
      <trkpt lat="44.57889" lon="6.10228">
        <ele>808.6</ele>
        <time>2025-06-12T07:05:14Z</time>
      </trkpt>
      <trkpt lat="44.57889" lon="6.10232">
        <ele>808.8</ele>
        <time>2025-06-12T07:05:15Z</time>
      </trkpt>
      <trkpt lat="44.57889" lon="6.10241">
        <ele>809</ele>
        <time>2025-06-12T07:05:17Z</time>
      </trkpt>
      <trkpt lat="44.57889" lon="6.10249">
        <ele>809.4</ele>
        <time>2025-06-12T07:05:19Z</time>
      </trkpt>
      <trkpt lat="44.5789" lon="6.10253">
        <ele>809.6</ele>
        <time>2025-06-12T07:05:20Z</time>
      </trkpt>
      <trkpt lat="44.57891" lon="6.10258">
        <ele>809.8</ele>
        <time>2025-06-12T07:05:21Z</time>
      </trkpt>
      <trkpt lat="44.57892" lon="6.10262">
        <ele>809.8</ele>
        <time>2025-06-12T07:05:22Z</time>
      </trkpt>
      <trkpt lat="44.57893" lon="6.10265">
        <ele>810</ele>
        <time>2025-06-12T07:05:23Z</time>
      </trkpt>
      <trkpt lat="44.57895" lon="6.10269">
        <ele>810.2</ele>
        <time>2025-06-12T07:05:24Z</time>
      </trkpt>
      <trkpt lat="44.57898" lon="6.10276">
        <ele>810.4</ele>
        <time>2025-06-12T07:05:26Z</time>
      </trkpt>
      <trkpt lat="44.57899" lon="6.1028">
        <ele>810.8</ele>
        <time>2025-06-12T07:05:27Z</time>
      </trkpt>
      <trkpt lat="44.57901" lon="6.10283">
        <ele>811</ele>
        <time>2025-06-12T07:05:28Z</time>
      </trkpt>
      <trkpt lat="44.57903" lon="6.10287">
        <ele>811</ele>
        <time>2025-06-12T07:05:29Z</time>
      </trkpt>
      <trkpt lat="44.57904" lon="6.1029">
        <ele>811.2</ele>
        <time>2025-06-12T07:05:30Z</time>
      </trkpt>
      <trkpt lat="44.57906" lon="6.10294">
        <ele>811.4</ele>
        <time>2025-06-12T07:05:31Z</time>
      </trkpt>
      <trkpt lat="44.57909" lon="6.10301">
        <ele>811.6</ele>
        <time>2025-06-12T07:05:33Z</time>
      </trkpt>
      <trkpt lat="44.57912" lon="6.10307">
        <ele>811.8</ele>
        <time>2025-06-12T07:05:35Z</time>
      </trkpt>
      <trkpt lat="44.57913" lon="6.10311">
        <ele>812</ele>
        <time>2025-06-12T07:05:36Z</time>
      </trkpt>
      <trkpt lat="44.57915" lon="6.10314">
        <ele>812.2</ele>
        <time>2025-06-12T07:05:37Z</time>
      </trkpt>
      <trkpt lat="44.57916" lon="6.10318">
        <ele>812.6</ele>
        <time>2025-06-12T07:05:38Z</time>
      </trkpt>
      <trkpt lat="44.57918" lon="6.10321">
        <ele>812.8</ele>
        <time>2025-06-12T07:05:39Z</time>
      </trkpt>
      <trkpt lat="44.57919" lon="6.10324">
        <ele>813</ele>
        <time>2025-06-12T07:05:40Z</time>
      </trkpt>
      <trkpt lat="44.57923" lon="6.10331">
        <ele>813.6</ele>
        <time>2025-06-12T07:05:42Z</time>
      </trkpt>
      <trkpt lat="44.57925" lon="6.10334">
        <ele>813.8</ele>
        <time>2025-06-12T07:05:43Z</time>
      </trkpt>
      <trkpt lat="44.57926" lon="6.10337">
        <ele>814</ele>
        <time>2025-06-12T07:05:44Z</time>
      </trkpt>
      <trkpt lat="44.57928" lon="6.1034">
        <ele>814.4</ele>
        <time>2025-06-12T07:05:45Z</time>
      </trkpt>
      <trkpt lat="44.5793" lon="6.10343">
        <ele>814.6</ele>
        <time>2025-06-12T07:05:46Z</time>
      </trkpt>
      <trkpt lat="44.57932" lon="6.10346">
        <ele>814.8</ele>
        <time>2025-06-12T07:05:47Z</time>
      </trkpt>
      <trkpt lat="44.57933" lon="6.10349">
        <ele>815</ele>
        <time>2025-06-12T07:05:48Z</time>
      </trkpt>
      <trkpt lat="44.57935" lon="6.10352">
        <ele>815.2</ele>
        <time>2025-06-12T07:05:49Z</time>
      </trkpt>
      <trkpt lat="44.57939" lon="6.10359">
        <ele>815.6</ele>
        <time>2025-06-12T07:05:51Z</time>
      </trkpt>
      <trkpt lat="44.57942" lon="6.10365">
        <ele>816</ele>
        <time>2025-06-12T07:05:53Z</time>
      </trkpt>
      <trkpt lat="44.57944" lon="6.10368">
        <ele>816.2</ele>
        <time>2025-06-12T07:05:54Z</time>
      </trkpt>
      <trkpt lat="44.57946" lon="6.10371">
        <ele>816.6</ele>
        <time>2025-06-12T07:05:55Z</time>
      </trkpt>
      <trkpt lat="44.57948" lon="6.10374">
        <ele>816.8</ele>
        <time>2025-06-12T07:05:56Z</time>
      </trkpt>
      <trkpt lat="44.5795" lon="6.10377">
        <ele>817</ele>
        <time>2025-06-12T07:05:57Z</time>
      </trkpt>
      <trkpt lat="44.57952" lon="6.1038">
        <ele>817.2</ele>
        <time>2025-06-12T07:05:58Z</time>
      </trkpt>
      <trkpt lat="44.57953" lon="6.10383">
        <ele>817.4</ele>
        <time>2025-06-12T07:05:59Z</time>
      </trkpt>
      <trkpt lat="44.57955" lon="6.10386">
        <ele>817.6</ele>
        <time>2025-06-12T07:06:00Z</time>
      </trkpt>
      <trkpt lat="44.57958" lon="6.10393">
        <ele>818.2</ele>
        <time>2025-06-12T07:06:02Z</time>
      </trkpt>
      <trkpt lat="44.57961" lon="6.10399">
        <ele>818.6</ele>
        <time>2025-06-12T07:06:04Z</time>
      </trkpt>
      <trkpt lat="44.57963" lon="6.10403">
        <ele>818.8</ele>
        <time>2025-06-12T07:06:05Z</time>
      </trkpt>
      <trkpt lat="44.57965" lon="6.10406">
        <ele>819.2</ele>
        <time>2025-06-12T07:06:06Z</time>
      </trkpt>
      <trkpt lat="44.57966" lon="6.10409">
        <ele>819.4</ele>
        <time>2025-06-12T07:06:07Z</time>
      </trkpt>
      <trkpt lat="44.57967" lon="6.10413">
        <ele>819.6</ele>
        <time>2025-06-12T07:06:08Z</time>
      </trkpt>
      <trkpt lat="44.57969" lon="6.10417">
        <ele>820</ele>
        <time>2025-06-12T07:06:09Z</time>
      </trkpt>
      <trkpt lat="44.5797" lon="6.1042">
        <ele>820.2</ele>
        <time>2025-06-12T07:06:10Z</time>
      </trkpt>
      <trkpt lat="44.57972" lon="6.10424">
        <ele>820.4</ele>
        <time>2025-06-12T07:06:11Z</time>
      </trkpt>
      <trkpt lat="44.57975" lon="6.1043">
        <ele>820.8</ele>
        <time>2025-06-12T07:06:13Z</time>
      </trkpt>
      <trkpt lat="44.57978" lon="6.10437">
        <ele>821</ele>
        <time>2025-06-12T07:06:15Z</time>
      </trkpt>
      <trkpt lat="44.5798" lon="6.1044">
        <ele>821.2</ele>
        <time>2025-06-12T07:06:16Z</time>
      </trkpt>
      <trkpt lat="44.57981" lon="6.10443">
        <ele>821.4</ele>
        <time>2025-06-12T07:06:17Z</time>
      </trkpt>
      <trkpt lat="44.57983" lon="6.10447">
        <ele>821.6</ele>
        <time>2025-06-12T07:06:18Z</time>
      </trkpt>
      <trkpt lat="44.57984" lon="6.1045">
        <ele>821.6</ele>
        <time>2025-06-12T07:06:19Z</time>
      </trkpt>
      <trkpt lat="44.57986" lon="6.10454">
        <ele>821.8</ele>
        <time>2025-06-12T07:06:20Z</time>
      </trkpt>
      <trkpt lat="44.57987" lon="6.10457">
        <ele>822</ele>
        <time>2025-06-12T07:06:21Z</time>
      </trkpt>
      <trkpt lat="44.5799" lon="6.10458">
        <ele>822</ele>
        <time>2025-06-12T07:06:22Z</time>
      </trkpt>
      <trkpt lat="44.57992" lon="6.10459">
        <ele>822</ele>
        <time>2025-06-12T07:06:23Z</time>
      </trkpt>
      <trkpt lat="44.57995" lon="6.10458">
        <ele>822.2</ele>
        <time>2025-06-12T07:06:24Z</time>
      </trkpt>
      <trkpt lat="44.58" lon="6.10452">
        <ele>822.6</ele>
        <time>2025-06-12T07:06:26Z</time>
      </trkpt>
      <trkpt lat="44.58002" lon="6.10449">
        <ele>822.6</ele>
        <time>2025-06-12T07:06:27Z</time>
      </trkpt>
      <trkpt lat="44.58005" lon="6.10446">
        <ele>822.8</ele>
        <time>2025-06-12T07:06:28Z</time>
      </trkpt>
      <trkpt lat="44.58008" lon="6.10444">
        <ele>823</ele>
        <time>2025-06-12T07:06:29Z</time>
      </trkpt>
      <trkpt lat="44.58011" lon="6.10441">
        <ele>823</ele>
        <time>2025-06-12T07:06:30Z</time>
      </trkpt>
      <trkpt lat="44.58013" lon="6.10439">
        <ele>823.2</ele>
        <time>2025-06-12T07:06:31Z</time>
      </trkpt>
      <trkpt lat="44.58019" lon="6.10435">
        <ele>823.2</ele>
        <time>2025-06-12T07:06:33Z</time>
      </trkpt>
      <trkpt lat="44.58022" lon="6.10432">
        <ele>823.2</ele>
        <time>2025-06-12T07:06:34Z</time>
      </trkpt>
      <trkpt lat="44.58025" lon="6.1043">
        <ele>823.2</ele>
        <time>2025-06-12T07:06:35Z</time>
      </trkpt>
      <trkpt lat="44.58028" lon="6.10428">
        <ele>823.4</ele>
        <time>2025-06-12T07:06:36Z</time>
      </trkpt>
      <trkpt lat="44.58033" lon="6.10424">
        <ele>823.4</ele>
        <time>2025-06-12T07:06:38Z</time>
      </trkpt>
      <trkpt lat="44.58036" lon="6.10423">
        <ele>823.4</ele>
        <time>2025-06-12T07:06:39Z</time>
      </trkpt>
      <trkpt lat="44.58039" lon="6.10421">
        <ele>823.6</ele>
        <time>2025-06-12T07:06:40Z</time>
      </trkpt>
      <trkpt lat="44.58042" lon="6.1042">
        <ele>823.6</ele>
        <time>2025-06-12T07:06:41Z</time>
      </trkpt>
      <trkpt lat="44.58045" lon="6.10419">
        <ele>823.6</ele>
        <time>2025-06-12T07:06:42Z</time>
      </trkpt>
      <trkpt lat="44.58047" lon="6.10417">
        <ele>823.8</ele>
        <time>2025-06-12T07:06:43Z</time>
      </trkpt>
      <trkpt lat="44.5805" lon="6.10416">
        <ele>823.8</ele>
        <time>2025-06-12T07:06:44Z</time>
      </trkpt>
      <trkpt lat="44.58053" lon="6.10415">
        <ele>824.2</ele>
        <time>2025-06-12T07:06:45Z</time>
      </trkpt>
      <trkpt lat="44.58056" lon="6.10414">
        <ele>824.4</ele>
        <time>2025-06-12T07:06:46Z</time>
      </trkpt>
      <trkpt lat="44.58059" lon="6.10414">
        <ele>824.4</ele>
        <time>2025-06-12T07:06:47Z</time>
      </trkpt>
      <trkpt lat="44.58065" lon="6.10413">
        <ele>824.8</ele>
        <time>2025-06-12T07:06:49Z</time>
      </trkpt>
      <trkpt lat="44.58067" lon="6.10412">
        <ele>825</ele>
        <time>2025-06-12T07:06:50Z</time>
      </trkpt>
      <trkpt lat="44.5807" lon="6.10412">
        <ele>825.2</ele>
        <time>2025-06-12T07:06:51Z</time>
      </trkpt>
      <trkpt lat="44.58073" lon="6.10412">
        <ele>825.4</ele>
        <time>2025-06-12T07:06:52Z</time>
      </trkpt>
      <trkpt lat="44.58076" lon="6.10411">
        <ele>825.4</ele>
        <time>2025-06-12T07:06:53Z</time>
      </trkpt>
      <trkpt lat="44.58079" lon="6.10411">
        <ele>825.6</ele>
        <time>2025-06-12T07:06:54Z</time>
      </trkpt>
      <trkpt lat="44.58081" lon="6.10411">
        <ele>825.6</ele>
        <time>2025-06-12T07:06:55Z</time>
      </trkpt>
      <trkpt lat="44.58084" lon="6.10411">
        <ele>825.8</ele>
        <time>2025-06-12T07:06:56Z</time>
      </trkpt>
      <trkpt lat="44.5809" lon="6.10411">
        <ele>826.2</ele>
        <time>2025-06-12T07:06:58Z</time>
      </trkpt>
      <trkpt lat="44.58093" lon="6.10411">
        <ele>826.4</ele>
        <time>2025-06-12T07:06:59Z</time>
      </trkpt>
      <trkpt lat="44.58095" lon="6.10411">
        <ele>826.6</ele>
        <time>2025-06-12T07:07:00Z</time>
      </trkpt>
      <trkpt lat="44.58101" lon="6.10411">
        <ele>827</ele>
        <time>2025-06-12T07:07:02Z</time>
      </trkpt>
      <trkpt lat="44.58103" lon="6.10411">
        <ele>827.2</ele>
        <time>2025-06-12T07:07:03Z</time>
      </trkpt>
      <trkpt lat="44.58106" lon="6.10411">
        <ele>827.6</ele>
        <time>2025-06-12T07:07:04Z</time>
      </trkpt>
      <trkpt lat="44.58109" lon="6.1041">
        <ele>828</ele>
        <time>2025-06-12T07:07:05Z</time>
      </trkpt>
      <trkpt lat="44.58112" lon="6.1041">
        <ele>828.2</ele>
        <time>2025-06-12T07:07:06Z</time>
      </trkpt>
      <trkpt lat="44.58114" lon="6.1041">
        <ele>828.2</ele>
        <time>2025-06-12T07:07:07Z</time>
      </trkpt>
      <trkpt lat="44.5812" lon="6.1041">
        <ele>828.6</ele>
        <time>2025-06-12T07:07:09Z</time>
      </trkpt>
      <trkpt lat="44.58122" lon="6.1041">
        <ele>828.8</ele>
        <time>2025-06-12T07:07:10Z</time>
      </trkpt>
      <trkpt lat="44.58125" lon="6.1041">
        <ele>829</ele>
        <time>2025-06-12T07:07:11Z</time>
      </trkpt>
      <trkpt lat="44.58128" lon="6.1041">
        <ele>829.2</ele>
        <time>2025-06-12T07:07:12Z</time>
      </trkpt>
      <trkpt lat="44.58131" lon="6.1041">
        <ele>829.2</ele>
        <time>2025-06-12T07:07:13Z</time>
      </trkpt>
      <trkpt lat="44.58136" lon="6.1041">
        <ele>829.6</ele>
        <time>2025-06-12T07:07:15Z</time>
      </trkpt>
      <trkpt lat="44.58142" lon="6.1041">
        <ele>830</ele>
        <time>2025-06-12T07:07:17Z</time>
      </trkpt>
      <trkpt lat="44.58145" lon="6.10409">
        <ele>830.2</ele>
        <time>2025-06-12T07:07:18Z</time>
      </trkpt>
      <trkpt lat="44.58147" lon="6.10409">
        <ele>830.6</ele>
        <time>2025-06-12T07:07:19Z</time>
      </trkpt>
      <trkpt lat="44.5815" lon="6.10409">
        <ele>830.8</ele>
        <time>2025-06-12T07:07:20Z</time>
      </trkpt>
      <trkpt lat="44.58153" lon="6.10408">
        <ele>831</ele>
        <time>2025-06-12T07:07:21Z</time>
      </trkpt>
      <trkpt lat="44.58156" lon="6.10408">
        <ele>831</ele>
        <time>2025-06-12T07:07:22Z</time>
      </trkpt>
      <trkpt lat="44.58161" lon="6.1041">
        <ele>831.4</ele>
        <time>2025-06-12T07:07:24Z</time>
      </trkpt>
      <trkpt lat="44.58167" lon="6.10412">
        <ele>832</ele>
        <time>2025-06-12T07:07:26Z</time>
      </trkpt>
      <trkpt lat="44.5817" lon="6.10413">
        <ele>832.2</ele>
        <time>2025-06-12T07:07:27Z</time>
      </trkpt>
      <trkpt lat="44.58173" lon="6.10414">
        <ele>832.4</ele>
        <time>2025-06-12T07:07:28Z</time>
      </trkpt>
      <trkpt lat="44.58175" lon="6.10415">
        <ele>832.6</ele>
        <time>2025-06-12T07:07:29Z</time>
      </trkpt>
      <trkpt lat="44.58178" lon="6.10417">
        <ele>832.8</ele>
        <time>2025-06-12T07:07:30Z</time>
      </trkpt>
      <trkpt lat="44.58181" lon="6.10419">
        <ele>833</ele>
        <time>2025-06-12T07:07:31Z</time>
      </trkpt>
      <trkpt lat="44.58183" lon="6.10421">
        <ele>833</ele>
        <time>2025-06-12T07:07:32Z</time>
      </trkpt>
      <trkpt lat="44.58186" lon="6.10423">
        <ele>833.6</ele>
        <time>2025-06-12T07:07:33Z</time>
      </trkpt>
      <trkpt lat="44.58188" lon="6.10426">
        <ele>833.8</ele>
        <time>2025-06-12T07:07:34Z</time>
      </trkpt>
      <trkpt lat="44.5819" lon="6.10428">
        <ele>833.8</ele>
        <time>2025-06-12T07:07:35Z</time>
      </trkpt>
      <trkpt lat="44.58195" lon="6.10433">
        <ele>834.4</ele>
        <time>2025-06-12T07:07:37Z</time>
      </trkpt>
      <trkpt lat="44.58197" lon="6.10436">
        <ele>834.6</ele>
        <time>2025-06-12T07:07:38Z</time>
      </trkpt>
      <trkpt lat="44.58199" lon="6.10439">
        <ele>835</ele>
        <time>2025-06-12T07:07:39Z</time>
      </trkpt>
      <trkpt lat="44.58201" lon="6.10442">
        <ele>835.2</ele>
        <time>2025-06-12T07:07:40Z</time>
      </trkpt>
      <trkpt lat="44.58202" lon="6.10445">
        <ele>835.4</ele>
        <time>2025-06-12T07:07:41Z</time>
      </trkpt>
      <trkpt lat="44.58204" lon="6.10449">
        <ele>835.6</ele>
        <time>2025-06-12T07:07:42Z</time>
      </trkpt>
      <trkpt lat="44.58206" lon="6.10452">
        <ele>835.8</ele>
        <time>2025-06-12T07:07:43Z</time>
      </trkpt>
      <trkpt lat="44.58207" lon="6.10455">
        <ele>836</ele>
        <time>2025-06-12T07:07:44Z</time>
      </trkpt>
      <trkpt lat="44.5821" lon="6.10463">
        <ele>836.6</ele>
        <time>2025-06-12T07:07:46Z</time>
      </trkpt>
      <trkpt lat="44.58212" lon="6.1047">
        <ele>837</ele>
        <time>2025-06-12T07:07:48Z</time>
      </trkpt>
      <trkpt lat="44.58213" lon="6.10474">
        <ele>837.2</ele>
        <time>2025-06-12T07:07:49Z</time>
      </trkpt>
      <trkpt lat="44.58214" lon="6.10478">
        <ele>837.2</ele>
        <time>2025-06-12T07:07:50Z</time>
      </trkpt>
      <trkpt lat="44.58214" lon="6.10482">
        <ele>837.4</ele>
        <time>2025-06-12T07:07:51Z</time>
      </trkpt>
      <trkpt lat="44.58215" lon="6.10485">
        <ele>837.8</ele>
        <time>2025-06-12T07:07:52Z</time>
      </trkpt>
      <trkpt lat="44.58215" lon="6.10489">
        <ele>838</ele>
        <time>2025-06-12T07:07:53Z</time>
      </trkpt>
      <trkpt lat="44.58216" lon="6.10497">
        <ele>838.4</ele>
        <time>2025-06-12T07:07:55Z</time>
      </trkpt>
      <trkpt lat="44.58216" lon="6.10506">
        <ele>838.6</ele>
        <time>2025-06-12T07:07:57Z</time>
      </trkpt>
      <trkpt lat="44.58216" lon="6.10514">
        <ele>839</ele>
        <time>2025-06-12T07:07:59Z</time>
      </trkpt>
      <trkpt lat="44.58216" lon="6.10518">
        <ele>839.4</ele>
        <time>2025-06-12T07:08:00Z</time>
      </trkpt>
      <trkpt lat="44.58215" lon="6.10522">
        <ele>839.4</ele>
        <time>2025-06-12T07:08:01Z</time>
      </trkpt>
      <trkpt lat="44.58215" lon="6.10526">
        <ele>839.6</ele>
        <time>2025-06-12T07:08:02Z</time>
      </trkpt>
      <trkpt lat="44.58215" lon="6.1053">
        <ele>839.8</ele>
        <time>2025-06-12T07:08:03Z</time>
      </trkpt>
      <trkpt lat="44.58215" lon="6.10535">
        <ele>840</ele>
        <time>2025-06-12T07:08:04Z</time>
      </trkpt>
      <trkpt lat="44.58215" lon="6.10539">
        <ele>840.2</ele>
        <time>2025-06-12T07:08:05Z</time>
      </trkpt>
      <trkpt lat="44.58215" lon="6.10543">
        <ele>840.2</ele>
        <time>2025-06-12T07:08:06Z</time>
      </trkpt>
      <trkpt lat="44.58216" lon="6.10551">
        <ele>840.6</ele>
        <time>2025-06-12T07:08:08Z</time>
      </trkpt>
      <trkpt lat="44.58216" lon="6.10559">
        <ele>841</ele>
        <time>2025-06-12T07:08:10Z</time>
      </trkpt>
      <trkpt lat="44.58216" lon="6.10564">
        <ele>841</ele>
        <time>2025-06-12T07:08:11Z</time>
      </trkpt>
      <trkpt lat="44.58216" lon="6.10568">
        <ele>841.2</ele>
        <time>2025-06-12T07:08:12Z</time>
      </trkpt>
      <trkpt lat="44.58216" lon="6.10572">
        <ele>841.2</ele>
        <time>2025-06-12T07:08:13Z</time>
      </trkpt>
      <trkpt lat="44.58216" lon="6.10576">
        <ele>841.4</ele>
        <time>2025-06-12T07:08:14Z</time>
      </trkpt>
      <trkpt lat="44.58216" lon="6.1058">
        <ele>841.4</ele>
        <time>2025-06-12T07:08:15Z</time>
      </trkpt>
      <trkpt lat="44.58216" lon="6.10589">
        <ele>841.6</ele>
        <time>2025-06-12T07:08:17Z</time>
      </trkpt>
      <trkpt lat="44.58215" lon="6.10598">
        <ele>842</ele>
        <time>2025-06-12T07:08:19Z</time>
      </trkpt>
      <trkpt lat="44.58214" lon="6.10601">
        <ele>842.2</ele>
        <time>2025-06-12T07:08:20Z</time>
      </trkpt>
      <trkpt lat="44.58213" lon="6.10605">
        <ele>842.4</ele>
        <time>2025-06-12T07:08:21Z</time>
      </trkpt>
      <trkpt lat="44.58212" lon="6.10609">
        <ele>842.6</ele>
        <time>2025-06-12T07:08:22Z</time>
      </trkpt>
      <trkpt lat="44.58211" lon="6.10613">
        <ele>842.8</ele>
        <time>2025-06-12T07:08:23Z</time>
      </trkpt>
      <trkpt lat="44.58211" lon="6.10616">
        <ele>842.8</ele>
        <time>2025-06-12T07:08:24Z</time>
      </trkpt>
      <trkpt lat="44.58211" lon="6.1062">
        <ele>843</ele>
        <time>2025-06-12T07:08:25Z</time>
      </trkpt>
      <trkpt lat="44.58211" lon="6.10624">
        <ele>843</ele>
        <time>2025-06-12T07:08:26Z</time>
      </trkpt>
      <trkpt lat="44.5821" lon="6.10631">
        <ele>843.6</ele>
        <time>2025-06-12T07:08:28Z</time>
      </trkpt>
      <trkpt lat="44.5821" lon="6.10635">
        <ele>843.8</ele>
        <time>2025-06-12T07:08:29Z</time>
      </trkpt>
      <trkpt lat="44.58211" lon="6.10639">
        <ele>844</ele>
        <time>2025-06-12T07:08:30Z</time>
      </trkpt>
      <trkpt lat="44.58212" lon="6.10643">
        <ele>844</ele>
        <time>2025-06-12T07:08:31Z</time>
      </trkpt>
      <trkpt lat="44.58212" lon="6.1065">
        <ele>844.4</ele>
        <time>2025-06-12T07:08:33Z</time>
      </trkpt>
      <trkpt lat="44.58211" lon="6.10658">
        <ele>844.4</ele>
        <time>2025-06-12T07:08:35Z</time>
      </trkpt>
      <trkpt lat="44.58211" lon="6.10661">
        <ele>844.6</ele>
        <time>2025-06-12T07:08:36Z</time>
      </trkpt>
      <trkpt lat="44.58212" lon="6.10665">
        <ele>845</ele>
        <time>2025-06-12T07:08:37Z</time>
      </trkpt>
      <trkpt lat="44.58214" lon="6.10669">
        <ele>845.2</ele>
        <time>2025-06-12T07:08:38Z</time>
      </trkpt>
      <trkpt lat="44.58215" lon="6.10673">
        <ele>845.4</ele>
        <time>2025-06-12T07:08:39Z</time>
      </trkpt>
      <trkpt lat="44.58215" lon="6.10677">
        <ele>845.6</ele>
        <time>2025-06-12T07:08:40Z</time>
      </trkpt>
      <trkpt lat="44.58215" lon="6.1068">
        <ele>846</ele>
        <time>2025-06-12T07:08:41Z</time>
      </trkpt>
      <trkpt lat="44.58216" lon="6.10684">
        <ele>846</ele>
        <time>2025-06-12T07:08:42Z</time>
      </trkpt>
      <trkpt lat="44.58217" lon="6.10693">
        <ele>846.6</ele>
        <time>2025-06-12T07:08:44Z</time>
      </trkpt>
      <trkpt lat="44.58218" lon="6.10697">
        <ele>846.8</ele>
        <time>2025-06-12T07:08:45Z</time>
      </trkpt>
      <trkpt lat="44.58219" lon="6.10701">
        <ele>847</ele>
        <time>2025-06-12T07:08:46Z</time>
      </trkpt>
      <trkpt lat="44.58222" lon="6.1071">
        <ele>847.4</ele>
        <time>2025-06-12T07:08:48Z</time>
      </trkpt>
      <trkpt lat="44.58225" lon="6.10714">
        <ele>847.6</ele>
        <time>2025-06-12T07:08:49Z</time>
      </trkpt>
      <trkpt lat="44.58226" lon="6.10718">
        <ele>847.6</ele>
        <time>2025-06-12T07:08:50Z</time>
      </trkpt>
      <trkpt lat="44.58228" lon="6.10722">
        <ele>847.6</ele>
        <time>2025-06-12T07:08:51Z</time>
      </trkpt>
      <trkpt lat="44.58231" lon="6.1073">
        <ele>847.6</ele>
        <time>2025-06-12T07:08:53Z</time>
      </trkpt>
      <trkpt lat="44.58233" lon="6.10738">
        <ele>847.8</ele>
        <time>2025-06-12T07:08:55Z</time>
      </trkpt>
      <trkpt lat="44.58236" lon="6.10745">
        <ele>847.8</ele>
        <time>2025-06-12T07:08:57Z</time>
      </trkpt>
      <trkpt lat="44.58237" lon="6.10749">
        <ele>848</ele>
        <time>2025-06-12T07:08:58Z</time>
      </trkpt>
      <trkpt lat="44.58239" lon="6.10753">
        <ele>848</ele>
        <time>2025-06-12T07:08:59Z</time>
      </trkpt>
      <trkpt lat="44.58241" lon="6.10756">
        <ele>848.2</ele>
        <time>2025-06-12T07:09:00Z</time>
      </trkpt>
      <trkpt lat="44.58242" lon="6.10759">
        <ele>848.4</ele>
        <time>2025-06-12T07:09:01Z</time>
      </trkpt>
      <trkpt lat="44.58243" lon="6.10763">
        <ele>848.8</ele>
        <time>2025-06-12T07:09:02Z</time>
      </trkpt>
      <trkpt lat="44.58245" lon="6.10766">
        <ele>848.8</ele>
        <time>2025-06-12T07:09:03Z</time>
      </trkpt>
      <trkpt lat="44.58246" lon="6.10769">
        <ele>849</ele>
        <time>2025-06-12T07:09:04Z</time>
      </trkpt>
      <trkpt lat="44.58249" lon="6.10775">
        <ele>849.8</ele>
        <time>2025-06-12T07:09:06Z</time>
      </trkpt>
      <trkpt lat="44.58251" lon="6.10777">
        <ele>850</ele>
        <time>2025-06-12T07:09:07Z</time>
      </trkpt>
      <trkpt lat="44.58252" lon="6.1078">
        <ele>850.2</ele>
        <time>2025-06-12T07:09:08Z</time>
      </trkpt>
      <trkpt lat="44.58254" lon="6.10783">
        <ele>850.4</ele>
        <time>2025-06-12T07:09:09Z</time>
      </trkpt>
      <trkpt lat="44.58256" lon="6.10785">
        <ele>850.8</ele>
        <time>2025-06-12T07:09:10Z</time>
      </trkpt>
      <trkpt lat="44.58258" lon="6.10788">
        <ele>851</ele>
        <time>2025-06-12T07:09:11Z</time>
      </trkpt>
      <trkpt lat="44.5826" lon="6.1079">
        <ele>851.2</ele>
        <time>2025-06-12T07:09:12Z</time>
      </trkpt>
      <trkpt lat="44.58262" lon="6.10792">
        <ele>851.6</ele>
        <time>2025-06-12T07:09:13Z</time>
      </trkpt>
      <trkpt lat="44.58264" lon="6.10794">
        <ele>851.8</ele>
        <time>2025-06-12T07:09:14Z</time>
      </trkpt>
      <trkpt lat="44.58266" lon="6.10796">
        <ele>852</ele>
        <time>2025-06-12T07:09:15Z</time>
      </trkpt>
      <trkpt lat="44.58268" lon="6.10798">
        <ele>852.2</ele>
        <time>2025-06-12T07:09:16Z</time>
      </trkpt>
      <trkpt lat="44.5827" lon="6.108">
        <ele>852.6</ele>
        <time>2025-06-12T07:09:17Z</time>
      </trkpt>
      <trkpt lat="44.58272" lon="6.10802">
        <ele>852.8</ele>
        <time>2025-06-12T07:09:18Z</time>
      </trkpt>
      <trkpt lat="44.58274" lon="6.10803">
        <ele>853.2</ele>
        <time>2025-06-12T07:09:19Z</time>
      </trkpt>
      <trkpt lat="44.58275" lon="6.10805">
        <ele>853.4</ele>
        <time>2025-06-12T07:09:20Z</time>
      </trkpt>
      <trkpt lat="44.58277" lon="6.10807">
        <ele>853.6</ele>
        <time>2025-06-12T07:09:21Z</time>
      </trkpt>
      <trkpt lat="44.58281" lon="6.10811">
        <ele>854.4</ele>
        <time>2025-06-12T07:09:23Z</time>
      </trkpt>
      <trkpt lat="44.58283" lon="6.10813">
        <ele>854.6</ele>
        <time>2025-06-12T07:09:24Z</time>
      </trkpt>
      <trkpt lat="44.58284" lon="6.10816">
        <ele>854.8</ele>
        <time>2025-06-12T07:09:25Z</time>
      </trkpt>
      <trkpt lat="44.58286" lon="6.10819">
        <ele>855.2</ele>
        <time>2025-06-12T07:09:26Z</time>
      </trkpt>
      <trkpt lat="44.58288" lon="6.10821">
        <ele>855.6</ele>
        <time>2025-06-12T07:09:27Z</time>
      </trkpt>
      <trkpt lat="44.58289" lon="6.10824">
        <ele>855.8</ele>
        <time>2025-06-12T07:09:28Z</time>
      </trkpt>
      <trkpt lat="44.58291" lon="6.10827">
        <ele>856</ele>
        <time>2025-06-12T07:09:29Z</time>
      </trkpt>
      <trkpt lat="44.58293" lon="6.10831">
        <ele>856.2</ele>
        <time>2025-06-12T07:09:30Z</time>
      </trkpt>
      <trkpt lat="44.58293" lon="6.10838">
        <ele>856.6</ele>
        <time>2025-06-12T07:09:32Z</time>
      </trkpt>
      <trkpt lat="44.58292" lon="6.10845">
        <ele>857</ele>
        <time>2025-06-12T07:09:34Z</time>
      </trkpt>
      <trkpt lat="44.58292" lon="6.10848">
        <ele>857.2</ele>
        <time>2025-06-12T07:09:35Z</time>
      </trkpt>
      <trkpt lat="44.58292" lon="6.10851">
        <ele>857.4</ele>
        <time>2025-06-12T07:09:36Z</time>
      </trkpt>
      <trkpt lat="44.58291" lon="6.10855">
        <ele>857.6</ele>
        <time>2025-06-12T07:09:37Z</time>
      </trkpt>
      <trkpt lat="44.5829" lon="6.10861">
        <ele>857.8</ele>
        <time>2025-06-12T07:09:39Z</time>
      </trkpt>
      <trkpt lat="44.5829" lon="6.10865">
        <ele>858</ele>
        <time>2025-06-12T07:09:40Z</time>
      </trkpt>
      <trkpt lat="44.58289" lon="6.10868">
        <ele>858.4</ele>
        <time>2025-06-12T07:09:41Z</time>
      </trkpt>
      <trkpt lat="44.58289" lon="6.10872">
        <ele>858.6</ele>
        <time>2025-06-12T07:09:42Z</time>
      </trkpt>
      <trkpt lat="44.58289" lon="6.10876">
        <ele>858.8</ele>
        <time>2025-06-12T07:09:43Z</time>
      </trkpt>
      <trkpt lat="44.58289" lon="6.10879">
        <ele>859</ele>
        <time>2025-06-12T07:09:44Z</time>
      </trkpt>
      <trkpt lat="44.5829" lon="6.10883">
        <ele>859.2</ele>
        <time>2025-06-12T07:09:45Z</time>
      </trkpt>
      <trkpt lat="44.5829" lon="6.10886">
        <ele>859.6</ele>
        <time>2025-06-12T07:09:46Z</time>
      </trkpt>
      <trkpt lat="44.58291" lon="6.1089">
        <ele>859.8</ele>
        <time>2025-06-12T07:09:47Z</time>
      </trkpt>
      <trkpt lat="44.58291" lon="6.10893">
        <ele>859.8</ele>
        <time>2025-06-12T07:09:48Z</time>
      </trkpt>
      <trkpt lat="44.58292" lon="6.10897">
        <ele>860</ele>
        <time>2025-06-12T07:09:49Z</time>
      </trkpt>
      <trkpt lat="44.58293" lon="6.10901">
        <ele>860.4</ele>
        <time>2025-06-12T07:09:50Z</time>
      </trkpt>
      <trkpt lat="44.58294" lon="6.10908">
        <ele>860.8</ele>
        <time>2025-06-12T07:09:52Z</time>
      </trkpt>
      <trkpt lat="44.58294" lon="6.10911">
        <ele>861.2</ele>
        <time>2025-06-12T07:09:53Z</time>
      </trkpt>
      <trkpt lat="44.58294" lon="6.10915">
        <ele>861.4</ele>
        <time>2025-06-12T07:09:54Z</time>
      </trkpt>
      <trkpt lat="44.58295" lon="6.10922">
        <ele>862</ele>
        <time>2025-06-12T07:09:56Z</time>
      </trkpt>
      <trkpt lat="44.58296" lon="6.10929">
        <ele>862.4</ele>
        <time>2025-06-12T07:09:58Z</time>
      </trkpt>
      <trkpt lat="44.58297" lon="6.10933">
        <ele>862.6</ele>
        <time>2025-06-12T07:09:59Z</time>
      </trkpt>
      <trkpt lat="44.58297" lon="6.10936">
        <ele>862.8</ele>
        <time>2025-06-12T07:10:00Z</time>
      </trkpt>
      <trkpt lat="44.58298" lon="6.1094">
        <ele>863</ele>
        <time>2025-06-12T07:10:01Z</time>
      </trkpt>
      <trkpt lat="44.58298" lon="6.10944">
        <ele>863.2</ele>
        <time>2025-06-12T07:10:02Z</time>
      </trkpt>
      <trkpt lat="44.58299" lon="6.10947">
        <ele>863.4</ele>
        <time>2025-06-12T07:10:03Z</time>
      </trkpt>
      <trkpt lat="44.58299" lon="6.10954">
        <ele>863.8</ele>
        <time>2025-06-12T07:10:05Z</time>
      </trkpt>
      <trkpt lat="44.58301" lon="6.10961">
        <ele>864.2</ele>
        <time>2025-06-12T07:10:07Z</time>
      </trkpt>
      <trkpt lat="44.58301" lon="6.10965">
        <ele>864.4</ele>
        <time>2025-06-12T07:10:08Z</time>
      </trkpt>
      <trkpt lat="44.58301" lon="6.10968">
        <ele>864.6</ele>
        <time>2025-06-12T07:10:09Z</time>
      </trkpt>
      <trkpt lat="44.58302" lon="6.10972">
        <ele>864.6</ele>
        <time>2025-06-12T07:10:10Z</time>
      </trkpt>
      <trkpt lat="44.58302" lon="6.10975">
        <ele>864.8</ele>
        <time>2025-06-12T07:10:11Z</time>
      </trkpt>
      <trkpt lat="44.58303" lon="6.10979">
        <ele>865</ele>
        <time>2025-06-12T07:10:12Z</time>
      </trkpt>
      <trkpt lat="44.58303" lon="6.10983">
        <ele>865.2</ele>
        <time>2025-06-12T07:10:13Z</time>
      </trkpt>
      <trkpt lat="44.58304" lon="6.10986">
        <ele>865.6</ele>
        <time>2025-06-12T07:10:14Z</time>
      </trkpt>
      <trkpt lat="44.58304" lon="6.10993">
        <ele>866</ele>
        <time>2025-06-12T07:10:16Z</time>
      </trkpt>
      <trkpt lat="44.58305" lon="6.10997">
        <ele>866.2</ele>
        <time>2025-06-12T07:10:17Z</time>
      </trkpt>
      <trkpt lat="44.58305" lon="6.11">
        <ele>866.4</ele>
        <time>2025-06-12T07:10:18Z</time>
      </trkpt>
      <trkpt lat="44.58306" lon="6.11004">
        <ele>866.6</ele>
        <time>2025-06-12T07:10:19Z</time>
      </trkpt>
      <trkpt lat="44.58306" lon="6.11007">
        <ele>866.8</ele>
        <time>2025-06-12T07:10:20Z</time>
      </trkpt>
      <trkpt lat="44.58307" lon="6.1101">
        <ele>867.2</ele>
        <time>2025-06-12T07:10:21Z</time>
      </trkpt>
      <trkpt lat="44.58307" lon="6.11014">
        <ele>867.4</ele>
        <time>2025-06-12T07:10:22Z</time>
      </trkpt>
      <trkpt lat="44.58308" lon="6.11017">
        <ele>867.6</ele>
        <time>2025-06-12T07:10:23Z</time>
      </trkpt>
      <trkpt lat="44.58308" lon="6.11021">
        <ele>867.6</ele>
        <time>2025-06-12T07:10:24Z</time>
      </trkpt>
      <trkpt lat="44.58309" lon="6.11024">
        <ele>867.8</ele>
        <time>2025-06-12T07:10:25Z</time>
      </trkpt>
      <trkpt lat="44.5831" lon="6.11031">
        <ele>868.2</ele>
        <time>2025-06-12T07:10:27Z</time>
      </trkpt>
      <trkpt lat="44.58311" lon="6.11035">
        <ele>868.4</ele>
        <time>2025-06-12T07:10:28Z</time>
      </trkpt>
      <trkpt lat="44.58312" lon="6.11041">
        <ele>869</ele>
        <time>2025-06-12T07:10:30Z</time>
      </trkpt>
      <trkpt lat="44.58313" lon="6.11048">
        <ele>869.4</ele>
        <time>2025-06-12T07:10:32Z</time>
      </trkpt>
      <trkpt lat="44.58314" lon="6.11052">
        <ele>869.6</ele>
        <time>2025-06-12T07:10:33Z</time>
      </trkpt>
      <trkpt lat="44.58315" lon="6.11055">
        <ele>869.8</ele>
        <time>2025-06-12T07:10:34Z</time>
      </trkpt>
      <trkpt lat="44.58315" lon="6.11059">
        <ele>870</ele>
        <time>2025-06-12T07:10:35Z</time>
      </trkpt>
      <trkpt lat="44.58317" lon="6.11065">
        <ele>870.4</ele>
        <time>2025-06-12T07:10:37Z</time>
      </trkpt>
      <trkpt lat="44.58317" lon="6.11069">
        <ele>870.6</ele>
        <time>2025-06-12T07:10:38Z</time>
      </trkpt>
      <trkpt lat="44.58318" lon="6.11072">
        <ele>870.8</ele>
        <time>2025-06-12T07:10:39Z</time>
      </trkpt>
      <trkpt lat="44.58319" lon="6.11075">
        <ele>870.8</ele>
        <time>2025-06-12T07:10:40Z</time>
      </trkpt>
      <trkpt lat="44.58321" lon="6.11082">
        <ele>871.2</ele>
        <time>2025-06-12T07:10:42Z</time>
      </trkpt>
      <trkpt lat="44.58321" lon="6.11085">
        <ele>871.4</ele>
        <time>2025-06-12T07:10:43Z</time>
      </trkpt>
      <trkpt lat="44.58322" lon="6.11088">
        <ele>871.6</ele>
        <time>2025-06-12T07:10:44Z</time>
      </trkpt>
      <trkpt lat="44.58323" lon="6.11091">
        <ele>872</ele>
        <time>2025-06-12T07:10:45Z</time>
      </trkpt>
      <trkpt lat="44.58324" lon="6.11094">
        <ele>872.4</ele>
        <time>2025-06-12T07:10:46Z</time>
      </trkpt>
      <trkpt lat="44.58325" lon="6.11097">
        <ele>872.6</ele>
        <time>2025-06-12T07:10:47Z</time>
      </trkpt>
      <trkpt lat="44.58326" lon="6.111">
        <ele>872.8</ele>
        <time>2025-06-12T07:10:48Z</time>
      </trkpt>
      <trkpt lat="44.58326" lon="6.11103">
        <ele>872.8</ele>
        <time>2025-06-12T07:10:49Z</time>
      </trkpt>
      <trkpt lat="44.58327" lon="6.11107">
        <ele>873</ele>
        <time>2025-06-12T07:10:50Z</time>
      </trkpt>
      <trkpt lat="44.58329" lon="6.11113">
        <ele>873.6</ele>
        <time>2025-06-12T07:10:52Z</time>
      </trkpt>
      <trkpt lat="44.58331" lon="6.1112">
        <ele>874</ele>
        <time>2025-06-12T07:10:54Z</time>
      </trkpt>
      <trkpt lat="44.58332" lon="6.11123">
        <ele>874.2</ele>
        <time>2025-06-12T07:10:55Z</time>
      </trkpt>
      <trkpt lat="44.58333" lon="6.11126">
        <ele>874.4</ele>
        <time>2025-06-12T07:10:56Z</time>
      </trkpt>
      <trkpt lat="44.58334" lon="6.11129">
        <ele>874.6</ele>
        <time>2025-06-12T07:10:57Z</time>
      </trkpt>
      <trkpt lat="44.58336" lon="6.11135">
        <ele>875</ele>
        <time>2025-06-12T07:10:59Z</time>
      </trkpt>
      <trkpt lat="44.58338" lon="6.11141">
        <ele>875.6</ele>
        <time>2025-06-12T07:11:01Z</time>
      </trkpt>
      <trkpt lat="44.58339" lon="6.11144">
        <ele>875.6</ele>
        <time>2025-06-12T07:11:02Z</time>
      </trkpt>
      <trkpt lat="44.5834" lon="6.11147">
        <ele>876</ele>
        <time>2025-06-12T07:11:03Z</time>
      </trkpt>
      <trkpt lat="44.58341" lon="6.1115">
        <ele>876.2</ele>
        <time>2025-06-12T07:11:04Z</time>
      </trkpt>
      <trkpt lat="44.58342" lon="6.11153">
        <ele>876.4</ele>
        <time>2025-06-12T07:11:05Z</time>
      </trkpt>
      <trkpt lat="44.58343" lon="6.11156">
        <ele>876.8</ele>
        <time>2025-06-12T07:11:06Z</time>
      </trkpt>
      <trkpt lat="44.58344" lon="6.11159">
        <ele>877</ele>
        <time>2025-06-12T07:11:07Z</time>
      </trkpt>
      <trkpt lat="44.58345" lon="6.11162">
        <ele>877.2</ele>
        <time>2025-06-12T07:11:08Z</time>
      </trkpt>
      <trkpt lat="44.58346" lon="6.11165">
        <ele>877.4</ele>
        <time>2025-06-12T07:11:09Z</time>
      </trkpt>
      <trkpt lat="44.58347" lon="6.11168">
        <ele>877.6</ele>
        <time>2025-06-12T07:11:10Z</time>
      </trkpt>
      <trkpt lat="44.58349" lon="6.11171">
        <ele>877.8</ele>
        <time>2025-06-12T07:11:11Z</time>
      </trkpt>
      <trkpt lat="44.5835" lon="6.11174">
        <ele>878</ele>
        <time>2025-06-12T07:11:12Z</time>
      </trkpt>
      <trkpt lat="44.58352" lon="6.1118">
        <ele>878.6</ele>
        <time>2025-06-12T07:11:14Z</time>
      </trkpt>
      <trkpt lat="44.58353" lon="6.11183">
        <ele>878.8</ele>
        <time>2025-06-12T07:11:15Z</time>
      </trkpt>
      <trkpt lat="44.58354" lon="6.11187">
        <ele>879</ele>
        <time>2025-06-12T07:11:16Z</time>
      </trkpt>
      <trkpt lat="44.58355" lon="6.1119">
        <ele>879.2</ele>
        <time>2025-06-12T07:11:17Z</time>
      </trkpt>
      <trkpt lat="44.58357" lon="6.11193">
        <ele>879.4</ele>
        <time>2025-06-12T07:11:18Z</time>
      </trkpt>
      <trkpt lat="44.58358" lon="6.11196">
        <ele>879.6</ele>
        <time>2025-06-12T07:11:19Z</time>
      </trkpt>
      <trkpt lat="44.5836" lon="6.11202">
        <ele>879.8</ele>
        <time>2025-06-12T07:11:21Z</time>
      </trkpt>
      <trkpt lat="44.58362" lon="6.11205">
        <ele>880</ele>
        <time>2025-06-12T07:11:22Z</time>
      </trkpt>
      <trkpt lat="44.58363" lon="6.11208">
        <ele>880.2</ele>
        <time>2025-06-12T07:11:23Z</time>
      </trkpt>
      <trkpt lat="44.58365" lon="6.11211">
        <ele>880.4</ele>
        <time>2025-06-12T07:11:24Z</time>
      </trkpt>
      <trkpt lat="44.58366" lon="6.11215">
        <ele>880.6</ele>
        <time>2025-06-12T07:11:25Z</time>
      </trkpt>
      <trkpt lat="44.58367" lon="6.11218">
        <ele>880.6</ele>
        <time>2025-06-12T07:11:26Z</time>
      </trkpt>
      <trkpt lat="44.58368" lon="6.11221">
        <ele>880.8</ele>
        <time>2025-06-12T07:11:27Z</time>
      </trkpt>
      <trkpt lat="44.5837" lon="6.11224">
        <ele>881</ele>
        <time>2025-06-12T07:11:28Z</time>
      </trkpt>
      <trkpt lat="44.58371" lon="6.11227">
        <ele>881.2</ele>
        <time>2025-06-12T07:11:29Z</time>
      </trkpt>
      <trkpt lat="44.58372" lon="6.1123">
        <ele>881.2</ele>
        <time>2025-06-12T07:11:30Z</time>
      </trkpt>
      <trkpt lat="44.58375" lon="6.11236">
        <ele>881.6</ele>
        <time>2025-06-12T07:11:32Z</time>
      </trkpt>
      <trkpt lat="44.58378" lon="6.11242">
        <ele>882</ele>
        <time>2025-06-12T07:11:34Z</time>
      </trkpt>
      <trkpt lat="44.58379" lon="6.11245">
        <ele>882.2</ele>
        <time>2025-06-12T07:11:35Z</time>
      </trkpt>
      <trkpt lat="44.5838" lon="6.11248">
        <ele>882.4</ele>
        <time>2025-06-12T07:11:36Z</time>
      </trkpt>
      <trkpt lat="44.58381" lon="6.11251">
        <ele>882.6</ele>
        <time>2025-06-12T07:11:37Z</time>
      </trkpt>
      <trkpt lat="44.58382" lon="6.11254">
        <ele>882.8</ele>
        <time>2025-06-12T07:11:38Z</time>
      </trkpt>
      <trkpt lat="44.58384" lon="6.11257">
        <ele>883</ele>
        <time>2025-06-12T07:11:39Z</time>
      </trkpt>
      <trkpt lat="44.58385" lon="6.1126">
        <ele>883.6</ele>
        <time>2025-06-12T07:11:40Z</time>
      </trkpt>
      <trkpt lat="44.58386" lon="6.11263">
        <ele>884</ele>
        <time>2025-06-12T07:11:41Z</time>
      </trkpt>
      <trkpt lat="44.58388" lon="6.11265">
        <ele>884.2</ele>
        <time>2025-06-12T07:11:42Z</time>
      </trkpt>
      <trkpt lat="44.58389" lon="6.11268">
        <ele>884.4</ele>
        <time>2025-06-12T07:11:43Z</time>
      </trkpt>
      <trkpt lat="44.5839" lon="6.11271">
        <ele>884.8</ele>
        <time>2025-06-12T07:11:44Z</time>
      </trkpt>
      <trkpt lat="44.58392" lon="6.11274">
        <ele>885</ele>
        <time>2025-06-12T07:11:45Z</time>
      </trkpt>
      <trkpt lat="44.58395" lon="6.11279">
        <ele>885.4</ele>
        <time>2025-06-12T07:11:47Z</time>
      </trkpt>
      <trkpt lat="44.58399" lon="6.11284">
        <ele>886</ele>
        <time>2025-06-12T07:11:49Z</time>
      </trkpt>
      <trkpt lat="44.584" lon="6.11287">
        <ele>886.2</ele>
        <time>2025-06-12T07:11:50Z</time>
      </trkpt>
      <trkpt lat="44.58402" lon="6.1129">
        <ele>886.4</ele>
        <time>2025-06-12T07:11:51Z</time>
      </trkpt>
      <trkpt lat="44.58403" lon="6.11293">
        <ele>886.8</ele>
        <time>2025-06-12T07:11:52Z</time>
      </trkpt>
      <trkpt lat="44.58405" lon="6.11296">
        <ele>887</ele>
        <time>2025-06-12T07:11:53Z</time>
      </trkpt>
      <trkpt lat="44.58406" lon="6.11298">
        <ele>887.2</ele>
        <time>2025-06-12T07:11:54Z</time>
      </trkpt>
      <trkpt lat="44.58408" lon="6.11301">
        <ele>887.6</ele>
        <time>2025-06-12T07:11:55Z</time>
      </trkpt>
      <trkpt lat="44.5841" lon="6.11303">
        <ele>887.8</ele>
        <time>2025-06-12T07:11:56Z</time>
      </trkpt>
      <trkpt lat="44.58413" lon="6.11309">
        <ele>888.2</ele>
        <time>2025-06-12T07:11:58Z</time>
      </trkpt>
      <trkpt lat="44.58416" lon="6.11315">
        <ele>888.6</ele>
        <time>2025-06-12T07:12:00Z</time>
      </trkpt>
      <trkpt lat="44.58418" lon="6.11318">
        <ele>888.8</ele>
        <time>2025-06-12T07:12:01Z</time>
      </trkpt>
      <trkpt lat="44.58419" lon="6.11321">
        <ele>888.8</ele>
        <time>2025-06-12T07:12:02Z</time>
      </trkpt>
      <trkpt lat="44.5842" lon="6.11324">
        <ele>889</ele>
        <time>2025-06-12T07:12:03Z</time>
      </trkpt>
      <trkpt lat="44.58422" lon="6.11327">
        <ele>889.2</ele>
        <time>2025-06-12T07:12:04Z</time>
      </trkpt>
      <trkpt lat="44.58423" lon="6.1133">
        <ele>889.4</ele>
        <time>2025-06-12T07:12:05Z</time>
      </trkpt>
      <trkpt lat="44.58424" lon="6.11333">
        <ele>889.4</ele>
        <time>2025-06-12T07:12:06Z</time>
      </trkpt>
      <trkpt lat="44.58425" lon="6.11336">
        <ele>889.6</ele>
        <time>2025-06-12T07:12:07Z</time>
      </trkpt>
      <trkpt lat="44.58427" lon="6.11342">
        <ele>890.2</ele>
        <time>2025-06-12T07:12:09Z</time>
      </trkpt>
      <trkpt lat="44.58427" lon="6.11345">
        <ele>890.2</ele>
        <time>2025-06-12T07:12:10Z</time>
      </trkpt>
      <trkpt lat="44.58428" lon="6.11349">
        <ele>890.4</ele>
        <time>2025-06-12T07:12:11Z</time>
      </trkpt>
      <trkpt lat="44.58429" lon="6.11352">
        <ele>890.4</ele>
        <time>2025-06-12T07:12:12Z</time>
      </trkpt>
      <trkpt lat="44.5843" lon="6.11355">
        <ele>890.6</ele>
        <time>2025-06-12T07:12:13Z</time>
      </trkpt>
      <trkpt lat="44.58431" lon="6.11358">
        <ele>890.6</ele>
        <time>2025-06-12T07:12:14Z</time>
      </trkpt>
      <trkpt lat="44.58433" lon="6.11365">
        <ele>890.8</ele>
        <time>2025-06-12T07:12:16Z</time>
      </trkpt>
      <trkpt lat="44.58434" lon="6.11368">
        <ele>891</ele>
        <time>2025-06-12T07:12:17Z</time>
      </trkpt>
      <trkpt lat="44.58435" lon="6.11371">
        <ele>891</ele>
        <time>2025-06-12T07:12:18Z</time>
      </trkpt>
      <trkpt lat="44.58436" lon="6.11374">
        <ele>891.2</ele>
        <time>2025-06-12T07:12:19Z</time>
      </trkpt>
      <trkpt lat="44.58437" lon="6.11377">
        <ele>891.2</ele>
        <time>2025-06-12T07:12:20Z</time>
      </trkpt>
      <trkpt lat="44.58438" lon="6.11381">
        <ele>891.4</ele>
        <time>2025-06-12T07:12:21Z</time>
      </trkpt>
      <trkpt lat="44.58441" lon="6.11387">
        <ele>891.6</ele>
        <time>2025-06-12T07:12:23Z</time>
      </trkpt>
      <trkpt lat="44.58443" lon="6.11391">
        <ele>891.6</ele>
        <time>2025-06-12T07:12:24Z</time>
      </trkpt>
      <trkpt lat="44.58444" lon="6.11394">
        <ele>891.8</ele>
        <time>2025-06-12T07:12:25Z</time>
      </trkpt>
      <trkpt lat="44.58446" lon="6.11397">
        <ele>891.8</ele>
        <time>2025-06-12T07:12:26Z</time>
      </trkpt>
      <trkpt lat="44.58447" lon="6.114">
        <ele>892</ele>
        <time>2025-06-12T07:12:27Z</time>
      </trkpt>
      <trkpt lat="44.58449" lon="6.11403">
        <ele>892.2</ele>
        <time>2025-06-12T07:12:28Z</time>
      </trkpt>
      <trkpt lat="44.58451" lon="6.1141">
        <ele>892.4</ele>
        <time>2025-06-12T07:12:30Z</time>
      </trkpt>
      <trkpt lat="44.58453" lon="6.11414">
        <ele>892.6</ele>
        <time>2025-06-12T07:12:31Z</time>
      </trkpt>
      <trkpt lat="44.58454" lon="6.11417">
        <ele>892.8</ele>
        <time>2025-06-12T07:12:32Z</time>
      </trkpt>
      <trkpt lat="44.58455" lon="6.1142">
        <ele>893</ele>
        <time>2025-06-12T07:12:33Z</time>
      </trkpt>
      <trkpt lat="44.58456" lon="6.11423">
        <ele>893.2</ele>
        <time>2025-06-12T07:12:34Z</time>
      </trkpt>
      <trkpt lat="44.58457" lon="6.11426">
        <ele>893.2</ele>
        <time>2025-06-12T07:12:35Z</time>
      </trkpt>
      <trkpt lat="44.58458" lon="6.1143">
        <ele>893.6</ele>
        <time>2025-06-12T07:12:36Z</time>
      </trkpt>
      <trkpt lat="44.58459" lon="6.11433">
        <ele>893.6</ele>
        <time>2025-06-12T07:12:37Z</time>
      </trkpt>
      <trkpt lat="44.58462" lon="6.11439">
        <ele>894</ele>
        <time>2025-06-12T07:12:39Z</time>
      </trkpt>
      <trkpt lat="44.58463" lon="6.11442">
        <ele>894.2</ele>
        <time>2025-06-12T07:12:40Z</time>
      </trkpt>
      <trkpt lat="44.58465" lon="6.11445">
        <ele>894.4</ele>
        <time>2025-06-12T07:12:41Z</time>
      </trkpt>
      <trkpt lat="44.58467" lon="6.11451">
        <ele>894.6</ele>
        <time>2025-06-12T07:12:43Z</time>
      </trkpt>
      <trkpt lat="44.58468" lon="6.11454">
        <ele>894.8</ele>
        <time>2025-06-12T07:12:44Z</time>
      </trkpt>
      <trkpt lat="44.5847" lon="6.11457">
        <ele>895</ele>
        <time>2025-06-12T07:12:45Z</time>
      </trkpt>
      <trkpt lat="44.58471" lon="6.1146">
        <ele>895.2</ele>
        <time>2025-06-12T07:12:46Z</time>
      </trkpt>
      <trkpt lat="44.58473" lon="6.11463">
        <ele>895.4</ele>
        <time>2025-06-12T07:12:47Z</time>
      </trkpt>
      <trkpt lat="44.58474" lon="6.11466">
        <ele>895.6</ele>
        <time>2025-06-12T07:12:48Z</time>
      </trkpt>
      <trkpt lat="44.58476" lon="6.11469">
        <ele>895.8</ele>
        <time>2025-06-12T07:12:49Z</time>
      </trkpt>
      <trkpt lat="44.58477" lon="6.11473">
        <ele>896.2</ele>
        <time>2025-06-12T07:12:50Z</time>
      </trkpt>
      <trkpt lat="44.5848" lon="6.11479">
        <ele>896.4</ele>
        <time>2025-06-12T07:12:52Z</time>
      </trkpt>
      <trkpt lat="44.58484" lon="6.11485">
        <ele>896.6</ele>
        <time>2025-06-12T07:12:54Z</time>
      </trkpt>
      <trkpt lat="44.58485" lon="6.11489">
        <ele>896.8</ele>
        <time>2025-06-12T07:12:55Z</time>
      </trkpt>
      <trkpt lat="44.58487" lon="6.11492">
        <ele>897</ele>
        <time>2025-06-12T07:12:56Z</time>
      </trkpt>
      <trkpt lat="44.58489" lon="6.11495">
        <ele>897</ele>
        <time>2025-06-12T07:12:57Z</time>
      </trkpt>
      <trkpt lat="44.58492" lon="6.11501">
        <ele>897.4</ele>
        <time>2025-06-12T07:12:59Z</time>
      </trkpt>
      <trkpt lat="44.58496" lon="6.11508">
        <ele>897.4</ele>
        <time>2025-06-12T07:13:01Z</time>
      </trkpt>
      <trkpt lat="44.58497" lon="6.11511">
        <ele>897.4</ele>
        <time>2025-06-12T07:13:02Z</time>
      </trkpt>
      <trkpt lat="44.58499" lon="6.11515">
        <ele>897.4</ele>
        <time>2025-06-12T07:13:03Z</time>
      </trkpt>
      <trkpt lat="44.58501" lon="6.11518">
        <ele>897.6</ele>
        <time>2025-06-12T07:13:04Z</time>
      </trkpt>
      <trkpt lat="44.58503" lon="6.11522">
        <ele>897.6</ele>
        <time>2025-06-12T07:13:05Z</time>
      </trkpt>
      <trkpt lat="44.58505" lon="6.11525">
        <ele>897.6</ele>
        <time>2025-06-12T07:13:06Z</time>
      </trkpt>
      <trkpt lat="44.58509" lon="6.11531">
        <ele>897.6</ele>
        <time>2025-06-12T07:13:08Z</time>
      </trkpt>
      <trkpt lat="44.58513" lon="6.11538">
        <ele>897.6</ele>
        <time>2025-06-12T07:13:10Z</time>
      </trkpt>
      <trkpt lat="44.58516" lon="6.11546">
        <ele>897.8</ele>
        <time>2025-06-12T07:13:12Z</time>
      </trkpt>
      <trkpt lat="44.58518" lon="6.1155">
        <ele>897.8</ele>
        <time>2025-06-12T07:13:13Z</time>
      </trkpt>
      <trkpt lat="44.58519" lon="6.11554">
        <ele>897.8</ele>
        <time>2025-06-12T07:13:14Z</time>
      </trkpt>
      <trkpt lat="44.58521" lon="6.11558">
        <ele>897.8</ele>
        <time>2025-06-12T07:13:15Z</time>
      </trkpt>
      <trkpt lat="44.58523" lon="6.11563">
        <ele>897.8</ele>
        <time>2025-06-12T07:13:16Z</time>
      </trkpt>
      <trkpt lat="44.58526" lon="6.11568">
        <ele>897.8</ele>
        <time>2025-06-12T07:13:17Z</time>
      </trkpt>
      <trkpt lat="44.5853" lon="6.11578">
        <ele>897.6</ele>
        <time>2025-06-12T07:13:19Z</time>
      </trkpt>
      <trkpt lat="44.58536" lon="6.11588">
        <ele>897.6</ele>
        <time>2025-06-12T07:13:21Z</time>
      </trkpt>
      <trkpt lat="44.58538" lon="6.11594">
        <ele>897.6</ele>
        <time>2025-06-12T07:13:22Z</time>
      </trkpt>
      <trkpt lat="44.58541" lon="6.11599">
        <ele>897.6</ele>
        <time>2025-06-12T07:13:23Z</time>
      </trkpt>
      <trkpt lat="44.58544" lon="6.11604">
        <ele>897.4</ele>
        <time>2025-06-12T07:13:24Z</time>
      </trkpt>
      <trkpt lat="44.58546" lon="6.11609">
        <ele>897.2</ele>
        <time>2025-06-12T07:13:25Z</time>
      </trkpt>
      <trkpt lat="44.58548" lon="6.11614">
        <ele>897</ele>
        <time>2025-06-12T07:13:26Z</time>
      </trkpt>
      <trkpt lat="44.58552" lon="6.11624">
        <ele>896.8</ele>
        <time>2025-06-12T07:13:28Z</time>
      </trkpt>
      <trkpt lat="44.58554" lon="6.11628">
        <ele>896.6</ele>
        <time>2025-06-12T07:13:29Z</time>
      </trkpt>
      <trkpt lat="44.58556" lon="6.11633">
        <ele>896.6</ele>
        <time>2025-06-12T07:13:30Z</time>
      </trkpt>
      <trkpt lat="44.58559" lon="6.11638">
        <ele>896.6</ele>
        <time>2025-06-12T07:13:31Z</time>
      </trkpt>
      <trkpt lat="44.58561" lon="6.11643">
        <ele>896.6</ele>
        <time>2025-06-12T07:13:32Z</time>
      </trkpt>
      <trkpt lat="44.58564" lon="6.11647">
        <ele>896.6</ele>
        <time>2025-06-12T07:13:33Z</time>
      </trkpt>
      <trkpt lat="44.58566" lon="6.11652">
        <ele>896.6</ele>
        <time>2025-06-12T07:13:34Z</time>
      </trkpt>
      <trkpt lat="44.58569" lon="6.11655">
        <ele>896.6</ele>
        <time>2025-06-12T07:13:35Z</time>
      </trkpt>
      <trkpt lat="44.58572" lon="6.11659">
        <ele>896.6</ele>
        <time>2025-06-12T07:13:36Z</time>
      </trkpt>
      <trkpt lat="44.58576" lon="6.11661">
        <ele>896.6</ele>
        <time>2025-06-12T07:13:37Z</time>
      </trkpt>
      <trkpt lat="44.58583" lon="6.11666">
        <ele>896.8</ele>
        <time>2025-06-12T07:13:39Z</time>
      </trkpt>
      <trkpt lat="44.5859" lon="6.1167">
        <ele>896.8</ele>
        <time>2025-06-12T07:13:41Z</time>
      </trkpt>
      <trkpt lat="44.58593" lon="6.11672">
        <ele>896.8</ele>
        <time>2025-06-12T07:13:42Z</time>
      </trkpt>
      <trkpt lat="44.58596" lon="6.11674">
        <ele>897</ele>
        <time>2025-06-12T07:13:43Z</time>
      </trkpt>
      <trkpt lat="44.586" lon="6.11676">
        <ele>897</ele>
        <time>2025-06-12T07:13:44Z</time>
      </trkpt>
      <trkpt lat="44.58603" lon="6.11678">
        <ele>897</ele>
        <time>2025-06-12T07:13:45Z</time>
      </trkpt>
      <trkpt lat="44.58607" lon="6.1168">
        <ele>897.2</ele>
        <time>2025-06-12T07:13:46Z</time>
      </trkpt>
      <trkpt lat="44.58614" lon="6.11685">
        <ele>897.4</ele>
        <time>2025-06-12T07:13:48Z</time>
      </trkpt>
      <trkpt lat="44.58617" lon="6.11687">
        <ele>897.4</ele>
        <time>2025-06-12T07:13:49Z</time>
      </trkpt>
      <trkpt lat="44.5862" lon="6.11689">
        <ele>897.6</ele>
        <time>2025-06-12T07:13:50Z</time>
      </trkpt>
      <trkpt lat="44.58623" lon="6.11691">
        <ele>897.6</ele>
        <time>2025-06-12T07:13:51Z</time>
      </trkpt>
      <trkpt lat="44.58626" lon="6.11694">
        <ele>897.8</ele>
        <time>2025-06-12T07:13:52Z</time>
      </trkpt>
      <trkpt lat="44.58629" lon="6.11696">
        <ele>898</ele>
        <time>2025-06-12T07:13:53Z</time>
      </trkpt>
      <trkpt lat="44.58635" lon="6.11702">
        <ele>898.4</ele>
        <time>2025-06-12T07:13:55Z</time>
      </trkpt>
      <trkpt lat="44.58641" lon="6.11707">
        <ele>898.6</ele>
        <time>2025-06-12T07:13:57Z</time>
      </trkpt>
      <trkpt lat="44.58647" lon="6.11712">
        <ele>898.8</ele>
        <time>2025-06-12T07:13:59Z</time>
      </trkpt>
      <trkpt lat="44.58649" lon="6.11715">
        <ele>899.2</ele>
        <time>2025-06-12T07:14:00Z</time>
      </trkpt>
      <trkpt lat="44.58652" lon="6.11718">
        <ele>899.4</ele>
        <time>2025-06-12T07:14:01Z</time>
      </trkpt>
      <trkpt lat="44.58654" lon="6.11721">
        <ele>899.6</ele>
        <time>2025-06-12T07:14:02Z</time>
      </trkpt>
      <trkpt lat="44.58659" lon="6.11728">
        <ele>899.8</ele>
        <time>2025-06-12T07:14:04Z</time>
      </trkpt>
      <trkpt lat="44.58661" lon="6.11731">
        <ele>900</ele>
        <time>2025-06-12T07:14:05Z</time>
      </trkpt>
      <trkpt lat="44.58663" lon="6.11734">
        <ele>900.2</ele>
        <time>2025-06-12T07:14:06Z</time>
      </trkpt>
      <trkpt lat="44.58665" lon="6.11737">
        <ele>900.6</ele>
        <time>2025-06-12T07:14:07Z</time>
      </trkpt>
      <trkpt lat="44.58667" lon="6.1174">
        <ele>900.8</ele>
        <time>2025-06-12T07:14:08Z</time>
      </trkpt>
      <trkpt lat="44.5867" lon="6.11742">
        <ele>901</ele>
        <time>2025-06-12T07:14:09Z</time>
      </trkpt>
      <trkpt lat="44.58672" lon="6.11745">
        <ele>901.2</ele>
        <time>2025-06-12T07:14:10Z</time>
      </trkpt>
      <trkpt lat="44.58674" lon="6.11747">
        <ele>901.4</ele>
        <time>2025-06-12T07:14:11Z</time>
      </trkpt>
      <trkpt lat="44.58678" lon="6.11753">
        <ele>901.6</ele>
        <time>2025-06-12T07:14:13Z</time>
      </trkpt>
      <trkpt lat="44.58681" lon="6.11755">
        <ele>901.8</ele>
        <time>2025-06-12T07:14:14Z</time>
      </trkpt>
      <trkpt lat="44.58683" lon="6.11758">
        <ele>902</ele>
        <time>2025-06-12T07:14:15Z</time>
      </trkpt>
      <trkpt lat="44.58685" lon="6.11761">
        <ele>902.2</ele>
        <time>2025-06-12T07:14:16Z</time>
      </trkpt>
      <trkpt lat="44.58687" lon="6.11763">
        <ele>902.4</ele>
        <time>2025-06-12T07:14:17Z</time>
      </trkpt>
      <trkpt lat="44.5869" lon="6.11766">
        <ele>902.6</ele>
        <time>2025-06-12T07:14:18Z</time>
      </trkpt>
      <trkpt lat="44.58695" lon="6.11771">
        <ele>903.2</ele>
        <time>2025-06-12T07:14:20Z</time>
      </trkpt>
      <trkpt lat="44.587" lon="6.11776">
        <ele>903.6</ele>
        <time>2025-06-12T07:14:22Z</time>
      </trkpt>
      <trkpt lat="44.58702" lon="6.11779">
        <ele>903.8</ele>
        <time>2025-06-12T07:14:23Z</time>
      </trkpt>
      <trkpt lat="44.58705" lon="6.11781">
        <ele>904</ele>
        <time>2025-06-12T07:14:24Z</time>
      </trkpt>
      <trkpt lat="44.58708" lon="6.11783">
        <ele>904.2</ele>
        <time>2025-06-12T07:14:25Z</time>
      </trkpt>
      <trkpt lat="44.58713" lon="6.11787">
        <ele>904.8</ele>
        <time>2025-06-12T07:14:27Z</time>
      </trkpt>
      <trkpt lat="44.58718" lon="6.11792">
        <ele>905</ele>
        <time>2025-06-12T07:14:29Z</time>
      </trkpt>
      <trkpt lat="44.58721" lon="6.11794">
        <ele>905</ele>
        <time>2025-06-12T07:14:30Z</time>
      </trkpt>
      <trkpt lat="44.58724" lon="6.11796">
        <ele>905.4</ele>
        <time>2025-06-12T07:14:31Z</time>
      </trkpt>
      <trkpt lat="44.58726" lon="6.11797">
        <ele>905.6</ele>
        <time>2025-06-12T07:14:32Z</time>
      </trkpt>
      <trkpt lat="44.58729" lon="6.11799">
        <ele>905.8</ele>
        <time>2025-06-12T07:14:33Z</time>
      </trkpt>
      <trkpt lat="44.58732" lon="6.11801">
        <ele>906</ele>
        <time>2025-06-12T07:14:34Z</time>
      </trkpt>
      <trkpt lat="44.58737" lon="6.11804">
        <ele>906.4</ele>
        <time>2025-06-12T07:14:36Z</time>
      </trkpt>
      <trkpt lat="44.5874" lon="6.11806">
        <ele>906.6</ele>
        <time>2025-06-12T07:14:37Z</time>
      </trkpt>
      <trkpt lat="44.58743" lon="6.11807">
        <ele>906.6</ele>
        <time>2025-06-12T07:14:38Z</time>
      </trkpt>
      <trkpt lat="44.58746" lon="6.11809">
        <ele>906.8</ele>
        <time>2025-06-12T07:14:39Z</time>
      </trkpt>
      <trkpt lat="44.58748" lon="6.1181">
        <ele>907</ele>
        <time>2025-06-12T07:14:40Z</time>
      </trkpt>
      <trkpt lat="44.58751" lon="6.11812">
        <ele>907.2</ele>
        <time>2025-06-12T07:14:41Z</time>
      </trkpt>
      <trkpt lat="44.58756" lon="6.11815">
        <ele>907.4</ele>
        <time>2025-06-12T07:14:43Z</time>
      </trkpt>
      <trkpt lat="44.58759" lon="6.11817">
        <ele>907.6</ele>
        <time>2025-06-12T07:14:44Z</time>
      </trkpt>
      <trkpt lat="44.58761" lon="6.11818">
        <ele>907.8</ele>
        <time>2025-06-12T07:14:45Z</time>
      </trkpt>
      <trkpt lat="44.58764" lon="6.1182">
        <ele>908</ele>
        <time>2025-06-12T07:14:46Z</time>
      </trkpt>
      <trkpt lat="44.58767" lon="6.11821">
        <ele>908.2</ele>
        <time>2025-06-12T07:14:47Z</time>
      </trkpt>
      <trkpt lat="44.58769" lon="6.11823">
        <ele>908.4</ele>
        <time>2025-06-12T07:14:48Z</time>
      </trkpt>
      <trkpt lat="44.58772" lon="6.11824">
        <ele>908.6</ele>
        <time>2025-06-12T07:14:49Z</time>
      </trkpt>
      <trkpt lat="44.58775" lon="6.11825">
        <ele>908.8</ele>
        <time>2025-06-12T07:14:50Z</time>
      </trkpt>
      <trkpt lat="44.58777" lon="6.11827">
        <ele>909</ele>
        <time>2025-06-12T07:14:51Z</time>
      </trkpt>
      <trkpt lat="44.5878" lon="6.11828">
        <ele>909.2</ele>
        <time>2025-06-12T07:14:52Z</time>
      </trkpt>
      <trkpt lat="44.58782" lon="6.1183">
        <ele>909.2</ele>
        <time>2025-06-12T07:14:53Z</time>
      </trkpt>
      <trkpt lat="44.58785" lon="6.11832">
        <ele>909.6</ele>
        <time>2025-06-12T07:14:54Z</time>
      </trkpt>
      <trkpt lat="44.5879" lon="6.11834">
        <ele>910.4</ele>
        <time>2025-06-12T07:14:56Z</time>
      </trkpt>
      <trkpt lat="44.58793" lon="6.11835">
        <ele>910.6</ele>
        <time>2025-06-12T07:14:57Z</time>
      </trkpt>
      <trkpt lat="44.58795" lon="6.11837">
        <ele>910.8</ele>
        <time>2025-06-12T07:14:58Z</time>
      </trkpt>
      <trkpt lat="44.58798" lon="6.11838">
        <ele>911</ele>
        <time>2025-06-12T07:14:59Z</time>
      </trkpt>
      <trkpt lat="44.588" lon="6.11839">
        <ele>911.2</ele>
        <time>2025-06-12T07:15:00Z</time>
      </trkpt>
      <trkpt lat="44.58803" lon="6.11841">
        <ele>911.4</ele>
        <time>2025-06-12T07:15:01Z</time>
      </trkpt>
      <trkpt lat="44.58805" lon="6.11842">
        <ele>911.4</ele>
        <time>2025-06-12T07:15:02Z</time>
      </trkpt>
      <trkpt lat="44.58807" lon="6.11844">
        <ele>911.6</ele>
        <time>2025-06-12T07:15:03Z</time>
      </trkpt>
      <trkpt lat="44.5881" lon="6.11845">
        <ele>911.8</ele>
        <time>2025-06-12T07:15:04Z</time>
      </trkpt>
      <trkpt lat="44.58812" lon="6.11846">
        <ele>912</ele>
        <time>2025-06-12T07:15:05Z</time>
      </trkpt>
      <trkpt lat="44.58818" lon="6.11848">
        <ele>912.4</ele>
        <time>2025-06-12T07:15:07Z</time>
      </trkpt>
      <trkpt lat="44.58821" lon="6.11849">
        <ele>912.6</ele>
        <time>2025-06-12T07:15:08Z</time>
      </trkpt>
      <trkpt lat="44.58824" lon="6.11849">
        <ele>913</ele>
        <time>2025-06-12T07:15:09Z</time>
      </trkpt>
      <trkpt lat="44.58829" lon="6.11851">
        <ele>913.4</ele>
        <time>2025-06-12T07:15:11Z</time>
      </trkpt>
      <trkpt lat="44.58835" lon="6.11853">
        <ele>913.6</ele>
        <time>2025-06-12T07:15:13Z</time>
      </trkpt>
      <trkpt lat="44.58841" lon="6.11855">
        <ele>914</ele>
        <time>2025-06-12T07:15:15Z</time>
      </trkpt>
      <trkpt lat="44.58844" lon="6.11856">
        <ele>914.2</ele>
        <time>2025-06-12T07:15:16Z</time>
      </trkpt>
      <trkpt lat="44.58847" lon="6.11858">
        <ele>914.4</ele>
        <time>2025-06-12T07:15:17Z</time>
      </trkpt>
      <trkpt lat="44.5885" lon="6.11859">
        <ele>914.6</ele>
        <time>2025-06-12T07:15:18Z</time>
      </trkpt>
      <trkpt lat="44.58853" lon="6.1186">
        <ele>914.8</ele>
        <time>2025-06-12T07:15:19Z</time>
      </trkpt>
      <trkpt lat="44.58856" lon="6.11861">
        <ele>915</ele>
        <time>2025-06-12T07:15:20Z</time>
      </trkpt>
      <trkpt lat="44.58858" lon="6.11862">
        <ele>915.2</ele>
        <time>2025-06-12T07:15:21Z</time>
      </trkpt>
      <trkpt lat="44.58861" lon="6.11864">
        <ele>915.4</ele>
        <time>2025-06-12T07:15:22Z</time>
      </trkpt>
      <trkpt lat="44.58863" lon="6.11866">
        <ele>915.8</ele>
        <time>2025-06-12T07:15:23Z</time>
      </trkpt>
      <trkpt lat="44.58865" lon="6.11868">
        <ele>916.2</ele>
        <time>2025-06-12T07:15:24Z</time>
      </trkpt>
      <trkpt lat="44.58868" lon="6.1187">
        <ele>916.4</ele>
        <time>2025-06-12T07:15:25Z</time>
      </trkpt>
      <trkpt lat="44.5887" lon="6.11872">
        <ele>916.8</ele>
        <time>2025-06-12T07:15:26Z</time>
      </trkpt>
      <trkpt lat="44.58872" lon="6.11875">
        <ele>916.8</ele>
        <time>2025-06-12T07:15:27Z</time>
      </trkpt>
      <trkpt lat="44.58874" lon="6.11877">
        <ele>917.2</ele>
        <time>2025-06-12T07:15:28Z</time>
      </trkpt>
      <trkpt lat="44.58878" lon="6.1188">
        <ele>917.8</ele>
        <time>2025-06-12T07:15:30Z</time>
      </trkpt>
      <trkpt lat="44.58882" lon="6.11885">
        <ele>918.2</ele>
        <time>2025-06-12T07:15:32Z</time>
      </trkpt>
      <trkpt lat="44.58884" lon="6.11887">
        <ele>918.6</ele>
        <time>2025-06-12T07:15:33Z</time>
      </trkpt>
      <trkpt lat="44.58885" lon="6.11889">
        <ele>918.8</ele>
        <time>2025-06-12T07:15:34Z</time>
      </trkpt>
      <trkpt lat="44.58887" lon="6.11891">
        <ele>919.2</ele>
        <time>2025-06-12T07:15:35Z</time>
      </trkpt>
      <trkpt lat="44.58891" lon="6.11896">
        <ele>919.8</ele>
        <time>2025-06-12T07:15:37Z</time>
      </trkpt>
      <trkpt lat="44.58895" lon="6.11901">
        <ele>920.4</ele>
        <time>2025-06-12T07:15:39Z</time>
      </trkpt>
      <trkpt lat="44.58896" lon="6.11903">
        <ele>920.6</ele>
        <time>2025-06-12T07:15:40Z</time>
      </trkpt>
      <trkpt lat="44.58898" lon="6.11905">
        <ele>921</ele>
        <time>2025-06-12T07:15:41Z</time>
      </trkpt>
      <trkpt lat="44.589" lon="6.11908">
        <ele>921.2</ele>
        <time>2025-06-12T07:15:42Z</time>
      </trkpt>
      <trkpt lat="44.58904" lon="6.11913">
        <ele>921.8</ele>
        <time>2025-06-12T07:15:44Z</time>
      </trkpt>
      <trkpt lat="44.58905" lon="6.11916">
        <ele>922</ele>
        <time>2025-06-12T07:15:45Z</time>
      </trkpt>
      <trkpt lat="44.58907" lon="6.11918">
        <ele>922.2</ele>
        <time>2025-06-12T07:15:46Z</time>
      </trkpt>
      <trkpt lat="44.58909" lon="6.11921">
        <ele>922.4</ele>
        <time>2025-06-12T07:15:47Z</time>
      </trkpt>
      <trkpt lat="44.5891" lon="6.11923">
        <ele>922.8</ele>
        <time>2025-06-12T07:15:48Z</time>
      </trkpt>
      <trkpt lat="44.58912" lon="6.11926">
        <ele>923</ele>
        <time>2025-06-12T07:15:49Z</time>
      </trkpt>
      <trkpt lat="44.58913" lon="6.11929">
        <ele>923.2</ele>
        <time>2025-06-12T07:15:50Z</time>
      </trkpt>
      <trkpt lat="44.58914" lon="6.11932">
        <ele>923.6</ele>
        <time>2025-06-12T07:15:51Z</time>
      </trkpt>
      <trkpt lat="44.58917" lon="6.11938">
        <ele>924</ele>
        <time>2025-06-12T07:15:53Z</time>
      </trkpt>
      <trkpt lat="44.58918" lon="6.11941">
        <ele>924.2</ele>
        <time>2025-06-12T07:15:54Z</time>
      </trkpt>
      <trkpt lat="44.58919" lon="6.11944">
        <ele>924.4</ele>
        <time>2025-06-12T07:15:55Z</time>
      </trkpt>
      <trkpt lat="44.58921" lon="6.11947">
        <ele>924.6</ele>
        <time>2025-06-12T07:15:56Z</time>
      </trkpt>
      <trkpt lat="44.58922" lon="6.1195">
        <ele>924.8</ele>
        <time>2025-06-12T07:15:57Z</time>
      </trkpt>
      <trkpt lat="44.58923" lon="6.11953">
        <ele>925</ele>
        <time>2025-06-12T07:15:58Z</time>
      </trkpt>
      <trkpt lat="44.58924" lon="6.11956">
        <ele>925.2</ele>
        <time>2025-06-12T07:15:59Z</time>
      </trkpt>
      <trkpt lat="44.58925" lon="6.11959">
        <ele>925.4</ele>
        <time>2025-06-12T07:16:00Z</time>
      </trkpt>
      <trkpt lat="44.58928" lon="6.11965">
        <ele>925.6</ele>
        <time>2025-06-12T07:16:02Z</time>
      </trkpt>
      <trkpt lat="44.5893" lon="6.11971">
        <ele>926</ele>
        <time>2025-06-12T07:16:04Z</time>
      </trkpt>
      <trkpt lat="44.58931" lon="6.11975">
        <ele>926.2</ele>
        <time>2025-06-12T07:16:05Z</time>
      </trkpt>
      <trkpt lat="44.58933" lon="6.11978">
        <ele>926.4</ele>
        <time>2025-06-12T07:16:06Z</time>
      </trkpt>
      <trkpt lat="44.58934" lon="6.11981">
        <ele>926.8</ele>
        <time>2025-06-12T07:16:07Z</time>
      </trkpt>
      <trkpt lat="44.58935" lon="6.11983">
        <ele>927</ele>
        <time>2025-06-12T07:16:08Z</time>
      </trkpt>
      <trkpt lat="44.58936" lon="6.11986">
        <ele>927</ele>
        <time>2025-06-12T07:16:09Z</time>
      </trkpt>
      <trkpt lat="44.58938" lon="6.11992">
        <ele>927.2</ele>
        <time>2025-06-12T07:16:11Z</time>
      </trkpt>
      <trkpt lat="44.5894" lon="6.11995">
        <ele>927.4</ele>
        <time>2025-06-12T07:16:12Z</time>
      </trkpt>
      <trkpt lat="44.58941" lon="6.11998">
        <ele>927.4</ele>
        <time>2025-06-12T07:16:13Z</time>
      </trkpt>
      <trkpt lat="44.58942" lon="6.12001">
        <ele>927.6</ele>
        <time>2025-06-12T07:16:14Z</time>
      </trkpt>
      <trkpt lat="44.58944" lon="6.12006">
        <ele>928.2</ele>
        <time>2025-06-12T07:16:16Z</time>
      </trkpt>
      <trkpt lat="44.58945" lon="6.12009">
        <ele>928.6</ele>
        <time>2025-06-12T07:16:17Z</time>
      </trkpt>
      <trkpt lat="44.58947" lon="6.12011">
        <ele>928.8</ele>
        <time>2025-06-12T07:16:18Z</time>
      </trkpt>
      <trkpt lat="44.58948" lon="6.12014">
        <ele>929.2</ele>
        <time>2025-06-12T07:16:19Z</time>
      </trkpt>
      <trkpt lat="44.5895" lon="6.12016">
        <ele>929.4</ele>
        <time>2025-06-12T07:16:20Z</time>
      </trkpt>
      <trkpt lat="44.58951" lon="6.12019">
        <ele>929.6</ele>
        <time>2025-06-12T07:16:21Z</time>
      </trkpt>
      <trkpt lat="44.58953" lon="6.12021">
        <ele>929.8</ele>
        <time>2025-06-12T07:16:22Z</time>
      </trkpt>
      <trkpt lat="44.58954" lon="6.12024">
        <ele>930</ele>
        <time>2025-06-12T07:16:23Z</time>
      </trkpt>
      <trkpt lat="44.58955" lon="6.12026">
        <ele>930.4</ele>
        <time>2025-06-12T07:16:24Z</time>
      </trkpt>
      <trkpt lat="44.58957" lon="6.12029">
        <ele>930.6</ele>
        <time>2025-06-12T07:16:25Z</time>
      </trkpt>
      <trkpt lat="44.58958" lon="6.12031">
        <ele>930.8</ele>
        <time>2025-06-12T07:16:26Z</time>
      </trkpt>
      <trkpt lat="44.5896" lon="6.12034">
        <ele>931</ele>
        <time>2025-06-12T07:16:27Z</time>
      </trkpt>
      <trkpt lat="44.58963" lon="6.12038">
        <ele>931.4</ele>
        <time>2025-06-12T07:16:29Z</time>
      </trkpt>
      <trkpt lat="44.58965" lon="6.12043">
        <ele>932</ele>
        <time>2025-06-12T07:16:31Z</time>
      </trkpt>
      <trkpt lat="44.58967" lon="6.12045">
        <ele>932.2</ele>
        <time>2025-06-12T07:16:32Z</time>
      </trkpt>
      <trkpt lat="44.58968" lon="6.12047">
        <ele>932.4</ele>
        <time>2025-06-12T07:16:33Z</time>
      </trkpt>
      <trkpt lat="44.58971" lon="6.12052">
        <ele>932.6</ele>
        <time>2025-06-12T07:16:35Z</time>
      </trkpt>
      <trkpt lat="44.58972" lon="6.12054">
        <ele>932.8</ele>
        <time>2025-06-12T07:16:36Z</time>
      </trkpt>
      <trkpt lat="44.58974" lon="6.12056">
        <ele>933</ele>
        <time>2025-06-12T07:16:37Z</time>
      </trkpt>
      <trkpt lat="44.58976" lon="6.12059">
        <ele>933.2</ele>
        <time>2025-06-12T07:16:38Z</time>
      </trkpt>
      <trkpt lat="44.58978" lon="6.12061">
        <ele>933.4</ele>
        <time>2025-06-12T07:16:39Z</time>
      </trkpt>
      <trkpt lat="44.5898" lon="6.12063">
        <ele>933.6</ele>
        <time>2025-06-12T07:16:40Z</time>
      </trkpt>
      <trkpt lat="44.58982" lon="6.12065">
        <ele>933.8</ele>
        <time>2025-06-12T07:16:41Z</time>
      </trkpt>
      <trkpt lat="44.58984" lon="6.12067">
        <ele>934</ele>
        <time>2025-06-12T07:16:42Z</time>
      </trkpt>
      <trkpt lat="44.58986" lon="6.12069">
        <ele>934.2</ele>
        <time>2025-06-12T07:16:43Z</time>
      </trkpt>
      <trkpt lat="44.58988" lon="6.12071">
        <ele>934.4</ele>
        <time>2025-06-12T07:16:44Z</time>
      </trkpt>
      <trkpt lat="44.58992" lon="6.12074">
        <ele>935</ele>
        <time>2025-06-12T07:16:46Z</time>
      </trkpt>
      <trkpt lat="44.58996" lon="6.12076">
        <ele>935.4</ele>
        <time>2025-06-12T07:16:48Z</time>
      </trkpt>
      <trkpt lat="44.59001" lon="6.12078">
        <ele>935.8</ele>
        <time>2025-06-12T07:16:50Z</time>
      </trkpt>
      <trkpt lat="44.59003" lon="6.12079">
        <ele>936</ele>
        <time>2025-06-12T07:16:51Z</time>
      </trkpt>
      <trkpt lat="44.59006" lon="6.1208">
        <ele>936.2</ele>
        <time>2025-06-12T07:16:52Z</time>
      </trkpt>
      <trkpt lat="44.59008" lon="6.12081">
        <ele>936.6</ele>
        <time>2025-06-12T07:16:53Z</time>
      </trkpt>
      <trkpt lat="44.5901" lon="6.12082">
        <ele>937</ele>
        <time>2025-06-12T07:16:54Z</time>
      </trkpt>
      <trkpt lat="44.59012" lon="6.12083">
        <ele>937.2</ele>
        <time>2025-06-12T07:16:55Z</time>
      </trkpt>
      <trkpt lat="44.59014" lon="6.12084">
        <ele>937.6</ele>
        <time>2025-06-12T07:16:56Z</time>
      </trkpt>
      <trkpt lat="44.59017" lon="6.12085">
        <ele>937.8</ele>
        <time>2025-06-12T07:16:57Z</time>
      </trkpt>
      <trkpt lat="44.59021" lon="6.12087">
        <ele>938.4</ele>
        <time>2025-06-12T07:16:59Z</time>
      </trkpt>
      <trkpt lat="44.59023" lon="6.12088">
        <ele>938.8</ele>
        <time>2025-06-12T07:17:00Z</time>
      </trkpt>
      <trkpt lat="44.59025" lon="6.12089">
        <ele>939</ele>
        <time>2025-06-12T07:17:01Z</time>
      </trkpt>
      <trkpt lat="44.59027" lon="6.1209">
        <ele>939.2</ele>
        <time>2025-06-12T07:17:02Z</time>
      </trkpt>
      <trkpt lat="44.59032" lon="6.12093">
        <ele>939.6</ele>
        <time>2025-06-12T07:17:04Z</time>
      </trkpt>
      <trkpt lat="44.59036" lon="6.12095">
        <ele>940</ele>
        <time>2025-06-12T07:17:06Z</time>
      </trkpt>
      <trkpt lat="44.59039" lon="6.12096">
        <ele>940.4</ele>
        <time>2025-06-12T07:17:07Z</time>
      </trkpt>
      <trkpt lat="44.59041" lon="6.12097">
        <ele>940.4</ele>
        <time>2025-06-12T07:17:08Z</time>
      </trkpt>
      <trkpt lat="44.59043" lon="6.12098">
        <ele>940.8</ele>
        <time>2025-06-12T07:17:09Z</time>
      </trkpt>
      <trkpt lat="44.59045" lon="6.12098">
        <ele>941</ele>
        <time>2025-06-12T07:17:10Z</time>
      </trkpt>
      <trkpt lat="44.59047" lon="6.12099">
        <ele>941.2</ele>
        <time>2025-06-12T07:17:11Z</time>
      </trkpt>
      <trkpt lat="44.5905" lon="6.12099">
        <ele>941.4</ele>
        <time>2025-06-12T07:17:12Z</time>
      </trkpt>
      <trkpt lat="44.59052" lon="6.12099">
        <ele>941.8</ele>
        <time>2025-06-12T07:17:13Z</time>
      </trkpt>
      <trkpt lat="44.59054" lon="6.12099">
        <ele>942.2</ele>
        <time>2025-06-12T07:17:14Z</time>
      </trkpt>
      <trkpt lat="44.59056" lon="6.121">
        <ele>942.4</ele>
        <time>2025-06-12T07:17:15Z</time>
      </trkpt>
      <trkpt lat="44.5906" lon="6.12099">
        <ele>943</ele>
        <time>2025-06-12T07:17:17Z</time>
      </trkpt>
      <trkpt lat="44.59062" lon="6.12099">
        <ele>943.2</ele>
        <time>2025-06-12T07:17:18Z</time>
      </trkpt>
      <trkpt lat="44.59064" lon="6.12098">
        <ele>943.4</ele>
        <time>2025-06-12T07:17:19Z</time>
      </trkpt>
      <trkpt lat="44.59066" lon="6.12098">
        <ele>943.6</ele>
        <time>2025-06-12T07:17:20Z</time>
      </trkpt>
      <trkpt lat="44.59068" lon="6.12097">
        <ele>943.8</ele>
        <time>2025-06-12T07:17:21Z</time>
      </trkpt>
      <trkpt lat="44.5907" lon="6.12097">
        <ele>944.2</ele>
        <time>2025-06-12T07:17:22Z</time>
      </trkpt>
      <trkpt lat="44.59072" lon="6.12096">
        <ele>944.4</ele>
        <time>2025-06-12T07:17:23Z</time>
      </trkpt>
      <trkpt lat="44.59074" lon="6.12096">
        <ele>944.4</ele>
        <time>2025-06-12T07:17:24Z</time>
      </trkpt>
      <trkpt lat="44.59079" lon="6.12096">
        <ele>944.8</ele>
        <time>2025-06-12T07:17:26Z</time>
      </trkpt>
      <trkpt lat="44.59084" lon="6.12095">
        <ele>945.2</ele>
        <time>2025-06-12T07:17:28Z</time>
      </trkpt>
      <trkpt lat="44.59087" lon="6.12095">
        <ele>945.2</ele>
        <time>2025-06-12T07:17:29Z</time>
      </trkpt>
      <trkpt lat="44.59089" lon="6.12095">
        <ele>945.4</ele>
        <time>2025-06-12T07:17:30Z</time>
      </trkpt>
      <trkpt lat="44.59092" lon="6.12095">
        <ele>945.6</ele>
        <time>2025-06-12T07:17:31Z</time>
      </trkpt>
      <trkpt lat="44.59095" lon="6.12095">
        <ele>946</ele>
        <time>2025-06-12T07:17:32Z</time>
      </trkpt>
      <trkpt lat="44.59097" lon="6.12096">
        <ele>946.2</ele>
        <time>2025-06-12T07:17:33Z</time>
      </trkpt>
      <trkpt lat="44.59102" lon="6.12098">
        <ele>946.8</ele>
        <time>2025-06-12T07:17:35Z</time>
      </trkpt>
      <trkpt lat="44.59105" lon="6.121">
        <ele>947</ele>
        <time>2025-06-12T07:17:36Z</time>
      </trkpt>
      <trkpt lat="44.59107" lon="6.12101">
        <ele>947.4</ele>
        <time>2025-06-12T07:17:37Z</time>
      </trkpt>
      <trkpt lat="44.59109" lon="6.12103">
        <ele>947.6</ele>
        <time>2025-06-12T07:17:38Z</time>
      </trkpt>
      <trkpt lat="44.59114" lon="6.12107">
        <ele>947.8</ele>
        <time>2025-06-12T07:17:40Z</time>
      </trkpt>
      <trkpt lat="44.59118" lon="6.12112">
        <ele>948.4</ele>
        <time>2025-06-12T07:17:42Z</time>
      </trkpt>
      <trkpt lat="44.59119" lon="6.12115">
        <ele>948.6</ele>
        <time>2025-06-12T07:17:43Z</time>
      </trkpt>
      <trkpt lat="44.59121" lon="6.12117">
        <ele>949</ele>
        <time>2025-06-12T07:17:44Z</time>
      </trkpt>
      <trkpt lat="44.59123" lon="6.1212">
        <ele>949.2</ele>
        <time>2025-06-12T07:17:45Z</time>
      </trkpt>
      <trkpt lat="44.59124" lon="6.12123">
        <ele>949.6</ele>
        <time>2025-06-12T07:17:46Z</time>
      </trkpt>
      <trkpt lat="44.59126" lon="6.12125">
        <ele>949.8</ele>
        <time>2025-06-12T07:17:47Z</time>
      </trkpt>
      <trkpt lat="44.59129" lon="6.1213">
        <ele>950.2</ele>
        <time>2025-06-12T07:17:49Z</time>
      </trkpt>
      <trkpt lat="44.59133" lon="6.12135">
        <ele>950.8</ele>
        <time>2025-06-12T07:17:51Z</time>
      </trkpt>
      <trkpt lat="44.59135" lon="6.12137">
        <ele>951</ele>
        <time>2025-06-12T07:17:52Z</time>
      </trkpt>
      <trkpt lat="44.59137" lon="6.12139">
        <ele>951.2</ele>
        <time>2025-06-12T07:17:53Z</time>
      </trkpt>
      <trkpt lat="44.59138" lon="6.12141">
        <ele>951.6</ele>
        <time>2025-06-12T07:17:54Z</time>
      </trkpt>
      <trkpt lat="44.5914" lon="6.12142">
        <ele>952</ele>
        <time>2025-06-12T07:17:55Z</time>
      </trkpt>
      <trkpt lat="44.59142" lon="6.12144">
        <ele>952.2</ele>
        <time>2025-06-12T07:17:56Z</time>
      </trkpt>
      <trkpt lat="44.59144" lon="6.12146">
        <ele>952.4</ele>
        <time>2025-06-12T07:17:57Z</time>
      </trkpt>
      <trkpt lat="44.59146" lon="6.12147">
        <ele>952.8</ele>
        <time>2025-06-12T07:17:58Z</time>
      </trkpt>
      <trkpt lat="44.5915" lon="6.12149">
        <ele>953</ele>
        <time>2025-06-12T07:18:00Z</time>
      </trkpt>
      <trkpt lat="44.59152" lon="6.12151">
        <ele>953.4</ele>
        <time>2025-06-12T07:18:01Z</time>
      </trkpt>
      <trkpt lat="44.59154" lon="6.12152">
        <ele>953.6</ele>
        <time>2025-06-12T07:18:02Z</time>
      </trkpt>
      <trkpt lat="44.59159" lon="6.12154">
        <ele>954</ele>
        <time>2025-06-12T07:18:04Z</time>
      </trkpt>
      <trkpt lat="44.59161" lon="6.12155">
        <ele>954</ele>
        <time>2025-06-12T07:18:05Z</time>
      </trkpt>
      <trkpt lat="44.59163" lon="6.12156">
        <ele>954.2</ele>
        <time>2025-06-12T07:18:06Z</time>
      </trkpt>
      <trkpt lat="44.59165" lon="6.12157">
        <ele>954.4</ele>
        <time>2025-06-12T07:18:07Z</time>
      </trkpt>
      <trkpt lat="44.59168" lon="6.12157">
        <ele>954.6</ele>
        <time>2025-06-12T07:18:08Z</time>
      </trkpt>
      <trkpt lat="44.5917" lon="6.12158">
        <ele>954.6</ele>
        <time>2025-06-12T07:18:09Z</time>
      </trkpt>
      <trkpt lat="44.59172" lon="6.12159">
        <ele>955</ele>
        <time>2025-06-12T07:18:10Z</time>
      </trkpt>
      <trkpt lat="44.59175" lon="6.12159">
        <ele>955.4</ele>
        <time>2025-06-12T07:18:11Z</time>
      </trkpt>
      <trkpt lat="44.59177" lon="6.12159">
        <ele>955.6</ele>
        <time>2025-06-12T07:18:12Z</time>
      </trkpt>
      <trkpt lat="44.59179" lon="6.12159">
        <ele>955.8</ele>
        <time>2025-06-12T07:18:13Z</time>
      </trkpt>
      <trkpt lat="44.59184" lon="6.12158">
        <ele>956.2</ele>
        <time>2025-06-12T07:18:15Z</time>
      </trkpt>
      <trkpt lat="44.59186" lon="6.12158">
        <ele>956.6</ele>
        <time>2025-06-12T07:18:16Z</time>
      </trkpt>
      <trkpt lat="44.59188" lon="6.12157">
        <ele>956.8</ele>
        <time>2025-06-12T07:18:17Z</time>
      </trkpt>
      <trkpt lat="44.5919" lon="6.12155">
        <ele>957.2</ele>
        <time>2025-06-12T07:18:18Z</time>
      </trkpt>
      <trkpt lat="44.59192" lon="6.12154">
        <ele>957.4</ele>
        <time>2025-06-12T07:18:19Z</time>
      </trkpt>
      <trkpt lat="44.59194" lon="6.12152">
        <ele>957.8</ele>
        <time>2025-06-12T07:18:20Z</time>
      </trkpt>
      <trkpt lat="44.59196" lon="6.1215">
        <ele>958</ele>
        <time>2025-06-12T07:18:21Z</time>
      </trkpt>
      <trkpt lat="44.59197" lon="6.12148">
        <ele>958</ele>
        <time>2025-06-12T07:18:22Z</time>
      </trkpt>
      <trkpt lat="44.59201" lon="6.12144">
        <ele>958.4</ele>
        <time>2025-06-12T07:18:24Z</time>
      </trkpt>
      <trkpt lat="44.59203" lon="6.12139">
        <ele>958.6</ele>
        <time>2025-06-12T07:18:26Z</time>
      </trkpt>
      <trkpt lat="44.59204" lon="6.12137">
        <ele>958.8</ele>
        <time>2025-06-12T07:18:27Z</time>
      </trkpt>
      <trkpt lat="44.59206" lon="6.12134">
        <ele>959</ele>
        <time>2025-06-12T07:18:28Z</time>
      </trkpt>
      <trkpt lat="44.59207" lon="6.12132">
        <ele>959.2</ele>
        <time>2025-06-12T07:18:29Z</time>
      </trkpt>
      <trkpt lat="44.59208" lon="6.12129">
        <ele>959.4</ele>
        <time>2025-06-12T07:18:30Z</time>
      </trkpt>
      <trkpt lat="44.5921" lon="6.12127">
        <ele>959.8</ele>
        <time>2025-06-12T07:18:31Z</time>
      </trkpt>
      <trkpt lat="44.59212" lon="6.12122">
        <ele>960.2</ele>
        <time>2025-06-12T07:18:33Z</time>
      </trkpt>
      <trkpt lat="44.59212" lon="6.12117">
        <ele>960.6</ele>
        <time>2025-06-12T07:18:35Z</time>
      </trkpt>
      <trkpt lat="44.59212" lon="6.12114">
        <ele>960.8</ele>
        <time>2025-06-12T07:18:36Z</time>
      </trkpt>
      <trkpt lat="44.59213" lon="6.12111">
        <ele>961.2</ele>
        <time>2025-06-12T07:18:37Z</time>
      </trkpt>
      <trkpt lat="44.59213" lon="6.12108">
        <ele>961.4</ele>
        <time>2025-06-12T07:18:38Z</time>
      </trkpt>
      <trkpt lat="44.59213" lon="6.12105">
        <ele>961.6</ele>
        <time>2025-06-12T07:18:39Z</time>
      </trkpt>
      <trkpt lat="44.59214" lon="6.12102">
        <ele>962</ele>
        <time>2025-06-12T07:18:40Z</time>
      </trkpt>
      <trkpt lat="44.59214" lon="6.12099">
        <ele>962</ele>
        <time>2025-06-12T07:18:41Z</time>
      </trkpt>
      <trkpt lat="44.59215" lon="6.12096">
        <ele>962.2</ele>
        <time>2025-06-12T07:18:42Z</time>
      </trkpt>
      <trkpt lat="44.59215" lon="6.1209">
        <ele>962.6</ele>
        <time>2025-06-12T07:18:44Z</time>
      </trkpt>
      <trkpt lat="44.59216" lon="6.12083">
        <ele>963</ele>
        <time>2025-06-12T07:18:46Z</time>
      </trkpt>
      <trkpt lat="44.59216" lon="6.12079">
        <ele>963.2</ele>
        <time>2025-06-12T07:18:47Z</time>
      </trkpt>
      <trkpt lat="44.59217" lon="6.12076">
        <ele>963.4</ele>
        <time>2025-06-12T07:18:48Z</time>
      </trkpt>
      <trkpt lat="44.59217" lon="6.12072">
        <ele>963.6</ele>
        <time>2025-06-12T07:18:49Z</time>
      </trkpt>
      <trkpt lat="44.59217" lon="6.12069">
        <ele>963.8</ele>
        <time>2025-06-12T07:18:50Z</time>
      </trkpt>
      <trkpt lat="44.59218" lon="6.12066">
        <ele>964</ele>
        <time>2025-06-12T07:18:51Z</time>
      </trkpt>
      <trkpt lat="44.59219" lon="6.12059">
        <ele>964.8</ele>
        <time>2025-06-12T07:18:53Z</time>
      </trkpt>
      <trkpt lat="44.5922" lon="6.12052">
        <ele>965.2</ele>
        <time>2025-06-12T07:18:55Z</time>
      </trkpt>
      <trkpt lat="44.59221" lon="6.12049">
        <ele>965.4</ele>
        <time>2025-06-12T07:18:56Z</time>
      </trkpt>
      <trkpt lat="44.59222" lon="6.12046">
        <ele>965.6</ele>
        <time>2025-06-12T07:18:57Z</time>
      </trkpt>
      <trkpt lat="44.59223" lon="6.12043">
        <ele>965.8</ele>
        <time>2025-06-12T07:18:58Z</time>
      </trkpt>
      <trkpt lat="44.59227" lon="6.12038">
        <ele>966</ele>
        <time>2025-06-12T07:19:00Z</time>
      </trkpt>
      <trkpt lat="44.59228" lon="6.12035">
        <ele>966.2</ele>
        <time>2025-06-12T07:19:01Z</time>
      </trkpt>
      <trkpt lat="44.5923" lon="6.12032">
        <ele>966.2</ele>
        <time>2025-06-12T07:19:02Z</time>
      </trkpt>
      <trkpt lat="44.59232" lon="6.1203">
        <ele>966.6</ele>
        <time>2025-06-12T07:19:03Z</time>
      </trkpt>
      <trkpt lat="44.59236" lon="6.12031">
        <ele>967.2</ele>
        <time>2025-06-12T07:19:05Z</time>
      </trkpt>
      <trkpt lat="44.59237" lon="6.12032">
        <ele>967.4</ele>
        <time>2025-06-12T07:19:06Z</time>
      </trkpt>
      <trkpt lat="44.59239" lon="6.12034">
        <ele>967.6</ele>
        <time>2025-06-12T07:19:07Z</time>
      </trkpt>
      <trkpt lat="44.5924" lon="6.12036">
        <ele>967.8</ele>
        <time>2025-06-12T07:19:08Z</time>
      </trkpt>
      <trkpt lat="44.59243" lon="6.1204">
        <ele>968</ele>
        <time>2025-06-12T07:19:10Z</time>
      </trkpt>
      <trkpt lat="44.59245" lon="6.12043">
        <ele>968.4</ele>
        <time>2025-06-12T07:19:11Z</time>
      </trkpt>
      <trkpt lat="44.59246" lon="6.12045">
        <ele>968.8</ele>
        <time>2025-06-12T07:19:12Z</time>
      </trkpt>
      <trkpt lat="44.59248" lon="6.12048">
        <ele>969</ele>
        <time>2025-06-12T07:19:13Z</time>
      </trkpt>
      <trkpt lat="44.59249" lon="6.12051">
        <ele>969.2</ele>
        <time>2025-06-12T07:19:14Z</time>
      </trkpt>
      <trkpt lat="44.5925" lon="6.12055">
        <ele>969.6</ele>
        <time>2025-06-12T07:19:15Z</time>
      </trkpt>
      <trkpt lat="44.5925" lon="6.12058">
        <ele>969.8</ele>
        <time>2025-06-12T07:19:16Z</time>
      </trkpt>
      <trkpt lat="44.59251" lon="6.12062">
        <ele>970</ele>
        <time>2025-06-12T07:19:17Z</time>
      </trkpt>
      <trkpt lat="44.59252" lon="6.12069">
        <ele>970.2</ele>
        <time>2025-06-12T07:19:19Z</time>
      </trkpt>
      <trkpt lat="44.59253" lon="6.12072">
        <ele>970.4</ele>
        <time>2025-06-12T07:19:20Z</time>
      </trkpt>
      <trkpt lat="44.59254" lon="6.12076">
        <ele>970.4</ele>
        <time>2025-06-12T07:19:21Z</time>
      </trkpt>
      <trkpt lat="44.59254" lon="6.12079">
        <ele>970.4</ele>
        <time>2025-06-12T07:19:22Z</time>
      </trkpt>
      <trkpt lat="44.59255" lon="6.12082">
        <ele>970.6</ele>
        <time>2025-06-12T07:19:23Z</time>
      </trkpt>
      <trkpt lat="44.59255" lon="6.12085">
        <ele>970.6</ele>
        <time>2025-06-12T07:19:24Z</time>
      </trkpt>
      <trkpt lat="44.59256" lon="6.12088">
        <ele>970.8</ele>
        <time>2025-06-12T07:19:25Z</time>
      </trkpt>
      <trkpt lat="44.59256" lon="6.12091">
        <ele>970.8</ele>
        <time>2025-06-12T07:19:26Z</time>
      </trkpt>
      <trkpt lat="44.59258" lon="6.12097">
        <ele>971</ele>
        <time>2025-06-12T07:19:28Z</time>
      </trkpt>
      <trkpt lat="44.59258" lon="6.12103">
        <ele>971.4</ele>
        <time>2025-06-12T07:19:30Z</time>
      </trkpt>
      <trkpt lat="44.59258" lon="6.12106">
        <ele>971.6</ele>
        <time>2025-06-12T07:19:31Z</time>
      </trkpt>
      <trkpt lat="44.59259" lon="6.12109">
        <ele>971.8</ele>
        <time>2025-06-12T07:19:32Z</time>
      </trkpt>
      <trkpt lat="44.59259" lon="6.12113">
        <ele>972.6</ele>
        <time>2025-06-12T07:19:33Z</time>
      </trkpt>
      <trkpt lat="44.5926" lon="6.12116">
        <ele>972.8</ele>
        <time>2025-06-12T07:19:34Z</time>
      </trkpt>
      <trkpt lat="44.59261" lon="6.12119">
        <ele>972.8</ele>
        <time>2025-06-12T07:19:35Z</time>
      </trkpt>
      <trkpt lat="44.59262" lon="6.12125">
        <ele>973.4</ele>
        <time>2025-06-12T07:19:37Z</time>
      </trkpt>
      <trkpt lat="44.59263" lon="6.12128">
        <ele>973.6</ele>
        <time>2025-06-12T07:19:38Z</time>
      </trkpt>
      <trkpt lat="44.59264" lon="6.12132">
        <ele>974</ele>
        <time>2025-06-12T07:19:39Z</time>
      </trkpt>
      <trkpt lat="44.59265" lon="6.12135">
        <ele>974</ele>
        <time>2025-06-12T07:19:40Z</time>
      </trkpt>
      <trkpt lat="44.59265" lon="6.12138">
        <ele>974.2</ele>
        <time>2025-06-12T07:19:41Z</time>
      </trkpt>
      <trkpt lat="44.59266" lon="6.12141">
        <ele>974.4</ele>
        <time>2025-06-12T07:19:42Z</time>
      </trkpt>
      <trkpt lat="44.59267" lon="6.12144">
        <ele>974.6</ele>
        <time>2025-06-12T07:19:43Z</time>
      </trkpt>
      <trkpt lat="44.59267" lon="6.12147">
        <ele>974.8</ele>
        <time>2025-06-12T07:19:44Z</time>
      </trkpt>
      <trkpt lat="44.59268" lon="6.12154">
        <ele>975.2</ele>
        <time>2025-06-12T07:19:46Z</time>
      </trkpt>
      <trkpt lat="44.59269" lon="6.12157">
        <ele>975.4</ele>
        <time>2025-06-12T07:19:47Z</time>
      </trkpt>
      <trkpt lat="44.59269" lon="6.1216">
        <ele>975.6</ele>
        <time>2025-06-12T07:19:48Z</time>
      </trkpt>
      <trkpt lat="44.59269" lon="6.12163">
        <ele>975.8</ele>
        <time>2025-06-12T07:19:49Z</time>
      </trkpt>
      <trkpt lat="44.59269" lon="6.12166">
        <ele>975.8</ele>
        <time>2025-06-12T07:19:50Z</time>
      </trkpt>
      <trkpt lat="44.5927" lon="6.12169">
        <ele>976</ele>
        <time>2025-06-12T07:19:51Z</time>
      </trkpt>
      <trkpt lat="44.5927" lon="6.12172">
        <ele>976.2</ele>
        <time>2025-06-12T07:19:52Z</time>
      </trkpt>
      <trkpt lat="44.59271" lon="6.12176">
        <ele>976.4</ele>
        <time>2025-06-12T07:19:53Z</time>
      </trkpt>
      <trkpt lat="44.59271" lon="6.12179">
        <ele>976.6</ele>
        <time>2025-06-12T07:19:54Z</time>
      </trkpt>
      <trkpt lat="44.59271" lon="6.12182">
        <ele>976.6</ele>
        <time>2025-06-12T07:19:55Z</time>
      </trkpt>
      <trkpt lat="44.59271" lon="6.12185">
        <ele>976.8</ele>
        <time>2025-06-12T07:19:56Z</time>
      </trkpt>
      <trkpt lat="44.59271" lon="6.12188">
        <ele>977</ele>
        <time>2025-06-12T07:19:57Z</time>
      </trkpt>
      <trkpt lat="44.59272" lon="6.12195">
        <ele>977.2</ele>
        <time>2025-06-12T07:19:59Z</time>
      </trkpt>
      <trkpt lat="44.59273" lon="6.12198">
        <ele>977.4</ele>
        <time>2025-06-12T07:20:00Z</time>
      </trkpt>
      <trkpt lat="44.59273" lon="6.12202">
        <ele>977.8</ele>
        <time>2025-06-12T07:20:01Z</time>
      </trkpt>
      <trkpt lat="44.59273" lon="6.12205">
        <ele>978</ele>
        <time>2025-06-12T07:20:02Z</time>
      </trkpt>
      <trkpt lat="44.59273" lon="6.12211">
        <ele>978.4</ele>
        <time>2025-06-12T07:20:04Z</time>
      </trkpt>
      <trkpt lat="44.59273" lon="6.12215">
        <ele>978.6</ele>
        <time>2025-06-12T07:20:05Z</time>
      </trkpt>
      <trkpt lat="44.59272" lon="6.12218">
        <ele>978.8</ele>
        <time>2025-06-12T07:20:06Z</time>
      </trkpt>
      <trkpt lat="44.59272" lon="6.12221">
        <ele>978.8</ele>
        <time>2025-06-12T07:20:07Z</time>
      </trkpt>
      <trkpt lat="44.59272" lon="6.12225">
        <ele>979</ele>
        <time>2025-06-12T07:20:08Z</time>
      </trkpt>
      <trkpt lat="44.59272" lon="6.12228">
        <ele>979.2</ele>
        <time>2025-06-12T07:20:09Z</time>
      </trkpt>
      <trkpt lat="44.59271" lon="6.12232">
        <ele>979.6</ele>
        <time>2025-06-12T07:20:10Z</time>
      </trkpt>
      <trkpt lat="44.59271" lon="6.12235">
        <ele>979.6</ele>
        <time>2025-06-12T07:20:11Z</time>
      </trkpt>
      <trkpt lat="44.5927" lon="6.12239">
        <ele>979.8</ele>
        <time>2025-06-12T07:20:12Z</time>
      </trkpt>
      <trkpt lat="44.59269" lon="6.12242">
        <ele>980.2</ele>
        <time>2025-06-12T07:20:13Z</time>
      </trkpt>
      <trkpt lat="44.59267" lon="6.12249">
        <ele>980.8</ele>
        <time>2025-06-12T07:20:15Z</time>
      </trkpt>
      <trkpt lat="44.59266" lon="6.12252">
        <ele>981</ele>
        <time>2025-06-12T07:20:16Z</time>
      </trkpt>
      <trkpt lat="44.59265" lon="6.12255">
        <ele>981.2</ele>
        <time>2025-06-12T07:20:17Z</time>
      </trkpt>
      <trkpt lat="44.59264" lon="6.12257">
        <ele>981.2</ele>
        <time>2025-06-12T07:20:18Z</time>
      </trkpt>
      <trkpt lat="44.59263" lon="6.1226">
        <ele>981.4</ele>
        <time>2025-06-12T07:20:19Z</time>
      </trkpt>
      <trkpt lat="44.59262" lon="6.12263">
        <ele>981.4</ele>
        <time>2025-06-12T07:20:20Z</time>
      </trkpt>
      <trkpt lat="44.59261" lon="6.12266">
        <ele>981.6</ele>
        <time>2025-06-12T07:20:21Z</time>
      </trkpt>
      <trkpt lat="44.59259" lon="6.12269">
        <ele>981.8</ele>
        <time>2025-06-12T07:20:22Z</time>
      </trkpt>
      <trkpt lat="44.59257" lon="6.12275">
        <ele>982.2</ele>
        <time>2025-06-12T07:20:24Z</time>
      </trkpt>
      <trkpt lat="44.59255" lon="6.12278">
        <ele>982.4</ele>
        <time>2025-06-12T07:20:25Z</time>
      </trkpt>
      <trkpt lat="44.59254" lon="6.12281">
        <ele>982.6</ele>
        <time>2025-06-12T07:20:26Z</time>
      </trkpt>
      <trkpt lat="44.59252" lon="6.12284">
        <ele>983</ele>
        <time>2025-06-12T07:20:27Z</time>
      </trkpt>
      <trkpt lat="44.59251" lon="6.12287">
        <ele>983.4</ele>
        <time>2025-06-12T07:20:28Z</time>
      </trkpt>
      <trkpt lat="44.5925" lon="6.1229">
        <ele>983.6</ele>
        <time>2025-06-12T07:20:29Z</time>
      </trkpt>
      <trkpt lat="44.59247" lon="6.12296">
        <ele>983.8</ele>
        <time>2025-06-12T07:20:31Z</time>
      </trkpt>
      <trkpt lat="44.59244" lon="6.12302">
        <ele>983.8</ele>
        <time>2025-06-12T07:20:33Z</time>
      </trkpt>
      <trkpt lat="44.59242" lon="6.12304">
        <ele>984</ele>
        <time>2025-06-12T07:20:34Z</time>
      </trkpt>
      <trkpt lat="44.59241" lon="6.12307">
        <ele>984</ele>
        <time>2025-06-12T07:20:35Z</time>
      </trkpt>
      <trkpt lat="44.59239" lon="6.12309">
        <ele>984</ele>
        <time>2025-06-12T07:20:36Z</time>
      </trkpt>
      <trkpt lat="44.59235" lon="6.12313">
        <ele>984.2</ele>
        <time>2025-06-12T07:20:38Z</time>
      </trkpt>
      <trkpt lat="44.59234" lon="6.12316">
        <ele>984.4</ele>
        <time>2025-06-12T07:20:39Z</time>
      </trkpt>
      <trkpt lat="44.59232" lon="6.12318">
        <ele>984.4</ele>
        <time>2025-06-12T07:20:40Z</time>
      </trkpt>
      <trkpt lat="44.5923" lon="6.1232">
        <ele>984.6</ele>
        <time>2025-06-12T07:20:41Z</time>
      </trkpt>
      <trkpt lat="44.59229" lon="6.12323">
        <ele>984.8</ele>
        <time>2025-06-12T07:20:42Z</time>
      </trkpt>
      <trkpt lat="44.59227" lon="6.12326">
        <ele>985</ele>
        <time>2025-06-12T07:20:43Z</time>
      </trkpt>
      <trkpt lat="44.59226" lon="6.12329">
        <ele>985.2</ele>
        <time>2025-06-12T07:20:44Z</time>
      </trkpt>
      <trkpt lat="44.59225" lon="6.12332">
        <ele>985.4</ele>
        <time>2025-06-12T07:20:45Z</time>
      </trkpt>
      <trkpt lat="44.59224" lon="6.1234">
        <ele>985.8</ele>
        <time>2025-06-12T07:20:47Z</time>
      </trkpt>
      <trkpt lat="44.59223" lon="6.12348">
        <ele>985.8</ele>
        <time>2025-06-12T07:20:49Z</time>
      </trkpt>
      <trkpt lat="44.59223" lon="6.12352">
        <ele>986</ele>
        <time>2025-06-12T07:20:50Z</time>
      </trkpt>
      <trkpt lat="44.59224" lon="6.12356">
        <ele>986</ele>
        <time>2025-06-12T07:20:51Z</time>
      </trkpt>
      <trkpt lat="44.59224" lon="6.1236">
        <ele>986.2</ele>
        <time>2025-06-12T07:20:52Z</time>
      </trkpt>
      <trkpt lat="44.59224" lon="6.12364">
        <ele>986.4</ele>
        <time>2025-06-12T07:20:53Z</time>
      </trkpt>
      <trkpt lat="44.59225" lon="6.12368">
        <ele>986.4</ele>
        <time>2025-06-12T07:20:54Z</time>
      </trkpt>
      <trkpt lat="44.59225" lon="6.12372">
        <ele>986.4</ele>
        <time>2025-06-12T07:20:55Z</time>
      </trkpt>
      <trkpt lat="44.59226" lon="6.12376">
        <ele>986.4</ele>
        <time>2025-06-12T07:20:56Z</time>
      </trkpt>
      <trkpt lat="44.59226" lon="6.12384">
        <ele>986.6</ele>
        <time>2025-06-12T07:20:58Z</time>
      </trkpt>
      <trkpt lat="44.59226" lon="6.12387">
        <ele>986.6</ele>
        <time>2025-06-12T07:20:59Z</time>
      </trkpt>
      <trkpt lat="44.59226" lon="6.12391">
        <ele>986.6</ele>
        <time>2025-06-12T07:21:00Z</time>
      </trkpt>
      <trkpt lat="44.59226" lon="6.12394">
        <ele>986.6</ele>
        <time>2025-06-12T07:21:01Z</time>
      </trkpt>
      <trkpt lat="44.59227" lon="6.12397">
        <ele>986.8</ele>
        <time>2025-06-12T07:21:02Z</time>
      </trkpt>
      <trkpt lat="44.59226" lon="6.12401">
        <ele>987</ele>
        <time>2025-06-12T07:21:03Z</time>
      </trkpt>
      <trkpt lat="44.59227" lon="6.12407">
        <ele>987.2</ele>
        <time>2025-06-12T07:21:05Z</time>
      </trkpt>
      <trkpt lat="44.59228" lon="6.12415">
        <ele>987.2</ele>
        <time>2025-06-12T07:21:07Z</time>
      </trkpt>
      <trkpt lat="44.59229" lon="6.12419">
        <ele>987.4</ele>
        <time>2025-06-12T07:21:08Z</time>
      </trkpt>
      <trkpt lat="44.5923" lon="6.12422">
        <ele>987.4</ele>
        <time>2025-06-12T07:21:09Z</time>
      </trkpt>
      <trkpt lat="44.5923" lon="6.12426">
        <ele>987.4</ele>
        <time>2025-06-12T07:21:10Z</time>
      </trkpt>
      <trkpt lat="44.59231" lon="6.1243">
        <ele>987.4</ele>
        <time>2025-06-12T07:21:11Z</time>
      </trkpt>
      <trkpt lat="44.59232" lon="6.12434">
        <ele>987.6</ele>
        <time>2025-06-12T07:21:12Z</time>
      </trkpt>
      <trkpt lat="44.59232" lon="6.12438">
        <ele>987.6</ele>
        <time>2025-06-12T07:21:13Z</time>
      </trkpt>
      <trkpt lat="44.59233" lon="6.12442">
        <ele>987.8</ele>
        <time>2025-06-12T07:21:14Z</time>
      </trkpt>
      <trkpt lat="44.59234" lon="6.12449">
        <ele>988.2</ele>
        <time>2025-06-12T07:21:16Z</time>
      </trkpt>
      <trkpt lat="44.59235" lon="6.12457">
        <ele>988.4</ele>
        <time>2025-06-12T07:21:18Z</time>
      </trkpt>
      <trkpt lat="44.59236" lon="6.1246">
        <ele>988.6</ele>
        <time>2025-06-12T07:21:19Z</time>
      </trkpt>
      <trkpt lat="44.59237" lon="6.12464">
        <ele>988.6</ele>
        <time>2025-06-12T07:21:20Z</time>
      </trkpt>
      <trkpt lat="44.59237" lon="6.12467">
        <ele>988.8</ele>
        <time>2025-06-12T07:21:21Z</time>
      </trkpt>
      <trkpt lat="44.59238" lon="6.12471">
        <ele>988.8</ele>
        <time>2025-06-12T07:21:22Z</time>
      </trkpt>
      <trkpt lat="44.59238" lon="6.12474">
        <ele>989</ele>
        <time>2025-06-12T07:21:23Z</time>
      </trkpt>
      <trkpt lat="44.59239" lon="6.12477">
        <ele>989.2</ele>
        <time>2025-06-12T07:21:24Z</time>
      </trkpt>
      <trkpt lat="44.59239" lon="6.1248">
        <ele>989.4</ele>
        <time>2025-06-12T07:21:25Z</time>
      </trkpt>
      <trkpt lat="44.5924" lon="6.12483">
        <ele>989.6</ele>
        <time>2025-06-12T07:21:26Z</time>
      </trkpt>
      <trkpt lat="44.59241" lon="6.12486">
        <ele>989.8</ele>
        <time>2025-06-12T07:21:27Z</time>
      </trkpt>
      <trkpt lat="44.59241" lon="6.12493">
        <ele>990</ele>
        <time>2025-06-12T07:21:29Z</time>
      </trkpt>
      <trkpt lat="44.59242" lon="6.12497">
        <ele>990.2</ele>
        <time>2025-06-12T07:21:30Z</time>
      </trkpt>
      <trkpt lat="44.59242" lon="6.125">
        <ele>990.6</ele>
        <time>2025-06-12T07:21:31Z</time>
      </trkpt>
      <trkpt lat="44.59243" lon="6.12503">
        <ele>990.8</ele>
        <time>2025-06-12T07:21:32Z</time>
      </trkpt>
      <trkpt lat="44.59243" lon="6.12506">
        <ele>991</ele>
        <time>2025-06-12T07:21:33Z</time>
      </trkpt>
      <trkpt lat="44.59244" lon="6.1251">
        <ele>991.2</ele>
        <time>2025-06-12T07:21:34Z</time>
      </trkpt>
      <trkpt lat="44.59244" lon="6.12512">
        <ele>991.4</ele>
        <time>2025-06-12T07:21:35Z</time>
      </trkpt>
      <trkpt lat="44.59244" lon="6.12516">
        <ele>991.6</ele>
        <time>2025-06-12T07:21:36Z</time>
      </trkpt>
      <trkpt lat="44.59244" lon="6.12522">
        <ele>992</ele>
        <time>2025-06-12T07:21:38Z</time>
      </trkpt>
      <trkpt lat="44.59243" lon="6.12528">
        <ele>992.2</ele>
        <time>2025-06-12T07:21:40Z</time>
      </trkpt>
      <trkpt lat="44.59242" lon="6.12535">
        <ele>992.6</ele>
        <time>2025-06-12T07:21:42Z</time>
      </trkpt>
      <trkpt lat="44.59242" lon="6.12538">
        <ele>992.8</ele>
        <time>2025-06-12T07:21:43Z</time>
      </trkpt>
      <trkpt lat="44.59241" lon="6.12542">
        <ele>993</ele>
        <time>2025-06-12T07:21:44Z</time>
      </trkpt>
      <trkpt lat="44.59241" lon="6.12545">
        <ele>993.2</ele>
        <time>2025-06-12T07:21:45Z</time>
      </trkpt>
      <trkpt lat="44.59241" lon="6.12549">
        <ele>993.4</ele>
        <time>2025-06-12T07:21:46Z</time>
      </trkpt>
      <trkpt lat="44.5924" lon="6.12552">
        <ele>993.6</ele>
        <time>2025-06-12T07:21:47Z</time>
      </trkpt>
      <trkpt lat="44.5924" lon="6.12556">
        <ele>994</ele>
        <time>2025-06-12T07:21:48Z</time>
      </trkpt>
      <trkpt lat="44.59239" lon="6.12559">
        <ele>994.2</ele>
        <time>2025-06-12T07:21:49Z</time>
      </trkpt>
      <trkpt lat="44.59239" lon="6.12562">
        <ele>994.2</ele>
        <time>2025-06-12T07:21:50Z</time>
      </trkpt>
      <trkpt lat="44.59238" lon="6.12566">
        <ele>994.6</ele>
        <time>2025-06-12T07:21:51Z</time>
      </trkpt>
      <trkpt lat="44.59238" lon="6.1257">
        <ele>995.2</ele>
        <time>2025-06-12T07:21:52Z</time>
      </trkpt>
      <trkpt lat="44.59237" lon="6.12573">
        <ele>995.6</ele>
        <time>2025-06-12T07:21:53Z</time>
      </trkpt>
      <trkpt lat="44.59236" lon="6.12576">
        <ele>995.8</ele>
        <time>2025-06-12T07:21:54Z</time>
      </trkpt>
      <trkpt lat="44.59236" lon="6.12579">
        <ele>996</ele>
        <time>2025-06-12T07:21:55Z</time>
      </trkpt>
      <trkpt lat="44.59235" lon="6.12582">
        <ele>996</ele>
        <time>2025-06-12T07:21:56Z</time>
      </trkpt>
      <trkpt lat="44.59235" lon="6.12586">
        <ele>996.2</ele>
        <time>2025-06-12T07:21:57Z</time>
      </trkpt>
      <trkpt lat="44.59234" lon="6.12589">
        <ele>996.4</ele>
        <time>2025-06-12T07:21:58Z</time>
      </trkpt>
      <trkpt lat="44.59234" lon="6.12592">
        <ele>996.6</ele>
        <time>2025-06-12T07:21:59Z</time>
      </trkpt>
      <trkpt lat="44.59234" lon="6.12596">
        <ele>996.8</ele>
        <time>2025-06-12T07:22:00Z</time>
      </trkpt>
      <trkpt lat="44.59233" lon="6.12599">
        <ele>997</ele>
        <time>2025-06-12T07:22:01Z</time>
      </trkpt>
      <trkpt lat="44.59233" lon="6.12602">
        <ele>997.2</ele>
        <time>2025-06-12T07:22:02Z</time>
      </trkpt>
      <trkpt lat="44.59232" lon="6.12605">
        <ele>997.4</ele>
        <time>2025-06-12T07:22:03Z</time>
      </trkpt>
      <trkpt lat="44.59232" lon="6.12609">
        <ele>997.6</ele>
        <time>2025-06-12T07:22:04Z</time>
      </trkpt>
      <trkpt lat="44.59231" lon="6.12616">
        <ele>998</ele>
        <time>2025-06-12T07:22:06Z</time>
      </trkpt>
      <trkpt lat="44.59231" lon="6.12619">
        <ele>998</ele>
        <time>2025-06-12T07:22:07Z</time>
      </trkpt>
      <trkpt lat="44.59232" lon="6.12623">
        <ele>998.2</ele>
        <time>2025-06-12T07:22:08Z</time>
      </trkpt>
      <trkpt lat="44.59232" lon="6.12626">
        <ele>998.4</ele>
        <time>2025-06-12T07:22:09Z</time>
      </trkpt>
      <trkpt lat="44.59234" lon="6.12629">
        <ele>998.6</ele>
        <time>2025-06-12T07:22:10Z</time>
      </trkpt>
      <trkpt lat="44.59235" lon="6.12631">
        <ele>998.6</ele>
        <time>2025-06-12T07:22:11Z</time>
      </trkpt>
      <trkpt lat="44.59237" lon="6.12632">
        <ele>998.8</ele>
        <time>2025-06-12T07:22:12Z</time>
      </trkpt>
      <trkpt lat="44.59239" lon="6.12631">
        <ele>999</ele>
        <time>2025-06-12T07:22:13Z</time>
      </trkpt>
      <trkpt lat="44.59241" lon="6.1263">
        <ele>999</ele>
        <time>2025-06-12T07:22:14Z</time>
      </trkpt>
      <trkpt lat="44.59242" lon="6.12627">
        <ele>999.2</ele>
        <time>2025-06-12T07:22:15Z</time>
      </trkpt>
      <trkpt lat="44.59245" lon="6.12622">
        <ele>999.4</ele>
        <time>2025-06-12T07:22:17Z</time>
      </trkpt>
      <trkpt lat="44.59246" lon="6.1262">
        <ele>999.6</ele>
        <time>2025-06-12T07:22:18Z</time>
      </trkpt>
      <trkpt lat="44.59247" lon="6.12618">
        <ele>999.8</ele>
        <time>2025-06-12T07:22:19Z</time>
      </trkpt>
      <trkpt lat="44.59248" lon="6.12615">
        <ele>1000.2</ele>
        <time>2025-06-12T07:22:20Z</time>
      </trkpt>
      <trkpt lat="44.59249" lon="6.12614">
        <ele>1000.4</ele>
        <time>2025-06-12T07:22:21Z</time>
      </trkpt>
      <trkpt lat="44.59251" lon="6.12612">
        <ele>1000.6</ele>
        <time>2025-06-12T07:22:22Z</time>
      </trkpt>
      <trkpt lat="44.59252" lon="6.12609">
        <ele>1000.8</ele>
        <time>2025-06-12T07:22:23Z</time>
      </trkpt>
      <trkpt lat="44.59254" lon="6.12607">
        <ele>1001</ele>
        <time>2025-06-12T07:22:24Z</time>
      </trkpt>
      <trkpt lat="44.59257" lon="6.12602">
        <ele>1001.6</ele>
        <time>2025-06-12T07:22:26Z</time>
      </trkpt>
      <trkpt lat="44.5926" lon="6.12597">
        <ele>1002</ele>
        <time>2025-06-12T07:22:28Z</time>
      </trkpt>
      <trkpt lat="44.59262" lon="6.12594">
        <ele>1002</ele>
        <time>2025-06-12T07:22:29Z</time>
      </trkpt>
      <trkpt lat="44.59264" lon="6.12592">
        <ele>1002.2</ele>
        <time>2025-06-12T07:22:30Z</time>
      </trkpt>
      <trkpt lat="44.59266" lon="6.12591">
        <ele>1002.4</ele>
        <time>2025-06-12T07:22:31Z</time>
      </trkpt>
      <trkpt lat="44.59267" lon="6.12589">
        <ele>1002.4</ele>
        <time>2025-06-12T07:22:32Z</time>
      </trkpt>
      <trkpt lat="44.59269" lon="6.12586">
        <ele>1002.4</ele>
        <time>2025-06-12T07:22:33Z</time>
      </trkpt>
      <trkpt lat="44.5927" lon="6.12584">
        <ele>1002.6</ele>
        <time>2025-06-12T07:22:34Z</time>
      </trkpt>
      <trkpt lat="44.59272" lon="6.12581">
        <ele>1002.6</ele>
        <time>2025-06-12T07:22:35Z</time>
      </trkpt>
      <trkpt lat="44.59274" lon="6.12579">
        <ele>1002.8</ele>
        <time>2025-06-12T07:22:36Z</time>
      </trkpt>
      <trkpt lat="44.59276" lon="6.12578">
        <ele>1003</ele>
        <time>2025-06-12T07:22:37Z</time>
      </trkpt>
      <trkpt lat="44.59281" lon="6.12576">
        <ele>1003.4</ele>
        <time>2025-06-12T07:22:39Z</time>
      </trkpt>
      <trkpt lat="44.59286" lon="6.12575">
        <ele>1003.6</ele>
        <time>2025-06-12T07:22:41Z</time>
      </trkpt>
      <trkpt lat="44.5929" lon="6.12575">
        <ele>1004</ele>
        <time>2025-06-12T07:22:43Z</time>
      </trkpt>
      <trkpt lat="44.59293" lon="6.12575">
        <ele>1004.2</ele>
        <time>2025-06-12T07:22:44Z</time>
      </trkpt>
      <trkpt lat="44.59295" lon="6.12575">
        <ele>1004.4</ele>
        <time>2025-06-12T07:22:45Z</time>
      </trkpt>
      <trkpt lat="44.593" lon="6.12574">
        <ele>1005.2</ele>
        <time>2025-06-12T07:22:47Z</time>
      </trkpt>
      <trkpt lat="44.59305" lon="6.12572">
        <ele>1005.8</ele>
        <time>2025-06-12T07:22:49Z</time>
      </trkpt>
      <trkpt lat="44.59307" lon="6.12571">
        <ele>1006</ele>
        <time>2025-06-12T07:22:50Z</time>
      </trkpt>
      <trkpt lat="44.59308" lon="6.12569">
        <ele>1006.2</ele>
        <time>2025-06-12T07:22:51Z</time>
      </trkpt>
      <trkpt lat="44.5931" lon="6.12567">
        <ele>1006.2</ele>
        <time>2025-06-12T07:22:52Z</time>
      </trkpt>
      <trkpt lat="44.59312" lon="6.12564">
        <ele>1006.2</ele>
        <time>2025-06-12T07:22:53Z</time>
      </trkpt>
      <trkpt lat="44.59314" lon="6.12562">
        <ele>1006.6</ele>
        <time>2025-06-12T07:22:54Z</time>
      </trkpt>
      <trkpt lat="44.59316" lon="6.12559">
        <ele>1006.8</ele>
        <time>2025-06-12T07:22:55Z</time>
      </trkpt>
      <trkpt lat="44.59317" lon="6.12556">
        <ele>1007</ele>
        <time>2025-06-12T07:22:56Z</time>
      </trkpt>
      <trkpt lat="44.59319" lon="6.12553">
        <ele>1007.2</ele>
        <time>2025-06-12T07:22:57Z</time>
      </trkpt>
      <trkpt lat="44.5932" lon="6.1255">
        <ele>1007.4</ele>
        <time>2025-06-12T07:22:58Z</time>
      </trkpt>
      <trkpt lat="44.59322" lon="6.12543">
        <ele>1007.8</ele>
        <time>2025-06-12T07:23:00Z</time>
      </trkpt>
      <trkpt lat="44.59323" lon="6.12537">
        <ele>1008</ele>
        <time>2025-06-12T07:23:02Z</time>
      </trkpt>
      <trkpt lat="44.59323" lon="6.12534">
        <ele>1008</ele>
        <time>2025-06-12T07:23:03Z</time>
      </trkpt>
      <trkpt lat="44.59324" lon="6.1253">
        <ele>1008.2</ele>
        <time>2025-06-12T07:23:04Z</time>
      </trkpt>
      <trkpt lat="44.59324" lon="6.12527">
        <ele>1008.4</ele>
        <time>2025-06-12T07:23:05Z</time>
      </trkpt>
      <trkpt lat="44.59324" lon="6.12523">
        <ele>1008.6</ele>
        <time>2025-06-12T07:23:06Z</time>
      </trkpt>
      <trkpt lat="44.59324" lon="6.12519">
        <ele>1008.8</ele>
        <time>2025-06-12T07:23:07Z</time>
      </trkpt>
      <trkpt lat="44.59324" lon="6.12512">
        <ele>1009.2</ele>
        <time>2025-06-12T07:23:09Z</time>
      </trkpt>
      <trkpt lat="44.59325" lon="6.12509">
        <ele>1009.4</ele>
        <time>2025-06-12T07:23:10Z</time>
      </trkpt>
      <trkpt lat="44.59325" lon="6.12506">
        <ele>1009.6</ele>
        <time>2025-06-12T07:23:11Z</time>
      </trkpt>
      <trkpt lat="44.59325" lon="6.12502">
        <ele>1009.8</ele>
        <time>2025-06-12T07:23:12Z</time>
      </trkpt>
      <trkpt lat="44.59325" lon="6.12499">
        <ele>1010</ele>
        <time>2025-06-12T07:23:13Z</time>
      </trkpt>
      <trkpt lat="44.59325" lon="6.12496">
        <ele>1010.2</ele>
        <time>2025-06-12T07:23:14Z</time>
      </trkpt>
      <trkpt lat="44.59325" lon="6.12493">
        <ele>1010.6</ele>
        <time>2025-06-12T07:23:15Z</time>
      </trkpt>
      <trkpt lat="44.59325" lon="6.1249">
        <ele>1010.8</ele>
        <time>2025-06-12T07:23:16Z</time>
      </trkpt>
      <trkpt lat="44.59326" lon="6.12484">
        <ele>1011.2</ele>
        <time>2025-06-12T07:23:18Z</time>
      </trkpt>
      <trkpt lat="44.59326" lon="6.12478">
        <ele>1011.4</ele>
        <time>2025-06-12T07:23:20Z</time>
      </trkpt>
      <trkpt lat="44.59327" lon="6.12475">
        <ele>1011.6</ele>
        <time>2025-06-12T07:23:21Z</time>
      </trkpt>
      <trkpt lat="44.59327" lon="6.12471">
        <ele>1011.8</ele>
        <time>2025-06-12T07:23:22Z</time>
      </trkpt>
      <trkpt lat="44.59327" lon="6.12468">
        <ele>1012</ele>
        <time>2025-06-12T07:23:23Z</time>
      </trkpt>
      <trkpt lat="44.59327" lon="6.12464">
        <ele>1012</ele>
        <time>2025-06-12T07:23:24Z</time>
      </trkpt>
      <trkpt lat="44.59327" lon="6.12461">
        <ele>1012.2</ele>
        <time>2025-06-12T07:23:25Z</time>
      </trkpt>
      <trkpt lat="44.59328" lon="6.12454">
        <ele>1012.6</ele>
        <time>2025-06-12T07:23:27Z</time>
      </trkpt>
      <trkpt lat="44.59328" lon="6.1245">
        <ele>1012.8</ele>
        <time>2025-06-12T07:23:28Z</time>
      </trkpt>
      <trkpt lat="44.59328" lon="6.12447">
        <ele>1013</ele>
        <time>2025-06-12T07:23:29Z</time>
      </trkpt>
      <trkpt lat="44.59329" lon="6.12444">
        <ele>1013</ele>
        <time>2025-06-12T07:23:30Z</time>
      </trkpt>
      <trkpt lat="44.59329" lon="6.1244">
        <ele>1013.4</ele>
        <time>2025-06-12T07:23:31Z</time>
      </trkpt>
      <trkpt lat="44.59329" lon="6.12436">
        <ele>1013.6</ele>
        <time>2025-06-12T07:23:32Z</time>
      </trkpt>
      <trkpt lat="44.59329" lon="6.12433">
        <ele>1013.8</ele>
        <time>2025-06-12T07:23:33Z</time>
      </trkpt>
      <trkpt lat="44.5933" lon="6.1243">
        <ele>1014.2</ele>
        <time>2025-06-12T07:23:34Z</time>
      </trkpt>
      <trkpt lat="44.59331" lon="6.12423">
        <ele>1014.4</ele>
        <time>2025-06-12T07:23:36Z</time>
      </trkpt>
      <trkpt lat="44.59333" lon="6.12417">
        <ele>1014.8</ele>
        <time>2025-06-12T07:23:38Z</time>
      </trkpt>
      <trkpt lat="44.59334" lon="6.12414">
        <ele>1015</ele>
        <time>2025-06-12T07:23:39Z</time>
      </trkpt>
      <trkpt lat="44.59335" lon="6.12411">
        <ele>1015.2</ele>
        <time>2025-06-12T07:23:40Z</time>
      </trkpt>
      <trkpt lat="44.59336" lon="6.12408">
        <ele>1015.2</ele>
        <time>2025-06-12T07:23:41Z</time>
      </trkpt>
      <trkpt lat="44.59338" lon="6.12405">
        <ele>1015.4</ele>
        <time>2025-06-12T07:23:42Z</time>
      </trkpt>
      <trkpt lat="44.5934" lon="6.12402">
        <ele>1015.8</ele>
        <time>2025-06-12T07:23:43Z</time>
      </trkpt>
      <trkpt lat="44.59342" lon="6.124">
        <ele>1016</ele>
        <time>2025-06-12T07:23:44Z</time>
      </trkpt>
      <trkpt lat="44.59344" lon="6.12398">
        <ele>1016.2</ele>
        <time>2025-06-12T07:23:45Z</time>
      </trkpt>
      <trkpt lat="44.59348" lon="6.12395">
        <ele>1016.4</ele>
        <time>2025-06-12T07:23:47Z</time>
      </trkpt>
      <trkpt lat="44.59353" lon="6.12394">
        <ele>1016.8</ele>
        <time>2025-06-12T07:23:49Z</time>
      </trkpt>
      <trkpt lat="44.59355" lon="6.12394">
        <ele>1017</ele>
        <time>2025-06-12T07:23:50Z</time>
      </trkpt>
      <trkpt lat="44.59358" lon="6.12394">
        <ele>1017</ele>
        <time>2025-06-12T07:23:51Z</time>
      </trkpt>
      <trkpt lat="44.5936" lon="6.12395">
        <ele>1017.2</ele>
        <time>2025-06-12T07:23:52Z</time>
      </trkpt>
      <trkpt lat="44.59362" lon="6.12396">
        <ele>1017.4</ele>
        <time>2025-06-12T07:23:53Z</time>
      </trkpt>
      <trkpt lat="44.59365" lon="6.12397">
        <ele>1017.6</ele>
        <time>2025-06-12T07:23:54Z</time>
      </trkpt>
      <trkpt lat="44.59369" lon="6.124">
        <ele>1017.8</ele>
        <time>2025-06-12T07:23:56Z</time>
      </trkpt>
      <trkpt lat="44.59371" lon="6.12402">
        <ele>1018</ele>
        <time>2025-06-12T07:23:57Z</time>
      </trkpt>
      <trkpt lat="44.59373" lon="6.12404">
        <ele>1018</ele>
        <time>2025-06-12T07:23:58Z</time>
      </trkpt>
      <trkpt lat="44.59375" lon="6.12407">
        <ele>1018</ele>
        <time>2025-06-12T07:23:59Z</time>
      </trkpt>
      <trkpt lat="44.59377" lon="6.1241">
        <ele>1018.2</ele>
        <time>2025-06-12T07:24:00Z</time>
      </trkpt>
      <trkpt lat="44.59378" lon="6.12413">
        <ele>1018.2</ele>
        <time>2025-06-12T07:24:01Z</time>
      </trkpt>
      <trkpt lat="44.5938" lon="6.1242">
        <ele>1018.4</ele>
        <time>2025-06-12T07:24:03Z</time>
      </trkpt>
      <trkpt lat="44.59382" lon="6.12427">
        <ele>1018.6</ele>
        <time>2025-06-12T07:24:05Z</time>
      </trkpt>
      <trkpt lat="44.59383" lon="6.12434">
        <ele>1018.6</ele>
        <time>2025-06-12T07:24:07Z</time>
      </trkpt>
      <trkpt lat="44.59383" lon="6.12437">
        <ele>1018.8</ele>
        <time>2025-06-12T07:24:08Z</time>
      </trkpt>
      <trkpt lat="44.59384" lon="6.12441">
        <ele>1018.8</ele>
        <time>2025-06-12T07:24:09Z</time>
      </trkpt>
      <trkpt lat="44.59384" lon="6.12445">
        <ele>1019</ele>
        <time>2025-06-12T07:24:10Z</time>
      </trkpt>
      <trkpt lat="44.59384" lon="6.12448">
        <ele>1019.2</ele>
        <time>2025-06-12T07:24:11Z</time>
      </trkpt>
      <trkpt lat="44.59384" lon="6.12452">
        <ele>1019.4</ele>
        <time>2025-06-12T07:24:12Z</time>
      </trkpt>
      <trkpt lat="44.59384" lon="6.12455">
        <ele>1019.6</ele>
        <time>2025-06-12T07:24:13Z</time>
      </trkpt>
      <trkpt lat="44.59384" lon="6.12459">
        <ele>1019.6</ele>
        <time>2025-06-12T07:24:14Z</time>
      </trkpt>
      <trkpt lat="44.59385" lon="6.12466">
        <ele>1019.8</ele>
        <time>2025-06-12T07:24:16Z</time>
      </trkpt>
      <trkpt lat="44.59385" lon="6.12473">
        <ele>1020</ele>
        <time>2025-06-12T07:24:18Z</time>
      </trkpt>
      <trkpt lat="44.59386" lon="6.12479">
        <ele>1020.2</ele>
        <time>2025-06-12T07:24:20Z</time>
      </trkpt>
      <trkpt lat="44.59387" lon="6.12483">
        <ele>1020.4</ele>
        <time>2025-06-12T07:24:21Z</time>
      </trkpt>
      <trkpt lat="44.59387" lon="6.12486">
        <ele>1020.4</ele>
        <time>2025-06-12T07:24:22Z</time>
      </trkpt>
      <trkpt lat="44.59387" lon="6.12489">
        <ele>1020.6</ele>
        <time>2025-06-12T07:24:23Z</time>
      </trkpt>
      <trkpt lat="44.59388" lon="6.12492">
        <ele>1020.8</ele>
        <time>2025-06-12T07:24:24Z</time>
      </trkpt>
      <trkpt lat="44.59388" lon="6.12496">
        <ele>1021</ele>
        <time>2025-06-12T07:24:25Z</time>
      </trkpt>
      <trkpt lat="44.59389" lon="6.12499">
        <ele>1021</ele>
        <time>2025-06-12T07:24:26Z</time>
      </trkpt>
      <trkpt lat="44.59389" lon="6.12502">
        <ele>1021.2</ele>
        <time>2025-06-12T07:24:27Z</time>
      </trkpt>
      <trkpt lat="44.59389" lon="6.12506">
        <ele>1021.6</ele>
        <time>2025-06-12T07:24:28Z</time>
      </trkpt>
      <trkpt lat="44.59389" lon="6.12509">
        <ele>1021.8</ele>
        <time>2025-06-12T07:24:29Z</time>
      </trkpt>
      <trkpt lat="44.5939" lon="6.12516">
        <ele>1022</ele>
        <time>2025-06-12T07:24:31Z</time>
      </trkpt>
      <trkpt lat="44.59391" lon="6.12522">
        <ele>1022.4</ele>
        <time>2025-06-12T07:24:33Z</time>
      </trkpt>
      <trkpt lat="44.59391" lon="6.12525">
        <ele>1022.6</ele>
        <time>2025-06-12T07:24:34Z</time>
      </trkpt>
      <trkpt lat="44.59391" lon="6.12529">
        <ele>1022.8</ele>
        <time>2025-06-12T07:24:35Z</time>
      </trkpt>
      <trkpt lat="44.59392" lon="6.12532">
        <ele>1023</ele>
        <time>2025-06-12T07:24:36Z</time>
      </trkpt>
      <trkpt lat="44.59392" lon="6.12535">
        <ele>1023.2</ele>
        <time>2025-06-12T07:24:37Z</time>
      </trkpt>
      <trkpt lat="44.59393" lon="6.12538">
        <ele>1023.4</ele>
        <time>2025-06-12T07:24:38Z</time>
      </trkpt>
      <trkpt lat="44.59393" lon="6.12541">
        <ele>1023.8</ele>
        <time>2025-06-12T07:24:39Z</time>
      </trkpt>
      <trkpt lat="44.59394" lon="6.12544">
        <ele>1024</ele>
        <time>2025-06-12T07:24:40Z</time>
      </trkpt>
      <trkpt lat="44.59394" lon="6.12547">
        <ele>1024.2</ele>
        <time>2025-06-12T07:24:41Z</time>
      </trkpt>
      <trkpt lat="44.59394" lon="6.1255">
        <ele>1024.4</ele>
        <time>2025-06-12T07:24:42Z</time>
      </trkpt>
      <trkpt lat="44.59395" lon="6.12554">
        <ele>1024.6</ele>
        <time>2025-06-12T07:24:43Z</time>
      </trkpt>
      <trkpt lat="44.59395" lon="6.12557">
        <ele>1024.8</ele>
        <time>2025-06-12T07:24:44Z</time>
      </trkpt>
      <trkpt lat="44.59396" lon="6.12563">
        <ele>1025.2</ele>
        <time>2025-06-12T07:24:46Z</time>
      </trkpt>
      <trkpt lat="44.59397" lon="6.12569">
        <ele>1025.4</ele>
        <time>2025-06-12T07:24:48Z</time>
      </trkpt>
      <trkpt lat="44.59397" lon="6.12573">
        <ele>1025.6</ele>
        <time>2025-06-12T07:24:49Z</time>
      </trkpt>
      <trkpt lat="44.59398" lon="6.12576">
        <ele>1025.8</ele>
        <time>2025-06-12T07:24:50Z</time>
      </trkpt>
      <trkpt lat="44.59398" lon="6.12579">
        <ele>1025.8</ele>
        <time>2025-06-12T07:24:51Z</time>
      </trkpt>
      <trkpt lat="44.59398" lon="6.12582">
        <ele>1026</ele>
        <time>2025-06-12T07:24:52Z</time>
      </trkpt>
      <trkpt lat="44.59398" lon="6.12585">
        <ele>1026.2</ele>
        <time>2025-06-12T07:24:53Z</time>
      </trkpt>
      <trkpt lat="44.59398" lon="6.12592">
        <ele>1026.6</ele>
        <time>2025-06-12T07:24:55Z</time>
      </trkpt>
      <trkpt lat="44.59399" lon="6.12596">
        <ele>1026.8</ele>
        <time>2025-06-12T07:24:56Z</time>
      </trkpt>
      <trkpt lat="44.59399" lon="6.12599">
        <ele>1027</ele>
        <time>2025-06-12T07:24:57Z</time>
      </trkpt>
      <trkpt lat="44.59399" lon="6.12602">
        <ele>1027.2</ele>
        <time>2025-06-12T07:24:58Z</time>
      </trkpt>
      <trkpt lat="44.594" lon="6.12605">
        <ele>1027.2</ele>
        <time>2025-06-12T07:24:59Z</time>
      </trkpt>
      <trkpt lat="44.594" lon="6.12608">
        <ele>1027.4</ele>
        <time>2025-06-12T07:25:00Z</time>
      </trkpt>
      <trkpt lat="44.594" lon="6.12611">
        <ele>1027.6</ele>
        <time>2025-06-12T07:25:01Z</time>
      </trkpt>
      <trkpt lat="44.594" lon="6.12613">
        <ele>1027.8</ele>
        <time>2025-06-12T07:25:02Z</time>
      </trkpt>
      <trkpt lat="44.594" lon="6.12616">
        <ele>1028</ele>
        <time>2025-06-12T07:25:03Z</time>
      </trkpt>
      <trkpt lat="44.594" lon="6.12619">
        <ele>1028.2</ele>
        <time>2025-06-12T07:25:04Z</time>
      </trkpt>
      <trkpt lat="44.594" lon="6.12625">
        <ele>1028.6</ele>
        <time>2025-06-12T07:25:06Z</time>
      </trkpt>
      <trkpt lat="44.594" lon="6.12629">
        <ele>1028.6</ele>
        <time>2025-06-12T07:25:07Z</time>
      </trkpt>
      <trkpt lat="44.59401" lon="6.12632">
        <ele>1028.8</ele>
        <time>2025-06-12T07:25:08Z</time>
      </trkpt>
      <trkpt lat="44.59401" lon="6.12635">
        <ele>1029</ele>
        <time>2025-06-12T07:25:09Z</time>
      </trkpt>
      <trkpt lat="44.59401" lon="6.12639">
        <ele>1029</ele>
        <time>2025-06-12T07:25:10Z</time>
      </trkpt>
      <trkpt lat="44.59401" lon="6.12642">
        <ele>1029.2</ele>
        <time>2025-06-12T07:25:11Z</time>
      </trkpt>
      <trkpt lat="44.59401" lon="6.12649">
        <ele>1029.6</ele>
        <time>2025-06-12T07:25:13Z</time>
      </trkpt>
      <trkpt lat="44.59402" lon="6.12656">
        <ele>1030</ele>
        <time>2025-06-12T07:25:15Z</time>
      </trkpt>
      <trkpt lat="44.59402" lon="6.12659">
        <ele>1030.2</ele>
        <time>2025-06-12T07:25:16Z</time>
      </trkpt>
      <trkpt lat="44.59403" lon="6.12662">
        <ele>1030.4</ele>
        <time>2025-06-12T07:25:17Z</time>
      </trkpt>
      <trkpt lat="44.59403" lon="6.12666">
        <ele>1030.6</ele>
        <time>2025-06-12T07:25:18Z</time>
      </trkpt>
      <trkpt lat="44.59403" lon="6.12669">
        <ele>1030.8</ele>
        <time>2025-06-12T07:25:19Z</time>
      </trkpt>
      <trkpt lat="44.59404" lon="6.12673">
        <ele>1031</ele>
        <time>2025-06-12T07:25:20Z</time>
      </trkpt>
      <trkpt lat="44.59404" lon="6.12676">
        <ele>1031.2</ele>
        <time>2025-06-12T07:25:21Z</time>
      </trkpt>
      <trkpt lat="44.59405" lon="6.12679">
        <ele>1031.6</ele>
        <time>2025-06-12T07:25:22Z</time>
      </trkpt>
      <trkpt lat="44.59405" lon="6.12683">
        <ele>1031.8</ele>
        <time>2025-06-12T07:25:23Z</time>
      </trkpt>
      <trkpt lat="44.59406" lon="6.12686">
        <ele>1032</ele>
        <time>2025-06-12T07:25:24Z</time>
      </trkpt>
      <trkpt lat="44.59406" lon="6.12689">
        <ele>1032.2</ele>
        <time>2025-06-12T07:25:25Z</time>
      </trkpt>
      <trkpt lat="44.59407" lon="6.12693">
        <ele>1032.4</ele>
        <time>2025-06-12T07:25:26Z</time>
      </trkpt>
      <trkpt lat="44.59407" lon="6.12696">
        <ele>1032.6</ele>
        <time>2025-06-12T07:25:27Z</time>
      </trkpt>
      <trkpt lat="44.59408" lon="6.127">
        <ele>1032.8</ele>
        <time>2025-06-12T07:25:28Z</time>
      </trkpt>
      <trkpt lat="44.59409" lon="6.12703">
        <ele>1032.8</ele>
        <time>2025-06-12T07:25:29Z</time>
      </trkpt>
      <trkpt lat="44.59409" lon="6.12706">
        <ele>1032.8</ele>
        <time>2025-06-12T07:25:30Z</time>
      </trkpt>
      <trkpt lat="44.5941" lon="6.1271">
        <ele>1033</ele>
        <time>2025-06-12T07:25:31Z</time>
      </trkpt>
      <trkpt lat="44.5941" lon="6.12713">
        <ele>1033.2</ele>
        <time>2025-06-12T07:25:32Z</time>
      </trkpt>
      <trkpt lat="44.59411" lon="6.12717">
        <ele>1033.4</ele>
        <time>2025-06-12T07:25:33Z</time>
      </trkpt>
      <trkpt lat="44.59412" lon="6.12723">
        <ele>1034</ele>
        <time>2025-06-12T07:25:35Z</time>
      </trkpt>
      <trkpt lat="44.59412" lon="6.12726">
        <ele>1034.2</ele>
        <time>2025-06-12T07:25:36Z</time>
      </trkpt>
      <trkpt lat="44.59413" lon="6.1273">
        <ele>1034.4</ele>
        <time>2025-06-12T07:25:37Z</time>
      </trkpt>
      <trkpt lat="44.59414" lon="6.12733">
        <ele>1034.6</ele>
        <time>2025-06-12T07:25:38Z</time>
      </trkpt>
      <trkpt lat="44.59415" lon="6.12736">
        <ele>1034.6</ele>
        <time>2025-06-12T07:25:39Z</time>
      </trkpt>
      <trkpt lat="44.59415" lon="6.12739">
        <ele>1034.8</ele>
        <time>2025-06-12T07:25:40Z</time>
      </trkpt>
      <trkpt lat="44.59416" lon="6.12746">
        <ele>1035.2</ele>
        <time>2025-06-12T07:25:42Z</time>
      </trkpt>
      <trkpt lat="44.59417" lon="6.12753">
        <ele>1035.6</ele>
        <time>2025-06-12T07:25:44Z</time>
      </trkpt>
      <trkpt lat="44.59418" lon="6.12756">
        <ele>1035.8</ele>
        <time>2025-06-12T07:25:45Z</time>
      </trkpt>
      <trkpt lat="44.59419" lon="6.1276">
        <ele>1036</ele>
        <time>2025-06-12T07:25:46Z</time>
      </trkpt>
      <trkpt lat="44.59419" lon="6.12763">
        <ele>1036.4</ele>
        <time>2025-06-12T07:25:47Z</time>
      </trkpt>
      <trkpt lat="44.5942" lon="6.12766">
        <ele>1036.6</ele>
        <time>2025-06-12T07:25:48Z</time>
      </trkpt>
      <trkpt lat="44.59421" lon="6.1277">
        <ele>1036.8</ele>
        <time>2025-06-12T07:25:49Z</time>
      </trkpt>
      <trkpt lat="44.59421" lon="6.12773">
        <ele>1037</ele>
        <time>2025-06-12T07:25:50Z</time>
      </trkpt>
      <trkpt lat="44.59422" lon="6.12777">
        <ele>1037.2</ele>
        <time>2025-06-12T07:25:51Z</time>
      </trkpt>
      <trkpt lat="44.59423" lon="6.12783">
        <ele>1037.6</ele>
        <time>2025-06-12T07:25:53Z</time>
      </trkpt>
      <trkpt lat="44.59424" lon="6.1279">
        <ele>1038</ele>
        <time>2025-06-12T07:25:55Z</time>
      </trkpt>
      <trkpt lat="44.59425" lon="6.12797">
        <ele>1038.4</ele>
        <time>2025-06-12T07:25:57Z</time>
      </trkpt>
      <trkpt lat="44.59425" lon="6.128">
        <ele>1038.6</ele>
        <time>2025-06-12T07:25:58Z</time>
      </trkpt>
      <trkpt lat="44.59426" lon="6.12804">
        <ele>1039</ele>
        <time>2025-06-12T07:25:59Z</time>
      </trkpt>
      <trkpt lat="44.59426" lon="6.12807">
        <ele>1039.2</ele>
        <time>2025-06-12T07:26:00Z</time>
      </trkpt>
      <trkpt lat="44.59426" lon="6.1281">
        <ele>1039.4</ele>
        <time>2025-06-12T07:26:01Z</time>
      </trkpt>
      <trkpt lat="44.59426" lon="6.12814">
        <ele>1039.8</ele>
        <time>2025-06-12T07:26:02Z</time>
      </trkpt>
      <trkpt lat="44.59427" lon="6.12817">
        <ele>1040</ele>
        <time>2025-06-12T07:26:03Z</time>
      </trkpt>
      <trkpt lat="44.59427" lon="6.12821">
        <ele>1040.4</ele>
        <time>2025-06-12T07:26:04Z</time>
      </trkpt>
      <trkpt lat="44.59427" lon="6.12824">
        <ele>1040.6</ele>
        <time>2025-06-12T07:26:05Z</time>
      </trkpt>
      <trkpt lat="44.59427" lon="6.12827">
        <ele>1040.8</ele>
        <time>2025-06-12T07:26:06Z</time>
      </trkpt>
      <trkpt lat="44.59428" lon="6.12834">
        <ele>1041.2</ele>
        <time>2025-06-12T07:26:08Z</time>
      </trkpt>
      <trkpt lat="44.59428" lon="6.12837">
        <ele>1041.4</ele>
        <time>2025-06-12T07:26:09Z</time>
      </trkpt>
      <trkpt lat="44.59428" lon="6.1284">
        <ele>1041.6</ele>
        <time>2025-06-12T07:26:10Z</time>
      </trkpt>
      <trkpt lat="44.59429" lon="6.12844">
        <ele>1041.6</ele>
        <time>2025-06-12T07:26:11Z</time>
      </trkpt>
      <trkpt lat="44.59429" lon="6.12847">
        <ele>1041.8</ele>
        <time>2025-06-12T07:26:12Z</time>
      </trkpt>
      <trkpt lat="44.5943" lon="6.1285">
        <ele>1042</ele>
        <time>2025-06-12T07:26:13Z</time>
      </trkpt>
      <trkpt lat="44.5943" lon="6.12853">
        <ele>1042.2</ele>
        <time>2025-06-12T07:26:14Z</time>
      </trkpt>
      <trkpt lat="44.59431" lon="6.12856">
        <ele>1042.4</ele>
        <time>2025-06-12T07:26:15Z</time>
      </trkpt>
      <trkpt lat="44.59432" lon="6.12859">
        <ele>1042.6</ele>
        <time>2025-06-12T07:26:16Z</time>
      </trkpt>
      <trkpt lat="44.59432" lon="6.12863">
        <ele>1042.6</ele>
        <time>2025-06-12T07:26:17Z</time>
      </trkpt>
      <trkpt lat="44.59433" lon="6.12866">
        <ele>1042.8</ele>
        <time>2025-06-12T07:26:18Z</time>
      </trkpt>
      <trkpt lat="44.59434" lon="6.12869">
        <ele>1043</ele>
        <time>2025-06-12T07:26:19Z</time>
      </trkpt>
      <trkpt lat="44.59435" lon="6.12876">
        <ele>1043.4</ele>
        <time>2025-06-12T07:26:21Z</time>
      </trkpt>
      <trkpt lat="44.59436" lon="6.12879">
        <ele>1043.6</ele>
        <time>2025-06-12T07:26:22Z</time>
      </trkpt>
      <trkpt lat="44.59437" lon="6.12882">
        <ele>1044</ele>
        <time>2025-06-12T07:26:23Z</time>
      </trkpt>
      <trkpt lat="44.59438" lon="6.12889">
        <ele>1044.4</ele>
        <time>2025-06-12T07:26:25Z</time>
      </trkpt>
      <trkpt lat="44.59439" lon="6.12892">
        <ele>1044.6</ele>
        <time>2025-06-12T07:26:26Z</time>
      </trkpt>
      <trkpt lat="44.5944" lon="6.12895">
        <ele>1044.8</ele>
        <time>2025-06-12T07:26:27Z</time>
      </trkpt>
      <trkpt lat="44.59441" lon="6.12898">
        <ele>1044.8</ele>
        <time>2025-06-12T07:26:28Z</time>
      </trkpt>
      <trkpt lat="44.59441" lon="6.12901">
        <ele>1045.2</ele>
        <time>2025-06-12T07:26:29Z</time>
      </trkpt>
      <trkpt lat="44.59442" lon="6.12904">
        <ele>1045.4</ele>
        <time>2025-06-12T07:26:30Z</time>
      </trkpt>
      <trkpt lat="44.59443" lon="6.12907">
        <ele>1045.6</ele>
        <time>2025-06-12T07:26:31Z</time>
      </trkpt>
      <trkpt lat="44.59444" lon="6.1291">
        <ele>1045.8</ele>
        <time>2025-06-12T07:26:32Z</time>
      </trkpt>
      <trkpt lat="44.59445" lon="6.12913">
        <ele>1046.2</ele>
        <time>2025-06-12T07:26:33Z</time>
      </trkpt>
      <trkpt lat="44.59446" lon="6.12916">
        <ele>1046.4</ele>
        <time>2025-06-12T07:26:34Z</time>
      </trkpt>
      <trkpt lat="44.59448" lon="6.12922">
        <ele>1046.8</ele>
        <time>2025-06-12T07:26:36Z</time>
      </trkpt>
      <trkpt lat="44.5945" lon="6.12928">
        <ele>1047.2</ele>
        <time>2025-06-12T07:26:38Z</time>
      </trkpt>
      <trkpt lat="44.59453" lon="6.12934">
        <ele>1047.6</ele>
        <time>2025-06-12T07:26:40Z</time>
      </trkpt>
      <trkpt lat="44.59454" lon="6.12937">
        <ele>1047.8</ele>
        <time>2025-06-12T07:26:41Z</time>
      </trkpt>
      <trkpt lat="44.59455" lon="6.1294">
        <ele>1048</ele>
        <time>2025-06-12T07:26:42Z</time>
      </trkpt>
      <trkpt lat="44.59456" lon="6.12943">
        <ele>1048.2</ele>
        <time>2025-06-12T07:26:43Z</time>
      </trkpt>
      <trkpt lat="44.59457" lon="6.12946">
        <ele>1048.4</ele>
        <time>2025-06-12T07:26:44Z</time>
      </trkpt>
      <trkpt lat="44.59458" lon="6.12949">
        <ele>1048.6</ele>
        <time>2025-06-12T07:26:45Z</time>
      </trkpt>
      <trkpt lat="44.5946" lon="6.12952">
        <ele>1048.8</ele>
        <time>2025-06-12T07:26:46Z</time>
      </trkpt>
      <trkpt lat="44.59461" lon="6.12955">
        <ele>1049</ele>
        <time>2025-06-12T07:26:47Z</time>
      </trkpt>
      <trkpt lat="44.59462" lon="6.12957">
        <ele>1049</ele>
        <time>2025-06-12T07:26:48Z</time>
      </trkpt>
      <trkpt lat="44.59464" lon="6.1296">
        <ele>1049.4</ele>
        <time>2025-06-12T07:26:49Z</time>
      </trkpt>
      <trkpt lat="44.59465" lon="6.12962">
        <ele>1049.4</ele>
        <time>2025-06-12T07:26:50Z</time>
      </trkpt>
      <trkpt lat="44.59466" lon="6.12965">
        <ele>1049.6</ele>
        <time>2025-06-12T07:26:51Z</time>
      </trkpt>
      <trkpt lat="44.59467" lon="6.12968">
        <ele>1049.8</ele>
        <time>2025-06-12T07:26:52Z</time>
      </trkpt>
      <trkpt lat="44.59468" lon="6.12971">
        <ele>1049.8</ele>
        <time>2025-06-12T07:26:53Z</time>
      </trkpt>
      <trkpt lat="44.5947" lon="6.12974">
        <ele>1049.8</ele>
        <time>2025-06-12T07:26:54Z</time>
      </trkpt>
      <trkpt lat="44.59471" lon="6.12977">
        <ele>1050</ele>
        <time>2025-06-12T07:26:55Z</time>
      </trkpt>
      <trkpt lat="44.59473" lon="6.12982">
        <ele>1050.4</ele>
        <time>2025-06-12T07:26:57Z</time>
      </trkpt>
      <trkpt lat="44.59476" lon="6.12988">
        <ele>1050.6</ele>
        <time>2025-06-12T07:26:59Z</time>
      </trkpt>
      <trkpt lat="44.59477" lon="6.12991">
        <ele>1050.8</ele>
        <time>2025-06-12T07:27:00Z</time>
      </trkpt>
      <trkpt lat="44.59478" lon="6.12994">
        <ele>1051</ele>
        <time>2025-06-12T07:27:01Z</time>
      </trkpt>
      <trkpt lat="44.59479" lon="6.12996">
        <ele>1051.2</ele>
        <time>2025-06-12T07:27:02Z</time>
      </trkpt>
      <trkpt lat="44.5948" lon="6.12999">
        <ele>1051.4</ele>
        <time>2025-06-12T07:27:03Z</time>
      </trkpt>
      <trkpt lat="44.59482" lon="6.13002">
        <ele>1051.6</ele>
        <time>2025-06-12T07:27:04Z</time>
      </trkpt>
      <trkpt lat="44.59483" lon="6.13005">
        <ele>1051.6</ele>
        <time>2025-06-12T07:27:05Z</time>
      </trkpt>
      <trkpt lat="44.59484" lon="6.13007">
        <ele>1051.8</ele>
        <time>2025-06-12T07:27:06Z</time>
      </trkpt>
      <trkpt lat="44.59485" lon="6.1301">
        <ele>1052</ele>
        <time>2025-06-12T07:27:07Z</time>
      </trkpt>
      <trkpt lat="44.59486" lon="6.13013">
        <ele>1052.4</ele>
        <time>2025-06-12T07:27:08Z</time>
      </trkpt>
      <trkpt lat="44.59488" lon="6.13016">
        <ele>1052.6</ele>
        <time>2025-06-12T07:27:09Z</time>
      </trkpt>
      <trkpt lat="44.59489" lon="6.13019">
        <ele>1052.8</ele>
        <time>2025-06-12T07:27:10Z</time>
      </trkpt>
      <trkpt lat="44.5949" lon="6.13021">
        <ele>1053</ele>
        <time>2025-06-12T07:27:11Z</time>
      </trkpt>
      <trkpt lat="44.59491" lon="6.13024">
        <ele>1053.2</ele>
        <time>2025-06-12T07:27:12Z</time>
      </trkpt>
      <trkpt lat="44.59492" lon="6.13027">
        <ele>1053.4</ele>
        <time>2025-06-12T07:27:13Z</time>
      </trkpt>
      <trkpt lat="44.59494" lon="6.1303">
        <ele>1053.6</ele>
        <time>2025-06-12T07:27:14Z</time>
      </trkpt>
      <trkpt lat="44.59495" lon="6.13033">
        <ele>1053.8</ele>
        <time>2025-06-12T07:27:15Z</time>
      </trkpt>
      <trkpt lat="44.59497" lon="6.13039">
        <ele>1054.2</ele>
        <time>2025-06-12T07:27:17Z</time>
      </trkpt>
      <trkpt lat="44.59498" lon="6.13042">
        <ele>1054.6</ele>
        <time>2025-06-12T07:27:18Z</time>
      </trkpt>
      <trkpt lat="44.59499" lon="6.13045">
        <ele>1054.8</ele>
        <time>2025-06-12T07:27:19Z</time>
      </trkpt>
      <trkpt lat="44.595" lon="6.13048">
        <ele>1054.8</ele>
        <time>2025-06-12T07:27:20Z</time>
      </trkpt>
      <trkpt lat="44.59501" lon="6.13051">
        <ele>1055</ele>
        <time>2025-06-12T07:27:21Z</time>
      </trkpt>
      <trkpt lat="44.59502" lon="6.13054">
        <ele>1055.2</ele>
        <time>2025-06-12T07:27:22Z</time>
      </trkpt>
      <trkpt lat="44.59502" lon="6.13058">
        <ele>1055.4</ele>
        <time>2025-06-12T07:27:23Z</time>
      </trkpt>
      <trkpt lat="44.59503" lon="6.13061">
        <ele>1055.6</ele>
        <time>2025-06-12T07:27:24Z</time>
      </trkpt>
      <trkpt lat="44.59504" lon="6.13067">
        <ele>1056.2</ele>
        <time>2025-06-12T07:27:26Z</time>
      </trkpt>
      <trkpt lat="44.59505" lon="6.13071">
        <ele>1056.4</ele>
        <time>2025-06-12T07:27:27Z</time>
      </trkpt>
      <trkpt lat="44.59505" lon="6.13074">
        <ele>1056.6</ele>
        <time>2025-06-12T07:27:28Z</time>
      </trkpt>
      <trkpt lat="44.59505" lon="6.13077">
        <ele>1056.6</ele>
        <time>2025-06-12T07:27:29Z</time>
      </trkpt>
      <trkpt lat="44.59506" lon="6.1308">
        <ele>1056.8</ele>
        <time>2025-06-12T07:27:30Z</time>
      </trkpt>
      <trkpt lat="44.59506" lon="6.13083">
        <ele>1057</ele>
        <time>2025-06-12T07:27:31Z</time>
      </trkpt>
      <trkpt lat="44.59507" lon="6.1309">
        <ele>1057.6</ele>
        <time>2025-06-12T07:27:33Z</time>
      </trkpt>
      <trkpt lat="44.59508" lon="6.13093">
        <ele>1057.6</ele>
        <time>2025-06-12T07:27:34Z</time>
      </trkpt>
      <trkpt lat="44.59508" lon="6.13096">
        <ele>1058</ele>
        <time>2025-06-12T07:27:35Z</time>
      </trkpt>
      <trkpt lat="44.59509" lon="6.13099">
        <ele>1058</ele>
        <time>2025-06-12T07:27:36Z</time>
      </trkpt>
      <trkpt lat="44.59509" lon="6.13103">
        <ele>1058.2</ele>
        <time>2025-06-12T07:27:37Z</time>
      </trkpt>
      <trkpt lat="44.5951" lon="6.13106">
        <ele>1058.6</ele>
        <time>2025-06-12T07:27:38Z</time>
      </trkpt>
      <trkpt lat="44.5951" lon="6.13109">
        <ele>1058.6</ele>
        <time>2025-06-12T07:27:39Z</time>
      </trkpt>
      <trkpt lat="44.59511" lon="6.13112">
        <ele>1058.8</ele>
        <time>2025-06-12T07:27:40Z</time>
      </trkpt>
      <trkpt lat="44.59511" lon="6.13116">
        <ele>1059</ele>
        <time>2025-06-12T07:27:41Z</time>
      </trkpt>
      <trkpt lat="44.59512" lon="6.13119">
        <ele>1059.2</ele>
        <time>2025-06-12T07:27:42Z</time>
      </trkpt>
      <trkpt lat="44.59512" lon="6.13122">
        <ele>1059.4</ele>
        <time>2025-06-12T07:27:43Z</time>
      </trkpt>
      <trkpt lat="44.59512" lon="6.13125">
        <ele>1059.4</ele>
        <time>2025-06-12T07:27:44Z</time>
      </trkpt>
      <trkpt lat="44.59513" lon="6.13128">
        <ele>1059.8</ele>
        <time>2025-06-12T07:27:45Z</time>
      </trkpt>
      <trkpt lat="44.59513" lon="6.13132">
        <ele>1060</ele>
        <time>2025-06-12T07:27:46Z</time>
      </trkpt>
      <trkpt lat="44.59514" lon="6.13135">
        <ele>1060.2</ele>
        <time>2025-06-12T07:27:47Z</time>
      </trkpt>
      <trkpt lat="44.59514" lon="6.13138">
        <ele>1060.4</ele>
        <time>2025-06-12T07:27:48Z</time>
      </trkpt>
      <trkpt lat="44.59514" lon="6.13141">
        <ele>1060.6</ele>
        <time>2025-06-12T07:27:49Z</time>
      </trkpt>
      <trkpt lat="44.59515" lon="6.13144">
        <ele>1061</ele>
        <time>2025-06-12T07:27:50Z</time>
      </trkpt>
      <trkpt lat="44.59515" lon="6.13147">
        <ele>1061.2</ele>
        <time>2025-06-12T07:27:51Z</time>
      </trkpt>
      <trkpt lat="44.59515" lon="6.1315">
        <ele>1061.6</ele>
        <time>2025-06-12T07:27:52Z</time>
      </trkpt>
      <trkpt lat="44.59516" lon="6.13154">
        <ele>1061.8</ele>
        <time>2025-06-12T07:27:53Z</time>
      </trkpt>
      <trkpt lat="44.59516" lon="6.13157">
        <ele>1062.2</ele>
        <time>2025-06-12T07:27:54Z</time>
      </trkpt>
      <trkpt lat="44.59516" lon="6.13163">
        <ele>1062.6</ele>
        <time>2025-06-12T07:27:56Z</time>
      </trkpt>
      <trkpt lat="44.59516" lon="6.13166">
        <ele>1062.8</ele>
        <time>2025-06-12T07:27:57Z</time>
      </trkpt>
      <trkpt lat="44.59516" lon="6.1317">
        <ele>1063</ele>
        <time>2025-06-12T07:27:58Z</time>
      </trkpt>
      <trkpt lat="44.59516" lon="6.13173">
        <ele>1063.2</ele>
        <time>2025-06-12T07:27:59Z</time>
      </trkpt>
      <trkpt lat="44.59516" lon="6.13176">
        <ele>1063.4</ele>
        <time>2025-06-12T07:28:00Z</time>
      </trkpt>
      <trkpt lat="44.59516" lon="6.13179">
        <ele>1063.6</ele>
        <time>2025-06-12T07:28:01Z</time>
      </trkpt>
      <trkpt lat="44.59516" lon="6.13182">
        <ele>1063.6</ele>
        <time>2025-06-12T07:28:02Z</time>
      </trkpt>
      <trkpt lat="44.59516" lon="6.13186">
        <ele>1063.8</ele>
        <time>2025-06-12T07:28:03Z</time>
      </trkpt>
      <trkpt lat="44.59515" lon="6.13192">
        <ele>1064</ele>
        <time>2025-06-12T07:28:05Z</time>
      </trkpt>
      <trkpt lat="44.59515" lon="6.13195">
        <ele>1064.2</ele>
        <time>2025-06-12T07:28:06Z</time>
      </trkpt>
      <trkpt lat="44.59515" lon="6.13198">
        <ele>1064.4</ele>
        <time>2025-06-12T07:28:07Z</time>
      </trkpt>
      <trkpt lat="44.59516" lon="6.13201">
        <ele>1064.6</ele>
        <time>2025-06-12T07:28:08Z</time>
      </trkpt>
      <trkpt lat="44.59517" lon="6.13204">
        <ele>1064.6</ele>
        <time>2025-06-12T07:28:09Z</time>
      </trkpt>
      <trkpt lat="44.59518" lon="6.13207">
        <ele>1064.8</ele>
        <time>2025-06-12T07:28:10Z</time>
      </trkpt>
      <trkpt lat="44.59519" lon="6.13209">
        <ele>1065</ele>
        <time>2025-06-12T07:28:11Z</time>
      </trkpt>
      <trkpt lat="44.59521" lon="6.13211">
        <ele>1065.2</ele>
        <time>2025-06-12T07:28:12Z</time>
      </trkpt>
      <trkpt lat="44.59525" lon="6.13213">
        <ele>1065.6</ele>
        <time>2025-06-12T07:28:14Z</time>
      </trkpt>
      <trkpt lat="44.59527" lon="6.13211">
        <ele>1065.8</ele>
        <time>2025-06-12T07:28:15Z</time>
      </trkpt>
      <trkpt lat="44.59529" lon="6.13209">
        <ele>1066</ele>
        <time>2025-06-12T07:28:16Z</time>
      </trkpt>
      <trkpt lat="44.5953" lon="6.13206">
        <ele>1066.2</ele>
        <time>2025-06-12T07:28:17Z</time>
      </trkpt>
      <trkpt lat="44.59531" lon="6.13203">
        <ele>1066.4</ele>
        <time>2025-06-12T07:28:18Z</time>
      </trkpt>
      <trkpt lat="44.59532" lon="6.132">
        <ele>1066.4</ele>
        <time>2025-06-12T07:28:19Z</time>
      </trkpt>
      <trkpt lat="44.59534" lon="6.13194">
        <ele>1067</ele>
        <time>2025-06-12T07:28:21Z</time>
      </trkpt>
      <trkpt lat="44.59535" lon="6.13191">
        <ele>1067.2</ele>
        <time>2025-06-12T07:28:22Z</time>
      </trkpt>
      <trkpt lat="44.59536" lon="6.13188">
        <ele>1067.2</ele>
        <time>2025-06-12T07:28:23Z</time>
      </trkpt>
      <trkpt lat="44.59536" lon="6.13184">
        <ele>1067.6</ele>
        <time>2025-06-12T07:28:24Z</time>
      </trkpt>
      <trkpt lat="44.59537" lon="6.13181">
        <ele>1067.8</ele>
        <time>2025-06-12T07:28:25Z</time>
      </trkpt>
      <trkpt lat="44.59538" lon="6.13178">
        <ele>1068</ele>
        <time>2025-06-12T07:28:26Z</time>
      </trkpt>
      <trkpt lat="44.59538" lon="6.13174">
        <ele>1068.2</ele>
        <time>2025-06-12T07:28:27Z</time>
      </trkpt>
      <trkpt lat="44.59539" lon="6.13171">
        <ele>1068.4</ele>
        <time>2025-06-12T07:28:28Z</time>
      </trkpt>
      <trkpt lat="44.5954" lon="6.13168">
        <ele>1068.6</ele>
        <time>2025-06-12T07:28:29Z</time>
      </trkpt>
      <trkpt lat="44.5954" lon="6.13164">
        <ele>1068.8</ele>
        <time>2025-06-12T07:28:30Z</time>
      </trkpt>
      <trkpt lat="44.59541" lon="6.13161">
        <ele>1069</ele>
        <time>2025-06-12T07:28:31Z</time>
      </trkpt>
      <trkpt lat="44.59543" lon="6.13159">
        <ele>1069.2</ele>
        <time>2025-06-12T07:28:32Z</time>
      </trkpt>
      <trkpt lat="44.59544" lon="6.13156">
        <ele>1069.4</ele>
        <time>2025-06-12T07:28:33Z</time>
      </trkpt>
      <trkpt lat="44.59546" lon="6.13153">
        <ele>1069.6</ele>
        <time>2025-06-12T07:28:34Z</time>
      </trkpt>
      <trkpt lat="44.59549" lon="6.13149">
        <ele>1069.8</ele>
        <time>2025-06-12T07:28:36Z</time>
      </trkpt>
      <trkpt lat="44.59551" lon="6.13148">
        <ele>1069.8</ele>
        <time>2025-06-12T07:28:37Z</time>
      </trkpt>
      <trkpt lat="44.59553" lon="6.13146">
        <ele>1070</ele>
        <time>2025-06-12T07:28:38Z</time>
      </trkpt>
      <trkpt lat="44.59555" lon="6.13145">
        <ele>1070.2</ele>
        <time>2025-06-12T07:28:39Z</time>
      </trkpt>
      <trkpt lat="44.59557" lon="6.13144">
        <ele>1070.4</ele>
        <time>2025-06-12T07:28:40Z</time>
      </trkpt>
      <trkpt lat="44.59559" lon="6.13144">
        <ele>1070.6</ele>
        <time>2025-06-12T07:28:41Z</time>
      </trkpt>
      <trkpt lat="44.59564" lon="6.13143">
        <ele>1070.8</ele>
        <time>2025-06-12T07:28:43Z</time>
      </trkpt>
      <trkpt lat="44.59566" lon="6.13143">
        <ele>1071</ele>
        <time>2025-06-12T07:28:44Z</time>
      </trkpt>
      <trkpt lat="44.59569" lon="6.13143">
        <ele>1071.2</ele>
        <time>2025-06-12T07:28:45Z</time>
      </trkpt>
      <trkpt lat="44.59571" lon="6.13143">
        <ele>1071.4</ele>
        <time>2025-06-12T07:28:46Z</time>
      </trkpt>
      <trkpt lat="44.59574" lon="6.13143">
        <ele>1071.6</ele>
        <time>2025-06-12T07:28:47Z</time>
      </trkpt>
      <trkpt lat="44.59576" lon="6.13144">
        <ele>1072</ele>
        <time>2025-06-12T07:28:48Z</time>
      </trkpt>
      <trkpt lat="44.59579" lon="6.13144">
        <ele>1072.2</ele>
        <time>2025-06-12T07:28:49Z</time>
      </trkpt>
      <trkpt lat="44.59581" lon="6.13145">
        <ele>1072.2</ele>
        <time>2025-06-12T07:28:50Z</time>
      </trkpt>
      <trkpt lat="44.59584" lon="6.13145">
        <ele>1072.4</ele>
        <time>2025-06-12T07:28:51Z</time>
      </trkpt>
      <trkpt lat="44.59586" lon="6.13145">
        <ele>1072.6</ele>
        <time>2025-06-12T07:28:52Z</time>
      </trkpt>
      <trkpt lat="44.59591" lon="6.13146">
        <ele>1073</ele>
        <time>2025-06-12T07:28:54Z</time>
      </trkpt>
      <trkpt lat="44.59593" lon="6.13147">
        <ele>1073.2</ele>
        <time>2025-06-12T07:28:55Z</time>
      </trkpt>
      <trkpt lat="44.59596" lon="6.13148">
        <ele>1073.4</ele>
        <time>2025-06-12T07:28:56Z</time>
      </trkpt>
      <trkpt lat="44.59598" lon="6.13148">
        <ele>1073.4</ele>
        <time>2025-06-12T07:28:57Z</time>
      </trkpt>
      <trkpt lat="44.59601" lon="6.13148">
        <ele>1073.6</ele>
        <time>2025-06-12T07:28:58Z</time>
      </trkpt>
      <trkpt lat="44.59603" lon="6.13149">
        <ele>1073.8</ele>
        <time>2025-06-12T07:28:59Z</time>
      </trkpt>
      <trkpt lat="44.59606" lon="6.1315">
        <ele>1074</ele>
        <time>2025-06-12T07:29:00Z</time>
      </trkpt>
      <trkpt lat="44.59608" lon="6.13151">
        <ele>1074.2</ele>
        <time>2025-06-12T07:29:01Z</time>
      </trkpt>
      <trkpt lat="44.59613" lon="6.13153">
        <ele>1074.6</ele>
        <time>2025-06-12T07:29:03Z</time>
      </trkpt>
      <trkpt lat="44.59617" lon="6.13155">
        <ele>1075</ele>
        <time>2025-06-12T07:29:05Z</time>
      </trkpt>
      <trkpt lat="44.59622" lon="6.13157">
        <ele>1075.4</ele>
        <time>2025-06-12T07:29:07Z</time>
      </trkpt>
      <trkpt lat="44.59624" lon="6.13157">
        <ele>1075.8</ele>
        <time>2025-06-12T07:29:08Z</time>
      </trkpt>
      <trkpt lat="44.59626" lon="6.13158">
        <ele>1076</ele>
        <time>2025-06-12T07:29:09Z</time>
      </trkpt>
      <trkpt lat="44.59629" lon="6.13158">
        <ele>1076</ele>
        <time>2025-06-12T07:29:10Z</time>
      </trkpt>
      <trkpt lat="44.59631" lon="6.13157">
        <ele>1076.2</ele>
        <time>2025-06-12T07:29:11Z</time>
      </trkpt>
      <trkpt lat="44.59634" lon="6.13156">
        <ele>1076.4</ele>
        <time>2025-06-12T07:29:12Z</time>
      </trkpt>
      <trkpt lat="44.59638" lon="6.13154">
        <ele>1077</ele>
        <time>2025-06-12T07:29:14Z</time>
      </trkpt>
      <trkpt lat="44.59642" lon="6.1315">
        <ele>1077.8</ele>
        <time>2025-06-12T07:29:16Z</time>
      </trkpt>
      <trkpt lat="44.59643" lon="6.13147">
        <ele>1078</ele>
        <time>2025-06-12T07:29:17Z</time>
      </trkpt>
      <trkpt lat="44.59645" lon="6.13145">
        <ele>1078</ele>
        <time>2025-06-12T07:29:18Z</time>
      </trkpt>
      <trkpt lat="44.59648" lon="6.13144">
        <ele>1078.2</ele>
        <time>2025-06-12T07:29:19Z</time>
      </trkpt>
      <trkpt lat="44.5965" lon="6.13142">
        <ele>1078.2</ele>
        <time>2025-06-12T07:29:20Z</time>
      </trkpt>
      <trkpt lat="44.59651" lon="6.1314">
        <ele>1078.4</ele>
        <time>2025-06-12T07:29:21Z</time>
      </trkpt>
      <trkpt lat="44.59655" lon="6.13136">
        <ele>1078.8</ele>
        <time>2025-06-12T07:29:23Z</time>
      </trkpt>
      <trkpt lat="44.59657" lon="6.13134">
        <ele>1079</ele>
        <time>2025-06-12T07:29:24Z</time>
      </trkpt>
      <trkpt lat="44.59658" lon="6.13132">
        <ele>1079.2</ele>
        <time>2025-06-12T07:29:25Z</time>
      </trkpt>
      <trkpt lat="44.59662" lon="6.13127">
        <ele>1079.4</ele>
        <time>2025-06-12T07:29:27Z</time>
      </trkpt>
      <trkpt lat="44.59663" lon="6.13125">
        <ele>1079.6</ele>
        <time>2025-06-12T07:29:28Z</time>
      </trkpt>
      <trkpt lat="44.59665" lon="6.13123">
        <ele>1079.6</ele>
        <time>2025-06-12T07:29:29Z</time>
      </trkpt>
      <trkpt lat="44.59667" lon="6.13121">
        <ele>1079.8</ele>
        <time>2025-06-12T07:29:30Z</time>
      </trkpt>
      <trkpt lat="44.59668" lon="6.13119">
        <ele>1080</ele>
        <time>2025-06-12T07:29:31Z</time>
      </trkpt>
      <trkpt lat="44.5967" lon="6.13116">
        <ele>1080.2</ele>
        <time>2025-06-12T07:29:32Z</time>
      </trkpt>
      <trkpt lat="44.59673" lon="6.13112">
        <ele>1080.6</ele>
        <time>2025-06-12T07:29:34Z</time>
      </trkpt>
      <trkpt lat="44.59676" lon="6.13108">
        <ele>1080.8</ele>
        <time>2025-06-12T07:29:36Z</time>
      </trkpt>
      <trkpt lat="44.59679" lon="6.13105">
        <ele>1081.2</ele>
        <time>2025-06-12T07:29:38Z</time>
      </trkpt>
      <trkpt lat="44.59681" lon="6.13103">
        <ele>1081.4</ele>
        <time>2025-06-12T07:29:39Z</time>
      </trkpt>
      <trkpt lat="44.59683" lon="6.13102">
        <ele>1081.4</ele>
        <time>2025-06-12T07:29:40Z</time>
      </trkpt>
      <trkpt lat="44.59685" lon="6.13101">
        <ele>1081.6</ele>
        <time>2025-06-12T07:29:41Z</time>
      </trkpt>
      <trkpt lat="44.59687" lon="6.13099">
        <ele>1081.6</ele>
        <time>2025-06-12T07:29:42Z</time>
      </trkpt>
      <trkpt lat="44.5969" lon="6.13098">
        <ele>1082</ele>
        <time>2025-06-12T07:29:43Z</time>
      </trkpt>
      <trkpt lat="44.59694" lon="6.13096">
        <ele>1082.2</ele>
        <time>2025-06-12T07:29:45Z</time>
      </trkpt>
      <trkpt lat="44.59696" lon="6.13095">
        <ele>1082.4</ele>
        <time>2025-06-12T07:29:46Z</time>
      </trkpt>
      <trkpt lat="44.59699" lon="6.13094">
        <ele>1082.8</ele>
        <time>2025-06-12T07:29:47Z</time>
      </trkpt>
      <trkpt lat="44.59701" lon="6.13093">
        <ele>1083</ele>
        <time>2025-06-12T07:29:48Z</time>
      </trkpt>
      <trkpt lat="44.59703" lon="6.13092">
        <ele>1083.2</ele>
        <time>2025-06-12T07:29:49Z</time>
      </trkpt>
      <trkpt lat="44.59706" lon="6.13091">
        <ele>1083.6</ele>
        <time>2025-06-12T07:29:50Z</time>
      </trkpt>
      <trkpt lat="44.5971" lon="6.1309">
        <ele>1084.2</ele>
        <time>2025-06-12T07:29:52Z</time>
      </trkpt>
      <trkpt lat="44.59713" lon="6.13089">
        <ele>1084.4</ele>
        <time>2025-06-12T07:29:53Z</time>
      </trkpt>
      <trkpt lat="44.59715" lon="6.13089">
        <ele>1084.6</ele>
        <time>2025-06-12T07:29:54Z</time>
      </trkpt>
      <trkpt lat="44.59717" lon="6.1309">
        <ele>1084.8</ele>
        <time>2025-06-12T07:29:55Z</time>
      </trkpt>
      <trkpt lat="44.59719" lon="6.13091">
        <ele>1084.8</ele>
        <time>2025-06-12T07:29:56Z</time>
      </trkpt>
      <trkpt lat="44.59722" lon="6.13092">
        <ele>1084.8</ele>
        <time>2025-06-12T07:29:57Z</time>
      </trkpt>
      <trkpt lat="44.59724" lon="6.13094">
        <ele>1085</ele>
        <time>2025-06-12T07:29:58Z</time>
      </trkpt>
      <trkpt lat="44.59725" lon="6.13096">
        <ele>1085.2</ele>
        <time>2025-06-12T07:29:59Z</time>
      </trkpt>
      <trkpt lat="44.59727" lon="6.13098">
        <ele>1085.4</ele>
        <time>2025-06-12T07:30:00Z</time>
      </trkpt>
      <trkpt lat="44.59728" lon="6.131">
        <ele>1085.6</ele>
        <time>2025-06-12T07:30:01Z</time>
      </trkpt>
      <trkpt lat="44.5973" lon="6.13103">
        <ele>1085.8</ele>
        <time>2025-06-12T07:30:02Z</time>
      </trkpt>
      <trkpt lat="44.59731" lon="6.13105">
        <ele>1086</ele>
        <time>2025-06-12T07:30:03Z</time>
      </trkpt>
      <trkpt lat="44.59732" lon="6.13108">
        <ele>1086.4</ele>
        <time>2025-06-12T07:30:04Z</time>
      </trkpt>
      <trkpt lat="44.59735" lon="6.13113">
        <ele>1086.8</ele>
        <time>2025-06-12T07:30:06Z</time>
      </trkpt>
      <trkpt lat="44.59736" lon="6.13116">
        <ele>1087</ele>
        <time>2025-06-12T07:30:07Z</time>
      </trkpt>
      <trkpt lat="44.59737" lon="6.13119">
        <ele>1087.4</ele>
        <time>2025-06-12T07:30:08Z</time>
      </trkpt>
      <trkpt lat="44.59737" lon="6.13122">
        <ele>1087.8</ele>
        <time>2025-06-12T07:30:09Z</time>
      </trkpt>
      <trkpt lat="44.59739" lon="6.13128">
        <ele>1088.8</ele>
        <time>2025-06-12T07:30:11Z</time>
      </trkpt>
      <trkpt lat="44.5974" lon="6.13131">
        <ele>1089</ele>
        <time>2025-06-12T07:30:12Z</time>
      </trkpt>
      <trkpt lat="44.59741" lon="6.13134">
        <ele>1089.4</ele>
        <time>2025-06-12T07:30:13Z</time>
      </trkpt>
      <trkpt lat="44.59742" lon="6.13137">
        <ele>1089.6</ele>
        <time>2025-06-12T07:30:14Z</time>
      </trkpt>
      <trkpt lat="44.59743" lon="6.1314">
        <ele>1089.8</ele>
        <time>2025-06-12T07:30:15Z</time>
      </trkpt>
      <trkpt lat="44.59745" lon="6.13142">
        <ele>1090</ele>
        <time>2025-06-12T07:30:16Z</time>
      </trkpt>
      <trkpt lat="44.59745" lon="6.13145">
        <ele>1090.2</ele>
        <time>2025-06-12T07:30:17Z</time>
      </trkpt>
      <trkpt lat="44.59746" lon="6.13148">
        <ele>1090.4</ele>
        <time>2025-06-12T07:30:18Z</time>
      </trkpt>
      <trkpt lat="44.59747" lon="6.13151">
        <ele>1090.6</ele>
        <time>2025-06-12T07:30:19Z</time>
      </trkpt>
      <trkpt lat="44.59749" lon="6.13154">
        <ele>1090.8</ele>
        <time>2025-06-12T07:30:20Z</time>
      </trkpt>
      <trkpt lat="44.5975" lon="6.13157">
        <ele>1091</ele>
        <time>2025-06-12T07:30:21Z</time>
      </trkpt>
      <trkpt lat="44.59751" lon="6.1316">
        <ele>1091</ele>
        <time>2025-06-12T07:30:22Z</time>
      </trkpt>
      <trkpt lat="44.59752" lon="6.13163">
        <ele>1091.4</ele>
        <time>2025-06-12T07:30:23Z</time>
      </trkpt>
      <trkpt lat="44.59753" lon="6.13166">
        <ele>1091.6</ele>
        <time>2025-06-12T07:30:24Z</time>
      </trkpt>
      <trkpt lat="44.59754" lon="6.13168">
        <ele>1091.8</ele>
        <time>2025-06-12T07:30:25Z</time>
      </trkpt>
      <trkpt lat="44.59757" lon="6.13174">
        <ele>1092.2</ele>
        <time>2025-06-12T07:30:27Z</time>
      </trkpt>
      <trkpt lat="44.59758" lon="6.13176">
        <ele>1092.4</ele>
        <time>2025-06-12T07:30:28Z</time>
      </trkpt>
      <trkpt lat="44.5976" lon="6.13179">
        <ele>1092.4</ele>
        <time>2025-06-12T07:30:29Z</time>
      </trkpt>
      <trkpt lat="44.59761" lon="6.13183">
        <ele>1092.6</ele>
        <time>2025-06-12T07:30:30Z</time>
      </trkpt>
      <trkpt lat="44.59763" lon="6.13186">
        <ele>1092.8</ele>
        <time>2025-06-12T07:30:31Z</time>
      </trkpt>
      <trkpt lat="44.59765" lon="6.13189">
        <ele>1093</ele>
        <time>2025-06-12T07:30:32Z</time>
      </trkpt>
      <trkpt lat="44.59766" lon="6.13192">
        <ele>1093.2</ele>
        <time>2025-06-12T07:30:33Z</time>
      </trkpt>
      <trkpt lat="44.59768" lon="6.13195">
        <ele>1093.2</ele>
        <time>2025-06-12T07:30:34Z</time>
      </trkpt>
      <trkpt lat="44.5977" lon="6.13198">
        <ele>1093.4</ele>
        <time>2025-06-12T07:30:35Z</time>
      </trkpt>
      <trkpt lat="44.59771" lon="6.13201">
        <ele>1093.4</ele>
        <time>2025-06-12T07:30:36Z</time>
      </trkpt>
      <trkpt lat="44.59775" lon="6.13208">
        <ele>1093.6</ele>
        <time>2025-06-12T07:30:38Z</time>
      </trkpt>
      <trkpt lat="44.59778" lon="6.13214">
        <ele>1093.8</ele>
        <time>2025-06-12T07:30:40Z</time>
      </trkpt>
      <trkpt lat="44.5978" lon="6.13218">
        <ele>1093.8</ele>
        <time>2025-06-12T07:30:41Z</time>
      </trkpt>
      <trkpt lat="44.59782" lon="6.13221">
        <ele>1093.8</ele>
        <time>2025-06-12T07:30:42Z</time>
      </trkpt>
      <trkpt lat="44.59784" lon="6.13225">
        <ele>1094</ele>
        <time>2025-06-12T07:30:43Z</time>
      </trkpt>
      <trkpt lat="44.59785" lon="6.13228">
        <ele>1094</ele>
        <time>2025-06-12T07:30:44Z</time>
      </trkpt>
      <trkpt lat="44.59786" lon="6.13232">
        <ele>1094.2</ele>
        <time>2025-06-12T07:30:45Z</time>
      </trkpt>
      <trkpt lat="44.5979" lon="6.13239">
        <ele>1094.4</ele>
        <time>2025-06-12T07:30:47Z</time>
      </trkpt>
      <trkpt lat="44.59792" lon="6.13245">
        <ele>1094.8</ele>
        <time>2025-06-12T07:30:49Z</time>
      </trkpt>
      <trkpt lat="44.59794" lon="6.13249">
        <ele>1094.8</ele>
        <time>2025-06-12T07:30:50Z</time>
      </trkpt>
      <trkpt lat="44.59794" lon="6.13252">
        <ele>1094.8</ele>
        <time>2025-06-12T07:30:51Z</time>
      </trkpt>
      <trkpt lat="44.59796" lon="6.13256">
        <ele>1094.8</ele>
        <time>2025-06-12T07:30:52Z</time>
      </trkpt>
      <trkpt lat="44.59797" lon="6.13259">
        <ele>1094.8</ele>
        <time>2025-06-12T07:30:53Z</time>
      </trkpt>
      <trkpt lat="44.59798" lon="6.13263">
        <ele>1095</ele>
        <time>2025-06-12T07:30:54Z</time>
      </trkpt>
      <trkpt lat="44.59798" lon="6.13266">
        <ele>1095.2</ele>
        <time>2025-06-12T07:30:55Z</time>
      </trkpt>
      <trkpt lat="44.59799" lon="6.1327">
        <ele>1095.2</ele>
        <time>2025-06-12T07:30:56Z</time>
      </trkpt>
      <trkpt lat="44.598" lon="6.13274">
        <ele>1095.4</ele>
        <time>2025-06-12T07:30:57Z</time>
      </trkpt>
      <trkpt lat="44.59801" lon="6.13277">
        <ele>1095.6</ele>
        <time>2025-06-12T07:30:58Z</time>
      </trkpt>
      <trkpt lat="44.59803" lon="6.13284">
        <ele>1096</ele>
        <time>2025-06-12T07:31:00Z</time>
      </trkpt>
      <trkpt lat="44.59803" lon="6.13288">
        <ele>1096</ele>
        <time>2025-06-12T07:31:01Z</time>
      </trkpt>
      <trkpt lat="44.59804" lon="6.13291">
        <ele>1096.2</ele>
        <time>2025-06-12T07:31:02Z</time>
      </trkpt>
      <trkpt lat="44.59804" lon="6.13295">
        <ele>1096.2</ele>
        <time>2025-06-12T07:31:03Z</time>
      </trkpt>
      <trkpt lat="44.59805" lon="6.13298">
        <ele>1096.4</ele>
        <time>2025-06-12T07:31:04Z</time>
      </trkpt>
      <trkpt lat="44.59805" lon="6.13302">
        <ele>1096.6</ele>
        <time>2025-06-12T07:31:05Z</time>
      </trkpt>
      <trkpt lat="44.59807" lon="6.13309">
        <ele>1097</ele>
        <time>2025-06-12T07:31:07Z</time>
      </trkpt>
      <trkpt lat="44.59808" lon="6.13316">
        <ele>1097.2</ele>
        <time>2025-06-12T07:31:09Z</time>
      </trkpt>
      <trkpt lat="44.59809" lon="6.1332">
        <ele>1097.2</ele>
        <time>2025-06-12T07:31:10Z</time>
      </trkpt>
      <trkpt lat="44.59809" lon="6.13324">
        <ele>1097.4</ele>
        <time>2025-06-12T07:31:11Z</time>
      </trkpt>
      <trkpt lat="44.5981" lon="6.13327">
        <ele>1097.2</ele>
        <time>2025-06-12T07:31:12Z</time>
      </trkpt>
      <trkpt lat="44.5981" lon="6.13331">
        <ele>1097.4</ele>
        <time>2025-06-12T07:31:13Z</time>
      </trkpt>
      <trkpt lat="44.59811" lon="6.13335">
        <ele>1097.4</ele>
        <time>2025-06-12T07:31:14Z</time>
      </trkpt>
      <trkpt lat="44.59811" lon="6.13338">
        <ele>1097.4</ele>
        <time>2025-06-12T07:31:15Z</time>
      </trkpt>
      <trkpt lat="44.59812" lon="6.13342">
        <ele>1097.4</ele>
        <time>2025-06-12T07:31:16Z</time>
      </trkpt>
      <trkpt lat="44.59813" lon="6.13349">
        <ele>1097.6</ele>
        <time>2025-06-12T07:31:18Z</time>
      </trkpt>
      <trkpt lat="44.59815" lon="6.13356">
        <ele>1097.8</ele>
        <time>2025-06-12T07:31:20Z</time>
      </trkpt>
      <trkpt lat="44.59816" lon="6.13362">
        <ele>1098.2</ele>
        <time>2025-06-12T07:31:22Z</time>
      </trkpt>
      <trkpt lat="44.59817" lon="6.13366">
        <ele>1098.4</ele>
        <time>2025-06-12T07:31:23Z</time>
      </trkpt>
      <trkpt lat="44.59818" lon="6.13369">
        <ele>1098.4</ele>
        <time>2025-06-12T07:31:24Z</time>
      </trkpt>
      <trkpt lat="44.5982" lon="6.13372">
        <ele>1098.6</ele>
        <time>2025-06-12T07:31:25Z</time>
      </trkpt>
      <trkpt lat="44.59821" lon="6.13375">
        <ele>1098.8</ele>
        <time>2025-06-12T07:31:26Z</time>
      </trkpt>
      <trkpt lat="44.59822" lon="6.13378">
        <ele>1099</ele>
        <time>2025-06-12T07:31:27Z</time>
      </trkpt>
      <trkpt lat="44.59823" lon="6.13381">
        <ele>1099</ele>
        <time>2025-06-12T07:31:28Z</time>
      </trkpt>
      <trkpt lat="44.59824" lon="6.13384">
        <ele>1099.2</ele>
        <time>2025-06-12T07:31:29Z</time>
      </trkpt>
      <trkpt lat="44.59825" lon="6.13387">
        <ele>1099.2</ele>
        <time>2025-06-12T07:31:30Z</time>
      </trkpt>
      <trkpt lat="44.59826" lon="6.1339">
        <ele>1099.4</ele>
        <time>2025-06-12T07:31:31Z</time>
      </trkpt>
      <trkpt lat="44.59827" lon="6.13393">
        <ele>1099.8</ele>
        <time>2025-06-12T07:31:32Z</time>
      </trkpt>
      <trkpt lat="44.59828" lon="6.13396">
        <ele>1099.8</ele>
        <time>2025-06-12T07:31:33Z</time>
      </trkpt>
      <trkpt lat="44.59829" lon="6.13399">
        <ele>1100.2</ele>
        <time>2025-06-12T07:31:34Z</time>
      </trkpt>
      <trkpt lat="44.59831" lon="6.13401">
        <ele>1100.2</ele>
        <time>2025-06-12T07:31:35Z</time>
      </trkpt>
      <trkpt lat="44.59832" lon="6.13404">
        <ele>1100.4</ele>
        <time>2025-06-12T07:31:36Z</time>
      </trkpt>
      <trkpt lat="44.59833" lon="6.13407">
        <ele>1100.6</ele>
        <time>2025-06-12T07:31:37Z</time>
      </trkpt>
      <trkpt lat="44.59834" lon="6.13411">
        <ele>1100.8</ele>
        <time>2025-06-12T07:31:38Z</time>
      </trkpt>
      <trkpt lat="44.59835" lon="6.13414">
        <ele>1101</ele>
        <time>2025-06-12T07:31:39Z</time>
      </trkpt>
      <trkpt lat="44.59836" lon="6.13417">
        <ele>1101.2</ele>
        <time>2025-06-12T07:31:40Z</time>
      </trkpt>
      <trkpt lat="44.59837" lon="6.1342">
        <ele>1101.4</ele>
        <time>2025-06-12T07:31:41Z</time>
      </trkpt>
      <trkpt lat="44.59837" lon="6.13423">
        <ele>1101.6</ele>
        <time>2025-06-12T07:31:42Z</time>
      </trkpt>
      <trkpt lat="44.59838" lon="6.13427">
        <ele>1101.8</ele>
        <time>2025-06-12T07:31:43Z</time>
      </trkpt>
      <trkpt lat="44.59839" lon="6.1343">
        <ele>1102</ele>
        <time>2025-06-12T07:31:44Z</time>
      </trkpt>
      <trkpt lat="44.59839" lon="6.13433">
        <ele>1102.2</ele>
        <time>2025-06-12T07:31:45Z</time>
      </trkpt>
      <trkpt lat="44.5984" lon="6.1344">
        <ele>1102.4</ele>
        <time>2025-06-12T07:31:47Z</time>
      </trkpt>
      <trkpt lat="44.5984" lon="6.13443">
        <ele>1102.8</ele>
        <time>2025-06-12T07:31:48Z</time>
      </trkpt>
      <trkpt lat="44.5984" lon="6.13447">
        <ele>1103</ele>
        <time>2025-06-12T07:31:49Z</time>
      </trkpt>
      <trkpt lat="44.5984" lon="6.13453">
        <ele>1103.2</ele>
        <time>2025-06-12T07:31:51Z</time>
      </trkpt>
      <trkpt lat="44.5984" lon="6.13457">
        <ele>1103.6</ele>
        <time>2025-06-12T07:31:52Z</time>
      </trkpt>
      <trkpt lat="44.5984" lon="6.1346">
        <ele>1103.8</ele>
        <time>2025-06-12T07:31:53Z</time>
      </trkpt>
      <trkpt lat="44.59839" lon="6.13463">
        <ele>1104</ele>
        <time>2025-06-12T07:31:54Z</time>
      </trkpt>
      <trkpt lat="44.59838" lon="6.13467">
        <ele>1104.4</ele>
        <time>2025-06-12T07:31:55Z</time>
      </trkpt>
      <trkpt lat="44.59838" lon="6.1347">
        <ele>1104.6</ele>
        <time>2025-06-12T07:31:56Z</time>
      </trkpt>
      <trkpt lat="44.59837" lon="6.13473">
        <ele>1104.8</ele>
        <time>2025-06-12T07:31:57Z</time>
      </trkpt>
      <trkpt lat="44.59836" lon="6.13476">
        <ele>1105</ele>
        <time>2025-06-12T07:31:58Z</time>
      </trkpt>
      <trkpt lat="44.59836" lon="6.13479">
        <ele>1105.2</ele>
        <time>2025-06-12T07:31:59Z</time>
      </trkpt>
      <trkpt lat="44.59835" lon="6.13482">
        <ele>1105.4</ele>
        <time>2025-06-12T07:32:00Z</time>
      </trkpt>
      <trkpt lat="44.59833" lon="6.13489">
        <ele>1106.2</ele>
        <time>2025-06-12T07:32:02Z</time>
      </trkpt>
      <trkpt lat="44.59832" lon="6.13492">
        <ele>1106.6</ele>
        <time>2025-06-12T07:32:03Z</time>
      </trkpt>
      <trkpt lat="44.59832" lon="6.13495">
        <ele>1106.6</ele>
        <time>2025-06-12T07:32:04Z</time>
      </trkpt>
      <trkpt lat="44.59831" lon="6.13498">
        <ele>1106.8</ele>
        <time>2025-06-12T07:32:05Z</time>
      </trkpt>
      <trkpt lat="44.5983" lon="6.13501">
        <ele>1107</ele>
        <time>2025-06-12T07:32:06Z</time>
      </trkpt>
      <trkpt lat="44.59829" lon="6.13504">
        <ele>1107.2</ele>
        <time>2025-06-12T07:32:07Z</time>
      </trkpt>
      <trkpt lat="44.59829" lon="6.13507">
        <ele>1107.2</ele>
        <time>2025-06-12T07:32:08Z</time>
      </trkpt>
      <trkpt lat="44.59828" lon="6.1351">
        <ele>1107.4</ele>
        <time>2025-06-12T07:32:09Z</time>
      </trkpt>
      <trkpt lat="44.59828" lon="6.13517">
        <ele>1107.6</ele>
        <time>2025-06-12T07:32:11Z</time>
      </trkpt>
      <trkpt lat="44.59829" lon="6.1352">
        <ele>1108</ele>
        <time>2025-06-12T07:32:12Z</time>
      </trkpt>
      <trkpt lat="44.59832" lon="6.13526">
        <ele>1108.2</ele>
        <time>2025-06-12T07:32:14Z</time>
      </trkpt>
      <trkpt lat="44.59833" lon="6.13528">
        <ele>1108.4</ele>
        <time>2025-06-12T07:32:15Z</time>
      </trkpt>
      <trkpt lat="44.59836" lon="6.13529">
        <ele>1108.6</ele>
        <time>2025-06-12T07:32:16Z</time>
      </trkpt>
      <trkpt lat="44.59838" lon="6.13529">
        <ele>1108.6</ele>
        <time>2025-06-12T07:32:17Z</time>
      </trkpt>
      <trkpt lat="44.59842" lon="6.13527">
        <ele>1109</ele>
        <time>2025-06-12T07:32:19Z</time>
      </trkpt>
      <trkpt lat="44.59844" lon="6.13525">
        <ele>1109.2</ele>
        <time>2025-06-12T07:32:20Z</time>
      </trkpt>
      <trkpt lat="44.59848" lon="6.1352">
        <ele>1109.4</ele>
        <time>2025-06-12T07:32:22Z</time>
      </trkpt>
      <trkpt lat="44.59851" lon="6.13514">
        <ele>1109.8</ele>
        <time>2025-06-12T07:32:24Z</time>
      </trkpt>
      <trkpt lat="44.59852" lon="6.13511">
        <ele>1109.8</ele>
        <time>2025-06-12T07:32:25Z</time>
      </trkpt>
      <trkpt lat="44.59854" lon="6.13508">
        <ele>1109.8</ele>
        <time>2025-06-12T07:32:26Z</time>
      </trkpt>
      <trkpt lat="44.59855" lon="6.13505">
        <ele>1110</ele>
        <time>2025-06-12T07:32:27Z</time>
      </trkpt>
      <trkpt lat="44.59856" lon="6.13502">
        <ele>1110</ele>
        <time>2025-06-12T07:32:28Z</time>
      </trkpt>
      <trkpt lat="44.59858" lon="6.135">
        <ele>1110.2</ele>
        <time>2025-06-12T07:32:29Z</time>
      </trkpt>
      <trkpt lat="44.59861" lon="6.13494">
        <ele>1110.8</ele>
        <time>2025-06-12T07:32:31Z</time>
      </trkpt>
      <trkpt lat="44.59864" lon="6.13489">
        <ele>1111.2</ele>
        <time>2025-06-12T07:32:33Z</time>
      </trkpt>
      <trkpt lat="44.59866" lon="6.13486">
        <ele>1111.2</ele>
        <time>2025-06-12T07:32:34Z</time>
      </trkpt>
      <trkpt lat="44.59867" lon="6.13483">
        <ele>1111.4</ele>
        <time>2025-06-12T07:32:35Z</time>
      </trkpt>
      <trkpt lat="44.59869" lon="6.13481">
        <ele>1111.6</ele>
        <time>2025-06-12T07:32:36Z</time>
      </trkpt>
      <trkpt lat="44.59871" lon="6.13478">
        <ele>1111.8</ele>
        <time>2025-06-12T07:32:37Z</time>
      </trkpt>
      <trkpt lat="44.59872" lon="6.13475">
        <ele>1111.8</ele>
        <time>2025-06-12T07:32:38Z</time>
      </trkpt>
      <trkpt lat="44.59876" lon="6.13471">
        <ele>1112</ele>
        <time>2025-06-12T07:32:40Z</time>
      </trkpt>
      <trkpt lat="44.59878" lon="6.1347">
        <ele>1112.2</ele>
        <time>2025-06-12T07:32:41Z</time>
      </trkpt>
      <trkpt lat="44.5988" lon="6.13469">
        <ele>1112.4</ele>
        <time>2025-06-12T07:32:42Z</time>
      </trkpt>
      <trkpt lat="44.59882" lon="6.1347">
        <ele>1112.6</ele>
        <time>2025-06-12T07:32:43Z</time>
      </trkpt>
      <trkpt lat="44.59886" lon="6.13474">
        <ele>1112.8</ele>
        <time>2025-06-12T07:32:45Z</time>
      </trkpt>
      <trkpt lat="44.59888" lon="6.13477">
        <ele>1113</ele>
        <time>2025-06-12T07:32:46Z</time>
      </trkpt>
      <trkpt lat="44.59889" lon="6.1348">
        <ele>1113.2</ele>
        <time>2025-06-12T07:32:47Z</time>
      </trkpt>
      <trkpt lat="44.5989" lon="6.13483">
        <ele>1113.4</ele>
        <time>2025-06-12T07:32:48Z</time>
      </trkpt>
      <trkpt lat="44.59891" lon="6.13486">
        <ele>1113.8</ele>
        <time>2025-06-12T07:32:49Z</time>
      </trkpt>
      <trkpt lat="44.59891" lon="6.1349">
        <ele>1114</ele>
        <time>2025-06-12T07:32:50Z</time>
      </trkpt>
      <trkpt lat="44.5989" lon="6.13493">
        <ele>1114.2</ele>
        <time>2025-06-12T07:32:51Z</time>
      </trkpt>
      <trkpt lat="44.5989" lon="6.13496">
        <ele>1114.4</ele>
        <time>2025-06-12T07:32:52Z</time>
      </trkpt>
      <trkpt lat="44.5989" lon="6.13499">
        <ele>1114.6</ele>
        <time>2025-06-12T07:32:53Z</time>
      </trkpt>
      <trkpt lat="44.5989" lon="6.13503">
        <ele>1115</ele>
        <time>2025-06-12T07:32:54Z</time>
      </trkpt>
      <trkpt lat="44.59889" lon="6.13509">
        <ele>1115.2</ele>
        <time>2025-06-12T07:32:56Z</time>
      </trkpt>
      <trkpt lat="44.59889" lon="6.13513">
        <ele>1116</ele>
        <time>2025-06-12T07:32:57Z</time>
      </trkpt>
      <trkpt lat="44.59888" lon="6.13516">
        <ele>1116.4</ele>
        <time>2025-06-12T07:32:58Z</time>
      </trkpt>
      <trkpt lat="44.59888" lon="6.13519">
        <ele>1116.6</ele>
        <time>2025-06-12T07:32:59Z</time>
      </trkpt>
      <trkpt lat="44.59889" lon="6.13526">
        <ele>1117</ele>
        <time>2025-06-12T07:33:01Z</time>
      </trkpt>
      <trkpt lat="44.59891" lon="6.13532">
        <ele>1117.2</ele>
        <time>2025-06-12T07:33:03Z</time>
      </trkpt>
      <trkpt lat="44.59894" lon="6.13538">
        <ele>1117.4</ele>
        <time>2025-06-12T07:33:05Z</time>
      </trkpt>
      <trkpt lat="44.59895" lon="6.13539">
        <ele>1117.6</ele>
        <time>2025-06-12T07:33:06Z</time>
      </trkpt>
      <trkpt lat="44.59898" lon="6.1354">
        <ele>1117.8</ele>
        <time>2025-06-12T07:33:07Z</time>
      </trkpt>
      <trkpt lat="44.599" lon="6.1354">
        <ele>1118</ele>
        <time>2025-06-12T07:33:08Z</time>
      </trkpt>
      <trkpt lat="44.59902" lon="6.13539">
        <ele>1118.2</ele>
        <time>2025-06-12T07:33:09Z</time>
      </trkpt>
      <trkpt lat="44.59904" lon="6.13538">
        <ele>1118.4</ele>
        <time>2025-06-12T07:33:10Z</time>
      </trkpt>
      <trkpt lat="44.59906" lon="6.13537">
        <ele>1118.6</ele>
        <time>2025-06-12T07:33:11Z</time>
      </trkpt>
      <trkpt lat="44.59909" lon="6.13536">
        <ele>1118.8</ele>
        <time>2025-06-12T07:33:12Z</time>
      </trkpt>
      <trkpt lat="44.59911" lon="6.13536">
        <ele>1119</ele>
        <time>2025-06-12T07:33:13Z</time>
      </trkpt>
      <trkpt lat="44.59914" lon="6.13535">
        <ele>1119.2</ele>
        <time>2025-06-12T07:33:14Z</time>
      </trkpt>
      <trkpt lat="44.59916" lon="6.13535">
        <ele>1119.4</ele>
        <time>2025-06-12T07:33:15Z</time>
      </trkpt>
      <trkpt lat="44.59918" lon="6.13535">
        <ele>1119.6</ele>
        <time>2025-06-12T07:33:16Z</time>
      </trkpt>
      <trkpt lat="44.59923" lon="6.13537">
        <ele>1120</ele>
        <time>2025-06-12T07:33:18Z</time>
      </trkpt>
      <trkpt lat="44.59928" lon="6.13539">
        <ele>1120.4</ele>
        <time>2025-06-12T07:33:20Z</time>
      </trkpt>
      <trkpt lat="44.5993" lon="6.13541">
        <ele>1120.6</ele>
        <time>2025-06-12T07:33:21Z</time>
      </trkpt>
      <trkpt lat="44.59933" lon="6.13542">
        <ele>1120.8</ele>
        <time>2025-06-12T07:33:22Z</time>
      </trkpt>
      <trkpt lat="44.59935" lon="6.13544">
        <ele>1121</ele>
        <time>2025-06-12T07:33:23Z</time>
      </trkpt>
      <trkpt lat="44.59938" lon="6.13545">
        <ele>1121.2</ele>
        <time>2025-06-12T07:33:24Z</time>
      </trkpt>
      <trkpt lat="44.5994" lon="6.13547">
        <ele>1121.4</ele>
        <time>2025-06-12T07:33:25Z</time>
      </trkpt>
      <trkpt lat="44.59943" lon="6.13549">
        <ele>1121.6</ele>
        <time>2025-06-12T07:33:26Z</time>
      </trkpt>
      <trkpt lat="44.59945" lon="6.1355">
        <ele>1121.8</ele>
        <time>2025-06-12T07:33:27Z</time>
      </trkpt>
      <trkpt lat="44.59949" lon="6.13554">
        <ele>1122</ele>
        <time>2025-06-12T07:33:29Z</time>
      </trkpt>
      <trkpt lat="44.59952" lon="6.13556">
        <ele>1122</ele>
        <time>2025-06-12T07:33:30Z</time>
      </trkpt>
      <trkpt lat="44.59954" lon="6.13558">
        <ele>1122.2</ele>
        <time>2025-06-12T07:33:31Z</time>
      </trkpt>
      <trkpt lat="44.59958" lon="6.13563">
        <ele>1122.4</ele>
        <time>2025-06-12T07:33:33Z</time>
      </trkpt>
      <trkpt lat="44.5996" lon="6.13565">
        <ele>1122.6</ele>
        <time>2025-06-12T07:33:34Z</time>
      </trkpt>
      <trkpt lat="44.59962" lon="6.13567">
        <ele>1122.6</ele>
        <time>2025-06-12T07:33:35Z</time>
      </trkpt>
      <trkpt lat="44.59964" lon="6.13569">
        <ele>1122.6</ele>
        <time>2025-06-12T07:33:36Z</time>
      </trkpt>
      <trkpt lat="44.59966" lon="6.13571">
        <ele>1122.6</ele>
        <time>2025-06-12T07:33:37Z</time>
      </trkpt>
      <trkpt lat="44.59968" lon="6.13573">
        <ele>1122.8</ele>
        <time>2025-06-12T07:33:38Z</time>
      </trkpt>
      <trkpt lat="44.59971" lon="6.13575">
        <ele>1122.8</ele>
        <time>2025-06-12T07:33:39Z</time>
      </trkpt>
      <trkpt lat="44.59973" lon="6.13576">
        <ele>1123</ele>
        <time>2025-06-12T07:33:40Z</time>
      </trkpt>
      <trkpt lat="44.59977" lon="6.13579">
        <ele>1123.2</ele>
        <time>2025-06-12T07:33:42Z</time>
      </trkpt>
      <trkpt lat="44.59981" lon="6.13582">
        <ele>1123.4</ele>
        <time>2025-06-12T07:33:44Z</time>
      </trkpt>
      <trkpt lat="44.59984" lon="6.13584">
        <ele>1123.4</ele>
        <time>2025-06-12T07:33:45Z</time>
      </trkpt>
      <trkpt lat="44.59986" lon="6.13585">
        <ele>1123.2</ele>
        <time>2025-06-12T07:33:46Z</time>
      </trkpt>
      <trkpt lat="44.59988" lon="6.13587">
        <ele>1123.4</ele>
        <time>2025-06-12T07:33:47Z</time>
      </trkpt>
      <trkpt lat="44.5999" lon="6.13589">
        <ele>1123.6</ele>
        <time>2025-06-12T07:33:48Z</time>
      </trkpt>
      <trkpt lat="44.59991" lon="6.1359">
        <ele>1123.6</ele>
        <time>2025-06-12T07:33:49Z</time>
      </trkpt>
      <trkpt lat="44.59994" lon="6.13593">
        <ele>1123.8</ele>
        <time>2025-06-12T07:33:50Z</time>
      </trkpt>
      <trkpt lat="44.59996" lon="6.13595">
        <ele>1124</ele>
        <time>2025-06-12T07:33:51Z</time>
      </trkpt>
      <trkpt lat="44.59998" lon="6.13597">
        <ele>1124.2</ele>
        <time>2025-06-12T07:33:52Z</time>
      </trkpt>
      <trkpt lat="44.6" lon="6.13599">
        <ele>1124.6</ele>
        <time>2025-06-12T07:33:53Z</time>
      </trkpt>
      <trkpt lat="44.60002" lon="6.13601">
        <ele>1124.6</ele>
        <time>2025-06-12T07:33:54Z</time>
      </trkpt>
      <trkpt lat="44.60005" lon="6.13602">
        <ele>1124.8</ele>
        <time>2025-06-12T07:33:55Z</time>
      </trkpt>
      <trkpt lat="44.6001" lon="6.13606">
        <ele>1125</ele>
        <time>2025-06-12T07:33:57Z</time>
      </trkpt>
      <trkpt lat="44.60017" lon="6.13609">
        <ele>1125.4</ele>
        <time>2025-06-12T07:33:59Z</time>
      </trkpt>
      <trkpt lat="44.6002" lon="6.1361">
        <ele>1125.4</ele>
        <time>2025-06-12T07:34:00Z</time>
      </trkpt>
      <trkpt lat="44.60023" lon="6.13611">
        <ele>1125.6</ele>
        <time>2025-06-12T07:34:01Z</time>
      </trkpt>
      <trkpt lat="44.60026" lon="6.13612">
        <ele>1125.8</ele>
        <time>2025-06-12T07:34:02Z</time>
      </trkpt>
      <trkpt lat="44.60029" lon="6.13613">
        <ele>1126</ele>
        <time>2025-06-12T07:34:03Z</time>
      </trkpt>
      <trkpt lat="44.60031" lon="6.13613">
        <ele>1126.2</ele>
        <time>2025-06-12T07:34:04Z</time>
      </trkpt>
      <trkpt lat="44.60034" lon="6.13614">
        <ele>1126.2</ele>
        <time>2025-06-12T07:34:05Z</time>
      </trkpt>
      <trkpt lat="44.60037" lon="6.13614">
        <ele>1126.4</ele>
        <time>2025-06-12T07:34:06Z</time>
      </trkpt>
      <trkpt lat="44.60042" lon="6.13615">
        <ele>1126.6</ele>
        <time>2025-06-12T07:34:08Z</time>
      </trkpt>
      <trkpt lat="44.60049" lon="6.13617">
        <ele>1126.8</ele>
        <time>2025-06-12T07:34:10Z</time>
      </trkpt>
      <trkpt lat="44.60054" lon="6.13619">
        <ele>1127.2</ele>
        <time>2025-06-12T07:34:12Z</time>
      </trkpt>
      <trkpt lat="44.60057" lon="6.1362">
        <ele>1127.4</ele>
        <time>2025-06-12T07:34:14Z</time>
      </trkpt>
      <trkpt lat="44.60059" lon="6.13621">
        <ele>1127.6</ele>
        <time>2025-06-12T07:34:15Z</time>
      </trkpt>
      <trkpt lat="44.60061" lon="6.13621">
        <ele>1127.6</ele>
        <time>2025-06-12T07:34:16Z</time>
      </trkpt>
      <trkpt lat="44.60064" lon="6.13621">
        <ele>1127.6</ele>
        <time>2025-06-12T07:34:17Z</time>
      </trkpt>
      <trkpt lat="44.60067" lon="6.13621">
        <ele>1127.8</ele>
        <time>2025-06-12T07:34:18Z</time>
      </trkpt>
      <trkpt lat="44.6007" lon="6.1362">
        <ele>1128</ele>
        <time>2025-06-12T07:34:19Z</time>
      </trkpt>
      <trkpt lat="44.60076" lon="6.13618">
        <ele>1128.4</ele>
        <time>2025-06-12T07:34:21Z</time>
      </trkpt>
      <trkpt lat="44.60082" lon="6.13615">
        <ele>1128.6</ele>
        <time>2025-06-12T07:34:23Z</time>
      </trkpt>
      <trkpt lat="44.60084" lon="6.13613">
        <ele>1128.8</ele>
        <time>2025-06-12T07:34:24Z</time>
      </trkpt>
      <trkpt lat="44.60087" lon="6.13611">
        <ele>1129</ele>
        <time>2025-06-12T07:34:25Z</time>
      </trkpt>
      <trkpt lat="44.6009" lon="6.13608">
        <ele>1129.4</ele>
        <time>2025-06-12T07:34:26Z</time>
      </trkpt>
      <trkpt lat="44.60092" lon="6.13606">
        <ele>1129.6</ele>
        <time>2025-06-12T07:34:27Z</time>
      </trkpt>
      <trkpt lat="44.60094" lon="6.13603">
        <ele>1129.6</ele>
        <time>2025-06-12T07:34:28Z</time>
      </trkpt>
      <trkpt lat="44.60097" lon="6.136">
        <ele>1129.8</ele>
        <time>2025-06-12T07:34:29Z</time>
      </trkpt>
      <trkpt lat="44.60099" lon="6.13597">
        <ele>1130.2</ele>
        <time>2025-06-12T07:34:30Z</time>
      </trkpt>
      <trkpt lat="44.60102" lon="6.13594">
        <ele>1130.4</ele>
        <time>2025-06-12T07:34:31Z</time>
      </trkpt>
      <trkpt lat="44.60105" lon="6.13593">
        <ele>1130.6</ele>
        <time>2025-06-12T07:34:32Z</time>
      </trkpt>
      <trkpt lat="44.60108" lon="6.13591">
        <ele>1130.8</ele>
        <time>2025-06-12T07:34:33Z</time>
      </trkpt>
      <trkpt lat="44.6011" lon="6.13591">
        <ele>1131</ele>
        <time>2025-06-12T07:34:34Z</time>
      </trkpt>
      <trkpt lat="44.60116" lon="6.13591">
        <ele>1131.2</ele>
        <time>2025-06-12T07:34:36Z</time>
      </trkpt>
      <trkpt lat="44.60121" lon="6.13594">
        <ele>1131.8</ele>
        <time>2025-06-12T07:34:38Z</time>
      </trkpt>
      <trkpt lat="44.60126" lon="6.13597">
        <ele>1132</ele>
        <time>2025-06-12T07:34:40Z</time>
      </trkpt>
      <trkpt lat="44.6013" lon="6.13602">
        <ele>1132.4</ele>
        <time>2025-06-12T07:34:42Z</time>
      </trkpt>
      <trkpt lat="44.60133" lon="6.13604">
        <ele>1132.8</ele>
        <time>2025-06-12T07:34:43Z</time>
      </trkpt>
      <trkpt lat="44.60135" lon="6.13607">
        <ele>1133</ele>
        <time>2025-06-12T07:34:44Z</time>
      </trkpt>
      <trkpt lat="44.60137" lon="6.13609">
        <ele>1133.4</ele>
        <time>2025-06-12T07:34:45Z</time>
      </trkpt>
      <trkpt lat="44.60139" lon="6.13611">
        <ele>1133.6</ele>
        <time>2025-06-12T07:34:46Z</time>
      </trkpt>
      <trkpt lat="44.60142" lon="6.13614">
        <ele>1133.8</ele>
        <time>2025-06-12T07:34:47Z</time>
      </trkpt>
      <trkpt lat="44.60144" lon="6.13616">
        <ele>1134.2</ele>
        <time>2025-06-12T07:34:48Z</time>
      </trkpt>
      <trkpt lat="44.60146" lon="6.13619">
        <ele>1134.4</ele>
        <time>2025-06-12T07:34:49Z</time>
      </trkpt>
      <trkpt lat="44.60148" lon="6.13621">
        <ele>1134.4</ele>
        <time>2025-06-12T07:34:50Z</time>
      </trkpt>
      <trkpt lat="44.6015" lon="6.13623">
        <ele>1134.6</ele>
        <time>2025-06-12T07:34:51Z</time>
      </trkpt>
      <trkpt lat="44.60152" lon="6.13625">
        <ele>1135</ele>
        <time>2025-06-12T07:34:52Z</time>
      </trkpt>
      <trkpt lat="44.60155" lon="6.13627">
        <ele>1135</ele>
        <time>2025-06-12T07:34:53Z</time>
      </trkpt>
      <trkpt lat="44.6016" lon="6.13631">
        <ele>1135.2</ele>
        <time>2025-06-12T07:34:55Z</time>
      </trkpt>
      <trkpt lat="44.60165" lon="6.13634">
        <ele>1135.6</ele>
        <time>2025-06-12T07:34:57Z</time>
      </trkpt>
      <trkpt lat="44.60168" lon="6.13635">
        <ele>1135.8</ele>
        <time>2025-06-12T07:34:58Z</time>
      </trkpt>
      <trkpt lat="44.6017" lon="6.13636">
        <ele>1135.8</ele>
        <time>2025-06-12T07:34:59Z</time>
      </trkpt>
      <trkpt lat="44.60173" lon="6.13638">
        <ele>1136.2</ele>
        <time>2025-06-12T07:35:00Z</time>
      </trkpt>
      <trkpt lat="44.60176" lon="6.13639">
        <ele>1136.4</ele>
        <time>2025-06-12T07:35:01Z</time>
      </trkpt>
      <trkpt lat="44.60179" lon="6.13639">
        <ele>1136.6</ele>
        <time>2025-06-12T07:35:02Z</time>
      </trkpt>
      <trkpt lat="44.60184" lon="6.1364">
        <ele>1137</ele>
        <time>2025-06-12T07:35:04Z</time>
      </trkpt>
      <trkpt lat="44.6019" lon="6.13639">
        <ele>1137.2</ele>
        <time>2025-06-12T07:35:06Z</time>
      </trkpt>
      <trkpt lat="44.60192" lon="6.13637">
        <ele>1137.4</ele>
        <time>2025-06-12T07:35:07Z</time>
      </trkpt>
      <trkpt lat="44.60195" lon="6.13635">
        <ele>1137.4</ele>
        <time>2025-06-12T07:35:08Z</time>
      </trkpt>
      <trkpt lat="44.60197" lon="6.13633">
        <ele>1137.6</ele>
        <time>2025-06-12T07:35:09Z</time>
      </trkpt>
      <trkpt lat="44.602" lon="6.13631">
        <ele>1137.8</ele>
        <time>2025-06-12T07:35:10Z</time>
      </trkpt>
      <trkpt lat="44.60202" lon="6.13629">
        <ele>1137.8</ele>
        <time>2025-06-12T07:35:11Z</time>
      </trkpt>
      <trkpt lat="44.60205" lon="6.13627">
        <ele>1138</ele>
        <time>2025-06-12T07:35:12Z</time>
      </trkpt>
      <trkpt lat="44.60207" lon="6.13625">
        <ele>1138.2</ele>
        <time>2025-06-12T07:35:13Z</time>
      </trkpt>
      <trkpt lat="44.6021" lon="6.13622">
        <ele>1138.4</ele>
        <time>2025-06-12T07:35:14Z</time>
      </trkpt>
      <trkpt lat="44.60212" lon="6.1362">
        <ele>1138.6</ele>
        <time>2025-06-12T07:35:15Z</time>
      </trkpt>
      <trkpt lat="44.60217" lon="6.13615">
        <ele>1138.8</ele>
        <time>2025-06-12T07:35:17Z</time>
      </trkpt>
      <trkpt lat="44.60222" lon="6.13611">
        <ele>1139.2</ele>
        <time>2025-06-12T07:35:19Z</time>
      </trkpt>
      <trkpt lat="44.60224" lon="6.13609">
        <ele>1139.4</ele>
        <time>2025-06-12T07:35:20Z</time>
      </trkpt>
      <trkpt lat="44.60227" lon="6.13608">
        <ele>1139.6</ele>
        <time>2025-06-12T07:35:21Z</time>
      </trkpt>
      <trkpt lat="44.60229" lon="6.13606">
        <ele>1139.8</ele>
        <time>2025-06-12T07:35:22Z</time>
      </trkpt>
      <trkpt lat="44.60232" lon="6.13605">
        <ele>1140</ele>
        <time>2025-06-12T07:35:23Z</time>
      </trkpt>
      <trkpt lat="44.60234" lon="6.13604">
        <ele>1140.2</ele>
        <time>2025-06-12T07:35:24Z</time>
      </trkpt>
      <trkpt lat="44.60236" lon="6.13602">
        <ele>1140.4</ele>
        <time>2025-06-12T07:35:25Z</time>
      </trkpt>
      <trkpt lat="44.60239" lon="6.13601">
        <ele>1140.6</ele>
        <time>2025-06-12T07:35:26Z</time>
      </trkpt>
      <trkpt lat="44.60241" lon="6.13599">
        <ele>1140.6</ele>
        <time>2025-06-12T07:35:27Z</time>
      </trkpt>
      <trkpt lat="44.60243" lon="6.13597">
        <ele>1140.8</ele>
        <time>2025-06-12T07:35:28Z</time>
      </trkpt>
      <trkpt lat="44.60248" lon="6.13594">
        <ele>1140.8</ele>
        <time>2025-06-12T07:35:30Z</time>
      </trkpt>
      <trkpt lat="44.6025" lon="6.13593">
        <ele>1141</ele>
        <time>2025-06-12T07:35:31Z</time>
      </trkpt>
      <trkpt lat="44.60253" lon="6.13592">
        <ele>1141.2</ele>
        <time>2025-06-12T07:35:32Z</time>
      </trkpt>
      <trkpt lat="44.60255" lon="6.1359">
        <ele>1141.4</ele>
        <time>2025-06-12T07:35:33Z</time>
      </trkpt>
      <trkpt lat="44.60258" lon="6.13589">
        <ele>1141.6</ele>
        <time>2025-06-12T07:35:34Z</time>
      </trkpt>
      <trkpt lat="44.6026" lon="6.13587">
        <ele>1141.8</ele>
        <time>2025-06-12T07:35:35Z</time>
      </trkpt>
      <trkpt lat="44.60262" lon="6.13586">
        <ele>1141.8</ele>
        <time>2025-06-12T07:35:36Z</time>
      </trkpt>
      <trkpt lat="44.60264" lon="6.13585">
        <ele>1142</ele>
        <time>2025-06-12T07:35:37Z</time>
      </trkpt>
      <trkpt lat="44.60267" lon="6.13583">
        <ele>1142.2</ele>
        <time>2025-06-12T07:35:38Z</time>
      </trkpt>
      <trkpt lat="44.60269" lon="6.13582">
        <ele>1142.4</ele>
        <time>2025-06-12T07:35:39Z</time>
      </trkpt>
      <trkpt lat="44.60273" lon="6.1358">
        <ele>1142.8</ele>
        <time>2025-06-12T07:35:41Z</time>
      </trkpt>
      <trkpt lat="44.60275" lon="6.13579">
        <ele>1143</ele>
        <time>2025-06-12T07:35:42Z</time>
      </trkpt>
      <trkpt lat="44.60277" lon="6.13578">
        <ele>1143.6</ele>
        <time>2025-06-12T07:35:43Z</time>
      </trkpt>
      <trkpt lat="44.60279" lon="6.13577">
        <ele>1143.6</ele>
        <time>2025-06-12T07:35:44Z</time>
      </trkpt>
      <trkpt lat="44.60281" lon="6.13576">
        <ele>1143.8</ele>
        <time>2025-06-12T07:35:45Z</time>
      </trkpt>
      <trkpt lat="44.60284" lon="6.13574">
        <ele>1144</ele>
        <time>2025-06-12T07:35:46Z</time>
      </trkpt>
      <trkpt lat="44.60286" lon="6.13573">
        <ele>1144</ele>
        <time>2025-06-12T07:35:47Z</time>
      </trkpt>
      <trkpt lat="44.60289" lon="6.13572">
        <ele>1144.2</ele>
        <time>2025-06-12T07:35:48Z</time>
      </trkpt>
      <trkpt lat="44.60291" lon="6.13571">
        <ele>1144.6</ele>
        <time>2025-06-12T07:35:49Z</time>
      </trkpt>
      <trkpt lat="44.60294" lon="6.13569">
        <ele>1144.8</ele>
        <time>2025-06-12T07:35:50Z</time>
      </trkpt>
      <trkpt lat="44.60299" lon="6.13565">
        <ele>1145</ele>
        <time>2025-06-12T07:35:52Z</time>
      </trkpt>
      <trkpt lat="44.60304" lon="6.13561">
        <ele>1145.6</ele>
        <time>2025-06-12T07:35:54Z</time>
      </trkpt>
      <trkpt lat="44.60307" lon="6.13559">
        <ele>1145.8</ele>
        <time>2025-06-12T07:35:55Z</time>
      </trkpt>
      <trkpt lat="44.60309" lon="6.13558">
        <ele>1146</ele>
        <time>2025-06-12T07:35:56Z</time>
      </trkpt>
      <trkpt lat="44.60311" lon="6.13555">
        <ele>1146.2</ele>
        <time>2025-06-12T07:35:57Z</time>
      </trkpt>
      <trkpt lat="44.60314" lon="6.13551">
        <ele>1146.6</ele>
        <time>2025-06-12T07:35:59Z</time>
      </trkpt>
      <trkpt lat="44.60315" lon="6.13548">
        <ele>1147</ele>
        <time>2025-06-12T07:36:00Z</time>
      </trkpt>
      <trkpt lat="44.60317" lon="6.13545">
        <ele>1147</ele>
        <time>2025-06-12T07:36:01Z</time>
      </trkpt>
      <trkpt lat="44.6032" lon="6.1354">
        <ele>1147.4</ele>
        <time>2025-06-12T07:36:03Z</time>
      </trkpt>
      <trkpt lat="44.60322" lon="6.13537">
        <ele>1147.6</ele>
        <time>2025-06-12T07:36:04Z</time>
      </trkpt>
      <trkpt lat="44.60324" lon="6.13535">
        <ele>1148</ele>
        <time>2025-06-12T07:36:05Z</time>
      </trkpt>
      <trkpt lat="44.60327" lon="6.13533">
        <ele>1148.4</ele>
        <time>2025-06-12T07:36:06Z</time>
      </trkpt>
      <trkpt lat="44.60332" lon="6.13532">
        <ele>1149</ele>
        <time>2025-06-12T07:36:08Z</time>
      </trkpt>
      <trkpt lat="44.60336" lon="6.13533">
        <ele>1149.6</ele>
        <time>2025-06-12T07:36:10Z</time>
      </trkpt>
      <trkpt lat="44.60338" lon="6.13534">
        <ele>1149.8</ele>
        <time>2025-06-12T07:36:11Z</time>
      </trkpt>
      <trkpt lat="44.60339" lon="6.13537">
        <ele>1149.8</ele>
        <time>2025-06-12T07:36:12Z</time>
      </trkpt>
      <trkpt lat="44.60341" lon="6.13539">
        <ele>1150</ele>
        <time>2025-06-12T07:36:13Z</time>
      </trkpt>
      <trkpt lat="44.60341" lon="6.13542">
        <ele>1150</ele>
        <time>2025-06-12T07:36:14Z</time>
      </trkpt>
      <trkpt lat="44.60342" lon="6.13545">
        <ele>1150.2</ele>
        <time>2025-06-12T07:36:15Z</time>
      </trkpt>
      <trkpt lat="44.60342" lon="6.13548">
        <ele>1150.4</ele>
        <time>2025-06-12T07:36:16Z</time>
      </trkpt>
      <trkpt lat="44.60343" lon="6.13551">
        <ele>1150.4</ele>
        <time>2025-06-12T07:36:17Z</time>
      </trkpt>
      <trkpt lat="44.60343" lon="6.13554">
        <ele>1150.6</ele>
        <time>2025-06-12T07:36:18Z</time>
      </trkpt>
      <trkpt lat="44.60343" lon="6.13557">
        <ele>1151</ele>
        <time>2025-06-12T07:36:19Z</time>
      </trkpt>
      <trkpt lat="44.60343" lon="6.1356">
        <ele>1151.2</ele>
        <time>2025-06-12T07:36:20Z</time>
      </trkpt>
      <trkpt lat="44.60344" lon="6.13563">
        <ele>1151.6</ele>
        <time>2025-06-12T07:36:21Z</time>
      </trkpt>
      <trkpt lat="44.60344" lon="6.13566">
        <ele>1152</ele>
        <time>2025-06-12T07:36:22Z</time>
      </trkpt>
      <trkpt lat="44.60344" lon="6.13569">
        <ele>1152.4</ele>
        <time>2025-06-12T07:36:23Z</time>
      </trkpt>
      <trkpt lat="44.60345" lon="6.13572">
        <ele>1152.8</ele>
        <time>2025-06-12T07:36:24Z</time>
      </trkpt>
      <trkpt lat="44.60345" lon="6.13579">
        <ele>1153.2</ele>
        <time>2025-06-12T07:36:26Z</time>
      </trkpt>
      <trkpt lat="44.60346" lon="6.13585">
        <ele>1153.6</ele>
        <time>2025-06-12T07:36:28Z</time>
      </trkpt>
      <trkpt lat="44.60347" lon="6.13589">
        <ele>1153.8</ele>
        <time>2025-06-12T07:36:29Z</time>
      </trkpt>
      <trkpt lat="44.60347" lon="6.13592">
        <ele>1154</ele>
        <time>2025-06-12T07:36:30Z</time>
      </trkpt>
      <trkpt lat="44.60348" lon="6.13595">
        <ele>1154.2</ele>
        <time>2025-06-12T07:36:31Z</time>
      </trkpt>
      <trkpt lat="44.60348" lon="6.13598">
        <ele>1154.2</ele>
        <time>2025-06-12T07:36:32Z</time>
      </trkpt>
      <trkpt lat="44.60348" lon="6.13602">
        <ele>1154.4</ele>
        <time>2025-06-12T07:36:33Z</time>
      </trkpt>
      <trkpt lat="44.60348" lon="6.13605">
        <ele>1154.6</ele>
        <time>2025-06-12T07:36:34Z</time>
      </trkpt>
      <trkpt lat="44.60349" lon="6.13608">
        <ele>1154.6</ele>
        <time>2025-06-12T07:36:35Z</time>
      </trkpt>
      <trkpt lat="44.60349" lon="6.13611">
        <ele>1154.8</ele>
        <time>2025-06-12T07:36:36Z</time>
      </trkpt>
      <trkpt lat="44.60349" lon="6.13615">
        <ele>1155</ele>
        <time>2025-06-12T07:36:37Z</time>
      </trkpt>
      <trkpt lat="44.6035" lon="6.13618">
        <ele>1155.4</ele>
        <time>2025-06-12T07:36:38Z</time>
      </trkpt>
      <trkpt lat="44.6035" lon="6.13624">
        <ele>1155.8</ele>
        <time>2025-06-12T07:36:40Z</time>
      </trkpt>
      <trkpt lat="44.6035" lon="6.13627">
        <ele>1155.8</ele>
        <time>2025-06-12T07:36:41Z</time>
      </trkpt>
      <trkpt lat="44.60351" lon="6.1363">
        <ele>1156</ele>
        <time>2025-06-12T07:36:42Z</time>
      </trkpt>
      <trkpt lat="44.60351" lon="6.13633">
        <ele>1156.4</ele>
        <time>2025-06-12T07:36:43Z</time>
      </trkpt>
      <trkpt lat="44.60351" lon="6.13636">
        <ele>1156.6</ele>
        <time>2025-06-12T07:36:44Z</time>
      </trkpt>
      <trkpt lat="44.60352" lon="6.13639">
        <ele>1156.8</ele>
        <time>2025-06-12T07:36:45Z</time>
      </trkpt>
      <trkpt lat="44.60352" lon="6.13646">
        <ele>1157.2</ele>
        <time>2025-06-12T07:36:47Z</time>
      </trkpt>
      <trkpt lat="44.60353" lon="6.13649">
        <ele>1157.4</ele>
        <time>2025-06-12T07:36:48Z</time>
      </trkpt>
      <trkpt lat="44.60353" lon="6.13652">
        <ele>1157.6</ele>
        <time>2025-06-12T07:36:49Z</time>
      </trkpt>
      <trkpt lat="44.60353" lon="6.13655">
        <ele>1157.8</ele>
        <time>2025-06-12T07:36:50Z</time>
      </trkpt>
      <trkpt lat="44.60354" lon="6.13659">
        <ele>1157.8</ele>
        <time>2025-06-12T07:36:51Z</time>
      </trkpt>
      <trkpt lat="44.60354" lon="6.13662">
        <ele>1158</ele>
        <time>2025-06-12T07:36:52Z</time>
      </trkpt>
      <trkpt lat="44.60355" lon="6.13668">
        <ele>1158.6</ele>
        <time>2025-06-12T07:36:54Z</time>
      </trkpt>
      <trkpt lat="44.60356" lon="6.13675">
        <ele>1159</ele>
        <time>2025-06-12T07:36:56Z</time>
      </trkpt>
      <trkpt lat="44.60356" lon="6.13678">
        <ele>1159.2</ele>
        <time>2025-06-12T07:36:57Z</time>
      </trkpt>
      <trkpt lat="44.60356" lon="6.13681">
        <ele>1159.6</ele>
        <time>2025-06-12T07:36:58Z</time>
      </trkpt>
      <trkpt lat="44.60356" lon="6.13684">
        <ele>1159.8</ele>
        <time>2025-06-12T07:36:59Z</time>
      </trkpt>
      <trkpt lat="44.60357" lon="6.13688">
        <ele>1160</ele>
        <time>2025-06-12T07:37:00Z</time>
      </trkpt>
      <trkpt lat="44.60357" lon="6.13691">
        <ele>1160</ele>
        <time>2025-06-12T07:37:01Z</time>
      </trkpt>
      <trkpt lat="44.60357" lon="6.13697">
        <ele>1160.2</ele>
        <time>2025-06-12T07:37:03Z</time>
      </trkpt>
      <trkpt lat="44.60358" lon="6.137">
        <ele>1160.2</ele>
        <time>2025-06-12T07:37:04Z</time>
      </trkpt>
      <trkpt lat="44.60358" lon="6.13703">
        <ele>1160.4</ele>
        <time>2025-06-12T07:37:05Z</time>
      </trkpt>
      <trkpt lat="44.60358" lon="6.13706">
        <ele>1161</ele>
        <time>2025-06-12T07:37:06Z</time>
      </trkpt>
      <trkpt lat="44.60358" lon="6.13709">
        <ele>1161.2</ele>
        <time>2025-06-12T07:37:07Z</time>
      </trkpt>
      <trkpt lat="44.60357" lon="6.13712">
        <ele>1161.4</ele>
        <time>2025-06-12T07:37:08Z</time>
      </trkpt>
      <trkpt lat="44.60357" lon="6.13715">
        <ele>1161.6</ele>
        <time>2025-06-12T07:37:09Z</time>
      </trkpt>
      <trkpt lat="44.60357" lon="6.13718">
        <ele>1161.8</ele>
        <time>2025-06-12T07:37:10Z</time>
      </trkpt>
      <trkpt lat="44.60356" lon="6.13722">
        <ele>1162</ele>
        <time>2025-06-12T07:37:11Z</time>
      </trkpt>
      <trkpt lat="44.60355" lon="6.13725">
        <ele>1162.4</ele>
        <time>2025-06-12T07:37:12Z</time>
      </trkpt>
      <trkpt lat="44.60355" lon="6.13728">
        <ele>1162.6</ele>
        <time>2025-06-12T07:37:13Z</time>
      </trkpt>
      <trkpt lat="44.60354" lon="6.1373">
        <ele>1163</ele>
        <time>2025-06-12T07:37:14Z</time>
      </trkpt>
      <trkpt lat="44.60353" lon="6.13733">
        <ele>1163.2</ele>
        <time>2025-06-12T07:37:15Z</time>
      </trkpt>
      <trkpt lat="44.60351" lon="6.13739">
        <ele>1163.4</ele>
        <time>2025-06-12T07:37:17Z</time>
      </trkpt>
      <trkpt lat="44.60351" lon="6.13741">
        <ele>1163.8</ele>
        <time>2025-06-12T07:37:18Z</time>
      </trkpt>
      <trkpt lat="44.6035" lon="6.13744">
        <ele>1164</ele>
        <time>2025-06-12T07:37:19Z</time>
      </trkpt>
      <trkpt lat="44.60349" lon="6.13746">
        <ele>1164.2</ele>
        <time>2025-06-12T07:37:20Z</time>
      </trkpt>
      <trkpt lat="44.60349" lon="6.13748">
        <ele>1164.4</ele>
        <time>2025-06-12T07:37:21Z</time>
      </trkpt>
      <trkpt lat="44.60347" lon="6.13751">
        <ele>1164.4</ele>
        <time>2025-06-12T07:37:22Z</time>
      </trkpt>
      <trkpt lat="44.60346" lon="6.13754">
        <ele>1164.6</ele>
        <time>2025-06-12T07:37:23Z</time>
      </trkpt>
      <trkpt lat="44.60345" lon="6.13756">
        <ele>1164.8</ele>
        <time>2025-06-12T07:37:24Z</time>
      </trkpt>
      <trkpt lat="44.60344" lon="6.13759">
        <ele>1165.2</ele>
        <time>2025-06-12T07:37:25Z</time>
      </trkpt>
      <trkpt lat="44.60343" lon="6.13761">
        <ele>1165.4</ele>
        <time>2025-06-12T07:37:26Z</time>
      </trkpt>
      <trkpt lat="44.60342" lon="6.13764">
        <ele>1165.6</ele>
        <time>2025-06-12T07:37:27Z</time>
      </trkpt>
      <trkpt lat="44.60341" lon="6.13766">
        <ele>1165.8</ele>
        <time>2025-06-12T07:37:28Z</time>
      </trkpt>
      <trkpt lat="44.6034" lon="6.13769">
        <ele>1166</ele>
        <time>2025-06-12T07:37:29Z</time>
      </trkpt>
      <trkpt lat="44.60338" lon="6.13771">
        <ele>1166.2</ele>
        <time>2025-06-12T07:37:30Z</time>
      </trkpt>
      <trkpt lat="44.60338" lon="6.13774">
        <ele>1166.2</ele>
        <time>2025-06-12T07:37:31Z</time>
      </trkpt>
      <trkpt lat="44.60337" lon="6.13776">
        <ele>1166.6</ele>
        <time>2025-06-12T07:37:32Z</time>
      </trkpt>
      <trkpt lat="44.60336" lon="6.13779">
        <ele>1166.8</ele>
        <time>2025-06-12T07:37:33Z</time>
      </trkpt>
      <trkpt lat="44.60335" lon="6.13781">
        <ele>1167.2</ele>
        <time>2025-06-12T07:37:34Z</time>
      </trkpt>
      <trkpt lat="44.60333" lon="6.13783">
        <ele>1167.4</ele>
        <time>2025-06-12T07:37:35Z</time>
      </trkpt>
      <trkpt lat="44.60331" lon="6.13788">
        <ele>1167.8</ele>
        <time>2025-06-12T07:37:37Z</time>
      </trkpt>
      <trkpt lat="44.6033" lon="6.1379">
        <ele>1168</ele>
        <time>2025-06-12T07:37:38Z</time>
      </trkpt>
      <trkpt lat="44.60329" lon="6.13793">
        <ele>1168.2</ele>
        <time>2025-06-12T07:37:39Z</time>
      </trkpt>
      <trkpt lat="44.60328" lon="6.13796">
        <ele>1168.4</ele>
        <time>2025-06-12T07:37:40Z</time>
      </trkpt>
      <trkpt lat="44.60327" lon="6.13799">
        <ele>1168.6</ele>
        <time>2025-06-12T07:37:41Z</time>
      </trkpt>
      <trkpt lat="44.60326" lon="6.13802">
        <ele>1168.6</ele>
        <time>2025-06-12T07:37:42Z</time>
      </trkpt>
      <trkpt lat="44.60323" lon="6.13807">
        <ele>1169</ele>
        <time>2025-06-12T07:37:44Z</time>
      </trkpt>
      <trkpt lat="44.60321" lon="6.13813">
        <ele>1169.4</ele>
        <time>2025-06-12T07:37:46Z</time>
      </trkpt>
      <trkpt lat="44.6032" lon="6.13816">
        <ele>1169.4</ele>
        <time>2025-06-12T07:37:47Z</time>
      </trkpt>
      <trkpt lat="44.60319" lon="6.13819">
        <ele>1169.8</ele>
        <time>2025-06-12T07:37:48Z</time>
      </trkpt>
      <trkpt lat="44.60318" lon="6.13822">
        <ele>1169.8</ele>
        <time>2025-06-12T07:37:49Z</time>
      </trkpt>
      <trkpt lat="44.60317" lon="6.13826">
        <ele>1170</ele>
        <time>2025-06-12T07:37:50Z</time>
      </trkpt>
      <trkpt lat="44.60316" lon="6.13829">
        <ele>1170</ele>
        <time>2025-06-12T07:37:51Z</time>
      </trkpt>
      <trkpt lat="44.60315" lon="6.13832">
        <ele>1170.4</ele>
        <time>2025-06-12T07:37:52Z</time>
      </trkpt>
      <trkpt lat="44.60314" lon="6.13836">
        <ele>1170.4</ele>
        <time>2025-06-12T07:37:53Z</time>
      </trkpt>
      <trkpt lat="44.60313" lon="6.13839">
        <ele>1170.4</ele>
        <time>2025-06-12T07:37:54Z</time>
      </trkpt>
      <trkpt lat="44.60312" lon="6.13843">
        <ele>1170.6</ele>
        <time>2025-06-12T07:37:55Z</time>
      </trkpt>
      <trkpt lat="44.60311" lon="6.13849">
        <ele>1171</ele>
        <time>2025-06-12T07:37:57Z</time>
      </trkpt>
      <trkpt lat="44.6031" lon="6.13853">
        <ele>1171.4</ele>
        <time>2025-06-12T07:37:58Z</time>
      </trkpt>
      <trkpt lat="44.6031" lon="6.13856">
        <ele>1171.6</ele>
        <time>2025-06-12T07:37:59Z</time>
      </trkpt>
      <trkpt lat="44.6031" lon="6.1386">
        <ele>1171.8</ele>
        <time>2025-06-12T07:38:00Z</time>
      </trkpt>
      <trkpt lat="44.60309" lon="6.13863">
        <ele>1172</ele>
        <time>2025-06-12T07:38:01Z</time>
      </trkpt>
      <trkpt lat="44.60309" lon="6.13867">
        <ele>1172.2</ele>
        <time>2025-06-12T07:38:02Z</time>
      </trkpt>
      <trkpt lat="44.60308" lon="6.1387">
        <ele>1172.4</ele>
        <time>2025-06-12T07:38:03Z</time>
      </trkpt>
      <trkpt lat="44.60308" lon="6.13874">
        <ele>1172.4</ele>
        <time>2025-06-12T07:38:04Z</time>
      </trkpt>
      <trkpt lat="44.60308" lon="6.13881">
        <ele>1172.8</ele>
        <time>2025-06-12T07:38:06Z</time>
      </trkpt>
      <trkpt lat="44.60308" lon="6.13888">
        <ele>1173.2</ele>
        <time>2025-06-12T07:38:08Z</time>
      </trkpt>
      <trkpt lat="44.60308" lon="6.13892">
        <ele>1173.2</ele>
        <time>2025-06-12T07:38:09Z</time>
      </trkpt>
      <trkpt lat="44.60309" lon="6.13895">
        <ele>1173.4</ele>
        <time>2025-06-12T07:38:10Z</time>
      </trkpt>
      <trkpt lat="44.60309" lon="6.13899">
        <ele>1173.6</ele>
        <time>2025-06-12T07:38:11Z</time>
      </trkpt>
      <trkpt lat="44.6031" lon="6.13906">
        <ele>1174.2</ele>
        <time>2025-06-12T07:38:13Z</time>
      </trkpt>
      <trkpt lat="44.60311" lon="6.13914">
        <ele>1174.8</ele>
        <time>2025-06-12T07:38:15Z</time>
      </trkpt>
      <trkpt lat="44.60311" lon="6.13917">
        <ele>1174.8</ele>
        <time>2025-06-12T07:38:16Z</time>
      </trkpt>
      <trkpt lat="44.60312" lon="6.13921">
        <ele>1175</ele>
        <time>2025-06-12T07:38:17Z</time>
      </trkpt>
      <trkpt lat="44.60312" lon="6.13925">
        <ele>1175.2</ele>
        <time>2025-06-12T07:38:18Z</time>
      </trkpt>
      <trkpt lat="44.60312" lon="6.13928">
        <ele>1175.6</ele>
        <time>2025-06-12T07:38:19Z</time>
      </trkpt>
      <trkpt lat="44.60313" lon="6.13932">
        <ele>1175.6</ele>
        <time>2025-06-12T07:38:20Z</time>
      </trkpt>
      <trkpt lat="44.60314" lon="6.13939">
        <ele>1175.8</ele>
        <time>2025-06-12T07:38:22Z</time>
      </trkpt>
      <trkpt lat="44.60314" lon="6.13943">
        <ele>1176</ele>
        <time>2025-06-12T07:38:23Z</time>
      </trkpt>
      <trkpt lat="44.60314" lon="6.13946">
        <ele>1176.2</ele>
        <time>2025-06-12T07:38:24Z</time>
      </trkpt>
      <trkpt lat="44.60314" lon="6.1395">
        <ele>1176.4</ele>
        <time>2025-06-12T07:38:25Z</time>
      </trkpt>
      <trkpt lat="44.60314" lon="6.13957">
        <ele>1176.6</ele>
        <time>2025-06-12T07:38:27Z</time>
      </trkpt>
      <trkpt lat="44.60314" lon="6.13964">
        <ele>1177.2</ele>
        <time>2025-06-12T07:38:29Z</time>
      </trkpt>
      <trkpt lat="44.60314" lon="6.13967">
        <ele>1177.4</ele>
        <time>2025-06-12T07:38:30Z</time>
      </trkpt>
      <trkpt lat="44.60313" lon="6.13971">
        <ele>1177.4</ele>
        <time>2025-06-12T07:38:31Z</time>
      </trkpt>
      <trkpt lat="44.60313" lon="6.13974">
        <ele>1177.6</ele>
        <time>2025-06-12T07:38:32Z</time>
      </trkpt>
      <trkpt lat="44.60312" lon="6.13978">
        <ele>1177.8</ele>
        <time>2025-06-12T07:38:33Z</time>
      </trkpt>
      <trkpt lat="44.60312" lon="6.13981">
        <ele>1178</ele>
        <time>2025-06-12T07:38:34Z</time>
      </trkpt>
      <trkpt lat="44.6031" lon="6.13988">
        <ele>1178.4</ele>
        <time>2025-06-12T07:38:36Z</time>
      </trkpt>
      <trkpt lat="44.60309" lon="6.13991">
        <ele>1178.6</ele>
        <time>2025-06-12T07:38:37Z</time>
      </trkpt>
      <trkpt lat="44.60309" lon="6.13994">
        <ele>1178.8</ele>
        <time>2025-06-12T07:38:38Z</time>
      </trkpt>
      <trkpt lat="44.60308" lon="6.13997">
        <ele>1179</ele>
        <time>2025-06-12T07:38:39Z</time>
      </trkpt>
      <trkpt lat="44.60307" lon="6.14">
        <ele>1179.2</ele>
        <time>2025-06-12T07:38:40Z</time>
      </trkpt>
      <trkpt lat="44.60306" lon="6.14003">
        <ele>1179.4</ele>
        <time>2025-06-12T07:38:41Z</time>
      </trkpt>
      <trkpt lat="44.60305" lon="6.14006">
        <ele>1179.6</ele>
        <time>2025-06-12T07:38:42Z</time>
      </trkpt>
      <trkpt lat="44.60304" lon="6.1401">
        <ele>1179.8</ele>
        <time>2025-06-12T07:38:43Z</time>
      </trkpt>
      <trkpt lat="44.60303" lon="6.14013">
        <ele>1180</ele>
        <time>2025-06-12T07:38:44Z</time>
      </trkpt>
      <trkpt lat="44.60302" lon="6.14016">
        <ele>1180.2</ele>
        <time>2025-06-12T07:38:45Z</time>
      </trkpt>
      <trkpt lat="44.60301" lon="6.14019">
        <ele>1180.2</ele>
        <time>2025-06-12T07:38:46Z</time>
      </trkpt>
      <trkpt lat="44.603" lon="6.14023">
        <ele>1180.4</ele>
        <time>2025-06-12T07:38:47Z</time>
      </trkpt>
      <trkpt lat="44.60299" lon="6.14026">
        <ele>1180.6</ele>
        <time>2025-06-12T07:38:48Z</time>
      </trkpt>
      <trkpt lat="44.60298" lon="6.14029">
        <ele>1180.8</ele>
        <time>2025-06-12T07:38:49Z</time>
      </trkpt>
      <trkpt lat="44.60297" lon="6.14033">
        <ele>1181</ele>
        <time>2025-06-12T07:38:50Z</time>
      </trkpt>
      <trkpt lat="44.60297" lon="6.14039">
        <ele>1181.4</ele>
        <time>2025-06-12T07:38:52Z</time>
      </trkpt>
      <trkpt lat="44.60297" lon="6.14043">
        <ele>1181.6</ele>
        <time>2025-06-12T07:38:53Z</time>
      </trkpt>
      <trkpt lat="44.60297" lon="6.14047">
        <ele>1181.8</ele>
        <time>2025-06-12T07:38:54Z</time>
      </trkpt>
      <trkpt lat="44.60298" lon="6.1405">
        <ele>1182.2</ele>
        <time>2025-06-12T07:38:55Z</time>
      </trkpt>
      <trkpt lat="44.60298" lon="6.14054">
        <ele>1182.6</ele>
        <time>2025-06-12T07:38:56Z</time>
      </trkpt>
      <trkpt lat="44.603" lon="6.14057">
        <ele>1182.8</ele>
        <time>2025-06-12T07:38:57Z</time>
      </trkpt>
      <trkpt lat="44.60301" lon="6.1406">
        <ele>1183.2</ele>
        <time>2025-06-12T07:38:58Z</time>
      </trkpt>
      <trkpt lat="44.60303" lon="6.14063">
        <ele>1183.4</ele>
        <time>2025-06-12T07:38:59Z</time>
      </trkpt>
      <trkpt lat="44.60307" lon="6.14068">
        <ele>1183.8</ele>
        <time>2025-06-12T07:39:01Z</time>
      </trkpt>
      <trkpt lat="44.60309" lon="6.1407">
        <ele>1184</ele>
        <time>2025-06-12T07:39:02Z</time>
      </trkpt>
      <trkpt lat="44.60311" lon="6.14073">
        <ele>1184.2</ele>
        <time>2025-06-12T07:39:03Z</time>
      </trkpt>
      <trkpt lat="44.60313" lon="6.14075">
        <ele>1184.4</ele>
        <time>2025-06-12T07:39:04Z</time>
      </trkpt>
      <trkpt lat="44.60315" lon="6.14077">
        <ele>1184.6</ele>
        <time>2025-06-12T07:39:05Z</time>
      </trkpt>
      <trkpt lat="44.60317" lon="6.14078">
        <ele>1184.6</ele>
        <time>2025-06-12T07:39:06Z</time>
      </trkpt>
      <trkpt lat="44.60321" lon="6.14082">
        <ele>1185</ele>
        <time>2025-06-12T07:39:08Z</time>
      </trkpt>
      <trkpt lat="44.60326" lon="6.14085">
        <ele>1185.4</ele>
        <time>2025-06-12T07:39:10Z</time>
      </trkpt>
      <trkpt lat="44.60328" lon="6.14087">
        <ele>1185.4</ele>
        <time>2025-06-12T07:39:11Z</time>
      </trkpt>
      <trkpt lat="44.6033" lon="6.14088">
        <ele>1185.6</ele>
        <time>2025-06-12T07:39:12Z</time>
      </trkpt>
      <trkpt lat="44.60332" lon="6.1409">
        <ele>1185.8</ele>
        <time>2025-06-12T07:39:13Z</time>
      </trkpt>
      <trkpt lat="44.60334" lon="6.14091">
        <ele>1186</ele>
        <time>2025-06-12T07:39:14Z</time>
      </trkpt>
      <trkpt lat="44.60336" lon="6.14093">
        <ele>1186.2</ele>
        <time>2025-06-12T07:39:15Z</time>
      </trkpt>
      <trkpt lat="44.60339" lon="6.14094">
        <ele>1186.4</ele>
        <time>2025-06-12T07:39:16Z</time>
      </trkpt>
      <trkpt lat="44.60341" lon="6.14095">
        <ele>1186.6</ele>
        <time>2025-06-12T07:39:17Z</time>
      </trkpt>
      <trkpt lat="44.60343" lon="6.14096">
        <ele>1186.8</ele>
        <time>2025-06-12T07:39:18Z</time>
      </trkpt>
      <trkpt lat="44.60346" lon="6.14097">
        <ele>1186.8</ele>
        <time>2025-06-12T07:39:19Z</time>
      </trkpt>
      <trkpt lat="44.60348" lon="6.14098">
        <ele>1187</ele>
        <time>2025-06-12T07:39:20Z</time>
      </trkpt>
      <trkpt lat="44.60351" lon="6.14099">
        <ele>1187.2</ele>
        <time>2025-06-12T07:39:21Z</time>
      </trkpt>
      <trkpt lat="44.60353" lon="6.141">
        <ele>1187.4</ele>
        <time>2025-06-12T07:39:22Z</time>
      </trkpt>
      <trkpt lat="44.60358" lon="6.14102">
        <ele>1188.2</ele>
        <time>2025-06-12T07:39:24Z</time>
      </trkpt>
      <trkpt lat="44.6036" lon="6.14102">
        <ele>1188.2</ele>
        <time>2025-06-12T07:39:25Z</time>
      </trkpt>
      <trkpt lat="44.60362" lon="6.14103">
        <ele>1188.4</ele>
        <time>2025-06-12T07:39:26Z</time>
      </trkpt>
      <trkpt lat="44.60365" lon="6.14103">
        <ele>1188.6</ele>
        <time>2025-06-12T07:39:27Z</time>
      </trkpt>
      <trkpt lat="44.60367" lon="6.14104">
        <ele>1188.6</ele>
        <time>2025-06-12T07:39:28Z</time>
      </trkpt>
      <trkpt lat="44.6037" lon="6.14104">
        <ele>1188.8</ele>
        <time>2025-06-12T07:39:29Z</time>
      </trkpt>
      <trkpt lat="44.60375" lon="6.14104">
        <ele>1189.2</ele>
        <time>2025-06-12T07:39:31Z</time>
      </trkpt>
      <trkpt lat="44.6038" lon="6.14106">
        <ele>1189.8</ele>
        <time>2025-06-12T07:39:33Z</time>
      </trkpt>
      <trkpt lat="44.60382" lon="6.14108">
        <ele>1190</ele>
        <time>2025-06-12T07:39:34Z</time>
      </trkpt>
      <trkpt lat="44.60384" lon="6.1411">
        <ele>1190.2</ele>
        <time>2025-06-12T07:39:35Z</time>
      </trkpt>
      <trkpt lat="44.60386" lon="6.14112">
        <ele>1190.4</ele>
        <time>2025-06-12T07:39:36Z</time>
      </trkpt>
      <trkpt lat="44.60388" lon="6.14115">
        <ele>1190.8</ele>
        <time>2025-06-12T07:39:37Z</time>
      </trkpt>
      <trkpt lat="44.60389" lon="6.14117">
        <ele>1191.2</ele>
        <time>2025-06-12T07:39:38Z</time>
      </trkpt>
      <trkpt lat="44.6039" lon="6.1412">
        <ele>1191.4</ele>
        <time>2025-06-12T07:39:39Z</time>
      </trkpt>
      <trkpt lat="44.60391" lon="6.14123">
        <ele>1191.6</ele>
        <time>2025-06-12T07:39:40Z</time>
      </trkpt>
      <trkpt lat="44.60392" lon="6.14126">
        <ele>1191.8</ele>
        <time>2025-06-12T07:39:41Z</time>
      </trkpt>
      <trkpt lat="44.60393" lon="6.14129">
        <ele>1192</ele>
        <time>2025-06-12T07:39:42Z</time>
      </trkpt>
      <trkpt lat="44.60394" lon="6.14133">
        <ele>1192.2</ele>
        <time>2025-06-12T07:39:43Z</time>
      </trkpt>
      <trkpt lat="44.60395" lon="6.14139">
        <ele>1192.4</ele>
        <time>2025-06-12T07:39:45Z</time>
      </trkpt>
      <trkpt lat="44.60396" lon="6.14142">
        <ele>1192.6</ele>
        <time>2025-06-12T07:39:46Z</time>
      </trkpt>
      <trkpt lat="44.60396" lon="6.14146">
        <ele>1192.8</ele>
        <time>2025-06-12T07:39:47Z</time>
      </trkpt>
      <trkpt lat="44.60397" lon="6.14152">
        <ele>1193.2</ele>
        <time>2025-06-12T07:39:49Z</time>
      </trkpt>
      <trkpt lat="44.60398" lon="6.14156">
        <ele>1193.2</ele>
        <time>2025-06-12T07:39:50Z</time>
      </trkpt>
      <trkpt lat="44.60398" lon="6.14159">
        <ele>1193.6</ele>
        <time>2025-06-12T07:39:51Z</time>
      </trkpt>
      <trkpt lat="44.60399" lon="6.14162">
        <ele>1194</ele>
        <time>2025-06-12T07:39:52Z</time>
      </trkpt>
      <trkpt lat="44.60399" lon="6.14165">
        <ele>1194.2</ele>
        <time>2025-06-12T07:39:53Z</time>
      </trkpt>
      <trkpt lat="44.604" lon="6.14169">
        <ele>1194.4</ele>
        <time>2025-06-12T07:39:54Z</time>
      </trkpt>
      <trkpt lat="44.604" lon="6.14172">
        <ele>1194.6</ele>
        <time>2025-06-12T07:39:55Z</time>
      </trkpt>
      <trkpt lat="44.60401" lon="6.14175">
        <ele>1194.8</ele>
        <time>2025-06-12T07:39:56Z</time>
      </trkpt>
      <trkpt lat="44.60402" lon="6.14178">
        <ele>1195</ele>
        <time>2025-06-12T07:39:57Z</time>
      </trkpt>
      <trkpt lat="44.60402" lon="6.14181">
        <ele>1195.2</ele>
        <time>2025-06-12T07:39:58Z</time>
      </trkpt>
      <trkpt lat="44.60403" lon="6.14188">
        <ele>1195.6</ele>
        <time>2025-06-12T07:40:00Z</time>
      </trkpt>
      <trkpt lat="44.60404" lon="6.14191">
        <ele>1195.8</ele>
        <time>2025-06-12T07:40:01Z</time>
      </trkpt>
      <trkpt lat="44.60404" lon="6.14195">
        <ele>1196</ele>
        <time>2025-06-12T07:40:02Z</time>
      </trkpt>
      <trkpt lat="44.60404" lon="6.14198">
        <ele>1196</ele>
        <time>2025-06-12T07:40:03Z</time>
      </trkpt>
      <trkpt lat="44.60405" lon="6.14204">
        <ele>1196.4</ele>
        <time>2025-06-12T07:40:05Z</time>
      </trkpt>
      <trkpt lat="44.60405" lon="6.14211">
        <ele>1197</ele>
        <time>2025-06-12T07:40:07Z</time>
      </trkpt>
      <trkpt lat="44.60406" lon="6.14214">
        <ele>1197.2</ele>
        <time>2025-06-12T07:40:08Z</time>
      </trkpt>
      <trkpt lat="44.60407" lon="6.14221">
        <ele>1197.8</ele>
        <time>2025-06-12T07:40:10Z</time>
      </trkpt>
      <trkpt lat="44.60407" lon="6.14224">
        <ele>1198</ele>
        <time>2025-06-12T07:40:11Z</time>
      </trkpt>
      <trkpt lat="44.60408" lon="6.14227">
        <ele>1198.2</ele>
        <time>2025-06-12T07:40:12Z</time>
      </trkpt>
      <trkpt lat="44.6041" lon="6.14229">
        <ele>1198.4</ele>
        <time>2025-06-12T07:40:13Z</time>
      </trkpt>
      <trkpt lat="44.60412" lon="6.14231">
        <ele>1198.6</ele>
        <time>2025-06-12T07:40:14Z</time>
      </trkpt>
      <trkpt lat="44.60414" lon="6.14232">
        <ele>1198.8</ele>
        <time>2025-06-12T07:40:15Z</time>
      </trkpt>
      <trkpt lat="44.60417" lon="6.14232">
        <ele>1199</ele>
        <time>2025-06-12T07:40:16Z</time>
      </trkpt>
      <trkpt lat="44.60419" lon="6.14232">
        <ele>1199.2</ele>
        <time>2025-06-12T07:40:17Z</time>
      </trkpt>
      <trkpt lat="44.60422" lon="6.14233">
        <ele>1199.2</ele>
        <time>2025-06-12T07:40:18Z</time>
      </trkpt>
      <trkpt lat="44.60424" lon="6.14233">
        <ele>1199.4</ele>
        <time>2025-06-12T07:40:19Z</time>
      </trkpt>
      <trkpt lat="44.60427" lon="6.14233">
        <ele>1199.8</ele>
        <time>2025-06-12T07:40:20Z</time>
      </trkpt>
      <trkpt lat="44.60429" lon="6.14233">
        <ele>1200</ele>
        <time>2025-06-12T07:40:21Z</time>
      </trkpt>
      <trkpt lat="44.60432" lon="6.14232">
        <ele>1200.2</ele>
        <time>2025-06-12T07:40:22Z</time>
      </trkpt>
      <trkpt lat="44.60436" lon="6.14231">
        <ele>1200.6</ele>
        <time>2025-06-12T07:40:24Z</time>
      </trkpt>
      <trkpt lat="44.60441" lon="6.14229">
        <ele>1201</ele>
        <time>2025-06-12T07:40:26Z</time>
      </trkpt>
      <trkpt lat="44.60446" lon="6.14227">
        <ele>1201.4</ele>
        <time>2025-06-12T07:40:28Z</time>
      </trkpt>
      <trkpt lat="44.60448" lon="6.14226">
        <ele>1201.6</ele>
        <time>2025-06-12T07:40:29Z</time>
      </trkpt>
      <trkpt lat="44.60451" lon="6.14224">
        <ele>1202</ele>
        <time>2025-06-12T07:40:30Z</time>
      </trkpt>
      <trkpt lat="44.60453" lon="6.14224">
        <ele>1202.2</ele>
        <time>2025-06-12T07:40:31Z</time>
      </trkpt>
      <trkpt lat="44.60459" lon="6.14222">
        <ele>1202.6</ele>
        <time>2025-06-12T07:40:33Z</time>
      </trkpt>
      <trkpt lat="44.60462" lon="6.14222">
        <ele>1202.8</ele>
        <time>2025-06-12T07:40:34Z</time>
      </trkpt>
      <trkpt lat="44.60464" lon="6.14222">
        <ele>1203.2</ele>
        <time>2025-06-12T07:40:35Z</time>
      </trkpt>
      <trkpt lat="44.6047" lon="6.14221">
        <ele>1203.4</ele>
        <time>2025-06-12T07:40:37Z</time>
      </trkpt>
      <trkpt lat="44.60473" lon="6.14221">
        <ele>1203.6</ele>
        <time>2025-06-12T07:40:38Z</time>
      </trkpt>
      <trkpt lat="44.60475" lon="6.1422">
        <ele>1203.8</ele>
        <time>2025-06-12T07:40:39Z</time>
      </trkpt>
      <trkpt lat="44.60478" lon="6.1422">
        <ele>1204</ele>
        <time>2025-06-12T07:40:40Z</time>
      </trkpt>
      <trkpt lat="44.60483" lon="6.14219">
        <ele>1204.2</ele>
        <time>2025-06-12T07:40:42Z</time>
      </trkpt>
      <trkpt lat="44.60486" lon="6.14219">
        <ele>1204.4</ele>
        <time>2025-06-12T07:40:43Z</time>
      </trkpt>
      <trkpt lat="44.60489" lon="6.14219">
        <ele>1204.4</ele>
        <time>2025-06-12T07:40:44Z</time>
      </trkpt>
      <trkpt lat="44.60494" lon="6.14219">
        <ele>1204.6</ele>
        <time>2025-06-12T07:40:46Z</time>
      </trkpt>
      <trkpt lat="44.60497" lon="6.14219">
        <ele>1204.8</ele>
        <time>2025-06-12T07:40:47Z</time>
      </trkpt>
      <trkpt lat="44.60499" lon="6.14218">
        <ele>1205.2</ele>
        <time>2025-06-12T07:40:48Z</time>
      </trkpt>
      <trkpt lat="44.60502" lon="6.14218">
        <ele>1205.4</ele>
        <time>2025-06-12T07:40:49Z</time>
      </trkpt>
      <trkpt lat="44.60507" lon="6.14218">
        <ele>1205.8</ele>
        <time>2025-06-12T07:40:51Z</time>
      </trkpt>
      <trkpt lat="44.60509" lon="6.14218">
        <ele>1206</ele>
        <time>2025-06-12T07:40:52Z</time>
      </trkpt>
      <trkpt lat="44.60512" lon="6.14218">
        <ele>1206</ele>
        <time>2025-06-12T07:40:53Z</time>
      </trkpt>
      <trkpt lat="44.60515" lon="6.14218">
        <ele>1206.2</ele>
        <time>2025-06-12T07:40:54Z</time>
      </trkpt>
      <trkpt lat="44.60517" lon="6.14217">
        <ele>1206.6</ele>
        <time>2025-06-12T07:40:55Z</time>
      </trkpt>
      <trkpt lat="44.6052" lon="6.14217">
        <ele>1206.6</ele>
        <time>2025-06-12T07:40:56Z</time>
      </trkpt>
      <trkpt lat="44.60524" lon="6.14217">
        <ele>1207</ele>
        <time>2025-06-12T07:40:58Z</time>
      </trkpt>
      <trkpt lat="44.60529" lon="6.14217">
        <ele>1207.4</ele>
        <time>2025-06-12T07:41:00Z</time>
      </trkpt>
      <trkpt lat="44.60532" lon="6.14217">
        <ele>1207.6</ele>
        <time>2025-06-12T07:41:01Z</time>
      </trkpt>
      <trkpt lat="44.60535" lon="6.14217">
        <ele>1207.8</ele>
        <time>2025-06-12T07:41:02Z</time>
      </trkpt>
      <trkpt lat="44.60537" lon="6.14216">
        <ele>1207.8</ele>
        <time>2025-06-12T07:41:03Z</time>
      </trkpt>
      <trkpt lat="44.6054" lon="6.14216">
        <ele>1208</ele>
        <time>2025-06-12T07:41:04Z</time>
      </trkpt>
      <trkpt lat="44.60542" lon="6.14216">
        <ele>1208.4</ele>
        <time>2025-06-12T07:41:05Z</time>
      </trkpt>
      <trkpt lat="44.60547" lon="6.14215">
        <ele>1209</ele>
        <time>2025-06-12T07:41:07Z</time>
      </trkpt>
      <trkpt lat="44.6055" lon="6.14215">
        <ele>1209.2</ele>
        <time>2025-06-12T07:41:08Z</time>
      </trkpt>
      <trkpt lat="44.60552" lon="6.14214">
        <ele>1209.4</ele>
        <time>2025-06-12T07:41:09Z</time>
      </trkpt>
      <trkpt lat="44.60555" lon="6.14214">
        <ele>1209.6</ele>
        <time>2025-06-12T07:41:10Z</time>
      </trkpt>
      <trkpt lat="44.60557" lon="6.14213">
        <ele>1209.8</ele>
        <time>2025-06-12T07:41:11Z</time>
      </trkpt>
      <trkpt lat="44.6056" lon="6.14213">
        <ele>1210</ele>
        <time>2025-06-12T07:41:12Z</time>
      </trkpt>
      <trkpt lat="44.60565" lon="6.14212">
        <ele>1210.8</ele>
        <time>2025-06-12T07:41:14Z</time>
      </trkpt>
      <trkpt lat="44.60567" lon="6.14212">
        <ele>1211.4</ele>
        <time>2025-06-12T07:41:15Z</time>
      </trkpt>
      <trkpt lat="44.6057" lon="6.14211">
        <ele>1211.6</ele>
        <time>2025-06-12T07:41:16Z</time>
      </trkpt>
      <trkpt lat="44.60572" lon="6.14211">
        <ele>1212</ele>
        <time>2025-06-12T07:41:17Z</time>
      </trkpt>
      <trkpt lat="44.60575" lon="6.14211">
        <ele>1212.2</ele>
        <time>2025-06-12T07:41:18Z</time>
      </trkpt>
      <trkpt lat="44.60578" lon="6.14211">
        <ele>1212.6</ele>
        <time>2025-06-12T07:41:19Z</time>
      </trkpt>
      <trkpt lat="44.6058" lon="6.14211">
        <ele>1212.8</ele>
        <time>2025-06-12T07:41:20Z</time>
      </trkpt>
      <trkpt lat="44.60583" lon="6.1421">
        <ele>1213.2</ele>
        <time>2025-06-12T07:41:21Z</time>
      </trkpt>
      <trkpt lat="44.60588" lon="6.14209">
        <ele>1213.8</ele>
        <time>2025-06-12T07:41:23Z</time>
      </trkpt>
      <trkpt lat="44.60593" lon="6.14209">
        <ele>1214.4</ele>
        <time>2025-06-12T07:41:25Z</time>
      </trkpt>
      <trkpt lat="44.60595" lon="6.14209">
        <ele>1214.6</ele>
        <time>2025-06-12T07:41:26Z</time>
      </trkpt>
      <trkpt lat="44.60598" lon="6.14208">
        <ele>1214.8</ele>
        <time>2025-06-12T07:41:27Z</time>
      </trkpt>
      <trkpt lat="44.606" lon="6.14208">
        <ele>1215</ele>
        <time>2025-06-12T07:41:28Z</time>
      </trkpt>
      <trkpt lat="44.60602" lon="6.14207">
        <ele>1215</ele>
        <time>2025-06-12T07:41:29Z</time>
      </trkpt>
      <trkpt lat="44.60605" lon="6.14206">
        <ele>1215.2</ele>
        <time>2025-06-12T07:41:30Z</time>
      </trkpt>
      <trkpt lat="44.6061" lon="6.14206">
        <ele>1215.6</ele>
        <time>2025-06-12T07:41:32Z</time>
      </trkpt>
      <trkpt lat="44.60614" lon="6.14206">
        <ele>1216</ele>
        <time>2025-06-12T07:41:34Z</time>
      </trkpt>
      <trkpt lat="44.60617" lon="6.14205">
        <ele>1216.4</ele>
        <time>2025-06-12T07:41:35Z</time>
      </trkpt>
      <trkpt lat="44.60619" lon="6.14205">
        <ele>1216.4</ele>
        <time>2025-06-12T07:41:36Z</time>
      </trkpt>
      <trkpt lat="44.60622" lon="6.14204">
        <ele>1216.6</ele>
        <time>2025-06-12T07:41:37Z</time>
      </trkpt>
      <trkpt lat="44.60627" lon="6.14203">
        <ele>1216.8</ele>
        <time>2025-06-12T07:41:39Z</time>
      </trkpt>
      <trkpt lat="44.60632" lon="6.14202">
        <ele>1216.8</ele>
        <time>2025-06-12T07:41:41Z</time>
      </trkpt>
      <trkpt lat="44.60635" lon="6.14201">
        <ele>1217</ele>
        <time>2025-06-12T07:41:42Z</time>
      </trkpt>
      <trkpt lat="44.60638" lon="6.14201">
        <ele>1217.4</ele>
        <time>2025-06-12T07:41:43Z</time>
      </trkpt>
      <trkpt lat="44.60641" lon="6.142">
        <ele>1217.6</ele>
        <time>2025-06-12T07:41:44Z</time>
      </trkpt>
      <trkpt lat="44.60644" lon="6.142">
        <ele>1217.8</ele>
        <time>2025-06-12T07:41:45Z</time>
      </trkpt>
      <trkpt lat="44.60647" lon="6.14199">
        <ele>1218</ele>
        <time>2025-06-12T07:41:46Z</time>
      </trkpt>
      <trkpt lat="44.60652" lon="6.14197">
        <ele>1218.6</ele>
        <time>2025-06-12T07:41:48Z</time>
      </trkpt>
      <trkpt lat="44.60658" lon="6.14195">
        <ele>1219</ele>
        <time>2025-06-12T07:41:50Z</time>
      </trkpt>
      <trkpt lat="44.60661" lon="6.14194">
        <ele>1219.2</ele>
        <time>2025-06-12T07:41:51Z</time>
      </trkpt>
      <trkpt lat="44.60664" lon="6.14194">
        <ele>1219.6</ele>
        <time>2025-06-12T07:41:52Z</time>
      </trkpt>
      <trkpt lat="44.60666" lon="6.14193">
        <ele>1219.6</ele>
        <time>2025-06-12T07:41:53Z</time>
      </trkpt>
      <trkpt lat="44.60669" lon="6.14192">
        <ele>1219.8</ele>
        <time>2025-06-12T07:41:54Z</time>
      </trkpt>
      <trkpt lat="44.60672" lon="6.14191">
        <ele>1220</ele>
        <time>2025-06-12T07:41:55Z</time>
      </trkpt>
      <trkpt lat="44.60675" lon="6.1419">
        <ele>1220</ele>
        <time>2025-06-12T07:41:56Z</time>
      </trkpt>
      <trkpt lat="44.60678" lon="6.14188">
        <ele>1220.2</ele>
        <time>2025-06-12T07:41:57Z</time>
      </trkpt>
      <trkpt lat="44.60683" lon="6.14186">
        <ele>1220.6</ele>
        <time>2025-06-12T07:41:59Z</time>
      </trkpt>
      <trkpt lat="44.60686" lon="6.14185">
        <ele>1220.8</ele>
        <time>2025-06-12T07:42:00Z</time>
      </trkpt>
      <trkpt lat="44.60688" lon="6.14184">
        <ele>1221</ele>
        <time>2025-06-12T07:42:01Z</time>
      </trkpt>
      <trkpt lat="44.60691" lon="6.14183">
        <ele>1221.2</ele>
        <time>2025-06-12T07:42:02Z</time>
      </trkpt>
      <trkpt lat="44.60694" lon="6.14182">
        <ele>1221.4</ele>
        <time>2025-06-12T07:42:03Z</time>
      </trkpt>
      <trkpt lat="44.60697" lon="6.14181">
        <ele>1221.4</ele>
        <time>2025-06-12T07:42:04Z</time>
      </trkpt>
      <trkpt lat="44.60699" lon="6.1418">
        <ele>1221.6</ele>
        <time>2025-06-12T07:42:05Z</time>
      </trkpt>
      <trkpt lat="44.60702" lon="6.14178">
        <ele>1221.6</ele>
        <time>2025-06-12T07:42:06Z</time>
      </trkpt>
      <trkpt lat="44.60705" lon="6.14177">
        <ele>1221.8</ele>
        <time>2025-06-12T07:42:07Z</time>
      </trkpt>
      <trkpt lat="44.60708" lon="6.14175">
        <ele>1222</ele>
        <time>2025-06-12T07:42:08Z</time>
      </trkpt>
      <trkpt lat="44.6071" lon="6.14174">
        <ele>1222.2</ele>
        <time>2025-06-12T07:42:09Z</time>
      </trkpt>
      <trkpt lat="44.60713" lon="6.14172">
        <ele>1222.4</ele>
        <time>2025-06-12T07:42:10Z</time>
      </trkpt>
      <trkpt lat="44.60716" lon="6.14171">
        <ele>1222.6</ele>
        <time>2025-06-12T07:42:11Z</time>
      </trkpt>
      <trkpt lat="44.60718" lon="6.14169">
        <ele>1222.8</ele>
        <time>2025-06-12T07:42:12Z</time>
      </trkpt>
      <trkpt lat="44.60721" lon="6.14168">
        <ele>1222.8</ele>
        <time>2025-06-12T07:42:13Z</time>
      </trkpt>
      <trkpt lat="44.60724" lon="6.14166">
        <ele>1223</ele>
        <time>2025-06-12T07:42:14Z</time>
      </trkpt>
      <trkpt lat="44.60726" lon="6.14164">
        <ele>1223.2</ele>
        <time>2025-06-12T07:42:15Z</time>
      </trkpt>
      <trkpt lat="44.60729" lon="6.14162">
        <ele>1223.2</ele>
        <time>2025-06-12T07:42:16Z</time>
      </trkpt>
      <trkpt lat="44.60734" lon="6.14159">
        <ele>1223.4</ele>
        <time>2025-06-12T07:42:18Z</time>
      </trkpt>
      <trkpt lat="44.60737" lon="6.14158">
        <ele>1223.6</ele>
        <time>2025-06-12T07:42:19Z</time>
      </trkpt>
      <trkpt lat="44.6074" lon="6.14156">
        <ele>1223.6</ele>
        <time>2025-06-12T07:42:20Z</time>
      </trkpt>
      <trkpt lat="44.60745" lon="6.14152">
        <ele>1223.8</ele>
        <time>2025-06-12T07:42:22Z</time>
      </trkpt>
      <trkpt lat="44.60751" lon="6.14149">
        <ele>1224.2</ele>
        <time>2025-06-12T07:42:24Z</time>
      </trkpt>
      <trkpt lat="44.60757" lon="6.14145">
        <ele>1224.4</ele>
        <time>2025-06-12T07:42:26Z</time>
      </trkpt>
      <trkpt lat="44.60763" lon="6.14142">
        <ele>1224.6</ele>
        <time>2025-06-12T07:42:28Z</time>
      </trkpt>
      <trkpt lat="44.60767" lon="6.1414">
        <ele>1224.6</ele>
        <time>2025-06-12T07:42:29Z</time>
      </trkpt>
      <trkpt lat="44.6077" lon="6.14138">
        <ele>1224.8</ele>
        <time>2025-06-12T07:42:30Z</time>
      </trkpt>
      <trkpt lat="44.60773" lon="6.14136">
        <ele>1224.8</ele>
        <time>2025-06-12T07:42:31Z</time>
      </trkpt>
      <trkpt lat="44.60776" lon="6.14134">
        <ele>1224.8</ele>
        <time>2025-06-12T07:42:32Z</time>
      </trkpt>
      <trkpt lat="44.60779" lon="6.14133">
        <ele>1224.8</ele>
        <time>2025-06-12T07:42:33Z</time>
      </trkpt>
      <trkpt lat="44.60782" lon="6.14131">
        <ele>1225</ele>
        <time>2025-06-12T07:42:34Z</time>
      </trkpt>
      <trkpt lat="44.60786" lon="6.14129">
        <ele>1225</ele>
        <time>2025-06-12T07:42:35Z</time>
      </trkpt>
      <trkpt lat="44.60789" lon="6.14127">
        <ele>1225</ele>
        <time>2025-06-12T07:42:36Z</time>
      </trkpt>
      <trkpt lat="44.60792" lon="6.14125">
        <ele>1225.2</ele>
        <time>2025-06-12T07:42:37Z</time>
      </trkpt>
      <trkpt lat="44.60796" lon="6.14123">
        <ele>1225.2</ele>
        <time>2025-06-12T07:42:38Z</time>
      </trkpt>
      <trkpt lat="44.60799" lon="6.14121">
        <ele>1225.4</ele>
        <time>2025-06-12T07:42:39Z</time>
      </trkpt>
      <trkpt lat="44.60802" lon="6.14119">
        <ele>1225.4</ele>
        <time>2025-06-12T07:42:40Z</time>
      </trkpt>
      <trkpt lat="44.60806" lon="6.14117">
        <ele>1225.6</ele>
        <time>2025-06-12T07:42:41Z</time>
      </trkpt>
      <trkpt lat="44.60809" lon="6.14116">
        <ele>1225.6</ele>
        <time>2025-06-12T07:42:42Z</time>
      </trkpt>
      <trkpt lat="44.60813" lon="6.14114">
        <ele>1225.8</ele>
        <time>2025-06-12T07:42:43Z</time>
      </trkpt>
      <trkpt lat="44.60816" lon="6.14113">
        <ele>1225.8</ele>
        <time>2025-06-12T07:42:44Z</time>
      </trkpt>
      <trkpt lat="44.60823" lon="6.1411">
        <ele>1226</ele>
        <time>2025-06-12T07:42:46Z</time>
      </trkpt>
      <trkpt lat="44.60827" lon="6.14108">
        <ele>1226</ele>
        <time>2025-06-12T07:42:47Z</time>
      </trkpt>
      <trkpt lat="44.6083" lon="6.14107">
        <ele>1226.2</ele>
        <time>2025-06-12T07:42:48Z</time>
      </trkpt>
      <trkpt lat="44.60834" lon="6.14106">
        <ele>1226.2</ele>
        <time>2025-06-12T07:42:49Z</time>
      </trkpt>
      <trkpt lat="44.60837" lon="6.14105">
        <ele>1226.4</ele>
        <time>2025-06-12T07:42:50Z</time>
      </trkpt>
      <trkpt lat="44.60841" lon="6.14104">
        <ele>1226.4</ele>
        <time>2025-06-12T07:42:51Z</time>
      </trkpt>
      <trkpt lat="44.60844" lon="6.14103">
        <ele>1226.4</ele>
        <time>2025-06-12T07:42:52Z</time>
      </trkpt>
      <trkpt lat="44.60848" lon="6.14102">
        <ele>1226.4</ele>
        <time>2025-06-12T07:42:53Z</time>
      </trkpt>
      <trkpt lat="44.60855" lon="6.141">
        <ele>1226.6</ele>
        <time>2025-06-12T07:42:55Z</time>
      </trkpt>
      <trkpt lat="44.60859" lon="6.141">
        <ele>1226.4</ele>
        <time>2025-06-12T07:42:56Z</time>
      </trkpt>
      <trkpt lat="44.60862" lon="6.14099">
        <ele>1226.6</ele>
        <time>2025-06-12T07:42:57Z</time>
      </trkpt>
      <trkpt lat="44.60866" lon="6.14098">
        <ele>1226.8</ele>
        <time>2025-06-12T07:42:58Z</time>
      </trkpt>
      <trkpt lat="44.6087" lon="6.14097">
        <ele>1226.8</ele>
        <time>2025-06-12T07:42:59Z</time>
      </trkpt>
      <trkpt lat="44.60873" lon="6.14097">
        <ele>1227</ele>
        <time>2025-06-12T07:43:00Z</time>
      </trkpt>
      <trkpt lat="44.60877" lon="6.14096">
        <ele>1227</ele>
        <time>2025-06-12T07:43:01Z</time>
      </trkpt>
      <trkpt lat="44.6088" lon="6.14095">
        <ele>1227.2</ele>
        <time>2025-06-12T07:43:02Z</time>
      </trkpt>
      <trkpt lat="44.60884" lon="6.14094">
        <ele>1227.2</ele>
        <time>2025-06-12T07:43:03Z</time>
      </trkpt>
      <trkpt lat="44.60888" lon="6.14093">
        <ele>1227.4</ele>
        <time>2025-06-12T07:43:04Z</time>
      </trkpt>
      <trkpt lat="44.60891" lon="6.14091">
        <ele>1227.4</ele>
        <time>2025-06-12T07:43:05Z</time>
      </trkpt>
      <trkpt lat="44.60895" lon="6.1409">
        <ele>1227.6</ele>
        <time>2025-06-12T07:43:06Z</time>
      </trkpt>
      <trkpt lat="44.60901" lon="6.14087">
        <ele>1227.8</ele>
        <time>2025-06-12T07:43:08Z</time>
      </trkpt>
      <trkpt lat="44.60908" lon="6.14084">
        <ele>1228</ele>
        <time>2025-06-12T07:43:10Z</time>
      </trkpt>
      <trkpt lat="44.60911" lon="6.14082">
        <ele>1228.2</ele>
        <time>2025-06-12T07:43:11Z</time>
      </trkpt>
      <trkpt lat="44.60914" lon="6.14081">
        <ele>1228.2</ele>
        <time>2025-06-12T07:43:12Z</time>
      </trkpt>
      <trkpt lat="44.60918" lon="6.14079">
        <ele>1228.2</ele>
        <time>2025-06-12T07:43:13Z</time>
      </trkpt>
      <trkpt lat="44.60921" lon="6.14078">
        <ele>1228.2</ele>
        <time>2025-06-12T07:43:14Z</time>
      </trkpt>
      <trkpt lat="44.60927" lon="6.14074">
        <ele>1228.4</ele>
        <time>2025-06-12T07:43:16Z</time>
      </trkpt>
      <trkpt lat="44.6093" lon="6.14072">
        <ele>1228.6</ele>
        <time>2025-06-12T07:43:17Z</time>
      </trkpt>
      <trkpt lat="44.60933" lon="6.1407">
        <ele>1228.6</ele>
        <time>2025-06-12T07:43:18Z</time>
      </trkpt>
      <trkpt lat="44.60936" lon="6.14069">
        <ele>1228.8</ele>
        <time>2025-06-12T07:43:19Z</time>
      </trkpt>
      <trkpt lat="44.60939" lon="6.14067">
        <ele>1229</ele>
        <time>2025-06-12T07:43:20Z</time>
      </trkpt>
      <trkpt lat="44.60942" lon="6.14065">
        <ele>1229</ele>
        <time>2025-06-12T07:43:21Z</time>
      </trkpt>
      <trkpt lat="44.60945" lon="6.14063">
        <ele>1229.4</ele>
        <time>2025-06-12T07:43:22Z</time>
      </trkpt>
      <trkpt lat="44.60948" lon="6.14061">
        <ele>1229.6</ele>
        <time>2025-06-12T07:43:23Z</time>
      </trkpt>
      <trkpt lat="44.60951" lon="6.14059">
        <ele>1229.6</ele>
        <time>2025-06-12T07:43:24Z</time>
      </trkpt>
      <trkpt lat="44.60953" lon="6.14057">
        <ele>1230</ele>
        <time>2025-06-12T07:43:25Z</time>
      </trkpt>
      <trkpt lat="44.60956" lon="6.14055">
        <ele>1230.2</ele>
        <time>2025-06-12T07:43:26Z</time>
      </trkpt>
      <trkpt lat="44.60959" lon="6.14054">
        <ele>1230.6</ele>
        <time>2025-06-12T07:43:27Z</time>
      </trkpt>
      <trkpt lat="44.60962" lon="6.14052">
        <ele>1230.8</ele>
        <time>2025-06-12T07:43:28Z</time>
      </trkpt>
      <trkpt lat="44.60965" lon="6.1405">
        <ele>1231.2</ele>
        <time>2025-06-12T07:43:29Z</time>
      </trkpt>
      <trkpt lat="44.60968" lon="6.14047">
        <ele>1231.4</ele>
        <time>2025-06-12T07:43:30Z</time>
      </trkpt>
      <trkpt lat="44.60971" lon="6.14045">
        <ele>1231.6</ele>
        <time>2025-06-12T07:43:31Z</time>
      </trkpt>
      <trkpt lat="44.60976" lon="6.1404">
        <ele>1232.6</ele>
        <time>2025-06-12T07:43:33Z</time>
      </trkpt>
      <trkpt lat="44.60982" lon="6.14035">
        <ele>1233</ele>
        <time>2025-06-12T07:43:35Z</time>
      </trkpt>
      <trkpt lat="44.60988" lon="6.1403">
        <ele>1233.2</ele>
        <time>2025-06-12T07:43:37Z</time>
      </trkpt>
      <trkpt lat="44.60993" lon="6.14025">
        <ele>1233.4</ele>
        <time>2025-06-12T07:43:39Z</time>
      </trkpt>
      <trkpt lat="44.60996" lon="6.14022">
        <ele>1233.6</ele>
        <time>2025-06-12T07:43:40Z</time>
      </trkpt>
      <trkpt lat="44.60999" lon="6.14019">
        <ele>1233.6</ele>
        <time>2025-06-12T07:43:41Z</time>
      </trkpt>
      <trkpt lat="44.61002" lon="6.14017">
        <ele>1233.6</ele>
        <time>2025-06-12T07:43:42Z</time>
      </trkpt>
      <trkpt lat="44.61005" lon="6.14014">
        <ele>1233.6</ele>
        <time>2025-06-12T07:43:43Z</time>
      </trkpt>
      <trkpt lat="44.61008" lon="6.14012">
        <ele>1233.8</ele>
        <time>2025-06-12T07:43:44Z</time>
      </trkpt>
      <trkpt lat="44.61011" lon="6.14009">
        <ele>1233.8</ele>
        <time>2025-06-12T07:43:45Z</time>
      </trkpt>
      <trkpt lat="44.61014" lon="6.14007">
        <ele>1233.8</ele>
        <time>2025-06-12T07:43:46Z</time>
      </trkpt>
      <trkpt lat="44.61017" lon="6.14004">
        <ele>1233.8</ele>
        <time>2025-06-12T07:43:47Z</time>
      </trkpt>
      <trkpt lat="44.61019" lon="6.14002">
        <ele>1234</ele>
        <time>2025-06-12T07:43:48Z</time>
      </trkpt>
      <trkpt lat="44.61022" lon="6.13999">
        <ele>1234</ele>
        <time>2025-06-12T07:43:49Z</time>
      </trkpt>
      <trkpt lat="44.61025" lon="6.13997">
        <ele>1234.2</ele>
        <time>2025-06-12T07:43:50Z</time>
      </trkpt>
      <trkpt lat="44.61028" lon="6.13994">
        <ele>1234.2</ele>
        <time>2025-06-12T07:43:51Z</time>
      </trkpt>
      <trkpt lat="44.61031" lon="6.13992">
        <ele>1234.4</ele>
        <time>2025-06-12T07:43:52Z</time>
      </trkpt>
      <trkpt lat="44.61033" lon="6.13989">
        <ele>1234.6</ele>
        <time>2025-06-12T07:43:53Z</time>
      </trkpt>
      <trkpt lat="44.61036" lon="6.13986">
        <ele>1234.8</ele>
        <time>2025-06-12T07:43:54Z</time>
      </trkpt>
      <trkpt lat="44.61041" lon="6.13981">
        <ele>1235.2</ele>
        <time>2025-06-12T07:43:56Z</time>
      </trkpt>
      <trkpt lat="44.61043" lon="6.13979">
        <ele>1235.4</ele>
        <time>2025-06-12T07:43:57Z</time>
      </trkpt>
      <trkpt lat="44.61046" lon="6.13976">
        <ele>1235.6</ele>
        <time>2025-06-12T07:43:58Z</time>
      </trkpt>
      <trkpt lat="44.61051" lon="6.1397">
        <ele>1235.6</ele>
        <time>2025-06-12T07:44:00Z</time>
      </trkpt>
      <trkpt lat="44.61053" lon="6.13967">
        <ele>1236.2</ele>
        <time>2025-06-12T07:44:01Z</time>
      </trkpt>
      <trkpt lat="44.61055" lon="6.13963">
        <ele>1236.4</ele>
        <time>2025-06-12T07:44:02Z</time>
      </trkpt>
      <trkpt lat="44.61059" lon="6.13957">
        <ele>1236.6</ele>
        <time>2025-06-12T07:44:04Z</time>
      </trkpt>
      <trkpt lat="44.61061" lon="6.13954">
        <ele>1236.8</ele>
        <time>2025-06-12T07:44:05Z</time>
      </trkpt>
      <trkpt lat="44.61063" lon="6.13951">
        <ele>1237</ele>
        <time>2025-06-12T07:44:06Z</time>
      </trkpt>
      <trkpt lat="44.61066" lon="6.13948">
        <ele>1237</ele>
        <time>2025-06-12T07:44:07Z</time>
      </trkpt>
      <trkpt lat="44.61068" lon="6.13944">
        <ele>1237.2</ele>
        <time>2025-06-12T07:44:08Z</time>
      </trkpt>
      <trkpt lat="44.6107" lon="6.1394">
        <ele>1237.6</ele>
        <time>2025-06-12T07:44:09Z</time>
      </trkpt>
      <trkpt lat="44.61072" lon="6.13937">
        <ele>1237.8</ele>
        <time>2025-06-12T07:44:10Z</time>
      </trkpt>
      <trkpt lat="44.61074" lon="6.13933">
        <ele>1238</ele>
        <time>2025-06-12T07:44:11Z</time>
      </trkpt>
      <trkpt lat="44.61077" lon="6.13929">
        <ele>1238.2</ele>
        <time>2025-06-12T07:44:12Z</time>
      </trkpt>
      <trkpt lat="44.6108" lon="6.13925">
        <ele>1238.2</ele>
        <time>2025-06-12T07:44:13Z</time>
      </trkpt>
      <trkpt lat="44.61084" lon="6.13922">
        <ele>1238.4</ele>
        <time>2025-06-12T07:44:14Z</time>
      </trkpt>
      <trkpt lat="44.61087" lon="6.13919">
        <ele>1238.4</ele>
        <time>2025-06-12T07:44:15Z</time>
      </trkpt>
      <trkpt lat="44.61091" lon="6.13916">
        <ele>1238.4</ele>
        <time>2025-06-12T07:44:16Z</time>
      </trkpt>
      <trkpt lat="44.61096" lon="6.13914">
        <ele>1238.4</ele>
        <time>2025-06-12T07:44:17Z</time>
      </trkpt>
      <trkpt lat="44.611" lon="6.13912">
        <ele>1238.4</ele>
        <time>2025-06-12T07:44:18Z</time>
      </trkpt>
      <trkpt lat="44.61104" lon="6.13911">
        <ele>1238.4</ele>
        <time>2025-06-12T07:44:19Z</time>
      </trkpt>
      <trkpt lat="44.61109" lon="6.1391">
        <ele>1238.4</ele>
        <time>2025-06-12T07:44:20Z</time>
      </trkpt>
      <trkpt lat="44.61113" lon="6.13909">
        <ele>1238.4</ele>
        <time>2025-06-12T07:44:21Z</time>
      </trkpt>
      <trkpt lat="44.61118" lon="6.13908">
        <ele>1238.4</ele>
        <time>2025-06-12T07:44:22Z</time>
      </trkpt>
      <trkpt lat="44.61122" lon="6.13908">
        <ele>1238.4</ele>
        <time>2025-06-12T07:44:23Z</time>
      </trkpt>
      <trkpt lat="44.61131" lon="6.13906">
        <ele>1238.4</ele>
        <time>2025-06-12T07:44:25Z</time>
      </trkpt>
      <trkpt lat="44.6114" lon="6.13906">
        <ele>1238.4</ele>
        <time>2025-06-12T07:44:27Z</time>
      </trkpt>
      <trkpt lat="44.61145" lon="6.13905">
        <ele>1238.4</ele>
        <time>2025-06-12T07:44:28Z</time>
      </trkpt>
      <trkpt lat="44.61149" lon="6.13904">
        <ele>1238.4</ele>
        <time>2025-06-12T07:44:29Z</time>
      </trkpt>
      <trkpt lat="44.61153" lon="6.13904">
        <ele>1238.4</ele>
        <time>2025-06-12T07:44:30Z</time>
      </trkpt>
      <trkpt lat="44.61158" lon="6.13904">
        <ele>1238.4</ele>
        <time>2025-06-12T07:44:31Z</time>
      </trkpt>
      <trkpt lat="44.61167" lon="6.13904">
        <ele>1238.6</ele>
        <time>2025-06-12T07:44:33Z</time>
      </trkpt>
      <trkpt lat="44.61172" lon="6.13904">
        <ele>1238.6</ele>
        <time>2025-06-12T07:44:34Z</time>
      </trkpt>
      <trkpt lat="44.61177" lon="6.13904">
        <ele>1238.6</ele>
        <time>2025-06-12T07:44:35Z</time>
      </trkpt>
      <trkpt lat="44.61182" lon="6.13904">
        <ele>1238.6</ele>
        <time>2025-06-12T07:44:36Z</time>
      </trkpt>
      <trkpt lat="44.61187" lon="6.13904">
        <ele>1238.6</ele>
        <time>2025-06-12T07:44:37Z</time>
      </trkpt>
      <trkpt lat="44.61192" lon="6.13903">
        <ele>1238.6</ele>
        <time>2025-06-12T07:44:38Z</time>
      </trkpt>
      <trkpt lat="44.61197" lon="6.13902">
        <ele>1238.6</ele>
        <time>2025-06-12T07:44:39Z</time>
      </trkpt>
      <trkpt lat="44.61203" lon="6.13902">
        <ele>1238.6</ele>
        <time>2025-06-12T07:44:40Z</time>
      </trkpt>
      <trkpt lat="44.61208" lon="6.13901">
        <ele>1238.6</ele>
        <time>2025-06-12T07:44:41Z</time>
      </trkpt>
      <trkpt lat="44.61214" lon="6.139">
        <ele>1238.6</ele>
        <time>2025-06-12T07:44:42Z</time>
      </trkpt>
      <trkpt lat="44.61219" lon="6.13899">
        <ele>1238.4</ele>
        <time>2025-06-12T07:44:43Z</time>
      </trkpt>
      <trkpt lat="44.61225" lon="6.13898">
        <ele>1238.4</ele>
        <time>2025-06-12T07:44:44Z</time>
      </trkpt>
      <trkpt lat="44.61231" lon="6.13897">
        <ele>1238.2</ele>
        <time>2025-06-12T07:44:45Z</time>
      </trkpt>
      <trkpt lat="44.61238" lon="6.13896">
        <ele>1238.2</ele>
        <time>2025-06-12T07:44:46Z</time>
      </trkpt>
      <trkpt lat="44.61244" lon="6.13894">
        <ele>1238.2</ele>
        <time>2025-06-12T07:44:47Z</time>
      </trkpt>
      <trkpt lat="44.61251" lon="6.13892">
        <ele>1238</ele>
        <time>2025-06-12T07:44:48Z</time>
      </trkpt>
      <trkpt lat="44.61258" lon="6.1389">
        <ele>1237.8</ele>
        <time>2025-06-12T07:44:49Z</time>
      </trkpt>
      <trkpt lat="44.61265" lon="6.13888">
        <ele>1237.6</ele>
        <time>2025-06-12T07:44:50Z</time>
      </trkpt>
      <trkpt lat="44.61272" lon="6.13886">
        <ele>1237.4</ele>
        <time>2025-06-12T07:44:51Z</time>
      </trkpt>
      <trkpt lat="44.61279" lon="6.13883">
        <ele>1237.4</ele>
        <time>2025-06-12T07:44:52Z</time>
      </trkpt>
      <trkpt lat="44.61287" lon="6.13881">
        <ele>1237.2</ele>
        <time>2025-06-12T07:44:53Z</time>
      </trkpt>
      <trkpt lat="44.61295" lon="6.13878">
        <ele>1237</ele>
        <time>2025-06-12T07:44:54Z</time>
      </trkpt>
      <trkpt lat="44.61303" lon="6.13876">
        <ele>1236.4</ele>
        <time>2025-06-12T07:44:55Z</time>
      </trkpt>
      <trkpt lat="44.61311" lon="6.13873">
        <ele>1236.2</ele>
        <time>2025-06-12T07:44:56Z</time>
      </trkpt>
      <trkpt lat="44.61318" lon="6.13869">
        <ele>1236</ele>
        <time>2025-06-12T07:44:57Z</time>
      </trkpt>
      <trkpt lat="44.61326" lon="6.13864">
        <ele>1235.6</ele>
        <time>2025-06-12T07:44:58Z</time>
      </trkpt>
      <trkpt lat="44.61342" lon="6.13855">
        <ele>1235</ele>
        <time>2025-06-12T07:45:00Z</time>
      </trkpt>
      <trkpt lat="44.6135" lon="6.1385">
        <ele>1235</ele>
        <time>2025-06-12T07:45:01Z</time>
      </trkpt>
      <trkpt lat="44.61357" lon="6.13845">
        <ele>1234.6</ele>
        <time>2025-06-12T07:45:02Z</time>
      </trkpt>
      <trkpt lat="44.61364" lon="6.1384">
        <ele>1234.2</ele>
        <time>2025-06-12T07:45:03Z</time>
      </trkpt>
      <trkpt lat="44.6137" lon="6.13836">
        <ele>1233.8</ele>
        <time>2025-06-12T07:45:04Z</time>
      </trkpt>
      <trkpt lat="44.61376" lon="6.13831">
        <ele>1233.6</ele>
        <time>2025-06-12T07:45:05Z</time>
      </trkpt>
      <trkpt lat="44.61383" lon="6.13826">
        <ele>1233.2</ele>
        <time>2025-06-12T07:45:06Z</time>
      </trkpt>
      <trkpt lat="44.61389" lon="6.13822">
        <ele>1232.8</ele>
        <time>2025-06-12T07:45:07Z</time>
      </trkpt>
      <trkpt lat="44.61394" lon="6.13817">
        <ele>1232.4</ele>
        <time>2025-06-12T07:45:08Z</time>
      </trkpt>
      <trkpt lat="44.614" lon="6.13812">
        <ele>1232.2</ele>
        <time>2025-06-12T07:45:09Z</time>
      </trkpt>
      <trkpt lat="44.61411" lon="6.13804">
        <ele>1232</ele>
        <time>2025-06-12T07:45:11Z</time>
      </trkpt>
      <trkpt lat="44.61416" lon="6.13801">
        <ele>1231.8</ele>
        <time>2025-06-12T07:45:12Z</time>
      </trkpt>
      <trkpt lat="44.61421" lon="6.13797">
        <ele>1231.8</ele>
        <time>2025-06-12T07:45:13Z</time>
      </trkpt>
      <trkpt lat="44.61425" lon="6.13794">
        <ele>1231.6</ele>
        <time>2025-06-12T07:45:14Z</time>
      </trkpt>
      <trkpt lat="44.6143" lon="6.13792">
        <ele>1231.6</ele>
        <time>2025-06-12T07:45:15Z</time>
      </trkpt>
      <trkpt lat="44.61434" lon="6.1379">
        <ele>1231.6</ele>
        <time>2025-06-12T07:45:16Z</time>
      </trkpt>
      <trkpt lat="44.61439" lon="6.13788">
        <ele>1231.6</ele>
        <time>2025-06-12T07:45:17Z</time>
      </trkpt>
      <trkpt lat="44.61443" lon="6.13788">
        <ele>1231.2</ele>
        <time>2025-06-12T07:45:18Z</time>
      </trkpt>
      <trkpt lat="44.61448" lon="6.13789">
        <ele>1231.2</ele>
        <time>2025-06-12T07:45:19Z</time>
      </trkpt>
      <trkpt lat="44.61453" lon="6.1379">
        <ele>1231.2</ele>
        <time>2025-06-12T07:45:20Z</time>
      </trkpt>
      <trkpt lat="44.61459" lon="6.13793">
        <ele>1231.2</ele>
        <time>2025-06-12T07:45:21Z</time>
      </trkpt>
      <trkpt lat="44.61463" lon="6.13796">
        <ele>1231</ele>
        <time>2025-06-12T07:45:22Z</time>
      </trkpt>
      <trkpt lat="44.61468" lon="6.138">
        <ele>1231</ele>
        <time>2025-06-12T07:45:23Z</time>
      </trkpt>
      <trkpt lat="44.61472" lon="6.13805">
        <ele>1231</ele>
        <time>2025-06-12T07:45:24Z</time>
      </trkpt>
      <trkpt lat="44.61475" lon="6.1381">
        <ele>1231</ele>
        <time>2025-06-12T07:45:25Z</time>
      </trkpt>
      <trkpt lat="44.61481" lon="6.13818">
        <ele>1230.8</ele>
        <time>2025-06-12T07:45:27Z</time>
      </trkpt>
      <trkpt lat="44.61482" lon="6.13821">
        <ele>1230.8</ele>
        <time>2025-06-12T07:45:28Z</time>
      </trkpt>
      <trkpt lat="44.61484" lon="6.13823">
        <ele>1230.6</ele>
        <time>2025-06-12T07:45:29Z</time>
      </trkpt>
      <trkpt lat="44.61485" lon="6.13824">
        <ele>1230.4</ele>
        <time>2025-06-12T07:45:30Z</time>
      </trkpt>
      <trkpt lat="44.61485" lon="6.13825">
        <ele>1230.4</ele>
        <time>2025-06-12T07:45:31Z</time>
      </trkpt>
      <trkpt lat="44.61485" lon="6.13825">
        <ele>1230.2</ele>
        <time>2025-06-12T07:45:32Z</time>
      </trkpt>
      <trkpt lat="44.61485" lon="6.13825">
        <ele>1230.2</ele>
        <time>2025-06-12T07:45:33Z</time>
      </trkpt>
      <trkpt lat="44.61485" lon="6.13825">
        <ele>1230</ele>
        <time>2025-06-12T07:45:34Z</time>
      </trkpt>
      <trkpt lat="44.61485" lon="6.13825">
        <ele>1230</ele>
        <time>2025-06-12T07:45:35Z</time>
      </trkpt>
      <trkpt lat="44.61485" lon="6.13825">
        <ele>1230</ele>
        <time>2025-06-12T07:45:36Z</time>
      </trkpt>
      <trkpt lat="44.61485" lon="6.13825">
        <ele>1230</ele>
        <time>2025-06-12T07:45:37Z</time>
      </trkpt>
      <trkpt lat="44.61485" lon="6.13825">
        <ele>1230</ele>
        <time>2025-06-12T07:45:38Z</time>
      </trkpt>
      <trkpt lat="44.61492" lon="6.13834">
        <ele>1230</ele>
        <time>2025-06-12T07:46:40Z</time>
      </trkpt>
      <trkpt lat="44.61494" lon="6.13837">
        <ele>1230</ele>
        <time>2025-06-12T07:46:41Z</time>
      </trkpt>
      <trkpt lat="44.61496" lon="6.1384">
        <ele>1229.8</ele>
        <time>2025-06-12T07:46:42Z</time>
      </trkpt>
      <trkpt lat="44.61498" lon="6.13844">
        <ele>1229.8</ele>
        <time>2025-06-12T07:46:43Z</time>
      </trkpt>
      <trkpt lat="44.615" lon="6.13848">
        <ele>1229.8</ele>
        <time>2025-06-12T07:46:44Z</time>
      </trkpt>
      <trkpt lat="44.61505" lon="6.13856">
        <ele>1229.8</ele>
        <time>2025-06-12T07:46:46Z</time>
      </trkpt>
      <trkpt lat="44.61508" lon="6.1386">
        <ele>1229.6</ele>
        <time>2025-06-12T07:46:47Z</time>
      </trkpt>
      <trkpt lat="44.61511" lon="6.13865">
        <ele>1229.6</ele>
        <time>2025-06-12T07:46:48Z</time>
      </trkpt>
      <trkpt lat="44.61515" lon="6.13869">
        <ele>1229.6</ele>
        <time>2025-06-12T07:46:49Z</time>
      </trkpt>
      <trkpt lat="44.61519" lon="6.13874">
        <ele>1229.4</ele>
        <time>2025-06-12T07:46:50Z</time>
      </trkpt>
      <trkpt lat="44.61523" lon="6.13879">
        <ele>1229.4</ele>
        <time>2025-06-12T07:46:51Z</time>
      </trkpt>
      <trkpt lat="44.61528" lon="6.13884">
        <ele>1229.2</ele>
        <time>2025-06-12T07:46:52Z</time>
      </trkpt>
      <trkpt lat="44.61533" lon="6.13889">
        <ele>1229</ele>
        <time>2025-06-12T07:46:53Z</time>
      </trkpt>
      <trkpt lat="44.61538" lon="6.13894">
        <ele>1228.8</ele>
        <time>2025-06-12T07:46:54Z</time>
      </trkpt>
      <trkpt lat="44.61544" lon="6.139">
        <ele>1228.8</ele>
        <time>2025-06-12T07:46:55Z</time>
      </trkpt>
      <trkpt lat="44.61557" lon="6.13913">
        <ele>1228.2</ele>
        <time>2025-06-12T07:46:57Z</time>
      </trkpt>
      <trkpt lat="44.61564" lon="6.13919">
        <ele>1227.8</ele>
        <time>2025-06-12T07:46:58Z</time>
      </trkpt>
      <trkpt lat="44.61571" lon="6.13926">
        <ele>1227.6</ele>
        <time>2025-06-12T07:46:59Z</time>
      </trkpt>
      <trkpt lat="44.61587" lon="6.13941">
        <ele>1227.2</ele>
        <time>2025-06-12T07:47:01Z</time>
      </trkpt>
      <trkpt lat="44.61595" lon="6.13949">
        <ele>1226.6</ele>
        <time>2025-06-12T07:47:02Z</time>
      </trkpt>
      <trkpt lat="44.61603" lon="6.13958">
        <ele>1226</ele>
        <time>2025-06-12T07:47:03Z</time>
      </trkpt>
      <trkpt lat="44.6161" lon="6.13968">
        <ele>1225.4</ele>
        <time>2025-06-12T07:47:04Z</time>
      </trkpt>
      <trkpt lat="44.61618" lon="6.13978">
        <ele>1225</ele>
        <time>2025-06-12T07:47:05Z</time>
      </trkpt>
      <trkpt lat="44.61624" lon="6.13989">
        <ele>1224.6</ele>
        <time>2025-06-12T07:47:06Z</time>
      </trkpt>
      <trkpt lat="44.61631" lon="6.14">
        <ele>1224.2</ele>
        <time>2025-06-12T07:47:07Z</time>
      </trkpt>
      <trkpt lat="44.61637" lon="6.14012">
        <ele>1223.6</ele>
        <time>2025-06-12T07:47:08Z</time>
      </trkpt>
      <trkpt lat="44.61643" lon="6.14023">
        <ele>1223.2</ele>
        <time>2025-06-12T07:47:09Z</time>
      </trkpt>
      <trkpt lat="44.61649" lon="6.14034">
        <ele>1222.4</ele>
        <time>2025-06-12T07:47:10Z</time>
      </trkpt>
      <trkpt lat="44.61655" lon="6.14044">
        <ele>1221.6</ele>
        <time>2025-06-12T07:47:11Z</time>
      </trkpt>
      <trkpt lat="44.61661" lon="6.14053">
        <ele>1221</ele>
        <time>2025-06-12T07:47:12Z</time>
      </trkpt>
      <trkpt lat="44.61668" lon="6.14062">
        <ele>1219.2</ele>
        <time>2025-06-12T07:47:13Z</time>
      </trkpt>
      <trkpt lat="44.61674" lon="6.1407">
        <ele>1218.8</ele>
        <time>2025-06-12T07:47:14Z</time>
      </trkpt>
      <trkpt lat="44.61681" lon="6.14078">
        <ele>1218.6</ele>
        <time>2025-06-12T07:47:15Z</time>
      </trkpt>
      <trkpt lat="44.61687" lon="6.14085">
        <ele>1218.4</ele>
        <time>2025-06-12T07:47:16Z</time>
      </trkpt>
      <trkpt lat="44.61693" lon="6.14091">
        <ele>1218.4</ele>
        <time>2025-06-12T07:47:17Z</time>
      </trkpt>
      <trkpt lat="44.61699" lon="6.14096">
        <ele>1218.4</ele>
        <time>2025-06-12T07:47:18Z</time>
      </trkpt>
      <trkpt lat="44.61705" lon="6.14102">
        <ele>1218.4</ele>
        <time>2025-06-12T07:47:19Z</time>
      </trkpt>
      <trkpt lat="44.6171" lon="6.14107">
        <ele>1218.4</ele>
        <time>2025-06-12T07:47:20Z</time>
      </trkpt>
      <trkpt lat="44.6172" lon="6.14115">
        <ele>1218.4</ele>
        <time>2025-06-12T07:47:22Z</time>
      </trkpt>
      <trkpt lat="44.61725" lon="6.14119">
        <ele>1218.4</ele>
        <time>2025-06-12T07:47:23Z</time>
      </trkpt>
      <trkpt lat="44.61729" lon="6.14123">
        <ele>1218.8</ele>
        <time>2025-06-12T07:47:24Z</time>
      </trkpt>
      <trkpt lat="44.61737" lon="6.14131">
        <ele>1219.4</ele>
        <time>2025-06-12T07:47:26Z</time>
      </trkpt>
      <trkpt lat="44.61745" lon="6.14139">
        <ele>1220.4</ele>
        <time>2025-06-12T07:47:28Z</time>
      </trkpt>
      <trkpt lat="44.61752" lon="6.14146">
        <ele>1221</ele>
        <time>2025-06-12T07:47:30Z</time>
      </trkpt>
      <trkpt lat="44.61756" lon="6.1415">
        <ele>1221.4</ele>
        <time>2025-06-12T07:47:31Z</time>
      </trkpt>
      <trkpt lat="44.6176" lon="6.14154">
        <ele>1221.8</ele>
        <time>2025-06-12T07:47:32Z</time>
      </trkpt>
      <trkpt lat="44.61766" lon="6.14162">
        <ele>1222.4</ele>
        <time>2025-06-12T07:47:34Z</time>
      </trkpt>
      <trkpt lat="44.61769" lon="6.14166">
        <ele>1222.6</ele>
        <time>2025-06-12T07:47:35Z</time>
      </trkpt>
      <trkpt lat="44.61773" lon="6.1417">
        <ele>1223</ele>
        <time>2025-06-12T07:47:36Z</time>
      </trkpt>
      <trkpt lat="44.61775" lon="6.14174">
        <ele>1223.2</ele>
        <time>2025-06-12T07:47:37Z</time>
      </trkpt>
      <trkpt lat="44.61778" lon="6.14178">
        <ele>1223.4</ele>
        <time>2025-06-12T07:47:38Z</time>
      </trkpt>
      <trkpt lat="44.61781" lon="6.14183">
        <ele>1223.6</ele>
        <time>2025-06-12T07:47:39Z</time>
      </trkpt>
      <trkpt lat="44.61783" lon="6.14187">
        <ele>1223.8</ele>
        <time>2025-06-12T07:47:40Z</time>
      </trkpt>
      <trkpt lat="44.61786" lon="6.14191">
        <ele>1224</ele>
        <time>2025-06-12T07:47:41Z</time>
      </trkpt>
      <trkpt lat="44.61789" lon="6.14195">
        <ele>1224.4</ele>
        <time>2025-06-12T07:47:42Z</time>
      </trkpt>
      <trkpt lat="44.61791" lon="6.14199">
        <ele>1224.8</ele>
        <time>2025-06-12T07:47:43Z</time>
      </trkpt>
      <trkpt lat="44.61794" lon="6.14203">
        <ele>1224.8</ele>
        <time>2025-06-12T07:47:44Z</time>
      </trkpt>
      <trkpt lat="44.61797" lon="6.14206">
        <ele>1225</ele>
        <time>2025-06-12T07:47:45Z</time>
      </trkpt>
      <trkpt lat="44.618" lon="6.14209">
        <ele>1225.4</ele>
        <time>2025-06-12T07:47:46Z</time>
      </trkpt>
      <trkpt lat="44.61803" lon="6.14213">
        <ele>1225.6</ele>
        <time>2025-06-12T07:47:47Z</time>
      </trkpt>
      <trkpt lat="44.61806" lon="6.14216">
        <ele>1226</ele>
        <time>2025-06-12T07:47:48Z</time>
      </trkpt>
      <trkpt lat="44.6181" lon="6.14218">
        <ele>1226.2</ele>
        <time>2025-06-12T07:47:49Z</time>
      </trkpt>
      <trkpt lat="44.61813" lon="6.14221">
        <ele>1226.6</ele>
        <time>2025-06-12T07:47:50Z</time>
      </trkpt>
      <trkpt lat="44.61817" lon="6.14223">
        <ele>1227</ele>
        <time>2025-06-12T07:47:51Z</time>
      </trkpt>
      <trkpt lat="44.61824" lon="6.14226">
        <ele>1227.6</ele>
        <time>2025-06-12T07:47:53Z</time>
      </trkpt>
      <trkpt lat="44.61831" lon="6.14229">
        <ele>1228</ele>
        <time>2025-06-12T07:47:55Z</time>
      </trkpt>
      <trkpt lat="44.61839" lon="6.14231">
        <ele>1228.8</ele>
        <time>2025-06-12T07:47:57Z</time>
      </trkpt>
      <trkpt lat="44.61847" lon="6.14232">
        <ele>1229</ele>
        <time>2025-06-12T07:47:59Z</time>
      </trkpt>
      <trkpt lat="44.61854" lon="6.14234">
        <ele>1229.6</ele>
        <time>2025-06-12T07:48:01Z</time>
      </trkpt>
      <trkpt lat="44.61861" lon="6.14236">
        <ele>1230</ele>
        <time>2025-06-12T07:48:03Z</time>
      </trkpt>
      <trkpt lat="44.61865" lon="6.14237">
        <ele>1230.2</ele>
        <time>2025-06-12T07:48:04Z</time>
      </trkpt>
      <trkpt lat="44.61869" lon="6.14237">
        <ele>1230.4</ele>
        <time>2025-06-12T07:48:05Z</time>
      </trkpt>
      <trkpt lat="44.61876" lon="6.14239">
        <ele>1231</ele>
        <time>2025-06-12T07:48:07Z</time>
      </trkpt>
      <trkpt lat="44.6188" lon="6.14239">
        <ele>1231.6</ele>
        <time>2025-06-12T07:48:08Z</time>
      </trkpt>
      <trkpt lat="44.61883" lon="6.1424">
        <ele>1231.8</ele>
        <time>2025-06-12T07:48:09Z</time>
      </trkpt>
      <trkpt lat="44.61887" lon="6.14241">
        <ele>1232</ele>
        <time>2025-06-12T07:48:10Z</time>
      </trkpt>
      <trkpt lat="44.6189" lon="6.14241">
        <ele>1232.4</ele>
        <time>2025-06-12T07:48:11Z</time>
      </trkpt>
      <trkpt lat="44.61894" lon="6.14242">
        <ele>1232.6</ele>
        <time>2025-06-12T07:48:12Z</time>
      </trkpt>
      <trkpt lat="44.61897" lon="6.14243">
        <ele>1233</ele>
        <time>2025-06-12T07:48:13Z</time>
      </trkpt>
      <trkpt lat="44.61901" lon="6.14245">
        <ele>1233.2</ele>
        <time>2025-06-12T07:48:14Z</time>
      </trkpt>
      <trkpt lat="44.61905" lon="6.14246">
        <ele>1233.4</ele>
        <time>2025-06-12T07:48:15Z</time>
      </trkpt>
      <trkpt lat="44.61908" lon="6.14248">
        <ele>1233.6</ele>
        <time>2025-06-12T07:48:16Z</time>
      </trkpt>
      <trkpt lat="44.61912" lon="6.14249">
        <ele>1233.8</ele>
        <time>2025-06-12T07:48:17Z</time>
      </trkpt>
      <trkpt lat="44.61915" lon="6.14251">
        <ele>1234</ele>
        <time>2025-06-12T07:48:18Z</time>
      </trkpt>
      <trkpt lat="44.61919" lon="6.14253">
        <ele>1234.2</ele>
        <time>2025-06-12T07:48:19Z</time>
      </trkpt>
      <trkpt lat="44.61923" lon="6.14255">
        <ele>1234.4</ele>
        <time>2025-06-12T07:48:20Z</time>
      </trkpt>
      <trkpt lat="44.61926" lon="6.14257">
        <ele>1234.6</ele>
        <time>2025-06-12T07:48:21Z</time>
      </trkpt>
      <trkpt lat="44.6193" lon="6.14259">
        <ele>1234.8</ele>
        <time>2025-06-12T07:48:22Z</time>
      </trkpt>
      <trkpt lat="44.61937" lon="6.14263">
        <ele>1235.4</ele>
        <time>2025-06-12T07:48:24Z</time>
      </trkpt>
      <trkpt lat="44.61943" lon="6.14268">
        <ele>1235.8</ele>
        <time>2025-06-12T07:48:26Z</time>
      </trkpt>
      <trkpt lat="44.61946" lon="6.1427">
        <ele>1236</ele>
        <time>2025-06-12T07:48:27Z</time>
      </trkpt>
      <trkpt lat="44.6195" lon="6.14273">
        <ele>1236.2</ele>
        <time>2025-06-12T07:48:28Z</time>
      </trkpt>
      <trkpt lat="44.61953" lon="6.14275">
        <ele>1236.6</ele>
        <time>2025-06-12T07:48:29Z</time>
      </trkpt>
      <trkpt lat="44.61956" lon="6.14278">
        <ele>1236.8</ele>
        <time>2025-06-12T07:48:30Z</time>
      </trkpt>
      <trkpt lat="44.61959" lon="6.14281">
        <ele>1237</ele>
        <time>2025-06-12T07:48:31Z</time>
      </trkpt>
      <trkpt lat="44.61962" lon="6.14284">
        <ele>1237.2</ele>
        <time>2025-06-12T07:48:32Z</time>
      </trkpt>
      <trkpt lat="44.61965" lon="6.14287">
        <ele>1237.4</ele>
        <time>2025-06-12T07:48:33Z</time>
      </trkpt>
      <trkpt lat="44.61971" lon="6.14293">
        <ele>1238</ele>
        <time>2025-06-12T07:48:35Z</time>
      </trkpt>
      <trkpt lat="44.61974" lon="6.14296">
        <ele>1238.4</ele>
        <time>2025-06-12T07:48:36Z</time>
      </trkpt>
      <trkpt lat="44.61977" lon="6.14298">
        <ele>1238.6</ele>
        <time>2025-06-12T07:48:37Z</time>
      </trkpt>
      <trkpt lat="44.6198" lon="6.14301">
        <ele>1238.8</ele>
        <time>2025-06-12T07:48:38Z</time>
      </trkpt>
      <trkpt lat="44.61983" lon="6.14304">
        <ele>1238.8</ele>
        <time>2025-06-12T07:48:39Z</time>
      </trkpt>
      <trkpt lat="44.61986" lon="6.14307">
        <ele>1239</ele>
        <time>2025-06-12T07:48:40Z</time>
      </trkpt>
      <trkpt lat="44.61989" lon="6.1431">
        <ele>1239.2</ele>
        <time>2025-06-12T07:48:41Z</time>
      </trkpt>
      <trkpt lat="44.61992" lon="6.14312">
        <ele>1239.4</ele>
        <time>2025-06-12T07:48:42Z</time>
      </trkpt>
      <trkpt lat="44.61997" lon="6.14318">
        <ele>1239.8</ele>
        <time>2025-06-12T07:48:44Z</time>
      </trkpt>
      <trkpt lat="44.62002" lon="6.14324">
        <ele>1240.2</ele>
        <time>2025-06-12T07:48:46Z</time>
      </trkpt>
      <trkpt lat="44.62005" lon="6.14327">
        <ele>1240.4</ele>
        <time>2025-06-12T07:48:47Z</time>
      </trkpt>
      <trkpt lat="44.62008" lon="6.1433">
        <ele>1240.4</ele>
        <time>2025-06-12T07:48:48Z</time>
      </trkpt>
      <trkpt lat="44.6201" lon="6.14334">
        <ele>1240.8</ele>
        <time>2025-06-12T07:48:49Z</time>
      </trkpt>
      <trkpt lat="44.62013" lon="6.14337">
        <ele>1241</ele>
        <time>2025-06-12T07:48:50Z</time>
      </trkpt>
      <trkpt lat="44.62015" lon="6.14341">
        <ele>1241.2</ele>
        <time>2025-06-12T07:48:51Z</time>
      </trkpt>
      <trkpt lat="44.62017" lon="6.14344">
        <ele>1241.4</ele>
        <time>2025-06-12T07:48:52Z</time>
      </trkpt>
      <trkpt lat="44.6202" lon="6.14348">
        <ele>1241.6</ele>
        <time>2025-06-12T07:48:53Z</time>
      </trkpt>
      <trkpt lat="44.62024" lon="6.14356">
        <ele>1242</ele>
        <time>2025-06-12T07:48:55Z</time>
      </trkpt>
      <trkpt lat="44.62028" lon="6.14363">
        <ele>1242.4</ele>
        <time>2025-06-12T07:48:57Z</time>
      </trkpt>
      <trkpt lat="44.62031" lon="6.14367">
        <ele>1242.6</ele>
        <time>2025-06-12T07:48:58Z</time>
      </trkpt>
      <trkpt lat="44.62034" lon="6.1437">
        <ele>1242.6</ele>
        <time>2025-06-12T07:48:59Z</time>
      </trkpt>
      <trkpt lat="44.62036" lon="6.14373">
        <ele>1242.8</ele>
        <time>2025-06-12T07:49:00Z</time>
      </trkpt>
      <trkpt lat="44.62039" lon="6.14376">
        <ele>1243</ele>
        <time>2025-06-12T07:49:01Z</time>
      </trkpt>
      <trkpt lat="44.62042" lon="6.14379">
        <ele>1243.2</ele>
        <time>2025-06-12T07:49:02Z</time>
      </trkpt>
      <trkpt lat="44.62045" lon="6.14382">
        <ele>1243.4</ele>
        <time>2025-06-12T07:49:03Z</time>
      </trkpt>
      <trkpt lat="44.62048" lon="6.14385">
        <ele>1243.8</ele>
        <time>2025-06-12T07:49:04Z</time>
      </trkpt>
      <trkpt lat="44.62051" lon="6.14388">
        <ele>1243.6</ele>
        <time>2025-06-12T07:49:05Z</time>
      </trkpt>
      <trkpt lat="44.62054" lon="6.1439">
        <ele>1243.8</ele>
        <time>2025-06-12T07:49:06Z</time>
      </trkpt>
      <trkpt lat="44.6206" lon="6.14395">
        <ele>1244</ele>
        <time>2025-06-12T07:49:08Z</time>
      </trkpt>
      <trkpt lat="44.62067" lon="6.14399">
        <ele>1244.4</ele>
        <time>2025-06-12T07:49:10Z</time>
      </trkpt>
      <trkpt lat="44.6207" lon="6.14402">
        <ele>1244.6</ele>
        <time>2025-06-12T07:49:11Z</time>
      </trkpt>
      <trkpt lat="44.62073" lon="6.14404">
        <ele>1244.8</ele>
        <time>2025-06-12T07:49:12Z</time>
      </trkpt>
      <trkpt lat="44.6208" lon="6.14408">
        <ele>1245</ele>
        <time>2025-06-12T07:49:14Z</time>
      </trkpt>
      <trkpt lat="44.62083" lon="6.1441">
        <ele>1245.2</ele>
        <time>2025-06-12T07:49:15Z</time>
      </trkpt>
      <trkpt lat="44.62086" lon="6.14412">
        <ele>1245.2</ele>
        <time>2025-06-12T07:49:16Z</time>
      </trkpt>
      <trkpt lat="44.6209" lon="6.14414">
        <ele>1245.4</ele>
        <time>2025-06-12T07:49:17Z</time>
      </trkpt>
      <trkpt lat="44.62093" lon="6.14415">
        <ele>1245.6</ele>
        <time>2025-06-12T07:49:18Z</time>
      </trkpt>
      <trkpt lat="44.62096" lon="6.14417">
        <ele>1245.8</ele>
        <time>2025-06-12T07:49:19Z</time>
      </trkpt>
      <trkpt lat="44.621" lon="6.14419">
        <ele>1246</ele>
        <time>2025-06-12T07:49:20Z</time>
      </trkpt>
      <trkpt lat="44.62103" lon="6.14421">
        <ele>1246.2</ele>
        <time>2025-06-12T07:49:21Z</time>
      </trkpt>
      <trkpt lat="44.6211" lon="6.14425">
        <ele>1246.6</ele>
        <time>2025-06-12T07:49:23Z</time>
      </trkpt>
      <trkpt lat="44.62113" lon="6.14426">
        <ele>1246.8</ele>
        <time>2025-06-12T07:49:24Z</time>
      </trkpt>
      <trkpt lat="44.62117" lon="6.14427">
        <ele>1247</ele>
        <time>2025-06-12T07:49:25Z</time>
      </trkpt>
      <trkpt lat="44.62123" lon="6.1443">
        <ele>1247.2</ele>
        <time>2025-06-12T07:49:27Z</time>
      </trkpt>
      <trkpt lat="44.62127" lon="6.14432">
        <ele>1247.4</ele>
        <time>2025-06-12T07:49:28Z</time>
      </trkpt>
      <trkpt lat="44.6213" lon="6.14434">
        <ele>1247.6</ele>
        <time>2025-06-12T07:49:29Z</time>
      </trkpt>
      <trkpt lat="44.62133" lon="6.14436">
        <ele>1247.8</ele>
        <time>2025-06-12T07:49:30Z</time>
      </trkpt>
      <trkpt lat="44.62137" lon="6.14438">
        <ele>1248.2</ele>
        <time>2025-06-12T07:49:31Z</time>
      </trkpt>
      <trkpt lat="44.6214" lon="6.14439">
        <ele>1248.4</ele>
        <time>2025-06-12T07:49:32Z</time>
      </trkpt>
      <trkpt lat="44.62144" lon="6.1444">
        <ele>1248.6</ele>
        <time>2025-06-12T07:49:33Z</time>
      </trkpt>
      <trkpt lat="44.62147" lon="6.14442">
        <ele>1248.8</ele>
        <time>2025-06-12T07:49:34Z</time>
      </trkpt>
      <trkpt lat="44.62154" lon="6.14446">
        <ele>1249.2</ele>
        <time>2025-06-12T07:49:36Z</time>
      </trkpt>
      <trkpt lat="44.62157" lon="6.14448">
        <ele>1249.2</ele>
        <time>2025-06-12T07:49:37Z</time>
      </trkpt>
      <trkpt lat="44.6216" lon="6.14451">
        <ele>1249.4</ele>
        <time>2025-06-12T07:49:38Z</time>
      </trkpt>
      <trkpt lat="44.62162" lon="6.14454">
        <ele>1249.6</ele>
        <time>2025-06-12T07:49:39Z</time>
      </trkpt>
      <trkpt lat="44.62165" lon="6.14458">
        <ele>1249.8</ele>
        <time>2025-06-12T07:49:40Z</time>
      </trkpt>
      <trkpt lat="44.6217" lon="6.14465">
        <ele>1250.2</ele>
        <time>2025-06-12T07:49:42Z</time>
      </trkpt>
      <trkpt lat="44.62172" lon="6.14468">
        <ele>1250.4</ele>
        <time>2025-06-12T07:49:43Z</time>
      </trkpt>
      <trkpt lat="44.62175" lon="6.14472">
        <ele>1250.6</ele>
        <time>2025-06-12T07:49:44Z</time>
      </trkpt>
      <trkpt lat="44.62177" lon="6.14476">
        <ele>1250.8</ele>
        <time>2025-06-12T07:49:45Z</time>
      </trkpt>
      <trkpt lat="44.62179" lon="6.1448">
        <ele>1251</ele>
        <time>2025-06-12T07:49:46Z</time>
      </trkpt>
      <trkpt lat="44.62182" lon="6.14484">
        <ele>1251.2</ele>
        <time>2025-06-12T07:49:47Z</time>
      </trkpt>
      <trkpt lat="44.62185" lon="6.14493">
        <ele>1251.8</ele>
        <time>2025-06-12T07:49:49Z</time>
      </trkpt>
      <trkpt lat="44.62188" lon="6.14503">
        <ele>1252.4</ele>
        <time>2025-06-12T07:49:51Z</time>
      </trkpt>
      <trkpt lat="44.62189" lon="6.14513">
        <ele>1252.8</ele>
        <time>2025-06-12T07:49:53Z</time>
      </trkpt>
      <trkpt lat="44.62189" lon="6.14518">
        <ele>1252.8</ele>
        <time>2025-06-12T07:49:54Z</time>
      </trkpt>
      <trkpt lat="44.62189" lon="6.14523">
        <ele>1252.8</ele>
        <time>2025-06-12T07:49:55Z</time>
      </trkpt>
      <trkpt lat="44.62188" lon="6.14528">
        <ele>1252.8</ele>
        <time>2025-06-12T07:49:56Z</time>
      </trkpt>
      <trkpt lat="44.62187" lon="6.14532">
        <ele>1253</ele>
        <time>2025-06-12T07:49:57Z</time>
      </trkpt>
      <trkpt lat="44.62186" lon="6.14537">
        <ele>1253</ele>
        <time>2025-06-12T07:49:58Z</time>
      </trkpt>
      <trkpt lat="44.62185" lon="6.14541">
        <ele>1253.4</ele>
        <time>2025-06-12T07:49:59Z</time>
      </trkpt>
      <trkpt lat="44.62183" lon="6.14545">
        <ele>1253.4</ele>
        <time>2025-06-12T07:50:00Z</time>
      </trkpt>
      <trkpt lat="44.62181" lon="6.14549">
        <ele>1253.6</ele>
        <time>2025-06-12T07:50:01Z</time>
      </trkpt>
      <trkpt lat="44.6218" lon="6.14553">
        <ele>1253.8</ele>
        <time>2025-06-12T07:50:02Z</time>
      </trkpt>
      <trkpt lat="44.62177" lon="6.14561">
        <ele>1254</ele>
        <time>2025-06-12T07:50:04Z</time>
      </trkpt>
      <trkpt lat="44.62176" lon="6.14566">
        <ele>1254.2</ele>
        <time>2025-06-12T07:50:05Z</time>
      </trkpt>
      <trkpt lat="44.62175" lon="6.1457">
        <ele>1254.6</ele>
        <time>2025-06-12T07:50:06Z</time>
      </trkpt>
      <trkpt lat="44.62174" lon="6.14574">
        <ele>1254.8</ele>
        <time>2025-06-12T07:50:07Z</time>
      </trkpt>
      <trkpt lat="44.62173" lon="6.14579">
        <ele>1255</ele>
        <time>2025-06-12T07:50:08Z</time>
      </trkpt>
      <trkpt lat="44.62174" lon="6.14584">
        <ele>1255.4</ele>
        <time>2025-06-12T07:50:09Z</time>
      </trkpt>
      <trkpt lat="44.62174" lon="6.14588">
        <ele>1255.6</ele>
        <time>2025-06-12T07:50:10Z</time>
      </trkpt>
      <trkpt lat="44.62174" lon="6.14593">
        <ele>1255.8</ele>
        <time>2025-06-12T07:50:11Z</time>
      </trkpt>
      <trkpt lat="44.62176" lon="6.14603">
        <ele>1256.4</ele>
        <time>2025-06-12T07:50:13Z</time>
      </trkpt>
      <trkpt lat="44.62178" lon="6.14612">
        <ele>1256.8</ele>
        <time>2025-06-12T07:50:15Z</time>
      </trkpt>
      <trkpt lat="44.62181" lon="6.1462">
        <ele>1257.2</ele>
        <time>2025-06-12T07:50:17Z</time>
      </trkpt>
      <trkpt lat="44.62183" lon="6.14624">
        <ele>1257.4</ele>
        <time>2025-06-12T07:50:18Z</time>
      </trkpt>
      <trkpt lat="44.62185" lon="6.14628">
        <ele>1257.4</ele>
        <time>2025-06-12T07:50:19Z</time>
      </trkpt>
      <trkpt lat="44.62187" lon="6.14632">
        <ele>1257.6</ele>
        <time>2025-06-12T07:50:20Z</time>
      </trkpt>
      <trkpt lat="44.6219" lon="6.14636">
        <ele>1257.6</ele>
        <time>2025-06-12T07:50:21Z</time>
      </trkpt>
      <trkpt lat="44.62192" lon="6.14639">
        <ele>1257.8</ele>
        <time>2025-06-12T07:50:22Z</time>
      </trkpt>
      <trkpt lat="44.62195" lon="6.14642">
        <ele>1258</ele>
        <time>2025-06-12T07:50:23Z</time>
      </trkpt>
      <trkpt lat="44.62198" lon="6.14646">
        <ele>1258.2</ele>
        <time>2025-06-12T07:50:24Z</time>
      </trkpt>
      <trkpt lat="44.62201" lon="6.1465">
        <ele>1258.4</ele>
        <time>2025-06-12T07:50:25Z</time>
      </trkpt>
      <trkpt lat="44.62203" lon="6.14653">
        <ele>1258.6</ele>
        <time>2025-06-12T07:50:26Z</time>
      </trkpt>
      <trkpt lat="44.62206" lon="6.14656">
        <ele>1258.8</ele>
        <time>2025-06-12T07:50:27Z</time>
      </trkpt>
      <trkpt lat="44.62209" lon="6.1466">
        <ele>1259</ele>
        <time>2025-06-12T07:50:28Z</time>
      </trkpt>
      <trkpt lat="44.62212" lon="6.14663">
        <ele>1259</ele>
        <time>2025-06-12T07:50:29Z</time>
      </trkpt>
      <trkpt lat="44.62215" lon="6.14666">
        <ele>1259.2</ele>
        <time>2025-06-12T07:50:30Z</time>
      </trkpt>
      <trkpt lat="44.62217" lon="6.1467">
        <ele>1259.2</ele>
        <time>2025-06-12T07:50:31Z</time>
      </trkpt>
      <trkpt lat="44.6222" lon="6.14673">
        <ele>1259.2</ele>
        <time>2025-06-12T07:50:32Z</time>
      </trkpt>
      <trkpt lat="44.62222" lon="6.14677">
        <ele>1259.2</ele>
        <time>2025-06-12T07:50:33Z</time>
      </trkpt>
      <trkpt lat="44.62225" lon="6.1468">
        <ele>1259.2</ele>
        <time>2025-06-12T07:50:34Z</time>
      </trkpt>
      <trkpt lat="44.62228" lon="6.14684">
        <ele>1259.2</ele>
        <time>2025-06-12T07:50:35Z</time>
      </trkpt>
      <trkpt lat="44.62233" lon="6.14691">
        <ele>1259.4</ele>
        <time>2025-06-12T07:50:37Z</time>
      </trkpt>
      <trkpt lat="44.62236" lon="6.14695">
        <ele>1259.6</ele>
        <time>2025-06-12T07:50:38Z</time>
      </trkpt>
      <trkpt lat="44.62238" lon="6.14699">
        <ele>1259.4</ele>
        <time>2025-06-12T07:50:39Z</time>
      </trkpt>
      <trkpt lat="44.6224" lon="6.14704">
        <ele>1259.6</ele>
        <time>2025-06-12T07:50:40Z</time>
      </trkpt>
      <trkpt lat="44.62242" lon="6.14709">
        <ele>1259.8</ele>
        <time>2025-06-12T07:50:41Z</time>
      </trkpt>
      <trkpt lat="44.62244" lon="6.14713">
        <ele>1259.8</ele>
        <time>2025-06-12T07:50:42Z</time>
      </trkpt>
      <trkpt lat="44.62247" lon="6.14723">
        <ele>1260</ele>
        <time>2025-06-12T07:50:44Z</time>
      </trkpt>
      <trkpt lat="44.62249" lon="6.14733">
        <ele>1260</ele>
        <time>2025-06-12T07:50:46Z</time>
      </trkpt>
      <trkpt lat="44.6225" lon="6.14743">
        <ele>1260.2</ele>
        <time>2025-06-12T07:50:48Z</time>
      </trkpt>
      <trkpt lat="44.62251" lon="6.14748">
        <ele>1260.2</ele>
        <time>2025-06-12T07:50:49Z</time>
      </trkpt>
      <trkpt lat="44.62252" lon="6.14752">
        <ele>1260.4</ele>
        <time>2025-06-12T07:50:50Z</time>
      </trkpt>
      <trkpt lat="44.62253" lon="6.14757">
        <ele>1260.4</ele>
        <time>2025-06-12T07:50:51Z</time>
      </trkpt>
      <trkpt lat="44.62254" lon="6.14762">
        <ele>1260.6</ele>
        <time>2025-06-12T07:50:52Z</time>
      </trkpt>
      <trkpt lat="44.62256" lon="6.14766">
        <ele>1260.6</ele>
        <time>2025-06-12T07:50:53Z</time>
      </trkpt>
      <trkpt lat="44.62258" lon="6.14775">
        <ele>1261</ele>
        <time>2025-06-12T07:50:55Z</time>
      </trkpt>
      <trkpt lat="44.62259" lon="6.1478">
        <ele>1261.2</ele>
        <time>2025-06-12T07:50:56Z</time>
      </trkpt>
      <trkpt lat="44.6226" lon="6.14785">
        <ele>1261.2</ele>
        <time>2025-06-12T07:50:57Z</time>
      </trkpt>
      <trkpt lat="44.62264" lon="6.14794">
        <ele>1261.4</ele>
        <time>2025-06-12T07:50:59Z</time>
      </trkpt>
      <trkpt lat="44.62265" lon="6.14798">
        <ele>1261.8</ele>
        <time>2025-06-12T07:51:00Z</time>
      </trkpt>
      <trkpt lat="44.62267" lon="6.14803">
        <ele>1261.8</ele>
        <time>2025-06-12T07:51:01Z</time>
      </trkpt>
      <trkpt lat="44.62269" lon="6.14807">
        <ele>1262</ele>
        <time>2025-06-12T07:51:02Z</time>
      </trkpt>
      <trkpt lat="44.6227" lon="6.14811">
        <ele>1262.2</ele>
        <time>2025-06-12T07:51:03Z</time>
      </trkpt>
      <trkpt lat="44.62272" lon="6.14816">
        <ele>1262.4</ele>
        <time>2025-06-12T07:51:04Z</time>
      </trkpt>
      <trkpt lat="44.62275" lon="6.1482">
        <ele>1262.6</ele>
        <time>2025-06-12T07:51:05Z</time>
      </trkpt>
      <trkpt lat="44.62277" lon="6.14824">
        <ele>1262.8</ele>
        <time>2025-06-12T07:51:06Z</time>
      </trkpt>
      <trkpt lat="44.62281" lon="6.14832">
        <ele>1263</ele>
        <time>2025-06-12T07:51:08Z</time>
      </trkpt>
      <trkpt lat="44.62286" lon="6.1484">
        <ele>1263.4</ele>
        <time>2025-06-12T07:51:10Z</time>
      </trkpt>
      <trkpt lat="44.62291" lon="6.14848">
        <ele>1263.6</ele>
        <time>2025-06-12T07:51:12Z</time>
      </trkpt>
      <trkpt lat="44.62294" lon="6.14852">
        <ele>1263.8</ele>
        <time>2025-06-12T07:51:13Z</time>
      </trkpt>
      <trkpt lat="44.62297" lon="6.14855">
        <ele>1263.8</ele>
        <time>2025-06-12T07:51:14Z</time>
      </trkpt>
      <trkpt lat="44.623" lon="6.14859">
        <ele>1263.8</ele>
        <time>2025-06-12T07:51:15Z</time>
      </trkpt>
      <trkpt lat="44.62303" lon="6.14862">
        <ele>1263.8</ele>
        <time>2025-06-12T07:51:16Z</time>
      </trkpt>
      <trkpt lat="44.62305" lon="6.14866">
        <ele>1264</ele>
        <time>2025-06-12T07:51:17Z</time>
      </trkpt>
      <trkpt lat="44.62308" lon="6.1487">
        <ele>1264</ele>
        <time>2025-06-12T07:51:18Z</time>
      </trkpt>
      <trkpt lat="44.62311" lon="6.14873">
        <ele>1264</ele>
        <time>2025-06-12T07:51:19Z</time>
      </trkpt>
      <trkpt lat="44.62313" lon="6.14877">
        <ele>1264</ele>
        <time>2025-06-12T07:51:20Z</time>
      </trkpt>
      <trkpt lat="44.62316" lon="6.14881">
        <ele>1264.2</ele>
        <time>2025-06-12T07:51:21Z</time>
      </trkpt>
      <trkpt lat="44.62321" lon="6.14888">
        <ele>1264.6</ele>
        <time>2025-06-12T07:51:23Z</time>
      </trkpt>
      <trkpt lat="44.62326" lon="6.14896">
        <ele>1264.6</ele>
        <time>2025-06-12T07:51:25Z</time>
      </trkpt>
      <trkpt lat="44.6233" lon="6.14904">
        <ele>1265</ele>
        <time>2025-06-12T07:51:27Z</time>
      </trkpt>
      <trkpt lat="44.62333" lon="6.14908">
        <ele>1265</ele>
        <time>2025-06-12T07:51:28Z</time>
      </trkpt>
      <trkpt lat="44.62335" lon="6.14912">
        <ele>1265.4</ele>
        <time>2025-06-12T07:51:29Z</time>
      </trkpt>
      <trkpt lat="44.62337" lon="6.14916">
        <ele>1265.6</ele>
        <time>2025-06-12T07:51:30Z</time>
      </trkpt>
      <trkpt lat="44.62339" lon="6.1492">
        <ele>1265.8</ele>
        <time>2025-06-12T07:51:31Z</time>
      </trkpt>
      <trkpt lat="44.62341" lon="6.14924">
        <ele>1266</ele>
        <time>2025-06-12T07:51:32Z</time>
      </trkpt>
      <trkpt lat="44.62343" lon="6.14928">
        <ele>1266.2</ele>
        <time>2025-06-12T07:51:33Z</time>
      </trkpt>
      <trkpt lat="44.62345" lon="6.14932">
        <ele>1266.4</ele>
        <time>2025-06-12T07:51:34Z</time>
      </trkpt>
      <trkpt lat="44.62347" lon="6.14936">
        <ele>1266.6</ele>
        <time>2025-06-12T07:51:35Z</time>
      </trkpt>
      <trkpt lat="44.62349" lon="6.14941">
        <ele>1266.8</ele>
        <time>2025-06-12T07:51:36Z</time>
      </trkpt>
      <trkpt lat="44.62351" lon="6.14945">
        <ele>1267</ele>
        <time>2025-06-12T07:51:37Z</time>
      </trkpt>
      <trkpt lat="44.62353" lon="6.14949">
        <ele>1267</ele>
        <time>2025-06-12T07:51:38Z</time>
      </trkpt>
      <trkpt lat="44.62356" lon="6.14957">
        <ele>1267.4</ele>
        <time>2025-06-12T07:51:40Z</time>
      </trkpt>
      <trkpt lat="44.62358" lon="6.14961">
        <ele>1267.8</ele>
        <time>2025-06-12T07:51:41Z</time>
      </trkpt>
      <trkpt lat="44.6236" lon="6.14965">
        <ele>1267.8</ele>
        <time>2025-06-12T07:51:42Z</time>
      </trkpt>
      <trkpt lat="44.62365" lon="6.14972">
        <ele>1268.4</ele>
        <time>2025-06-12T07:51:44Z</time>
      </trkpt>
      <trkpt lat="44.62367" lon="6.14976">
        <ele>1268.6</ele>
        <time>2025-06-12T07:51:45Z</time>
      </trkpt>
      <trkpt lat="44.62369" lon="6.1498">
        <ele>1268.8</ele>
        <time>2025-06-12T07:51:46Z</time>
      </trkpt>
      <trkpt lat="44.62372" lon="6.14983">
        <ele>1269</ele>
        <time>2025-06-12T07:51:47Z</time>
      </trkpt>
      <trkpt lat="44.62374" lon="6.14987">
        <ele>1269</ele>
        <time>2025-06-12T07:51:48Z</time>
      </trkpt>
      <trkpt lat="44.62376" lon="6.14991">
        <ele>1269.2</ele>
        <time>2025-06-12T07:51:49Z</time>
      </trkpt>
      <trkpt lat="44.62379" lon="6.14994">
        <ele>1269.6</ele>
        <time>2025-06-12T07:51:50Z</time>
      </trkpt>
      <trkpt lat="44.62381" lon="6.14998">
        <ele>1270</ele>
        <time>2025-06-12T07:51:51Z</time>
      </trkpt>
      <trkpt lat="44.62384" lon="6.15001">
        <ele>1270.4</ele>
        <time>2025-06-12T07:51:52Z</time>
      </trkpt>
      <trkpt lat="44.62387" lon="6.15004">
        <ele>1270.6</ele>
        <time>2025-06-12T07:51:53Z</time>
      </trkpt>
      <trkpt lat="44.62389" lon="6.15007">
        <ele>1270.8</ele>
        <time>2025-06-12T07:51:54Z</time>
      </trkpt>
      <trkpt lat="44.62392" lon="6.15011">
        <ele>1270.8</ele>
        <time>2025-06-12T07:51:55Z</time>
      </trkpt>
      <trkpt lat="44.62397" lon="6.15017">
        <ele>1271</ele>
        <time>2025-06-12T07:51:57Z</time>
      </trkpt>
      <trkpt lat="44.62402" lon="6.15023">
        <ele>1271.4</ele>
        <time>2025-06-12T07:51:59Z</time>
      </trkpt>
      <trkpt lat="44.62405" lon="6.15025">
        <ele>1271.6</ele>
        <time>2025-06-12T07:52:00Z</time>
      </trkpt>
      <trkpt lat="44.62408" lon="6.15028">
        <ele>1271.8</ele>
        <time>2025-06-12T07:52:01Z</time>
      </trkpt>
      <trkpt lat="44.62411" lon="6.15031">
        <ele>1272.2</ele>
        <time>2025-06-12T07:52:02Z</time>
      </trkpt>
      <trkpt lat="44.62414" lon="6.15033">
        <ele>1272.2</ele>
        <time>2025-06-12T07:52:03Z</time>
      </trkpt>
      <trkpt lat="44.62417" lon="6.15036">
        <ele>1272.4</ele>
        <time>2025-06-12T07:52:04Z</time>
      </trkpt>
      <trkpt lat="44.6242" lon="6.15038">
        <ele>1272.6</ele>
        <time>2025-06-12T07:52:05Z</time>
      </trkpt>
      <trkpt lat="44.62423" lon="6.1504">
        <ele>1273</ele>
        <time>2025-06-12T07:52:06Z</time>
      </trkpt>
      <trkpt lat="44.6243" lon="6.15044">
        <ele>1273.4</ele>
        <time>2025-06-12T07:52:08Z</time>
      </trkpt>
      <trkpt lat="44.62433" lon="6.15046">
        <ele>1273.6</ele>
        <time>2025-06-12T07:52:09Z</time>
      </trkpt>
      <trkpt lat="44.62436" lon="6.15047">
        <ele>1273.8</ele>
        <time>2025-06-12T07:52:10Z</time>
      </trkpt>
      <trkpt lat="44.6244" lon="6.15049">
        <ele>1274</ele>
        <time>2025-06-12T07:52:11Z</time>
      </trkpt>
      <trkpt lat="44.62443" lon="6.1505">
        <ele>1274.2</ele>
        <time>2025-06-12T07:52:12Z</time>
      </trkpt>
      <trkpt lat="44.62447" lon="6.15051">
        <ele>1274.6</ele>
        <time>2025-06-12T07:52:13Z</time>
      </trkpt>
      <trkpt lat="44.6245" lon="6.15052">
        <ele>1274.6</ele>
        <time>2025-06-12T07:52:14Z</time>
      </trkpt>
      <trkpt lat="44.62454" lon="6.15053">
        <ele>1274.8</ele>
        <time>2025-06-12T07:52:15Z</time>
      </trkpt>
      <trkpt lat="44.62457" lon="6.15054">
        <ele>1274.8</ele>
        <time>2025-06-12T07:52:16Z</time>
      </trkpt>
      <trkpt lat="44.6246" lon="6.15055">
        <ele>1275.2</ele>
        <time>2025-06-12T07:52:17Z</time>
      </trkpt>
      <trkpt lat="44.62467" lon="6.15058">
        <ele>1275.2</ele>
        <time>2025-06-12T07:52:19Z</time>
      </trkpt>
      <trkpt lat="44.62471" lon="6.1506">
        <ele>1275.6</ele>
        <time>2025-06-12T07:52:20Z</time>
      </trkpt>
      <trkpt lat="44.62474" lon="6.15061">
        <ele>1275.8</ele>
        <time>2025-06-12T07:52:21Z</time>
      </trkpt>
      <trkpt lat="44.62481" lon="6.15065">
        <ele>1276</ele>
        <time>2025-06-12T07:52:23Z</time>
      </trkpt>
      <trkpt lat="44.62487" lon="6.1507">
        <ele>1276.4</ele>
        <time>2025-06-12T07:52:25Z</time>
      </trkpt>
      <trkpt lat="44.6249" lon="6.15073">
        <ele>1276.6</ele>
        <time>2025-06-12T07:52:26Z</time>
      </trkpt>
      <trkpt lat="44.62493" lon="6.15076">
        <ele>1276.6</ele>
        <time>2025-06-12T07:52:27Z</time>
      </trkpt>
      <trkpt lat="44.62496" lon="6.1508">
        <ele>1276.8</ele>
        <time>2025-06-12T07:52:28Z</time>
      </trkpt>
      <trkpt lat="44.62498" lon="6.15083">
        <ele>1277.2</ele>
        <time>2025-06-12T07:52:29Z</time>
      </trkpt>
      <trkpt lat="44.625" lon="6.15087">
        <ele>1277.2</ele>
        <time>2025-06-12T07:52:30Z</time>
      </trkpt>
      <trkpt lat="44.62503" lon="6.15091">
        <ele>1277.4</ele>
        <time>2025-06-12T07:52:31Z</time>
      </trkpt>
      <trkpt lat="44.62504" lon="6.15095">
        <ele>1277.6</ele>
        <time>2025-06-12T07:52:32Z</time>
      </trkpt>
      <trkpt lat="44.62506" lon="6.151">
        <ele>1277.6</ele>
        <time>2025-06-12T07:52:33Z</time>
      </trkpt>
      <trkpt lat="44.62508" lon="6.15104">
        <ele>1277.6</ele>
        <time>2025-06-12T07:52:34Z</time>
      </trkpt>
      <trkpt lat="44.6251" lon="6.15114">
        <ele>1278</ele>
        <time>2025-06-12T07:52:36Z</time>
      </trkpt>
      <trkpt lat="44.62511" lon="6.15119">
        <ele>1278.2</ele>
        <time>2025-06-12T07:52:37Z</time>
      </trkpt>
      <trkpt lat="44.62511" lon="6.15123">
        <ele>1278.4</ele>
        <time>2025-06-12T07:52:38Z</time>
      </trkpt>
      <trkpt lat="44.62512" lon="6.15133">
        <ele>1278.8</ele>
        <time>2025-06-12T07:52:40Z</time>
      </trkpt>
      <trkpt lat="44.62512" lon="6.15138">
        <ele>1279</ele>
        <time>2025-06-12T07:52:41Z</time>
      </trkpt>
      <trkpt lat="44.62511" lon="6.15143">
        <ele>1279</ele>
        <time>2025-06-12T07:52:42Z</time>
      </trkpt>
      <trkpt lat="44.6251" lon="6.15148">
        <ele>1279.2</ele>
        <time>2025-06-12T07:52:43Z</time>
      </trkpt>
      <trkpt lat="44.62509" lon="6.15153">
        <ele>1279.4</ele>
        <time>2025-06-12T07:52:44Z</time>
      </trkpt>
      <trkpt lat="44.62508" lon="6.15158">
        <ele>1279.8</ele>
        <time>2025-06-12T07:52:45Z</time>
      </trkpt>
      <trkpt lat="44.62506" lon="6.15167">
        <ele>1280.4</ele>
        <time>2025-06-12T07:52:47Z</time>
      </trkpt>
      <trkpt lat="44.62502" lon="6.15176">
        <ele>1280.8</ele>
        <time>2025-06-12T07:52:49Z</time>
      </trkpt>
      <trkpt lat="44.625" lon="6.15181">
        <ele>1281</ele>
        <time>2025-06-12T07:52:50Z</time>
      </trkpt>
      <trkpt lat="44.62498" lon="6.15185">
        <ele>1281.2</ele>
        <time>2025-06-12T07:52:51Z</time>
      </trkpt>
      <trkpt lat="44.62496" lon="6.15189">
        <ele>1281.2</ele>
        <time>2025-06-12T07:52:52Z</time>
      </trkpt>
      <trkpt lat="44.62494" lon="6.15193">
        <ele>1281.4</ele>
        <time>2025-06-12T07:52:53Z</time>
      </trkpt>
      <trkpt lat="44.62493" lon="6.15198">
        <ele>1281.4</ele>
        <time>2025-06-12T07:52:54Z</time>
      </trkpt>
      <trkpt lat="44.62489" lon="6.15206">
        <ele>1281.6</ele>
        <time>2025-06-12T07:52:56Z</time>
      </trkpt>
      <trkpt lat="44.62486" lon="6.15215">
        <ele>1282</ele>
        <time>2025-06-12T07:52:58Z</time>
      </trkpt>
      <trkpt lat="44.62482" lon="6.15224">
        <ele>1282.4</ele>
        <time>2025-06-12T07:53:00Z</time>
      </trkpt>
      <trkpt lat="44.62481" lon="6.15228">
        <ele>1282.6</ele>
        <time>2025-06-12T07:53:01Z</time>
      </trkpt>
      <trkpt lat="44.6248" lon="6.15233">
        <ele>1282.6</ele>
        <time>2025-06-12T07:53:02Z</time>
      </trkpt>
      <trkpt lat="44.62478" lon="6.15237">
        <ele>1282.8</ele>
        <time>2025-06-12T07:53:03Z</time>
      </trkpt>
      <trkpt lat="44.62477" lon="6.15242">
        <ele>1283</ele>
        <time>2025-06-12T07:53:04Z</time>
      </trkpt>
      <trkpt lat="44.62477" lon="6.15247">
        <ele>1283.2</ele>
        <time>2025-06-12T07:53:05Z</time>
      </trkpt>
      <trkpt lat="44.62476" lon="6.15251">
        <ele>1283.4</ele>
        <time>2025-06-12T07:53:06Z</time>
      </trkpt>
      <trkpt lat="44.62475" lon="6.15256">
        <ele>1283.6</ele>
        <time>2025-06-12T07:53:07Z</time>
      </trkpt>
      <trkpt lat="44.62475" lon="6.15261">
        <ele>1283.8</ele>
        <time>2025-06-12T07:53:08Z</time>
      </trkpt>
      <trkpt lat="44.62474" lon="6.15266">
        <ele>1284</ele>
        <time>2025-06-12T07:53:09Z</time>
      </trkpt>
      <trkpt lat="44.62474" lon="6.15276">
        <ele>1284.2</ele>
        <time>2025-06-12T07:53:11Z</time>
      </trkpt>
      <trkpt lat="44.62474" lon="6.15286">
        <ele>1284.6</ele>
        <time>2025-06-12T07:53:13Z</time>
      </trkpt>
      <trkpt lat="44.62474" lon="6.15291">
        <ele>1284.8</ele>
        <time>2025-06-12T07:53:14Z</time>
      </trkpt>
      <trkpt lat="44.62474" lon="6.15296">
        <ele>1285</ele>
        <time>2025-06-12T07:53:15Z</time>
      </trkpt>
      <trkpt lat="44.62474" lon="6.15301">
        <ele>1285</ele>
        <time>2025-06-12T07:53:16Z</time>
      </trkpt>
      <trkpt lat="44.62475" lon="6.15306">
        <ele>1285.2</ele>
        <time>2025-06-12T07:53:17Z</time>
      </trkpt>
      <trkpt lat="44.62475" lon="6.15312">
        <ele>1285.2</ele>
        <time>2025-06-12T07:53:18Z</time>
      </trkpt>
      <trkpt lat="44.62475" lon="6.15317">
        <ele>1285.4</ele>
        <time>2025-06-12T07:53:19Z</time>
      </trkpt>
      <trkpt lat="44.62475" lon="6.15322">
        <ele>1285.4</ele>
        <time>2025-06-12T07:53:20Z</time>
      </trkpt>
      <trkpt lat="44.62475" lon="6.15327">
        <ele>1285.4</ele>
        <time>2025-06-12T07:53:21Z</time>
      </trkpt>
      <trkpt lat="44.62476" lon="6.15332">
        <ele>1285.6</ele>
        <time>2025-06-12T07:53:22Z</time>
      </trkpt>
      <trkpt lat="44.62476" lon="6.15343">
        <ele>1285.6</ele>
        <time>2025-06-12T07:53:24Z</time>
      </trkpt>
      <trkpt lat="44.62476" lon="6.15347">
        <ele>1285.8</ele>
        <time>2025-06-12T07:53:25Z</time>
      </trkpt>
      <trkpt lat="44.62475" lon="6.15352">
        <ele>1285.8</ele>
        <time>2025-06-12T07:53:26Z</time>
      </trkpt>
      <trkpt lat="44.62474" lon="6.15362">
        <ele>1286</ele>
        <time>2025-06-12T07:53:28Z</time>
      </trkpt>
      <trkpt lat="44.62474" lon="6.15367">
        <ele>1286.2</ele>
        <time>2025-06-12T07:53:29Z</time>
      </trkpt>
      <trkpt lat="44.62473" lon="6.15372">
        <ele>1286</ele>
        <time>2025-06-12T07:53:30Z</time>
      </trkpt>
      <trkpt lat="44.62472" lon="6.15377">
        <ele>1286.2</ele>
        <time>2025-06-12T07:53:31Z</time>
      </trkpt>
      <trkpt lat="44.6247" lon="6.15381">
        <ele>1286.4</ele>
        <time>2025-06-12T07:53:32Z</time>
      </trkpt>
      <trkpt lat="44.62469" lon="6.15386">
        <ele>1286.6</ele>
        <time>2025-06-12T07:53:33Z</time>
      </trkpt>
      <trkpt lat="44.62467" lon="6.1539">
        <ele>1286.8</ele>
        <time>2025-06-12T07:53:34Z</time>
      </trkpt>
      <trkpt lat="44.62465" lon="6.15394">
        <ele>1286.8</ele>
        <time>2025-06-12T07:53:35Z</time>
      </trkpt>
      <trkpt lat="44.62462" lon="6.15399">
        <ele>1287.2</ele>
        <time>2025-06-12T07:53:36Z</time>
      </trkpt>
      <trkpt lat="44.6246" lon="6.15403">
        <ele>1287.2</ele>
        <time>2025-06-12T07:53:37Z</time>
      </trkpt>
      <trkpt lat="44.62457" lon="6.15408">
        <ele>1287.6</ele>
        <time>2025-06-12T07:53:38Z</time>
      </trkpt>
      <trkpt lat="44.62454" lon="6.15414">
        <ele>1287.6</ele>
        <time>2025-06-12T07:53:39Z</time>
      </trkpt>
      <trkpt lat="44.62448" lon="6.15426">
        <ele>1287.8</ele>
        <time>2025-06-12T07:53:41Z</time>
      </trkpt>
      <trkpt lat="44.62445" lon="6.15433">
        <ele>1287.8</ele>
        <time>2025-06-12T07:53:42Z</time>
      </trkpt>
      <trkpt lat="44.62441" lon="6.15439">
        <ele>1287.8</ele>
        <time>2025-06-12T07:53:43Z</time>
      </trkpt>
      <trkpt lat="44.62438" lon="6.15446">
        <ele>1287.8</ele>
        <time>2025-06-12T07:53:44Z</time>
      </trkpt>
      <trkpt lat="44.62434" lon="6.15453">
        <ele>1287.8</ele>
        <time>2025-06-12T07:53:45Z</time>
      </trkpt>
      <trkpt lat="44.62431" lon="6.1546">
        <ele>1287.8</ele>
        <time>2025-06-12T07:53:46Z</time>
      </trkpt>
      <trkpt lat="44.62428" lon="6.15467">
        <ele>1287.8</ele>
        <time>2025-06-12T07:53:47Z</time>
      </trkpt>
      <trkpt lat="44.62425" lon="6.15474">
        <ele>1287.6</ele>
        <time>2025-06-12T07:53:48Z</time>
      </trkpt>
      <trkpt lat="44.62418" lon="6.15488">
        <ele>1287</ele>
        <time>2025-06-12T07:53:50Z</time>
      </trkpt>
      <trkpt lat="44.62412" lon="6.15502">
        <ele>1286.6</ele>
        <time>2025-06-12T07:53:52Z</time>
      </trkpt>
      <trkpt lat="44.62409" lon="6.15508">
        <ele>1286.4</ele>
        <time>2025-06-12T07:53:53Z</time>
      </trkpt>
      <trkpt lat="44.62406" lon="6.15515">
        <ele>1286.4</ele>
        <time>2025-06-12T07:53:54Z</time>
      </trkpt>
      <trkpt lat="44.62402" lon="6.15522">
        <ele>1286.2</ele>
        <time>2025-06-12T07:53:55Z</time>
      </trkpt>
      <trkpt lat="44.62399" lon="6.15529">
        <ele>1286.2</ele>
        <time>2025-06-12T07:53:56Z</time>
      </trkpt>
      <trkpt lat="44.62396" lon="6.15535">
        <ele>1286.2</ele>
        <time>2025-06-12T07:53:57Z</time>
      </trkpt>
      <trkpt lat="44.62392" lon="6.15542">
        <ele>1286.2</ele>
        <time>2025-06-12T07:53:58Z</time>
      </trkpt>
      <trkpt lat="44.62389" lon="6.15549">
        <ele>1286</ele>
        <time>2025-06-12T07:53:59Z</time>
      </trkpt>
      <trkpt lat="44.62384" lon="6.15562">
        <ele>1286</ele>
        <time>2025-06-12T07:54:01Z</time>
      </trkpt>
      <trkpt lat="44.62379" lon="6.15575">
        <ele>1286</ele>
        <time>2025-06-12T07:54:03Z</time>
      </trkpt>
      <trkpt lat="44.62376" lon="6.15587">
        <ele>1286</ele>
        <time>2025-06-12T07:54:05Z</time>
      </trkpt>
      <trkpt lat="44.62373" lon="6.156">
        <ele>1286</ele>
        <time>2025-06-12T07:54:07Z</time>
      </trkpt>
      <trkpt lat="44.62371" lon="6.15612">
        <ele>1286.4</ele>
        <time>2025-06-12T07:54:09Z</time>
      </trkpt>
      <trkpt lat="44.62368" lon="6.15623">
        <ele>1286.8</ele>
        <time>2025-06-12T07:54:11Z</time>
      </trkpt>
      <trkpt lat="44.62367" lon="6.15628">
        <ele>1287</ele>
        <time>2025-06-12T07:54:12Z</time>
      </trkpt>
      <trkpt lat="44.62366" lon="6.15634">
        <ele>1287.4</ele>
        <time>2025-06-12T07:54:13Z</time>
      </trkpt>
      <trkpt lat="44.62366" lon="6.15639">
        <ele>1287.8</ele>
        <time>2025-06-12T07:54:14Z</time>
      </trkpt>
      <trkpt lat="44.62365" lon="6.15645">
        <ele>1288.2</ele>
        <time>2025-06-12T07:54:15Z</time>
      </trkpt>
      <trkpt lat="44.62365" lon="6.1565">
        <ele>1288.4</ele>
        <time>2025-06-12T07:54:16Z</time>
      </trkpt>
      <trkpt lat="44.62364" lon="6.15656">
        <ele>1288.4</ele>
        <time>2025-06-12T07:54:17Z</time>
      </trkpt>
      <trkpt lat="44.62363" lon="6.15661">
        <ele>1288.6</ele>
        <time>2025-06-12T07:54:18Z</time>
      </trkpt>
      <trkpt lat="44.62363" lon="6.15666">
        <ele>1288.8</ele>
        <time>2025-06-12T07:54:19Z</time>
      </trkpt>
      <trkpt lat="44.62363" lon="6.15671">
        <ele>1289</ele>
        <time>2025-06-12T07:54:20Z</time>
      </trkpt>
      <trkpt lat="44.62362" lon="6.15676">
        <ele>1289.2</ele>
        <time>2025-06-12T07:54:21Z</time>
      </trkpt>
      <trkpt lat="44.62362" lon="6.15681">
        <ele>1289.4</ele>
        <time>2025-06-12T07:54:22Z</time>
      </trkpt>
      <trkpt lat="44.62361" lon="6.15686">
        <ele>1289.6</ele>
        <time>2025-06-12T07:54:23Z</time>
      </trkpt>
      <trkpt lat="44.62361" lon="6.15691">
        <ele>1289.8</ele>
        <time>2025-06-12T07:54:24Z</time>
      </trkpt>
      <trkpt lat="44.62359" lon="6.15701">
        <ele>1290.2</ele>
        <time>2025-06-12T07:54:26Z</time>
      </trkpt>
      <trkpt lat="44.62357" lon="6.15711">
        <ele>1290.6</ele>
        <time>2025-06-12T07:54:28Z</time>
      </trkpt>
      <trkpt lat="44.62356" lon="6.15716">
        <ele>1291</ele>
        <time>2025-06-12T07:54:29Z</time>
      </trkpt>
      <trkpt lat="44.62354" lon="6.15721">
        <ele>1291.2</ele>
        <time>2025-06-12T07:54:30Z</time>
      </trkpt>
      <trkpt lat="44.62351" lon="6.1573">
        <ele>1291.6</ele>
        <time>2025-06-12T07:54:32Z</time>
      </trkpt>
      <trkpt lat="44.6235" lon="6.15735">
        <ele>1291.8</ele>
        <time>2025-06-12T07:54:33Z</time>
      </trkpt>
      <trkpt lat="44.62348" lon="6.15739">
        <ele>1292</ele>
        <time>2025-06-12T07:54:34Z</time>
      </trkpt>
      <trkpt lat="44.62346" lon="6.15744">
        <ele>1292.4</ele>
        <time>2025-06-12T07:54:35Z</time>
      </trkpt>
      <trkpt lat="44.62344" lon="6.15749">
        <ele>1292.4</ele>
        <time>2025-06-12T07:54:36Z</time>
      </trkpt>
      <trkpt lat="44.62343" lon="6.15754">
        <ele>1292.8</ele>
        <time>2025-06-12T07:54:37Z</time>
      </trkpt>
      <trkpt lat="44.62341" lon="6.15759">
        <ele>1292.8</ele>
        <time>2025-06-12T07:54:38Z</time>
      </trkpt>
      <trkpt lat="44.62339" lon="6.15763">
        <ele>1293</ele>
        <time>2025-06-12T07:54:39Z</time>
      </trkpt>
      <trkpt lat="44.62338" lon="6.15768">
        <ele>1293.2</ele>
        <time>2025-06-12T07:54:40Z</time>
      </trkpt>
      <trkpt lat="44.62336" lon="6.15773">
        <ele>1293.2</ele>
        <time>2025-06-12T07:54:41Z</time>
      </trkpt>
      <trkpt lat="44.62334" lon="6.15778">
        <ele>1293.2</ele>
        <time>2025-06-12T07:54:42Z</time>
      </trkpt>
      <trkpt lat="44.62333" lon="6.15783">
        <ele>1293.2</ele>
        <time>2025-06-12T07:54:43Z</time>
      </trkpt>
      <trkpt lat="44.62331" lon="6.15788">
        <ele>1293.4</ele>
        <time>2025-06-12T07:54:44Z</time>
      </trkpt>
      <trkpt lat="44.6233" lon="6.15793">
        <ele>1293.4</ele>
        <time>2025-06-12T07:54:45Z</time>
      </trkpt>
      <trkpt lat="44.62329" lon="6.15798">
        <ele>1293.6</ele>
        <time>2025-06-12T07:54:46Z</time>
      </trkpt>
      <trkpt lat="44.62328" lon="6.15803">
        <ele>1293.8</ele>
        <time>2025-06-12T07:54:47Z</time>
      </trkpt>
      <trkpt lat="44.62328" lon="6.15808">
        <ele>1293.8</ele>
        <time>2025-06-12T07:54:48Z</time>
      </trkpt>
      <trkpt lat="44.62328" lon="6.15814">
        <ele>1293.8</ele>
        <time>2025-06-12T07:54:49Z</time>
      </trkpt>
      <trkpt lat="44.62328" lon="6.15819">
        <ele>1293.8</ele>
        <time>2025-06-12T07:54:50Z</time>
      </trkpt>
      <trkpt lat="44.62328" lon="6.15824">
        <ele>1294</ele>
        <time>2025-06-12T07:54:51Z</time>
      </trkpt>
      <trkpt lat="44.62328" lon="6.15829">
        <ele>1294.2</ele>
        <time>2025-06-12T07:54:52Z</time>
      </trkpt>
      <trkpt lat="44.62329" lon="6.15835">
        <ele>1294.4</ele>
        <time>2025-06-12T07:54:53Z</time>
      </trkpt>
      <trkpt lat="44.62329" lon="6.1584">
        <ele>1294.4</ele>
        <time>2025-06-12T07:54:54Z</time>
      </trkpt>
      <trkpt lat="44.6233" lon="6.15845">
        <ele>1294.6</ele>
        <time>2025-06-12T07:54:55Z</time>
      </trkpt>
      <trkpt lat="44.62331" lon="6.1585">
        <ele>1294.6</ele>
        <time>2025-06-12T07:54:56Z</time>
      </trkpt>
      <trkpt lat="44.62332" lon="6.15855">
        <ele>1294.8</ele>
        <time>2025-06-12T07:54:57Z</time>
      </trkpt>
      <trkpt lat="44.62335" lon="6.15865">
        <ele>1295.2</ele>
        <time>2025-06-12T07:54:59Z</time>
      </trkpt>
      <trkpt lat="44.62337" lon="6.15874">
        <ele>1295.6</ele>
        <time>2025-06-12T07:55:01Z</time>
      </trkpt>
      <trkpt lat="44.62339" lon="6.15885">
        <ele>1295.8</ele>
        <time>2025-06-12T07:55:03Z</time>
      </trkpt>
      <trkpt lat="44.62341" lon="6.1589">
        <ele>1296.2</ele>
        <time>2025-06-12T07:55:04Z</time>
      </trkpt>
      <trkpt lat="44.62342" lon="6.15895">
        <ele>1296.2</ele>
        <time>2025-06-12T07:55:05Z</time>
      </trkpt>
      <trkpt lat="44.62344" lon="6.15905">
        <ele>1296.4</ele>
        <time>2025-06-12T07:55:07Z</time>
      </trkpt>
      <trkpt lat="44.62347" lon="6.15915">
        <ele>1296.8</ele>
        <time>2025-06-12T07:55:09Z</time>
      </trkpt>
      <trkpt lat="44.62349" lon="6.15925">
        <ele>1297</ele>
        <time>2025-06-12T07:55:11Z</time>
      </trkpt>
      <trkpt lat="44.62351" lon="6.15935">
        <ele>1297.4</ele>
        <time>2025-06-12T07:55:13Z</time>
      </trkpt>
      <trkpt lat="44.62352" lon="6.1594">
        <ele>1297.4</ele>
        <time>2025-06-12T07:55:14Z</time>
      </trkpt>
      <trkpt lat="44.62353" lon="6.15945">
        <ele>1297.6</ele>
        <time>2025-06-12T07:55:15Z</time>
      </trkpt>
      <trkpt lat="44.62354" lon="6.15956">
        <ele>1298</ele>
        <time>2025-06-12T07:55:17Z</time>
      </trkpt>
      <trkpt lat="44.62356" lon="6.15966">
        <ele>1298.4</ele>
        <time>2025-06-12T07:55:19Z</time>
      </trkpt>
      <trkpt lat="44.62357" lon="6.15971">
        <ele>1298.4</ele>
        <time>2025-06-12T07:55:20Z</time>
      </trkpt>
      <trkpt lat="44.62358" lon="6.15976">
        <ele>1298.6</ele>
        <time>2025-06-12T07:55:21Z</time>
      </trkpt>
      <trkpt lat="44.62359" lon="6.15981">
        <ele>1298.8</ele>
        <time>2025-06-12T07:55:22Z</time>
      </trkpt>
      <trkpt lat="44.6236" lon="6.15986">
        <ele>1299</ele>
        <time>2025-06-12T07:55:23Z</time>
      </trkpt>
      <trkpt lat="44.62361" lon="6.15991">
        <ele>1299.2</ele>
        <time>2025-06-12T07:55:24Z</time>
      </trkpt>
      <trkpt lat="44.62361" lon="6.15996">
        <ele>1299.4</ele>
        <time>2025-06-12T07:55:25Z</time>
      </trkpt>
      <trkpt lat="44.62362" lon="6.16">
        <ele>1299.6</ele>
        <time>2025-06-12T07:55:26Z</time>
      </trkpt>
      <trkpt lat="44.62363" lon="6.16005">
        <ele>1299.8</ele>
        <time>2025-06-12T07:55:27Z</time>
      </trkpt>
      <trkpt lat="44.62365" lon="6.1601">
        <ele>1300</ele>
        <time>2025-06-12T07:55:28Z</time>
      </trkpt>
      <trkpt lat="44.62366" lon="6.16014">
        <ele>1300</ele>
        <time>2025-06-12T07:55:29Z</time>
      </trkpt>
      <trkpt lat="44.62367" lon="6.16018">
        <ele>1300.2</ele>
        <time>2025-06-12T07:55:30Z</time>
      </trkpt>
      <trkpt lat="44.62369" lon="6.16023">
        <ele>1300.4</ele>
        <time>2025-06-12T07:55:31Z</time>
      </trkpt>
      <trkpt lat="44.6237" lon="6.16027">
        <ele>1300.6</ele>
        <time>2025-06-12T07:55:32Z</time>
      </trkpt>
      <trkpt lat="44.62372" lon="6.16032">
        <ele>1300.8</ele>
        <time>2025-06-12T07:55:33Z</time>
      </trkpt>
      <trkpt lat="44.62373" lon="6.16037">
        <ele>1301</ele>
        <time>2025-06-12T07:55:34Z</time>
      </trkpt>
      <trkpt lat="44.62375" lon="6.16041">
        <ele>1301.2</ele>
        <time>2025-06-12T07:55:35Z</time>
      </trkpt>
      <trkpt lat="44.62377" lon="6.16045">
        <ele>1301.4</ele>
        <time>2025-06-12T07:55:36Z</time>
      </trkpt>
      <trkpt lat="44.62379" lon="6.16049">
        <ele>1301.6</ele>
        <time>2025-06-12T07:55:37Z</time>
      </trkpt>
      <trkpt lat="44.6238" lon="6.16053">
        <ele>1301.8</ele>
        <time>2025-06-12T07:55:38Z</time>
      </trkpt>
      <trkpt lat="44.62384" lon="6.16062">
        <ele>1302</ele>
        <time>2025-06-12T07:55:40Z</time>
      </trkpt>
      <trkpt lat="44.62386" lon="6.16067">
        <ele>1302.2</ele>
        <time>2025-06-12T07:55:41Z</time>
      </trkpt>
      <trkpt lat="44.62387" lon="6.16071">
        <ele>1302.2</ele>
        <time>2025-06-12T07:55:42Z</time>
      </trkpt>
      <trkpt lat="44.6239" lon="6.1608">
        <ele>1302.6</ele>
        <time>2025-06-12T07:55:44Z</time>
      </trkpt>
      <trkpt lat="44.62392" lon="6.1609">
        <ele>1303</ele>
        <time>2025-06-12T07:55:46Z</time>
      </trkpt>
      <trkpt lat="44.62392" lon="6.16095">
        <ele>1303</ele>
        <time>2025-06-12T07:55:47Z</time>
      </trkpt>
      <trkpt lat="44.62392" lon="6.161">
        <ele>1303.2</ele>
        <time>2025-06-12T07:55:48Z</time>
      </trkpt>
      <trkpt lat="44.6239" lon="6.1611">
        <ele>1303.4</ele>
        <time>2025-06-12T07:55:50Z</time>
      </trkpt>
      <trkpt lat="44.62388" lon="6.16114">
        <ele>1303.6</ele>
        <time>2025-06-12T07:55:51Z</time>
      </trkpt>
      <trkpt lat="44.62386" lon="6.16117">
        <ele>1303.8</ele>
        <time>2025-06-12T07:55:52Z</time>
      </trkpt>
      <trkpt lat="44.6238" lon="6.16123">
        <ele>1304.2</ele>
        <time>2025-06-12T07:55:54Z</time>
      </trkpt>
      <trkpt lat="44.62374" lon="6.16126">
        <ele>1304.6</ele>
        <time>2025-06-12T07:55:56Z</time>
      </trkpt>
      <trkpt lat="44.62371" lon="6.16127">
        <ele>1304.8</ele>
        <time>2025-06-12T07:55:57Z</time>
      </trkpt>
      <trkpt lat="44.62367" lon="6.16127">
        <ele>1305</ele>
        <time>2025-06-12T07:55:58Z</time>
      </trkpt>
      <trkpt lat="44.62364" lon="6.16127">
        <ele>1305.4</ele>
        <time>2025-06-12T07:55:59Z</time>
      </trkpt>
      <trkpt lat="44.6236" lon="6.16126">
        <ele>1306</ele>
        <time>2025-06-12T07:56:00Z</time>
      </trkpt>
      <trkpt lat="44.62356" lon="6.16125">
        <ele>1306.4</ele>
        <time>2025-06-12T07:56:01Z</time>
      </trkpt>
      <trkpt lat="44.62352" lon="6.16124">
        <ele>1306.4</ele>
        <time>2025-06-12T07:56:02Z</time>
      </trkpt>
      <trkpt lat="44.62347" lon="6.16124">
        <ele>1306.6</ele>
        <time>2025-06-12T07:56:03Z</time>
      </trkpt>
      <trkpt lat="44.62339" lon="6.16123">
        <ele>1306.8</ele>
        <time>2025-06-12T07:56:05Z</time>
      </trkpt>
      <trkpt lat="44.62329" lon="6.16121">
        <ele>1306.8</ele>
        <time>2025-06-12T07:56:07Z</time>
      </trkpt>
      <trkpt lat="44.62324" lon="6.16121">
        <ele>1306.8</ele>
        <time>2025-06-12T07:56:08Z</time>
      </trkpt>
      <trkpt lat="44.62319" lon="6.1612">
        <ele>1306.8</ele>
        <time>2025-06-12T07:56:09Z</time>
      </trkpt>
      <trkpt lat="44.62314" lon="6.16119">
        <ele>1306.8</ele>
        <time>2025-06-12T07:56:10Z</time>
      </trkpt>
      <trkpt lat="44.62309" lon="6.16119">
        <ele>1306.8</ele>
        <time>2025-06-12T07:56:11Z</time>
      </trkpt>
      <trkpt lat="44.62304" lon="6.1612">
        <ele>1306.8</ele>
        <time>2025-06-12T07:56:12Z</time>
      </trkpt>
      <trkpt lat="44.62294" lon="6.1612">
        <ele>1306.6</ele>
        <time>2025-06-12T07:56:14Z</time>
      </trkpt>
      <trkpt lat="44.62283" lon="6.16121">
        <ele>1306.4</ele>
        <time>2025-06-12T07:56:16Z</time>
      </trkpt>
      <trkpt lat="44.62273" lon="6.16121">
        <ele>1306</ele>
        <time>2025-06-12T07:56:18Z</time>
      </trkpt>
      <trkpt lat="44.62268" lon="6.16122">
        <ele>1306</ele>
        <time>2025-06-12T07:56:19Z</time>
      </trkpt>
      <trkpt lat="44.62262" lon="6.16123">
        <ele>1305.8</ele>
        <time>2025-06-12T07:56:20Z</time>
      </trkpt>
      <trkpt lat="44.62257" lon="6.16125">
        <ele>1305.8</ele>
        <time>2025-06-12T07:56:21Z</time>
      </trkpt>
      <trkpt lat="44.62252" lon="6.16128">
        <ele>1305.8</ele>
        <time>2025-06-12T07:56:22Z</time>
      </trkpt>
      <trkpt lat="44.62247" lon="6.16132">
        <ele>1305.6</ele>
        <time>2025-06-12T07:56:23Z</time>
      </trkpt>
      <trkpt lat="44.62243" lon="6.16138">
        <ele>1305.6</ele>
        <time>2025-06-12T07:56:24Z</time>
      </trkpt>
      <trkpt lat="44.6224" lon="6.16146">
        <ele>1305.4</ele>
        <time>2025-06-12T07:56:25Z</time>
      </trkpt>
      <trkpt lat="44.62237" lon="6.16154">
        <ele>1305.4</ele>
        <time>2025-06-12T07:56:26Z</time>
      </trkpt>
      <trkpt lat="44.62236" lon="6.16163">
        <ele>1305.4</ele>
        <time>2025-06-12T07:56:27Z</time>
      </trkpt>
      <trkpt lat="44.62236" lon="6.16172">
        <ele>1305.2</ele>
        <time>2025-06-12T07:56:28Z</time>
      </trkpt>
      <trkpt lat="44.62236" lon="6.16181">
        <ele>1305</ele>
        <time>2025-06-12T07:56:29Z</time>
      </trkpt>
      <trkpt lat="44.62237" lon="6.1619">
        <ele>1305</ele>
        <time>2025-06-12T07:56:30Z</time>
      </trkpt>
      <trkpt lat="44.62238" lon="6.16198">
        <ele>1304.8</ele>
        <time>2025-06-12T07:56:31Z</time>
      </trkpt>
      <trkpt lat="44.62239" lon="6.16206">
        <ele>1304.8</ele>
        <time>2025-06-12T07:56:32Z</time>
      </trkpt>
      <trkpt lat="44.6224" lon="6.16214">
        <ele>1304.6</ele>
        <time>2025-06-12T07:56:33Z</time>
      </trkpt>
      <trkpt lat="44.62242" lon="6.16222">
        <ele>1304.6</ele>
        <time>2025-06-12T07:56:34Z</time>
      </trkpt>
      <trkpt lat="44.62245" lon="6.16236">
        <ele>1304.6</ele>
        <time>2025-06-12T07:56:36Z</time>
      </trkpt>
      <trkpt lat="44.62247" lon="6.16252">
        <ele>1304.6</ele>
        <time>2025-06-12T07:56:38Z</time>
      </trkpt>
      <trkpt lat="44.62249" lon="6.16259">
        <ele>1304.6</ele>
        <time>2025-06-12T07:56:39Z</time>
      </trkpt>
      <trkpt lat="44.6225" lon="6.16267">
        <ele>1304.6</ele>
        <time>2025-06-12T07:56:40Z</time>
      </trkpt>
      <trkpt lat="44.62252" lon="6.16275">
        <ele>1304.8</ele>
        <time>2025-06-12T07:56:41Z</time>
      </trkpt>
      <trkpt lat="44.62253" lon="6.16282">
        <ele>1305</ele>
        <time>2025-06-12T07:56:42Z</time>
      </trkpt>
      <trkpt lat="44.62254" lon="6.1629">
        <ele>1305.2</ele>
        <time>2025-06-12T07:56:43Z</time>
      </trkpt>
      <trkpt lat="44.62255" lon="6.16297">
        <ele>1305.4</ele>
        <time>2025-06-12T07:56:44Z</time>
      </trkpt>
      <trkpt lat="44.62255" lon="6.16305">
        <ele>1305.6</ele>
        <time>2025-06-12T07:56:45Z</time>
      </trkpt>
      <trkpt lat="44.62257" lon="6.1632">
        <ele>1306</ele>
        <time>2025-06-12T07:56:47Z</time>
      </trkpt>
      <trkpt lat="44.62258" lon="6.16327">
        <ele>1306.2</ele>
        <time>2025-06-12T07:56:48Z</time>
      </trkpt>
      <trkpt lat="44.62259" lon="6.16334">
        <ele>1306.4</ele>
        <time>2025-06-12T07:56:49Z</time>
      </trkpt>
      <trkpt lat="44.62261" lon="6.16349">
        <ele>1306.4</ele>
        <time>2025-06-12T07:56:51Z</time>
      </trkpt>
      <trkpt lat="44.62263" lon="6.16363">
        <ele>1306.4</ele>
        <time>2025-06-12T07:56:53Z</time>
      </trkpt>
      <trkpt lat="44.62264" lon="6.1637">
        <ele>1306.6</ele>
        <time>2025-06-12T07:56:54Z</time>
      </trkpt>
      <trkpt lat="44.62265" lon="6.16378">
        <ele>1306.6</ele>
        <time>2025-06-12T07:56:55Z</time>
      </trkpt>
      <trkpt lat="44.62267" lon="6.16385">
        <ele>1306.8</ele>
        <time>2025-06-12T07:56:56Z</time>
      </trkpt>
      <trkpt lat="44.62268" lon="6.16393">
        <ele>1306.8</ele>
        <time>2025-06-12T07:56:57Z</time>
      </trkpt>
      <trkpt lat="44.6227" lon="6.164">
        <ele>1306.8</ele>
        <time>2025-06-12T07:56:58Z</time>
      </trkpt>
      <trkpt lat="44.62271" lon="6.16408">
        <ele>1306.8</ele>
        <time>2025-06-12T07:56:59Z</time>
      </trkpt>
      <trkpt lat="44.62272" lon="6.16416">
        <ele>1306.8</ele>
        <time>2025-06-12T07:57:00Z</time>
      </trkpt>
      <trkpt lat="44.62273" lon="6.16424">
        <ele>1306.6</ele>
        <time>2025-06-12T07:57:01Z</time>
      </trkpt>
      <trkpt lat="44.62274" lon="6.16432">
        <ele>1306.4</ele>
        <time>2025-06-12T07:57:02Z</time>
      </trkpt>
      <trkpt lat="44.62275" lon="6.1644">
        <ele>1306.4</ele>
        <time>2025-06-12T07:57:03Z</time>
      </trkpt>
      <trkpt lat="44.62277" lon="6.16448">
        <ele>1306.6</ele>
        <time>2025-06-12T07:57:04Z</time>
      </trkpt>
      <trkpt lat="44.62279" lon="6.16464">
        <ele>1306.4</ele>
        <time>2025-06-12T07:57:06Z</time>
      </trkpt>
      <trkpt lat="44.62281" lon="6.1648">
        <ele>1306.2</ele>
        <time>2025-06-12T07:57:08Z</time>
      </trkpt>
      <trkpt lat="44.62282" lon="6.16488">
        <ele>1306.2</ele>
        <time>2025-06-12T07:57:09Z</time>
      </trkpt>
      <trkpt lat="44.62284" lon="6.16496">
        <ele>1306.2</ele>
        <time>2025-06-12T07:57:10Z</time>
      </trkpt>
      <trkpt lat="44.62285" lon="6.16503">
        <ele>1306.2</ele>
        <time>2025-06-12T07:57:11Z</time>
      </trkpt>
      <trkpt lat="44.62287" lon="6.16511">
        <ele>1306.2</ele>
        <time>2025-06-12T07:57:12Z</time>
      </trkpt>
      <trkpt lat="44.62288" lon="6.16518">
        <ele>1306.2</ele>
        <time>2025-06-12T07:57:13Z</time>
      </trkpt>
      <trkpt lat="44.62289" lon="6.16526">
        <ele>1306.2</ele>
        <time>2025-06-12T07:57:14Z</time>
      </trkpt>
      <trkpt lat="44.6229" lon="6.16533">
        <ele>1306.2</ele>
        <time>2025-06-12T07:57:15Z</time>
      </trkpt>
      <trkpt lat="44.62291" lon="6.16541">
        <ele>1306.2</ele>
        <time>2025-06-12T07:57:16Z</time>
      </trkpt>
      <trkpt lat="44.62292" lon="6.16548">
        <ele>1306.2</ele>
        <time>2025-06-12T07:57:17Z</time>
      </trkpt>
      <trkpt lat="44.62293" lon="6.16555">
        <ele>1306.2</ele>
        <time>2025-06-12T07:57:18Z</time>
      </trkpt>
      <trkpt lat="44.62294" lon="6.16562">
        <ele>1306.4</ele>
        <time>2025-06-12T07:57:19Z</time>
      </trkpt>
      <trkpt lat="44.62297" lon="6.16576">
        <ele>1306.6</ele>
        <time>2025-06-12T07:57:21Z</time>
      </trkpt>
      <trkpt lat="44.62299" lon="6.1659">
        <ele>1306.8</ele>
        <time>2025-06-12T07:57:23Z</time>
      </trkpt>
      <trkpt lat="44.623" lon="6.16603">
        <ele>1307</ele>
        <time>2025-06-12T07:57:25Z</time>
      </trkpt>
      <trkpt lat="44.62303" lon="6.16617">
        <ele>1307.2</ele>
        <time>2025-06-12T07:57:27Z</time>
      </trkpt>
      <trkpt lat="44.62304" lon="6.16624">
        <ele>1307.4</ele>
        <time>2025-06-12T07:57:28Z</time>
      </trkpt>
      <trkpt lat="44.62305" lon="6.1663">
        <ele>1307.4</ele>
        <time>2025-06-12T07:57:29Z</time>
      </trkpt>
      <trkpt lat="44.62307" lon="6.16637">
        <ele>1307.2</ele>
        <time>2025-06-12T07:57:30Z</time>
      </trkpt>
      <trkpt lat="44.62308" lon="6.16644">
        <ele>1307.4</ele>
        <time>2025-06-12T07:57:31Z</time>
      </trkpt>
      <trkpt lat="44.62309" lon="6.16652">
        <ele>1307.6</ele>
        <time>2025-06-12T07:57:32Z</time>
      </trkpt>
      <trkpt lat="44.6231" lon="6.16659">
        <ele>1307.8</ele>
        <time>2025-06-12T07:57:33Z</time>
      </trkpt>
      <trkpt lat="44.62311" lon="6.16666">
        <ele>1308</ele>
        <time>2025-06-12T07:57:34Z</time>
      </trkpt>
      <trkpt lat="44.62313" lon="6.16681">
        <ele>1308</ele>
        <time>2025-06-12T07:57:36Z</time>
      </trkpt>
      <trkpt lat="44.62316" lon="6.16696">
        <ele>1308.2</ele>
        <time>2025-06-12T07:57:38Z</time>
      </trkpt>
      <trkpt lat="44.62316" lon="6.16703">
        <ele>1308.2</ele>
        <time>2025-06-12T07:57:39Z</time>
      </trkpt>
      <trkpt lat="44.62317" lon="6.16711">
        <ele>1308.2</ele>
        <time>2025-06-12T07:57:40Z</time>
      </trkpt>
      <trkpt lat="44.62318" lon="6.16728">
        <ele>1308.2</ele>
        <time>2025-06-12T07:57:42Z</time>
      </trkpt>
      <trkpt lat="44.62317" lon="6.16736">
        <ele>1308.2</ele>
        <time>2025-06-12T07:57:43Z</time>
      </trkpt>
      <trkpt lat="44.62317" lon="6.16745">
        <ele>1308.2</ele>
        <time>2025-06-12T07:57:44Z</time>
      </trkpt>
      <trkpt lat="44.62315" lon="6.16754">
        <ele>1308.2</ele>
        <time>2025-06-12T07:57:45Z</time>
      </trkpt>
      <trkpt lat="44.62313" lon="6.16763">
        <ele>1308.2</ele>
        <time>2025-06-12T07:57:46Z</time>
      </trkpt>
      <trkpt lat="44.62311" lon="6.16771">
        <ele>1308</ele>
        <time>2025-06-12T07:57:47Z</time>
      </trkpt>
      <trkpt lat="44.62309" lon="6.1678">
        <ele>1308</ele>
        <time>2025-06-12T07:57:48Z</time>
      </trkpt>
      <trkpt lat="44.62306" lon="6.16788">
        <ele>1307.8</ele>
        <time>2025-06-12T07:57:49Z</time>
      </trkpt>
      <trkpt lat="44.62303" lon="6.16797">
        <ele>1307.4</ele>
        <time>2025-06-12T07:57:50Z</time>
      </trkpt>
      <trkpt lat="44.623" lon="6.16805">
        <ele>1307</ele>
        <time>2025-06-12T07:57:51Z</time>
      </trkpt>
      <trkpt lat="44.62296" lon="6.16814">
        <ele>1306.6</ele>
        <time>2025-06-12T07:57:52Z</time>
      </trkpt>
      <trkpt lat="44.62293" lon="6.16823">
        <ele>1306.2</ele>
        <time>2025-06-12T07:57:53Z</time>
      </trkpt>
      <trkpt lat="44.62286" lon="6.16841">
        <ele>1305.8</ele>
        <time>2025-06-12T07:57:55Z</time>
      </trkpt>
      <trkpt lat="44.62282" lon="6.16851">
        <ele>1305.4</ele>
        <time>2025-06-12T07:57:56Z</time>
      </trkpt>
      <trkpt lat="44.62278" lon="6.16861">
        <ele>1305.2</ele>
        <time>2025-06-12T07:57:57Z</time>
      </trkpt>
      <trkpt lat="44.6227" lon="6.16881">
        <ele>1305</ele>
        <time>2025-06-12T07:57:59Z</time>
      </trkpt>
      <trkpt lat="44.6226" lon="6.16901">
        <ele>1304.4</ele>
        <time>2025-06-12T07:58:01Z</time>
      </trkpt>
      <trkpt lat="44.62255" lon="6.16911">
        <ele>1304</ele>
        <time>2025-06-12T07:58:02Z</time>
      </trkpt>
      <trkpt lat="44.62249" lon="6.16921">
        <ele>1303.6</ele>
        <time>2025-06-12T07:58:03Z</time>
      </trkpt>
      <trkpt lat="44.62242" lon="6.16931">
        <ele>1303</ele>
        <time>2025-06-12T07:58:04Z</time>
      </trkpt>
      <trkpt lat="44.62236" lon="6.1694">
        <ele>1302.8</ele>
        <time>2025-06-12T07:58:05Z</time>
      </trkpt>
      <trkpt lat="44.62229" lon="6.16949">
        <ele>1302.4</ele>
        <time>2025-06-12T07:58:06Z</time>
      </trkpt>
      <trkpt lat="44.62222" lon="6.16958">
        <ele>1301.8</ele>
        <time>2025-06-12T07:58:07Z</time>
      </trkpt>
      <trkpt lat="44.62215" lon="6.16967">
        <ele>1301.2</ele>
        <time>2025-06-12T07:58:08Z</time>
      </trkpt>
      <trkpt lat="44.62208" lon="6.16976">
        <ele>1300.6</ele>
        <time>2025-06-12T07:58:09Z</time>
      </trkpt>
      <trkpt lat="44.62201" lon="6.16984">
        <ele>1300</ele>
        <time>2025-06-12T07:58:10Z</time>
      </trkpt>
      <trkpt lat="44.62194" lon="6.16992">
        <ele>1299</ele>
        <time>2025-06-12T07:58:11Z</time>
      </trkpt>
      <trkpt lat="44.62187" lon="6.17">
        <ele>1298.2</ele>
        <time>2025-06-12T07:58:12Z</time>
      </trkpt>
      <trkpt lat="44.62181" lon="6.17008">
        <ele>1297.6</ele>
        <time>2025-06-12T07:58:13Z</time>
      </trkpt>
      <trkpt lat="44.62175" lon="6.17015">
        <ele>1297.2</ele>
        <time>2025-06-12T07:58:14Z</time>
      </trkpt>
      <trkpt lat="44.62164" lon="6.1703">
        <ele>1296.6</ele>
        <time>2025-06-12T07:58:16Z</time>
      </trkpt>
      <trkpt lat="44.62158" lon="6.17038">
        <ele>1296.4</ele>
        <time>2025-06-12T07:58:17Z</time>
      </trkpt>
      <trkpt lat="44.62152" lon="6.17046">
        <ele>1296.4</ele>
        <time>2025-06-12T07:58:18Z</time>
      </trkpt>
      <trkpt lat="44.62141" lon="6.17062">
        <ele>1296.2</ele>
        <time>2025-06-12T07:58:20Z</time>
      </trkpt>
      <trkpt lat="44.62135" lon="6.1707">
        <ele>1296</ele>
        <time>2025-06-12T07:58:21Z</time>
      </trkpt>
      <trkpt lat="44.62128" lon="6.17079">
        <ele>1296</ele>
        <time>2025-06-12T07:58:22Z</time>
      </trkpt>
      <trkpt lat="44.62122" lon="6.17088">
        <ele>1296</ele>
        <time>2025-06-12T07:58:23Z</time>
      </trkpt>
      <trkpt lat="44.62115" lon="6.17098">
        <ele>1296</ele>
        <time>2025-06-12T07:58:24Z</time>
      </trkpt>
      <trkpt lat="44.62108" lon="6.17108">
        <ele>1296</ele>
        <time>2025-06-12T07:58:25Z</time>
      </trkpt>
      <trkpt lat="44.62101" lon="6.17118">
        <ele>1296</ele>
        <time>2025-06-12T07:58:26Z</time>
      </trkpt>
      <trkpt lat="44.62094" lon="6.17128">
        <ele>1295.8</ele>
        <time>2025-06-12T07:58:27Z</time>
      </trkpt>
      <trkpt lat="44.62087" lon="6.17138">
        <ele>1295.6</ele>
        <time>2025-06-12T07:58:28Z</time>
      </trkpt>
      <trkpt lat="44.6208" lon="6.17149">
        <ele>1295.4</ele>
        <time>2025-06-12T07:58:29Z</time>
      </trkpt>
      <trkpt lat="44.62074" lon="6.17161">
        <ele>1295</ele>
        <time>2025-06-12T07:58:30Z</time>
      </trkpt>
      <trkpt lat="44.62069" lon="6.17174">
        <ele>1294.4</ele>
        <time>2025-06-12T07:58:31Z</time>
      </trkpt>
      <trkpt lat="44.62064" lon="6.17187">
        <ele>1293.4</ele>
        <time>2025-06-12T07:58:32Z</time>
      </trkpt>
      <trkpt lat="44.6206" lon="6.17201">
        <ele>1292.6</ele>
        <time>2025-06-12T07:58:33Z</time>
      </trkpt>
      <trkpt lat="44.62057" lon="6.17216">
        <ele>1291.8</ele>
        <time>2025-06-12T07:58:34Z</time>
      </trkpt>
      <trkpt lat="44.62053" lon="6.1723">
        <ele>1291</ele>
        <time>2025-06-12T07:58:35Z</time>
      </trkpt>
      <trkpt lat="44.6205" lon="6.17245">
        <ele>1290</ele>
        <time>2025-06-12T07:58:36Z</time>
      </trkpt>
      <trkpt lat="44.62042" lon="6.17276">
        <ele>1288.6</ele>
        <time>2025-06-12T07:58:38Z</time>
      </trkpt>
      <trkpt lat="44.62035" lon="6.17306">
        <ele>1287.6</ele>
        <time>2025-06-12T07:58:40Z</time>
      </trkpt>
      <trkpt lat="44.62031" lon="6.17322">
        <ele>1287.2</ele>
        <time>2025-06-12T07:58:41Z</time>
      </trkpt>
      <trkpt lat="44.62027" lon="6.17337">
        <ele>1286.8</ele>
        <time>2025-06-12T07:58:42Z</time>
      </trkpt>
      <trkpt lat="44.62023" lon="6.17353">
        <ele>1286.2</ele>
        <time>2025-06-12T07:58:43Z</time>
      </trkpt>
      <trkpt lat="44.62014" lon="6.17384">
        <ele>1285.4</ele>
        <time>2025-06-12T07:58:45Z</time>
      </trkpt>
      <trkpt lat="44.62009" lon="6.174">
        <ele>1284</ele>
        <time>2025-06-12T07:58:46Z</time>
      </trkpt>
      <trkpt lat="44.62002" lon="6.17415">
        <ele>1283.4</ele>
        <time>2025-06-12T07:58:47Z</time>
      </trkpt>
      <trkpt lat="44.61995" lon="6.17429">
        <ele>1282.6</ele>
        <time>2025-06-12T07:58:48Z</time>
      </trkpt>
      <trkpt lat="44.61987" lon="6.17442">
        <ele>1282</ele>
        <time>2025-06-12T07:58:49Z</time>
      </trkpt>
      <trkpt lat="44.61978" lon="6.17454">
        <ele>1281.4</ele>
        <time>2025-06-12T07:58:50Z</time>
      </trkpt>
      <trkpt lat="44.61968" lon="6.17466">
        <ele>1281</ele>
        <time>2025-06-12T07:58:51Z</time>
      </trkpt>
      <trkpt lat="44.61959" lon="6.17477">
        <ele>1280.6</ele>
        <time>2025-06-12T07:58:52Z</time>
      </trkpt>
      <trkpt lat="44.61949" lon="6.17489">
        <ele>1280</ele>
        <time>2025-06-12T07:58:53Z</time>
      </trkpt>
      <trkpt lat="44.61938" lon="6.17499">
        <ele>1279</ele>
        <time>2025-06-12T07:58:54Z</time>
      </trkpt>
      <trkpt lat="44.61928" lon="6.17511">
        <ele>1278.4</ele>
        <time>2025-06-12T07:58:55Z</time>
      </trkpt>
      <trkpt lat="44.61918" lon="6.17522">
        <ele>1277.6</ele>
        <time>2025-06-12T07:58:56Z</time>
      </trkpt>
      <trkpt lat="44.61908" lon="6.17534">
        <ele>1276.6</ele>
        <time>2025-06-12T07:58:57Z</time>
      </trkpt>
      <trkpt lat="44.61898" lon="6.17546">
        <ele>1276</ele>
        <time>2025-06-12T07:58:58Z</time>
      </trkpt>
      <trkpt lat="44.61888" lon="6.17559">
        <ele>1275</ele>
        <time>2025-06-12T07:58:59Z</time>
      </trkpt>
      <trkpt lat="44.61878" lon="6.17573">
        <ele>1274.4</ele>
        <time>2025-06-12T07:59:00Z</time>
      </trkpt>
      <trkpt lat="44.6187" lon="6.17589">
        <ele>1273.8</ele>
        <time>2025-06-12T07:59:01Z</time>
      </trkpt>
      <trkpt lat="44.61862" lon="6.17605">
        <ele>1272.8</ele>
        <time>2025-06-12T07:59:02Z</time>
      </trkpt>
      <trkpt lat="44.61855" lon="6.17622">
        <ele>1272</ele>
        <time>2025-06-12T07:59:03Z</time>
      </trkpt>
      <trkpt lat="44.61848" lon="6.17639">
        <ele>1271.2</ele>
        <time>2025-06-12T07:59:04Z</time>
      </trkpt>
      <trkpt lat="44.61842" lon="6.17656">
        <ele>1270.6</ele>
        <time>2025-06-12T07:59:05Z</time>
      </trkpt>
      <trkpt lat="44.61836" lon="6.17673">
        <ele>1269.8</ele>
        <time>2025-06-12T07:59:06Z</time>
      </trkpt>
      <trkpt lat="44.61831" lon="6.17691">
        <ele>1269</ele>
        <time>2025-06-12T07:59:07Z</time>
      </trkpt>
      <trkpt lat="44.61826" lon="6.17708">
        <ele>1268</ele>
        <time>2025-06-12T07:59:08Z</time>
      </trkpt>
      <trkpt lat="44.61821" lon="6.17726">
        <ele>1266.8</ele>
        <time>2025-06-12T07:59:09Z</time>
      </trkpt>
      <trkpt lat="44.61818" lon="6.17744">
        <ele>1265.6</ele>
        <time>2025-06-12T07:59:10Z</time>
      </trkpt>
      <trkpt lat="44.61815" lon="6.17762">
        <ele>1264.6</ele>
        <time>2025-06-12T07:59:11Z</time>
      </trkpt>
      <trkpt lat="44.61812" lon="6.17779">
        <ele>1263.8</ele>
        <time>2025-06-12T07:59:12Z</time>
      </trkpt>
      <trkpt lat="44.61809" lon="6.17797">
        <ele>1262.4</ele>
        <time>2025-06-12T07:59:13Z</time>
      </trkpt>
      <trkpt lat="44.61806" lon="6.17814">
        <ele>1262</ele>
        <time>2025-06-12T07:59:14Z</time>
      </trkpt>
      <trkpt lat="44.61802" lon="6.1783">
        <ele>1261.4</ele>
        <time>2025-06-12T07:59:15Z</time>
      </trkpt>
      <trkpt lat="44.61799" lon="6.17846">
        <ele>1260.8</ele>
        <time>2025-06-12T07:59:16Z</time>
      </trkpt>
      <trkpt lat="44.61796" lon="6.17862">
        <ele>1260</ele>
        <time>2025-06-12T07:59:17Z</time>
      </trkpt>
      <trkpt lat="44.61793" lon="6.17877">
        <ele>1259.4</ele>
        <time>2025-06-12T07:59:18Z</time>
      </trkpt>
      <trkpt lat="44.6179" lon="6.17893">
        <ele>1259</ele>
        <time>2025-06-12T07:59:19Z</time>
      </trkpt>
      <trkpt lat="44.61787" lon="6.17907">
        <ele>1258.8</ele>
        <time>2025-06-12T07:59:20Z</time>
      </trkpt>
      <trkpt lat="44.61784" lon="6.17922">
        <ele>1258.4</ele>
        <time>2025-06-12T07:59:21Z</time>
      </trkpt>
      <trkpt lat="44.61782" lon="6.17936">
        <ele>1258.4</ele>
        <time>2025-06-12T07:59:22Z</time>
      </trkpt>
      <trkpt lat="44.6178" lon="6.17949">
        <ele>1258.4</ele>
        <time>2025-06-12T07:59:23Z</time>
      </trkpt>
      <trkpt lat="44.61779" lon="6.17962">
        <ele>1258.4</ele>
        <time>2025-06-12T07:59:24Z</time>
      </trkpt>
      <trkpt lat="44.61778" lon="6.17974">
        <ele>1258.4</ele>
        <time>2025-06-12T07:59:25Z</time>
      </trkpt>
      <trkpt lat="44.61778" lon="6.17987">
        <ele>1258.4</ele>
        <time>2025-06-12T07:59:26Z</time>
      </trkpt>
      <trkpt lat="44.61777" lon="6.17999">
        <ele>1258.4</ele>
        <time>2025-06-12T07:59:27Z</time>
      </trkpt>
      <trkpt lat="44.61777" lon="6.18011">
        <ele>1258.4</ele>
        <time>2025-06-12T07:59:28Z</time>
      </trkpt>
      <trkpt lat="44.61778" lon="6.18023">
        <ele>1258.8</ele>
        <time>2025-06-12T07:59:29Z</time>
      </trkpt>
      <trkpt lat="44.61779" lon="6.18047">
        <ele>1259.6</ele>
        <time>2025-06-12T07:59:31Z</time>
      </trkpt>
      <trkpt lat="44.61782" lon="6.18071">
        <ele>1260.4</ele>
        <time>2025-06-12T07:59:33Z</time>
      </trkpt>
      <trkpt lat="44.61784" lon="6.18083">
        <ele>1260.8</ele>
        <time>2025-06-12T07:59:34Z</time>
      </trkpt>
      <trkpt lat="44.61786" lon="6.18096">
        <ele>1261</ele>
        <time>2025-06-12T07:59:35Z</time>
      </trkpt>
      <trkpt lat="44.61791" lon="6.1812">
        <ele>1261</ele>
        <time>2025-06-12T07:59:37Z</time>
      </trkpt>
      <trkpt lat="44.61797" lon="6.18146">
        <ele>1261</ele>
        <time>2025-06-12T07:59:39Z</time>
      </trkpt>
      <trkpt lat="44.61801" lon="6.18158">
        <ele>1261</ele>
        <time>2025-06-12T07:59:40Z</time>
      </trkpt>
      <trkpt lat="44.61805" lon="6.1817">
        <ele>1261</ele>
        <time>2025-06-12T07:59:41Z</time>
      </trkpt>
      <trkpt lat="44.61812" lon="6.18193">
        <ele>1261</ele>
        <time>2025-06-12T07:59:43Z</time>
      </trkpt>
      <trkpt lat="44.6182" lon="6.18216">
        <ele>1260.8</ele>
        <time>2025-06-12T07:59:45Z</time>
      </trkpt>
      <trkpt lat="44.61827" lon="6.18238">
        <ele>1260.6</ele>
        <time>2025-06-12T07:59:47Z</time>
      </trkpt>
      <trkpt lat="44.61831" lon="6.18249">
        <ele>1260.6</ele>
        <time>2025-06-12T07:59:48Z</time>
      </trkpt>
      <trkpt lat="44.61834" lon="6.1826">
        <ele>1260.6</ele>
        <time>2025-06-12T07:59:49Z</time>
      </trkpt>
      <trkpt lat="44.61841" lon="6.18281">
        <ele>1260.6</ele>
        <time>2025-06-12T07:59:51Z</time>
      </trkpt>
      <trkpt lat="44.61847" lon="6.18302">
        <ele>1260.6</ele>
        <time>2025-06-12T07:59:53Z</time>
      </trkpt>
      <trkpt lat="44.61849" lon="6.18312">
        <ele>1260.6</ele>
        <time>2025-06-12T07:59:54Z</time>
      </trkpt>
      <trkpt lat="44.61851" lon="6.18322">
        <ele>1260.6</ele>
        <time>2025-06-12T07:59:55Z</time>
      </trkpt>
      <trkpt lat="44.61853" lon="6.18332">
        <ele>1260.6</ele>
        <time>2025-06-12T07:59:56Z</time>
      </trkpt>
      <trkpt lat="44.61855" lon="6.18342">
        <ele>1260.6</ele>
        <time>2025-06-12T07:59:57Z</time>
      </trkpt>
      <trkpt lat="44.61857" lon="6.18352">
        <ele>1260.6</ele>
        <time>2025-06-12T07:59:58Z</time>
      </trkpt>
      <trkpt lat="44.61858" lon="6.18362">
        <ele>1260.6</ele>
        <time>2025-06-12T07:59:59Z</time>
      </trkpt>
      <trkpt lat="44.61859" lon="6.18371">
        <ele>1260.8</ele>
        <time>2025-06-12T08:00:00Z</time>
      </trkpt>
      <trkpt lat="44.6186" lon="6.1838">
        <ele>1261</ele>
        <time>2025-06-12T08:00:01Z</time>
      </trkpt>
      <trkpt lat="44.61861" lon="6.1839">
        <ele>1261.2</ele>
        <time>2025-06-12T08:00:02Z</time>
      </trkpt>
      <trkpt lat="44.61862" lon="6.18399">
        <ele>1261.2</ele>
        <time>2025-06-12T08:00:03Z</time>
      </trkpt>
      <trkpt lat="44.61862" lon="6.18409">
        <ele>1261.4</ele>
        <time>2025-06-12T08:00:04Z</time>
      </trkpt>
      <trkpt lat="44.61863" lon="6.18418">
        <ele>1261.6</ele>
        <time>2025-06-12T08:00:05Z</time>
      </trkpt>
      <trkpt lat="44.61863" lon="6.18428">
        <ele>1261.8</ele>
        <time>2025-06-12T08:00:06Z</time>
      </trkpt>
      <trkpt lat="44.61863" lon="6.18437">
        <ele>1262</ele>
        <time>2025-06-12T08:00:07Z</time>
      </trkpt>
      <trkpt lat="44.61862" lon="6.18447">
        <ele>1262.2</ele>
        <time>2025-06-12T08:00:08Z</time>
      </trkpt>
      <trkpt lat="44.61862" lon="6.18456">
        <ele>1262.4</ele>
        <time>2025-06-12T08:00:09Z</time>
      </trkpt>
      <trkpt lat="44.61862" lon="6.18465">
        <ele>1262.4</ele>
        <time>2025-06-12T08:00:10Z</time>
      </trkpt>
      <trkpt lat="44.61861" lon="6.18474">
        <ele>1262.6</ele>
        <time>2025-06-12T08:00:11Z</time>
      </trkpt>
      <trkpt lat="44.6186" lon="6.18483">
        <ele>1262.6</ele>
        <time>2025-06-12T08:00:12Z</time>
      </trkpt>
      <trkpt lat="44.61859" lon="6.18492">
        <ele>1262.8</ele>
        <time>2025-06-12T08:00:13Z</time>
      </trkpt>
      <trkpt lat="44.61858" lon="6.18501">
        <ele>1262.8</ele>
        <time>2025-06-12T08:00:14Z</time>
      </trkpt>
      <trkpt lat="44.61857" lon="6.18509">
        <ele>1263</ele>
        <time>2025-06-12T08:00:15Z</time>
      </trkpt>
      <trkpt lat="44.61856" lon="6.18518">
        <ele>1263</ele>
        <time>2025-06-12T08:00:16Z</time>
      </trkpt>
      <trkpt lat="44.61854" lon="6.18526">
        <ele>1263</ele>
        <time>2025-06-12T08:00:17Z</time>
      </trkpt>
      <trkpt lat="44.61853" lon="6.18535">
        <ele>1263.2</ele>
        <time>2025-06-12T08:00:18Z</time>
      </trkpt>
      <trkpt lat="44.61852" lon="6.18543">
        <ele>1263.2</ele>
        <time>2025-06-12T08:00:19Z</time>
      </trkpt>
      <trkpt lat="44.6185" lon="6.18552">
        <ele>1263.2</ele>
        <time>2025-06-12T08:00:20Z</time>
      </trkpt>
      <trkpt lat="44.61849" lon="6.1856">
        <ele>1263.2</ele>
        <time>2025-06-12T08:00:21Z</time>
      </trkpt>
      <trkpt lat="44.61848" lon="6.18568">
        <ele>1263.2</ele>
        <time>2025-06-12T08:00:22Z</time>
      </trkpt>
      <trkpt lat="44.61847" lon="6.18576">
        <ele>1263.4</ele>
        <time>2025-06-12T08:00:23Z</time>
      </trkpt>
      <trkpt lat="44.61845" lon="6.18585">
        <ele>1263.4</ele>
        <time>2025-06-12T08:00:24Z</time>
      </trkpt>
      <trkpt lat="44.61844" lon="6.18593">
        <ele>1263.4</ele>
        <time>2025-06-12T08:00:25Z</time>
      </trkpt>
      <trkpt lat="44.61843" lon="6.18601">
        <ele>1263.6</ele>
        <time>2025-06-12T08:00:26Z</time>
      </trkpt>
      <trkpt lat="44.61841" lon="6.18618">
        <ele>1263.8</ele>
        <time>2025-06-12T08:00:28Z</time>
      </trkpt>
      <trkpt lat="44.61839" lon="6.18635">
        <ele>1264</ele>
        <time>2025-06-12T08:00:30Z</time>
      </trkpt>
      <trkpt lat="44.61838" lon="6.18643">
        <ele>1264.2</ele>
        <time>2025-06-12T08:00:31Z</time>
      </trkpt>
      <trkpt lat="44.61837" lon="6.18652">
        <ele>1264.4</ele>
        <time>2025-06-12T08:00:32Z</time>
      </trkpt>
      <trkpt lat="44.61837" lon="6.1866">
        <ele>1264.6</ele>
        <time>2025-06-12T08:00:33Z</time>
      </trkpt>
      <trkpt lat="44.61836" lon="6.18669">
        <ele>1264.6</ele>
        <time>2025-06-12T08:00:34Z</time>
      </trkpt>
      <trkpt lat="44.61835" lon="6.18677">
        <ele>1264.8</ele>
        <time>2025-06-12T08:00:35Z</time>
      </trkpt>
      <trkpt lat="44.61835" lon="6.18695">
        <ele>1265.2</ele>
        <time>2025-06-12T08:00:37Z</time>
      </trkpt>
      <trkpt lat="44.61834" lon="6.18712">
        <ele>1265.2</ele>
        <time>2025-06-12T08:00:39Z</time>
      </trkpt>
      <trkpt lat="44.61834" lon="6.18721">
        <ele>1265.4</ele>
        <time>2025-06-12T08:00:40Z</time>
      </trkpt>
      <trkpt lat="44.61833" lon="6.18729">
        <ele>1265.4</ele>
        <time>2025-06-12T08:00:41Z</time>
      </trkpt>
      <trkpt lat="44.61833" lon="6.18738">
        <ele>1265.4</ele>
        <time>2025-06-12T08:00:42Z</time>
      </trkpt>
      <trkpt lat="44.61833" lon="6.18746">
        <ele>1265.6</ele>
        <time>2025-06-12T08:00:43Z</time>
      </trkpt>
      <trkpt lat="44.61833" lon="6.18754">
        <ele>1265.6</ele>
        <time>2025-06-12T08:00:44Z</time>
      </trkpt>
      <trkpt lat="44.61833" lon="6.18762">
        <ele>1265.8</ele>
        <time>2025-06-12T08:00:45Z</time>
      </trkpt>
      <trkpt lat="44.61832" lon="6.1877">
        <ele>1265.8</ele>
        <time>2025-06-12T08:00:46Z</time>
      </trkpt>
      <trkpt lat="44.61832" lon="6.18778">
        <ele>1265.8</ele>
        <time>2025-06-12T08:00:47Z</time>
      </trkpt>
      <trkpt lat="44.61832" lon="6.18786">
        <ele>1266</ele>
        <time>2025-06-12T08:00:48Z</time>
      </trkpt>
      <trkpt lat="44.61831" lon="6.18794">
        <ele>1266</ele>
        <time>2025-06-12T08:00:49Z</time>
      </trkpt>
      <trkpt lat="44.61831" lon="6.18802">
        <ele>1266.2</ele>
        <time>2025-06-12T08:00:50Z</time>
      </trkpt>
      <trkpt lat="44.61832" lon="6.18809">
        <ele>1266.2</ele>
        <time>2025-06-12T08:00:51Z</time>
      </trkpt>
      <trkpt lat="44.61832" lon="6.18817">
        <ele>1266.4</ele>
        <time>2025-06-12T08:00:52Z</time>
      </trkpt>
      <trkpt lat="44.61832" lon="6.18825">
        <ele>1266.4</ele>
        <time>2025-06-12T08:00:53Z</time>
      </trkpt>
      <trkpt lat="44.61832" lon="6.18832">
        <ele>1266.4</ele>
        <time>2025-06-12T08:00:54Z</time>
      </trkpt>
      <trkpt lat="44.61832" lon="6.1884">
        <ele>1266.4</ele>
        <time>2025-06-12T08:00:55Z</time>
      </trkpt>
      <trkpt lat="44.61832" lon="6.18848">
        <ele>1266.6</ele>
        <time>2025-06-12T08:00:56Z</time>
      </trkpt>
      <trkpt lat="44.61832" lon="6.18855">
        <ele>1266.6</ele>
        <time>2025-06-12T08:00:57Z</time>
      </trkpt>
      <trkpt lat="44.61831" lon="6.18862">
        <ele>1266.8</ele>
        <time>2025-06-12T08:00:58Z</time>
      </trkpt>
      <trkpt lat="44.61832" lon="6.18876">
        <ele>1267.2</ele>
        <time>2025-06-12T08:01:00Z</time>
      </trkpt>
      <trkpt lat="44.61832" lon="6.1889">
        <ele>1267.4</ele>
        <time>2025-06-12T08:01:02Z</time>
      </trkpt>
      <trkpt lat="44.61832" lon="6.18897">
        <ele>1267.4</ele>
        <time>2025-06-12T08:01:03Z</time>
      </trkpt>
      <trkpt lat="44.61833" lon="6.18904">
        <ele>1267.8</ele>
        <time>2025-06-12T08:01:04Z</time>
      </trkpt>
      <trkpt lat="44.61833" lon="6.18911">
        <ele>1267.8</ele>
        <time>2025-06-12T08:01:05Z</time>
      </trkpt>
      <trkpt lat="44.61833" lon="6.18918">
        <ele>1268</ele>
        <time>2025-06-12T08:01:06Z</time>
      </trkpt>
      <trkpt lat="44.61833" lon="6.18925">
        <ele>1268.2</ele>
        <time>2025-06-12T08:01:07Z</time>
      </trkpt>
      <trkpt lat="44.61833" lon="6.18932">
        <ele>1268.6</ele>
        <time>2025-06-12T08:01:08Z</time>
      </trkpt>
      <trkpt lat="44.61833" lon="6.18939">
        <ele>1268.8</ele>
        <time>2025-06-12T08:01:09Z</time>
      </trkpt>
      <trkpt lat="44.61834" lon="6.18946">
        <ele>1268.8</ele>
        <time>2025-06-12T08:01:10Z</time>
      </trkpt>
      <trkpt lat="44.61834" lon="6.18953">
        <ele>1269</ele>
        <time>2025-06-12T08:01:11Z</time>
      </trkpt>
      <trkpt lat="44.61833" lon="6.18967">
        <ele>1269.2</ele>
        <time>2025-06-12T08:01:13Z</time>
      </trkpt>
      <trkpt lat="44.61832" lon="6.18981">
        <ele>1269.6</ele>
        <time>2025-06-12T08:01:15Z</time>
      </trkpt>
      <trkpt lat="44.61832" lon="6.18988">
        <ele>1269.6</ele>
        <time>2025-06-12T08:01:16Z</time>
      </trkpt>
      <trkpt lat="44.61832" lon="6.18995">
        <ele>1269.6</ele>
        <time>2025-06-12T08:01:17Z</time>
      </trkpt>
      <trkpt lat="44.61831" lon="6.19002">
        <ele>1269.8</ele>
        <time>2025-06-12T08:01:18Z</time>
      </trkpt>
      <trkpt lat="44.61831" lon="6.19009">
        <ele>1270</ele>
        <time>2025-06-12T08:01:19Z</time>
      </trkpt>
      <trkpt lat="44.61831" lon="6.19016">
        <ele>1270.2</ele>
        <time>2025-06-12T08:01:20Z</time>
      </trkpt>
      <trkpt lat="44.61831" lon="6.19029">
        <ele>1270.4</ele>
        <time>2025-06-12T08:01:22Z</time>
      </trkpt>
      <trkpt lat="44.61832" lon="6.19043">
        <ele>1270.6</ele>
        <time>2025-06-12T08:01:24Z</time>
      </trkpt>
      <trkpt lat="44.61832" lon="6.1905">
        <ele>1271</ele>
        <time>2025-06-12T08:01:25Z</time>
      </trkpt>
      <trkpt lat="44.61832" lon="6.19057">
        <ele>1271.2</ele>
        <time>2025-06-12T08:01:26Z</time>
      </trkpt>
      <trkpt lat="44.61833" lon="6.19064">
        <ele>1271.2</ele>
        <time>2025-06-12T08:01:27Z</time>
      </trkpt>
      <trkpt lat="44.61832" lon="6.19071">
        <ele>1271.4</ele>
        <time>2025-06-12T08:01:28Z</time>
      </trkpt>
      <trkpt lat="44.61832" lon="6.19078">
        <ele>1271.4</ele>
        <time>2025-06-12T08:01:29Z</time>
      </trkpt>
      <trkpt lat="44.61832" lon="6.19092">
        <ele>1271.6</ele>
        <time>2025-06-12T08:01:31Z</time>
      </trkpt>
      <trkpt lat="44.61832" lon="6.19099">
        <ele>1271.6</ele>
        <time>2025-06-12T08:01:32Z</time>
      </trkpt>
      <trkpt lat="44.61832" lon="6.19106">
        <ele>1271.8</ele>
        <time>2025-06-12T08:01:33Z</time>
      </trkpt>
      <trkpt lat="44.61833" lon="6.19113">
        <ele>1272</ele>
        <time>2025-06-12T08:01:34Z</time>
      </trkpt>
      <trkpt lat="44.61833" lon="6.1912">
        <ele>1272</ele>
        <time>2025-06-12T08:01:35Z</time>
      </trkpt>
      <trkpt lat="44.61833" lon="6.19128">
        <ele>1272.2</ele>
        <time>2025-06-12T08:01:36Z</time>
      </trkpt>
      <trkpt lat="44.61833" lon="6.19135">
        <ele>1272.2</ele>
        <time>2025-06-12T08:01:37Z</time>
      </trkpt>
      <trkpt lat="44.61834" lon="6.19142">
        <ele>1272.2</ele>
        <time>2025-06-12T08:01:38Z</time>
      </trkpt>
      <trkpt lat="44.61834" lon="6.19149">
        <ele>1272.4</ele>
        <time>2025-06-12T08:01:39Z</time>
      </trkpt>
      <trkpt lat="44.61835" lon="6.19156">
        <ele>1272.4</ele>
        <time>2025-06-12T08:01:40Z</time>
      </trkpt>
      <trkpt lat="44.61836" lon="6.19163">
        <ele>1272.4</ele>
        <time>2025-06-12T08:01:41Z</time>
      </trkpt>
      <trkpt lat="44.61836" lon="6.1917">
        <ele>1272.4</ele>
        <time>2025-06-12T08:01:42Z</time>
      </trkpt>
      <trkpt lat="44.61837" lon="6.19184">
        <ele>1272.6</ele>
        <time>2025-06-12T08:01:44Z</time>
      </trkpt>
      <trkpt lat="44.61837" lon="6.19197">
        <ele>1272.6</ele>
        <time>2025-06-12T08:01:46Z</time>
      </trkpt>
      <trkpt lat="44.61837" lon="6.19211">
        <ele>1272.8</ele>
        <time>2025-06-12T08:01:48Z</time>
      </trkpt>
      <trkpt lat="44.61836" lon="6.19223">
        <ele>1273</ele>
        <time>2025-06-12T08:01:50Z</time>
      </trkpt>
      <trkpt lat="44.61836" lon="6.19229">
        <ele>1273</ele>
        <time>2025-06-12T08:01:51Z</time>
      </trkpt>
      <trkpt lat="44.61835" lon="6.19235">
        <ele>1273.2</ele>
        <time>2025-06-12T08:01:52Z</time>
      </trkpt>
      <trkpt lat="44.61834" lon="6.19241">
        <ele>1273.4</ele>
        <time>2025-06-12T08:01:53Z</time>
      </trkpt>
      <trkpt lat="44.61834" lon="6.19247">
        <ele>1273.4</ele>
        <time>2025-06-12T08:01:54Z</time>
      </trkpt>
      <trkpt lat="44.61833" lon="6.19253">
        <ele>1273.8</ele>
        <time>2025-06-12T08:01:55Z</time>
      </trkpt>
      <trkpt lat="44.61833" lon="6.19258">
        <ele>1274</ele>
        <time>2025-06-12T08:01:56Z</time>
      </trkpt>
      <trkpt lat="44.61833" lon="6.19264">
        <ele>1274.2</ele>
        <time>2025-06-12T08:01:57Z</time>
      </trkpt>
      <trkpt lat="44.61832" lon="6.19275">
        <ele>1274.8</ele>
        <time>2025-06-12T08:01:59Z</time>
      </trkpt>
      <trkpt lat="44.61831" lon="6.19286">
        <ele>1275</ele>
        <time>2025-06-12T08:02:01Z</time>
      </trkpt>
      <trkpt lat="44.6183" lon="6.19292">
        <ele>1275</ele>
        <time>2025-06-12T08:02:02Z</time>
      </trkpt>
      <trkpt lat="44.61829" lon="6.19297">
        <ele>1275.2</ele>
        <time>2025-06-12T08:02:03Z</time>
      </trkpt>
      <trkpt lat="44.61829" lon="6.19302">
        <ele>1275.2</ele>
        <time>2025-06-12T08:02:04Z</time>
      </trkpt>
      <trkpt lat="44.61828" lon="6.19307">
        <ele>1275.2</ele>
        <time>2025-06-12T08:02:05Z</time>
      </trkpt>
      <trkpt lat="44.61827" lon="6.19312">
        <ele>1275.4</ele>
        <time>2025-06-12T08:02:06Z</time>
      </trkpt>
      <trkpt lat="44.61827" lon="6.19317">
        <ele>1275.6</ele>
        <time>2025-06-12T08:02:07Z</time>
      </trkpt>
      <trkpt lat="44.61826" lon="6.19322">
        <ele>1275.8</ele>
        <time>2025-06-12T08:02:08Z</time>
      </trkpt>
      <trkpt lat="44.61825" lon="6.19327">
        <ele>1276</ele>
        <time>2025-06-12T08:02:09Z</time>
      </trkpt>
      <trkpt lat="44.61825" lon="6.19332">
        <ele>1276.2</ele>
        <time>2025-06-12T08:02:10Z</time>
      </trkpt>
      <trkpt lat="44.61824" lon="6.19337">
        <ele>1276.4</ele>
        <time>2025-06-12T08:02:11Z</time>
      </trkpt>
      <trkpt lat="44.61823" lon="6.19342">
        <ele>1276.6</ele>
        <time>2025-06-12T08:02:12Z</time>
      </trkpt>
      <trkpt lat="44.61822" lon="6.19346">
        <ele>1276.6</ele>
        <time>2025-06-12T08:02:13Z</time>
      </trkpt>
      <trkpt lat="44.6182" lon="6.19351">
        <ele>1276.8</ele>
        <time>2025-06-12T08:02:14Z</time>
      </trkpt>
      <trkpt lat="44.61819" lon="6.19356">
        <ele>1277</ele>
        <time>2025-06-12T08:02:15Z</time>
      </trkpt>
      <trkpt lat="44.61818" lon="6.19361">
        <ele>1277.4</ele>
        <time>2025-06-12T08:02:16Z</time>
      </trkpt>
      <trkpt lat="44.61816" lon="6.19371">
        <ele>1277.6</ele>
        <time>2025-06-12T08:02:18Z</time>
      </trkpt>
      <trkpt lat="44.61815" lon="6.19376">
        <ele>1277.8</ele>
        <time>2025-06-12T08:02:19Z</time>
      </trkpt>
      <trkpt lat="44.61814" lon="6.19381">
        <ele>1277.8</ele>
        <time>2025-06-12T08:02:20Z</time>
      </trkpt>
      <trkpt lat="44.61813" lon="6.19386">
        <ele>1278</ele>
        <time>2025-06-12T08:02:21Z</time>
      </trkpt>
      <trkpt lat="44.61812" lon="6.19392">
        <ele>1278.2</ele>
        <time>2025-06-12T08:02:22Z</time>
      </trkpt>
      <trkpt lat="44.61811" lon="6.19397">
        <ele>1278.4</ele>
        <time>2025-06-12T08:02:23Z</time>
      </trkpt>
      <trkpt lat="44.61811" lon="6.19402">
        <ele>1278.6</ele>
        <time>2025-06-12T08:02:24Z</time>
      </trkpt>
      <trkpt lat="44.6181" lon="6.19407">
        <ele>1278.8</ele>
        <time>2025-06-12T08:02:25Z</time>
      </trkpt>
      <trkpt lat="44.61809" lon="6.19412">
        <ele>1279.2</ele>
        <time>2025-06-12T08:02:26Z</time>
      </trkpt>
      <trkpt lat="44.61808" lon="6.19417">
        <ele>1279.4</ele>
        <time>2025-06-12T08:02:27Z</time>
      </trkpt>
      <trkpt lat="44.61807" lon="6.19422">
        <ele>1279.6</ele>
        <time>2025-06-12T08:02:28Z</time>
      </trkpt>
      <trkpt lat="44.61807" lon="6.19427">
        <ele>1279.8</ele>
        <time>2025-06-12T08:02:29Z</time>
      </trkpt>
      <trkpt lat="44.61805" lon="6.19437">
        <ele>1280.2</ele>
        <time>2025-06-12T08:02:31Z</time>
      </trkpt>
      <trkpt lat="44.61803" lon="6.19447">
        <ele>1280.8</ele>
        <time>2025-06-12T08:02:33Z</time>
      </trkpt>
      <trkpt lat="44.61803" lon="6.19451">
        <ele>1281</ele>
        <time>2025-06-12T08:02:34Z</time>
      </trkpt>
      <trkpt lat="44.61802" lon="6.19456">
        <ele>1281</ele>
        <time>2025-06-12T08:02:35Z</time>
      </trkpt>
      <trkpt lat="44.61801" lon="6.19461">
        <ele>1281.2</ele>
        <time>2025-06-12T08:02:36Z</time>
      </trkpt>
      <trkpt lat="44.618" lon="6.19465">
        <ele>1281.6</ele>
        <time>2025-06-12T08:02:37Z</time>
      </trkpt>
      <trkpt lat="44.618" lon="6.1947">
        <ele>1281.8</ele>
        <time>2025-06-12T08:02:38Z</time>
      </trkpt>
      <trkpt lat="44.61799" lon="6.19475">
        <ele>1282.2</ele>
        <time>2025-06-12T08:02:39Z</time>
      </trkpt>
      <trkpt lat="44.61798" lon="6.1948">
        <ele>1282.4</ele>
        <time>2025-06-12T08:02:40Z</time>
      </trkpt>
      <trkpt lat="44.61798" lon="6.19485">
        <ele>1282.6</ele>
        <time>2025-06-12T08:02:41Z</time>
      </trkpt>
      <trkpt lat="44.61797" lon="6.1949">
        <ele>1282.6</ele>
        <time>2025-06-12T08:02:42Z</time>
      </trkpt>
      <trkpt lat="44.61797" lon="6.195">
        <ele>1283</ele>
        <time>2025-06-12T08:02:44Z</time>
      </trkpt>
      <trkpt lat="44.61796" lon="6.19505">
        <ele>1283.2</ele>
        <time>2025-06-12T08:02:45Z</time>
      </trkpt>
      <trkpt lat="44.61796" lon="6.1951">
        <ele>1283.4</ele>
        <time>2025-06-12T08:02:46Z</time>
      </trkpt>
      <trkpt lat="44.61796" lon="6.1952">
        <ele>1283.8</ele>
        <time>2025-06-12T08:02:48Z</time>
      </trkpt>
      <trkpt lat="44.61797" lon="6.1953">
        <ele>1284</ele>
        <time>2025-06-12T08:02:50Z</time>
      </trkpt>
      <trkpt lat="44.61797" lon="6.19535">
        <ele>1284.2</ele>
        <time>2025-06-12T08:02:51Z</time>
      </trkpt>
      <trkpt lat="44.61798" lon="6.1954">
        <ele>1284.4</ele>
        <time>2025-06-12T08:02:52Z</time>
      </trkpt>
      <trkpt lat="44.61799" lon="6.19545">
        <ele>1284.4</ele>
        <time>2025-06-12T08:02:53Z</time>
      </trkpt>
      <trkpt lat="44.61799" lon="6.1955">
        <ele>1284.6</ele>
        <time>2025-06-12T08:02:54Z</time>
      </trkpt>
      <trkpt lat="44.618" lon="6.19555">
        <ele>1285</ele>
        <time>2025-06-12T08:02:55Z</time>
      </trkpt>
      <trkpt lat="44.61802" lon="6.19564">
        <ele>1285.2</ele>
        <time>2025-06-12T08:02:57Z</time>
      </trkpt>
      <trkpt lat="44.61803" lon="6.19574">
        <ele>1285.4</ele>
        <time>2025-06-12T08:02:59Z</time>
      </trkpt>
      <trkpt lat="44.61806" lon="6.19584">
        <ele>1285.6</ele>
        <time>2025-06-12T08:03:01Z</time>
      </trkpt>
      <trkpt lat="44.61807" lon="6.19588">
        <ele>1285.6</ele>
        <time>2025-06-12T08:03:02Z</time>
      </trkpt>
      <trkpt lat="44.61809" lon="6.19593">
        <ele>1285.6</ele>
        <time>2025-06-12T08:03:03Z</time>
      </trkpt>
      <trkpt lat="44.6181" lon="6.19598">
        <ele>1285.8</ele>
        <time>2025-06-12T08:03:04Z</time>
      </trkpt>
      <trkpt lat="44.61812" lon="6.19602">
        <ele>1286</ele>
        <time>2025-06-12T08:03:05Z</time>
      </trkpt>
      <trkpt lat="44.61813" lon="6.19607">
        <ele>1286</ele>
        <time>2025-06-12T08:03:06Z</time>
      </trkpt>
      <trkpt lat="44.61815" lon="6.19611">
        <ele>1286.2</ele>
        <time>2025-06-12T08:03:07Z</time>
      </trkpt>
      <trkpt lat="44.61817" lon="6.19616">
        <ele>1286.2</ele>
        <time>2025-06-12T08:03:08Z</time>
      </trkpt>
      <trkpt lat="44.61819" lon="6.1962">
        <ele>1286.2</ele>
        <time>2025-06-12T08:03:09Z</time>
      </trkpt>
      <trkpt lat="44.61821" lon="6.19625">
        <ele>1286.4</ele>
        <time>2025-06-12T08:03:10Z</time>
      </trkpt>
      <trkpt lat="44.61823" lon="6.19629">
        <ele>1286.4</ele>
        <time>2025-06-12T08:03:11Z</time>
      </trkpt>
      <trkpt lat="44.61825" lon="6.19633">
        <ele>1286.4</ele>
        <time>2025-06-12T08:03:12Z</time>
      </trkpt>
      <trkpt lat="44.61828" lon="6.19637">
        <ele>1286.4</ele>
        <time>2025-06-12T08:03:13Z</time>
      </trkpt>
      <trkpt lat="44.6183" lon="6.19642">
        <ele>1286.6</ele>
        <time>2025-06-12T08:03:14Z</time>
      </trkpt>
      <trkpt lat="44.61833" lon="6.19646">
        <ele>1286.6</ele>
        <time>2025-06-12T08:03:15Z</time>
      </trkpt>
      <trkpt lat="44.61835" lon="6.1965">
        <ele>1286.6</ele>
        <time>2025-06-12T08:03:16Z</time>
      </trkpt>
      <trkpt lat="44.61838" lon="6.19655">
        <ele>1286.6</ele>
        <time>2025-06-12T08:03:17Z</time>
      </trkpt>
      <trkpt lat="44.6184" lon="6.1966">
        <ele>1286.6</ele>
        <time>2025-06-12T08:03:18Z</time>
      </trkpt>
      <trkpt lat="44.61842" lon="6.19664">
        <ele>1286.6</ele>
        <time>2025-06-12T08:03:19Z</time>
      </trkpt>
      <trkpt lat="44.61845" lon="6.19669">
        <ele>1286.6</ele>
        <time>2025-06-12T08:03:20Z</time>
      </trkpt>
      <trkpt lat="44.61849" lon="6.19679">
        <ele>1286.6</ele>
        <time>2025-06-12T08:03:22Z</time>
      </trkpt>
      <trkpt lat="44.61854" lon="6.19688">
        <ele>1286.6</ele>
        <time>2025-06-12T08:03:24Z</time>
      </trkpt>
      <trkpt lat="44.61856" lon="6.19693">
        <ele>1286.6</ele>
        <time>2025-06-12T08:03:25Z</time>
      </trkpt>
      <trkpt lat="44.61859" lon="6.19698">
        <ele>1286.6</ele>
        <time>2025-06-12T08:03:26Z</time>
      </trkpt>
      <trkpt lat="44.61862" lon="6.19703">
        <ele>1286.6</ele>
        <time>2025-06-12T08:03:27Z</time>
      </trkpt>
      <trkpt lat="44.61865" lon="6.19708">
        <ele>1286.4</ele>
        <time>2025-06-12T08:03:28Z</time>
      </trkpt>
      <trkpt lat="44.61867" lon="6.19714">
        <ele>1286.4</ele>
        <time>2025-06-12T08:03:29Z</time>
      </trkpt>
      <trkpt lat="44.61869" lon="6.19719">
        <ele>1286.4</ele>
        <time>2025-06-12T08:03:30Z</time>
      </trkpt>
      <trkpt lat="44.61872" lon="6.19724">
        <ele>1286.4</ele>
        <time>2025-06-12T08:03:31Z</time>
      </trkpt>
      <trkpt lat="44.61874" lon="6.19729">
        <ele>1286.4</ele>
        <time>2025-06-12T08:03:32Z</time>
      </trkpt>
      <trkpt lat="44.61877" lon="6.19734">
        <ele>1286.4</ele>
        <time>2025-06-12T08:03:33Z</time>
      </trkpt>
      <trkpt lat="44.61879" lon="6.19739">
        <ele>1286.2</ele>
        <time>2025-06-12T08:03:34Z</time>
      </trkpt>
      <trkpt lat="44.61882" lon="6.19744">
        <ele>1286.2</ele>
        <time>2025-06-12T08:03:35Z</time>
      </trkpt>
      <trkpt lat="44.61884" lon="6.19749">
        <ele>1286.2</ele>
        <time>2025-06-12T08:03:36Z</time>
      </trkpt>
      <trkpt lat="44.61887" lon="6.19755">
        <ele>1286.2</ele>
        <time>2025-06-12T08:03:37Z</time>
      </trkpt>
      <trkpt lat="44.61892" lon="6.19765">
        <ele>1286.2</ele>
        <time>2025-06-12T08:03:39Z</time>
      </trkpt>
      <trkpt lat="44.61897" lon="6.19775">
        <ele>1286.2</ele>
        <time>2025-06-12T08:03:41Z</time>
      </trkpt>
      <trkpt lat="44.619" lon="6.1978">
        <ele>1286.2</ele>
        <time>2025-06-12T08:03:42Z</time>
      </trkpt>
      <trkpt lat="44.61903" lon="6.19786">
        <ele>1286.2</ele>
        <time>2025-06-12T08:03:43Z</time>
      </trkpt>
      <trkpt lat="44.61905" lon="6.19791">
        <ele>1286.2</ele>
        <time>2025-06-12T08:03:44Z</time>
      </trkpt>
      <trkpt lat="44.61908" lon="6.19796">
        <ele>1286.2</ele>
        <time>2025-06-12T08:03:45Z</time>
      </trkpt>
      <trkpt lat="44.61911" lon="6.19802">
        <ele>1286.2</ele>
        <time>2025-06-12T08:03:46Z</time>
      </trkpt>
      <trkpt lat="44.61913" lon="6.19807">
        <ele>1286.2</ele>
        <time>2025-06-12T08:03:47Z</time>
      </trkpt>
      <trkpt lat="44.61916" lon="6.19812">
        <ele>1286.2</ele>
        <time>2025-06-12T08:03:48Z</time>
      </trkpt>
      <trkpt lat="44.61919" lon="6.19818">
        <ele>1286</ele>
        <time>2025-06-12T08:03:49Z</time>
      </trkpt>
      <trkpt lat="44.61921" lon="6.19824">
        <ele>1286</ele>
        <time>2025-06-12T08:03:50Z</time>
      </trkpt>
      <trkpt lat="44.61924" lon="6.19829">
        <ele>1286</ele>
        <time>2025-06-12T08:03:51Z</time>
      </trkpt>
      <trkpt lat="44.61927" lon="6.19835">
        <ele>1286</ele>
        <time>2025-06-12T08:03:52Z</time>
      </trkpt>
      <trkpt lat="44.61929" lon="6.1984">
        <ele>1286</ele>
        <time>2025-06-12T08:03:53Z</time>
      </trkpt>
      <trkpt lat="44.61932" lon="6.19846">
        <ele>1286</ele>
        <time>2025-06-12T08:03:54Z</time>
      </trkpt>
      <trkpt lat="44.61937" lon="6.19857">
        <ele>1285.8</ele>
        <time>2025-06-12T08:03:56Z</time>
      </trkpt>
      <trkpt lat="44.6194" lon="6.19862">
        <ele>1285.8</ele>
        <time>2025-06-12T08:03:57Z</time>
      </trkpt>
      <trkpt lat="44.61942" lon="6.19868">
        <ele>1285.8</ele>
        <time>2025-06-12T08:03:58Z</time>
      </trkpt>
      <trkpt lat="44.61947" lon="6.19879">
        <ele>1285.8</ele>
        <time>2025-06-12T08:04:00Z</time>
      </trkpt>
      <trkpt lat="44.61951" lon="6.1989">
        <ele>1285.8</ele>
        <time>2025-06-12T08:04:02Z</time>
      </trkpt>
      <trkpt lat="44.61955" lon="6.19902">
        <ele>1285.8</ele>
        <time>2025-06-12T08:04:04Z</time>
      </trkpt>
      <trkpt lat="44.61957" lon="6.19908">
        <ele>1285.8</ele>
        <time>2025-06-12T08:04:05Z</time>
      </trkpt>
      <trkpt lat="44.61958" lon="6.19914">
        <ele>1285.8</ele>
        <time>2025-06-12T08:04:06Z</time>
      </trkpt>
      <trkpt lat="44.61962" lon="6.19926">
        <ele>1286</ele>
        <time>2025-06-12T08:04:08Z</time>
      </trkpt>
      <trkpt lat="44.61965" lon="6.19938">
        <ele>1286.2</ele>
        <time>2025-06-12T08:04:10Z</time>
      </trkpt>
      <trkpt lat="44.61966" lon="6.19944">
        <ele>1286.2</ele>
        <time>2025-06-12T08:04:11Z</time>
      </trkpt>
      <trkpt lat="44.61967" lon="6.1995">
        <ele>1286.4</ele>
        <time>2025-06-12T08:04:12Z</time>
      </trkpt>
      <trkpt lat="44.61969" lon="6.19956">
        <ele>1286.6</ele>
        <time>2025-06-12T08:04:13Z</time>
      </trkpt>
      <trkpt lat="44.61971" lon="6.19962">
        <ele>1286.6</ele>
        <time>2025-06-12T08:04:14Z</time>
      </trkpt>
      <trkpt lat="44.61972" lon="6.19968">
        <ele>1286.6</ele>
        <time>2025-06-12T08:04:15Z</time>
      </trkpt>
      <trkpt lat="44.61973" lon="6.19974">
        <ele>1286.8</ele>
        <time>2025-06-12T08:04:16Z</time>
      </trkpt>
      <trkpt lat="44.61974" lon="6.1998">
        <ele>1287</ele>
        <time>2025-06-12T08:04:17Z</time>
      </trkpt>
      <trkpt lat="44.61976" lon="6.19986">
        <ele>1287.2</ele>
        <time>2025-06-12T08:04:18Z</time>
      </trkpt>
      <trkpt lat="44.61977" lon="6.19991">
        <ele>1287.2</ele>
        <time>2025-06-12T08:04:19Z</time>
      </trkpt>
      <trkpt lat="44.61979" lon="6.19997">
        <ele>1287.2</ele>
        <time>2025-06-12T08:04:20Z</time>
      </trkpt>
      <trkpt lat="44.6198" lon="6.20003">
        <ele>1287.4</ele>
        <time>2025-06-12T08:04:21Z</time>
      </trkpt>
      <trkpt lat="44.61981" lon="6.20009">
        <ele>1287.4</ele>
        <time>2025-06-12T08:04:22Z</time>
      </trkpt>
      <trkpt lat="44.61983" lon="6.20015">
        <ele>1287.6</ele>
        <time>2025-06-12T08:04:23Z</time>
      </trkpt>
      <trkpt lat="44.61986" lon="6.20027">
        <ele>1288</ele>
        <time>2025-06-12T08:04:25Z</time>
      </trkpt>
      <trkpt lat="44.61987" lon="6.20032">
        <ele>1288.2</ele>
        <time>2025-06-12T08:04:26Z</time>
      </trkpt>
      <trkpt lat="44.61989" lon="6.20038">
        <ele>1288.2</ele>
        <time>2025-06-12T08:04:27Z</time>
      </trkpt>
      <trkpt lat="44.61991" lon="6.20043">
        <ele>1288.2</ele>
        <time>2025-06-12T08:04:28Z</time>
      </trkpt>
      <trkpt lat="44.61992" lon="6.20049">
        <ele>1288.4</ele>
        <time>2025-06-12T08:04:29Z</time>
      </trkpt>
      <trkpt lat="44.61994" lon="6.20055">
        <ele>1288.4</ele>
        <time>2025-06-12T08:04:30Z</time>
      </trkpt>
      <trkpt lat="44.61996" lon="6.2006">
        <ele>1288.4</ele>
        <time>2025-06-12T08:04:31Z</time>
      </trkpt>
      <trkpt lat="44.61998" lon="6.20066">
        <ele>1288.4</ele>
        <time>2025-06-12T08:04:32Z</time>
      </trkpt>
      <trkpt lat="44.62" lon="6.20071">
        <ele>1288.6</ele>
        <time>2025-06-12T08:04:33Z</time>
      </trkpt>
      <trkpt lat="44.62002" lon="6.20076">
        <ele>1288.6</ele>
        <time>2025-06-12T08:04:34Z</time>
      </trkpt>
      <trkpt lat="44.62004" lon="6.20082">
        <ele>1288.6</ele>
        <time>2025-06-12T08:04:35Z</time>
      </trkpt>
      <trkpt lat="44.62007" lon="6.20087">
        <ele>1288.8</ele>
        <time>2025-06-12T08:04:36Z</time>
      </trkpt>
      <trkpt lat="44.62009" lon="6.20092">
        <ele>1288.8</ele>
        <time>2025-06-12T08:04:37Z</time>
      </trkpt>
      <trkpt lat="44.62011" lon="6.20097">
        <ele>1288.8</ele>
        <time>2025-06-12T08:04:38Z</time>
      </trkpt>
      <trkpt lat="44.62016" lon="6.20107">
        <ele>1289</ele>
        <time>2025-06-12T08:04:40Z</time>
      </trkpt>
      <trkpt lat="44.62019" lon="6.20112">
        <ele>1289</ele>
        <time>2025-06-12T08:04:41Z</time>
      </trkpt>
      <trkpt lat="44.62022" lon="6.20117">
        <ele>1289</ele>
        <time>2025-06-12T08:04:42Z</time>
      </trkpt>
      <trkpt lat="44.62024" lon="6.20122">
        <ele>1289</ele>
        <time>2025-06-12T08:04:43Z</time>
      </trkpt>
      <trkpt lat="44.62027" lon="6.20127">
        <ele>1289</ele>
        <time>2025-06-12T08:04:44Z</time>
      </trkpt>
      <trkpt lat="44.6203" lon="6.20132">
        <ele>1289</ele>
        <time>2025-06-12T08:04:45Z</time>
      </trkpt>
      <trkpt lat="44.62032" lon="6.20137">
        <ele>1289</ele>
        <time>2025-06-12T08:04:46Z</time>
      </trkpt>
      <trkpt lat="44.62035" lon="6.20142">
        <ele>1289.2</ele>
        <time>2025-06-12T08:04:47Z</time>
      </trkpt>
      <trkpt lat="44.62038" lon="6.20148">
        <ele>1289.2</ele>
        <time>2025-06-12T08:04:48Z</time>
      </trkpt>
      <trkpt lat="44.62041" lon="6.20153">
        <ele>1289.2</ele>
        <time>2025-06-12T08:04:49Z</time>
      </trkpt>
      <trkpt lat="44.62043" lon="6.20158">
        <ele>1289.2</ele>
        <time>2025-06-12T08:04:50Z</time>
      </trkpt>
      <trkpt lat="44.62046" lon="6.20164">
        <ele>1289.2</ele>
        <time>2025-06-12T08:04:51Z</time>
      </trkpt>
      <trkpt lat="44.62052" lon="6.20175">
        <ele>1289.2</ele>
        <time>2025-06-12T08:04:53Z</time>
      </trkpt>
      <trkpt lat="44.62058" lon="6.20185">
        <ele>1289.2</ele>
        <time>2025-06-12T08:04:55Z</time>
      </trkpt>
      <trkpt lat="44.62061" lon="6.20191">
        <ele>1289.2</ele>
        <time>2025-06-12T08:04:56Z</time>
      </trkpt>
      <trkpt lat="44.62065" lon="6.20196">
        <ele>1289.2</ele>
        <time>2025-06-12T08:04:57Z</time>
      </trkpt>
      <trkpt lat="44.62068" lon="6.20201">
        <ele>1289.2</ele>
        <time>2025-06-12T08:04:58Z</time>
      </trkpt>
      <trkpt lat="44.62072" lon="6.20205">
        <ele>1289.2</ele>
        <time>2025-06-12T08:04:59Z</time>
      </trkpt>
      <trkpt lat="44.62075" lon="6.2021">
        <ele>1289</ele>
        <time>2025-06-12T08:05:00Z</time>
      </trkpt>
      <trkpt lat="44.62079" lon="6.20215">
        <ele>1289</ele>
        <time>2025-06-12T08:05:01Z</time>
      </trkpt>
      <trkpt lat="44.62082" lon="6.20219">
        <ele>1289</ele>
        <time>2025-06-12T08:05:02Z</time>
      </trkpt>
      <trkpt lat="44.62085" lon="6.20224">
        <ele>1289</ele>
        <time>2025-06-12T08:05:03Z</time>
      </trkpt>
      <trkpt lat="44.62089" lon="6.20228">
        <ele>1289</ele>
        <time>2025-06-12T08:05:04Z</time>
      </trkpt>
      <trkpt lat="44.62092" lon="6.20233">
        <ele>1289</ele>
        <time>2025-06-12T08:05:05Z</time>
      </trkpt>
      <trkpt lat="44.62095" lon="6.20237">
        <ele>1289</ele>
        <time>2025-06-12T08:05:06Z</time>
      </trkpt>
      <trkpt lat="44.62102" lon="6.20246">
        <ele>1289</ele>
        <time>2025-06-12T08:05:08Z</time>
      </trkpt>
      <trkpt lat="44.62108" lon="6.20255">
        <ele>1289</ele>
        <time>2025-06-12T08:05:10Z</time>
      </trkpt>
      <trkpt lat="44.62112" lon="6.20265">
        <ele>1289.2</ele>
        <time>2025-06-12T08:05:12Z</time>
      </trkpt>
      <trkpt lat="44.62116" lon="6.20275">
        <ele>1289.2</ele>
        <time>2025-06-12T08:05:14Z</time>
      </trkpt>
      <trkpt lat="44.6212" lon="6.20287">
        <ele>1289.6</ele>
        <time>2025-06-12T08:05:16Z</time>
      </trkpt>
      <trkpt lat="44.62121" lon="6.20293">
        <ele>1289.6</ele>
        <time>2025-06-12T08:05:17Z</time>
      </trkpt>
      <trkpt lat="44.62122" lon="6.20299">
        <ele>1289.8</ele>
        <time>2025-06-12T08:05:18Z</time>
      </trkpt>
      <trkpt lat="44.62123" lon="6.20305">
        <ele>1290</ele>
        <time>2025-06-12T08:05:19Z</time>
      </trkpt>
      <trkpt lat="44.62124" lon="6.20311">
        <ele>1290.4</ele>
        <time>2025-06-12T08:05:20Z</time>
      </trkpt>
      <trkpt lat="44.62125" lon="6.20318">
        <ele>1290.6</ele>
        <time>2025-06-12T08:05:21Z</time>
      </trkpt>
      <trkpt lat="44.62126" lon="6.20324">
        <ele>1290.8</ele>
        <time>2025-06-12T08:05:22Z</time>
      </trkpt>
      <trkpt lat="44.62127" lon="6.20331">
        <ele>1291</ele>
        <time>2025-06-12T08:05:23Z</time>
      </trkpt>
      <trkpt lat="44.62129" lon="6.20343">
        <ele>1291</ele>
        <time>2025-06-12T08:05:25Z</time>
      </trkpt>
      <trkpt lat="44.6213" lon="6.20356">
        <ele>1291.4</ele>
        <time>2025-06-12T08:05:27Z</time>
      </trkpt>
      <trkpt lat="44.62132" lon="6.20369">
        <ele>1291.4</ele>
        <time>2025-06-12T08:05:29Z</time>
      </trkpt>
      <trkpt lat="44.62133" lon="6.20375">
        <ele>1291.6</ele>
        <time>2025-06-12T08:05:30Z</time>
      </trkpt>
      <trkpt lat="44.62133" lon="6.20381">
        <ele>1291.6</ele>
        <time>2025-06-12T08:05:31Z</time>
      </trkpt>
      <trkpt lat="44.62134" lon="6.20388">
        <ele>1291.8</ele>
        <time>2025-06-12T08:05:32Z</time>
      </trkpt>
      <trkpt lat="44.62135" lon="6.20394">
        <ele>1292</ele>
        <time>2025-06-12T08:05:33Z</time>
      </trkpt>
      <trkpt lat="44.62136" lon="6.204">
        <ele>1292</ele>
        <time>2025-06-12T08:05:34Z</time>
      </trkpt>
      <trkpt lat="44.62136" lon="6.20407">
        <ele>1292</ele>
        <time>2025-06-12T08:05:35Z</time>
      </trkpt>
      <trkpt lat="44.62137" lon="6.20413">
        <ele>1292</ele>
        <time>2025-06-12T08:05:36Z</time>
      </trkpt>
      <trkpt lat="44.62137" lon="6.20419">
        <ele>1292.2</ele>
        <time>2025-06-12T08:05:37Z</time>
      </trkpt>
      <trkpt lat="44.62138" lon="6.20426">
        <ele>1292</ele>
        <time>2025-06-12T08:05:38Z</time>
      </trkpt>
      <trkpt lat="44.62139" lon="6.20432">
        <ele>1292.4</ele>
        <time>2025-06-12T08:05:39Z</time>
      </trkpt>
      <trkpt lat="44.62139" lon="6.20439">
        <ele>1292.2</ele>
        <time>2025-06-12T08:05:40Z</time>
      </trkpt>
      <trkpt lat="44.6214" lon="6.20445">
        <ele>1292.6</ele>
        <time>2025-06-12T08:05:41Z</time>
      </trkpt>
      <trkpt lat="44.6214" lon="6.20452">
        <ele>1292.8</ele>
        <time>2025-06-12T08:05:42Z</time>
      </trkpt>
      <trkpt lat="44.6214" lon="6.20458">
        <ele>1293</ele>
        <time>2025-06-12T08:05:43Z</time>
      </trkpt>
      <trkpt lat="44.62141" lon="6.20464">
        <ele>1293</ele>
        <time>2025-06-12T08:05:44Z</time>
      </trkpt>
      <trkpt lat="44.62141" lon="6.20477">
        <ele>1293.2</ele>
        <time>2025-06-12T08:05:46Z</time>
      </trkpt>
      <trkpt lat="44.62142" lon="6.2049">
        <ele>1293.4</ele>
        <time>2025-06-12T08:05:48Z</time>
      </trkpt>
      <trkpt lat="44.62142" lon="6.20496">
        <ele>1293.4</ele>
        <time>2025-06-12T08:05:49Z</time>
      </trkpt>
      <trkpt lat="44.62141" lon="6.20502">
        <ele>1293.6</ele>
        <time>2025-06-12T08:05:50Z</time>
      </trkpt>
      <trkpt lat="44.62141" lon="6.20508">
        <ele>1293.6</ele>
        <time>2025-06-12T08:05:51Z</time>
      </trkpt>
      <trkpt lat="44.62141" lon="6.20513">
        <ele>1293.6</ele>
        <time>2025-06-12T08:05:52Z</time>
      </trkpt>
      <trkpt lat="44.62141" lon="6.20519">
        <ele>1293.8</ele>
        <time>2025-06-12T08:05:53Z</time>
      </trkpt>
      <trkpt lat="44.62141" lon="6.20525">
        <ele>1293.8</ele>
        <time>2025-06-12T08:05:54Z</time>
      </trkpt>
      <trkpt lat="44.62141" lon="6.20531">
        <ele>1294</ele>
        <time>2025-06-12T08:05:55Z</time>
      </trkpt>
      <trkpt lat="44.62141" lon="6.20536">
        <ele>1294.2</ele>
        <time>2025-06-12T08:05:56Z</time>
      </trkpt>
      <trkpt lat="44.62142" lon="6.20542">
        <ele>1294.6</ele>
        <time>2025-06-12T08:05:57Z</time>
      </trkpt>
      <trkpt lat="44.62141" lon="6.20547">
        <ele>1294.8</ele>
        <time>2025-06-12T08:05:58Z</time>
      </trkpt>
      <trkpt lat="44.62141" lon="6.20553">
        <ele>1295</ele>
        <time>2025-06-12T08:05:59Z</time>
      </trkpt>
      <trkpt lat="44.62141" lon="6.20558">
        <ele>1295</ele>
        <time>2025-06-12T08:06:00Z</time>
      </trkpt>
      <trkpt lat="44.62142" lon="6.20564">
        <ele>1295.2</ele>
        <time>2025-06-12T08:06:01Z</time>
      </trkpt>
      <trkpt lat="44.62142" lon="6.20569">
        <ele>1295.4</ele>
        <time>2025-06-12T08:06:02Z</time>
      </trkpt>
      <trkpt lat="44.62142" lon="6.20574">
        <ele>1295.4</ele>
        <time>2025-06-12T08:06:03Z</time>
      </trkpt>
      <trkpt lat="44.62143" lon="6.20585">
        <ele>1295.6</ele>
        <time>2025-06-12T08:06:05Z</time>
      </trkpt>
      <trkpt lat="44.62144" lon="6.20596">
        <ele>1296</ele>
        <time>2025-06-12T08:06:07Z</time>
      </trkpt>
      <trkpt lat="44.62145" lon="6.20601">
        <ele>1296</ele>
        <time>2025-06-12T08:06:08Z</time>
      </trkpt>
      <trkpt lat="44.62145" lon="6.20606">
        <ele>1296.2</ele>
        <time>2025-06-12T08:06:09Z</time>
      </trkpt>
      <trkpt lat="44.62146" lon="6.20611">
        <ele>1296.4</ele>
        <time>2025-06-12T08:06:10Z</time>
      </trkpt>
      <trkpt lat="44.62147" lon="6.20616">
        <ele>1296.6</ele>
        <time>2025-06-12T08:06:11Z</time>
      </trkpt>
      <trkpt lat="44.62148" lon="6.20621">
        <ele>1296.8</ele>
        <time>2025-06-12T08:06:12Z</time>
      </trkpt>
      <trkpt lat="44.62149" lon="6.20626">
        <ele>1296.8</ele>
        <time>2025-06-12T08:06:13Z</time>
      </trkpt>
      <trkpt lat="44.6215" lon="6.20631">
        <ele>1297</ele>
        <time>2025-06-12T08:06:14Z</time>
      </trkpt>
      <trkpt lat="44.62151" lon="6.20636">
        <ele>1297</ele>
        <time>2025-06-12T08:06:15Z</time>
      </trkpt>
      <trkpt lat="44.62153" lon="6.20641">
        <ele>1297.2</ele>
        <time>2025-06-12T08:06:16Z</time>
      </trkpt>
      <trkpt lat="44.62155" lon="6.20651">
        <ele>1297.4</ele>
        <time>2025-06-12T08:06:18Z</time>
      </trkpt>
      <trkpt lat="44.62156" lon="6.20656">
        <ele>1297.4</ele>
        <time>2025-06-12T08:06:19Z</time>
      </trkpt>
      <trkpt lat="44.62157" lon="6.20661">
        <ele>1297.4</ele>
        <time>2025-06-12T08:06:20Z</time>
      </trkpt>
      <trkpt lat="44.62159" lon="6.20666">
        <ele>1297.6</ele>
        <time>2025-06-12T08:06:21Z</time>
      </trkpt>
      <trkpt lat="44.6216" lon="6.20671">
        <ele>1297.6</ele>
        <time>2025-06-12T08:06:22Z</time>
      </trkpt>
      <trkpt lat="44.62161" lon="6.20676">
        <ele>1297.6</ele>
        <time>2025-06-12T08:06:23Z</time>
      </trkpt>
      <trkpt lat="44.62163" lon="6.20681">
        <ele>1297.8</ele>
        <time>2025-06-12T08:06:24Z</time>
      </trkpt>
      <trkpt lat="44.62164" lon="6.20686">
        <ele>1298</ele>
        <time>2025-06-12T08:06:25Z</time>
      </trkpt>
      <trkpt lat="44.62166" lon="6.20691">
        <ele>1298.2</ele>
        <time>2025-06-12T08:06:26Z</time>
      </trkpt>
      <trkpt lat="44.62168" lon="6.20696">
        <ele>1298.4</ele>
        <time>2025-06-12T08:06:27Z</time>
      </trkpt>
      <trkpt lat="44.6217" lon="6.20706">
        <ele>1298.6</ele>
        <time>2025-06-12T08:06:29Z</time>
      </trkpt>
      <trkpt lat="44.62173" lon="6.20716">
        <ele>1298.8</ele>
        <time>2025-06-12T08:06:31Z</time>
      </trkpt>
      <trkpt lat="44.62176" lon="6.20726">
        <ele>1299.2</ele>
        <time>2025-06-12T08:06:33Z</time>
      </trkpt>
      <trkpt lat="44.62177" lon="6.20731">
        <ele>1299.4</ele>
        <time>2025-06-12T08:06:34Z</time>
      </trkpt>
      <trkpt lat="44.62179" lon="6.20736">
        <ele>1299.4</ele>
        <time>2025-06-12T08:06:35Z</time>
      </trkpt>
      <trkpt lat="44.6218" lon="6.20741">
        <ele>1299.6</ele>
        <time>2025-06-12T08:06:36Z</time>
      </trkpt>
      <trkpt lat="44.62181" lon="6.20746">
        <ele>1299.8</ele>
        <time>2025-06-12T08:06:37Z</time>
      </trkpt>
      <trkpt lat="44.62183" lon="6.2075">
        <ele>1299.8</ele>
        <time>2025-06-12T08:06:38Z</time>
      </trkpt>
      <trkpt lat="44.62184" lon="6.20755">
        <ele>1300</ele>
        <time>2025-06-12T08:06:39Z</time>
      </trkpt>
      <trkpt lat="44.62185" lon="6.2076">
        <ele>1300</ele>
        <time>2025-06-12T08:06:40Z</time>
      </trkpt>
      <trkpt lat="44.62186" lon="6.20765">
        <ele>1300</ele>
        <time>2025-06-12T08:06:41Z</time>
      </trkpt>
      <trkpt lat="44.62187" lon="6.20771">
        <ele>1300.2</ele>
        <time>2025-06-12T08:06:42Z</time>
      </trkpt>
      <trkpt lat="44.62188" lon="6.20776">
        <ele>1300.4</ele>
        <time>2025-06-12T08:06:43Z</time>
      </trkpt>
      <trkpt lat="44.62189" lon="6.20781">
        <ele>1300.4</ele>
        <time>2025-06-12T08:06:44Z</time>
      </trkpt>
      <trkpt lat="44.62191" lon="6.20791">
        <ele>1300.6</ele>
        <time>2025-06-12T08:06:46Z</time>
      </trkpt>
      <trkpt lat="44.62193" lon="6.20801">
        <ele>1300.8</ele>
        <time>2025-06-12T08:06:48Z</time>
      </trkpt>
      <trkpt lat="44.62196" lon="6.20811">
        <ele>1300.8</ele>
        <time>2025-06-12T08:06:50Z</time>
      </trkpt>
      <trkpt lat="44.62197" lon="6.20816">
        <ele>1300.8</ele>
        <time>2025-06-12T08:06:51Z</time>
      </trkpt>
      <trkpt lat="44.62198" lon="6.20822">
        <ele>1301</ele>
        <time>2025-06-12T08:06:52Z</time>
      </trkpt>
      <trkpt lat="44.62199" lon="6.20827">
        <ele>1301</ele>
        <time>2025-06-12T08:06:53Z</time>
      </trkpt>
      <trkpt lat="44.622" lon="6.20832">
        <ele>1301</ele>
        <time>2025-06-12T08:06:54Z</time>
      </trkpt>
      <trkpt lat="44.62201" lon="6.20837">
        <ele>1301.2</ele>
        <time>2025-06-12T08:06:55Z</time>
      </trkpt>
      <trkpt lat="44.62202" lon="6.20842">
        <ele>1301.4</ele>
        <time>2025-06-12T08:06:56Z</time>
      </trkpt>
      <trkpt lat="44.62203" lon="6.20847">
        <ele>1301.6</ele>
        <time>2025-06-12T08:06:57Z</time>
      </trkpt>
      <trkpt lat="44.62204" lon="6.20852">
        <ele>1301.8</ele>
        <time>2025-06-12T08:06:58Z</time>
      </trkpt>
      <trkpt lat="44.62205" lon="6.20857">
        <ele>1302</ele>
        <time>2025-06-12T08:06:59Z</time>
      </trkpt>
      <trkpt lat="44.62206" lon="6.20862">
        <ele>1302</ele>
        <time>2025-06-12T08:07:00Z</time>
      </trkpt>
      <trkpt lat="44.62207" lon="6.20867">
        <ele>1302</ele>
        <time>2025-06-12T08:07:01Z</time>
      </trkpt>
      <trkpt lat="44.62208" lon="6.20872">
        <ele>1302.2</ele>
        <time>2025-06-12T08:07:02Z</time>
      </trkpt>
      <trkpt lat="44.62209" lon="6.20877">
        <ele>1302.4</ele>
        <time>2025-06-12T08:07:03Z</time>
      </trkpt>
      <trkpt lat="44.62211" lon="6.20886">
        <ele>1302.8</ele>
        <time>2025-06-12T08:07:05Z</time>
      </trkpt>
      <trkpt lat="44.62214" lon="6.20896">
        <ele>1303.2</ele>
        <time>2025-06-12T08:07:07Z</time>
      </trkpt>
      <trkpt lat="44.62215" lon="6.209">
        <ele>1303.4</ele>
        <time>2025-06-12T08:07:08Z</time>
      </trkpt>
      <trkpt lat="44.62216" lon="6.20905">
        <ele>1303.4</ele>
        <time>2025-06-12T08:07:09Z</time>
      </trkpt>
      <trkpt lat="44.62217" lon="6.20914">
        <ele>1303.6</ele>
        <time>2025-06-12T08:07:11Z</time>
      </trkpt>
      <trkpt lat="44.62219" lon="6.20923">
        <ele>1304</ele>
        <time>2025-06-12T08:07:13Z</time>
      </trkpt>
      <trkpt lat="44.62219" lon="6.20926">
        <ele>1304.2</ele>
        <time>2025-06-12T08:07:14Z</time>
      </trkpt>
      <trkpt lat="44.62219" lon="6.20929">
        <ele>1304.2</ele>
        <time>2025-06-12T08:07:15Z</time>
      </trkpt>
      <trkpt lat="44.62219" lon="6.20932">
        <ele>1304.4</ele>
        <time>2025-06-12T08:07:16Z</time>
      </trkpt>
      <trkpt lat="44.62219" lon="6.20936">
        <ele>1304.4</ele>
        <time>2025-06-12T08:07:17Z</time>
      </trkpt>
      <trkpt lat="44.62221" lon="6.20939">
        <ele>1304.6</ele>
        <time>2025-06-12T08:07:18Z</time>
      </trkpt>
      <trkpt lat="44.62222" lon="6.20941">
        <ele>1304.6</ele>
        <time>2025-06-12T08:07:19Z</time>
      </trkpt>
      <trkpt lat="44.62225" lon="6.20943">
        <ele>1304.8</ele>
        <time>2025-06-12T08:07:20Z</time>
      </trkpt>
      <trkpt lat="44.62229" lon="6.20944">
        <ele>1304.8</ele>
        <time>2025-06-12T08:07:21Z</time>
      </trkpt>
      <trkpt lat="44.62232" lon="6.20944">
        <ele>1305</ele>
        <time>2025-06-12T08:07:22Z</time>
      </trkpt>
      <trkpt lat="44.62236" lon="6.20944">
        <ele>1305</ele>
        <time>2025-06-12T08:07:23Z</time>
      </trkpt>
      <trkpt lat="44.62239" lon="6.20944">
        <ele>1305.2</ele>
        <time>2025-06-12T08:07:24Z</time>
      </trkpt>
      <trkpt lat="44.62242" lon="6.20945">
        <ele>1305.2</ele>
        <time>2025-06-12T08:07:25Z</time>
      </trkpt>
      <trkpt lat="44.62246" lon="6.20945">
        <ele>1305</ele>
        <time>2025-06-12T08:07:26Z</time>
      </trkpt>
      <trkpt lat="44.62249" lon="6.20945">
        <ele>1305.4</ele>
        <time>2025-06-12T08:07:27Z</time>
      </trkpt>
      <trkpt lat="44.62252" lon="6.20946">
        <ele>1305.4</ele>
        <time>2025-06-12T08:07:28Z</time>
      </trkpt>
      <trkpt lat="44.62256" lon="6.20946">
        <ele>1305.2</ele>
        <time>2025-06-12T08:07:29Z</time>
      </trkpt>
      <trkpt lat="44.62259" lon="6.20947">
        <ele>1305.4</ele>
        <time>2025-06-12T08:07:30Z</time>
      </trkpt>
      <trkpt lat="44.62267" lon="6.20948">
        <ele>1305.4</ele>
        <time>2025-06-12T08:07:32Z</time>
      </trkpt>
      <trkpt lat="44.62275" lon="6.20949">
        <ele>1305.4</ele>
        <time>2025-06-12T08:07:34Z</time>
      </trkpt>
      <trkpt lat="44.62283" lon="6.20951">
        <ele>1305.4</ele>
        <time>2025-06-12T08:07:36Z</time>
      </trkpt>
      <trkpt lat="44.62287" lon="6.20951">
        <ele>1305.4</ele>
        <time>2025-06-12T08:07:37Z</time>
      </trkpt>
      <trkpt lat="44.62291" lon="6.20951">
        <ele>1305.2</ele>
        <time>2025-06-12T08:07:38Z</time>
      </trkpt>
      <trkpt lat="44.62295" lon="6.20951">
        <ele>1305.2</ele>
        <time>2025-06-12T08:07:39Z</time>
      </trkpt>
      <trkpt lat="44.62299" lon="6.20953">
        <ele>1305.2</ele>
        <time>2025-06-12T08:07:40Z</time>
      </trkpt>
      <trkpt lat="44.62302" lon="6.20956">
        <ele>1305.2</ele>
        <time>2025-06-12T08:07:41Z</time>
      </trkpt>
      <trkpt lat="44.62306" lon="6.2096">
        <ele>1305</ele>
        <time>2025-06-12T08:07:42Z</time>
      </trkpt>
      <trkpt lat="44.62308" lon="6.20965">
        <ele>1305</ele>
        <time>2025-06-12T08:07:43Z</time>
      </trkpt>
      <trkpt lat="44.62309" lon="6.20971">
        <ele>1305</ele>
        <time>2025-06-12T08:07:44Z</time>
      </trkpt>
      <trkpt lat="44.62309" lon="6.20976">
        <ele>1305</ele>
        <time>2025-06-12T08:07:45Z</time>
      </trkpt>
      <trkpt lat="44.62307" lon="6.20982">
        <ele>1305</ele>
        <time>2025-06-12T08:07:46Z</time>
      </trkpt>
      <trkpt lat="44.62306" lon="6.20987">
        <ele>1305</ele>
        <time>2025-06-12T08:07:47Z</time>
      </trkpt>
      <trkpt lat="44.62304" lon="6.20992">
        <ele>1305</ele>
        <time>2025-06-12T08:07:48Z</time>
      </trkpt>
      <trkpt lat="44.62302" lon="6.20997">
        <ele>1305</ele>
        <time>2025-06-12T08:07:49Z</time>
      </trkpt>
      <trkpt lat="44.62298" lon="6.21008">
        <ele>1305</ele>
        <time>2025-06-12T08:07:51Z</time>
      </trkpt>
      <trkpt lat="44.62296" lon="6.21013">
        <ele>1305</ele>
        <time>2025-06-12T08:07:52Z</time>
      </trkpt>
      <trkpt lat="44.62295" lon="6.21019">
        <ele>1305.2</ele>
        <time>2025-06-12T08:07:53Z</time>
      </trkpt>
      <trkpt lat="44.62294" lon="6.21025">
        <ele>1305.4</ele>
        <time>2025-06-12T08:07:54Z</time>
      </trkpt>
      <trkpt lat="44.62293" lon="6.2103">
        <ele>1305.4</ele>
        <time>2025-06-12T08:07:55Z</time>
      </trkpt>
      <trkpt lat="44.62292" lon="6.21036">
        <ele>1305.4</ele>
        <time>2025-06-12T08:07:56Z</time>
      </trkpt>
      <trkpt lat="44.62291" lon="6.21042">
        <ele>1305.6</ele>
        <time>2025-06-12T08:07:57Z</time>
      </trkpt>
      <trkpt lat="44.6229" lon="6.21047">
        <ele>1305.6</ele>
        <time>2025-06-12T08:07:58Z</time>
      </trkpt>
      <trkpt lat="44.6229" lon="6.21053">
        <ele>1305.8</ele>
        <time>2025-06-12T08:07:59Z</time>
      </trkpt>
      <trkpt lat="44.6229" lon="6.21058">
        <ele>1305.8</ele>
        <time>2025-06-12T08:08:00Z</time>
      </trkpt>
      <trkpt lat="44.6229" lon="6.21064">
        <ele>1305.8</ele>
        <time>2025-06-12T08:08:01Z</time>
      </trkpt>
      <trkpt lat="44.62291" lon="6.21069">
        <ele>1305.8</ele>
        <time>2025-06-12T08:08:02Z</time>
      </trkpt>
      <trkpt lat="44.62292" lon="6.21074">
        <ele>1305.8</ele>
        <time>2025-06-12T08:08:03Z</time>
      </trkpt>
      <trkpt lat="44.62292" lon="6.2108">
        <ele>1306</ele>
        <time>2025-06-12T08:08:04Z</time>
      </trkpt>
      <trkpt lat="44.62295" lon="6.2109">
        <ele>1306</ele>
        <time>2025-06-12T08:08:06Z</time>
      </trkpt>
      <trkpt lat="44.62298" lon="6.211">
        <ele>1306.2</ele>
        <time>2025-06-12T08:08:08Z</time>
      </trkpt>
      <trkpt lat="44.623" lon="6.21105">
        <ele>1306.2</ele>
        <time>2025-06-12T08:08:09Z</time>
      </trkpt>
      <trkpt lat="44.62303" lon="6.21109">
        <ele>1306.4</ele>
        <time>2025-06-12T08:08:10Z</time>
      </trkpt>
      <trkpt lat="44.62309" lon="6.21115">
        <ele>1306.8</ele>
        <time>2025-06-12T08:08:12Z</time>
      </trkpt>
      <trkpt lat="44.62312" lon="6.21116">
        <ele>1307</ele>
        <time>2025-06-12T08:08:13Z</time>
      </trkpt>
      <trkpt lat="44.62316" lon="6.21117">
        <ele>1307.2</ele>
        <time>2025-06-12T08:08:14Z</time>
      </trkpt>
      <trkpt lat="44.6232" lon="6.21118">
        <ele>1307.2</ele>
        <time>2025-06-12T08:08:15Z</time>
      </trkpt>
      <trkpt lat="44.62323" lon="6.21117">
        <ele>1307.4</ele>
        <time>2025-06-12T08:08:16Z</time>
      </trkpt>
      <trkpt lat="44.62327" lon="6.21115">
        <ele>1307.6</ele>
        <time>2025-06-12T08:08:17Z</time>
      </trkpt>
      <trkpt lat="44.6233" lon="6.21113">
        <ele>1307.8</ele>
        <time>2025-06-12T08:08:18Z</time>
      </trkpt>
      <trkpt lat="44.62334" lon="6.2111">
        <ele>1308</ele>
        <time>2025-06-12T08:08:19Z</time>
      </trkpt>
      <trkpt lat="44.62341" lon="6.21104">
        <ele>1308.2</ele>
        <time>2025-06-12T08:08:21Z</time>
      </trkpt>
      <trkpt lat="44.62348" lon="6.21097">
        <ele>1308.6</ele>
        <time>2025-06-12T08:08:23Z</time>
      </trkpt>
      <trkpt lat="44.62356" lon="6.2109">
        <ele>1308.8</ele>
        <time>2025-06-12T08:08:25Z</time>
      </trkpt>
      <trkpt lat="44.6236" lon="6.21087">
        <ele>1308.8</ele>
        <time>2025-06-12T08:08:26Z</time>
      </trkpt>
      <trkpt lat="44.62364" lon="6.21084">
        <ele>1308.8</ele>
        <time>2025-06-12T08:08:27Z</time>
      </trkpt>
      <trkpt lat="44.62368" lon="6.2108">
        <ele>1308.8</ele>
        <time>2025-06-12T08:08:28Z</time>
      </trkpt>
      <trkpt lat="44.62371" lon="6.21077">
        <ele>1309</ele>
        <time>2025-06-12T08:08:29Z</time>
      </trkpt>
      <trkpt lat="44.62374" lon="6.21073">
        <ele>1309</ele>
        <time>2025-06-12T08:08:30Z</time>
      </trkpt>
      <trkpt lat="44.62378" lon="6.21069">
        <ele>1309</ele>
        <time>2025-06-12T08:08:31Z</time>
      </trkpt>
      <trkpt lat="44.62381" lon="6.21066">
        <ele>1309</ele>
        <time>2025-06-12T08:08:32Z</time>
      </trkpt>
      <trkpt lat="44.62388" lon="6.2106">
        <ele>1309</ele>
        <time>2025-06-12T08:08:34Z</time>
      </trkpt>
      <trkpt lat="44.62392" lon="6.21057">
        <ele>1309</ele>
        <time>2025-06-12T08:08:35Z</time>
      </trkpt>
      <trkpt lat="44.62395" lon="6.21053">
        <ele>1309</ele>
        <time>2025-06-12T08:08:36Z</time>
      </trkpt>
      <trkpt lat="44.62402" lon="6.21048">
        <ele>1309.2</ele>
        <time>2025-06-12T08:08:38Z</time>
      </trkpt>
      <trkpt lat="44.62404" lon="6.21045">
        <ele>1309.4</ele>
        <time>2025-06-12T08:08:39Z</time>
      </trkpt>
      <trkpt lat="44.62407" lon="6.21042">
        <ele>1309.6</ele>
        <time>2025-06-12T08:08:40Z</time>
      </trkpt>
      <trkpt lat="44.6241" lon="6.21038">
        <ele>1309.8</ele>
        <time>2025-06-12T08:08:41Z</time>
      </trkpt>
      <trkpt lat="44.62413" lon="6.21035">
        <ele>1310</ele>
        <time>2025-06-12T08:08:42Z</time>
      </trkpt>
      <trkpt lat="44.62415" lon="6.21032">
        <ele>1310.2</ele>
        <time>2025-06-12T08:08:43Z</time>
      </trkpt>
      <trkpt lat="44.62417" lon="6.21028">
        <ele>1310.2</ele>
        <time>2025-06-12T08:08:44Z</time>
      </trkpt>
      <trkpt lat="44.62419" lon="6.21024">
        <ele>1310.4</ele>
        <time>2025-06-12T08:08:45Z</time>
      </trkpt>
      <trkpt lat="44.62422" lon="6.21015">
        <ele>1311</ele>
        <time>2025-06-12T08:08:47Z</time>
      </trkpt>
      <trkpt lat="44.62423" lon="6.21011">
        <ele>1311.4</ele>
        <time>2025-06-12T08:08:48Z</time>
      </trkpt>
      <trkpt lat="44.62425" lon="6.21007">
        <ele>1311.8</ele>
        <time>2025-06-12T08:08:49Z</time>
      </trkpt>
      <trkpt lat="44.62427" lon="6.21002">
        <ele>1312.4</ele>
        <time>2025-06-12T08:08:50Z</time>
      </trkpt>
      <trkpt lat="44.62428" lon="6.20997">
        <ele>1312.8</ele>
        <time>2025-06-12T08:08:51Z</time>
      </trkpt>
      <trkpt lat="44.6243" lon="6.20993">
        <ele>1313</ele>
        <time>2025-06-12T08:08:52Z</time>
      </trkpt>
      <trkpt lat="44.62434" lon="6.20985">
        <ele>1313.4</ele>
        <time>2025-06-12T08:08:54Z</time>
      </trkpt>
      <trkpt lat="44.62436" lon="6.20981">
        <ele>1314</ele>
        <time>2025-06-12T08:08:55Z</time>
      </trkpt>
      <trkpt lat="44.62439" lon="6.20977">
        <ele>1314.2</ele>
        <time>2025-06-12T08:08:56Z</time>
      </trkpt>
      <trkpt lat="44.62441" lon="6.20973">
        <ele>1314.4</ele>
        <time>2025-06-12T08:08:57Z</time>
      </trkpt>
      <trkpt lat="44.62444" lon="6.2097">
        <ele>1314.8</ele>
        <time>2025-06-12T08:08:58Z</time>
      </trkpt>
      <trkpt lat="44.62447" lon="6.20966">
        <ele>1315.4</ele>
        <time>2025-06-12T08:08:59Z</time>
      </trkpt>
      <trkpt lat="44.6245" lon="6.20963">
        <ele>1315.6</ele>
        <time>2025-06-12T08:09:00Z</time>
      </trkpt>
      <trkpt lat="44.62453" lon="6.2096">
        <ele>1316</ele>
        <time>2025-06-12T08:09:01Z</time>
      </trkpt>
      <trkpt lat="44.62456" lon="6.20957">
        <ele>1316.2</ele>
        <time>2025-06-12T08:09:02Z</time>
      </trkpt>
      <trkpt lat="44.6246" lon="6.20954">
        <ele>1316.6</ele>
        <time>2025-06-12T08:09:03Z</time>
      </trkpt>
      <trkpt lat="44.62467" lon="6.20948">
        <ele>1317</ele>
        <time>2025-06-12T08:09:05Z</time>
      </trkpt>
      <trkpt lat="44.62474" lon="6.20943">
        <ele>1317.2</ele>
        <time>2025-06-12T08:09:07Z</time>
      </trkpt>
      <trkpt lat="44.62477" lon="6.20939">
        <ele>1317.2</ele>
        <time>2025-06-12T08:09:08Z</time>
      </trkpt>
      <trkpt lat="44.6248" lon="6.20936">
        <ele>1317.2</ele>
        <time>2025-06-12T08:09:09Z</time>
      </trkpt>
      <trkpt lat="44.62484" lon="6.20932">
        <ele>1317.2</ele>
        <time>2025-06-12T08:09:10Z</time>
      </trkpt>
      <trkpt lat="44.62487" lon="6.20929">
        <ele>1317.2</ele>
        <time>2025-06-12T08:09:11Z</time>
      </trkpt>
      <trkpt lat="44.62491" lon="6.20925">
        <ele>1317.4</ele>
        <time>2025-06-12T08:09:12Z</time>
      </trkpt>
      <trkpt lat="44.62494" lon="6.20922">
        <ele>1317.4</ele>
        <time>2025-06-12T08:09:13Z</time>
      </trkpt>
      <trkpt lat="44.62498" lon="6.20918">
        <ele>1317.4</ele>
        <time>2025-06-12T08:09:14Z</time>
      </trkpt>
      <trkpt lat="44.62501" lon="6.20913">
        <ele>1317.4</ele>
        <time>2025-06-12T08:09:15Z</time>
      </trkpt>
      <trkpt lat="44.62504" lon="6.20909">
        <ele>1317.4</ele>
        <time>2025-06-12T08:09:16Z</time>
      </trkpt>
      <trkpt lat="44.62507" lon="6.20905">
        <ele>1317.4</ele>
        <time>2025-06-12T08:09:17Z</time>
      </trkpt>
      <trkpt lat="44.62511" lon="6.20902">
        <ele>1317.4</ele>
        <time>2025-06-12T08:09:18Z</time>
      </trkpt>
      <trkpt lat="44.62517" lon="6.20895">
        <ele>1317.4</ele>
        <time>2025-06-12T08:09:20Z</time>
      </trkpt>
      <trkpt lat="44.62523" lon="6.20888">
        <ele>1317.6</ele>
        <time>2025-06-12T08:09:22Z</time>
      </trkpt>
      <trkpt lat="44.62529" lon="6.2088">
        <ele>1317.6</ele>
        <time>2025-06-12T08:09:24Z</time>
      </trkpt>
      <trkpt lat="44.62535" lon="6.20874">
        <ele>1317.8</ele>
        <time>2025-06-12T08:09:26Z</time>
      </trkpt>
      <trkpt lat="44.62541" lon="6.20868">
        <ele>1318</ele>
        <time>2025-06-12T08:09:28Z</time>
      </trkpt>
      <trkpt lat="44.62547" lon="6.20863">
        <ele>1318.2</ele>
        <time>2025-06-12T08:09:30Z</time>
      </trkpt>
      <trkpt lat="44.6255" lon="6.20861">
        <ele>1318.4</ele>
        <time>2025-06-12T08:09:31Z</time>
      </trkpt>
      <trkpt lat="44.62553" lon="6.20858">
        <ele>1318.4</ele>
        <time>2025-06-12T08:09:32Z</time>
      </trkpt>
      <trkpt lat="44.62555" lon="6.20855">
        <ele>1318.6</ele>
        <time>2025-06-12T08:09:33Z</time>
      </trkpt>
      <trkpt lat="44.62558" lon="6.20852">
        <ele>1318.8</ele>
        <time>2025-06-12T08:09:34Z</time>
      </trkpt>
      <trkpt lat="44.62561" lon="6.20848">
        <ele>1319</ele>
        <time>2025-06-12T08:09:35Z</time>
      </trkpt>
      <trkpt lat="44.62565" lon="6.20844">
        <ele>1319</ele>
        <time>2025-06-12T08:09:36Z</time>
      </trkpt>
      <trkpt lat="44.62568" lon="6.20838">
        <ele>1319.2</ele>
        <time>2025-06-12T08:09:37Z</time>
      </trkpt>
      <trkpt lat="44.62572" lon="6.20833">
        <ele>1319.2</ele>
        <time>2025-06-12T08:09:38Z</time>
      </trkpt>
      <trkpt lat="44.62576" lon="6.20827">
        <ele>1319.2</ele>
        <time>2025-06-12T08:09:39Z</time>
      </trkpt>
      <trkpt lat="44.62581" lon="6.20821">
        <ele>1319.2</ele>
        <time>2025-06-12T08:09:40Z</time>
      </trkpt>
      <trkpt lat="44.62587" lon="6.20816">
        <ele>1319.2</ele>
        <time>2025-06-12T08:09:41Z</time>
      </trkpt>
      <trkpt lat="44.62593" lon="6.20812">
        <ele>1319.2</ele>
        <time>2025-06-12T08:09:42Z</time>
      </trkpt>
      <trkpt lat="44.62601" lon="6.20808">
        <ele>1319.2</ele>
        <time>2025-06-12T08:09:43Z</time>
      </trkpt>
      <trkpt lat="44.62608" lon="6.20805">
        <ele>1319.2</ele>
        <time>2025-06-12T08:09:44Z</time>
      </trkpt>
      <trkpt lat="44.62616" lon="6.20802">
        <ele>1319</ele>
        <time>2025-06-12T08:09:45Z</time>
      </trkpt>
      <trkpt lat="44.62624" lon="6.20799">
        <ele>1318.6</ele>
        <time>2025-06-12T08:09:46Z</time>
      </trkpt>
      <trkpt lat="44.62632" lon="6.20796">
        <ele>1317.8</ele>
        <time>2025-06-12T08:09:47Z</time>
      </trkpt>
      <trkpt lat="44.62641" lon="6.20792">
        <ele>1317.4</ele>
        <time>2025-06-12T08:09:48Z</time>
      </trkpt>
      <trkpt lat="44.62649" lon="6.20788">
        <ele>1317</ele>
        <time>2025-06-12T08:09:49Z</time>
      </trkpt>
      <trkpt lat="44.62666" lon="6.20781">
        <ele>1315.6</ele>
        <time>2025-06-12T08:09:51Z</time>
      </trkpt>
      <trkpt lat="44.62682" lon="6.20777">
        <ele>1314.6</ele>
        <time>2025-06-12T08:09:53Z</time>
      </trkpt>
      <trkpt lat="44.6269" lon="6.20776">
        <ele>1314.2</ele>
        <time>2025-06-12T08:09:54Z</time>
      </trkpt>
      <trkpt lat="44.62698" lon="6.20776">
        <ele>1313.6</ele>
        <time>2025-06-12T08:09:55Z</time>
      </trkpt>
      <trkpt lat="44.62706" lon="6.20776">
        <ele>1313.2</ele>
        <time>2025-06-12T08:09:56Z</time>
      </trkpt>
      <trkpt lat="44.62714" lon="6.20777">
        <ele>1313</ele>
        <time>2025-06-12T08:09:57Z</time>
      </trkpt>
      <trkpt lat="44.62722" lon="6.20777">
        <ele>1312.8</ele>
        <time>2025-06-12T08:09:58Z</time>
      </trkpt>
      <trkpt lat="44.6273" lon="6.20777">
        <ele>1312.4</ele>
        <time>2025-06-12T08:09:59Z</time>
      </trkpt>
      <trkpt lat="44.62738" lon="6.20776">
        <ele>1312.2</ele>
        <time>2025-06-12T08:10:00Z</time>
      </trkpt>
      <trkpt lat="44.62746" lon="6.20775">
        <ele>1312.2</ele>
        <time>2025-06-12T08:10:01Z</time>
      </trkpt>
      <trkpt lat="44.62753" lon="6.20774">
        <ele>1312</ele>
        <time>2025-06-12T08:10:02Z</time>
      </trkpt>
      <trkpt lat="44.62761" lon="6.20774">
        <ele>1312</ele>
        <time>2025-06-12T08:10:03Z</time>
      </trkpt>
      <trkpt lat="44.62768" lon="6.20773">
        <ele>1311.8</ele>
        <time>2025-06-12T08:10:04Z</time>
      </trkpt>
      <trkpt lat="44.62781" lon="6.2077">
        <ele>1311.6</ele>
        <time>2025-06-12T08:10:06Z</time>
      </trkpt>
      <trkpt lat="44.62791" lon="6.20765">
        <ele>1311.4</ele>
        <time>2025-06-12T08:10:08Z</time>
      </trkpt>
      <trkpt lat="44.628" lon="6.20759">
        <ele>1311.4</ele>
        <time>2025-06-12T08:10:10Z</time>
      </trkpt>
      <trkpt lat="44.62805" lon="6.20756">
        <ele>1311.4</ele>
        <time>2025-06-12T08:10:11Z</time>
      </trkpt>
      <trkpt lat="44.62809" lon="6.20752">
        <ele>1311.4</ele>
        <time>2025-06-12T08:10:12Z</time>
      </trkpt>
      <trkpt lat="44.62813" lon="6.20749">
        <ele>1311.4</ele>
        <time>2025-06-12T08:10:13Z</time>
      </trkpt>
      <trkpt lat="44.62817" lon="6.20746">
        <ele>1311.4</ele>
        <time>2025-06-12T08:10:14Z</time>
      </trkpt>
      <trkpt lat="44.62821" lon="6.20743">
        <ele>1311.6</ele>
        <time>2025-06-12T08:10:15Z</time>
      </trkpt>
      <trkpt lat="44.62824" lon="6.2074">
        <ele>1311.8</ele>
        <time>2025-06-12T08:10:16Z</time>
      </trkpt>
      <trkpt lat="44.62828" lon="6.20738">
        <ele>1312.4</ele>
        <time>2025-06-12T08:10:17Z</time>
      </trkpt>
      <trkpt lat="44.62832" lon="6.20735">
        <ele>1312.8</ele>
        <time>2025-06-12T08:10:18Z</time>
      </trkpt>
      <trkpt lat="44.62836" lon="6.20732">
        <ele>1313.6</ele>
        <time>2025-06-12T08:10:19Z</time>
      </trkpt>
      <trkpt lat="44.6284" lon="6.20729">
        <ele>1313.8</ele>
        <time>2025-06-12T08:10:20Z</time>
      </trkpt>
      <trkpt lat="44.62843" lon="6.20727">
        <ele>1314.2</ele>
        <time>2025-06-12T08:10:21Z</time>
      </trkpt>
      <trkpt lat="44.62847" lon="6.20725">
        <ele>1314.6</ele>
        <time>2025-06-12T08:10:22Z</time>
      </trkpt>
      <trkpt lat="44.62851" lon="6.20723">
        <ele>1315</ele>
        <time>2025-06-12T08:10:23Z</time>
      </trkpt>
      <trkpt lat="44.62855" lon="6.2072">
        <ele>1315.6</ele>
        <time>2025-06-12T08:10:24Z</time>
      </trkpt>
      <trkpt lat="44.62858" lon="6.20718">
        <ele>1316</ele>
        <time>2025-06-12T08:10:25Z</time>
      </trkpt>
      <trkpt lat="44.62862" lon="6.20715">
        <ele>1316.4</ele>
        <time>2025-06-12T08:10:26Z</time>
      </trkpt>
      <trkpt lat="44.62866" lon="6.20713">
        <ele>1316.6</ele>
        <time>2025-06-12T08:10:27Z</time>
      </trkpt>
      <trkpt lat="44.6287" lon="6.20711">
        <ele>1316.8</ele>
        <time>2025-06-12T08:10:28Z</time>
      </trkpt>
      <trkpt lat="44.62874" lon="6.20708">
        <ele>1317</ele>
        <time>2025-06-12T08:10:29Z</time>
      </trkpt>
      <trkpt lat="44.62878" lon="6.20705">
        <ele>1317.4</ele>
        <time>2025-06-12T08:10:30Z</time>
      </trkpt>
      <trkpt lat="44.62882" lon="6.20702">
        <ele>1317.6</ele>
        <time>2025-06-12T08:10:31Z</time>
      </trkpt>
      <trkpt lat="44.62886" lon="6.207">
        <ele>1317.8</ele>
        <time>2025-06-12T08:10:32Z</time>
      </trkpt>
      <trkpt lat="44.62891" lon="6.20697">
        <ele>1318</ele>
        <time>2025-06-12T08:10:33Z</time>
      </trkpt>
      <trkpt lat="44.62895" lon="6.20695">
        <ele>1318</ele>
        <time>2025-06-12T08:10:34Z</time>
      </trkpt>
      <trkpt lat="44.62899" lon="6.20692">
        <ele>1318.2</ele>
        <time>2025-06-12T08:10:35Z</time>
      </trkpt>
      <trkpt lat="44.62903" lon="6.2069">
        <ele>1318.2</ele>
        <time>2025-06-12T08:10:36Z</time>
      </trkpt>
      <trkpt lat="44.62908" lon="6.20688">
        <ele>1318.2</ele>
        <time>2025-06-12T08:10:37Z</time>
      </trkpt>
      <trkpt lat="44.62912" lon="6.20686">
        <ele>1318.4</ele>
        <time>2025-06-12T08:10:38Z</time>
      </trkpt>
      <trkpt lat="44.62916" lon="6.20684">
        <ele>1318.4</ele>
        <time>2025-06-12T08:10:39Z</time>
      </trkpt>
      <trkpt lat="44.62921" lon="6.20682">
        <ele>1318.4</ele>
        <time>2025-06-12T08:10:40Z</time>
      </trkpt>
      <trkpt lat="44.62925" lon="6.20681">
        <ele>1318.4</ele>
        <time>2025-06-12T08:10:41Z</time>
      </trkpt>
      <trkpt lat="44.62929" lon="6.20679">
        <ele>1318.4</ele>
        <time>2025-06-12T08:10:42Z</time>
      </trkpt>
      <trkpt lat="44.62933" lon="6.20678">
        <ele>1318.4</ele>
        <time>2025-06-12T08:10:43Z</time>
      </trkpt>
      <trkpt lat="44.62937" lon="6.20677">
        <ele>1318.4</ele>
        <time>2025-06-12T08:10:44Z</time>
      </trkpt>
      <trkpt lat="44.62941" lon="6.20675">
        <ele>1318.4</ele>
        <time>2025-06-12T08:10:45Z</time>
      </trkpt>
      <trkpt lat="44.62945" lon="6.20674">
        <ele>1318.8</ele>
        <time>2025-06-12T08:10:46Z</time>
      </trkpt>
      <trkpt lat="44.6295" lon="6.20673">
        <ele>1319</ele>
        <time>2025-06-12T08:10:47Z</time>
      </trkpt>
      <trkpt lat="44.62954" lon="6.20671">
        <ele>1319.2</ele>
        <time>2025-06-12T08:10:48Z</time>
      </trkpt>
      <trkpt lat="44.62958" lon="6.20669">
        <ele>1319.4</ele>
        <time>2025-06-12T08:10:49Z</time>
      </trkpt>
      <trkpt lat="44.62962" lon="6.20667">
        <ele>1319.6</ele>
        <time>2025-06-12T08:10:50Z</time>
      </trkpt>
      <trkpt lat="44.62966" lon="6.20665">
        <ele>1319.8</ele>
        <time>2025-06-12T08:10:51Z</time>
      </trkpt>
      <trkpt lat="44.62974" lon="6.20662">
        <ele>1320.4</ele>
        <time>2025-06-12T08:10:53Z</time>
      </trkpt>
      <trkpt lat="44.62982" lon="6.20657">
        <ele>1320.6</ele>
        <time>2025-06-12T08:10:55Z</time>
      </trkpt>
      <trkpt lat="44.6299" lon="6.20653">
        <ele>1321</ele>
        <time>2025-06-12T08:10:57Z</time>
      </trkpt>
      <trkpt lat="44.62998" lon="6.20648">
        <ele>1321.2</ele>
        <time>2025-06-12T08:10:59Z</time>
      </trkpt>
      <trkpt lat="44.63002" lon="6.20646">
        <ele>1321.2</ele>
        <time>2025-06-12T08:11:00Z</time>
      </trkpt>
      <trkpt lat="44.63005" lon="6.20643">
        <ele>1321.2</ele>
        <time>2025-06-12T08:11:01Z</time>
      </trkpt>
      <trkpt lat="44.63009" lon="6.20639">
        <ele>1321.2</ele>
        <time>2025-06-12T08:11:02Z</time>
      </trkpt>
      <trkpt lat="44.63013" lon="6.20636">
        <ele>1321.2</ele>
        <time>2025-06-12T08:11:03Z</time>
      </trkpt>
      <trkpt lat="44.63022" lon="6.2063">
        <ele>1321.4</ele>
        <time>2025-06-12T08:11:05Z</time>
      </trkpt>
      <trkpt lat="44.63027" lon="6.20627">
        <ele>1321.4</ele>
        <time>2025-06-12T08:11:06Z</time>
      </trkpt>
      <trkpt lat="44.63032" lon="6.20626">
        <ele>1321.6</ele>
        <time>2025-06-12T08:11:07Z</time>
      </trkpt>
      <trkpt lat="44.63037" lon="6.20624">
        <ele>1321.8</ele>
        <time>2025-06-12T08:11:08Z</time>
      </trkpt>
      <trkpt lat="44.63041" lon="6.20622">
        <ele>1321.8</ele>
        <time>2025-06-12T08:11:09Z</time>
      </trkpt>
      <trkpt lat="44.63046" lon="6.2062">
        <ele>1322</ele>
        <time>2025-06-12T08:11:10Z</time>
      </trkpt>
      <trkpt lat="44.63051" lon="6.2062">
        <ele>1322</ele>
        <time>2025-06-12T08:11:11Z</time>
      </trkpt>
      <trkpt lat="44.63056" lon="6.20618">
        <ele>1322</ele>
        <time>2025-06-12T08:11:12Z</time>
      </trkpt>
      <trkpt lat="44.6306" lon="6.20616">
        <ele>1322</ele>
        <time>2025-06-12T08:11:13Z</time>
      </trkpt>
      <trkpt lat="44.63065" lon="6.20615">
        <ele>1322.2</ele>
        <time>2025-06-12T08:11:14Z</time>
      </trkpt>
      <trkpt lat="44.63069" lon="6.20613">
        <ele>1322.2</ele>
        <time>2025-06-12T08:11:15Z</time>
      </trkpt>
      <trkpt lat="44.63073" lon="6.20611">
        <ele>1322.4</ele>
        <time>2025-06-12T08:11:16Z</time>
      </trkpt>
      <trkpt lat="44.63076" lon="6.20609">
        <ele>1322.4</ele>
        <time>2025-06-12T08:11:17Z</time>
      </trkpt>
      <trkpt lat="44.6308" lon="6.20607">
        <ele>1322.6</ele>
        <time>2025-06-12T08:11:18Z</time>
      </trkpt>
      <trkpt lat="44.63084" lon="6.20605">
        <ele>1322.6</ele>
        <time>2025-06-12T08:11:19Z</time>
      </trkpt>
      <trkpt lat="44.63089" lon="6.20603">
        <ele>1322.8</ele>
        <time>2025-06-12T08:11:20Z</time>
      </trkpt>
      <trkpt lat="44.63093" lon="6.20602">
        <ele>1323</ele>
        <time>2025-06-12T08:11:21Z</time>
      </trkpt>
      <trkpt lat="44.63097" lon="6.206">
        <ele>1323.2</ele>
        <time>2025-06-12T08:11:22Z</time>
      </trkpt>
      <trkpt lat="44.63101" lon="6.20599">
        <ele>1323.2</ele>
        <time>2025-06-12T08:11:23Z</time>
      </trkpt>
      <trkpt lat="44.63105" lon="6.20598">
        <ele>1323.6</ele>
        <time>2025-06-12T08:11:24Z</time>
      </trkpt>
      <trkpt lat="44.63109" lon="6.20596">
        <ele>1324</ele>
        <time>2025-06-12T08:11:25Z</time>
      </trkpt>
      <trkpt lat="44.63113" lon="6.20595">
        <ele>1324.2</ele>
        <time>2025-06-12T08:11:26Z</time>
      </trkpt>
      <trkpt lat="44.63117" lon="6.20593">
        <ele>1324.4</ele>
        <time>2025-06-12T08:11:27Z</time>
      </trkpt>
      <trkpt lat="44.63121" lon="6.20592">
        <ele>1324.6</ele>
        <time>2025-06-12T08:11:28Z</time>
      </trkpt>
      <trkpt lat="44.63128" lon="6.20588">
        <ele>1325.2</ele>
        <time>2025-06-12T08:11:30Z</time>
      </trkpt>
      <trkpt lat="44.63132" lon="6.20586">
        <ele>1325.6</ele>
        <time>2025-06-12T08:11:31Z</time>
      </trkpt>
      <trkpt lat="44.63136" lon="6.20584">
        <ele>1326</ele>
        <time>2025-06-12T08:11:32Z</time>
      </trkpt>
      <trkpt lat="44.6314" lon="6.20581">
        <ele>1326.2</ele>
        <time>2025-06-12T08:11:33Z</time>
      </trkpt>
      <trkpt lat="44.63144" lon="6.20578">
        <ele>1326.4</ele>
        <time>2025-06-12T08:11:34Z</time>
      </trkpt>
      <trkpt lat="44.63148" lon="6.20576">
        <ele>1326.8</ele>
        <time>2025-06-12T08:11:35Z</time>
      </trkpt>
      <trkpt lat="44.63151" lon="6.20573">
        <ele>1327</ele>
        <time>2025-06-12T08:11:36Z</time>
      </trkpt>
      <trkpt lat="44.63155" lon="6.20571">
        <ele>1327.2</ele>
        <time>2025-06-12T08:11:37Z</time>
      </trkpt>
      <trkpt lat="44.63158" lon="6.20568">
        <ele>1327.4</ele>
        <time>2025-06-12T08:11:38Z</time>
      </trkpt>
      <trkpt lat="44.63162" lon="6.20565">
        <ele>1327.4</ele>
        <time>2025-06-12T08:11:39Z</time>
      </trkpt>
      <trkpt lat="44.63166" lon="6.20563">
        <ele>1327.6</ele>
        <time>2025-06-12T08:11:40Z</time>
      </trkpt>
      <trkpt lat="44.63169" lon="6.2056">
        <ele>1327.8</ele>
        <time>2025-06-12T08:11:41Z</time>
      </trkpt>
      <trkpt lat="44.63173" lon="6.20558">
        <ele>1328.2</ele>
        <time>2025-06-12T08:11:42Z</time>
      </trkpt>
      <trkpt lat="44.63177" lon="6.20556">
        <ele>1328.4</ele>
        <time>2025-06-12T08:11:43Z</time>
      </trkpt>
      <trkpt lat="44.63183" lon="6.20551">
        <ele>1328.8</ele>
        <time>2025-06-12T08:11:45Z</time>
      </trkpt>
      <trkpt lat="44.63187" lon="6.2055">
        <ele>1329.2</ele>
        <time>2025-06-12T08:11:46Z</time>
      </trkpt>
      <trkpt lat="44.63191" lon="6.20548">
        <ele>1329.4</ele>
        <time>2025-06-12T08:11:47Z</time>
      </trkpt>
      <trkpt lat="44.63198" lon="6.20543">
        <ele>1329.8</ele>
        <time>2025-06-12T08:11:49Z</time>
      </trkpt>
      <trkpt lat="44.63205" lon="6.20539">
        <ele>1330.6</ele>
        <time>2025-06-12T08:11:51Z</time>
      </trkpt>
      <trkpt lat="44.63208" lon="6.20537">
        <ele>1330.8</ele>
        <time>2025-06-12T08:11:52Z</time>
      </trkpt>
      <trkpt lat="44.63212" lon="6.20535">
        <ele>1331</ele>
        <time>2025-06-12T08:11:53Z</time>
      </trkpt>
      <trkpt lat="44.63215" lon="6.20533">
        <ele>1331.4</ele>
        <time>2025-06-12T08:11:54Z</time>
      </trkpt>
      <trkpt lat="44.63219" lon="6.20531">
        <ele>1331.6</ele>
        <time>2025-06-12T08:11:55Z</time>
      </trkpt>
      <trkpt lat="44.63222" lon="6.20528">
        <ele>1331.8</ele>
        <time>2025-06-12T08:11:56Z</time>
      </trkpt>
      <trkpt lat="44.63226" lon="6.20526">
        <ele>1332</ele>
        <time>2025-06-12T08:11:57Z</time>
      </trkpt>
      <trkpt lat="44.63229" lon="6.20524">
        <ele>1332</ele>
        <time>2025-06-12T08:11:58Z</time>
      </trkpt>
      <trkpt lat="44.63233" lon="6.20521">
        <ele>1332.2</ele>
        <time>2025-06-12T08:11:59Z</time>
      </trkpt>
      <trkpt lat="44.63236" lon="6.20518">
        <ele>1332.6</ele>
        <time>2025-06-12T08:12:00Z</time>
      </trkpt>
      <trkpt lat="44.6324" lon="6.20516">
        <ele>1332.8</ele>
        <time>2025-06-12T08:12:01Z</time>
      </trkpt>
      <trkpt lat="44.63243" lon="6.20513">
        <ele>1333</ele>
        <time>2025-06-12T08:12:02Z</time>
      </trkpt>
      <trkpt lat="44.63246" lon="6.2051">
        <ele>1333.4</ele>
        <time>2025-06-12T08:12:03Z</time>
      </trkpt>
      <trkpt lat="44.6325" lon="6.20508">
        <ele>1333.6</ele>
        <time>2025-06-12T08:12:04Z</time>
      </trkpt>
      <trkpt lat="44.63256" lon="6.20502">
        <ele>1333.8</ele>
        <time>2025-06-12T08:12:06Z</time>
      </trkpt>
      <trkpt lat="44.63259" lon="6.205">
        <ele>1334</ele>
        <time>2025-06-12T08:12:07Z</time>
      </trkpt>
      <trkpt lat="44.63262" lon="6.20497">
        <ele>1334.2</ele>
        <time>2025-06-12T08:12:08Z</time>
      </trkpt>
      <trkpt lat="44.63268" lon="6.20491">
        <ele>1335.2</ele>
        <time>2025-06-12T08:12:10Z</time>
      </trkpt>
      <trkpt lat="44.63271" lon="6.20488">
        <ele>1335.4</ele>
        <time>2025-06-12T08:12:11Z</time>
      </trkpt>
      <trkpt lat="44.63274" lon="6.20485">
        <ele>1335.6</ele>
        <time>2025-06-12T08:12:12Z</time>
      </trkpt>
      <trkpt lat="44.63277" lon="6.20482">
        <ele>1336</ele>
        <time>2025-06-12T08:12:13Z</time>
      </trkpt>
      <trkpt lat="44.6328" lon="6.20478">
        <ele>1336</ele>
        <time>2025-06-12T08:12:14Z</time>
      </trkpt>
      <trkpt lat="44.63283" lon="6.20475">
        <ele>1336.2</ele>
        <time>2025-06-12T08:12:15Z</time>
      </trkpt>
      <trkpt lat="44.63285" lon="6.20472">
        <ele>1336.2</ele>
        <time>2025-06-12T08:12:16Z</time>
      </trkpt>
      <trkpt lat="44.63288" lon="6.20469">
        <ele>1336.2</ele>
        <time>2025-06-12T08:12:17Z</time>
      </trkpt>
      <trkpt lat="44.63294" lon="6.20462">
        <ele>1336.4</ele>
        <time>2025-06-12T08:12:19Z</time>
      </trkpt>
      <trkpt lat="44.63297" lon="6.20459">
        <ele>1336.6</ele>
        <time>2025-06-12T08:12:20Z</time>
      </trkpt>
      <trkpt lat="44.633" lon="6.20456">
        <ele>1336.6</ele>
        <time>2025-06-12T08:12:21Z</time>
      </trkpt>
      <trkpt lat="44.63307" lon="6.20452">
        <ele>1337</ele>
        <time>2025-06-12T08:12:23Z</time>
      </trkpt>
      <trkpt lat="44.63311" lon="6.2045">
        <ele>1337.2</ele>
        <time>2025-06-12T08:12:24Z</time>
      </trkpt>
      <trkpt lat="44.63314" lon="6.20449">
        <ele>1337.4</ele>
        <time>2025-06-12T08:12:25Z</time>
      </trkpt>
      <trkpt lat="44.63318" lon="6.20447">
        <ele>1337.6</ele>
        <time>2025-06-12T08:12:26Z</time>
      </trkpt>
      <trkpt lat="44.63322" lon="6.20446">
        <ele>1337.8</ele>
        <time>2025-06-12T08:12:27Z</time>
      </trkpt>
      <trkpt lat="44.63325" lon="6.20445">
        <ele>1337.8</ele>
        <time>2025-06-12T08:12:28Z</time>
      </trkpt>
      <trkpt lat="44.63329" lon="6.20444">
        <ele>1338</ele>
        <time>2025-06-12T08:12:29Z</time>
      </trkpt>
      <trkpt lat="44.63333" lon="6.20443">
        <ele>1338</ele>
        <time>2025-06-12T08:12:30Z</time>
      </trkpt>
      <trkpt lat="44.63337" lon="6.20442">
        <ele>1338.2</ele>
        <time>2025-06-12T08:12:31Z</time>
      </trkpt>
      <trkpt lat="44.6334" lon="6.2044">
        <ele>1338.4</ele>
        <time>2025-06-12T08:12:32Z</time>
      </trkpt>
      <trkpt lat="44.63344" lon="6.20439">
        <ele>1338.4</ele>
        <time>2025-06-12T08:12:33Z</time>
      </trkpt>
      <trkpt lat="44.63347" lon="6.20438">
        <ele>1338.2</ele>
        <time>2025-06-12T08:12:34Z</time>
      </trkpt>
      <trkpt lat="44.63351" lon="6.20437">
        <ele>1338.4</ele>
        <time>2025-06-12T08:12:35Z</time>
      </trkpt>
      <trkpt lat="44.63355" lon="6.20435">
        <ele>1338.4</ele>
        <time>2025-06-12T08:12:36Z</time>
      </trkpt>
      <trkpt lat="44.63358" lon="6.20432">
        <ele>1338.8</ele>
        <time>2025-06-12T08:12:37Z</time>
      </trkpt>
      <trkpt lat="44.63361" lon="6.20429">
        <ele>1339</ele>
        <time>2025-06-12T08:12:38Z</time>
      </trkpt>
      <trkpt lat="44.63364" lon="6.20426">
        <ele>1339</ele>
        <time>2025-06-12T08:12:39Z</time>
      </trkpt>
      <trkpt lat="44.63368" lon="6.20422">
        <ele>1339.2</ele>
        <time>2025-06-12T08:12:40Z</time>
      </trkpt>
      <trkpt lat="44.6337" lon="6.20418">
        <ele>1339.2</ele>
        <time>2025-06-12T08:12:41Z</time>
      </trkpt>
      <trkpt lat="44.63373" lon="6.20413">
        <ele>1339.2</ele>
        <time>2025-06-12T08:12:42Z</time>
      </trkpt>
      <trkpt lat="44.63375" lon="6.20408">
        <ele>1339.4</ele>
        <time>2025-06-12T08:12:43Z</time>
      </trkpt>
      <trkpt lat="44.63376" lon="6.20402">
        <ele>1339.4</ele>
        <time>2025-06-12T08:12:44Z</time>
      </trkpt>
      <trkpt lat="44.63378" lon="6.20396">
        <ele>1339.4</ele>
        <time>2025-06-12T08:12:45Z</time>
      </trkpt>
      <trkpt lat="44.63379" lon="6.20391">
        <ele>1339.4</ele>
        <time>2025-06-12T08:12:46Z</time>
      </trkpt>
      <trkpt lat="44.6338" lon="6.20379">
        <ele>1339.6</ele>
        <time>2025-06-12T08:12:48Z</time>
      </trkpt>
      <trkpt lat="44.6338" lon="6.20367">
        <ele>1339.6</ele>
        <time>2025-06-12T08:12:50Z</time>
      </trkpt>
      <trkpt lat="44.6338" lon="6.20362">
        <ele>1339.6</ele>
        <time>2025-06-12T08:12:51Z</time>
      </trkpt>
      <trkpt lat="44.6338" lon="6.20357">
        <ele>1339.6</ele>
        <time>2025-06-12T08:12:52Z</time>
      </trkpt>
      <trkpt lat="44.63379" lon="6.20352">
        <ele>1339.8</ele>
        <time>2025-06-12T08:12:53Z</time>
      </trkpt>
      <trkpt lat="44.63378" lon="6.20347">
        <ele>1339.8</ele>
        <time>2025-06-12T08:12:54Z</time>
      </trkpt>
      <trkpt lat="44.63378" lon="6.20342">
        <ele>1340</ele>
        <time>2025-06-12T08:12:55Z</time>
      </trkpt>
      <trkpt lat="44.63378" lon="6.20336">
        <ele>1340</ele>
        <time>2025-06-12T08:12:56Z</time>
      </trkpt>
      <trkpt lat="44.63378" lon="6.20331">
        <ele>1340.2</ele>
        <time>2025-06-12T08:12:57Z</time>
      </trkpt>
      <trkpt lat="44.63378" lon="6.20326">
        <ele>1340.4</ele>
        <time>2025-06-12T08:12:58Z</time>
      </trkpt>
      <trkpt lat="44.63377" lon="6.2032">
        <ele>1340.6</ele>
        <time>2025-06-12T08:12:59Z</time>
      </trkpt>
      <trkpt lat="44.63377" lon="6.20314">
        <ele>1340.4</ele>
        <time>2025-06-12T08:13:00Z</time>
      </trkpt>
      <trkpt lat="44.63377" lon="6.20308">
        <ele>1340.6</ele>
        <time>2025-06-12T08:13:01Z</time>
      </trkpt>
      <trkpt lat="44.63377" lon="6.20301">
        <ele>1340.6</ele>
        <time>2025-06-12T08:13:02Z</time>
      </trkpt>
      <trkpt lat="44.63377" lon="6.20294">
        <ele>1340.6</ele>
        <time>2025-06-12T08:13:03Z</time>
      </trkpt>
      <trkpt lat="44.63377" lon="6.20287">
        <ele>1340.6</ele>
        <time>2025-06-12T08:13:04Z</time>
      </trkpt>
      <trkpt lat="44.63378" lon="6.20279">
        <ele>1340.6</ele>
        <time>2025-06-12T08:13:05Z</time>
      </trkpt>
      <trkpt lat="44.63378" lon="6.20272">
        <ele>1340.6</ele>
        <time>2025-06-12T08:13:06Z</time>
      </trkpt>
      <trkpt lat="44.63379" lon="6.20264">
        <ele>1340.6</ele>
        <time>2025-06-12T08:13:07Z</time>
      </trkpt>
      <trkpt lat="44.6338" lon="6.20248">
        <ele>1340.6</ele>
        <time>2025-06-12T08:13:09Z</time>
      </trkpt>
      <trkpt lat="44.63381" lon="6.2024">
        <ele>1340.6</ele>
        <time>2025-06-12T08:13:10Z</time>
      </trkpt>
      <trkpt lat="44.63382" lon="6.20233">
        <ele>1340.4</ele>
        <time>2025-06-12T08:13:11Z</time>
      </trkpt>
      <trkpt lat="44.63384" lon="6.20216">
        <ele>1340</ele>
        <time>2025-06-12T08:13:13Z</time>
      </trkpt>
      <trkpt lat="44.63387" lon="6.20198">
        <ele>1339.6</ele>
        <time>2025-06-12T08:13:15Z</time>
      </trkpt>
      <trkpt lat="44.63389" lon="6.2019">
        <ele>1339.4</ele>
        <time>2025-06-12T08:13:16Z</time>
      </trkpt>
      <trkpt lat="44.63391" lon="6.20182">
        <ele>1339</ele>
        <time>2025-06-12T08:13:17Z</time>
      </trkpt>
      <trkpt lat="44.63393" lon="6.20174">
        <ele>1338.8</ele>
        <time>2025-06-12T08:13:18Z</time>
      </trkpt>
      <trkpt lat="44.63396" lon="6.20166">
        <ele>1338.8</ele>
        <time>2025-06-12T08:13:19Z</time>
      </trkpt>
      <trkpt lat="44.63398" lon="6.20159">
        <ele>1338.6</ele>
        <time>2025-06-12T08:13:20Z</time>
      </trkpt>
      <trkpt lat="44.63401" lon="6.20153">
        <ele>1338.4</ele>
        <time>2025-06-12T08:13:21Z</time>
      </trkpt>
      <trkpt lat="44.63404" lon="6.20147">
        <ele>1338.4</ele>
        <time>2025-06-12T08:13:22Z</time>
      </trkpt>
      <trkpt lat="44.63407" lon="6.20143">
        <ele>1338.4</ele>
        <time>2025-06-12T08:13:23Z</time>
      </trkpt>
      <trkpt lat="44.6341" lon="6.20138">
        <ele>1338.4</ele>
        <time>2025-06-12T08:13:24Z</time>
      </trkpt>
      <trkpt lat="44.63413" lon="6.20134">
        <ele>1338.4</ele>
        <time>2025-06-12T08:13:25Z</time>
      </trkpt>
      <trkpt lat="44.63416" lon="6.2013">
        <ele>1338.4</ele>
        <time>2025-06-12T08:13:26Z</time>
      </trkpt>
      <trkpt lat="44.63419" lon="6.20126">
        <ele>1338.4</ele>
        <time>2025-06-12T08:13:27Z</time>
      </trkpt>
      <trkpt lat="44.63422" lon="6.20123">
        <ele>1338.4</ele>
        <time>2025-06-12T08:13:28Z</time>
      </trkpt>
      <trkpt lat="44.63425" lon="6.2012">
        <ele>1338.4</ele>
        <time>2025-06-12T08:13:29Z</time>
      </trkpt>
      <trkpt lat="44.63429" lon="6.20117">
        <ele>1338.4</ele>
        <time>2025-06-12T08:13:30Z</time>
      </trkpt>
      <trkpt lat="44.63435" lon="6.20111">
        <ele>1338.6</ele>
        <time>2025-06-12T08:13:32Z</time>
      </trkpt>
      <trkpt lat="44.63441" lon="6.20105">
        <ele>1339.2</ele>
        <time>2025-06-12T08:13:34Z</time>
      </trkpt>
      <trkpt lat="44.63447" lon="6.201">
        <ele>1339.4</ele>
        <time>2025-06-12T08:13:36Z</time>
      </trkpt>
      <trkpt lat="44.63454" lon="6.20095">
        <ele>1339.8</ele>
        <time>2025-06-12T08:13:38Z</time>
      </trkpt>
      <trkpt lat="44.63458" lon="6.20093">
        <ele>1340</ele>
        <time>2025-06-12T08:13:39Z</time>
      </trkpt>
      <trkpt lat="44.63462" lon="6.20091">
        <ele>1340.4</ele>
        <time>2025-06-12T08:13:40Z</time>
      </trkpt>
      <trkpt lat="44.63466" lon="6.20089">
        <ele>1340.6</ele>
        <time>2025-06-12T08:13:41Z</time>
      </trkpt>
      <trkpt lat="44.6347" lon="6.20087">
        <ele>1340.6</ele>
        <time>2025-06-12T08:13:42Z</time>
      </trkpt>
      <trkpt lat="44.63474" lon="6.20085">
        <ele>1340.6</ele>
        <time>2025-06-12T08:13:43Z</time>
      </trkpt>
      <trkpt lat="44.63478" lon="6.20082">
        <ele>1340.6</ele>
        <time>2025-06-12T08:13:44Z</time>
      </trkpt>
      <trkpt lat="44.63482" lon="6.2008">
        <ele>1340.6</ele>
        <time>2025-06-12T08:13:45Z</time>
      </trkpt>
      <trkpt lat="44.63486" lon="6.20078">
        <ele>1340.6</ele>
        <time>2025-06-12T08:13:46Z</time>
      </trkpt>
      <trkpt lat="44.6349" lon="6.20075">
        <ele>1340.8</ele>
        <time>2025-06-12T08:13:47Z</time>
      </trkpt>
      <trkpt lat="44.63493" lon="6.20073">
        <ele>1340.8</ele>
        <time>2025-06-12T08:13:48Z</time>
      </trkpt>
      <trkpt lat="44.63497" lon="6.2007">
        <ele>1340.8</ele>
        <time>2025-06-12T08:13:49Z</time>
      </trkpt>
      <trkpt lat="44.63501" lon="6.20067">
        <ele>1340.8</ele>
        <time>2025-06-12T08:13:50Z</time>
      </trkpt>
      <trkpt lat="44.63504" lon="6.20064">
        <ele>1340.8</ele>
        <time>2025-06-12T08:13:51Z</time>
      </trkpt>
      <trkpt lat="44.63511" lon="6.20057">
        <ele>1340.8</ele>
        <time>2025-06-12T08:13:53Z</time>
      </trkpt>
      <trkpt lat="44.63514" lon="6.20054">
        <ele>1340.8</ele>
        <time>2025-06-12T08:13:54Z</time>
      </trkpt>
      <trkpt lat="44.63517" lon="6.2005">
        <ele>1341</ele>
        <time>2025-06-12T08:13:55Z</time>
      </trkpt>
      <trkpt lat="44.63519" lon="6.20045">
        <ele>1341</ele>
        <time>2025-06-12T08:13:56Z</time>
      </trkpt>
      <trkpt lat="44.63521" lon="6.2004">
        <ele>1341</ele>
        <time>2025-06-12T08:13:57Z</time>
      </trkpt>
      <trkpt lat="44.63523" lon="6.20035">
        <ele>1341.2</ele>
        <time>2025-06-12T08:13:58Z</time>
      </trkpt>
      <trkpt lat="44.63525" lon="6.2003">
        <ele>1341.2</ele>
        <time>2025-06-12T08:13:59Z</time>
      </trkpt>
      <trkpt lat="44.63527" lon="6.20019">
        <ele>1341.4</ele>
        <time>2025-06-12T08:14:01Z</time>
      </trkpt>
      <trkpt lat="44.63528" lon="6.20014">
        <ele>1341.6</ele>
        <time>2025-06-12T08:14:02Z</time>
      </trkpt>
      <trkpt lat="44.63529" lon="6.20008">
        <ele>1341.8</ele>
        <time>2025-06-12T08:14:03Z</time>
      </trkpt>
      <trkpt lat="44.6353" lon="6.20003">
        <ele>1342</ele>
        <time>2025-06-12T08:14:04Z</time>
      </trkpt>
      <trkpt lat="44.6353" lon="6.19998">
        <ele>1342.2</ele>
        <time>2025-06-12T08:14:05Z</time>
      </trkpt>
      <trkpt lat="44.6353" lon="6.19992">
        <ele>1342.4</ele>
        <time>2025-06-12T08:14:06Z</time>
      </trkpt>
      <trkpt lat="44.6353" lon="6.19987">
        <ele>1342.8</ele>
        <time>2025-06-12T08:14:07Z</time>
      </trkpt>
      <trkpt lat="44.63529" lon="6.19982">
        <ele>1343</ele>
        <time>2025-06-12T08:14:08Z</time>
      </trkpt>
      <trkpt lat="44.63529" lon="6.19977">
        <ele>1343.2</ele>
        <time>2025-06-12T08:14:09Z</time>
      </trkpt>
      <trkpt lat="44.63529" lon="6.19972">
        <ele>1343.4</ele>
        <time>2025-06-12T08:14:10Z</time>
      </trkpt>
      <trkpt lat="44.63529" lon="6.19966">
        <ele>1343.8</ele>
        <time>2025-06-12T08:14:11Z</time>
      </trkpt>
      <trkpt lat="44.63529" lon="6.19961">
        <ele>1344</ele>
        <time>2025-06-12T08:14:12Z</time>
      </trkpt>
      <trkpt lat="44.63529" lon="6.19956">
        <ele>1344.2</ele>
        <time>2025-06-12T08:14:13Z</time>
      </trkpt>
      <trkpt lat="44.63529" lon="6.19951">
        <ele>1344.4</ele>
        <time>2025-06-12T08:14:14Z</time>
      </trkpt>
      <trkpt lat="44.6353" lon="6.19947">
        <ele>1344.8</ele>
        <time>2025-06-12T08:14:15Z</time>
      </trkpt>
      <trkpt lat="44.6353" lon="6.19942">
        <ele>1344.8</ele>
        <time>2025-06-12T08:14:16Z</time>
      </trkpt>
      <trkpt lat="44.63531" lon="6.19937">
        <ele>1345.2</ele>
        <time>2025-06-12T08:14:17Z</time>
      </trkpt>
      <trkpt lat="44.63532" lon="6.19932">
        <ele>1345.4</ele>
        <time>2025-06-12T08:14:18Z</time>
      </trkpt>
      <trkpt lat="44.63535" lon="6.19922">
        <ele>1346</ele>
        <time>2025-06-12T08:14:20Z</time>
      </trkpt>
      <trkpt lat="44.63537" lon="6.19912">
        <ele>1346.4</ele>
        <time>2025-06-12T08:14:22Z</time>
      </trkpt>
      <trkpt lat="44.6354" lon="6.19902">
        <ele>1346.8</ele>
        <time>2025-06-12T08:14:24Z</time>
      </trkpt>
      <trkpt lat="44.63542" lon="6.19892">
        <ele>1347.2</ele>
        <time>2025-06-12T08:14:26Z</time>
      </trkpt>
      <trkpt lat="44.63543" lon="6.19888">
        <ele>1347.2</ele>
        <time>2025-06-12T08:14:27Z</time>
      </trkpt>
      <trkpt lat="44.63545" lon="6.19883">
        <ele>1347.4</ele>
        <time>2025-06-12T08:14:28Z</time>
      </trkpt>
      <trkpt lat="44.63546" lon="6.19878">
        <ele>1347.8</ele>
        <time>2025-06-12T08:14:29Z</time>
      </trkpt>
      <trkpt lat="44.63547" lon="6.19873">
        <ele>1347.8</ele>
        <time>2025-06-12T08:14:30Z</time>
      </trkpt>
      <trkpt lat="44.63548" lon="6.19868">
        <ele>1347.8</ele>
        <time>2025-06-12T08:14:31Z</time>
      </trkpt>
      <trkpt lat="44.63549" lon="6.19863">
        <ele>1348</ele>
        <time>2025-06-12T08:14:32Z</time>
      </trkpt>
      <trkpt lat="44.6355" lon="6.19858">
        <ele>1348</ele>
        <time>2025-06-12T08:14:33Z</time>
      </trkpt>
      <trkpt lat="44.63551" lon="6.19853">
        <ele>1348.2</ele>
        <time>2025-06-12T08:14:34Z</time>
      </trkpt>
      <trkpt lat="44.63553" lon="6.19848">
        <ele>1348.2</ele>
        <time>2025-06-12T08:14:35Z</time>
      </trkpt>
      <trkpt lat="44.63554" lon="6.19843">
        <ele>1348.4</ele>
        <time>2025-06-12T08:14:36Z</time>
      </trkpt>
      <trkpt lat="44.63555" lon="6.19838">
        <ele>1348.4</ele>
        <time>2025-06-12T08:14:37Z</time>
      </trkpt>
      <trkpt lat="44.63558" lon="6.19827">
        <ele>1348.4</ele>
        <time>2025-06-12T08:14:39Z</time>
      </trkpt>
      <trkpt lat="44.6356" lon="6.19815">
        <ele>1348.4</ele>
        <time>2025-06-12T08:14:41Z</time>
      </trkpt>
      <trkpt lat="44.63562" lon="6.19803">
        <ele>1348.4</ele>
        <time>2025-06-12T08:14:43Z</time>
      </trkpt>
      <trkpt lat="44.63565" lon="6.1979">
        <ele>1348.4</ele>
        <time>2025-06-12T08:14:45Z</time>
      </trkpt>
      <trkpt lat="44.63567" lon="6.19783">
        <ele>1348.4</ele>
        <time>2025-06-12T08:14:46Z</time>
      </trkpt>
      <trkpt lat="44.63569" lon="6.19776">
        <ele>1348.4</ele>
        <time>2025-06-12T08:14:47Z</time>
      </trkpt>
      <trkpt lat="44.63571" lon="6.19769">
        <ele>1348.4</ele>
        <time>2025-06-12T08:14:48Z</time>
      </trkpt>
      <trkpt lat="44.63573" lon="6.19761">
        <ele>1348.4</ele>
        <time>2025-06-12T08:14:49Z</time>
      </trkpt>
      <trkpt lat="44.63575" lon="6.19753">
        <ele>1348.4</ele>
        <time>2025-06-12T08:14:50Z</time>
      </trkpt>
      <trkpt lat="44.63576" lon="6.19745">
        <ele>1348.4</ele>
        <time>2025-06-12T08:14:51Z</time>
      </trkpt>
      <trkpt lat="44.63578" lon="6.19737">
        <ele>1348.4</ele>
        <time>2025-06-12T08:14:52Z</time>
      </trkpt>
      <trkpt lat="44.6358" lon="6.19728">
        <ele>1348.2</ele>
        <time>2025-06-12T08:14:53Z</time>
      </trkpt>
      <trkpt lat="44.63583" lon="6.19718">
        <ele>1348.2</ele>
        <time>2025-06-12T08:14:54Z</time>
      </trkpt>
      <trkpt lat="44.63585" lon="6.19708">
        <ele>1348</ele>
        <time>2025-06-12T08:14:55Z</time>
      </trkpt>
      <trkpt lat="44.63587" lon="6.19698">
        <ele>1347.4</ele>
        <time>2025-06-12T08:14:56Z</time>
      </trkpt>
      <trkpt lat="44.63589" lon="6.19688">
        <ele>1347.4</ele>
        <time>2025-06-12T08:14:57Z</time>
      </trkpt>
      <trkpt lat="44.63591" lon="6.19677">
        <ele>1347.2</ele>
        <time>2025-06-12T08:14:58Z</time>
      </trkpt>
      <trkpt lat="44.63593" lon="6.19665">
        <ele>1346.8</ele>
        <time>2025-06-12T08:14:59Z</time>
      </trkpt>
      <trkpt lat="44.63596" lon="6.19654">
        <ele>1346.6</ele>
        <time>2025-06-12T08:15:00Z</time>
      </trkpt>
      <trkpt lat="44.63599" lon="6.19629">
        <ele>1345.8</ele>
        <time>2025-06-12T08:15:02Z</time>
      </trkpt>
      <trkpt lat="44.636" lon="6.19616">
        <ele>1345.4</ele>
        <time>2025-06-12T08:15:03Z</time>
      </trkpt>
      <trkpt lat="44.63599" lon="6.19604">
        <ele>1344.8</ele>
        <time>2025-06-12T08:15:04Z</time>
      </trkpt>
      <trkpt lat="44.63598" lon="6.19592">
        <ele>1344.4</ele>
        <time>2025-06-12T08:15:05Z</time>
      </trkpt>
      <trkpt lat="44.63597" lon="6.19581">
        <ele>1344</ele>
        <time>2025-06-12T08:15:06Z</time>
      </trkpt>
      <trkpt lat="44.63594" lon="6.1957">
        <ele>1343.6</ele>
        <time>2025-06-12T08:15:07Z</time>
      </trkpt>
      <trkpt lat="44.63592" lon="6.19561">
        <ele>1343</ele>
        <time>2025-06-12T08:15:08Z</time>
      </trkpt>
      <trkpt lat="44.63589" lon="6.19551">
        <ele>1342.8</ele>
        <time>2025-06-12T08:15:09Z</time>
      </trkpt>
      <trkpt lat="44.63583" lon="6.19532">
        <ele>1342.2</ele>
        <time>2025-06-12T08:15:11Z</time>
      </trkpt>
      <trkpt lat="44.63581" lon="6.19522">
        <ele>1342.2</ele>
        <time>2025-06-12T08:15:12Z</time>
      </trkpt>
      <trkpt lat="44.63578" lon="6.19513">
        <ele>1342.2</ele>
        <time>2025-06-12T08:15:13Z</time>
      </trkpt>
      <trkpt lat="44.63576" lon="6.19503">
        <ele>1342.2</ele>
        <time>2025-06-12T08:15:14Z</time>
      </trkpt>
      <trkpt lat="44.63574" lon="6.19492">
        <ele>1341.8</ele>
        <time>2025-06-12T08:15:15Z</time>
      </trkpt>
      <trkpt lat="44.63571" lon="6.19482">
        <ele>1341.8</ele>
        <time>2025-06-12T08:15:16Z</time>
      </trkpt>
      <trkpt lat="44.63568" lon="6.19472">
        <ele>1341.6</ele>
        <time>2025-06-12T08:15:17Z</time>
      </trkpt>
      <trkpt lat="44.63566" lon="6.19461">
        <ele>1341.4</ele>
        <time>2025-06-12T08:15:18Z</time>
      </trkpt>
      <trkpt lat="44.6356" lon="6.1944">
        <ele>1341</ele>
        <time>2025-06-12T08:15:20Z</time>
      </trkpt>
      <trkpt lat="44.63554" lon="6.19418">
        <ele>1340.8</ele>
        <time>2025-06-12T08:15:22Z</time>
      </trkpt>
      <trkpt lat="44.63551" lon="6.19407">
        <ele>1340.8</ele>
        <time>2025-06-12T08:15:23Z</time>
      </trkpt>
      <trkpt lat="44.63549" lon="6.19396">
        <ele>1340.6</ele>
        <time>2025-06-12T08:15:24Z</time>
      </trkpt>
      <trkpt lat="44.63547" lon="6.19385">
        <ele>1340.4</ele>
        <time>2025-06-12T08:15:25Z</time>
      </trkpt>
      <trkpt lat="44.63545" lon="6.19374">
        <ele>1340.2</ele>
        <time>2025-06-12T08:15:26Z</time>
      </trkpt>
      <trkpt lat="44.63542" lon="6.19364">
        <ele>1340</ele>
        <time>2025-06-12T08:15:27Z</time>
      </trkpt>
      <trkpt lat="44.63539" lon="6.19353">
        <ele>1339.4</ele>
        <time>2025-06-12T08:15:28Z</time>
      </trkpt>
      <trkpt lat="44.63536" lon="6.19343">
        <ele>1339</ele>
        <time>2025-06-12T08:15:29Z</time>
      </trkpt>
      <trkpt lat="44.63532" lon="6.19333">
        <ele>1338.8</ele>
        <time>2025-06-12T08:15:30Z</time>
      </trkpt>
      <trkpt lat="44.63529" lon="6.19324">
        <ele>1338.4</ele>
        <time>2025-06-12T08:15:31Z</time>
      </trkpt>
      <trkpt lat="44.63521" lon="6.19306">
        <ele>1338.2</ele>
        <time>2025-06-12T08:15:33Z</time>
      </trkpt>
      <trkpt lat="44.63514" lon="6.19288">
        <ele>1337.8</ele>
        <time>2025-06-12T08:15:35Z</time>
      </trkpt>
      <trkpt lat="44.63511" lon="6.19278">
        <ele>1337.8</ele>
        <time>2025-06-12T08:15:36Z</time>
      </trkpt>
      <trkpt lat="44.63507" lon="6.19269">
        <ele>1337.8</ele>
        <time>2025-06-12T08:15:37Z</time>
      </trkpt>
      <trkpt lat="44.635" lon="6.1925">
        <ele>1337.2</ele>
        <time>2025-06-12T08:15:39Z</time>
      </trkpt>
      <trkpt lat="44.63496" lon="6.1924">
        <ele>1337.4</ele>
        <time>2025-06-12T08:15:40Z</time>
      </trkpt>
      <trkpt lat="44.63491" lon="6.19231">
        <ele>1337.2</ele>
        <time>2025-06-12T08:15:41Z</time>
      </trkpt>
      <trkpt lat="44.63486" lon="6.19222">
        <ele>1337.2</ele>
        <time>2025-06-12T08:15:42Z</time>
      </trkpt>
      <trkpt lat="44.63481" lon="6.19213">
        <ele>1337</ele>
        <time>2025-06-12T08:15:43Z</time>
      </trkpt>
      <trkpt lat="44.63476" lon="6.19204">
        <ele>1337</ele>
        <time>2025-06-12T08:15:44Z</time>
      </trkpt>
      <trkpt lat="44.63471" lon="6.19195">
        <ele>1337</ele>
        <time>2025-06-12T08:15:45Z</time>
      </trkpt>
      <trkpt lat="44.63466" lon="6.19185">
        <ele>1336.6</ele>
        <time>2025-06-12T08:15:46Z</time>
      </trkpt>
      <trkpt lat="44.6346" lon="6.19176">
        <ele>1336.4</ele>
        <time>2025-06-12T08:15:47Z</time>
      </trkpt>
      <trkpt lat="44.63455" lon="6.19168">
        <ele>1336</ele>
        <time>2025-06-12T08:15:48Z</time>
      </trkpt>
      <trkpt lat="44.63449" lon="6.19159">
        <ele>1335.8</ele>
        <time>2025-06-12T08:15:49Z</time>
      </trkpt>
      <trkpt lat="44.63444" lon="6.19151">
        <ele>1335.6</ele>
        <time>2025-06-12T08:15:50Z</time>
      </trkpt>
      <trkpt lat="44.63433" lon="6.19135">
        <ele>1334.8</ele>
        <time>2025-06-12T08:15:52Z</time>
      </trkpt>
      <trkpt lat="44.63427" lon="6.19128">
        <ele>1334.6</ele>
        <time>2025-06-12T08:15:53Z</time>
      </trkpt>
      <trkpt lat="44.63421" lon="6.19121">
        <ele>1334.6</ele>
        <time>2025-06-12T08:15:54Z</time>
      </trkpt>
      <trkpt lat="44.63416" lon="6.19115">
        <ele>1334.6</ele>
        <time>2025-06-12T08:15:55Z</time>
      </trkpt>
      <trkpt lat="44.63411" lon="6.19108">
        <ele>1334.6</ele>
        <time>2025-06-12T08:15:56Z</time>
      </trkpt>
      <trkpt lat="44.63405" lon="6.19102">
        <ele>1334.6</ele>
        <time>2025-06-12T08:15:57Z</time>
      </trkpt>
      <trkpt lat="44.634" lon="6.19097">
        <ele>1334.6</ele>
        <time>2025-06-12T08:15:58Z</time>
      </trkpt>
      <trkpt lat="44.63394" lon="6.19091">
        <ele>1334.6</ele>
        <time>2025-06-12T08:15:59Z</time>
      </trkpt>
      <trkpt lat="44.63383" lon="6.19079">
        <ele>1334.4</ele>
        <time>2025-06-12T08:16:01Z</time>
      </trkpt>
      <trkpt lat="44.63377" lon="6.19074">
        <ele>1334.4</ele>
        <time>2025-06-12T08:16:02Z</time>
      </trkpt>
      <trkpt lat="44.63372" lon="6.19068">
        <ele>1334.4</ele>
        <time>2025-06-12T08:16:03Z</time>
      </trkpt>
      <trkpt lat="44.63367" lon="6.19061">
        <ele>1334.4</ele>
        <time>2025-06-12T08:16:04Z</time>
      </trkpt>
      <trkpt lat="44.63363" lon="6.19055">
        <ele>1334.2</ele>
        <time>2025-06-12T08:16:05Z</time>
      </trkpt>
      <trkpt lat="44.63359" lon="6.19047">
        <ele>1334.2</ele>
        <time>2025-06-12T08:16:06Z</time>
      </trkpt>
      <trkpt lat="44.63356" lon="6.19038">
        <ele>1334.2</ele>
        <time>2025-06-12T08:16:07Z</time>
      </trkpt>
      <trkpt lat="44.63356" lon="6.19028">
        <ele>1334.2</ele>
        <time>2025-06-12T08:16:08Z</time>
      </trkpt>
      <trkpt lat="44.63356" lon="6.19018">
        <ele>1334.2</ele>
        <time>2025-06-12T08:16:09Z</time>
      </trkpt>
      <trkpt lat="44.63357" lon="6.19007">
        <ele>1334.2</ele>
        <time>2025-06-12T08:16:10Z</time>
      </trkpt>
      <trkpt lat="44.63359" lon="6.18996">
        <ele>1334.2</ele>
        <time>2025-06-12T08:16:11Z</time>
      </trkpt>
      <trkpt lat="44.63361" lon="6.18985">
        <ele>1334.2</ele>
        <time>2025-06-12T08:16:12Z</time>
      </trkpt>
      <trkpt lat="44.63362" lon="6.18973">
        <ele>1334.2</ele>
        <time>2025-06-12T08:16:13Z</time>
      </trkpt>
      <trkpt lat="44.63363" lon="6.18962">
        <ele>1334</ele>
        <time>2025-06-12T08:16:14Z</time>
      </trkpt>
      <trkpt lat="44.63363" lon="6.1895">
        <ele>1334</ele>
        <time>2025-06-12T08:16:15Z</time>
      </trkpt>
      <trkpt lat="44.63363" lon="6.18938">
        <ele>1333.8</ele>
        <time>2025-06-12T08:16:16Z</time>
      </trkpt>
      <trkpt lat="44.63363" lon="6.18927">
        <ele>1333.6</ele>
        <time>2025-06-12T08:16:17Z</time>
      </trkpt>
      <trkpt lat="44.63364" lon="6.18915">
        <ele>1332.4</ele>
        <time>2025-06-12T08:16:18Z</time>
      </trkpt>
      <trkpt lat="44.63367" lon="6.18904">
        <ele>1332</ele>
        <time>2025-06-12T08:16:19Z</time>
      </trkpt>
      <trkpt lat="44.63371" lon="6.18894">
        <ele>1331.6</ele>
        <time>2025-06-12T08:16:20Z</time>
      </trkpt>
      <trkpt lat="44.63376" lon="6.18885">
        <ele>1331.4</ele>
        <time>2025-06-12T08:16:21Z</time>
      </trkpt>
      <trkpt lat="44.63383" lon="6.18878">
        <ele>1331.2</ele>
        <time>2025-06-12T08:16:22Z</time>
      </trkpt>
      <trkpt lat="44.63391" lon="6.18871">
        <ele>1331</ele>
        <time>2025-06-12T08:16:23Z</time>
      </trkpt>
      <trkpt lat="44.63399" lon="6.18866">
        <ele>1330.8</ele>
        <time>2025-06-12T08:16:24Z</time>
      </trkpt>
      <trkpt lat="44.63409" lon="6.18861">
        <ele>1330.6</ele>
        <time>2025-06-12T08:16:25Z</time>
      </trkpt>
      <trkpt lat="44.63418" lon="6.18857">
        <ele>1330.4</ele>
        <time>2025-06-12T08:16:26Z</time>
      </trkpt>
      <trkpt lat="44.63428" lon="6.18853">
        <ele>1330.2</ele>
        <time>2025-06-12T08:16:27Z</time>
      </trkpt>
      <trkpt lat="44.63437" lon="6.18849">
        <ele>1330.2</ele>
        <time>2025-06-12T08:16:28Z</time>
      </trkpt>
      <trkpt lat="44.63447" lon="6.18845">
        <ele>1329.8</ele>
        <time>2025-06-12T08:16:29Z</time>
      </trkpt>
      <trkpt lat="44.63456" lon="6.18841">
        <ele>1329.4</ele>
        <time>2025-06-12T08:16:30Z</time>
      </trkpt>
      <trkpt lat="44.63466" lon="6.18837">
        <ele>1328.8</ele>
        <time>2025-06-12T08:16:31Z</time>
      </trkpt>
      <trkpt lat="44.63476" lon="6.18832">
        <ele>1328</ele>
        <time>2025-06-12T08:16:32Z</time>
      </trkpt>
      <trkpt lat="44.63487" lon="6.18827">
        <ele>1327</ele>
        <time>2025-06-12T08:16:33Z</time>
      </trkpt>
      <trkpt lat="44.63497" lon="6.18822">
        <ele>1326.2</ele>
        <time>2025-06-12T08:16:34Z</time>
      </trkpt>
      <trkpt lat="44.63508" lon="6.18817">
        <ele>1325.2</ele>
        <time>2025-06-12T08:16:35Z</time>
      </trkpt>
      <trkpt lat="44.6352" lon="6.18812">
        <ele>1324.4</ele>
        <time>2025-06-12T08:16:36Z</time>
      </trkpt>
      <trkpt lat="44.63531" lon="6.18807">
        <ele>1324</ele>
        <time>2025-06-12T08:16:37Z</time>
      </trkpt>
      <trkpt lat="44.63543" lon="6.18802">
        <ele>1323.4</ele>
        <time>2025-06-12T08:16:38Z</time>
      </trkpt>
      <trkpt lat="44.63555" lon="6.18797">
        <ele>1322.8</ele>
        <time>2025-06-12T08:16:39Z</time>
      </trkpt>
      <trkpt lat="44.63579" lon="6.18786">
        <ele>1320.8</ele>
        <time>2025-06-12T08:16:41Z</time>
      </trkpt>
      <trkpt lat="44.63591" lon="6.1878">
        <ele>1319.4</ele>
        <time>2025-06-12T08:16:42Z</time>
      </trkpt>
      <trkpt lat="44.63603" lon="6.18775">
        <ele>1318.4</ele>
        <time>2025-06-12T08:16:43Z</time>
      </trkpt>
      <trkpt lat="44.63615" lon="6.1877">
        <ele>1317.2</ele>
        <time>2025-06-12T08:16:44Z</time>
      </trkpt>
      <trkpt lat="44.63628" lon="6.18765">
        <ele>1316.6</ele>
        <time>2025-06-12T08:16:45Z</time>
      </trkpt>
      <trkpt lat="44.6364" lon="6.18759">
        <ele>1315.2</ele>
        <time>2025-06-12T08:16:46Z</time>
      </trkpt>
      <trkpt lat="44.63653" lon="6.18754">
        <ele>1314.6</ele>
        <time>2025-06-12T08:16:47Z</time>
      </trkpt>
      <trkpt lat="44.63665" lon="6.18748">
        <ele>1313.4</ele>
        <time>2025-06-12T08:16:48Z</time>
      </trkpt>
      <trkpt lat="44.63676" lon="6.18743">
        <ele>1312.8</ele>
        <time>2025-06-12T08:16:49Z</time>
      </trkpt>
      <trkpt lat="44.63686" lon="6.18739">
        <ele>1312</ele>
        <time>2025-06-12T08:16:50Z</time>
      </trkpt>
      <trkpt lat="44.63696" lon="6.18735">
        <ele>1311.2</ele>
        <time>2025-06-12T08:16:51Z</time>
      </trkpt>
      <trkpt lat="44.63705" lon="6.18733">
        <ele>1310.4</ele>
        <time>2025-06-12T08:16:52Z</time>
      </trkpt>
      <trkpt lat="44.63714" lon="6.18734">
        <ele>1309.6</ele>
        <time>2025-06-12T08:16:53Z</time>
      </trkpt>
      <trkpt lat="44.63723" lon="6.18736">
        <ele>1309.2</ele>
        <time>2025-06-12T08:16:54Z</time>
      </trkpt>
      <trkpt lat="44.63741" lon="6.18749">
        <ele>1308.6</ele>
        <time>2025-06-12T08:16:56Z</time>
      </trkpt>
      <trkpt lat="44.63753" lon="6.1877">
        <ele>1308.2</ele>
        <time>2025-06-12T08:16:58Z</time>
      </trkpt>
      <trkpt lat="44.63758" lon="6.18782">
        <ele>1308</ele>
        <time>2025-06-12T08:16:59Z</time>
      </trkpt>
      <trkpt lat="44.63761" lon="6.18796">
        <ele>1307.8</ele>
        <time>2025-06-12T08:17:00Z</time>
      </trkpt>
      <trkpt lat="44.63765" lon="6.18811">
        <ele>1307.6</ele>
        <time>2025-06-12T08:17:01Z</time>
      </trkpt>
      <trkpt lat="44.63768" lon="6.18826">
        <ele>1307.4</ele>
        <time>2025-06-12T08:17:02Z</time>
      </trkpt>
      <trkpt lat="44.63772" lon="6.18841">
        <ele>1307</ele>
        <time>2025-06-12T08:17:03Z</time>
      </trkpt>
      <trkpt lat="44.63776" lon="6.18857">
        <ele>1306.6</ele>
        <time>2025-06-12T08:17:04Z</time>
      </trkpt>
      <trkpt lat="44.63781" lon="6.18872">
        <ele>1306</ele>
        <time>2025-06-12T08:17:05Z</time>
      </trkpt>
      <trkpt lat="44.63785" lon="6.18887">
        <ele>1305.4</ele>
        <time>2025-06-12T08:17:06Z</time>
      </trkpt>
      <trkpt lat="44.6379" lon="6.18902">
        <ele>1305</ele>
        <time>2025-06-12T08:17:07Z</time>
      </trkpt>
      <trkpt lat="44.63802" lon="6.18934">
        <ele>1303.6</ele>
        <time>2025-06-12T08:17:09Z</time>
      </trkpt>
      <trkpt lat="44.63815" lon="6.18966">
        <ele>1301.8</ele>
        <time>2025-06-12T08:17:11Z</time>
      </trkpt>
      <trkpt lat="44.63824" lon="6.19">
        <ele>1298.8</ele>
        <time>2025-06-12T08:17:13Z</time>
      </trkpt>
      <trkpt lat="44.63829" lon="6.19017">
        <ele>1297.6</ele>
        <time>2025-06-12T08:17:14Z</time>
      </trkpt>
      <trkpt lat="44.63834" lon="6.19034">
        <ele>1296.4</ele>
        <time>2025-06-12T08:17:15Z</time>
      </trkpt>
      <trkpt lat="44.63839" lon="6.19052">
        <ele>1295</ele>
        <time>2025-06-12T08:17:16Z</time>
      </trkpt>
      <trkpt lat="44.63846" lon="6.19068">
        <ele>1294</ele>
        <time>2025-06-12T08:17:17Z</time>
      </trkpt>
      <trkpt lat="44.63854" lon="6.19085">
        <ele>1293</ele>
        <time>2025-06-12T08:17:18Z</time>
      </trkpt>
      <trkpt lat="44.63863" lon="6.19101">
        <ele>1292.4</ele>
        <time>2025-06-12T08:17:19Z</time>
      </trkpt>
      <trkpt lat="44.63871" lon="6.19117">
        <ele>1291.6</ele>
        <time>2025-06-12T08:17:20Z</time>
      </trkpt>
      <trkpt lat="44.6388" lon="6.19134">
        <ele>1290.6</ele>
        <time>2025-06-12T08:17:21Z</time>
      </trkpt>
      <trkpt lat="44.63888" lon="6.19152">
        <ele>1289.4</ele>
        <time>2025-06-12T08:17:22Z</time>
      </trkpt>
      <trkpt lat="44.63896" lon="6.1917">
        <ele>1288.4</ele>
        <time>2025-06-12T08:17:23Z</time>
      </trkpt>
      <trkpt lat="44.63904" lon="6.19188">
        <ele>1287.2</ele>
        <time>2025-06-12T08:17:24Z</time>
      </trkpt>
      <trkpt lat="44.63913" lon="6.19206">
        <ele>1286</ele>
        <time>2025-06-12T08:17:25Z</time>
      </trkpt>
      <trkpt lat="44.63921" lon="6.19225">
        <ele>1284.8</ele>
        <time>2025-06-12T08:17:26Z</time>
      </trkpt>
      <trkpt lat="44.63929" lon="6.19244">
        <ele>1283.6</ele>
        <time>2025-06-12T08:17:27Z</time>
      </trkpt>
      <trkpt lat="44.63936" lon="6.19262">
        <ele>1282</ele>
        <time>2025-06-12T08:17:28Z</time>
      </trkpt>
      <trkpt lat="44.63942" lon="6.1928">
        <ele>1280.6</ele>
        <time>2025-06-12T08:17:29Z</time>
      </trkpt>
      <trkpt lat="44.63949" lon="6.19297">
        <ele>1279.2</ele>
        <time>2025-06-12T08:17:30Z</time>
      </trkpt>
      <trkpt lat="44.63955" lon="6.19312">
        <ele>1277.8</ele>
        <time>2025-06-12T08:17:31Z</time>
      </trkpt>
      <trkpt lat="44.6396" lon="6.19326">
        <ele>1276.2</ele>
        <time>2025-06-12T08:17:32Z</time>
      </trkpt>
      <trkpt lat="44.63964" lon="6.19341">
        <ele>1274.8</ele>
        <time>2025-06-12T08:17:33Z</time>
      </trkpt>
      <trkpt lat="44.63967" lon="6.19355">
        <ele>1273.4</ele>
        <time>2025-06-12T08:17:34Z</time>
      </trkpt>
      <trkpt lat="44.63968" lon="6.19371">
        <ele>1272.2</ele>
        <time>2025-06-12T08:17:35Z</time>
      </trkpt>
      <trkpt lat="44.6397" lon="6.19387">
        <ele>1270.8</ele>
        <time>2025-06-12T08:17:36Z</time>
      </trkpt>
      <trkpt lat="44.63973" lon="6.19404">
        <ele>1269.8</ele>
        <time>2025-06-12T08:17:37Z</time>
      </trkpt>
      <trkpt lat="44.63975" lon="6.19421">
        <ele>1269</ele>
        <time>2025-06-12T08:17:38Z</time>
      </trkpt>
      <trkpt lat="44.63978" lon="6.19439">
        <ele>1268.4</ele>
        <time>2025-06-12T08:17:39Z</time>
      </trkpt>
      <trkpt lat="44.63982" lon="6.19456">
        <ele>1268.2</ele>
        <time>2025-06-12T08:17:40Z</time>
      </trkpt>
      <trkpt lat="44.63986" lon="6.19474">
        <ele>1267.4</ele>
        <time>2025-06-12T08:17:41Z</time>
      </trkpt>
      <trkpt lat="44.63991" lon="6.19492">
        <ele>1266.8</ele>
        <time>2025-06-12T08:17:42Z</time>
      </trkpt>
      <trkpt lat="44.63996" lon="6.19509">
        <ele>1266</ele>
        <time>2025-06-12T08:17:43Z</time>
      </trkpt>
      <trkpt lat="44.64" lon="6.19526">
        <ele>1265.2</ele>
        <time>2025-06-12T08:17:44Z</time>
      </trkpt>
      <trkpt lat="44.64005" lon="6.19542">
        <ele>1264.2</ele>
        <time>2025-06-12T08:17:45Z</time>
      </trkpt>
      <trkpt lat="44.64012" lon="6.19558">
        <ele>1263.2</ele>
        <time>2025-06-12T08:17:46Z</time>
      </trkpt>
      <trkpt lat="44.64019" lon="6.19574">
        <ele>1262</ele>
        <time>2025-06-12T08:17:47Z</time>
      </trkpt>
      <trkpt lat="44.64028" lon="6.19588">
        <ele>1261</ele>
        <time>2025-06-12T08:17:48Z</time>
      </trkpt>
      <trkpt lat="44.64039" lon="6.19603">
        <ele>1259.8</ele>
        <time>2025-06-12T08:17:49Z</time>
      </trkpt>
      <trkpt lat="44.64049" lon="6.19617">
        <ele>1258.4</ele>
        <time>2025-06-12T08:17:50Z</time>
      </trkpt>
      <trkpt lat="44.64059" lon="6.19631">
        <ele>1257.2</ele>
        <time>2025-06-12T08:17:51Z</time>
      </trkpt>
      <trkpt lat="44.6407" lon="6.19644">
        <ele>1256.2</ele>
        <time>2025-06-12T08:17:52Z</time>
      </trkpt>
      <trkpt lat="44.64082" lon="6.19657">
        <ele>1255.4</ele>
        <time>2025-06-12T08:17:53Z</time>
      </trkpt>
      <trkpt lat="44.64095" lon="6.19668">
        <ele>1254</ele>
        <time>2025-06-12T08:17:54Z</time>
      </trkpt>
      <trkpt lat="44.64108" lon="6.19679">
        <ele>1253</ele>
        <time>2025-06-12T08:17:55Z</time>
      </trkpt>
      <trkpt lat="44.64122" lon="6.19687">
        <ele>1251.6</ele>
        <time>2025-06-12T08:17:56Z</time>
      </trkpt>
      <trkpt lat="44.64136" lon="6.19693">
        <ele>1250.2</ele>
        <time>2025-06-12T08:17:57Z</time>
      </trkpt>
      <trkpt lat="44.6415" lon="6.19699">
        <ele>1249</ele>
        <time>2025-06-12T08:17:58Z</time>
      </trkpt>
      <trkpt lat="44.64163" lon="6.19704">
        <ele>1247.6</ele>
        <time>2025-06-12T08:17:59Z</time>
      </trkpt>
      <trkpt lat="44.64175" lon="6.1971">
        <ele>1246.2</ele>
        <time>2025-06-12T08:18:00Z</time>
      </trkpt>
      <trkpt lat="44.64186" lon="6.19717">
        <ele>1244.8</ele>
        <time>2025-06-12T08:18:01Z</time>
      </trkpt>
      <trkpt lat="44.64196" lon="6.19724">
        <ele>1243.8</ele>
        <time>2025-06-12T08:18:02Z</time>
      </trkpt>
      <trkpt lat="44.64205" lon="6.19732">
        <ele>1242.8</ele>
        <time>2025-06-12T08:18:03Z</time>
      </trkpt>
      <trkpt lat="44.64213" lon="6.1974">
        <ele>1242</ele>
        <time>2025-06-12T08:18:04Z</time>
      </trkpt>
      <trkpt lat="44.6422" lon="6.19746">
        <ele>1241.2</ele>
        <time>2025-06-12T08:18:05Z</time>
      </trkpt>
      <trkpt lat="44.64227" lon="6.19751">
        <ele>1240.8</ele>
        <time>2025-06-12T08:18:06Z</time>
      </trkpt>
      <trkpt lat="44.64233" lon="6.19755">
        <ele>1240.6</ele>
        <time>2025-06-12T08:18:07Z</time>
      </trkpt>
      <trkpt lat="44.64239" lon="6.19758">
        <ele>1240.4</ele>
        <time>2025-06-12T08:18:08Z</time>
      </trkpt>
      <trkpt lat="44.64246" lon="6.19761">
        <ele>1239.8</ele>
        <time>2025-06-12T08:18:09Z</time>
      </trkpt>
      <trkpt lat="44.64253" lon="6.19764">
        <ele>1239.6</ele>
        <time>2025-06-12T08:18:10Z</time>
      </trkpt>
      <trkpt lat="44.64261" lon="6.19765">
        <ele>1239.6</ele>
        <time>2025-06-12T08:18:11Z</time>
      </trkpt>
      <trkpt lat="44.64268" lon="6.19766">
        <ele>1239.6</ele>
        <time>2025-06-12T08:18:12Z</time>
      </trkpt>
      <trkpt lat="44.64275" lon="6.19767">
        <ele>1239.4</ele>
        <time>2025-06-12T08:18:13Z</time>
      </trkpt>
      <trkpt lat="44.64283" lon="6.19769">
        <ele>1239.4</ele>
        <time>2025-06-12T08:18:14Z</time>
      </trkpt>
      <trkpt lat="44.6429" lon="6.19771">
        <ele>1239.2</ele>
        <time>2025-06-12T08:18:15Z</time>
      </trkpt>
      <trkpt lat="44.64297" lon="6.19775">
        <ele>1239</ele>
        <time>2025-06-12T08:18:16Z</time>
      </trkpt>
      <trkpt lat="44.6431" lon="6.19788">
        <ele>1238.8</ele>
        <time>2025-06-12T08:18:18Z</time>
      </trkpt>
      <trkpt lat="44.64315" lon="6.19796">
        <ele>1238.6</ele>
        <time>2025-06-12T08:18:19Z</time>
      </trkpt>
      <trkpt lat="44.6432" lon="6.19805">
        <ele>1238.4</ele>
        <time>2025-06-12T08:18:20Z</time>
      </trkpt>
      <trkpt lat="44.6433" lon="6.19822">
        <ele>1238.2</ele>
        <time>2025-06-12T08:18:22Z</time>
      </trkpt>
      <trkpt lat="44.6434" lon="6.19842">
        <ele>1238</ele>
        <time>2025-06-12T08:18:24Z</time>
      </trkpt>
      <trkpt lat="44.64345" lon="6.19853">
        <ele>1237.6</ele>
        <time>2025-06-12T08:18:25Z</time>
      </trkpt>
      <trkpt lat="44.64349" lon="6.19864">
        <ele>1237.4</ele>
        <time>2025-06-12T08:18:26Z</time>
      </trkpt>
      <trkpt lat="44.64357" lon="6.19886">
        <ele>1237</ele>
        <time>2025-06-12T08:18:28Z</time>
      </trkpt>
      <trkpt lat="44.6436" lon="6.19898">
        <ele>1236.8</ele>
        <time>2025-06-12T08:18:29Z</time>
      </trkpt>
      <trkpt lat="44.64362" lon="6.19909">
        <ele>1236.4</ele>
        <time>2025-06-12T08:18:30Z</time>
      </trkpt>
      <trkpt lat="44.64364" lon="6.1992">
        <ele>1236.4</ele>
        <time>2025-06-12T08:18:31Z</time>
      </trkpt>
      <trkpt lat="44.64365" lon="6.19931">
        <ele>1235.8</ele>
        <time>2025-06-12T08:18:32Z</time>
      </trkpt>
      <trkpt lat="44.64366" lon="6.19941">
        <ele>1235</ele>
        <time>2025-06-12T08:18:33Z</time>
      </trkpt>
      <trkpt lat="44.64366" lon="6.19952">
        <ele>1234.4</ele>
        <time>2025-06-12T08:18:34Z</time>
      </trkpt>
      <trkpt lat="44.64365" lon="6.19964">
        <ele>1233.4</ele>
        <time>2025-06-12T08:18:35Z</time>
      </trkpt>
      <trkpt lat="44.64364" lon="6.19975">
        <ele>1232.8</ele>
        <time>2025-06-12T08:18:36Z</time>
      </trkpt>
      <trkpt lat="44.64364" lon="6.19986">
        <ele>1231.4</ele>
        <time>2025-06-12T08:18:37Z</time>
      </trkpt>
      <trkpt lat="44.64364" lon="6.19996">
        <ele>1230.8</ele>
        <time>2025-06-12T08:18:38Z</time>
      </trkpt>
      <trkpt lat="44.64365" lon="6.20006">
        <ele>1230.2</ele>
        <time>2025-06-12T08:18:39Z</time>
      </trkpt>
      <trkpt lat="44.64369" lon="6.20024">
        <ele>1229</ele>
        <time>2025-06-12T08:18:41Z</time>
      </trkpt>
      <trkpt lat="44.64374" lon="6.20032">
        <ele>1228.2</ele>
        <time>2025-06-12T08:18:42Z</time>
      </trkpt>
      <trkpt lat="44.6438" lon="6.20038">
        <ele>1227.4</ele>
        <time>2025-06-12T08:18:43Z</time>
      </trkpt>
      <trkpt lat="44.64387" lon="6.20042">
        <ele>1226.6</ele>
        <time>2025-06-12T08:18:44Z</time>
      </trkpt>
      <trkpt lat="44.64394" lon="6.20044">
        <ele>1225.6</ele>
        <time>2025-06-12T08:18:45Z</time>
      </trkpt>
      <trkpt lat="44.64402" lon="6.20044">
        <ele>1225</ele>
        <time>2025-06-12T08:18:46Z</time>
      </trkpt>
      <trkpt lat="44.64409" lon="6.20043">
        <ele>1224.6</ele>
        <time>2025-06-12T08:18:47Z</time>
      </trkpt>
      <trkpt lat="44.64416" lon="6.2004">
        <ele>1224.2</ele>
        <time>2025-06-12T08:18:48Z</time>
      </trkpt>
      <trkpt lat="44.64422" lon="6.20038">
        <ele>1223.6</ele>
        <time>2025-06-12T08:18:49Z</time>
      </trkpt>
      <trkpt lat="44.64428" lon="6.20037">
        <ele>1223.2</ele>
        <time>2025-06-12T08:18:50Z</time>
      </trkpt>
      <trkpt lat="44.64432" lon="6.20035">
        <ele>1223</ele>
        <time>2025-06-12T08:18:51Z</time>
      </trkpt>
      <trkpt lat="44.64436" lon="6.20035">
        <ele>1222.6</ele>
        <time>2025-06-12T08:18:52Z</time>
      </trkpt>
      <trkpt lat="44.6444" lon="6.20037">
        <ele>1222</ele>
        <time>2025-06-12T08:18:53Z</time>
      </trkpt>
      <trkpt lat="44.64444" lon="6.2004">
        <ele>1221.4</ele>
        <time>2025-06-12T08:18:54Z</time>
      </trkpt>
      <trkpt lat="44.64447" lon="6.20044">
        <ele>1220.8</ele>
        <time>2025-06-12T08:18:55Z</time>
      </trkpt>
      <trkpt lat="44.64449" lon="6.20048">
        <ele>1220.2</ele>
        <time>2025-06-12T08:18:56Z</time>
      </trkpt>
      <trkpt lat="44.64451" lon="6.20051">
        <ele>1219.4</ele>
        <time>2025-06-12T08:18:57Z</time>
      </trkpt>
      <trkpt lat="44.64452" lon="6.20054">
        <ele>1218.8</ele>
        <time>2025-06-12T08:18:58Z</time>
      </trkpt>
      <trkpt lat="44.64452" lon="6.20055">
        <ele>1218.6</ele>
        <time>2025-06-12T08:18:59Z</time>
      </trkpt>
      <trkpt lat="44.64452" lon="6.20056">
        <ele>1218.4</ele>
        <time>2025-06-12T08:19:00Z</time>
      </trkpt>
      <trkpt lat="44.64452" lon="6.20057">
        <ele>1218.2</ele>
        <time>2025-06-12T08:19:01Z</time>
      </trkpt>
      <trkpt lat="44.64451" lon="6.20056">
        <ele>1218.2</ele>
        <time>2025-06-12T08:19:03Z</time>
      </trkpt>
      <trkpt lat="44.6445" lon="6.20055">
        <ele>1218.2</ele>
        <time>2025-06-12T08:19:04Z</time>
      </trkpt>
      <trkpt lat="44.64449" lon="6.20053">
        <ele>1218</ele>
        <time>2025-06-12T08:19:05Z</time>
      </trkpt>
      <trkpt lat="44.64448" lon="6.20051">
        <ele>1218</ele>
        <time>2025-06-12T08:19:06Z</time>
      </trkpt>
      <trkpt lat="44.64448" lon="6.20051">
        <ele>1218</ele>
        <time>2025-06-12T08:19:07Z</time>
      </trkpt>
      <trkpt lat="44.64448" lon="6.20051">
        <ele>1218</ele>
        <time>2025-06-12T08:19:08Z</time>
      </trkpt>
      <trkpt lat="44.64447" lon="6.20051">
        <ele>1218</ele>
        <time>2025-06-12T08:19:09Z</time>
      </trkpt>
      <trkpt lat="44.64447" lon="6.20051">
        <ele>1218</ele>
        <time>2025-06-12T08:19:10Z</time>
      </trkpt>
      <trkpt lat="44.64447" lon="6.2005">
        <ele>1218</ele>
        <time>2025-06-12T08:19:11Z</time>
      </trkpt>
      <trkpt lat="44.64447" lon="6.2005">
        <ele>1218</ele>
        <time>2025-06-12T08:19:12Z</time>
      </trkpt>
      <trkpt lat="44.64447" lon="6.2005">
        <ele>1218</ele>
        <time>2025-06-12T08:19:14Z</time>
      </trkpt>
      <trkpt lat="44.64447" lon="6.2005">
        <ele>1218</ele>
        <time>2025-06-12T08:19:15Z</time>
      </trkpt>
      <trkpt lat="44.64451" lon="6.20054">
        <ele>1218</ele>
        <time>2025-06-12T08:21:54Z</time>
      </trkpt>
      <trkpt lat="44.64452" lon="6.20051">
        <ele>1218</ele>
        <time>2025-06-12T08:21:56Z</time>
      </trkpt>
      <trkpt lat="44.64453" lon="6.20048">
        <ele>1218</ele>
        <time>2025-06-12T08:21:57Z</time>
      </trkpt>
      <trkpt lat="44.64454" lon="6.20045">
        <ele>1218</ele>
        <time>2025-06-12T08:21:58Z</time>
      </trkpt>
      <trkpt lat="44.64454" lon="6.20041">
        <ele>1217.8</ele>
        <time>2025-06-12T08:21:59Z</time>
      </trkpt>
      <trkpt lat="44.64454" lon="6.20036">
        <ele>1217.8</ele>
        <time>2025-06-12T08:22:00Z</time>
      </trkpt>
      <trkpt lat="44.64454" lon="6.20031">
        <ele>1217.8</ele>
        <time>2025-06-12T08:22:01Z</time>
      </trkpt>
      <trkpt lat="44.64454" lon="6.20026">
        <ele>1217.8</ele>
        <time>2025-06-12T08:22:02Z</time>
      </trkpt>
      <trkpt lat="44.64453" lon="6.2002">
        <ele>1217.8</ele>
        <time>2025-06-12T08:22:03Z</time>
      </trkpt>
      <trkpt lat="44.64453" lon="6.20014">
        <ele>1217.8</ele>
        <time>2025-06-12T08:22:04Z</time>
      </trkpt>
      <trkpt lat="44.64455" lon="6.20007">
        <ele>1217.8</ele>
        <time>2025-06-12T08:22:05Z</time>
      </trkpt>
      <trkpt lat="44.64457" lon="6.19999">
        <ele>1217.6</ele>
        <time>2025-06-12T08:22:06Z</time>
      </trkpt>
      <trkpt lat="44.64458" lon="6.19991">
        <ele>1217.4</ele>
        <time>2025-06-12T08:22:07Z</time>
      </trkpt>
      <trkpt lat="44.6446" lon="6.19983">
        <ele>1217.2</ele>
        <time>2025-06-12T08:22:08Z</time>
      </trkpt>
      <trkpt lat="44.6446" lon="6.19974">
        <ele>1216.8</ele>
        <time>2025-06-12T08:22:09Z</time>
      </trkpt>
      <trkpt lat="44.64459" lon="6.19966">
        <ele>1216.6</ele>
        <time>2025-06-12T08:22:10Z</time>
      </trkpt>
      <trkpt lat="44.64458" lon="6.19958">
        <ele>1216.4</ele>
        <time>2025-06-12T08:22:11Z</time>
      </trkpt>
      <trkpt lat="44.64456" lon="6.19949">
        <ele>1216.2</ele>
        <time>2025-06-12T08:22:12Z</time>
      </trkpt>
      <trkpt lat="44.64453" lon="6.19941">
        <ele>1215.8</ele>
        <time>2025-06-12T08:22:13Z</time>
      </trkpt>
      <trkpt lat="44.6445" lon="6.19932">
        <ele>1215.2</ele>
        <time>2025-06-12T08:22:14Z</time>
      </trkpt>
      <trkpt lat="44.64447" lon="6.19924">
        <ele>1214.6</ele>
        <time>2025-06-12T08:22:15Z</time>
      </trkpt>
      <trkpt lat="44.64444" lon="6.19915">
        <ele>1214.2</ele>
        <time>2025-06-12T08:22:16Z</time>
      </trkpt>
      <trkpt lat="44.64442" lon="6.19906">
        <ele>1214</ele>
        <time>2025-06-12T08:22:17Z</time>
      </trkpt>
      <trkpt lat="44.64438" lon="6.19897">
        <ele>1213.8</ele>
        <time>2025-06-12T08:22:18Z</time>
      </trkpt>
      <trkpt lat="44.64435" lon="6.19888">
        <ele>1213.4</ele>
        <time>2025-06-12T08:22:19Z</time>
      </trkpt>
      <trkpt lat="44.64428" lon="6.19869">
        <ele>1213</ele>
        <time>2025-06-12T08:22:21Z</time>
      </trkpt>
      <trkpt lat="44.64421" lon="6.19848">
        <ele>1212.2</ele>
        <time>2025-06-12T08:22:23Z</time>
      </trkpt>
      <trkpt lat="44.64413" lon="6.19826">
        <ele>1211.8</ele>
        <time>2025-06-12T08:22:25Z</time>
      </trkpt>
      <trkpt lat="44.64408" lon="6.19804">
        <ele>1211.2</ele>
        <time>2025-06-12T08:22:27Z</time>
      </trkpt>
      <trkpt lat="44.64404" lon="6.19783">
        <ele>1210.6</ele>
        <time>2025-06-12T08:22:29Z</time>
      </trkpt>
      <trkpt lat="44.64402" lon="6.19772">
        <ele>1210.2</ele>
        <time>2025-06-12T08:22:30Z</time>
      </trkpt>
      <trkpt lat="44.644" lon="6.19761">
        <ele>1209.8</ele>
        <time>2025-06-12T08:22:31Z</time>
      </trkpt>
      <trkpt lat="44.64399" lon="6.1975">
        <ele>1209.2</ele>
        <time>2025-06-12T08:22:32Z</time>
      </trkpt>
      <trkpt lat="44.64398" lon="6.19738">
        <ele>1208.6</ele>
        <time>2025-06-12T08:22:33Z</time>
      </trkpt>
      <trkpt lat="44.64397" lon="6.19726">
        <ele>1208</ele>
        <time>2025-06-12T08:22:34Z</time>
      </trkpt>
      <trkpt lat="44.64397" lon="6.19714">
        <ele>1207.6</ele>
        <time>2025-06-12T08:22:35Z</time>
      </trkpt>
      <trkpt lat="44.64398" lon="6.19701">
        <ele>1207.4</ele>
        <time>2025-06-12T08:22:36Z</time>
      </trkpt>
      <trkpt lat="44.64399" lon="6.19687">
        <ele>1207.2</ele>
        <time>2025-06-12T08:22:37Z</time>
      </trkpt>
      <trkpt lat="44.644" lon="6.19674">
        <ele>1207</ele>
        <time>2025-06-12T08:22:38Z</time>
      </trkpt>
      <trkpt lat="44.64402" lon="6.19661">
        <ele>1206.8</ele>
        <time>2025-06-12T08:22:39Z</time>
      </trkpt>
      <trkpt lat="44.64405" lon="6.19648">
        <ele>1206.4</ele>
        <time>2025-06-12T08:22:40Z</time>
      </trkpt>
      <trkpt lat="44.64407" lon="6.19635">
        <ele>1205.8</ele>
        <time>2025-06-12T08:22:41Z</time>
      </trkpt>
      <trkpt lat="44.6441" lon="6.19621">
        <ele>1205.2</ele>
        <time>2025-06-12T08:22:42Z</time>
      </trkpt>
      <trkpt lat="44.64414" lon="6.19608">
        <ele>1204.8</ele>
        <time>2025-06-12T08:22:43Z</time>
      </trkpt>
      <trkpt lat="44.64417" lon="6.19594">
        <ele>1204.4</ele>
        <time>2025-06-12T08:22:44Z</time>
      </trkpt>
      <trkpt lat="44.64423" lon="6.19566">
        <ele>1202.8</ele>
        <time>2025-06-12T08:22:46Z</time>
      </trkpt>
      <trkpt lat="44.64426" lon="6.19552">
        <ele>1202.2</ele>
        <time>2025-06-12T08:22:47Z</time>
      </trkpt>
      <trkpt lat="44.64428" lon="6.19538">
        <ele>1201.6</ele>
        <time>2025-06-12T08:22:48Z</time>
      </trkpt>
      <trkpt lat="44.6443" lon="6.19523">
        <ele>1201.2</ele>
        <time>2025-06-12T08:22:49Z</time>
      </trkpt>
      <trkpt lat="44.64431" lon="6.19508">
        <ele>1200.4</ele>
        <time>2025-06-12T08:22:50Z</time>
      </trkpt>
      <trkpt lat="44.64431" lon="6.19493">
        <ele>1199.6</ele>
        <time>2025-06-12T08:22:51Z</time>
      </trkpt>
      <trkpt lat="44.6443" lon="6.19477">
        <ele>1199</ele>
        <time>2025-06-12T08:22:52Z</time>
      </trkpt>
      <trkpt lat="44.64429" lon="6.19462">
        <ele>1198.6</ele>
        <time>2025-06-12T08:22:53Z</time>
      </trkpt>
      <trkpt lat="44.64428" lon="6.19446">
        <ele>1198.2</ele>
        <time>2025-06-12T08:22:54Z</time>
      </trkpt>
      <trkpt lat="44.64427" lon="6.19431">
        <ele>1197.6</ele>
        <time>2025-06-12T08:22:55Z</time>
      </trkpt>
      <trkpt lat="44.64425" lon="6.19415">
        <ele>1197</ele>
        <time>2025-06-12T08:22:56Z</time>
      </trkpt>
      <trkpt lat="44.64423" lon="6.19399">
        <ele>1196.4</ele>
        <time>2025-06-12T08:22:57Z</time>
      </trkpt>
      <trkpt lat="44.6442" lon="6.19368">
        <ele>1195.2</ele>
        <time>2025-06-12T08:22:59Z</time>
      </trkpt>
      <trkpt lat="44.64417" lon="6.19336">
        <ele>1193.8</ele>
        <time>2025-06-12T08:23:01Z</time>
      </trkpt>
      <trkpt lat="44.64414" lon="6.19304">
        <ele>1192.4</ele>
        <time>2025-06-12T08:23:03Z</time>
      </trkpt>
      <trkpt lat="44.64412" lon="6.19288">
        <ele>1191.8</ele>
        <time>2025-06-12T08:23:04Z</time>
      </trkpt>
      <trkpt lat="44.64411" lon="6.19272">
        <ele>1191</ele>
        <time>2025-06-12T08:23:05Z</time>
      </trkpt>
      <trkpt lat="44.6441" lon="6.19255">
        <ele>1190.4</ele>
        <time>2025-06-12T08:23:06Z</time>
      </trkpt>
      <trkpt lat="44.64409" lon="6.19238">
        <ele>1189.8</ele>
        <time>2025-06-12T08:23:07Z</time>
      </trkpt>
      <trkpt lat="44.64409" lon="6.19221">
        <ele>1189.4</ele>
        <time>2025-06-12T08:23:08Z</time>
      </trkpt>
      <trkpt lat="44.6441" lon="6.19204">
        <ele>1188.8</ele>
        <time>2025-06-12T08:23:09Z</time>
      </trkpt>
      <trkpt lat="44.64409" lon="6.19186">
        <ele>1188.2</ele>
        <time>2025-06-12T08:23:10Z</time>
      </trkpt>
      <trkpt lat="44.64408" lon="6.19169">
        <ele>1187.6</ele>
        <time>2025-06-12T08:23:11Z</time>
      </trkpt>
      <trkpt lat="44.64406" lon="6.19152">
        <ele>1187.2</ele>
        <time>2025-06-12T08:23:12Z</time>
      </trkpt>
      <trkpt lat="44.64403" lon="6.19135">
        <ele>1186.4</ele>
        <time>2025-06-12T08:23:13Z</time>
      </trkpt>
      <trkpt lat="44.64399" lon="6.19118">
        <ele>1184.8</ele>
        <time>2025-06-12T08:23:14Z</time>
      </trkpt>
      <trkpt lat="44.64396" lon="6.19101">
        <ele>1184.2</ele>
        <time>2025-06-12T08:23:15Z</time>
      </trkpt>
      <trkpt lat="44.64392" lon="6.19084">
        <ele>1183.4</ele>
        <time>2025-06-12T08:23:16Z</time>
      </trkpt>
      <trkpt lat="44.64389" lon="6.19066">
        <ele>1182.6</ele>
        <time>2025-06-12T08:23:17Z</time>
      </trkpt>
      <trkpt lat="44.64387" lon="6.19049">
        <ele>1181.8</ele>
        <time>2025-06-12T08:23:18Z</time>
      </trkpt>
      <trkpt lat="44.64381" lon="6.19013">
        <ele>1180.6</ele>
        <time>2025-06-12T08:23:20Z</time>
      </trkpt>
      <trkpt lat="44.64377" lon="6.18977">
        <ele>1179.2</ele>
        <time>2025-06-12T08:23:22Z</time>
      </trkpt>
      <trkpt lat="44.64371" lon="6.1894">
        <ele>1177.2</ele>
        <time>2025-06-12T08:23:24Z</time>
      </trkpt>
      <trkpt lat="44.64368" lon="6.18922">
        <ele>1176.4</ele>
        <time>2025-06-12T08:23:25Z</time>
      </trkpt>
      <trkpt lat="44.64365" lon="6.18904">
        <ele>1175.4</ele>
        <time>2025-06-12T08:23:26Z</time>
      </trkpt>
      <trkpt lat="44.64361" lon="6.18886">
        <ele>1174.4</ele>
        <time>2025-06-12T08:23:27Z</time>
      </trkpt>
      <trkpt lat="44.64356" lon="6.18868">
        <ele>1173.4</ele>
        <time>2025-06-12T08:23:28Z</time>
      </trkpt>
      <trkpt lat="44.6435" lon="6.1885">
        <ele>1172.8</ele>
        <time>2025-06-12T08:23:29Z</time>
      </trkpt>
      <trkpt lat="44.64344" lon="6.18833">
        <ele>1172</ele>
        <time>2025-06-12T08:23:30Z</time>
      </trkpt>
      <trkpt lat="44.64338" lon="6.18816">
        <ele>1171.6</ele>
        <time>2025-06-12T08:23:31Z</time>
      </trkpt>
      <trkpt lat="44.64332" lon="6.18799">
        <ele>1170.8</ele>
        <time>2025-06-12T08:23:32Z</time>
      </trkpt>
      <trkpt lat="44.64325" lon="6.18782">
        <ele>1170</ele>
        <time>2025-06-12T08:23:33Z</time>
      </trkpt>
      <trkpt lat="44.64319" lon="6.18765">
        <ele>1169</ele>
        <time>2025-06-12T08:23:34Z</time>
      </trkpt>
      <trkpt lat="44.64313" lon="6.18747">
        <ele>1168.2</ele>
        <time>2025-06-12T08:23:35Z</time>
      </trkpt>
      <trkpt lat="44.64307" lon="6.1873">
        <ele>1167.4</ele>
        <time>2025-06-12T08:23:36Z</time>
      </trkpt>
      <trkpt lat="44.64302" lon="6.18712">
        <ele>1166.4</ele>
        <time>2025-06-12T08:23:37Z</time>
      </trkpt>
      <trkpt lat="44.64297" lon="6.18693">
        <ele>1165.4</ele>
        <time>2025-06-12T08:23:38Z</time>
      </trkpt>
      <trkpt lat="44.64293" lon="6.18674">
        <ele>1164.4</ele>
        <time>2025-06-12T08:23:39Z</time>
      </trkpt>
      <trkpt lat="44.64288" lon="6.18635">
        <ele>1163</ele>
        <time>2025-06-12T08:23:41Z</time>
      </trkpt>
      <trkpt lat="44.64287" lon="6.18615">
        <ele>1161.4</ele>
        <time>2025-06-12T08:23:42Z</time>
      </trkpt>
      <trkpt lat="44.64286" lon="6.18595">
        <ele>1160.4</ele>
        <time>2025-06-12T08:23:43Z</time>
      </trkpt>
      <trkpt lat="44.64286" lon="6.18575">
        <ele>1159.2</ele>
        <time>2025-06-12T08:23:44Z</time>
      </trkpt>
      <trkpt lat="44.64285" lon="6.18555">
        <ele>1158.2</ele>
        <time>2025-06-12T08:23:45Z</time>
      </trkpt>
      <trkpt lat="44.64284" lon="6.18513">
        <ele>1156.4</ele>
        <time>2025-06-12T08:23:47Z</time>
      </trkpt>
      <trkpt lat="44.64284" lon="6.1849">
        <ele>1155.4</ele>
        <time>2025-06-12T08:23:48Z</time>
      </trkpt>
      <trkpt lat="44.64283" lon="6.18468">
        <ele>1154.2</ele>
        <time>2025-06-12T08:23:49Z</time>
      </trkpt>
      <trkpt lat="44.64282" lon="6.18447">
        <ele>1153.2</ele>
        <time>2025-06-12T08:23:50Z</time>
      </trkpt>
      <trkpt lat="44.6428" lon="6.18426">
        <ele>1152</ele>
        <time>2025-06-12T08:23:51Z</time>
      </trkpt>
      <trkpt lat="44.64276" lon="6.18406">
        <ele>1150.8</ele>
        <time>2025-06-12T08:23:52Z</time>
      </trkpt>
      <trkpt lat="44.64272" lon="6.18387">
        <ele>1149.6</ele>
        <time>2025-06-12T08:23:53Z</time>
      </trkpt>
      <trkpt lat="44.64265" lon="6.18369">
        <ele>1148.6</ele>
        <time>2025-06-12T08:23:54Z</time>
      </trkpt>
      <trkpt lat="44.64257" lon="6.18351">
        <ele>1147.6</ele>
        <time>2025-06-12T08:23:55Z</time>
      </trkpt>
      <trkpt lat="44.64249" lon="6.18334">
        <ele>1146.4</ele>
        <time>2025-06-12T08:23:56Z</time>
      </trkpt>
      <trkpt lat="44.64241" lon="6.18316">
        <ele>1145</ele>
        <time>2025-06-12T08:23:57Z</time>
      </trkpt>
      <trkpt lat="44.64234" lon="6.18298">
        <ele>1143.6</ele>
        <time>2025-06-12T08:23:58Z</time>
      </trkpt>
      <trkpt lat="44.64226" lon="6.18281">
        <ele>1142.2</ele>
        <time>2025-06-12T08:23:59Z</time>
      </trkpt>
      <trkpt lat="44.64218" lon="6.18264">
        <ele>1141.2</ele>
        <time>2025-06-12T08:24:00Z</time>
      </trkpt>
      <trkpt lat="44.6421" lon="6.18248">
        <ele>1140.2</ele>
        <time>2025-06-12T08:24:01Z</time>
      </trkpt>
      <trkpt lat="44.64201" lon="6.18231">
        <ele>1139.2</ele>
        <time>2025-06-12T08:24:02Z</time>
      </trkpt>
      <trkpt lat="44.64192" lon="6.18215">
        <ele>1138.2</ele>
        <time>2025-06-12T08:24:03Z</time>
      </trkpt>
      <trkpt lat="44.64182" lon="6.182">
        <ele>1137</ele>
        <time>2025-06-12T08:24:04Z</time>
      </trkpt>
      <trkpt lat="44.64172" lon="6.18186">
        <ele>1135.8</ele>
        <time>2025-06-12T08:24:05Z</time>
      </trkpt>
      <trkpt lat="44.64163" lon="6.18175">
        <ele>1134.6</ele>
        <time>2025-06-12T08:24:06Z</time>
      </trkpt>
      <trkpt lat="44.64154" lon="6.18164">
        <ele>1133.2</ele>
        <time>2025-06-12T08:24:07Z</time>
      </trkpt>
      <trkpt lat="44.64147" lon="6.18155">
        <ele>1132</ele>
        <time>2025-06-12T08:24:08Z</time>
      </trkpt>
      <trkpt lat="44.6414" lon="6.18145">
        <ele>1131</ele>
        <time>2025-06-12T08:24:09Z</time>
      </trkpt>
      <trkpt lat="44.64136" lon="6.18135">
        <ele>1129</ele>
        <time>2025-06-12T08:24:10Z</time>
      </trkpt>
      <trkpt lat="44.64136" lon="6.18124">
        <ele>1128</ele>
        <time>2025-06-12T08:24:11Z</time>
      </trkpt>
      <trkpt lat="44.64138" lon="6.18114">
        <ele>1126.6</ele>
        <time>2025-06-12T08:24:12Z</time>
      </trkpt>
      <trkpt lat="44.64142" lon="6.18104">
        <ele>1126</ele>
        <time>2025-06-12T08:24:13Z</time>
      </trkpt>
      <trkpt lat="44.64148" lon="6.18094">
        <ele>1125.6</ele>
        <time>2025-06-12T08:24:14Z</time>
      </trkpt>
      <trkpt lat="44.64156" lon="6.18084">
        <ele>1125.2</ele>
        <time>2025-06-12T08:24:15Z</time>
      </trkpt>
      <trkpt lat="44.64163" lon="6.18074">
        <ele>1125</ele>
        <time>2025-06-12T08:24:16Z</time>
      </trkpt>
      <trkpt lat="44.64169" lon="6.18062">
        <ele>1125</ele>
        <time>2025-06-12T08:24:17Z</time>
      </trkpt>
      <trkpt lat="44.64173" lon="6.1805">
        <ele>1124.8</ele>
        <time>2025-06-12T08:24:18Z</time>
      </trkpt>
      <trkpt lat="44.64176" lon="6.18038">
        <ele>1124.6</ele>
        <time>2025-06-12T08:24:19Z</time>
      </trkpt>
      <trkpt lat="44.64178" lon="6.18026">
        <ele>1124.4</ele>
        <time>2025-06-12T08:24:20Z</time>
      </trkpt>
      <trkpt lat="44.64176" lon="6.17999">
        <ele>1123</ele>
        <time>2025-06-12T08:24:22Z</time>
      </trkpt>
      <trkpt lat="44.64174" lon="6.17984">
        <ele>1122.2</ele>
        <time>2025-06-12T08:24:23Z</time>
      </trkpt>
      <trkpt lat="44.64171" lon="6.17969">
        <ele>1121.2</ele>
        <time>2025-06-12T08:24:24Z</time>
      </trkpt>
      <trkpt lat="44.64168" lon="6.17955">
        <ele>1120.2</ele>
        <time>2025-06-12T08:24:25Z</time>
      </trkpt>
      <trkpt lat="44.64164" lon="6.1794">
        <ele>1119.4</ele>
        <time>2025-06-12T08:24:26Z</time>
      </trkpt>
      <trkpt lat="44.6416" lon="6.17926">
        <ele>1118.8</ele>
        <time>2025-06-12T08:24:27Z</time>
      </trkpt>
      <trkpt lat="44.64155" lon="6.1791">
        <ele>1118.4</ele>
        <time>2025-06-12T08:24:28Z</time>
      </trkpt>
      <trkpt lat="44.6415" lon="6.17895">
        <ele>1118</ele>
        <time>2025-06-12T08:24:29Z</time>
      </trkpt>
      <trkpt lat="44.64145" lon="6.17879">
        <ele>1117.2</ele>
        <time>2025-06-12T08:24:30Z</time>
      </trkpt>
      <trkpt lat="44.6414" lon="6.17863">
        <ele>1116.2</ele>
        <time>2025-06-12T08:24:31Z</time>
      </trkpt>
      <trkpt lat="44.64135" lon="6.17846">
        <ele>1115.2</ele>
        <time>2025-06-12T08:24:32Z</time>
      </trkpt>
      <trkpt lat="44.6413" lon="6.1783">
        <ele>1114</ele>
        <time>2025-06-12T08:24:33Z</time>
      </trkpt>
      <trkpt lat="44.64125" lon="6.17813">
        <ele>1113</ele>
        <time>2025-06-12T08:24:34Z</time>
      </trkpt>
      <trkpt lat="44.64119" lon="6.17796">
        <ele>1112</ele>
        <time>2025-06-12T08:24:35Z</time>
      </trkpt>
      <trkpt lat="44.64114" lon="6.17779">
        <ele>1110.8</ele>
        <time>2025-06-12T08:24:36Z</time>
      </trkpt>
      <trkpt lat="44.64109" lon="6.17761">
        <ele>1109.6</ele>
        <time>2025-06-12T08:24:37Z</time>
      </trkpt>
      <trkpt lat="44.64103" lon="6.17744">
        <ele>1107.6</ele>
        <time>2025-06-12T08:24:38Z</time>
      </trkpt>
      <trkpt lat="44.64098" lon="6.17727">
        <ele>1106.6</ele>
        <time>2025-06-12T08:24:39Z</time>
      </trkpt>
      <trkpt lat="44.64093" lon="6.17709">
        <ele>1105.4</ele>
        <time>2025-06-12T08:24:40Z</time>
      </trkpt>
      <trkpt lat="44.64087" lon="6.17691">
        <ele>1104.2</ele>
        <time>2025-06-12T08:24:41Z</time>
      </trkpt>
      <trkpt lat="44.64082" lon="6.17674">
        <ele>1102.6</ele>
        <time>2025-06-12T08:24:42Z</time>
      </trkpt>
      <trkpt lat="44.64078" lon="6.17656">
        <ele>1101.6</ele>
        <time>2025-06-12T08:24:43Z</time>
      </trkpt>
      <trkpt lat="44.64074" lon="6.17639">
        <ele>1100.4</ele>
        <time>2025-06-12T08:24:44Z</time>
      </trkpt>
      <trkpt lat="44.64071" lon="6.17622">
        <ele>1099.4</ele>
        <time>2025-06-12T08:24:45Z</time>
      </trkpt>
      <trkpt lat="44.64069" lon="6.17604">
        <ele>1098.4</ele>
        <time>2025-06-12T08:24:46Z</time>
      </trkpt>
      <trkpt lat="44.64069" lon="6.17587">
        <ele>1097.4</ele>
        <time>2025-06-12T08:24:47Z</time>
      </trkpt>
      <trkpt lat="44.64071" lon="6.17569">
        <ele>1096.2</ele>
        <time>2025-06-12T08:24:48Z</time>
      </trkpt>
      <trkpt lat="44.64073" lon="6.17552">
        <ele>1095.2</ele>
        <time>2025-06-12T08:24:49Z</time>
      </trkpt>
      <trkpt lat="44.64076" lon="6.17534">
        <ele>1094.2</ele>
        <time>2025-06-12T08:24:50Z</time>
      </trkpt>
      <trkpt lat="44.64079" lon="6.17517">
        <ele>1093.4</ele>
        <time>2025-06-12T08:24:51Z</time>
      </trkpt>
      <trkpt lat="44.64082" lon="6.17498">
        <ele>1092.6</ele>
        <time>2025-06-12T08:24:52Z</time>
      </trkpt>
      <trkpt lat="44.64085" lon="6.1748">
        <ele>1091.6</ele>
        <time>2025-06-12T08:24:53Z</time>
      </trkpt>
      <trkpt lat="44.64086" lon="6.17459">
        <ele>1091</ele>
        <time>2025-06-12T08:24:54Z</time>
      </trkpt>
      <trkpt lat="44.64085" lon="6.1744">
        <ele>1090.2</ele>
        <time>2025-06-12T08:24:55Z</time>
      </trkpt>
      <trkpt lat="44.64084" lon="6.1742">
        <ele>1089.4</ele>
        <time>2025-06-12T08:24:56Z</time>
      </trkpt>
      <trkpt lat="44.64082" lon="6.174">
        <ele>1088.2</ele>
        <time>2025-06-12T08:24:57Z</time>
      </trkpt>
      <trkpt lat="44.6408" lon="6.17379">
        <ele>1087.2</ele>
        <time>2025-06-12T08:24:58Z</time>
      </trkpt>
      <trkpt lat="44.64078" lon="6.17359">
        <ele>1086.2</ele>
        <time>2025-06-12T08:24:59Z</time>
      </trkpt>
      <trkpt lat="44.64075" lon="6.17338">
        <ele>1085.2</ele>
        <time>2025-06-12T08:25:00Z</time>
      </trkpt>
      <trkpt lat="44.64073" lon="6.17317">
        <ele>1084.2</ele>
        <time>2025-06-12T08:25:01Z</time>
      </trkpt>
      <trkpt lat="44.64071" lon="6.17296">
        <ele>1083.2</ele>
        <time>2025-06-12T08:25:02Z</time>
      </trkpt>
      <trkpt lat="44.64069" lon="6.17275">
        <ele>1082</ele>
        <time>2025-06-12T08:25:03Z</time>
      </trkpt>
      <trkpt lat="44.64067" lon="6.17256">
        <ele>1080.8</ele>
        <time>2025-06-12T08:25:04Z</time>
      </trkpt>
      <trkpt lat="44.64066" lon="6.17237">
        <ele>1078.4</ele>
        <time>2025-06-12T08:25:05Z</time>
      </trkpt>
      <trkpt lat="44.64066" lon="6.17218">
        <ele>1076.8</ele>
        <time>2025-06-12T08:25:06Z</time>
      </trkpt>
      <trkpt lat="44.64067" lon="6.17198">
        <ele>1075</ele>
        <time>2025-06-12T08:25:07Z</time>
      </trkpt>
      <trkpt lat="44.64068" lon="6.17178">
        <ele>1073.4</ele>
        <time>2025-06-12T08:25:08Z</time>
      </trkpt>
      <trkpt lat="44.6407" lon="6.17158">
        <ele>1072</ele>
        <time>2025-06-12T08:25:09Z</time>
      </trkpt>
      <trkpt lat="44.64073" lon="6.17138">
        <ele>1070.6</ele>
        <time>2025-06-12T08:25:10Z</time>
      </trkpt>
      <trkpt lat="44.64077" lon="6.17118">
        <ele>1069.2</ele>
        <time>2025-06-12T08:25:11Z</time>
      </trkpt>
      <trkpt lat="44.64081" lon="6.17098">
        <ele>1068.2</ele>
        <time>2025-06-12T08:25:12Z</time>
      </trkpt>
      <trkpt lat="44.64087" lon="6.17079">
        <ele>1067.2</ele>
        <time>2025-06-12T08:25:13Z</time>
      </trkpt>
      <trkpt lat="44.64093" lon="6.17059">
        <ele>1066.2</ele>
        <time>2025-06-12T08:25:14Z</time>
      </trkpt>
      <trkpt lat="44.641" lon="6.1704">
        <ele>1065.2</ele>
        <time>2025-06-12T08:25:15Z</time>
      </trkpt>
      <trkpt lat="44.64106" lon="6.1702">
        <ele>1064</ele>
        <time>2025-06-12T08:25:16Z</time>
      </trkpt>
      <trkpt lat="44.64112" lon="6.16999">
        <ele>1062.6</ele>
        <time>2025-06-12T08:25:17Z</time>
      </trkpt>
      <trkpt lat="44.64118" lon="6.16978">
        <ele>1061.2</ele>
        <time>2025-06-12T08:25:18Z</time>
      </trkpt>
      <trkpt lat="44.64123" lon="6.16957">
        <ele>1059.8</ele>
        <time>2025-06-12T08:25:19Z</time>
      </trkpt>
      <trkpt lat="44.64127" lon="6.16937">
        <ele>1058.4</ele>
        <time>2025-06-12T08:25:20Z</time>
      </trkpt>
      <trkpt lat="44.6413" lon="6.1692">
        <ele>1057.2</ele>
        <time>2025-06-12T08:25:21Z</time>
      </trkpt>
      <trkpt lat="44.64134" lon="6.16905">
        <ele>1056</ele>
        <time>2025-06-12T08:25:22Z</time>
      </trkpt>
      <trkpt lat="44.64139" lon="6.16892">
        <ele>1054.6</ele>
        <time>2025-06-12T08:25:23Z</time>
      </trkpt>
      <trkpt lat="44.64145" lon="6.16882">
        <ele>1053.2</ele>
        <time>2025-06-12T08:25:24Z</time>
      </trkpt>
      <trkpt lat="44.64153" lon="6.16876">
        <ele>1051.8</ele>
        <time>2025-06-12T08:25:25Z</time>
      </trkpt>
      <trkpt lat="44.6416" lon="6.16874">
        <ele>1050.6</ele>
        <time>2025-06-12T08:25:26Z</time>
      </trkpt>
      <trkpt lat="44.64167" lon="6.16878">
        <ele>1049.2</ele>
        <time>2025-06-12T08:25:27Z</time>
      </trkpt>
      <trkpt lat="44.64174" lon="6.16886">
        <ele>1047.8</ele>
        <time>2025-06-12T08:25:28Z</time>
      </trkpt>
      <trkpt lat="44.64184" lon="6.16907">
        <ele>1046.8</ele>
        <time>2025-06-12T08:25:30Z</time>
      </trkpt>
      <trkpt lat="44.64188" lon="6.16919">
        <ele>1046.6</ele>
        <time>2025-06-12T08:25:31Z</time>
      </trkpt>
      <trkpt lat="44.64193" lon="6.16932">
        <ele>1046.4</ele>
        <time>2025-06-12T08:25:32Z</time>
      </trkpt>
      <trkpt lat="44.64203" lon="6.16955">
        <ele>1046</ele>
        <time>2025-06-12T08:25:34Z</time>
      </trkpt>
      <trkpt lat="44.64209" lon="6.16967">
        <ele>1045.8</ele>
        <time>2025-06-12T08:25:35Z</time>
      </trkpt>
      <trkpt lat="44.64215" lon="6.16979">
        <ele>1045.2</ele>
        <time>2025-06-12T08:25:36Z</time>
      </trkpt>
      <trkpt lat="44.64222" lon="6.1699">
        <ele>1044.6</ele>
        <time>2025-06-12T08:25:37Z</time>
      </trkpt>
      <trkpt lat="44.6423" lon="6.17">
        <ele>1044</ele>
        <time>2025-06-12T08:25:38Z</time>
      </trkpt>
      <trkpt lat="44.64238" lon="6.1701">
        <ele>1043.2</ele>
        <time>2025-06-12T08:25:39Z</time>
      </trkpt>
      <trkpt lat="44.64247" lon="6.17018">
        <ele>1042.4</ele>
        <time>2025-06-12T08:25:40Z</time>
      </trkpt>
      <trkpt lat="44.64255" lon="6.17025">
        <ele>1042</ele>
        <time>2025-06-12T08:25:41Z</time>
      </trkpt>
      <trkpt lat="44.6427" lon="6.17036">
        <ele>1040.8</ele>
        <time>2025-06-12T08:25:43Z</time>
      </trkpt>
      <trkpt lat="44.64277" lon="6.17039">
        <ele>1040.2</ele>
        <time>2025-06-12T08:25:44Z</time>
      </trkpt>
      <trkpt lat="44.64282" lon="6.17041">
        <ele>1039.6</ele>
        <time>2025-06-12T08:25:45Z</time>
      </trkpt>
      <trkpt lat="44.64287" lon="6.17042">
        <ele>1038.6</ele>
        <time>2025-06-12T08:25:46Z</time>
      </trkpt>
      <trkpt lat="44.64291" lon="6.17043">
        <ele>1037.4</ele>
        <time>2025-06-12T08:25:47Z</time>
      </trkpt>
      <trkpt lat="44.64294" lon="6.17043">
        <ele>1036.6</ele>
        <time>2025-06-12T08:25:48Z</time>
      </trkpt>
      <trkpt lat="44.64297" lon="6.17043">
        <ele>1036</ele>
        <time>2025-06-12T08:25:49Z</time>
      </trkpt>
      <trkpt lat="44.643" lon="6.17044">
        <ele>1035.8</ele>
        <time>2025-06-12T08:25:50Z</time>
      </trkpt>
      <trkpt lat="44.64302" lon="6.17044">
        <ele>1035.8</ele>
        <time>2025-06-12T08:25:51Z</time>
      </trkpt>
      <trkpt lat="44.64303" lon="6.17044">
        <ele>1035.6</ele>
        <time>2025-06-12T08:25:52Z</time>
      </trkpt>
      <trkpt lat="44.64305" lon="6.17045">
        <ele>1035.6</ele>
        <time>2025-06-12T08:25:53Z</time>
      </trkpt>
      <trkpt lat="44.64307" lon="6.17045">
        <ele>1035.6</ele>
        <time>2025-06-12T08:25:54Z</time>
      </trkpt>
      <trkpt lat="44.64309" lon="6.17044">
        <ele>1035.6</ele>
        <time>2025-06-12T08:25:55Z</time>
      </trkpt>
      <trkpt lat="44.64311" lon="6.17042">
        <ele>1035.6</ele>
        <time>2025-06-12T08:25:56Z</time>
      </trkpt>
      <trkpt lat="44.64313" lon="6.17039">
        <ele>1035.6</ele>
        <time>2025-06-12T08:25:57Z</time>
      </trkpt>
      <trkpt lat="44.64316" lon="6.17036">
        <ele>1035.6</ele>
        <time>2025-06-12T08:25:58Z</time>
      </trkpt>
      <trkpt lat="44.64319" lon="6.17033">
        <ele>1035.6</ele>
        <time>2025-06-12T08:25:59Z</time>
      </trkpt>
      <trkpt lat="44.64322" lon="6.1703">
        <ele>1035.6</ele>
        <time>2025-06-12T08:26:00Z</time>
      </trkpt>
      <trkpt lat="44.64326" lon="6.17027">
        <ele>1035.6</ele>
        <time>2025-06-12T08:26:01Z</time>
      </trkpt>
      <trkpt lat="44.6433" lon="6.17024">
        <ele>1035.6</ele>
        <time>2025-06-12T08:26:02Z</time>
      </trkpt>
      <trkpt lat="44.64334" lon="6.1702">
        <ele>1035.6</ele>
        <time>2025-06-12T08:26:03Z</time>
      </trkpt>
      <trkpt lat="44.64338" lon="6.17017">
        <ele>1035.6</ele>
        <time>2025-06-12T08:26:04Z</time>
      </trkpt>
      <trkpt lat="44.64342" lon="6.17014">
        <ele>1035.6</ele>
        <time>2025-06-12T08:26:05Z</time>
      </trkpt>
      <trkpt lat="44.64346" lon="6.17013">
        <ele>1035.4</ele>
        <time>2025-06-12T08:26:06Z</time>
      </trkpt>
      <trkpt lat="44.6435" lon="6.17014">
        <ele>1035.2</ele>
        <time>2025-06-12T08:26:07Z</time>
      </trkpt>
      <trkpt lat="44.64354" lon="6.17017">
        <ele>1035</ele>
        <time>2025-06-12T08:26:08Z</time>
      </trkpt>
      <trkpt lat="44.64357" lon="6.17021">
        <ele>1035</ele>
        <time>2025-06-12T08:26:09Z</time>
      </trkpt>
      <trkpt lat="44.64359" lon="6.17026">
        <ele>1034.8</ele>
        <time>2025-06-12T08:26:10Z</time>
      </trkpt>
      <trkpt lat="44.64362" lon="6.17031">
        <ele>1034.8</ele>
        <time>2025-06-12T08:26:11Z</time>
      </trkpt>
      <trkpt lat="44.64365" lon="6.17036">
        <ele>1034.6</ele>
        <time>2025-06-12T08:26:12Z</time>
      </trkpt>
      <trkpt lat="44.64368" lon="6.1704">
        <ele>1034.6</ele>
        <time>2025-06-12T08:26:13Z</time>
      </trkpt>
      <trkpt lat="44.6437" lon="6.17045">
        <ele>1034.6</ele>
        <time>2025-06-12T08:26:14Z</time>
      </trkpt>
      <trkpt lat="44.64375" lon="6.17055">
        <ele>1034.6</ele>
        <time>2025-06-12T08:26:16Z</time>
      </trkpt>
      <trkpt lat="44.64378" lon="6.1706">
        <ele>1034.6</ele>
        <time>2025-06-12T08:26:17Z</time>
      </trkpt>
      <trkpt lat="44.6438" lon="6.17065">
        <ele>1034.6</ele>
        <time>2025-06-12T08:26:18Z</time>
      </trkpt>
      <trkpt lat="44.64386" lon="6.17074">
        <ele>1034.8</ele>
        <time>2025-06-12T08:26:20Z</time>
      </trkpt>
      <trkpt lat="44.64388" lon="6.17079">
        <ele>1034.8</ele>
        <time>2025-06-12T08:26:21Z</time>
      </trkpt>
      <trkpt lat="44.6439" lon="6.17084">
        <ele>1035</ele>
        <time>2025-06-12T08:26:22Z</time>
      </trkpt>
      <trkpt lat="44.64393" lon="6.1709">
        <ele>1035</ele>
        <time>2025-06-12T08:26:23Z</time>
      </trkpt>
      <trkpt lat="44.64395" lon="6.17095">
        <ele>1035</ele>
        <time>2025-06-12T08:26:24Z</time>
      </trkpt>
      <trkpt lat="44.64397" lon="6.17101">
        <ele>1035</ele>
        <time>2025-06-12T08:26:25Z</time>
      </trkpt>
      <trkpt lat="44.64399" lon="6.17107">
        <ele>1035</ele>
        <time>2025-06-12T08:26:26Z</time>
      </trkpt>
      <trkpt lat="44.64402" lon="6.17112">
        <ele>1035</ele>
        <time>2025-06-12T08:26:27Z</time>
      </trkpt>
      <trkpt lat="44.64404" lon="6.17118">
        <ele>1035.2</ele>
        <time>2025-06-12T08:26:28Z</time>
      </trkpt>
      <trkpt lat="44.64406" lon="6.17124">
        <ele>1035.2</ele>
        <time>2025-06-12T08:26:29Z</time>
      </trkpt>
      <trkpt lat="44.64407" lon="6.1713">
        <ele>1035.4</ele>
        <time>2025-06-12T08:26:30Z</time>
      </trkpt>
      <trkpt lat="44.64409" lon="6.17136">
        <ele>1035.4</ele>
        <time>2025-06-12T08:26:31Z</time>
      </trkpt>
      <trkpt lat="44.64413" lon="6.17148">
        <ele>1035.4</ele>
        <time>2025-06-12T08:26:33Z</time>
      </trkpt>
      <trkpt lat="44.64416" lon="6.1716">
        <ele>1035.4</ele>
        <time>2025-06-12T08:26:35Z</time>
      </trkpt>
      <trkpt lat="44.64418" lon="6.17166">
        <ele>1035.4</ele>
        <time>2025-06-12T08:26:36Z</time>
      </trkpt>
      <trkpt lat="44.6442" lon="6.17173">
        <ele>1035.4</ele>
        <time>2025-06-12T08:26:37Z</time>
      </trkpt>
      <trkpt lat="44.64422" lon="6.17179">
        <ele>1035.6</ele>
        <time>2025-06-12T08:26:38Z</time>
      </trkpt>
      <trkpt lat="44.64422" lon="6.17186">
        <ele>1035.6</ele>
        <time>2025-06-12T08:26:39Z</time>
      </trkpt>
      <trkpt lat="44.64423" lon="6.17192">
        <ele>1035.6</ele>
        <time>2025-06-12T08:26:40Z</time>
      </trkpt>
      <trkpt lat="44.64426" lon="6.17203">
        <ele>1035.6</ele>
        <time>2025-06-12T08:26:42Z</time>
      </trkpt>
      <trkpt lat="44.64427" lon="6.17209">
        <ele>1035.8</ele>
        <time>2025-06-12T08:26:43Z</time>
      </trkpt>
      <trkpt lat="44.64429" lon="6.17214">
        <ele>1035.8</ele>
        <time>2025-06-12T08:26:44Z</time>
      </trkpt>
      <trkpt lat="44.64432" lon="6.17218">
        <ele>1035.8</ele>
        <time>2025-06-12T08:26:45Z</time>
      </trkpt>
      <trkpt lat="44.64434" lon="6.17223">
        <ele>1035.8</ele>
        <time>2025-06-12T08:26:46Z</time>
      </trkpt>
      <trkpt lat="44.64438" lon="6.17227">
        <ele>1036</ele>
        <time>2025-06-12T08:26:47Z</time>
      </trkpt>
      <trkpt lat="44.64441" lon="6.17231">
        <ele>1036</ele>
        <time>2025-06-12T08:26:48Z</time>
      </trkpt>
      <trkpt lat="44.64446" lon="6.17241">
        <ele>1036.2</ele>
        <time>2025-06-12T08:26:50Z</time>
      </trkpt>
      <trkpt lat="44.64452" lon="6.17252">
        <ele>1036.4</ele>
        <time>2025-06-12T08:26:52Z</time>
      </trkpt>
      <trkpt lat="44.64456" lon="6.17264">
        <ele>1036.4</ele>
        <time>2025-06-12T08:26:54Z</time>
      </trkpt>
      <trkpt lat="44.64461" lon="6.17276">
        <ele>1036.6</ele>
        <time>2025-06-12T08:26:56Z</time>
      </trkpt>
      <trkpt lat="44.64465" lon="6.17289">
        <ele>1036.6</ele>
        <time>2025-06-12T08:26:58Z</time>
      </trkpt>
      <trkpt lat="44.64467" lon="6.17295">
        <ele>1036.6</ele>
        <time>2025-06-12T08:26:59Z</time>
      </trkpt>
      <trkpt lat="44.64468" lon="6.17301">
        <ele>1036.8</ele>
        <time>2025-06-12T08:27:00Z</time>
      </trkpt>
      <trkpt lat="44.6447" lon="6.17308">
        <ele>1036.8</ele>
        <time>2025-06-12T08:27:01Z</time>
      </trkpt>
      <trkpt lat="44.64472" lon="6.17314">
        <ele>1036.8</ele>
        <time>2025-06-12T08:27:02Z</time>
      </trkpt>
      <trkpt lat="44.64474" lon="6.1732">
        <ele>1036.8</ele>
        <time>2025-06-12T08:27:03Z</time>
      </trkpt>
      <trkpt lat="44.64475" lon="6.17327">
        <ele>1037</ele>
        <time>2025-06-12T08:27:04Z</time>
      </trkpt>
      <trkpt lat="44.64476" lon="6.17334">
        <ele>1037</ele>
        <time>2025-06-12T08:27:05Z</time>
      </trkpt>
      <trkpt lat="44.64477" lon="6.1734">
        <ele>1037.2</ele>
        <time>2025-06-12T08:27:06Z</time>
      </trkpt>
      <trkpt lat="44.64478" lon="6.17347">
        <ele>1037.2</ele>
        <time>2025-06-12T08:27:07Z</time>
      </trkpt>
      <trkpt lat="44.64479" lon="6.17354">
        <ele>1037.2</ele>
        <time>2025-06-12T08:27:08Z</time>
      </trkpt>
      <trkpt lat="44.64481" lon="6.1736">
        <ele>1037.4</ele>
        <time>2025-06-12T08:27:09Z</time>
      </trkpt>
      <trkpt lat="44.64482" lon="6.17367">
        <ele>1037.4</ele>
        <time>2025-06-12T08:27:10Z</time>
      </trkpt>
      <trkpt lat="44.64484" lon="6.17373">
        <ele>1037.6</ele>
        <time>2025-06-12T08:27:11Z</time>
      </trkpt>
      <trkpt lat="44.64486" lon="6.1738">
        <ele>1037.6</ele>
        <time>2025-06-12T08:27:12Z</time>
      </trkpt>
      <trkpt lat="44.64487" lon="6.17386">
        <ele>1037.6</ele>
        <time>2025-06-12T08:27:13Z</time>
      </trkpt>
      <trkpt lat="44.64488" lon="6.17393">
        <ele>1037.8</ele>
        <time>2025-06-12T08:27:14Z</time>
      </trkpt>
      <trkpt lat="44.64488" lon="6.174">
        <ele>1037.8</ele>
        <time>2025-06-12T08:27:15Z</time>
      </trkpt>
      <trkpt lat="44.64488" lon="6.17407">
        <ele>1037.8</ele>
        <time>2025-06-12T08:27:16Z</time>
      </trkpt>
      <trkpt lat="44.64489" lon="6.17414">
        <ele>1037.8</ele>
        <time>2025-06-12T08:27:17Z</time>
      </trkpt>
      <trkpt lat="44.6449" lon="6.1742">
        <ele>1037.8</ele>
        <time>2025-06-12T08:27:18Z</time>
      </trkpt>
      <trkpt lat="44.64491" lon="6.17427">
        <ele>1037.8</ele>
        <time>2025-06-12T08:27:19Z</time>
      </trkpt>
      <trkpt lat="44.64494" lon="6.1744">
        <ele>1038</ele>
        <time>2025-06-12T08:27:21Z</time>
      </trkpt>
      <trkpt lat="44.64497" lon="6.17453">
        <ele>1038</ele>
        <time>2025-06-12T08:27:23Z</time>
      </trkpt>
      <trkpt lat="44.64498" lon="6.17459">
        <ele>1038</ele>
        <time>2025-06-12T08:27:24Z</time>
      </trkpt>
      <trkpt lat="44.64499" lon="6.17466">
        <ele>1038</ele>
        <time>2025-06-12T08:27:25Z</time>
      </trkpt>
      <trkpt lat="44.645" lon="6.17479">
        <ele>1038</ele>
        <time>2025-06-12T08:27:27Z</time>
      </trkpt>
      <trkpt lat="44.64501" lon="6.17485">
        <ele>1038</ele>
        <time>2025-06-12T08:27:28Z</time>
      </trkpt>
      <trkpt lat="44.64501" lon="6.17492">
        <ele>1038</ele>
        <time>2025-06-12T08:27:29Z</time>
      </trkpt>
      <trkpt lat="44.64501" lon="6.17498">
        <ele>1038.2</ele>
        <time>2025-06-12T08:27:30Z</time>
      </trkpt>
      <trkpt lat="44.64501" lon="6.17504">
        <ele>1038.2</ele>
        <time>2025-06-12T08:27:31Z</time>
      </trkpt>
      <trkpt lat="44.64501" lon="6.1751">
        <ele>1038.2</ele>
        <time>2025-06-12T08:27:32Z</time>
      </trkpt>
      <trkpt lat="44.645" lon="6.17516">
        <ele>1038.2</ele>
        <time>2025-06-12T08:27:33Z</time>
      </trkpt>
      <trkpt lat="44.645" lon="6.17521">
        <ele>1038.2</ele>
        <time>2025-06-12T08:27:34Z</time>
      </trkpt>
      <trkpt lat="44.64499" lon="6.17526">
        <ele>1038.4</ele>
        <time>2025-06-12T08:27:35Z</time>
      </trkpt>
      <trkpt lat="44.64499" lon="6.17531">
        <ele>1038.4</ele>
        <time>2025-06-12T08:27:36Z</time>
      </trkpt>
      <trkpt lat="44.64501" lon="6.17534">
        <ele>1038.4</ele>
        <time>2025-06-12T08:27:37Z</time>
      </trkpt>
      <trkpt lat="44.64504" lon="6.17536">
        <ele>1038.6</ele>
        <time>2025-06-12T08:27:38Z</time>
      </trkpt>
      <trkpt lat="44.64507" lon="6.17536">
        <ele>1038.6</ele>
        <time>2025-06-12T08:27:39Z</time>
      </trkpt>
      <trkpt lat="44.64511" lon="6.17536">
        <ele>1038.8</ele>
        <time>2025-06-12T08:27:40Z</time>
      </trkpt>
      <trkpt lat="44.64516" lon="6.17535">
        <ele>1039</ele>
        <time>2025-06-12T08:27:41Z</time>
      </trkpt>
      <trkpt lat="44.6452" lon="6.17534">
        <ele>1039</ele>
        <time>2025-06-12T08:27:42Z</time>
      </trkpt>
      <trkpt lat="44.64524" lon="6.17532">
        <ele>1039</ele>
        <time>2025-06-12T08:27:43Z</time>
      </trkpt>
      <trkpt lat="44.64528" lon="6.1753">
        <ele>1039.2</ele>
        <time>2025-06-12T08:27:44Z</time>
      </trkpt>
      <trkpt lat="44.64537" lon="6.17526">
        <ele>1039.2</ele>
        <time>2025-06-12T08:27:46Z</time>
      </trkpt>
      <trkpt lat="44.64546" lon="6.17521">
        <ele>1039.2</ele>
        <time>2025-06-12T08:27:48Z</time>
      </trkpt>
      <trkpt lat="44.64555" lon="6.17517">
        <ele>1039.2</ele>
        <time>2025-06-12T08:27:50Z</time>
      </trkpt>
      <trkpt lat="44.6456" lon="6.17515">
        <ele>1039.2</ele>
        <time>2025-06-12T08:27:51Z</time>
      </trkpt>
      <trkpt lat="44.64565" lon="6.17512">
        <ele>1039.2</ele>
        <time>2025-06-12T08:27:52Z</time>
      </trkpt>
      <trkpt lat="44.64569" lon="6.1751">
        <ele>1039.2</ele>
        <time>2025-06-12T08:27:53Z</time>
      </trkpt>
      <trkpt lat="44.64574" lon="6.17508">
        <ele>1039.4</ele>
        <time>2025-06-12T08:27:54Z</time>
      </trkpt>
      <trkpt lat="44.64578" lon="6.17505">
        <ele>1039.2</ele>
        <time>2025-06-12T08:27:55Z</time>
      </trkpt>
      <trkpt lat="44.64583" lon="6.17503">
        <ele>1039.2</ele>
        <time>2025-06-12T08:27:56Z</time>
      </trkpt>
      <trkpt lat="44.64587" lon="6.17501">
        <ele>1039.2</ele>
        <time>2025-06-12T08:27:57Z</time>
      </trkpt>
      <trkpt lat="44.64592" lon="6.17499">
        <ele>1039.2</ele>
        <time>2025-06-12T08:27:58Z</time>
      </trkpt>
      <trkpt lat="44.64597" lon="6.17497">
        <ele>1039.2</ele>
        <time>2025-06-12T08:27:59Z</time>
      </trkpt>
      <trkpt lat="44.64601" lon="6.17495">
        <ele>1039.2</ele>
        <time>2025-06-12T08:28:00Z</time>
      </trkpt>
      <trkpt lat="44.64606" lon="6.17492">
        <ele>1039.2</ele>
        <time>2025-06-12T08:28:01Z</time>
      </trkpt>
      <trkpt lat="44.64611" lon="6.1749">
        <ele>1039.2</ele>
        <time>2025-06-12T08:28:02Z</time>
      </trkpt>
      <trkpt lat="44.64616" lon="6.17488">
        <ele>1039.2</ele>
        <time>2025-06-12T08:28:03Z</time>
      </trkpt>
      <trkpt lat="44.64621" lon="6.17486">
        <ele>1039.2</ele>
        <time>2025-06-12T08:28:04Z</time>
      </trkpt>
      <trkpt lat="44.64626" lon="6.17483">
        <ele>1039.2</ele>
        <time>2025-06-12T08:28:05Z</time>
      </trkpt>
      <trkpt lat="44.64637" lon="6.17478">
        <ele>1039.2</ele>
        <time>2025-06-12T08:28:07Z</time>
      </trkpt>
      <trkpt lat="44.64642" lon="6.17475">
        <ele>1039.2</ele>
        <time>2025-06-12T08:28:08Z</time>
      </trkpt>
      <trkpt lat="44.64647" lon="6.17472">
        <ele>1039.2</ele>
        <time>2025-06-12T08:28:09Z</time>
      </trkpt>
      <trkpt lat="44.64658" lon="6.17468">
        <ele>1039</ele>
        <time>2025-06-12T08:28:11Z</time>
      </trkpt>
      <trkpt lat="44.64664" lon="6.17466">
        <ele>1038.8</ele>
        <time>2025-06-12T08:28:12Z</time>
      </trkpt>
      <trkpt lat="44.64669" lon="6.17464">
        <ele>1038.6</ele>
        <time>2025-06-12T08:28:13Z</time>
      </trkpt>
      <trkpt lat="44.64675" lon="6.17462">
        <ele>1038.6</ele>
        <time>2025-06-12T08:28:14Z</time>
      </trkpt>
      <trkpt lat="44.6468" lon="6.1746">
        <ele>1038.4</ele>
        <time>2025-06-12T08:28:15Z</time>
      </trkpt>
      <trkpt lat="44.64685" lon="6.17457">
        <ele>1038.2</ele>
        <time>2025-06-12T08:28:16Z</time>
      </trkpt>
      <trkpt lat="44.64691" lon="6.17455">
        <ele>1038</ele>
        <time>2025-06-12T08:28:17Z</time>
      </trkpt>
      <trkpt lat="44.64696" lon="6.17452">
        <ele>1037.8</ele>
        <time>2025-06-12T08:28:18Z</time>
      </trkpt>
      <trkpt lat="44.64701" lon="6.17449">
        <ele>1037.8</ele>
        <time>2025-06-12T08:28:19Z</time>
      </trkpt>
      <trkpt lat="44.64707" lon="6.17447">
        <ele>1037.6</ele>
        <time>2025-06-12T08:28:20Z</time>
      </trkpt>
      <trkpt lat="44.64712" lon="6.17444">
        <ele>1037.6</ele>
        <time>2025-06-12T08:28:21Z</time>
      </trkpt>
      <trkpt lat="44.64718" lon="6.17442">
        <ele>1037.6</ele>
        <time>2025-06-12T08:28:22Z</time>
      </trkpt>
      <trkpt lat="44.64723" lon="6.1744">
        <ele>1037.6</ele>
        <time>2025-06-12T08:28:23Z</time>
      </trkpt>
      <trkpt lat="44.64728" lon="6.17438">
        <ele>1037.6</ele>
        <time>2025-06-12T08:28:24Z</time>
      </trkpt>
      <trkpt lat="44.64734" lon="6.17435">
        <ele>1037.6</ele>
        <time>2025-06-12T08:28:25Z</time>
      </trkpt>
      <trkpt lat="44.64739" lon="6.17433">
        <ele>1037.6</ele>
        <time>2025-06-12T08:28:26Z</time>
      </trkpt>
      <trkpt lat="44.64745" lon="6.1743">
        <ele>1037.6</ele>
        <time>2025-06-12T08:28:27Z</time>
      </trkpt>
      <trkpt lat="44.6475" lon="6.17428">
        <ele>1037.6</ele>
        <time>2025-06-12T08:28:28Z</time>
      </trkpt>
      <trkpt lat="44.64762" lon="6.17423">
        <ele>1037.6</ele>
        <time>2025-06-12T08:28:30Z</time>
      </trkpt>
      <trkpt lat="44.64773" lon="6.17419">
        <ele>1037.6</ele>
        <time>2025-06-12T08:28:32Z</time>
      </trkpt>
      <trkpt lat="44.64785" lon="6.17415">
        <ele>1037.8</ele>
        <time>2025-06-12T08:28:34Z</time>
      </trkpt>
      <trkpt lat="44.6479" lon="6.17412">
        <ele>1037.6</ele>
        <time>2025-06-12T08:28:35Z</time>
      </trkpt>
      <trkpt lat="44.64796" lon="6.1741">
        <ele>1037.4</ele>
        <time>2025-06-12T08:28:36Z</time>
      </trkpt>
      <trkpt lat="44.64801" lon="6.17408">
        <ele>1037.4</ele>
        <time>2025-06-12T08:28:37Z</time>
      </trkpt>
      <trkpt lat="44.64806" lon="6.17405">
        <ele>1037.4</ele>
        <time>2025-06-12T08:28:38Z</time>
      </trkpt>
      <trkpt lat="44.64812" lon="6.17403">
        <ele>1037.4</ele>
        <time>2025-06-12T08:28:39Z</time>
      </trkpt>
      <trkpt lat="44.64817" lon="6.174">
        <ele>1037.4</ele>
        <time>2025-06-12T08:28:40Z</time>
      </trkpt>
      <trkpt lat="44.64822" lon="6.17398">
        <ele>1037.6</ele>
        <time>2025-06-12T08:28:41Z</time>
      </trkpt>
      <trkpt lat="44.64827" lon="6.17395">
        <ele>1037.6</ele>
        <time>2025-06-12T08:28:42Z</time>
      </trkpt>
      <trkpt lat="44.64832" lon="6.17393">
        <ele>1037.8</ele>
        <time>2025-06-12T08:28:43Z</time>
      </trkpt>
      <trkpt lat="44.64838" lon="6.1739">
        <ele>1037.8</ele>
        <time>2025-06-12T08:28:44Z</time>
      </trkpt>
      <trkpt lat="44.64842" lon="6.17388">
        <ele>1037.8</ele>
        <time>2025-06-12T08:28:45Z</time>
      </trkpt>
      <trkpt lat="44.64847" lon="6.17385">
        <ele>1037.8</ele>
        <time>2025-06-12T08:28:46Z</time>
      </trkpt>
      <trkpt lat="44.64852" lon="6.17383">
        <ele>1037.8</ele>
        <time>2025-06-12T08:28:47Z</time>
      </trkpt>
      <trkpt lat="44.64862" lon="6.17379">
        <ele>1038</ele>
        <time>2025-06-12T08:28:49Z</time>
      </trkpt>
      <trkpt lat="44.64866" lon="6.17377">
        <ele>1038</ele>
        <time>2025-06-12T08:28:50Z</time>
      </trkpt>
      <trkpt lat="44.64871" lon="6.17375">
        <ele>1038.2</ele>
        <time>2025-06-12T08:28:51Z</time>
      </trkpt>
      <trkpt lat="44.64876" lon="6.17373">
        <ele>1038.4</ele>
        <time>2025-06-12T08:28:52Z</time>
      </trkpt>
      <trkpt lat="44.6488" lon="6.17371">
        <ele>1038.6</ele>
        <time>2025-06-12T08:28:53Z</time>
      </trkpt>
      <trkpt lat="44.64885" lon="6.17369">
        <ele>1038.6</ele>
        <time>2025-06-12T08:28:54Z</time>
      </trkpt>
      <trkpt lat="44.64889" lon="6.17367">
        <ele>1038.8</ele>
        <time>2025-06-12T08:28:55Z</time>
      </trkpt>
      <trkpt lat="44.64894" lon="6.17365">
        <ele>1038.8</ele>
        <time>2025-06-12T08:28:56Z</time>
      </trkpt>
      <trkpt lat="44.64898" lon="6.17363">
        <ele>1039.2</ele>
        <time>2025-06-12T08:28:57Z</time>
      </trkpt>
      <trkpt lat="44.64903" lon="6.17361">
        <ele>1039.2</ele>
        <time>2025-06-12T08:28:58Z</time>
      </trkpt>
      <trkpt lat="44.64907" lon="6.17359">
        <ele>1039.6</ele>
        <time>2025-06-12T08:28:59Z</time>
      </trkpt>
      <trkpt lat="44.64911" lon="6.17357">
        <ele>1039.8</ele>
        <time>2025-06-12T08:29:00Z</time>
      </trkpt>
      <trkpt lat="44.6492" lon="6.17353">
        <ele>1040</ele>
        <time>2025-06-12T08:29:02Z</time>
      </trkpt>
      <trkpt lat="44.64928" lon="6.17349">
        <ele>1040.2</ele>
        <time>2025-06-12T08:29:04Z</time>
      </trkpt>
      <trkpt lat="44.64933" lon="6.17347">
        <ele>1040.4</ele>
        <time>2025-06-12T08:29:05Z</time>
      </trkpt>
      <trkpt lat="44.64937" lon="6.17345">
        <ele>1040.4</ele>
        <time>2025-06-12T08:29:06Z</time>
      </trkpt>
      <trkpt lat="44.64941" lon="6.17343">
        <ele>1040.6</ele>
        <time>2025-06-12T08:29:07Z</time>
      </trkpt>
      <trkpt lat="44.64945" lon="6.17342">
        <ele>1040.8</ele>
        <time>2025-06-12T08:29:08Z</time>
      </trkpt>
      <trkpt lat="44.64949" lon="6.1734">
        <ele>1041</ele>
        <time>2025-06-12T08:29:09Z</time>
      </trkpt>
      <trkpt lat="44.64953" lon="6.17338">
        <ele>1041.2</ele>
        <time>2025-06-12T08:29:10Z</time>
      </trkpt>
      <trkpt lat="44.64957" lon="6.17336">
        <ele>1041.2</ele>
        <time>2025-06-12T08:29:11Z</time>
      </trkpt>
      <trkpt lat="44.64965" lon="6.17333">
        <ele>1041.2</ele>
        <time>2025-06-12T08:29:13Z</time>
      </trkpt>
      <trkpt lat="44.64974" lon="6.17331">
        <ele>1041.6</ele>
        <time>2025-06-12T08:29:15Z</time>
      </trkpt>
      <trkpt lat="44.64978" lon="6.1733">
        <ele>1041.6</ele>
        <time>2025-06-12T08:29:16Z</time>
      </trkpt>
      <trkpt lat="44.64982" lon="6.17328">
        <ele>1042</ele>
        <time>2025-06-12T08:29:17Z</time>
      </trkpt>
      <trkpt lat="44.64987" lon="6.17327">
        <ele>1042</ele>
        <time>2025-06-12T08:29:18Z</time>
      </trkpt>
      <trkpt lat="44.64991" lon="6.17326">
        <ele>1042</ele>
        <time>2025-06-12T08:29:19Z</time>
      </trkpt>
      <trkpt lat="44.64996" lon="6.17325">
        <ele>1042</ele>
        <time>2025-06-12T08:29:20Z</time>
      </trkpt>
      <trkpt lat="44.65005" lon="6.17323">
        <ele>1042</ele>
        <time>2025-06-12T08:29:22Z</time>
      </trkpt>
      <trkpt lat="44.65015" lon="6.17322">
        <ele>1042</ele>
        <time>2025-06-12T08:29:24Z</time>
      </trkpt>
      <trkpt lat="44.6502" lon="6.17322">
        <ele>1042</ele>
        <time>2025-06-12T08:29:25Z</time>
      </trkpt>
      <trkpt lat="44.65025" lon="6.17321">
        <ele>1042</ele>
        <time>2025-06-12T08:29:26Z</time>
      </trkpt>
      <trkpt lat="44.65031" lon="6.1732">
        <ele>1042</ele>
        <time>2025-06-12T08:29:27Z</time>
      </trkpt>
      <trkpt lat="44.65036" lon="6.17319">
        <ele>1042</ele>
        <time>2025-06-12T08:29:28Z</time>
      </trkpt>
      <trkpt lat="44.65042" lon="6.17319">
        <ele>1041.8</ele>
        <time>2025-06-12T08:29:29Z</time>
      </trkpt>
      <trkpt lat="44.65048" lon="6.17319">
        <ele>1041.8</ele>
        <time>2025-06-12T08:29:30Z</time>
      </trkpt>
      <trkpt lat="44.65054" lon="6.17318">
        <ele>1041.6</ele>
        <time>2025-06-12T08:29:31Z</time>
      </trkpt>
      <trkpt lat="44.6506" lon="6.17318">
        <ele>1041.4</ele>
        <time>2025-06-12T08:29:32Z</time>
      </trkpt>
      <trkpt lat="44.65066" lon="6.17317">
        <ele>1041.2</ele>
        <time>2025-06-12T08:29:33Z</time>
      </trkpt>
      <trkpt lat="44.65072" lon="6.17317">
        <ele>1041</ele>
        <time>2025-06-12T08:29:34Z</time>
      </trkpt>
      <trkpt lat="44.65079" lon="6.17317">
        <ele>1040.8</ele>
        <time>2025-06-12T08:29:35Z</time>
      </trkpt>
      <trkpt lat="44.65092" lon="6.17318">
        <ele>1040.6</ele>
        <time>2025-06-12T08:29:37Z</time>
      </trkpt>
      <trkpt lat="44.65098" lon="6.1732">
        <ele>1040.4</ele>
        <time>2025-06-12T08:29:38Z</time>
      </trkpt>
      <trkpt lat="44.65104" lon="6.17322">
        <ele>1040.2</ele>
        <time>2025-06-12T08:29:39Z</time>
      </trkpt>
      <trkpt lat="44.65109" lon="6.17325">
        <ele>1039.8</ele>
        <time>2025-06-12T08:29:40Z</time>
      </trkpt>
      <trkpt lat="44.65114" lon="6.1733">
        <ele>1039.4</ele>
        <time>2025-06-12T08:29:41Z</time>
      </trkpt>
      <trkpt lat="44.65118" lon="6.17335">
        <ele>1039.4</ele>
        <time>2025-06-12T08:29:42Z</time>
      </trkpt>
      <trkpt lat="44.65122" lon="6.1734">
        <ele>1039.2</ele>
        <time>2025-06-12T08:29:43Z</time>
      </trkpt>
      <trkpt lat="44.65126" lon="6.17347">
        <ele>1039.2</ele>
        <time>2025-06-12T08:29:44Z</time>
      </trkpt>
      <trkpt lat="44.65131" lon="6.17361">
        <ele>1039.2</ele>
        <time>2025-06-12T08:29:46Z</time>
      </trkpt>
      <trkpt lat="44.65136" lon="6.17374">
        <ele>1039.2</ele>
        <time>2025-06-12T08:29:48Z</time>
      </trkpt>
      <trkpt lat="44.65139" lon="6.17381">
        <ele>1039.2</ele>
        <time>2025-06-12T08:29:49Z</time>
      </trkpt>
      <trkpt lat="44.65141" lon="6.17388">
        <ele>1039.2</ele>
        <time>2025-06-12T08:29:50Z</time>
      </trkpt>
      <trkpt lat="44.65144" lon="6.17395">
        <ele>1039.2</ele>
        <time>2025-06-12T08:29:51Z</time>
      </trkpt>
      <trkpt lat="44.65149" lon="6.17407">
        <ele>1039.4</ele>
        <time>2025-06-12T08:29:53Z</time>
      </trkpt>
      <trkpt lat="44.65153" lon="6.17419">
        <ele>1039.6</ele>
        <time>2025-06-12T08:29:55Z</time>
      </trkpt>
      <trkpt lat="44.65155" lon="6.17425">
        <ele>1039.6</ele>
        <time>2025-06-12T08:29:56Z</time>
      </trkpt>
      <trkpt lat="44.65157" lon="6.1743">
        <ele>1039.6</ele>
        <time>2025-06-12T08:29:57Z</time>
      </trkpt>
      <trkpt lat="44.6516" lon="6.17436">
        <ele>1039.6</ele>
        <time>2025-06-12T08:29:58Z</time>
      </trkpt>
      <trkpt lat="44.65163" lon="6.17446">
        <ele>1039.6</ele>
        <time>2025-06-12T08:30:00Z</time>
      </trkpt>
      <trkpt lat="44.65165" lon="6.17451">
        <ele>1039.8</ele>
        <time>2025-06-12T08:30:01Z</time>
      </trkpt>
      <trkpt lat="44.65167" lon="6.17456">
        <ele>1039.8</ele>
        <time>2025-06-12T08:30:02Z</time>
      </trkpt>
      <trkpt lat="44.65169" lon="6.1746">
        <ele>1039.8</ele>
        <time>2025-06-12T08:30:03Z</time>
      </trkpt>
      <trkpt lat="44.6517" lon="6.17465">
        <ele>1040</ele>
        <time>2025-06-12T08:30:04Z</time>
      </trkpt>
      <trkpt lat="44.65172" lon="6.1747">
        <ele>1040</ele>
        <time>2025-06-12T08:30:05Z</time>
      </trkpt>
      <trkpt lat="44.65174" lon="6.17475">
        <ele>1040</ele>
        <time>2025-06-12T08:30:06Z</time>
      </trkpt>
      <trkpt lat="44.65176" lon="6.1748">
        <ele>1040</ele>
        <time>2025-06-12T08:30:07Z</time>
      </trkpt>
      <trkpt lat="44.65178" lon="6.17485">
        <ele>1040.2</ele>
        <time>2025-06-12T08:30:08Z</time>
      </trkpt>
      <trkpt lat="44.6518" lon="6.1749">
        <ele>1040.2</ele>
        <time>2025-06-12T08:30:09Z</time>
      </trkpt>
      <trkpt lat="44.65182" lon="6.17495">
        <ele>1040.4</ele>
        <time>2025-06-12T08:30:10Z</time>
      </trkpt>
      <trkpt lat="44.65183" lon="6.17499">
        <ele>1040.4</ele>
        <time>2025-06-12T08:30:11Z</time>
      </trkpt>
      <trkpt lat="44.65185" lon="6.17504">
        <ele>1040.4</ele>
        <time>2025-06-12T08:30:12Z</time>
      </trkpt>
      <trkpt lat="44.65187" lon="6.17509">
        <ele>1040.4</ele>
        <time>2025-06-12T08:30:13Z</time>
      </trkpt>
      <trkpt lat="44.65189" lon="6.17513">
        <ele>1040.6</ele>
        <time>2025-06-12T08:30:14Z</time>
      </trkpt>
      <trkpt lat="44.65191" lon="6.17518">
        <ele>1040.6</ele>
        <time>2025-06-12T08:30:15Z</time>
      </trkpt>
      <trkpt lat="44.65193" lon="6.17524">
        <ele>1040.6</ele>
        <time>2025-06-12T08:30:16Z</time>
      </trkpt>
      <trkpt lat="44.65195" lon="6.17529">
        <ele>1040.6</ele>
        <time>2025-06-12T08:30:17Z</time>
      </trkpt>
      <trkpt lat="44.65197" lon="6.17534">
        <ele>1040.8</ele>
        <time>2025-06-12T08:30:18Z</time>
      </trkpt>
      <trkpt lat="44.65199" lon="6.1754">
        <ele>1040.8</ele>
        <time>2025-06-12T08:30:19Z</time>
      </trkpt>
      <trkpt lat="44.65204" lon="6.17551">
        <ele>1040.8</ele>
        <time>2025-06-12T08:30:21Z</time>
      </trkpt>
      <trkpt lat="44.65208" lon="6.17562">
        <ele>1041</ele>
        <time>2025-06-12T08:30:23Z</time>
      </trkpt>
      <trkpt lat="44.6521" lon="6.17567">
        <ele>1041</ele>
        <time>2025-06-12T08:30:24Z</time>
      </trkpt>
      <trkpt lat="44.65211" lon="6.17572">
        <ele>1041.2</ele>
        <time>2025-06-12T08:30:25Z</time>
      </trkpt>
      <trkpt lat="44.65215" lon="6.17581">
        <ele>1041.4</ele>
        <time>2025-06-12T08:30:27Z</time>
      </trkpt>
      <trkpt lat="44.65217" lon="6.17586">
        <ele>1041.4</ele>
        <time>2025-06-12T08:30:28Z</time>
      </trkpt>
      <trkpt lat="44.65219" lon="6.17591">
        <ele>1041.4</ele>
        <time>2025-06-12T08:30:29Z</time>
      </trkpt>
      <trkpt lat="44.65221" lon="6.17596">
        <ele>1041.4</ele>
        <time>2025-06-12T08:30:30Z</time>
      </trkpt>
      <trkpt lat="44.65223" lon="6.17601">
        <ele>1041.4</ele>
        <time>2025-06-12T08:30:31Z</time>
      </trkpt>
      <trkpt lat="44.65225" lon="6.17607">
        <ele>1041.4</ele>
        <time>2025-06-12T08:30:32Z</time>
      </trkpt>
      <trkpt lat="44.65227" lon="6.17612">
        <ele>1041.4</ele>
        <time>2025-06-12T08:30:33Z</time>
      </trkpt>
      <trkpt lat="44.65229" lon="6.17617">
        <ele>1041.4</ele>
        <time>2025-06-12T08:30:34Z</time>
      </trkpt>
      <trkpt lat="44.65232" lon="6.17623">
        <ele>1041.4</ele>
        <time>2025-06-12T08:30:35Z</time>
      </trkpt>
      <trkpt lat="44.65236" lon="6.17634">
        <ele>1041.8</ele>
        <time>2025-06-12T08:30:37Z</time>
      </trkpt>
      <trkpt lat="44.6524" lon="6.17646">
        <ele>1041.8</ele>
        <time>2025-06-12T08:30:39Z</time>
      </trkpt>
      <trkpt lat="44.65245" lon="6.17657">
        <ele>1042</ele>
        <time>2025-06-12T08:30:41Z</time>
      </trkpt>
      <trkpt lat="44.65248" lon="6.17662">
        <ele>1042</ele>
        <time>2025-06-12T08:30:42Z</time>
      </trkpt>
      <trkpt lat="44.6525" lon="6.17667">
        <ele>1042</ele>
        <time>2025-06-12T08:30:43Z</time>
      </trkpt>
      <trkpt lat="44.65253" lon="6.17672">
        <ele>1042</ele>
        <time>2025-06-12T08:30:44Z</time>
      </trkpt>
      <trkpt lat="44.65256" lon="6.17677">
        <ele>1042</ele>
        <time>2025-06-12T08:30:45Z</time>
      </trkpt>
      <trkpt lat="44.65259" lon="6.17681">
        <ele>1042</ele>
        <time>2025-06-12T08:30:46Z</time>
      </trkpt>
      <trkpt lat="44.65262" lon="6.17686">
        <ele>1042</ele>
        <time>2025-06-12T08:30:47Z</time>
      </trkpt>
      <trkpt lat="44.65266" lon="6.17689">
        <ele>1042</ele>
        <time>2025-06-12T08:30:48Z</time>
      </trkpt>
      <trkpt lat="44.6527" lon="6.17692">
        <ele>1042.2</ele>
        <time>2025-06-12T08:30:49Z</time>
      </trkpt>
      <trkpt lat="44.65274" lon="6.17695">
        <ele>1042.2</ele>
        <time>2025-06-12T08:30:50Z</time>
      </trkpt>
      <trkpt lat="44.65278" lon="6.17696">
        <ele>1042.2</ele>
        <time>2025-06-12T08:30:51Z</time>
      </trkpt>
      <trkpt lat="44.65283" lon="6.17698">
        <ele>1042.4</ele>
        <time>2025-06-12T08:30:52Z</time>
      </trkpt>
      <trkpt lat="44.65293" lon="6.17701">
        <ele>1042.6</ele>
        <time>2025-06-12T08:30:54Z</time>
      </trkpt>
      <trkpt lat="44.65298" lon="6.17703">
        <ele>1042.6</ele>
        <time>2025-06-12T08:30:55Z</time>
      </trkpt>
      <trkpt lat="44.65303" lon="6.17704">
        <ele>1042.8</ele>
        <time>2025-06-12T08:30:56Z</time>
      </trkpt>
      <trkpt lat="44.65308" lon="6.17705">
        <ele>1043</ele>
        <time>2025-06-12T08:30:57Z</time>
      </trkpt>
      <trkpt lat="44.65312" lon="6.17706">
        <ele>1043.2</ele>
        <time>2025-06-12T08:30:58Z</time>
      </trkpt>
      <trkpt lat="44.65317" lon="6.17706">
        <ele>1043.2</ele>
        <time>2025-06-12T08:30:59Z</time>
      </trkpt>
      <trkpt lat="44.65322" lon="6.17707">
        <ele>1043.4</ele>
        <time>2025-06-12T08:31:00Z</time>
      </trkpt>
      <trkpt lat="44.65326" lon="6.17707">
        <ele>1043.4</ele>
        <time>2025-06-12T08:31:01Z</time>
      </trkpt>
      <trkpt lat="44.65331" lon="6.17707">
        <ele>1043.4</ele>
        <time>2025-06-12T08:31:02Z</time>
      </trkpt>
      <trkpt lat="44.65334" lon="6.17707">
        <ele>1043.4</ele>
        <time>2025-06-12T08:31:03Z</time>
      </trkpt>
      <trkpt lat="44.65338" lon="6.17706">
        <ele>1043.6</ele>
        <time>2025-06-12T08:31:04Z</time>
      </trkpt>
      <trkpt lat="44.65341" lon="6.17705">
        <ele>1043.6</ele>
        <time>2025-06-12T08:31:05Z</time>
      </trkpt>
      <trkpt lat="44.65345" lon="6.17704">
        <ele>1043.8</ele>
        <time>2025-06-12T08:31:06Z</time>
      </trkpt>
      <trkpt lat="44.65348" lon="6.17703">
        <ele>1044</ele>
        <time>2025-06-12T08:31:07Z</time>
      </trkpt>
      <trkpt lat="44.65354" lon="6.177">
        <ele>1044.4</ele>
        <time>2025-06-12T08:31:09Z</time>
      </trkpt>
      <trkpt lat="44.65357" lon="6.17698">
        <ele>1044.8</ele>
        <time>2025-06-12T08:31:10Z</time>
      </trkpt>
      <trkpt lat="44.65359" lon="6.17696">
        <ele>1045.2</ele>
        <time>2025-06-12T08:31:11Z</time>
      </trkpt>
      <trkpt lat="44.65364" lon="6.17691">
        <ele>1045.8</ele>
        <time>2025-06-12T08:31:13Z</time>
      </trkpt>
      <trkpt lat="44.65367" lon="6.17688">
        <ele>1046.2</ele>
        <time>2025-06-12T08:31:14Z</time>
      </trkpt>
      <trkpt lat="44.65369" lon="6.17685">
        <ele>1046.6</ele>
        <time>2025-06-12T08:31:15Z</time>
      </trkpt>
      <trkpt lat="44.65371" lon="6.17682">
        <ele>1046.6</ele>
        <time>2025-06-12T08:31:16Z</time>
      </trkpt>
      <trkpt lat="44.65373" lon="6.17679">
        <ele>1046.8</ele>
        <time>2025-06-12T08:31:17Z</time>
      </trkpt>
      <trkpt lat="44.65375" lon="6.17677">
        <ele>1047</ele>
        <time>2025-06-12T08:31:18Z</time>
      </trkpt>
      <trkpt lat="44.65377" lon="6.17674">
        <ele>1047.2</ele>
        <time>2025-06-12T08:31:19Z</time>
      </trkpt>
      <trkpt lat="44.65379" lon="6.17671">
        <ele>1047.4</ele>
        <time>2025-06-12T08:31:20Z</time>
      </trkpt>
      <trkpt lat="44.65381" lon="6.17668">
        <ele>1047.8</ele>
        <time>2025-06-12T08:31:21Z</time>
      </trkpt>
      <trkpt lat="44.65384" lon="6.17666">
        <ele>1048</ele>
        <time>2025-06-12T08:31:22Z</time>
      </trkpt>
      <trkpt lat="44.65386" lon="6.17663">
        <ele>1048.4</ele>
        <time>2025-06-12T08:31:23Z</time>
      </trkpt>
      <trkpt lat="44.65388" lon="6.17661">
        <ele>1048.8</ele>
        <time>2025-06-12T08:31:24Z</time>
      </trkpt>
      <trkpt lat="44.6539" lon="6.17657">
        <ele>1049</ele>
        <time>2025-06-12T08:31:25Z</time>
      </trkpt>
      <trkpt lat="44.65392" lon="6.17655">
        <ele>1049.2</ele>
        <time>2025-06-12T08:31:26Z</time>
      </trkpt>
      <trkpt lat="44.65394" lon="6.17652">
        <ele>1049.4</ele>
        <time>2025-06-12T08:31:27Z</time>
      </trkpt>
      <trkpt lat="44.65396" lon="6.17649">
        <ele>1049.6</ele>
        <time>2025-06-12T08:31:28Z</time>
      </trkpt>
      <trkpt lat="44.65398" lon="6.17647">
        <ele>1050</ele>
        <time>2025-06-12T08:31:29Z</time>
      </trkpt>
      <trkpt lat="44.654" lon="6.17644">
        <ele>1050</ele>
        <time>2025-06-12T08:31:30Z</time>
      </trkpt>
      <trkpt lat="44.65403" lon="6.17642">
        <ele>1050.6</ele>
        <time>2025-06-12T08:31:31Z</time>
      </trkpt>
      <trkpt lat="44.65405" lon="6.17639">
        <ele>1050.8</ele>
        <time>2025-06-12T08:31:32Z</time>
      </trkpt>
      <trkpt lat="44.65407" lon="6.17637">
        <ele>1051.2</ele>
        <time>2025-06-12T08:31:33Z</time>
      </trkpt>
      <trkpt lat="44.65409" lon="6.17635">
        <ele>1051.4</ele>
        <time>2025-06-12T08:31:34Z</time>
      </trkpt>
      <trkpt lat="44.65411" lon="6.17632">
        <ele>1051.6</ele>
        <time>2025-06-12T08:31:35Z</time>
      </trkpt>
      <trkpt lat="44.65414" lon="6.1763">
        <ele>1051.8</ele>
        <time>2025-06-12T08:31:36Z</time>
      </trkpt>
      <trkpt lat="44.65416" lon="6.17628">
        <ele>1052</ele>
        <time>2025-06-12T08:31:37Z</time>
      </trkpt>
      <trkpt lat="44.65418" lon="6.17626">
        <ele>1052.2</ele>
        <time>2025-06-12T08:31:38Z</time>
      </trkpt>
      <trkpt lat="44.65421" lon="6.17623">
        <ele>1052.4</ele>
        <time>2025-06-12T08:31:39Z</time>
      </trkpt>
      <trkpt lat="44.65423" lon="6.17621">
        <ele>1052.8</ele>
        <time>2025-06-12T08:31:40Z</time>
      </trkpt>
      <trkpt lat="44.65425" lon="6.17618">
        <ele>1053.2</ele>
        <time>2025-06-12T08:31:41Z</time>
      </trkpt>
      <trkpt lat="44.65427" lon="6.17615">
        <ele>1053.6</ele>
        <time>2025-06-12T08:31:42Z</time>
      </trkpt>
      <trkpt lat="44.65429" lon="6.17612">
        <ele>1053.8</ele>
        <time>2025-06-12T08:31:43Z</time>
      </trkpt>
      <trkpt lat="44.65431" lon="6.17609">
        <ele>1054.2</ele>
        <time>2025-06-12T08:31:44Z</time>
      </trkpt>
      <trkpt lat="44.65433" lon="6.17607">
        <ele>1054.2</ele>
        <time>2025-06-12T08:31:45Z</time>
      </trkpt>
      <trkpt lat="44.65435" lon="6.17604">
        <ele>1054.4</ele>
        <time>2025-06-12T08:31:46Z</time>
      </trkpt>
      <trkpt lat="44.65437" lon="6.17601">
        <ele>1054.6</ele>
        <time>2025-06-12T08:31:47Z</time>
      </trkpt>
      <trkpt lat="44.65439" lon="6.17599">
        <ele>1054.8</ele>
        <time>2025-06-12T08:31:48Z</time>
      </trkpt>
      <trkpt lat="44.65441" lon="6.17596">
        <ele>1055.2</ele>
        <time>2025-06-12T08:31:49Z</time>
      </trkpt>
      <trkpt lat="44.65444" lon="6.17594">
        <ele>1055.4</ele>
        <time>2025-06-12T08:31:50Z</time>
      </trkpt>
      <trkpt lat="44.65445" lon="6.17591">
        <ele>1055.6</ele>
        <time>2025-06-12T08:31:51Z</time>
      </trkpt>
      <trkpt lat="44.65447" lon="6.17589">
        <ele>1055.6</ele>
        <time>2025-06-12T08:31:52Z</time>
      </trkpt>
      <trkpt lat="44.65449" lon="6.17586">
        <ele>1055.8</ele>
        <time>2025-06-12T08:31:53Z</time>
      </trkpt>
      <trkpt lat="44.65452" lon="6.17584">
        <ele>1056</ele>
        <time>2025-06-12T08:31:54Z</time>
      </trkpt>
      <trkpt lat="44.65453" lon="6.17582">
        <ele>1056.4</ele>
        <time>2025-06-12T08:31:55Z</time>
      </trkpt>
      <trkpt lat="44.65455" lon="6.17579">
        <ele>1056.6</ele>
        <time>2025-06-12T08:31:56Z</time>
      </trkpt>
      <trkpt lat="44.65457" lon="6.17577">
        <ele>1056.8</ele>
        <time>2025-06-12T08:31:57Z</time>
      </trkpt>
      <trkpt lat="44.65459" lon="6.17574">
        <ele>1057</ele>
        <time>2025-06-12T08:31:58Z</time>
      </trkpt>
      <trkpt lat="44.65461" lon="6.17572">
        <ele>1057.4</ele>
        <time>2025-06-12T08:31:59Z</time>
      </trkpt>
      <trkpt lat="44.65463" lon="6.1757">
        <ele>1057.6</ele>
        <time>2025-06-12T08:32:00Z</time>
      </trkpt>
      <trkpt lat="44.65465" lon="6.17567">
        <ele>1057.8</ele>
        <time>2025-06-12T08:32:01Z</time>
      </trkpt>
      <trkpt lat="44.65467" lon="6.17565">
        <ele>1058.2</ele>
        <time>2025-06-12T08:32:02Z</time>
      </trkpt>
      <trkpt lat="44.65469" lon="6.17562">
        <ele>1058.4</ele>
        <time>2025-06-12T08:32:03Z</time>
      </trkpt>
      <trkpt lat="44.65471" lon="6.1756">
        <ele>1058.8</ele>
        <time>2025-06-12T08:32:04Z</time>
      </trkpt>
      <trkpt lat="44.65473" lon="6.17557">
        <ele>1059</ele>
        <time>2025-06-12T08:32:05Z</time>
      </trkpt>
      <trkpt lat="44.65475" lon="6.17555">
        <ele>1059.4</ele>
        <time>2025-06-12T08:32:06Z</time>
      </trkpt>
      <trkpt lat="44.65479" lon="6.1755">
        <ele>1060</ele>
        <time>2025-06-12T08:32:08Z</time>
      </trkpt>
      <trkpt lat="44.65483" lon="6.17545">
        <ele>1060.4</ele>
        <time>2025-06-12T08:32:10Z</time>
      </trkpt>
      <trkpt lat="44.65487" lon="6.1754">
        <ele>1060.8</ele>
        <time>2025-06-12T08:32:12Z</time>
      </trkpt>
      <trkpt lat="44.65491" lon="6.17535">
        <ele>1061</ele>
        <time>2025-06-12T08:32:14Z</time>
      </trkpt>
      <trkpt lat="44.65494" lon="6.1753">
        <ele>1061.6</ele>
        <time>2025-06-12T08:32:16Z</time>
      </trkpt>
      <trkpt lat="44.65496" lon="6.17527">
        <ele>1061.6</ele>
        <time>2025-06-12T08:32:17Z</time>
      </trkpt>
      <trkpt lat="44.65498" lon="6.17524">
        <ele>1061.8</ele>
        <time>2025-06-12T08:32:18Z</time>
      </trkpt>
      <trkpt lat="44.65499" lon="6.17522">
        <ele>1062.2</ele>
        <time>2025-06-12T08:32:19Z</time>
      </trkpt>
      <trkpt lat="44.65501" lon="6.17519">
        <ele>1062.6</ele>
        <time>2025-06-12T08:32:20Z</time>
      </trkpt>
      <trkpt lat="44.65504" lon="6.17513">
        <ele>1063.2</ele>
        <time>2025-06-12T08:32:22Z</time>
      </trkpt>
      <trkpt lat="44.65505" lon="6.1751">
        <ele>1063.4</ele>
        <time>2025-06-12T08:32:23Z</time>
      </trkpt>
      <trkpt lat="44.65506" lon="6.17506">
        <ele>1063.6</ele>
        <time>2025-06-12T08:32:24Z</time>
      </trkpt>
      <trkpt lat="44.65508" lon="6.17503">
        <ele>1063.8</ele>
        <time>2025-06-12T08:32:25Z</time>
      </trkpt>
      <trkpt lat="44.65509" lon="6.175">
        <ele>1064</ele>
        <time>2025-06-12T08:32:26Z</time>
      </trkpt>
      <trkpt lat="44.6551" lon="6.17496">
        <ele>1064.4</ele>
        <time>2025-06-12T08:32:27Z</time>
      </trkpt>
      <trkpt lat="44.6551" lon="6.17492">
        <ele>1064.4</ele>
        <time>2025-06-12T08:32:28Z</time>
      </trkpt>
      <trkpt lat="44.65511" lon="6.17489">
        <ele>1064.6</ele>
        <time>2025-06-12T08:32:29Z</time>
      </trkpt>
      <trkpt lat="44.65512" lon="6.17485">
        <ele>1064.8</ele>
        <time>2025-06-12T08:32:30Z</time>
      </trkpt>
      <trkpt lat="44.65512" lon="6.17481">
        <ele>1064.8</ele>
        <time>2025-06-12T08:32:31Z</time>
      </trkpt>
      <trkpt lat="44.65513" lon="6.17477">
        <ele>1065</ele>
        <time>2025-06-12T08:32:32Z</time>
      </trkpt>
      <trkpt lat="44.65513" lon="6.17474">
        <ele>1065</ele>
        <time>2025-06-12T08:32:33Z</time>
      </trkpt>
      <trkpt lat="44.65513" lon="6.17466">
        <ele>1065.4</ele>
        <time>2025-06-12T08:32:35Z</time>
      </trkpt>
      <trkpt lat="44.65513" lon="6.17462">
        <ele>1065.6</ele>
        <time>2025-06-12T08:32:36Z</time>
      </trkpt>
      <trkpt lat="44.65513" lon="6.17459">
        <ele>1065.6</ele>
        <time>2025-06-12T08:32:37Z</time>
      </trkpt>
      <trkpt lat="44.65512" lon="6.17451">
        <ele>1066</ele>
        <time>2025-06-12T08:32:39Z</time>
      </trkpt>
      <trkpt lat="44.65512" lon="6.17447">
        <ele>1066</ele>
        <time>2025-06-12T08:32:40Z</time>
      </trkpt>
      <trkpt lat="44.65512" lon="6.17444">
        <ele>1066.2</ele>
        <time>2025-06-12T08:32:41Z</time>
      </trkpt>
      <trkpt lat="44.65511" lon="6.1744">
        <ele>1066.4</ele>
        <time>2025-06-12T08:32:42Z</time>
      </trkpt>
      <trkpt lat="44.65511" lon="6.17436">
        <ele>1066.6</ele>
        <time>2025-06-12T08:32:43Z</time>
      </trkpt>
      <trkpt lat="44.65511" lon="6.17432">
        <ele>1066.6</ele>
        <time>2025-06-12T08:32:44Z</time>
      </trkpt>
      <trkpt lat="44.6551" lon="6.17429">
        <ele>1066.8</ele>
        <time>2025-06-12T08:32:45Z</time>
      </trkpt>
      <trkpt lat="44.65509" lon="6.17425">
        <ele>1067</ele>
        <time>2025-06-12T08:32:46Z</time>
      </trkpt>
      <trkpt lat="44.65509" lon="6.17421">
        <ele>1067</ele>
        <time>2025-06-12T08:32:47Z</time>
      </trkpt>
      <trkpt lat="44.65509" lon="6.17417">
        <ele>1067.2</ele>
        <time>2025-06-12T08:32:48Z</time>
      </trkpt>
      <trkpt lat="44.65509" lon="6.17414">
        <ele>1067.4</ele>
        <time>2025-06-12T08:32:49Z</time>
      </trkpt>
      <trkpt lat="44.65509" lon="6.1741">
        <ele>1067.6</ele>
        <time>2025-06-12T08:32:50Z</time>
      </trkpt>
      <trkpt lat="44.65511" lon="6.17406">
        <ele>1067.8</ele>
        <time>2025-06-12T08:32:51Z</time>
      </trkpt>
      <trkpt lat="44.65512" lon="6.17402">
        <ele>1068</ele>
        <time>2025-06-12T08:32:52Z</time>
      </trkpt>
      <trkpt lat="44.65514" lon="6.174">
        <ele>1068</ele>
        <time>2025-06-12T08:32:53Z</time>
      </trkpt>
      <trkpt lat="44.65517" lon="6.17398">
        <ele>1068.4</ele>
        <time>2025-06-12T08:32:54Z</time>
      </trkpt>
      <trkpt lat="44.65522" lon="6.17398">
        <ele>1068.4</ele>
        <time>2025-06-12T08:32:56Z</time>
      </trkpt>
      <trkpt lat="44.65524" lon="6.174">
        <ele>1068.6</ele>
        <time>2025-06-12T08:32:57Z</time>
      </trkpt>
      <trkpt lat="44.65526" lon="6.17403">
        <ele>1068.8</ele>
        <time>2025-06-12T08:32:58Z</time>
      </trkpt>
      <trkpt lat="44.65528" lon="6.17406">
        <ele>1068.8</ele>
        <time>2025-06-12T08:32:59Z</time>
      </trkpt>
      <trkpt lat="44.65529" lon="6.17409">
        <ele>1069</ele>
        <time>2025-06-12T08:33:00Z</time>
      </trkpt>
      <trkpt lat="44.65531" lon="6.17413">
        <ele>1069</ele>
        <time>2025-06-12T08:33:01Z</time>
      </trkpt>
      <trkpt lat="44.65532" lon="6.17416">
        <ele>1069.2</ele>
        <time>2025-06-12T08:33:02Z</time>
      </trkpt>
      <trkpt lat="44.65533" lon="6.17419">
        <ele>1069.6</ele>
        <time>2025-06-12T08:33:03Z</time>
      </trkpt>
      <trkpt lat="44.65534" lon="6.17423">
        <ele>1070</ele>
        <time>2025-06-12T08:33:04Z</time>
      </trkpt>
      <trkpt lat="44.65535" lon="6.17426">
        <ele>1070.2</ele>
        <time>2025-06-12T08:33:05Z</time>
      </trkpt>
      <trkpt lat="44.65536" lon="6.17429">
        <ele>1070.4</ele>
        <time>2025-06-12T08:33:06Z</time>
      </trkpt>
      <trkpt lat="44.65536" lon="6.17432">
        <ele>1070.6</ele>
        <time>2025-06-12T08:33:07Z</time>
      </trkpt>
      <trkpt lat="44.65537" lon="6.17436">
        <ele>1070.6</ele>
        <time>2025-06-12T08:33:08Z</time>
      </trkpt>
      <trkpt lat="44.65539" lon="6.17439">
        <ele>1070.8</ele>
        <time>2025-06-12T08:33:09Z</time>
      </trkpt>
      <trkpt lat="44.65539" lon="6.17442">
        <ele>1071.2</ele>
        <time>2025-06-12T08:33:10Z</time>
      </trkpt>
      <trkpt lat="44.6554" lon="6.17445">
        <ele>1071.4</ele>
        <time>2025-06-12T08:33:11Z</time>
      </trkpt>
      <trkpt lat="44.65542" lon="6.17452">
        <ele>1071.8</ele>
        <time>2025-06-12T08:33:13Z</time>
      </trkpt>
      <trkpt lat="44.65545" lon="6.17458">
        <ele>1072.4</ele>
        <time>2025-06-12T08:33:15Z</time>
      </trkpt>
      <trkpt lat="44.65548" lon="6.17464">
        <ele>1072.8</ele>
        <time>2025-06-12T08:33:17Z</time>
      </trkpt>
      <trkpt lat="44.6555" lon="6.17469">
        <ele>1073.2</ele>
        <time>2025-06-12T08:33:19Z</time>
      </trkpt>
      <trkpt lat="44.65552" lon="6.17472">
        <ele>1073.4</ele>
        <time>2025-06-12T08:33:20Z</time>
      </trkpt>
      <trkpt lat="44.65553" lon="6.17475">
        <ele>1073.4</ele>
        <time>2025-06-12T08:33:21Z</time>
      </trkpt>
      <trkpt lat="44.65554" lon="6.17478">
        <ele>1073.6</ele>
        <time>2025-06-12T08:33:22Z</time>
      </trkpt>
      <trkpt lat="44.65556" lon="6.17481">
        <ele>1073.8</ele>
        <time>2025-06-12T08:33:23Z</time>
      </trkpt>
      <trkpt lat="44.65557" lon="6.17483">
        <ele>1074</ele>
        <time>2025-06-12T08:33:24Z</time>
      </trkpt>
      <trkpt lat="44.65558" lon="6.17486">
        <ele>1074</ele>
        <time>2025-06-12T08:33:25Z</time>
      </trkpt>
      <trkpt lat="44.6556" lon="6.17489">
        <ele>1074.2</ele>
        <time>2025-06-12T08:33:26Z</time>
      </trkpt>
      <trkpt lat="44.65561" lon="6.17492">
        <ele>1074.4</ele>
        <time>2025-06-12T08:33:27Z</time>
      </trkpt>
      <trkpt lat="44.65562" lon="6.17494">
        <ele>1074.6</ele>
        <time>2025-06-12T08:33:28Z</time>
      </trkpt>
      <trkpt lat="44.65564" lon="6.17497">
        <ele>1075</ele>
        <time>2025-06-12T08:33:29Z</time>
      </trkpt>
      <trkpt lat="44.65566" lon="6.175">
        <ele>1075.2</ele>
        <time>2025-06-12T08:33:30Z</time>
      </trkpt>
      <trkpt lat="44.65568" lon="6.17503">
        <ele>1075.4</ele>
        <time>2025-06-12T08:33:31Z</time>
      </trkpt>
      <trkpt lat="44.65569" lon="6.17506">
        <ele>1075.4</ele>
        <time>2025-06-12T08:33:32Z</time>
      </trkpt>
      <trkpt lat="44.65572" lon="6.17511">
        <ele>1075.8</ele>
        <time>2025-06-12T08:33:34Z</time>
      </trkpt>
      <trkpt lat="44.65576" lon="6.17517">
        <ele>1076.2</ele>
        <time>2025-06-12T08:33:36Z</time>
      </trkpt>
      <trkpt lat="44.65579" lon="6.17523">
        <ele>1076.6</ele>
        <time>2025-06-12T08:33:38Z</time>
      </trkpt>
      <trkpt lat="44.65582" lon="6.17528">
        <ele>1077</ele>
        <time>2025-06-12T08:33:40Z</time>
      </trkpt>
      <trkpt lat="44.65583" lon="6.1753">
        <ele>1077.4</ele>
        <time>2025-06-12T08:33:41Z</time>
      </trkpt>
      <trkpt lat="44.65585" lon="6.17533">
        <ele>1077.4</ele>
        <time>2025-06-12T08:33:42Z</time>
      </trkpt>
      <trkpt lat="44.65587" lon="6.17535">
        <ele>1077.6</ele>
        <time>2025-06-12T08:33:43Z</time>
      </trkpt>
      <trkpt lat="44.65588" lon="6.17538">
        <ele>1077.8</ele>
        <time>2025-06-12T08:33:44Z</time>
      </trkpt>
      <trkpt lat="44.6559" lon="6.1754">
        <ele>1078.2</ele>
        <time>2025-06-12T08:33:45Z</time>
      </trkpt>
      <trkpt lat="44.65592" lon="6.17542">
        <ele>1078.4</ele>
        <time>2025-06-12T08:33:46Z</time>
      </trkpt>
      <trkpt lat="44.65595" lon="6.17544">
        <ele>1078.8</ele>
        <time>2025-06-12T08:33:47Z</time>
      </trkpt>
      <trkpt lat="44.65597" lon="6.17546">
        <ele>1079</ele>
        <time>2025-06-12T08:33:48Z</time>
      </trkpt>
      <trkpt lat="44.65599" lon="6.17547">
        <ele>1079</ele>
        <time>2025-06-12T08:33:49Z</time>
      </trkpt>
      <trkpt lat="44.65602" lon="6.17547">
        <ele>1079.4</ele>
        <time>2025-06-12T08:33:50Z</time>
      </trkpt>
      <trkpt lat="44.65604" lon="6.17548">
        <ele>1079.6</ele>
        <time>2025-06-12T08:33:51Z</time>
      </trkpt>
      <trkpt lat="44.65609" lon="6.17547">
        <ele>1080</ele>
        <time>2025-06-12T08:33:53Z</time>
      </trkpt>
      <trkpt lat="44.65614" lon="6.17545">
        <ele>1080.4</ele>
        <time>2025-06-12T08:33:55Z</time>
      </trkpt>
      <trkpt lat="44.65616" lon="6.17544">
        <ele>1080.6</ele>
        <time>2025-06-12T08:33:56Z</time>
      </trkpt>
      <trkpt lat="44.65619" lon="6.17542">
        <ele>1080.6</ele>
        <time>2025-06-12T08:33:57Z</time>
      </trkpt>
      <trkpt lat="44.65623" lon="6.17538">
        <ele>1081</ele>
        <time>2025-06-12T08:33:59Z</time>
      </trkpt>
      <trkpt lat="44.65625" lon="6.17536">
        <ele>1081.2</ele>
        <time>2025-06-12T08:34:00Z</time>
      </trkpt>
      <trkpt lat="44.65627" lon="6.17534">
        <ele>1081.4</ele>
        <time>2025-06-12T08:34:01Z</time>
      </trkpt>
      <trkpt lat="44.65629" lon="6.17532">
        <ele>1081.6</ele>
        <time>2025-06-12T08:34:02Z</time>
      </trkpt>
      <trkpt lat="44.65632" lon="6.17531">
        <ele>1082</ele>
        <time>2025-06-12T08:34:03Z</time>
      </trkpt>
      <trkpt lat="44.65634" lon="6.17529">
        <ele>1082.2</ele>
        <time>2025-06-12T08:34:04Z</time>
      </trkpt>
      <trkpt lat="44.65636" lon="6.17527">
        <ele>1082.2</ele>
        <time>2025-06-12T08:34:05Z</time>
      </trkpt>
      <trkpt lat="44.65638" lon="6.17525">
        <ele>1082.6</ele>
        <time>2025-06-12T08:34:06Z</time>
      </trkpt>
      <trkpt lat="44.65641" lon="6.17523">
        <ele>1082.6</ele>
        <time>2025-06-12T08:34:07Z</time>
      </trkpt>
      <trkpt lat="44.65643" lon="6.17521">
        <ele>1082.6</ele>
        <time>2025-06-12T08:34:08Z</time>
      </trkpt>
      <trkpt lat="44.65645" lon="6.17518">
        <ele>1083</ele>
        <time>2025-06-12T08:34:09Z</time>
      </trkpt>
      <trkpt lat="44.65647" lon="6.17516">
        <ele>1083.2</ele>
        <time>2025-06-12T08:34:10Z</time>
      </trkpt>
      <trkpt lat="44.65649" lon="6.17513">
        <ele>1083.4</ele>
        <time>2025-06-12T08:34:11Z</time>
      </trkpt>
      <trkpt lat="44.65651" lon="6.17511">
        <ele>1083.6</ele>
        <time>2025-06-12T08:34:12Z</time>
      </trkpt>
      <trkpt lat="44.65655" lon="6.17507">
        <ele>1084.2</ele>
        <time>2025-06-12T08:34:14Z</time>
      </trkpt>
      <trkpt lat="44.65657" lon="6.17504">
        <ele>1084.4</ele>
        <time>2025-06-12T08:34:15Z</time>
      </trkpt>
      <trkpt lat="44.65659" lon="6.17502">
        <ele>1084.6</ele>
        <time>2025-06-12T08:34:16Z</time>
      </trkpt>
      <trkpt lat="44.65663" lon="6.17497">
        <ele>1085.2</ele>
        <time>2025-06-12T08:34:18Z</time>
      </trkpt>
      <trkpt lat="44.65666" lon="6.17492">
        <ele>1085.6</ele>
        <time>2025-06-12T08:34:20Z</time>
      </trkpt>
      <trkpt lat="44.65668" lon="6.1749">
        <ele>1085.8</ele>
        <time>2025-06-12T08:34:21Z</time>
      </trkpt>
      <trkpt lat="44.6567" lon="6.17487">
        <ele>1086</ele>
        <time>2025-06-12T08:34:22Z</time>
      </trkpt>
      <trkpt lat="44.65672" lon="6.17485">
        <ele>1086</ele>
        <time>2025-06-12T08:34:23Z</time>
      </trkpt>
      <trkpt lat="44.65674" lon="6.17482">
        <ele>1086.2</ele>
        <time>2025-06-12T08:34:24Z</time>
      </trkpt>
      <trkpt lat="44.65676" lon="6.1748">
        <ele>1086.2</ele>
        <time>2025-06-12T08:34:25Z</time>
      </trkpt>
      <trkpt lat="44.65677" lon="6.17478">
        <ele>1086.4</ele>
        <time>2025-06-12T08:34:26Z</time>
      </trkpt>
      <trkpt lat="44.65679" lon="6.17475">
        <ele>1086.6</ele>
        <time>2025-06-12T08:34:27Z</time>
      </trkpt>
      <trkpt lat="44.65681" lon="6.17473">
        <ele>1086.8</ele>
        <time>2025-06-12T08:34:28Z</time>
      </trkpt>
      <trkpt lat="44.65683" lon="6.1747">
        <ele>1087</ele>
        <time>2025-06-12T08:34:29Z</time>
      </trkpt>
      <trkpt lat="44.65684" lon="6.17467">
        <ele>1087.2</ele>
        <time>2025-06-12T08:34:30Z</time>
      </trkpt>
      <trkpt lat="44.65685" lon="6.17464">
        <ele>1087.4</ele>
        <time>2025-06-12T08:34:31Z</time>
      </trkpt>
      <trkpt lat="44.65687" lon="6.17461">
        <ele>1087.6</ele>
        <time>2025-06-12T08:34:32Z</time>
      </trkpt>
      <trkpt lat="44.65689" lon="6.17455">
        <ele>1088</ele>
        <time>2025-06-12T08:34:34Z</time>
      </trkpt>
      <trkpt lat="44.65691" lon="6.17448">
        <ele>1088.4</ele>
        <time>2025-06-12T08:34:36Z</time>
      </trkpt>
      <trkpt lat="44.65692" lon="6.17445">
        <ele>1088.6</ele>
        <time>2025-06-12T08:34:37Z</time>
      </trkpt>
      <trkpt lat="44.65692" lon="6.17441">
        <ele>1088.8</ele>
        <time>2025-06-12T08:34:38Z</time>
      </trkpt>
      <trkpt lat="44.65693" lon="6.17437">
        <ele>1089.2</ele>
        <time>2025-06-12T08:34:39Z</time>
      </trkpt>
      <trkpt lat="44.65693" lon="6.17434">
        <ele>1089.2</ele>
        <time>2025-06-12T08:34:40Z</time>
      </trkpt>
      <trkpt lat="44.65694" lon="6.1743">
        <ele>1089.4</ele>
        <time>2025-06-12T08:34:41Z</time>
      </trkpt>
      <trkpt lat="44.65694" lon="6.17426">
        <ele>1089.6</ele>
        <time>2025-06-12T08:34:42Z</time>
      </trkpt>
      <trkpt lat="44.65694" lon="6.17423">
        <ele>1089.8</ele>
        <time>2025-06-12T08:34:43Z</time>
      </trkpt>
      <trkpt lat="44.65694" lon="6.17419">
        <ele>1090</ele>
        <time>2025-06-12T08:34:44Z</time>
      </trkpt>
      <trkpt lat="44.65694" lon="6.17416">
        <ele>1090.4</ele>
        <time>2025-06-12T08:34:45Z</time>
      </trkpt>
      <trkpt lat="44.65694" lon="6.17412">
        <ele>1090.8</ele>
        <time>2025-06-12T08:34:46Z</time>
      </trkpt>
      <trkpt lat="44.65695" lon="6.17405">
        <ele>1091.2</ele>
        <time>2025-06-12T08:34:48Z</time>
      </trkpt>
      <trkpt lat="44.65694" lon="6.17401">
        <ele>1091.4</ele>
        <time>2025-06-12T08:34:49Z</time>
      </trkpt>
      <trkpt lat="44.65694" lon="6.17394">
        <ele>1091.6</ele>
        <time>2025-06-12T08:34:51Z</time>
      </trkpt>
      <trkpt lat="44.65694" lon="6.17387">
        <ele>1091.8</ele>
        <time>2025-06-12T08:34:53Z</time>
      </trkpt>
      <trkpt lat="44.65693" lon="6.17384">
        <ele>1092</ele>
        <time>2025-06-12T08:34:54Z</time>
      </trkpt>
      <trkpt lat="44.65693" lon="6.1738">
        <ele>1092</ele>
        <time>2025-06-12T08:34:55Z</time>
      </trkpt>
      <trkpt lat="44.65693" lon="6.17377">
        <ele>1092.2</ele>
        <time>2025-06-12T08:34:56Z</time>
      </trkpt>
      <trkpt lat="44.65693" lon="6.17373">
        <ele>1092.4</ele>
        <time>2025-06-12T08:34:57Z</time>
      </trkpt>
      <trkpt lat="44.65693" lon="6.1737">
        <ele>1092.6</ele>
        <time>2025-06-12T08:34:58Z</time>
      </trkpt>
      <trkpt lat="44.65693" lon="6.17366">
        <ele>1093</ele>
        <time>2025-06-12T08:34:59Z</time>
      </trkpt>
      <trkpt lat="44.65693" lon="6.17363">
        <ele>1093.2</ele>
        <time>2025-06-12T08:35:00Z</time>
      </trkpt>
      <trkpt lat="44.65693" lon="6.17359">
        <ele>1093.4</ele>
        <time>2025-06-12T08:35:01Z</time>
      </trkpt>
      <trkpt lat="44.65693" lon="6.17356">
        <ele>1093.6</ele>
        <time>2025-06-12T08:35:02Z</time>
      </trkpt>
      <trkpt lat="44.65693" lon="6.17353">
        <ele>1093.8</ele>
        <time>2025-06-12T08:35:03Z</time>
      </trkpt>
      <trkpt lat="44.65694" lon="6.17346">
        <ele>1094.2</ele>
        <time>2025-06-12T08:35:05Z</time>
      </trkpt>
      <trkpt lat="44.65694" lon="6.17342">
        <ele>1094.4</ele>
        <time>2025-06-12T08:35:06Z</time>
      </trkpt>
      <trkpt lat="44.65694" lon="6.17338">
        <ele>1094.6</ele>
        <time>2025-06-12T08:35:07Z</time>
      </trkpt>
      <trkpt lat="44.65695" lon="6.17335">
        <ele>1094.6</ele>
        <time>2025-06-12T08:35:08Z</time>
      </trkpt>
      <trkpt lat="44.65695" lon="6.17331">
        <ele>1094.8</ele>
        <time>2025-06-12T08:35:09Z</time>
      </trkpt>
      <trkpt lat="44.65695" lon="6.17328">
        <ele>1095</ele>
        <time>2025-06-12T08:35:10Z</time>
      </trkpt>
      <trkpt lat="44.65695" lon="6.17325">
        <ele>1095.2</ele>
        <time>2025-06-12T08:35:11Z</time>
      </trkpt>
      <trkpt lat="44.65695" lon="6.17322">
        <ele>1095.4</ele>
        <time>2025-06-12T08:35:12Z</time>
      </trkpt>
      <trkpt lat="44.65695" lon="6.17318">
        <ele>1095.6</ele>
        <time>2025-06-12T08:35:13Z</time>
      </trkpt>
      <trkpt lat="44.65695" lon="6.17315">
        <ele>1096</ele>
        <time>2025-06-12T08:35:14Z</time>
      </trkpt>
      <trkpt lat="44.65695" lon="6.17311">
        <ele>1096</ele>
        <time>2025-06-12T08:35:15Z</time>
      </trkpt>
      <trkpt lat="44.65694" lon="6.17307">
        <ele>1096</ele>
        <time>2025-06-12T08:35:16Z</time>
      </trkpt>
      <trkpt lat="44.65694" lon="6.17303">
        <ele>1096.2</ele>
        <time>2025-06-12T08:35:17Z</time>
      </trkpt>
      <trkpt lat="44.65694" lon="6.17299">
        <ele>1096.2</ele>
        <time>2025-06-12T08:35:18Z</time>
      </trkpt>
      <trkpt lat="44.65693" lon="6.17295">
        <ele>1096.4</ele>
        <time>2025-06-12T08:35:19Z</time>
      </trkpt>
      <trkpt lat="44.65693" lon="6.17291">
        <ele>1096.4</ele>
        <time>2025-06-12T08:35:20Z</time>
      </trkpt>
      <trkpt lat="44.65691" lon="6.17283">
        <ele>1096.4</ele>
        <time>2025-06-12T08:35:22Z</time>
      </trkpt>
      <trkpt lat="44.6569" lon="6.17274">
        <ele>1096.6</ele>
        <time>2025-06-12T08:35:24Z</time>
      </trkpt>
      <trkpt lat="44.6569" lon="6.1727">
        <ele>1096.6</ele>
        <time>2025-06-12T08:35:25Z</time>
      </trkpt>
      <trkpt lat="44.65689" lon="6.17266">
        <ele>1096.8</ele>
        <time>2025-06-12T08:35:26Z</time>
      </trkpt>
      <trkpt lat="44.65689" lon="6.17258">
        <ele>1097.2</ele>
        <time>2025-06-12T08:35:28Z</time>
      </trkpt>
      <trkpt lat="44.65688" lon="6.17253">
        <ele>1097.4</ele>
        <time>2025-06-12T08:35:29Z</time>
      </trkpt>
      <trkpt lat="44.65688" lon="6.17249">
        <ele>1097.4</ele>
        <time>2025-06-12T08:35:30Z</time>
      </trkpt>
      <trkpt lat="44.65687" lon="6.17245">
        <ele>1097.6</ele>
        <time>2025-06-12T08:35:31Z</time>
      </trkpt>
      <trkpt lat="44.65687" lon="6.1724">
        <ele>1097.6</ele>
        <time>2025-06-12T08:35:32Z</time>
      </trkpt>
      <trkpt lat="44.65686" lon="6.17236">
        <ele>1097.8</ele>
        <time>2025-06-12T08:35:33Z</time>
      </trkpt>
      <trkpt lat="44.65686" lon="6.17232">
        <ele>1097.8</ele>
        <time>2025-06-12T08:35:34Z</time>
      </trkpt>
      <trkpt lat="44.65685" lon="6.17228">
        <ele>1098</ele>
        <time>2025-06-12T08:35:35Z</time>
      </trkpt>
      <trkpt lat="44.65685" lon="6.17224">
        <ele>1098.2</ele>
        <time>2025-06-12T08:35:36Z</time>
      </trkpt>
      <trkpt lat="44.65685" lon="6.1722">
        <ele>1098.2</ele>
        <time>2025-06-12T08:35:37Z</time>
      </trkpt>
      <trkpt lat="44.65686" lon="6.17216">
        <ele>1098.4</ele>
        <time>2025-06-12T08:35:38Z</time>
      </trkpt>
      <trkpt lat="44.65686" lon="6.17212">
        <ele>1098.6</ele>
        <time>2025-06-12T08:35:39Z</time>
      </trkpt>
      <trkpt lat="44.65688" lon="6.17205">
        <ele>1099.2</ele>
        <time>2025-06-12T08:35:41Z</time>
      </trkpt>
      <trkpt lat="44.6569" lon="6.17198">
        <ele>1099.6</ele>
        <time>2025-06-12T08:35:43Z</time>
      </trkpt>
      <trkpt lat="44.65693" lon="6.17192">
        <ele>1099.8</ele>
        <time>2025-06-12T08:35:45Z</time>
      </trkpt>
      <trkpt lat="44.65697" lon="6.17187">
        <ele>1100.4</ele>
        <time>2025-06-12T08:35:47Z</time>
      </trkpt>
      <trkpt lat="44.65699" lon="6.17185">
        <ele>1100.4</ele>
        <time>2025-06-12T08:35:48Z</time>
      </trkpt>
      <trkpt lat="44.65701" lon="6.17183">
        <ele>1100.6</ele>
        <time>2025-06-12T08:35:49Z</time>
      </trkpt>
      <trkpt lat="44.65704" lon="6.17181">
        <ele>1101</ele>
        <time>2025-06-12T08:35:50Z</time>
      </trkpt>
      <trkpt lat="44.65706" lon="6.1718">
        <ele>1101.2</ele>
        <time>2025-06-12T08:35:51Z</time>
      </trkpt>
      <trkpt lat="44.65709" lon="6.17179">
        <ele>1101.4</ele>
        <time>2025-06-12T08:35:52Z</time>
      </trkpt>
      <trkpt lat="44.65711" lon="6.17178">
        <ele>1101.6</ele>
        <time>2025-06-12T08:35:53Z</time>
      </trkpt>
      <trkpt lat="44.65714" lon="6.17177">
        <ele>1101.8</ele>
        <time>2025-06-12T08:35:54Z</time>
      </trkpt>
      <trkpt lat="44.65717" lon="6.17177">
        <ele>1102</ele>
        <time>2025-06-12T08:35:55Z</time>
      </trkpt>
      <trkpt lat="44.65719" lon="6.17176">
        <ele>1102</ele>
        <time>2025-06-12T08:35:56Z</time>
      </trkpt>
      <trkpt lat="44.65722" lon="6.17175">
        <ele>1102.2</ele>
        <time>2025-06-12T08:35:57Z</time>
      </trkpt>
      <trkpt lat="44.65724" lon="6.17174">
        <ele>1102.4</ele>
        <time>2025-06-12T08:35:58Z</time>
      </trkpt>
      <trkpt lat="44.65727" lon="6.17173">
        <ele>1102.6</ele>
        <time>2025-06-12T08:35:59Z</time>
      </trkpt>
      <trkpt lat="44.65729" lon="6.17172">
        <ele>1103</ele>
        <time>2025-06-12T08:36:00Z</time>
      </trkpt>
      <trkpt lat="44.65732" lon="6.17171">
        <ele>1103.2</ele>
        <time>2025-06-12T08:36:01Z</time>
      </trkpt>
      <trkpt lat="44.65734" lon="6.1717">
        <ele>1103.4</ele>
        <time>2025-06-12T08:36:02Z</time>
      </trkpt>
      <trkpt lat="44.65739" lon="6.17168">
        <ele>1103.8</ele>
        <time>2025-06-12T08:36:04Z</time>
      </trkpt>
      <trkpt lat="44.65744" lon="6.17166">
        <ele>1104.4</ele>
        <time>2025-06-12T08:36:06Z</time>
      </trkpt>
      <trkpt lat="44.65747" lon="6.17165">
        <ele>1104.6</ele>
        <time>2025-06-12T08:36:07Z</time>
      </trkpt>
      <trkpt lat="44.65749" lon="6.17164">
        <ele>1105</ele>
        <time>2025-06-12T08:36:08Z</time>
      </trkpt>
      <trkpt lat="44.65752" lon="6.17162">
        <ele>1105.2</ele>
        <time>2025-06-12T08:36:09Z</time>
      </trkpt>
      <trkpt lat="44.65754" lon="6.17161">
        <ele>1105.4</ele>
        <time>2025-06-12T08:36:10Z</time>
      </trkpt>
      <trkpt lat="44.65756" lon="6.17159">
        <ele>1105.6</ele>
        <time>2025-06-12T08:36:11Z</time>
      </trkpt>
      <trkpt lat="44.65759" lon="6.17157">
        <ele>1105.8</ele>
        <time>2025-06-12T08:36:12Z</time>
      </trkpt>
      <trkpt lat="44.65761" lon="6.17156">
        <ele>1106</ele>
        <time>2025-06-12T08:36:13Z</time>
      </trkpt>
      <trkpt lat="44.65763" lon="6.17154">
        <ele>1106.4</ele>
        <time>2025-06-12T08:36:14Z</time>
      </trkpt>
      <trkpt lat="44.65765" lon="6.17152">
        <ele>1106.6</ele>
        <time>2025-06-12T08:36:15Z</time>
      </trkpt>
      <trkpt lat="44.65767" lon="6.17151">
        <ele>1107</ele>
        <time>2025-06-12T08:36:16Z</time>
      </trkpt>
      <trkpt lat="44.6577" lon="6.17149">
        <ele>1107.2</ele>
        <time>2025-06-12T08:36:17Z</time>
      </trkpt>
      <trkpt lat="44.65774" lon="6.17145">
        <ele>1107.4</ele>
        <time>2025-06-12T08:36:19Z</time>
      </trkpt>
      <trkpt lat="44.65778" lon="6.17141">
        <ele>1107.8</ele>
        <time>2025-06-12T08:36:21Z</time>
      </trkpt>
      <trkpt lat="44.6578" lon="6.17139">
        <ele>1108</ele>
        <time>2025-06-12T08:36:22Z</time>
      </trkpt>
      <trkpt lat="44.65782" lon="6.17137">
        <ele>1108.2</ele>
        <time>2025-06-12T08:36:23Z</time>
      </trkpt>
      <trkpt lat="44.65786" lon="6.17132">
        <ele>1108.6</ele>
        <time>2025-06-12T08:36:25Z</time>
      </trkpt>
      <trkpt lat="44.65788" lon="6.17129">
        <ele>1108.8</ele>
        <time>2025-06-12T08:36:26Z</time>
      </trkpt>
      <trkpt lat="44.6579" lon="6.17127">
        <ele>1109</ele>
        <time>2025-06-12T08:36:27Z</time>
      </trkpt>
      <trkpt lat="44.65792" lon="6.17125">
        <ele>1109.2</ele>
        <time>2025-06-12T08:36:28Z</time>
      </trkpt>
      <trkpt lat="44.65794" lon="6.17123">
        <ele>1109.4</ele>
        <time>2025-06-12T08:36:29Z</time>
      </trkpt>
      <trkpt lat="44.65795" lon="6.17121">
        <ele>1109.6</ele>
        <time>2025-06-12T08:36:30Z</time>
      </trkpt>
      <trkpt lat="44.65797" lon="6.17119">
        <ele>1109.8</ele>
        <time>2025-06-12T08:36:31Z</time>
      </trkpt>
      <trkpt lat="44.65799" lon="6.17117">
        <ele>1110</ele>
        <time>2025-06-12T08:36:32Z</time>
      </trkpt>
      <trkpt lat="44.65801" lon="6.17114">
        <ele>1110.2</ele>
        <time>2025-06-12T08:36:33Z</time>
      </trkpt>
      <trkpt lat="44.65803" lon="6.17112">
        <ele>1110.4</ele>
        <time>2025-06-12T08:36:34Z</time>
      </trkpt>
      <trkpt lat="44.65805" lon="6.1711">
        <ele>1110.6</ele>
        <time>2025-06-12T08:36:35Z</time>
      </trkpt>
      <trkpt lat="44.65807" lon="6.17108">
        <ele>1111.2</ele>
        <time>2025-06-12T08:36:36Z</time>
      </trkpt>
      <trkpt lat="44.65811" lon="6.17104">
        <ele>1111.6</ele>
        <time>2025-06-12T08:36:38Z</time>
      </trkpt>
      <trkpt lat="44.65812" lon="6.17102">
        <ele>1111.8</ele>
        <time>2025-06-12T08:36:39Z</time>
      </trkpt>
      <trkpt lat="44.65814" lon="6.17099">
        <ele>1112</ele>
        <time>2025-06-12T08:36:40Z</time>
      </trkpt>
      <trkpt lat="44.65818" lon="6.17095">
        <ele>1112.4</ele>
        <time>2025-06-12T08:36:42Z</time>
      </trkpt>
      <trkpt lat="44.65822" lon="6.17092">
        <ele>1112.6</ele>
        <time>2025-06-12T08:36:44Z</time>
      </trkpt>
      <trkpt lat="44.65824" lon="6.1709">
        <ele>1112.8</ele>
        <time>2025-06-12T08:36:45Z</time>
      </trkpt>
      <trkpt lat="44.65826" lon="6.17088">
        <ele>1113</ele>
        <time>2025-06-12T08:36:46Z</time>
      </trkpt>
      <trkpt lat="44.65827" lon="6.17086">
        <ele>1113.2</ele>
        <time>2025-06-12T08:36:47Z</time>
      </trkpt>
      <trkpt lat="44.65829" lon="6.17083">
        <ele>1113.6</ele>
        <time>2025-06-12T08:36:48Z</time>
      </trkpt>
      <trkpt lat="44.65831" lon="6.17081">
        <ele>1113.8</ele>
        <time>2025-06-12T08:36:49Z</time>
      </trkpt>
      <trkpt lat="44.65832" lon="6.17079">
        <ele>1113.8</ele>
        <time>2025-06-12T08:36:50Z</time>
      </trkpt>
      <trkpt lat="44.65834" lon="6.17077">
        <ele>1114.2</ele>
        <time>2025-06-12T08:36:51Z</time>
      </trkpt>
      <trkpt lat="44.65837" lon="6.17072">
        <ele>1114.6</ele>
        <time>2025-06-12T08:36:53Z</time>
      </trkpt>
      <trkpt lat="44.6584" lon="6.17068">
        <ele>1114.8</ele>
        <time>2025-06-12T08:36:55Z</time>
      </trkpt>
      <trkpt lat="44.65844" lon="6.17064">
        <ele>1115.2</ele>
        <time>2025-06-12T08:36:57Z</time>
      </trkpt>
      <trkpt lat="44.65846" lon="6.17062">
        <ele>1115.2</ele>
        <time>2025-06-12T08:36:58Z</time>
      </trkpt>
      <trkpt lat="44.65847" lon="6.1706">
        <ele>1115.4</ele>
        <time>2025-06-12T08:36:59Z</time>
      </trkpt>
      <trkpt lat="44.65849" lon="6.17057">
        <ele>1115.6</ele>
        <time>2025-06-12T08:37:00Z</time>
      </trkpt>
      <trkpt lat="44.6585" lon="6.17055">
        <ele>1115.8</ele>
        <time>2025-06-12T08:37:01Z</time>
      </trkpt>
      <trkpt lat="44.65852" lon="6.17052">
        <ele>1115.8</ele>
        <time>2025-06-12T08:37:02Z</time>
      </trkpt>
      <trkpt lat="44.65854" lon="6.1705">
        <ele>1116.2</ele>
        <time>2025-06-12T08:37:03Z</time>
      </trkpt>
      <trkpt lat="44.65855" lon="6.17048">
        <ele>1116.4</ele>
        <time>2025-06-12T08:37:04Z</time>
      </trkpt>
      <trkpt lat="44.65857" lon="6.17045">
        <ele>1116.6</ele>
        <time>2025-06-12T08:37:05Z</time>
      </trkpt>
      <trkpt lat="44.65859" lon="6.17042">
        <ele>1116.8</ele>
        <time>2025-06-12T08:37:06Z</time>
      </trkpt>
      <trkpt lat="44.6586" lon="6.17039">
        <ele>1116.8</ele>
        <time>2025-06-12T08:37:07Z</time>
      </trkpt>
      <trkpt lat="44.65861" lon="6.17036">
        <ele>1117</ele>
        <time>2025-06-12T08:37:08Z</time>
      </trkpt>
      <trkpt lat="44.65863" lon="6.17034">
        <ele>1117.4</ele>
        <time>2025-06-12T08:37:09Z</time>
      </trkpt>
      <trkpt lat="44.65864" lon="6.17031">
        <ele>1117.6</ele>
        <time>2025-06-12T08:37:10Z</time>
      </trkpt>
      <trkpt lat="44.65865" lon="6.17028">
        <ele>1117.8</ele>
        <time>2025-06-12T08:37:11Z</time>
      </trkpt>
      <trkpt lat="44.65867" lon="6.17025">
        <ele>1118</ele>
        <time>2025-06-12T08:37:12Z</time>
      </trkpt>
      <trkpt lat="44.65869" lon="6.17022">
        <ele>1118.2</ele>
        <time>2025-06-12T08:37:13Z</time>
      </trkpt>
      <trkpt lat="44.6587" lon="6.1702">
        <ele>1118.4</ele>
        <time>2025-06-12T08:37:14Z</time>
      </trkpt>
      <trkpt lat="44.65872" lon="6.17017">
        <ele>1118.6</ele>
        <time>2025-06-12T08:37:15Z</time>
      </trkpt>
      <trkpt lat="44.65874" lon="6.17014">
        <ele>1118.8</ele>
        <time>2025-06-12T08:37:16Z</time>
      </trkpt>
      <trkpt lat="44.65875" lon="6.17011">
        <ele>1118.8</ele>
        <time>2025-06-12T08:37:17Z</time>
      </trkpt>
      <trkpt lat="44.65877" lon="6.17008">
        <ele>1119</ele>
        <time>2025-06-12T08:37:18Z</time>
      </trkpt>
      <trkpt lat="44.65878" lon="6.17005">
        <ele>1119.2</ele>
        <time>2025-06-12T08:37:19Z</time>
      </trkpt>
      <trkpt lat="44.6588" lon="6.17002">
        <ele>1119.4</ele>
        <time>2025-06-12T08:37:20Z</time>
      </trkpt>
      <trkpt lat="44.65881" lon="6.17">
        <ele>1119.4</ele>
        <time>2025-06-12T08:37:21Z</time>
      </trkpt>
      <trkpt lat="44.65883" lon="6.16997">
        <ele>1119.6</ele>
        <time>2025-06-12T08:37:22Z</time>
      </trkpt>
      <trkpt lat="44.65884" lon="6.16994">
        <ele>1119.8</ele>
        <time>2025-06-12T08:37:23Z</time>
      </trkpt>
      <trkpt lat="44.65885" lon="6.16991">
        <ele>1119.8</ele>
        <time>2025-06-12T08:37:24Z</time>
      </trkpt>
      <trkpt lat="44.65887" lon="6.16988">
        <ele>1120</ele>
        <time>2025-06-12T08:37:25Z</time>
      </trkpt>
      <trkpt lat="44.65888" lon="6.16985">
        <ele>1120</ele>
        <time>2025-06-12T08:37:26Z</time>
      </trkpt>
      <trkpt lat="44.65889" lon="6.16981">
        <ele>1120.2</ele>
        <time>2025-06-12T08:37:27Z</time>
      </trkpt>
      <trkpt lat="44.65891" lon="6.16978">
        <ele>1120.2</ele>
        <time>2025-06-12T08:37:28Z</time>
      </trkpt>
      <trkpt lat="44.65892" lon="6.16975">
        <ele>1120.4</ele>
        <time>2025-06-12T08:37:29Z</time>
      </trkpt>
      <trkpt lat="44.65894" lon="6.16972">
        <ele>1120.4</ele>
        <time>2025-06-12T08:37:30Z</time>
      </trkpt>
      <trkpt lat="44.65895" lon="6.16969">
        <ele>1120.6</ele>
        <time>2025-06-12T08:37:31Z</time>
      </trkpt>
      <trkpt lat="44.65897" lon="6.16966">
        <ele>1121</ele>
        <time>2025-06-12T08:37:32Z</time>
      </trkpt>
      <trkpt lat="44.65898" lon="6.16963">
        <ele>1121.2</ele>
        <time>2025-06-12T08:37:33Z</time>
      </trkpt>
      <trkpt lat="44.65899" lon="6.1696">
        <ele>1121.4</ele>
        <time>2025-06-12T08:37:34Z</time>
      </trkpt>
      <trkpt lat="44.65902" lon="6.16954">
        <ele>1121.8</ele>
        <time>2025-06-12T08:37:36Z</time>
      </trkpt>
      <trkpt lat="44.65905" lon="6.16948">
        <ele>1122</ele>
        <time>2025-06-12T08:37:38Z</time>
      </trkpt>
      <trkpt lat="44.65907" lon="6.16945">
        <ele>1122.2</ele>
        <time>2025-06-12T08:37:39Z</time>
      </trkpt>
      <trkpt lat="44.65909" lon="6.16942">
        <ele>1122.4</ele>
        <time>2025-06-12T08:37:40Z</time>
      </trkpt>
      <trkpt lat="44.65912" lon="6.16937">
        <ele>1122.8</ele>
        <time>2025-06-12T08:37:42Z</time>
      </trkpt>
      <trkpt lat="44.65914" lon="6.16934">
        <ele>1123</ele>
        <time>2025-06-12T08:37:43Z</time>
      </trkpt>
      <trkpt lat="44.65915" lon="6.16931">
        <ele>1123.4</ele>
        <time>2025-06-12T08:37:44Z</time>
      </trkpt>
      <trkpt lat="44.65917" lon="6.16928">
        <ele>1123.6</ele>
        <time>2025-06-12T08:37:45Z</time>
      </trkpt>
      <trkpt lat="44.65919" lon="6.16925">
        <ele>1123.8</ele>
        <time>2025-06-12T08:37:46Z</time>
      </trkpt>
      <trkpt lat="44.6592" lon="6.16923">
        <ele>1124</ele>
        <time>2025-06-12T08:37:47Z</time>
      </trkpt>
      <trkpt lat="44.65922" lon="6.1692">
        <ele>1124.4</ele>
        <time>2025-06-12T08:37:48Z</time>
      </trkpt>
      <trkpt lat="44.65924" lon="6.16918">
        <ele>1124.6</ele>
        <time>2025-06-12T08:37:49Z</time>
      </trkpt>
      <trkpt lat="44.65926" lon="6.16916">
        <ele>1124.8</ele>
        <time>2025-06-12T08:37:50Z</time>
      </trkpt>
      <trkpt lat="44.65928" lon="6.16914">
        <ele>1125</ele>
        <time>2025-06-12T08:37:51Z</time>
      </trkpt>
      <trkpt lat="44.65931" lon="6.16909">
        <ele>1125.4</ele>
        <time>2025-06-12T08:37:53Z</time>
      </trkpt>
      <trkpt lat="44.65935" lon="6.16904">
        <ele>1125.8</ele>
        <time>2025-06-12T08:37:55Z</time>
      </trkpt>
      <trkpt lat="44.65939" lon="6.16899">
        <ele>1126</ele>
        <time>2025-06-12T08:37:57Z</time>
      </trkpt>
      <trkpt lat="44.65941" lon="6.16897">
        <ele>1126.2</ele>
        <time>2025-06-12T08:37:58Z</time>
      </trkpt>
      <trkpt lat="44.65942" lon="6.16894">
        <ele>1126.4</ele>
        <time>2025-06-12T08:37:59Z</time>
      </trkpt>
      <trkpt lat="44.65944" lon="6.16892">
        <ele>1126.8</ele>
        <time>2025-06-12T08:38:00Z</time>
      </trkpt>
      <trkpt lat="44.65946" lon="6.1689">
        <ele>1127</ele>
        <time>2025-06-12T08:38:01Z</time>
      </trkpt>
      <trkpt lat="44.65948" lon="6.16888">
        <ele>1127.2</ele>
        <time>2025-06-12T08:38:02Z</time>
      </trkpt>
      <trkpt lat="44.6595" lon="6.16885">
        <ele>1127.6</ele>
        <time>2025-06-12T08:38:03Z</time>
      </trkpt>
      <trkpt lat="44.65952" lon="6.16883">
        <ele>1127.8</ele>
        <time>2025-06-12T08:38:04Z</time>
      </trkpt>
      <trkpt lat="44.65954" lon="6.16881">
        <ele>1128</ele>
        <time>2025-06-12T08:38:05Z</time>
      </trkpt>
      <trkpt lat="44.65956" lon="6.16879">
        <ele>1128.2</ele>
        <time>2025-06-12T08:38:06Z</time>
      </trkpt>
      <trkpt lat="44.65958" lon="6.16877">
        <ele>1128.6</ele>
        <time>2025-06-12T08:38:07Z</time>
      </trkpt>
      <trkpt lat="44.6596" lon="6.16875">
        <ele>1129</ele>
        <time>2025-06-12T08:38:08Z</time>
      </trkpt>
      <trkpt lat="44.65962" lon="6.16873">
        <ele>1129.2</ele>
        <time>2025-06-12T08:38:09Z</time>
      </trkpt>
      <trkpt lat="44.65964" lon="6.1687">
        <ele>1129.4</ele>
        <time>2025-06-12T08:38:10Z</time>
      </trkpt>
      <trkpt lat="44.65966" lon="6.16868">
        <ele>1129.6</ele>
        <time>2025-06-12T08:38:11Z</time>
      </trkpt>
      <trkpt lat="44.65968" lon="6.16866">
        <ele>1129.8</ele>
        <time>2025-06-12T08:38:12Z</time>
      </trkpt>
      <trkpt lat="44.6597" lon="6.16864">
        <ele>1130</ele>
        <time>2025-06-12T08:38:13Z</time>
      </trkpt>
      <trkpt lat="44.65972" lon="6.16862">
        <ele>1130</ele>
        <time>2025-06-12T08:38:14Z</time>
      </trkpt>
      <trkpt lat="44.65974" lon="6.1686">
        <ele>1130.2</ele>
        <time>2025-06-12T08:38:15Z</time>
      </trkpt>
      <trkpt lat="44.65976" lon="6.16858">
        <ele>1130.4</ele>
        <time>2025-06-12T08:38:16Z</time>
      </trkpt>
      <trkpt lat="44.65979" lon="6.16853">
        <ele>1130.8</ele>
        <time>2025-06-12T08:38:18Z</time>
      </trkpt>
      <trkpt lat="44.65983" lon="6.16848">
        <ele>1131.2</ele>
        <time>2025-06-12T08:38:20Z</time>
      </trkpt>
      <trkpt lat="44.65986" lon="6.16844">
        <ele>1131.6</ele>
        <time>2025-06-12T08:38:22Z</time>
      </trkpt>
      <trkpt lat="44.6599" lon="6.16839">
        <ele>1132</ele>
        <time>2025-06-12T08:38:24Z</time>
      </trkpt>
      <trkpt lat="44.65993" lon="6.16834">
        <ele>1132.4</ele>
        <time>2025-06-12T08:38:26Z</time>
      </trkpt>
      <trkpt lat="44.65997" lon="6.16828">
        <ele>1132.8</ele>
        <time>2025-06-12T08:38:28Z</time>
      </trkpt>
      <trkpt lat="44.65998" lon="6.16825">
        <ele>1132.8</ele>
        <time>2025-06-12T08:38:29Z</time>
      </trkpt>
      <trkpt lat="44.66" lon="6.16822">
        <ele>1133</ele>
        <time>2025-06-12T08:38:30Z</time>
      </trkpt>
      <trkpt lat="44.66001" lon="6.16819">
        <ele>1133.2</ele>
        <time>2025-06-12T08:38:31Z</time>
      </trkpt>
      <trkpt lat="44.66002" lon="6.16816">
        <ele>1133.4</ele>
        <time>2025-06-12T08:38:32Z</time>
      </trkpt>
      <trkpt lat="44.66003" lon="6.16813">
        <ele>1133.6</ele>
        <time>2025-06-12T08:38:33Z</time>
      </trkpt>
      <trkpt lat="44.66005" lon="6.16806">
        <ele>1133.8</ele>
        <time>2025-06-12T08:38:35Z</time>
      </trkpt>
      <trkpt lat="44.66005" lon="6.16803">
        <ele>1134</ele>
        <time>2025-06-12T08:38:36Z</time>
      </trkpt>
      <trkpt lat="44.66006" lon="6.168">
        <ele>1134.2</ele>
        <time>2025-06-12T08:38:37Z</time>
      </trkpt>
      <trkpt lat="44.66007" lon="6.16796">
        <ele>1134.2</ele>
        <time>2025-06-12T08:38:38Z</time>
      </trkpt>
      <trkpt lat="44.66006" lon="6.16793">
        <ele>1134.6</ele>
        <time>2025-06-12T08:38:39Z</time>
      </trkpt>
      <trkpt lat="44.66006" lon="6.16789">
        <ele>1134.8</ele>
        <time>2025-06-12T08:38:40Z</time>
      </trkpt>
      <trkpt lat="44.66006" lon="6.16785">
        <ele>1135</ele>
        <time>2025-06-12T08:38:41Z</time>
      </trkpt>
      <trkpt lat="44.66006" lon="6.16782">
        <ele>1135.2</ele>
        <time>2025-06-12T08:38:42Z</time>
      </trkpt>
      <trkpt lat="44.66005" lon="6.16778">
        <ele>1135.2</ele>
        <time>2025-06-12T08:38:43Z</time>
      </trkpt>
      <trkpt lat="44.66004" lon="6.16775">
        <ele>1135.4</ele>
        <time>2025-06-12T08:38:44Z</time>
      </trkpt>
      <trkpt lat="44.66003" lon="6.16768">
        <ele>1135.8</ele>
        <time>2025-06-12T08:38:46Z</time>
      </trkpt>
      <trkpt lat="44.66002" lon="6.16761">
        <ele>1136.4</ele>
        <time>2025-06-12T08:38:48Z</time>
      </trkpt>
      <trkpt lat="44.66" lon="6.16755">
        <ele>1136.6</ele>
        <time>2025-06-12T08:38:50Z</time>
      </trkpt>
      <trkpt lat="44.65999" lon="6.16752">
        <ele>1136.8</ele>
        <time>2025-06-12T08:38:51Z</time>
      </trkpt>
      <trkpt lat="44.65998" lon="6.16749">
        <ele>1136.8</ele>
        <time>2025-06-12T08:38:52Z</time>
      </trkpt>
      <trkpt lat="44.65997" lon="6.16745">
        <ele>1137</ele>
        <time>2025-06-12T08:38:53Z</time>
      </trkpt>
      <trkpt lat="44.65996" lon="6.16742">
        <ele>1137.2</ele>
        <time>2025-06-12T08:38:54Z</time>
      </trkpt>
      <trkpt lat="44.65994" lon="6.1674">
        <ele>1137.6</ele>
        <time>2025-06-12T08:38:55Z</time>
      </trkpt>
      <trkpt lat="44.65993" lon="6.16737">
        <ele>1137.8</ele>
        <time>2025-06-12T08:38:56Z</time>
      </trkpt>
      <trkpt lat="44.65992" lon="6.16733">
        <ele>1138</ele>
        <time>2025-06-12T08:38:57Z</time>
      </trkpt>
      <trkpt lat="44.65991" lon="6.1673">
        <ele>1138</ele>
        <time>2025-06-12T08:38:58Z</time>
      </trkpt>
      <trkpt lat="44.6599" lon="6.16727">
        <ele>1138.2</ele>
        <time>2025-06-12T08:38:59Z</time>
      </trkpt>
      <trkpt lat="44.65989" lon="6.16723">
        <ele>1138.4</ele>
        <time>2025-06-12T08:39:00Z</time>
      </trkpt>
      <trkpt lat="44.65989" lon="6.1672">
        <ele>1138.6</ele>
        <time>2025-06-12T08:39:01Z</time>
      </trkpt>
      <trkpt lat="44.65989" lon="6.16713">
        <ele>1138.8</ele>
        <time>2025-06-12T08:39:03Z</time>
      </trkpt>
      <trkpt lat="44.65991" lon="6.16706">
        <ele>1139</ele>
        <time>2025-06-12T08:39:05Z</time>
      </trkpt>
      <trkpt lat="44.65993" lon="6.16703">
        <ele>1139.2</ele>
        <time>2025-06-12T08:39:06Z</time>
      </trkpt>
      <trkpt lat="44.65995" lon="6.16701">
        <ele>1139.4</ele>
        <time>2025-06-12T08:39:07Z</time>
      </trkpt>
      <trkpt lat="44.66" lon="6.16699">
        <ele>1139.6</ele>
        <time>2025-06-12T08:39:09Z</time>
      </trkpt>
      <trkpt lat="44.66003" lon="6.16699">
        <ele>1139.8</ele>
        <time>2025-06-12T08:39:10Z</time>
      </trkpt>
      <trkpt lat="44.66005" lon="6.167">
        <ele>1139.8</ele>
        <time>2025-06-12T08:39:11Z</time>
      </trkpt>
      <trkpt lat="44.66008" lon="6.16702">
        <ele>1140</ele>
        <time>2025-06-12T08:39:12Z</time>
      </trkpt>
      <trkpt lat="44.6601" lon="6.16704">
        <ele>1140.2</ele>
        <time>2025-06-12T08:39:13Z</time>
      </trkpt>
      <trkpt lat="44.66012" lon="6.16706">
        <ele>1140.2</ele>
        <time>2025-06-12T08:39:14Z</time>
      </trkpt>
      <trkpt lat="44.66014" lon="6.16709">
        <ele>1140.4</ele>
        <time>2025-06-12T08:39:15Z</time>
      </trkpt>
      <trkpt lat="44.66015" lon="6.16712">
        <ele>1140.6</ele>
        <time>2025-06-12T08:39:16Z</time>
      </trkpt>
      <trkpt lat="44.66017" lon="6.16715">
        <ele>1140.8</ele>
        <time>2025-06-12T08:39:17Z</time>
      </trkpt>
      <trkpt lat="44.66018" lon="6.16717">
        <ele>1141.4</ele>
        <time>2025-06-12T08:39:18Z</time>
      </trkpt>
      <trkpt lat="44.6602" lon="6.1672">
        <ele>1141.8</ele>
        <time>2025-06-12T08:39:19Z</time>
      </trkpt>
      <trkpt lat="44.66021" lon="6.16723">
        <ele>1141.8</ele>
        <time>2025-06-12T08:39:20Z</time>
      </trkpt>
      <trkpt lat="44.66023" lon="6.16727">
        <ele>1142.2</ele>
        <time>2025-06-12T08:39:21Z</time>
      </trkpt>
      <trkpt lat="44.66024" lon="6.1673">
        <ele>1142.4</ele>
        <time>2025-06-12T08:39:22Z</time>
      </trkpt>
      <trkpt lat="44.66025" lon="6.16733">
        <ele>1142.8</ele>
        <time>2025-06-12T08:39:23Z</time>
      </trkpt>
      <trkpt lat="44.66027" lon="6.16736">
        <ele>1143</ele>
        <time>2025-06-12T08:39:24Z</time>
      </trkpt>
      <trkpt lat="44.66029" lon="6.16741">
        <ele>1143.4</ele>
        <time>2025-06-12T08:39:26Z</time>
      </trkpt>
      <trkpt lat="44.66032" lon="6.16747">
        <ele>1143.6</ele>
        <time>2025-06-12T08:39:28Z</time>
      </trkpt>
      <trkpt lat="44.66035" lon="6.16753">
        <ele>1144</ele>
        <time>2025-06-12T08:39:30Z</time>
      </trkpt>
      <trkpt lat="44.66038" lon="6.16758">
        <ele>1144</ele>
        <time>2025-06-12T08:39:32Z</time>
      </trkpt>
      <trkpt lat="44.66039" lon="6.16761">
        <ele>1144.2</ele>
        <time>2025-06-12T08:39:33Z</time>
      </trkpt>
      <trkpt lat="44.66041" lon="6.16764">
        <ele>1144.4</ele>
        <time>2025-06-12T08:39:34Z</time>
      </trkpt>
      <trkpt lat="44.66043" lon="6.16766">
        <ele>1144.8</ele>
        <time>2025-06-12T08:39:35Z</time>
      </trkpt>
      <trkpt lat="44.66044" lon="6.16769">
        <ele>1145</ele>
        <time>2025-06-12T08:39:36Z</time>
      </trkpt>
      <trkpt lat="44.66045" lon="6.16772">
        <ele>1145.2</ele>
        <time>2025-06-12T08:39:37Z</time>
      </trkpt>
      <trkpt lat="44.66047" lon="6.16775">
        <ele>1145.4</ele>
        <time>2025-06-12T08:39:38Z</time>
      </trkpt>
      <trkpt lat="44.66048" lon="6.16778">
        <ele>1145.4</ele>
        <time>2025-06-12T08:39:39Z</time>
      </trkpt>
      <trkpt lat="44.6605" lon="6.16781">
        <ele>1145.8</ele>
        <time>2025-06-12T08:39:40Z</time>
      </trkpt>
      <trkpt lat="44.66051" lon="6.16784">
        <ele>1145.8</ele>
        <time>2025-06-12T08:39:41Z</time>
      </trkpt>
      <trkpt lat="44.66053" lon="6.16787">
        <ele>1146</ele>
        <time>2025-06-12T08:39:42Z</time>
      </trkpt>
      <trkpt lat="44.66054" lon="6.16791">
        <ele>1146</ele>
        <time>2025-06-12T08:39:43Z</time>
      </trkpt>
      <trkpt lat="44.66055" lon="6.16794">
        <ele>1146.2</ele>
        <time>2025-06-12T08:39:44Z</time>
      </trkpt>
      <trkpt lat="44.66056" lon="6.16797">
        <ele>1146.4</ele>
        <time>2025-06-12T08:39:45Z</time>
      </trkpt>
      <trkpt lat="44.66058" lon="6.16803">
        <ele>1146.8</ele>
        <time>2025-06-12T08:39:47Z</time>
      </trkpt>
      <trkpt lat="44.66059" lon="6.1681">
        <ele>1147.2</ele>
        <time>2025-06-12T08:39:49Z</time>
      </trkpt>
      <trkpt lat="44.66059" lon="6.16813">
        <ele>1147.2</ele>
        <time>2025-06-12T08:39:50Z</time>
      </trkpt>
      <trkpt lat="44.6606" lon="6.16816">
        <ele>1147.6</ele>
        <time>2025-06-12T08:39:51Z</time>
      </trkpt>
      <trkpt lat="44.6606" lon="6.16823">
        <ele>1147.8</ele>
        <time>2025-06-12T08:39:53Z</time>
      </trkpt>
      <trkpt lat="44.66061" lon="6.16831">
        <ele>1148.4</ele>
        <time>2025-06-12T08:39:55Z</time>
      </trkpt>
      <trkpt lat="44.66061" lon="6.16834">
        <ele>1148.4</ele>
        <time>2025-06-12T08:39:56Z</time>
      </trkpt>
      <trkpt lat="44.66061" lon="6.16838">
        <ele>1148.8</ele>
        <time>2025-06-12T08:39:57Z</time>
      </trkpt>
      <trkpt lat="44.66061" lon="6.16841">
        <ele>1149</ele>
        <time>2025-06-12T08:39:58Z</time>
      </trkpt>
      <trkpt lat="44.66061" lon="6.16845">
        <ele>1149.2</ele>
        <time>2025-06-12T08:39:59Z</time>
      </trkpt>
      <trkpt lat="44.66061" lon="6.16848">
        <ele>1149.6</ele>
        <time>2025-06-12T08:40:00Z</time>
      </trkpt>
      <trkpt lat="44.66061" lon="6.16852">
        <ele>1149.8</ele>
        <time>2025-06-12T08:40:01Z</time>
      </trkpt>
      <trkpt lat="44.66062" lon="6.16855">
        <ele>1149.8</ele>
        <time>2025-06-12T08:40:02Z</time>
      </trkpt>
      <trkpt lat="44.66062" lon="6.16859">
        <ele>1150</ele>
        <time>2025-06-12T08:40:03Z</time>
      </trkpt>
      <trkpt lat="44.66062" lon="6.16862">
        <ele>1150.2</ele>
        <time>2025-06-12T08:40:04Z</time>
      </trkpt>
      <trkpt lat="44.66062" lon="6.16866">
        <ele>1150.4</ele>
        <time>2025-06-12T08:40:05Z</time>
      </trkpt>
      <trkpt lat="44.66062" lon="6.16869">
        <ele>1150.6</ele>
        <time>2025-06-12T08:40:06Z</time>
      </trkpt>
      <trkpt lat="44.66062" lon="6.16873">
        <ele>1150.8</ele>
        <time>2025-06-12T08:40:07Z</time>
      </trkpt>
      <trkpt lat="44.66062" lon="6.16876">
        <ele>1151</ele>
        <time>2025-06-12T08:40:08Z</time>
      </trkpt>
      <trkpt lat="44.66062" lon="6.1688">
        <ele>1151</ele>
        <time>2025-06-12T08:40:09Z</time>
      </trkpt>
      <trkpt lat="44.66062" lon="6.16883">
        <ele>1151.4</ele>
        <time>2025-06-12T08:40:10Z</time>
      </trkpt>
      <trkpt lat="44.66063" lon="6.16886">
        <ele>1151.6</ele>
        <time>2025-06-12T08:40:11Z</time>
      </trkpt>
      <trkpt lat="44.66063" lon="6.1689">
        <ele>1151.6</ele>
        <time>2025-06-12T08:40:12Z</time>
      </trkpt>
      <trkpt lat="44.66064" lon="6.16893">
        <ele>1151.8</ele>
        <time>2025-06-12T08:40:13Z</time>
      </trkpt>
      <trkpt lat="44.66064" lon="6.16896">
        <ele>1151.8</ele>
        <time>2025-06-12T08:40:14Z</time>
      </trkpt>
      <trkpt lat="44.66064" lon="6.169">
        <ele>1152</ele>
        <time>2025-06-12T08:40:15Z</time>
      </trkpt>
      <trkpt lat="44.66064" lon="6.16903">
        <ele>1152</ele>
        <time>2025-06-12T08:40:16Z</time>
      </trkpt>
      <trkpt lat="44.66065" lon="6.16907">
        <ele>1152</ele>
        <time>2025-06-12T08:40:17Z</time>
      </trkpt>
      <trkpt lat="44.66065" lon="6.1691">
        <ele>1152.2</ele>
        <time>2025-06-12T08:40:18Z</time>
      </trkpt>
      <trkpt lat="44.66065" lon="6.16913">
        <ele>1152.6</ele>
        <time>2025-06-12T08:40:19Z</time>
      </trkpt>
      <trkpt lat="44.66065" lon="6.16917">
        <ele>1153</ele>
        <time>2025-06-12T08:40:20Z</time>
      </trkpt>
      <trkpt lat="44.66065" lon="6.1692">
        <ele>1153.2</ele>
        <time>2025-06-12T08:40:21Z</time>
      </trkpt>
      <trkpt lat="44.66065" lon="6.16924">
        <ele>1153.4</ele>
        <time>2025-06-12T08:40:22Z</time>
      </trkpt>
      <trkpt lat="44.66065" lon="6.16927">
        <ele>1153.6</ele>
        <time>2025-06-12T08:40:23Z</time>
      </trkpt>
      <trkpt lat="44.66065" lon="6.16931">
        <ele>1153.8</ele>
        <time>2025-06-12T08:40:24Z</time>
      </trkpt>
      <trkpt lat="44.66065" lon="6.16934">
        <ele>1154</ele>
        <time>2025-06-12T08:40:25Z</time>
      </trkpt>
      <trkpt lat="44.66065" lon="6.16938">
        <ele>1154</ele>
        <time>2025-06-12T08:40:26Z</time>
      </trkpt>
      <trkpt lat="44.66065" lon="6.16945">
        <ele>1154.4</ele>
        <time>2025-06-12T08:40:28Z</time>
      </trkpt>
      <trkpt lat="44.66066" lon="6.16952">
        <ele>1154.6</ele>
        <time>2025-06-12T08:40:30Z</time>
      </trkpt>
      <trkpt lat="44.66066" lon="6.16956">
        <ele>1155</ele>
        <time>2025-06-12T08:40:31Z</time>
      </trkpt>
      <trkpt lat="44.66067" lon="6.1696">
        <ele>1155.2</ele>
        <time>2025-06-12T08:40:32Z</time>
      </trkpt>
      <trkpt lat="44.66067" lon="6.16963">
        <ele>1155.4</ele>
        <time>2025-06-12T08:40:33Z</time>
      </trkpt>
      <trkpt lat="44.66068" lon="6.1697">
        <ele>1155.4</ele>
        <time>2025-06-12T08:40:35Z</time>
      </trkpt>
      <trkpt lat="44.66068" lon="6.16974">
        <ele>1155.6</ele>
        <time>2025-06-12T08:40:36Z</time>
      </trkpt>
      <trkpt lat="44.66069" lon="6.16977">
        <ele>1155.8</ele>
        <time>2025-06-12T08:40:37Z</time>
      </trkpt>
      <trkpt lat="44.66069" lon="6.16981">
        <ele>1156</ele>
        <time>2025-06-12T08:40:38Z</time>
      </trkpt>
      <trkpt lat="44.66069" lon="6.16988">
        <ele>1156.4</ele>
        <time>2025-06-12T08:40:40Z</time>
      </trkpt>
      <trkpt lat="44.66069" lon="6.16995">
        <ele>1156.6</ele>
        <time>2025-06-12T08:40:42Z</time>
      </trkpt>
      <trkpt lat="44.66069" lon="6.16998">
        <ele>1156.8</ele>
        <time>2025-06-12T08:40:43Z</time>
      </trkpt>
      <trkpt lat="44.66069" lon="6.17002">
        <ele>1157</ele>
        <time>2025-06-12T08:40:44Z</time>
      </trkpt>
      <trkpt lat="44.66069" lon="6.17006">
        <ele>1157.2</ele>
        <time>2025-06-12T08:40:45Z</time>
      </trkpt>
      <trkpt lat="44.6607" lon="6.17009">
        <ele>1157.4</ele>
        <time>2025-06-12T08:40:46Z</time>
      </trkpt>
      <trkpt lat="44.6607" lon="6.17013">
        <ele>1157.8</ele>
        <time>2025-06-12T08:40:47Z</time>
      </trkpt>
      <trkpt lat="44.6607" lon="6.1702">
        <ele>1158</ele>
        <time>2025-06-12T08:40:49Z</time>
      </trkpt>
      <trkpt lat="44.66071" lon="6.17027">
        <ele>1158.4</ele>
        <time>2025-06-12T08:40:51Z</time>
      </trkpt>
      <trkpt lat="44.66071" lon="6.1703">
        <ele>1158.4</ele>
        <time>2025-06-12T08:40:52Z</time>
      </trkpt>
      <trkpt lat="44.66071" lon="6.17034">
        <ele>1158.6</ele>
        <time>2025-06-12T08:40:53Z</time>
      </trkpt>
      <trkpt lat="44.66071" lon="6.17037">
        <ele>1158.6</ele>
        <time>2025-06-12T08:40:54Z</time>
      </trkpt>
      <trkpt lat="44.66071" lon="6.17041">
        <ele>1159.2</ele>
        <time>2025-06-12T08:40:55Z</time>
      </trkpt>
      <trkpt lat="44.66071" lon="6.17044">
        <ele>1159.2</ele>
        <time>2025-06-12T08:40:56Z</time>
      </trkpt>
      <trkpt lat="44.66072" lon="6.17048">
        <ele>1159.4</ele>
        <time>2025-06-12T08:40:57Z</time>
      </trkpt>
      <trkpt lat="44.66072" lon="6.17051">
        <ele>1159.4</ele>
        <time>2025-06-12T08:40:58Z</time>
      </trkpt>
      <trkpt lat="44.66072" lon="6.17054">
        <ele>1159.8</ele>
        <time>2025-06-12T08:40:59Z</time>
      </trkpt>
      <trkpt lat="44.66072" lon="6.17058">
        <ele>1160</ele>
        <time>2025-06-12T08:41:00Z</time>
      </trkpt>
      <trkpt lat="44.66072" lon="6.17061">
        <ele>1160.2</ele>
        <time>2025-06-12T08:41:01Z</time>
      </trkpt>
      <trkpt lat="44.66072" lon="6.17065">
        <ele>1160.6</ele>
        <time>2025-06-12T08:41:02Z</time>
      </trkpt>
      <trkpt lat="44.66073" lon="6.17068">
        <ele>1160.8</ele>
        <time>2025-06-12T08:41:03Z</time>
      </trkpt>
      <trkpt lat="44.66073" lon="6.17071">
        <ele>1161</ele>
        <time>2025-06-12T08:41:04Z</time>
      </trkpt>
      <trkpt lat="44.66073" lon="6.17075">
        <ele>1161.2</ele>
        <time>2025-06-12T08:41:05Z</time>
      </trkpt>
      <trkpt lat="44.66073" lon="6.17078">
        <ele>1161.4</ele>
        <time>2025-06-12T08:41:06Z</time>
      </trkpt>
      <trkpt lat="44.66073" lon="6.17082">
        <ele>1161.6</ele>
        <time>2025-06-12T08:41:07Z</time>
      </trkpt>
      <trkpt lat="44.66073" lon="6.17085">
        <ele>1161.8</ele>
        <time>2025-06-12T08:41:08Z</time>
      </trkpt>
      <trkpt lat="44.66073" lon="6.17088">
        <ele>1162</ele>
        <time>2025-06-12T08:41:09Z</time>
      </trkpt>
      <trkpt lat="44.66073" lon="6.17091">
        <ele>1162.2</ele>
        <time>2025-06-12T08:41:10Z</time>
      </trkpt>
      <trkpt lat="44.66074" lon="6.17095">
        <ele>1162.4</ele>
        <time>2025-06-12T08:41:11Z</time>
      </trkpt>
      <trkpt lat="44.66074" lon="6.17098">
        <ele>1162.6</ele>
        <time>2025-06-12T08:41:12Z</time>
      </trkpt>
      <trkpt lat="44.66074" lon="6.17101">
        <ele>1162.8</ele>
        <time>2025-06-12T08:41:13Z</time>
      </trkpt>
      <trkpt lat="44.66074" lon="6.17105">
        <ele>1163.2</ele>
        <time>2025-06-12T08:41:14Z</time>
      </trkpt>
      <trkpt lat="44.66074" lon="6.17108">
        <ele>1163.4</ele>
        <time>2025-06-12T08:41:15Z</time>
      </trkpt>
      <trkpt lat="44.66075" lon="6.17111">
        <ele>1163.6</ele>
        <time>2025-06-12T08:41:16Z</time>
      </trkpt>
      <trkpt lat="44.66075" lon="6.17115">
        <ele>1163.8</ele>
        <time>2025-06-12T08:41:17Z</time>
      </trkpt>
      <trkpt lat="44.66075" lon="6.17118">
        <ele>1164</ele>
        <time>2025-06-12T08:41:18Z</time>
      </trkpt>
      <trkpt lat="44.66075" lon="6.17121">
        <ele>1164.2</ele>
        <time>2025-06-12T08:41:19Z</time>
      </trkpt>
      <trkpt lat="44.66076" lon="6.17125">
        <ele>1164.4</ele>
        <time>2025-06-12T08:41:20Z</time>
      </trkpt>
      <trkpt lat="44.66076" lon="6.17132">
        <ele>1165</ele>
        <time>2025-06-12T08:41:22Z</time>
      </trkpt>
      <trkpt lat="44.66077" lon="6.17138">
        <ele>1165.2</ele>
        <time>2025-06-12T08:41:24Z</time>
      </trkpt>
      <trkpt lat="44.66078" lon="6.17145">
        <ele>1165.6</ele>
        <time>2025-06-12T08:41:26Z</time>
      </trkpt>
      <trkpt lat="44.66079" lon="6.17148">
        <ele>1165.8</ele>
        <time>2025-06-12T08:41:27Z</time>
      </trkpt>
      <trkpt lat="44.6608" lon="6.17151">
        <ele>1166</ele>
        <time>2025-06-12T08:41:28Z</time>
      </trkpt>
      <trkpt lat="44.66083" lon="6.17158">
        <ele>1166.4</ele>
        <time>2025-06-12T08:41:30Z</time>
      </trkpt>
      <trkpt lat="44.66086" lon="6.17163">
        <ele>1166.8</ele>
        <time>2025-06-12T08:41:32Z</time>
      </trkpt>
      <trkpt lat="44.66089" lon="6.17168">
        <ele>1167.4</ele>
        <time>2025-06-12T08:41:34Z</time>
      </trkpt>
      <trkpt lat="44.66093" lon="6.17172">
        <ele>1168</ele>
        <time>2025-06-12T08:41:36Z</time>
      </trkpt>
      <trkpt lat="44.66096" lon="6.17174">
        <ele>1168.2</ele>
        <time>2025-06-12T08:41:37Z</time>
      </trkpt>
      <trkpt lat="44.66098" lon="6.17175">
        <ele>1168.4</ele>
        <time>2025-06-12T08:41:38Z</time>
      </trkpt>
      <trkpt lat="44.661" lon="6.17177">
        <ele>1168.6</ele>
        <time>2025-06-12T08:41:39Z</time>
      </trkpt>
      <trkpt lat="44.66102" lon="6.17179">
        <ele>1168.8</ele>
        <time>2025-06-12T08:41:40Z</time>
      </trkpt>
      <trkpt lat="44.66108" lon="6.17181">
        <ele>1169.4</ele>
        <time>2025-06-12T08:41:42Z</time>
      </trkpt>
      <trkpt lat="44.66113" lon="6.17183">
        <ele>1169.8</ele>
        <time>2025-06-12T08:41:44Z</time>
      </trkpt>
      <trkpt lat="44.66115" lon="6.17184">
        <ele>1170</ele>
        <time>2025-06-12T08:41:45Z</time>
      </trkpt>
      <trkpt lat="44.66118" lon="6.17184">
        <ele>1170.2</ele>
        <time>2025-06-12T08:41:46Z</time>
      </trkpt>
      <trkpt lat="44.66123" lon="6.17185">
        <ele>1170.6</ele>
        <time>2025-06-12T08:41:48Z</time>
      </trkpt>
      <trkpt lat="44.66128" lon="6.17187">
        <ele>1170.8</ele>
        <time>2025-06-12T08:41:50Z</time>
      </trkpt>
      <trkpt lat="44.6613" lon="6.17188">
        <ele>1170.8</ele>
        <time>2025-06-12T08:41:51Z</time>
      </trkpt>
      <trkpt lat="44.66133" lon="6.17188">
        <ele>1171</ele>
        <time>2025-06-12T08:41:52Z</time>
      </trkpt>
      <trkpt lat="44.66135" lon="6.17189">
        <ele>1171</ele>
        <time>2025-06-12T08:41:53Z</time>
      </trkpt>
      <trkpt lat="44.66137" lon="6.1719">
        <ele>1171.2</ele>
        <time>2025-06-12T08:41:54Z</time>
      </trkpt>
      <trkpt lat="44.66139" lon="6.17191">
        <ele>1171.4</ele>
        <time>2025-06-12T08:41:55Z</time>
      </trkpt>
      <trkpt lat="44.66141" lon="6.17193">
        <ele>1171.4</ele>
        <time>2025-06-12T08:41:56Z</time>
      </trkpt>
      <trkpt lat="44.66144" lon="6.17195">
        <ele>1171.6</ele>
        <time>2025-06-12T08:41:57Z</time>
      </trkpt>
      <trkpt lat="44.66145" lon="6.17197">
        <ele>1171.8</ele>
        <time>2025-06-12T08:41:58Z</time>
      </trkpt>
      <trkpt lat="44.66147" lon="6.17199">
        <ele>1172.2</ele>
        <time>2025-06-12T08:41:59Z</time>
      </trkpt>
      <trkpt lat="44.6615" lon="6.17201">
        <ele>1172.4</ele>
        <time>2025-06-12T08:42:00Z</time>
      </trkpt>
      <trkpt lat="44.66152" lon="6.17202">
        <ele>1172.6</ele>
        <time>2025-06-12T08:42:01Z</time>
      </trkpt>
      <trkpt lat="44.66154" lon="6.17204">
        <ele>1172.8</ele>
        <time>2025-06-12T08:42:02Z</time>
      </trkpt>
      <trkpt lat="44.66156" lon="6.17206">
        <ele>1173</ele>
        <time>2025-06-12T08:42:03Z</time>
      </trkpt>
      <trkpt lat="44.66158" lon="6.17208">
        <ele>1173.2</ele>
        <time>2025-06-12T08:42:04Z</time>
      </trkpt>
      <trkpt lat="44.66159" lon="6.1721">
        <ele>1173.4</ele>
        <time>2025-06-12T08:42:05Z</time>
      </trkpt>
      <trkpt lat="44.66161" lon="6.17212">
        <ele>1173.6</ele>
        <time>2025-06-12T08:42:06Z</time>
      </trkpt>
      <trkpt lat="44.66163" lon="6.17214">
        <ele>1174</ele>
        <time>2025-06-12T08:42:07Z</time>
      </trkpt>
      <trkpt lat="44.66165" lon="6.17217">
        <ele>1174</ele>
        <time>2025-06-12T08:42:08Z</time>
      </trkpt>
      <trkpt lat="44.66167" lon="6.17219">
        <ele>1174.2</ele>
        <time>2025-06-12T08:42:09Z</time>
      </trkpt>
      <trkpt lat="44.6617" lon="6.17225">
        <ele>1175</ele>
        <time>2025-06-12T08:42:11Z</time>
      </trkpt>
      <trkpt lat="44.66172" lon="6.17227">
        <ele>1175.2</ele>
        <time>2025-06-12T08:42:12Z</time>
      </trkpt>
      <trkpt lat="44.66174" lon="6.1723">
        <ele>1175.4</ele>
        <time>2025-06-12T08:42:13Z</time>
      </trkpt>
      <trkpt lat="44.66175" lon="6.17233">
        <ele>1175.6</ele>
        <time>2025-06-12T08:42:14Z</time>
      </trkpt>
      <trkpt lat="44.66176" lon="6.17235">
        <ele>1175.8</ele>
        <time>2025-06-12T08:42:15Z</time>
      </trkpt>
      <trkpt lat="44.66178" lon="6.17238">
        <ele>1176</ele>
        <time>2025-06-12T08:42:16Z</time>
      </trkpt>
      <trkpt lat="44.66179" lon="6.17241">
        <ele>1176</ele>
        <time>2025-06-12T08:42:17Z</time>
      </trkpt>
      <trkpt lat="44.66181" lon="6.17244">
        <ele>1176</ele>
        <time>2025-06-12T08:42:18Z</time>
      </trkpt>
      <trkpt lat="44.66182" lon="6.17247">
        <ele>1176.2</ele>
        <time>2025-06-12T08:42:19Z</time>
      </trkpt>
      <trkpt lat="44.66183" lon="6.1725">
        <ele>1176.4</ele>
        <time>2025-06-12T08:42:20Z</time>
      </trkpt>
      <trkpt lat="44.66184" lon="6.17252">
        <ele>1176.6</ele>
        <time>2025-06-12T08:42:21Z</time>
      </trkpt>
      <trkpt lat="44.66185" lon="6.17256">
        <ele>1176.8</ele>
        <time>2025-06-12T08:42:22Z</time>
      </trkpt>
      <trkpt lat="44.66186" lon="6.17258">
        <ele>1177</ele>
        <time>2025-06-12T08:42:23Z</time>
      </trkpt>
      <trkpt lat="44.66188" lon="6.17261">
        <ele>1177.2</ele>
        <time>2025-06-12T08:42:24Z</time>
      </trkpt>
      <trkpt lat="44.66189" lon="6.17264">
        <ele>1177.4</ele>
        <time>2025-06-12T08:42:25Z</time>
      </trkpt>
      <trkpt lat="44.6619" lon="6.17267">
        <ele>1177.6</ele>
        <time>2025-06-12T08:42:26Z</time>
      </trkpt>
      <trkpt lat="44.66192" lon="6.17273">
        <ele>1178</ele>
        <time>2025-06-12T08:42:28Z</time>
      </trkpt>
      <trkpt lat="44.66195" lon="6.17279">
        <ele>1178.2</ele>
        <time>2025-06-12T08:42:30Z</time>
      </trkpt>
      <trkpt lat="44.66195" lon="6.17282">
        <ele>1178.6</ele>
        <time>2025-06-12T08:42:31Z</time>
      </trkpt>
      <trkpt lat="44.66196" lon="6.17285">
        <ele>1178.8</ele>
        <time>2025-06-12T08:42:32Z</time>
      </trkpt>
      <trkpt lat="44.66197" lon="6.17288">
        <ele>1179</ele>
        <time>2025-06-12T08:42:33Z</time>
      </trkpt>
      <trkpt lat="44.66199" lon="6.17291">
        <ele>1179.2</ele>
        <time>2025-06-12T08:42:34Z</time>
      </trkpt>
      <trkpt lat="44.662" lon="6.17294">
        <ele>1179.6</ele>
        <time>2025-06-12T08:42:35Z</time>
      </trkpt>
      <trkpt lat="44.66201" lon="6.17297">
        <ele>1180</ele>
        <time>2025-06-12T08:42:36Z</time>
      </trkpt>
      <trkpt lat="44.66202" lon="6.173">
        <ele>1180.4</ele>
        <time>2025-06-12T08:42:37Z</time>
      </trkpt>
      <trkpt lat="44.66203" lon="6.17303">
        <ele>1180.8</ele>
        <time>2025-06-12T08:42:38Z</time>
      </trkpt>
      <trkpt lat="44.66204" lon="6.17306">
        <ele>1181</ele>
        <time>2025-06-12T08:42:39Z</time>
      </trkpt>
      <trkpt lat="44.66205" lon="6.17309">
        <ele>1181.2</ele>
        <time>2025-06-12T08:42:40Z</time>
      </trkpt>
      <trkpt lat="44.66206" lon="6.17312">
        <ele>1181.4</ele>
        <time>2025-06-12T08:42:41Z</time>
      </trkpt>
      <trkpt lat="44.66207" lon="6.17315">
        <ele>1181.6</ele>
        <time>2025-06-12T08:42:42Z</time>
      </trkpt>
      <trkpt lat="44.66208" lon="6.17318">
        <ele>1181.8</ele>
        <time>2025-06-12T08:42:43Z</time>
      </trkpt>
      <trkpt lat="44.66209" lon="6.17321">
        <ele>1182</ele>
        <time>2025-06-12T08:42:44Z</time>
      </trkpt>
      <trkpt lat="44.66211" lon="6.17324">
        <ele>1182.2</ele>
        <time>2025-06-12T08:42:45Z</time>
      </trkpt>
      <trkpt lat="44.66212" lon="6.17327">
        <ele>1182.4</ele>
        <time>2025-06-12T08:42:46Z</time>
      </trkpt>
      <trkpt lat="44.66213" lon="6.17329">
        <ele>1182.6</ele>
        <time>2025-06-12T08:42:47Z</time>
      </trkpt>
      <trkpt lat="44.66214" lon="6.17332">
        <ele>1183</ele>
        <time>2025-06-12T08:42:48Z</time>
      </trkpt>
      <trkpt lat="44.66215" lon="6.17335">
        <ele>1183.2</ele>
        <time>2025-06-12T08:42:49Z</time>
      </trkpt>
      <trkpt lat="44.66217" lon="6.17338">
        <ele>1183.4</ele>
        <time>2025-06-12T08:42:50Z</time>
      </trkpt>
      <trkpt lat="44.66218" lon="6.17341">
        <ele>1183.6</ele>
        <time>2025-06-12T08:42:51Z</time>
      </trkpt>
      <trkpt lat="44.66219" lon="6.17344">
        <ele>1183.8</ele>
        <time>2025-06-12T08:42:52Z</time>
      </trkpt>
      <trkpt lat="44.6622" lon="6.17347">
        <ele>1184</ele>
        <time>2025-06-12T08:42:53Z</time>
      </trkpt>
      <trkpt lat="44.66222" lon="6.1735">
        <ele>1184.2</ele>
        <time>2025-06-12T08:42:54Z</time>
      </trkpt>
      <trkpt lat="44.66223" lon="6.17353">
        <ele>1184.4</ele>
        <time>2025-06-12T08:42:55Z</time>
      </trkpt>
      <trkpt lat="44.66225" lon="6.17356">
        <ele>1184.6</ele>
        <time>2025-06-12T08:42:56Z</time>
      </trkpt>
      <trkpt lat="44.66226" lon="6.17359">
        <ele>1184.8</ele>
        <time>2025-06-12T08:42:57Z</time>
      </trkpt>
      <trkpt lat="44.66228" lon="6.17361">
        <ele>1185</ele>
        <time>2025-06-12T08:42:58Z</time>
      </trkpt>
      <trkpt lat="44.66229" lon="6.17364">
        <ele>1185.2</ele>
        <time>2025-06-12T08:42:59Z</time>
      </trkpt>
      <trkpt lat="44.66231" lon="6.17367">
        <ele>1185.4</ele>
        <time>2025-06-12T08:43:00Z</time>
      </trkpt>
      <trkpt lat="44.66232" lon="6.1737">
        <ele>1185.6</ele>
        <time>2025-06-12T08:43:01Z</time>
      </trkpt>
      <trkpt lat="44.66234" lon="6.17372">
        <ele>1185.6</ele>
        <time>2025-06-12T08:43:02Z</time>
      </trkpt>
      <trkpt lat="44.66236" lon="6.17375">
        <ele>1185.8</ele>
        <time>2025-06-12T08:43:03Z</time>
      </trkpt>
      <trkpt lat="44.66237" lon="6.17377">
        <ele>1186.2</ele>
        <time>2025-06-12T08:43:04Z</time>
      </trkpt>
      <trkpt lat="44.66239" lon="6.1738">
        <ele>1186.6</ele>
        <time>2025-06-12T08:43:05Z</time>
      </trkpt>
      <trkpt lat="44.66241" lon="6.17382">
        <ele>1186.8</ele>
        <time>2025-06-12T08:43:06Z</time>
      </trkpt>
      <trkpt lat="44.66242" lon="6.17385">
        <ele>1186.8</ele>
        <time>2025-06-12T08:43:07Z</time>
      </trkpt>
      <trkpt lat="44.66244" lon="6.17387">
        <ele>1187</ele>
        <time>2025-06-12T08:43:08Z</time>
      </trkpt>
      <trkpt lat="44.66246" lon="6.1739">
        <ele>1187.2</ele>
        <time>2025-06-12T08:43:09Z</time>
      </trkpt>
      <trkpt lat="44.66248" lon="6.17392">
        <ele>1187.6</ele>
        <time>2025-06-12T08:43:10Z</time>
      </trkpt>
      <trkpt lat="44.6625" lon="6.17394">
        <ele>1187.8</ele>
        <time>2025-06-12T08:43:11Z</time>
      </trkpt>
      <trkpt lat="44.66251" lon="6.17396">
        <ele>1188.2</ele>
        <time>2025-06-12T08:43:12Z</time>
      </trkpt>
      <trkpt lat="44.66253" lon="6.17398">
        <ele>1188.4</ele>
        <time>2025-06-12T08:43:13Z</time>
      </trkpt>
      <trkpt lat="44.66255" lon="6.17401">
        <ele>1188.6</ele>
        <time>2025-06-12T08:43:14Z</time>
      </trkpt>
      <trkpt lat="44.66257" lon="6.17403">
        <ele>1188.8</ele>
        <time>2025-06-12T08:43:15Z</time>
      </trkpt>
      <trkpt lat="44.66259" lon="6.17405">
        <ele>1189</ele>
        <time>2025-06-12T08:43:16Z</time>
      </trkpt>
      <trkpt lat="44.6626" lon="6.17407">
        <ele>1189.2</ele>
        <time>2025-06-12T08:43:17Z</time>
      </trkpt>
      <trkpt lat="44.66262" lon="6.17409">
        <ele>1189.4</ele>
        <time>2025-06-12T08:43:18Z</time>
      </trkpt>
      <trkpt lat="44.66264" lon="6.17412">
        <ele>1189.4</ele>
        <time>2025-06-12T08:43:19Z</time>
      </trkpt>
      <trkpt lat="44.66267" lon="6.17416">
        <ele>1189.8</ele>
        <time>2025-06-12T08:43:21Z</time>
      </trkpt>
      <trkpt lat="44.66269" lon="6.17418">
        <ele>1190</ele>
        <time>2025-06-12T08:43:22Z</time>
      </trkpt>
      <trkpt lat="44.66271" lon="6.17421">
        <ele>1190.2</ele>
        <time>2025-06-12T08:43:23Z</time>
      </trkpt>
      <trkpt lat="44.66272" lon="6.17423">
        <ele>1190.2</ele>
        <time>2025-06-12T08:43:24Z</time>
      </trkpt>
      <trkpt lat="44.66274" lon="6.17426">
        <ele>1190.4</ele>
        <time>2025-06-12T08:43:25Z</time>
      </trkpt>
      <trkpt lat="44.66276" lon="6.17428">
        <ele>1190.6</ele>
        <time>2025-06-12T08:43:26Z</time>
      </trkpt>
      <trkpt lat="44.66278" lon="6.1743">
        <ele>1190.8</ele>
        <time>2025-06-12T08:43:27Z</time>
      </trkpt>
      <trkpt lat="44.6628" lon="6.17432">
        <ele>1191</ele>
        <time>2025-06-12T08:43:28Z</time>
      </trkpt>
      <trkpt lat="44.66282" lon="6.17434">
        <ele>1191</ele>
        <time>2025-06-12T08:43:29Z</time>
      </trkpt>
      <trkpt lat="44.66284" lon="6.17437">
        <ele>1191.2</ele>
        <time>2025-06-12T08:43:30Z</time>
      </trkpt>
      <trkpt lat="44.66285" lon="6.17439">
        <ele>1191.4</ele>
        <time>2025-06-12T08:43:31Z</time>
      </trkpt>
      <trkpt lat="44.66287" lon="6.17442">
        <ele>1192</ele>
        <time>2025-06-12T08:43:32Z</time>
      </trkpt>
      <trkpt lat="44.66289" lon="6.17444">
        <ele>1192.2</ele>
        <time>2025-06-12T08:43:33Z</time>
      </trkpt>
      <trkpt lat="44.66291" lon="6.17447">
        <ele>1192.6</ele>
        <time>2025-06-12T08:43:34Z</time>
      </trkpt>
      <trkpt lat="44.66292" lon="6.17449">
        <ele>1192.8</ele>
        <time>2025-06-12T08:43:35Z</time>
      </trkpt>
      <trkpt lat="44.66294" lon="6.17452">
        <ele>1193</ele>
        <time>2025-06-12T08:43:36Z</time>
      </trkpt>
      <trkpt lat="44.66297" lon="6.17457">
        <ele>1193.4</ele>
        <time>2025-06-12T08:43:38Z</time>
      </trkpt>
      <trkpt lat="44.66301" lon="6.17462">
        <ele>1193.8</ele>
        <time>2025-06-12T08:43:40Z</time>
      </trkpt>
      <trkpt lat="44.66302" lon="6.17464">
        <ele>1194</ele>
        <time>2025-06-12T08:43:41Z</time>
      </trkpt>
      <trkpt lat="44.66304" lon="6.17467">
        <ele>1194.2</ele>
        <time>2025-06-12T08:43:42Z</time>
      </trkpt>
      <trkpt lat="44.66305" lon="6.1747">
        <ele>1194.4</ele>
        <time>2025-06-12T08:43:43Z</time>
      </trkpt>
      <trkpt lat="44.66307" lon="6.17472">
        <ele>1194.4</ele>
        <time>2025-06-12T08:43:44Z</time>
      </trkpt>
      <trkpt lat="44.66308" lon="6.17475">
        <ele>1194.6</ele>
        <time>2025-06-12T08:43:45Z</time>
      </trkpt>
      <trkpt lat="44.6631" lon="6.17478">
        <ele>1194.8</ele>
        <time>2025-06-12T08:43:46Z</time>
      </trkpt>
      <trkpt lat="44.66311" lon="6.17481">
        <ele>1195</ele>
        <time>2025-06-12T08:43:47Z</time>
      </trkpt>
      <trkpt lat="44.66312" lon="6.17484">
        <ele>1195.2</ele>
        <time>2025-06-12T08:43:48Z</time>
      </trkpt>
      <trkpt lat="44.66314" lon="6.17487">
        <ele>1195.2</ele>
        <time>2025-06-12T08:43:49Z</time>
      </trkpt>
      <trkpt lat="44.66315" lon="6.1749">
        <ele>1195.4</ele>
        <time>2025-06-12T08:43:50Z</time>
      </trkpt>
      <trkpt lat="44.66317" lon="6.17493">
        <ele>1195.6</ele>
        <time>2025-06-12T08:43:51Z</time>
      </trkpt>
      <trkpt lat="44.66318" lon="6.17496">
        <ele>1195.8</ele>
        <time>2025-06-12T08:43:52Z</time>
      </trkpt>
      <trkpt lat="44.66319" lon="6.17499">
        <ele>1196.2</ele>
        <time>2025-06-12T08:43:53Z</time>
      </trkpt>
      <trkpt lat="44.66321" lon="6.17505">
        <ele>1196.6</ele>
        <time>2025-06-12T08:43:55Z</time>
      </trkpt>
      <trkpt lat="44.66323" lon="6.17511">
        <ele>1197</ele>
        <time>2025-06-12T08:43:57Z</time>
      </trkpt>
      <trkpt lat="44.66324" lon="6.17515">
        <ele>1197.2</ele>
        <time>2025-06-12T08:43:58Z</time>
      </trkpt>
      <trkpt lat="44.66325" lon="6.17518">
        <ele>1197.2</ele>
        <time>2025-06-12T08:43:59Z</time>
      </trkpt>
      <trkpt lat="44.66326" lon="6.17521">
        <ele>1197.4</ele>
        <time>2025-06-12T08:44:00Z</time>
      </trkpt>
      <trkpt lat="44.66327" lon="6.17524">
        <ele>1197.6</ele>
        <time>2025-06-12T08:44:01Z</time>
      </trkpt>
      <trkpt lat="44.66328" lon="6.17527">
        <ele>1197.8</ele>
        <time>2025-06-12T08:44:02Z</time>
      </trkpt>
      <trkpt lat="44.66329" lon="6.1753">
        <ele>1198</ele>
        <time>2025-06-12T08:44:03Z</time>
      </trkpt>
      <trkpt lat="44.66329" lon="6.17534">
        <ele>1198.2</ele>
        <time>2025-06-12T08:44:04Z</time>
      </trkpt>
      <trkpt lat="44.6633" lon="6.17537">
        <ele>1198.6</ele>
        <time>2025-06-12T08:44:05Z</time>
      </trkpt>
      <trkpt lat="44.66331" lon="6.1754">
        <ele>1198.8</ele>
        <time>2025-06-12T08:44:06Z</time>
      </trkpt>
      <trkpt lat="44.66332" lon="6.17543">
        <ele>1199</ele>
        <time>2025-06-12T08:44:07Z</time>
      </trkpt>
      <trkpt lat="44.66333" lon="6.17546">
        <ele>1199.2</ele>
        <time>2025-06-12T08:44:08Z</time>
      </trkpt>
      <trkpt lat="44.66334" lon="6.17549">
        <ele>1199.4</ele>
        <time>2025-06-12T08:44:09Z</time>
      </trkpt>
      <trkpt lat="44.66335" lon="6.17552">
        <ele>1199.6</ele>
        <time>2025-06-12T08:44:10Z</time>
      </trkpt>
      <trkpt lat="44.66336" lon="6.17555">
        <ele>1199.8</ele>
        <time>2025-06-12T08:44:11Z</time>
      </trkpt>
      <trkpt lat="44.66336" lon="6.17559">
        <ele>1200</ele>
        <time>2025-06-12T08:44:12Z</time>
      </trkpt>
      <trkpt lat="44.66338" lon="6.17565">
        <ele>1200.4</ele>
        <time>2025-06-12T08:44:14Z</time>
      </trkpt>
      <trkpt lat="44.66339" lon="6.17571">
        <ele>1201</ele>
        <time>2025-06-12T08:44:16Z</time>
      </trkpt>
      <trkpt lat="44.66341" lon="6.17577">
        <ele>1201.4</ele>
        <time>2025-06-12T08:44:18Z</time>
      </trkpt>
      <trkpt lat="44.66342" lon="6.1758">
        <ele>1201.6</ele>
        <time>2025-06-12T08:44:19Z</time>
      </trkpt>
      <trkpt lat="44.66343" lon="6.17583">
        <ele>1201.8</ele>
        <time>2025-06-12T08:44:20Z</time>
      </trkpt>
      <trkpt lat="44.66344" lon="6.17586">
        <ele>1202</ele>
        <time>2025-06-12T08:44:21Z</time>
      </trkpt>
      <trkpt lat="44.66345" lon="6.17589">
        <ele>1202.2</ele>
        <time>2025-06-12T08:44:22Z</time>
      </trkpt>
      <trkpt lat="44.66346" lon="6.17592">
        <ele>1202.2</ele>
        <time>2025-06-12T08:44:23Z</time>
      </trkpt>
      <trkpt lat="44.66348" lon="6.17595">
        <ele>1202.4</ele>
        <time>2025-06-12T08:44:24Z</time>
      </trkpt>
      <trkpt lat="44.66349" lon="6.17599">
        <ele>1202.6</ele>
        <time>2025-06-12T08:44:25Z</time>
      </trkpt>
      <trkpt lat="44.6635" lon="6.17602">
        <ele>1202.8</ele>
        <time>2025-06-12T08:44:26Z</time>
      </trkpt>
      <trkpt lat="44.66352" lon="6.17605">
        <ele>1203</ele>
        <time>2025-06-12T08:44:27Z</time>
      </trkpt>
      <trkpt lat="44.66355" lon="6.1761">
        <ele>1203.4</ele>
        <time>2025-06-12T08:44:29Z</time>
      </trkpt>
      <trkpt lat="44.66357" lon="6.17613">
        <ele>1203.8</ele>
        <time>2025-06-12T08:44:30Z</time>
      </trkpt>
      <trkpt lat="44.66359" lon="6.17615">
        <ele>1204</ele>
        <time>2025-06-12T08:44:31Z</time>
      </trkpt>
      <trkpt lat="44.66363" lon="6.17619">
        <ele>1204.4</ele>
        <time>2025-06-12T08:44:33Z</time>
      </trkpt>
      <trkpt lat="44.66365" lon="6.17621">
        <ele>1204.4</ele>
        <time>2025-06-12T08:44:34Z</time>
      </trkpt>
      <trkpt lat="44.66368" lon="6.17621">
        <ele>1204.6</ele>
        <time>2025-06-12T08:44:35Z</time>
      </trkpt>
      <trkpt lat="44.6637" lon="6.17621">
        <ele>1204.8</ele>
        <time>2025-06-12T08:44:36Z</time>
      </trkpt>
      <trkpt lat="44.66373" lon="6.17621">
        <ele>1205</ele>
        <time>2025-06-12T08:44:37Z</time>
      </trkpt>
      <trkpt lat="44.66375" lon="6.1762">
        <ele>1205</ele>
        <time>2025-06-12T08:44:38Z</time>
      </trkpt>
      <trkpt lat="44.66378" lon="6.17619">
        <ele>1205.2</ele>
        <time>2025-06-12T08:44:39Z</time>
      </trkpt>
      <trkpt lat="44.6638" lon="6.17617">
        <ele>1205.4</ele>
        <time>2025-06-12T08:44:40Z</time>
      </trkpt>
      <trkpt lat="44.66382" lon="6.17615">
        <ele>1205.6</ele>
        <time>2025-06-12T08:44:41Z</time>
      </trkpt>
      <trkpt lat="44.66383" lon="6.17612">
        <ele>1205.6</ele>
        <time>2025-06-12T08:44:42Z</time>
      </trkpt>
      <trkpt lat="44.66385" lon="6.17609">
        <ele>1205.8</ele>
        <time>2025-06-12T08:44:43Z</time>
      </trkpt>
      <trkpt lat="44.66386" lon="6.17606">
        <ele>1206</ele>
        <time>2025-06-12T08:44:44Z</time>
      </trkpt>
      <trkpt lat="44.66388" lon="6.17599">
        <ele>1206.4</ele>
        <time>2025-06-12T08:44:46Z</time>
      </trkpt>
      <trkpt lat="44.6639" lon="6.17593">
        <ele>1206.6</ele>
        <time>2025-06-12T08:44:48Z</time>
      </trkpt>
      <trkpt lat="44.66391" lon="6.17586">
        <ele>1207</ele>
        <time>2025-06-12T08:44:50Z</time>
      </trkpt>
      <trkpt lat="44.66391" lon="6.17582">
        <ele>1207.2</ele>
        <time>2025-06-12T08:44:51Z</time>
      </trkpt>
      <trkpt lat="44.66391" lon="6.17578">
        <ele>1207.2</ele>
        <time>2025-06-12T08:44:52Z</time>
      </trkpt>
      <trkpt lat="44.66391" lon="6.17575">
        <ele>1207.2</ele>
        <time>2025-06-12T08:44:53Z</time>
      </trkpt>
      <trkpt lat="44.66391" lon="6.17571">
        <ele>1207.4</ele>
        <time>2025-06-12T08:44:54Z</time>
      </trkpt>
      <trkpt lat="44.66391" lon="6.17567">
        <ele>1207.8</ele>
        <time>2025-06-12T08:44:55Z</time>
      </trkpt>
      <trkpt lat="44.6639" lon="6.17564">
        <ele>1207.8</ele>
        <time>2025-06-12T08:44:56Z</time>
      </trkpt>
      <trkpt lat="44.6639" lon="6.1756">
        <ele>1207.8</ele>
        <time>2025-06-12T08:44:57Z</time>
      </trkpt>
      <trkpt lat="44.6639" lon="6.17556">
        <ele>1208</ele>
        <time>2025-06-12T08:44:58Z</time>
      </trkpt>
      <trkpt lat="44.6639" lon="6.17553">
        <ele>1208.4</ele>
        <time>2025-06-12T08:44:59Z</time>
      </trkpt>
      <trkpt lat="44.6639" lon="6.17549">
        <ele>1208.6</ele>
        <time>2025-06-12T08:45:00Z</time>
      </trkpt>
      <trkpt lat="44.66389" lon="6.17545">
        <ele>1208.8</ele>
        <time>2025-06-12T08:45:01Z</time>
      </trkpt>
      <trkpt lat="44.66389" lon="6.17541">
        <ele>1209</ele>
        <time>2025-06-12T08:45:02Z</time>
      </trkpt>
      <trkpt lat="44.66389" lon="6.17538">
        <ele>1209.2</ele>
        <time>2025-06-12T08:45:03Z</time>
      </trkpt>
      <trkpt lat="44.66387" lon="6.17531">
        <ele>1209.6</ele>
        <time>2025-06-12T08:45:05Z</time>
      </trkpt>
      <trkpt lat="44.66386" lon="6.17524">
        <ele>1210.2</ele>
        <time>2025-06-12T08:45:07Z</time>
      </trkpt>
      <trkpt lat="44.66385" lon="6.1752">
        <ele>1210.4</ele>
        <time>2025-06-12T08:45:08Z</time>
      </trkpt>
      <trkpt lat="44.66385" lon="6.17517">
        <ele>1210.4</ele>
        <time>2025-06-12T08:45:09Z</time>
      </trkpt>
      <trkpt lat="44.66385" lon="6.17513">
        <ele>1210.6</ele>
        <time>2025-06-12T08:45:10Z</time>
      </trkpt>
      <trkpt lat="44.66385" lon="6.1751">
        <ele>1210.8</ele>
        <time>2025-06-12T08:45:11Z</time>
      </trkpt>
      <trkpt lat="44.66385" lon="6.17506">
        <ele>1210.8</ele>
        <time>2025-06-12T08:45:12Z</time>
      </trkpt>
      <trkpt lat="44.66385" lon="6.17503">
        <ele>1211</ele>
        <time>2025-06-12T08:45:13Z</time>
      </trkpt>
      <trkpt lat="44.66384" lon="6.17499">
        <ele>1211</ele>
        <time>2025-06-12T08:45:14Z</time>
      </trkpt>
      <trkpt lat="44.66384" lon="6.17496">
        <ele>1211.2</ele>
        <time>2025-06-12T08:45:15Z</time>
      </trkpt>
      <trkpt lat="44.66383" lon="6.17493">
        <ele>1211.4</ele>
        <time>2025-06-12T08:45:16Z</time>
      </trkpt>
      <trkpt lat="44.66383" lon="6.17489">
        <ele>1211.4</ele>
        <time>2025-06-12T08:45:17Z</time>
      </trkpt>
      <trkpt lat="44.66383" lon="6.17486">
        <ele>1211.6</ele>
        <time>2025-06-12T08:45:18Z</time>
      </trkpt>
      <trkpt lat="44.66383" lon="6.17479">
        <ele>1212</ele>
        <time>2025-06-12T08:45:20Z</time>
      </trkpt>
      <trkpt lat="44.66383" lon="6.17472">
        <ele>1212.2</ele>
        <time>2025-06-12T08:45:22Z</time>
      </trkpt>
      <trkpt lat="44.66382" lon="6.17469">
        <ele>1212.6</ele>
        <time>2025-06-12T08:45:23Z</time>
      </trkpt>
      <trkpt lat="44.66382" lon="6.17466">
        <ele>1212.8</ele>
        <time>2025-06-12T08:45:24Z</time>
      </trkpt>
      <trkpt lat="44.66382" lon="6.17462">
        <ele>1213</ele>
        <time>2025-06-12T08:45:25Z</time>
      </trkpt>
      <trkpt lat="44.66382" lon="6.17459">
        <ele>1213.2</ele>
        <time>2025-06-12T08:45:26Z</time>
      </trkpt>
      <trkpt lat="44.66381" lon="6.17456">
        <ele>1213.6</ele>
        <time>2025-06-12T08:45:27Z</time>
      </trkpt>
      <trkpt lat="44.66381" lon="6.17452">
        <ele>1213.8</ele>
        <time>2025-06-12T08:45:28Z</time>
      </trkpt>
      <trkpt lat="44.66381" lon="6.17449">
        <ele>1213.8</ele>
        <time>2025-06-12T08:45:29Z</time>
      </trkpt>
      <trkpt lat="44.6638" lon="6.17445">
        <ele>1214</ele>
        <time>2025-06-12T08:45:30Z</time>
      </trkpt>
      <trkpt lat="44.6638" lon="6.17442">
        <ele>1214.4</ele>
        <time>2025-06-12T08:45:31Z</time>
      </trkpt>
      <trkpt lat="44.66379" lon="6.17435">
        <ele>1214.6</ele>
        <time>2025-06-12T08:45:33Z</time>
      </trkpt>
      <trkpt lat="44.66378" lon="6.17428">
        <ele>1215</ele>
        <time>2025-06-12T08:45:35Z</time>
      </trkpt>
      <trkpt lat="44.66378" lon="6.17425">
        <ele>1215.2</ele>
        <time>2025-06-12T08:45:36Z</time>
      </trkpt>
      <trkpt lat="44.66379" lon="6.17421">
        <ele>1215.4</ele>
        <time>2025-06-12T08:45:37Z</time>
      </trkpt>
      <trkpt lat="44.66379" lon="6.17418">
        <ele>1215.6</ele>
        <time>2025-06-12T08:45:38Z</time>
      </trkpt>
      <trkpt lat="44.66378" lon="6.17414">
        <ele>1215.8</ele>
        <time>2025-06-12T08:45:39Z</time>
      </trkpt>
      <trkpt lat="44.66378" lon="6.17411">
        <ele>1215.8</ele>
        <time>2025-06-12T08:45:40Z</time>
      </trkpt>
      <trkpt lat="44.66378" lon="6.17407">
        <ele>1216.2</ele>
        <time>2025-06-12T08:45:41Z</time>
      </trkpt>
      <trkpt lat="44.66377" lon="6.17404">
        <ele>1216.2</ele>
        <time>2025-06-12T08:45:42Z</time>
      </trkpt>
      <trkpt lat="44.66377" lon="6.174">
        <ele>1216.4</ele>
        <time>2025-06-12T08:45:43Z</time>
      </trkpt>
      <trkpt lat="44.66376" lon="6.17397">
        <ele>1216.6</ele>
        <time>2025-06-12T08:45:44Z</time>
      </trkpt>
      <trkpt lat="44.66376" lon="6.17394">
        <ele>1216.8</ele>
        <time>2025-06-12T08:45:45Z</time>
      </trkpt>
      <trkpt lat="44.66375" lon="6.17391">
        <ele>1217</ele>
        <time>2025-06-12T08:45:46Z</time>
      </trkpt>
      <trkpt lat="44.66375" lon="6.17384">
        <ele>1217.4</ele>
        <time>2025-06-12T08:45:48Z</time>
      </trkpt>
      <trkpt lat="44.66374" lon="6.17377">
        <ele>1218</ele>
        <time>2025-06-12T08:45:50Z</time>
      </trkpt>
      <trkpt lat="44.66374" lon="6.17374">
        <ele>1218.4</ele>
        <time>2025-06-12T08:45:51Z</time>
      </trkpt>
      <trkpt lat="44.66374" lon="6.17371">
        <ele>1218.6</ele>
        <time>2025-06-12T08:45:52Z</time>
      </trkpt>
      <trkpt lat="44.66373" lon="6.17367">
        <ele>1218.8</ele>
        <time>2025-06-12T08:45:53Z</time>
      </trkpt>
      <trkpt lat="44.66373" lon="6.17364">
        <ele>1219</ele>
        <time>2025-06-12T08:45:54Z</time>
      </trkpt>
      <trkpt lat="44.66372" lon="6.17361">
        <ele>1219.2</ele>
        <time>2025-06-12T08:45:55Z</time>
      </trkpt>
      <trkpt lat="44.66372" lon="6.17358">
        <ele>1219.4</ele>
        <time>2025-06-12T08:45:56Z</time>
      </trkpt>
      <trkpt lat="44.66372" lon="6.17354">
        <ele>1219.6</ele>
        <time>2025-06-12T08:45:57Z</time>
      </trkpt>
      <trkpt lat="44.66371" lon="6.17351">
        <ele>1219.6</ele>
        <time>2025-06-12T08:45:58Z</time>
      </trkpt>
      <trkpt lat="44.66371" lon="6.17347">
        <ele>1219.8</ele>
        <time>2025-06-12T08:45:59Z</time>
      </trkpt>
      <trkpt lat="44.6637" lon="6.17341">
        <ele>1220.4</ele>
        <time>2025-06-12T08:46:01Z</time>
      </trkpt>
      <trkpt lat="44.6637" lon="6.17338">
        <ele>1220.6</ele>
        <time>2025-06-12T08:46:02Z</time>
      </trkpt>
      <trkpt lat="44.6637" lon="6.17334">
        <ele>1220.8</ele>
        <time>2025-06-12T08:46:03Z</time>
      </trkpt>
      <trkpt lat="44.6637" lon="6.17331">
        <ele>1220.8</ele>
        <time>2025-06-12T08:46:04Z</time>
      </trkpt>
      <trkpt lat="44.6637" lon="6.17328">
        <ele>1221</ele>
        <time>2025-06-12T08:46:05Z</time>
      </trkpt>
      <trkpt lat="44.66369" lon="6.17324">
        <ele>1221.2</ele>
        <time>2025-06-12T08:46:06Z</time>
      </trkpt>
      <trkpt lat="44.66369" lon="6.17321">
        <ele>1221.2</ele>
        <time>2025-06-12T08:46:07Z</time>
      </trkpt>
      <trkpt lat="44.66369" lon="6.17317">
        <ele>1221.4</ele>
        <time>2025-06-12T08:46:08Z</time>
      </trkpt>
      <trkpt lat="44.66369" lon="6.17313">
        <ele>1221.6</ele>
        <time>2025-06-12T08:46:09Z</time>
      </trkpt>
      <trkpt lat="44.66368" lon="6.1731">
        <ele>1222</ele>
        <time>2025-06-12T08:46:10Z</time>
      </trkpt>
      <trkpt lat="44.66368" lon="6.17307">
        <ele>1222.2</ele>
        <time>2025-06-12T08:46:11Z</time>
      </trkpt>
      <trkpt lat="44.66367" lon="6.17303">
        <ele>1222.4</ele>
        <time>2025-06-12T08:46:12Z</time>
      </trkpt>
      <trkpt lat="44.66367" lon="6.173">
        <ele>1222.6</ele>
        <time>2025-06-12T08:46:13Z</time>
      </trkpt>
      <trkpt lat="44.66367" lon="6.17296">
        <ele>1222.8</ele>
        <time>2025-06-12T08:46:14Z</time>
      </trkpt>
      <trkpt lat="44.66367" lon="6.17293">
        <ele>1223</ele>
        <time>2025-06-12T08:46:15Z</time>
      </trkpt>
      <trkpt lat="44.66366" lon="6.1729">
        <ele>1223.2</ele>
        <time>2025-06-12T08:46:16Z</time>
      </trkpt>
      <trkpt lat="44.66366" lon="6.17287">
        <ele>1223.4</ele>
        <time>2025-06-12T08:46:17Z</time>
      </trkpt>
      <trkpt lat="44.66366" lon="6.17283">
        <ele>1224</ele>
        <time>2025-06-12T08:46:18Z</time>
      </trkpt>
      <trkpt lat="44.66365" lon="6.17277">
        <ele>1224.4</ele>
        <time>2025-06-12T08:46:20Z</time>
      </trkpt>
      <trkpt lat="44.66365" lon="6.17274">
        <ele>1224.6</ele>
        <time>2025-06-12T08:46:21Z</time>
      </trkpt>
      <trkpt lat="44.66365" lon="6.1727">
        <ele>1224.6</ele>
        <time>2025-06-12T08:46:22Z</time>
      </trkpt>
      <trkpt lat="44.66365" lon="6.17264">
        <ele>1225</ele>
        <time>2025-06-12T08:46:24Z</time>
      </trkpt>
      <trkpt lat="44.66366" lon="6.17257">
        <ele>1225.4</ele>
        <time>2025-06-12T08:46:26Z</time>
      </trkpt>
      <trkpt lat="44.66366" lon="6.17253">
        <ele>1225.6</ele>
        <time>2025-06-12T08:46:27Z</time>
      </trkpt>
      <trkpt lat="44.66365" lon="6.1725">
        <ele>1225.8</ele>
        <time>2025-06-12T08:46:28Z</time>
      </trkpt>
      <trkpt lat="44.66365" lon="6.17246">
        <ele>1226.2</ele>
        <time>2025-06-12T08:46:29Z</time>
      </trkpt>
      <trkpt lat="44.66365" lon="6.17243">
        <ele>1226.4</ele>
        <time>2025-06-12T08:46:30Z</time>
      </trkpt>
      <trkpt lat="44.66365" lon="6.1724">
        <ele>1226.6</ele>
        <time>2025-06-12T08:46:31Z</time>
      </trkpt>
      <trkpt lat="44.66365" lon="6.17236">
        <ele>1226.8</ele>
        <time>2025-06-12T08:46:32Z</time>
      </trkpt>
      <trkpt lat="44.66365" lon="6.17233">
        <ele>1227.2</ele>
        <time>2025-06-12T08:46:33Z</time>
      </trkpt>
      <trkpt lat="44.66365" lon="6.1723">
        <ele>1227.4</ele>
        <time>2025-06-12T08:46:34Z</time>
      </trkpt>
      <trkpt lat="44.66365" lon="6.17227">
        <ele>1227.6</ele>
        <time>2025-06-12T08:46:35Z</time>
      </trkpt>
      <trkpt lat="44.66365" lon="6.17224">
        <ele>1227.6</ele>
        <time>2025-06-12T08:46:36Z</time>
      </trkpt>
      <trkpt lat="44.66365" lon="6.17221">
        <ele>1228</ele>
        <time>2025-06-12T08:46:37Z</time>
      </trkpt>
      <trkpt lat="44.66365" lon="6.17218">
        <ele>1228.2</ele>
        <time>2025-06-12T08:46:38Z</time>
      </trkpt>
      <trkpt lat="44.66366" lon="6.17211">
        <ele>1228.8</ele>
        <time>2025-06-12T08:46:40Z</time>
      </trkpt>
      <trkpt lat="44.66366" lon="6.17208">
        <ele>1229</ele>
        <time>2025-06-12T08:46:41Z</time>
      </trkpt>
      <trkpt lat="44.66366" lon="6.17205">
        <ele>1229.2</ele>
        <time>2025-06-12T08:46:42Z</time>
      </trkpt>
      <trkpt lat="44.66366" lon="6.17202">
        <ele>1229.4</ele>
        <time>2025-06-12T08:46:43Z</time>
      </trkpt>
      <trkpt lat="44.66366" lon="6.172">
        <ele>1229.6</ele>
        <time>2025-06-12T08:46:44Z</time>
      </trkpt>
      <trkpt lat="44.66367" lon="6.17197">
        <ele>1229.6</ele>
        <time>2025-06-12T08:46:45Z</time>
      </trkpt>
      <trkpt lat="44.66367" lon="6.17191">
        <ele>1229.8</ele>
        <time>2025-06-12T08:46:47Z</time>
      </trkpt>
      <trkpt lat="44.66367" lon="6.17188">
        <ele>1230</ele>
        <time>2025-06-12T08:46:48Z</time>
      </trkpt>
      <trkpt lat="44.66368" lon="6.17185">
        <ele>1230.4</ele>
        <time>2025-06-12T08:46:49Z</time>
      </trkpt>
      <trkpt lat="44.66368" lon="6.17181">
        <ele>1230.4</ele>
        <time>2025-06-12T08:46:50Z</time>
      </trkpt>
      <trkpt lat="44.66368" lon="6.17178">
        <ele>1230.8</ele>
        <time>2025-06-12T08:46:51Z</time>
      </trkpt>
      <trkpt lat="44.66369" lon="6.17175">
        <ele>1231</ele>
        <time>2025-06-12T08:46:52Z</time>
      </trkpt>
      <trkpt lat="44.66369" lon="6.17169">
        <ele>1231.6</ele>
        <time>2025-06-12T08:46:54Z</time>
      </trkpt>
      <trkpt lat="44.66369" lon="6.17166">
        <ele>1231.6</ele>
        <time>2025-06-12T08:46:55Z</time>
      </trkpt>
      <trkpt lat="44.6637" lon="6.17162">
        <ele>1232</ele>
        <time>2025-06-12T08:46:56Z</time>
      </trkpt>
      <trkpt lat="44.6637" lon="6.17159">
        <ele>1232.2</ele>
        <time>2025-06-12T08:46:57Z</time>
      </trkpt>
      <trkpt lat="44.6637" lon="6.17156">
        <ele>1232.4</ele>
        <time>2025-06-12T08:46:58Z</time>
      </trkpt>
      <trkpt lat="44.6637" lon="6.17152">
        <ele>1232.6</ele>
        <time>2025-06-12T08:46:59Z</time>
      </trkpt>
      <trkpt lat="44.6637" lon="6.17149">
        <ele>1233</ele>
        <time>2025-06-12T08:47:00Z</time>
      </trkpt>
      <trkpt lat="44.66369" lon="6.17146">
        <ele>1233.4</ele>
        <time>2025-06-12T08:47:01Z</time>
      </trkpt>
      <trkpt lat="44.66369" lon="6.17139">
        <ele>1233.6</ele>
        <time>2025-06-12T08:47:03Z</time>
      </trkpt>
      <trkpt lat="44.66369" lon="6.17132">
        <ele>1233.8</ele>
        <time>2025-06-12T08:47:05Z</time>
      </trkpt>
      <trkpt lat="44.66368" lon="6.17129">
        <ele>1234</ele>
        <time>2025-06-12T08:47:06Z</time>
      </trkpt>
      <trkpt lat="44.66368" lon="6.17126">
        <ele>1234.2</ele>
        <time>2025-06-12T08:47:07Z</time>
      </trkpt>
      <trkpt lat="44.66368" lon="6.17123">
        <ele>1234.2</ele>
        <time>2025-06-12T08:47:08Z</time>
      </trkpt>
      <trkpt lat="44.66367" lon="6.17119">
        <ele>1234.4</ele>
        <time>2025-06-12T08:47:09Z</time>
      </trkpt>
      <trkpt lat="44.66366" lon="6.17116">
        <ele>1234.6</ele>
        <time>2025-06-12T08:47:10Z</time>
      </trkpt>
      <trkpt lat="44.66365" lon="6.17113">
        <ele>1234.8</ele>
        <time>2025-06-12T08:47:11Z</time>
      </trkpt>
      <trkpt lat="44.66364" lon="6.1711">
        <ele>1234.8</ele>
        <time>2025-06-12T08:47:12Z</time>
      </trkpt>
      <trkpt lat="44.66363" lon="6.17107">
        <ele>1235</ele>
        <time>2025-06-12T08:47:13Z</time>
      </trkpt>
      <trkpt lat="44.66361" lon="6.17105">
        <ele>1235.4</ele>
        <time>2025-06-12T08:47:14Z</time>
      </trkpt>
      <trkpt lat="44.6636" lon="6.17102">
        <ele>1235.8</ele>
        <time>2025-06-12T08:47:15Z</time>
      </trkpt>
      <trkpt lat="44.66359" lon="6.17099">
        <ele>1236</ele>
        <time>2025-06-12T08:47:16Z</time>
      </trkpt>
      <trkpt lat="44.66358" lon="6.17096">
        <ele>1236.4</ele>
        <time>2025-06-12T08:47:17Z</time>
      </trkpt>
      <trkpt lat="44.66356" lon="6.17093">
        <ele>1236.6</ele>
        <time>2025-06-12T08:47:18Z</time>
      </trkpt>
      <trkpt lat="44.66353" lon="6.17088">
        <ele>1237.2</ele>
        <time>2025-06-12T08:47:20Z</time>
      </trkpt>
      <trkpt lat="44.6635" lon="6.17083">
        <ele>1237.8</ele>
        <time>2025-06-12T08:47:22Z</time>
      </trkpt>
      <trkpt lat="44.66346" lon="6.17078">
        <ele>1238</ele>
        <time>2025-06-12T08:47:24Z</time>
      </trkpt>
      <trkpt lat="44.66343" lon="6.17073">
        <ele>1238.6</ele>
        <time>2025-06-12T08:47:26Z</time>
      </trkpt>
      <trkpt lat="44.66341" lon="6.17071">
        <ele>1238.8</ele>
        <time>2025-06-12T08:47:27Z</time>
      </trkpt>
      <trkpt lat="44.66339" lon="6.17069">
        <ele>1239</ele>
        <time>2025-06-12T08:47:28Z</time>
      </trkpt>
      <trkpt lat="44.66336" lon="6.17066">
        <ele>1239.2</ele>
        <time>2025-06-12T08:47:30Z</time>
      </trkpt>
      <trkpt lat="44.66331" lon="6.17062">
        <ele>1239.6</ele>
        <time>2025-06-12T08:47:32Z</time>
      </trkpt>
      <trkpt lat="44.66329" lon="6.17061">
        <ele>1239.6</ele>
        <time>2025-06-12T08:47:33Z</time>
      </trkpt>
      <trkpt lat="44.66327" lon="6.17059">
        <ele>1239.8</ele>
        <time>2025-06-12T08:47:34Z</time>
      </trkpt>
      <trkpt lat="44.66323" lon="6.17056">
        <ele>1240.2</ele>
        <time>2025-06-12T08:47:36Z</time>
      </trkpt>
      <trkpt lat="44.66319" lon="6.17053">
        <ele>1240.4</ele>
        <time>2025-06-12T08:47:38Z</time>
      </trkpt>
      <trkpt lat="44.66315" lon="6.1705">
        <ele>1240.8</ele>
        <time>2025-06-12T08:47:40Z</time>
      </trkpt>
      <trkpt lat="44.6631" lon="6.17047">
        <ele>1241.4</ele>
        <time>2025-06-12T08:47:42Z</time>
      </trkpt>
      <trkpt lat="44.66306" lon="6.17044">
        <ele>1241.8</ele>
        <time>2025-06-12T08:47:44Z</time>
      </trkpt>
      <trkpt lat="44.66301" lon="6.17041">
        <ele>1242.4</ele>
        <time>2025-06-12T08:47:46Z</time>
      </trkpt>
      <trkpt lat="44.66297" lon="6.17038">
        <ele>1242.8</ele>
        <time>2025-06-12T08:47:48Z</time>
      </trkpt>
      <trkpt lat="44.66295" lon="6.17036">
        <ele>1243</ele>
        <time>2025-06-12T08:47:49Z</time>
      </trkpt>
      <trkpt lat="44.66294" lon="6.17034">
        <ele>1243.2</ele>
        <time>2025-06-12T08:47:50Z</time>
      </trkpt>
      <trkpt lat="44.6629" lon="6.17029">
        <ele>1243.8</ele>
        <time>2025-06-12T08:47:52Z</time>
      </trkpt>
      <trkpt lat="44.66289" lon="6.17027">
        <ele>1243.8</ele>
        <time>2025-06-12T08:47:53Z</time>
      </trkpt>
      <trkpt lat="44.66287" lon="6.17025">
        <ele>1244</ele>
        <time>2025-06-12T08:47:54Z</time>
      </trkpt>
      <trkpt lat="44.66285" lon="6.17022">
        <ele>1244.4</ele>
        <time>2025-06-12T08:47:55Z</time>
      </trkpt>
      <trkpt lat="44.66284" lon="6.17019">
        <ele>1244.6</ele>
        <time>2025-06-12T08:47:56Z</time>
      </trkpt>
      <trkpt lat="44.66283" lon="6.17016">
        <ele>1244.8</ele>
        <time>2025-06-12T08:47:57Z</time>
      </trkpt>
      <trkpt lat="44.66282" lon="6.17013">
        <ele>1245</ele>
        <time>2025-06-12T08:47:58Z</time>
      </trkpt>
      <trkpt lat="44.6628" lon="6.17007">
        <ele>1245.4</ele>
        <time>2025-06-12T08:48:00Z</time>
      </trkpt>
      <trkpt lat="44.66279" lon="6.17001">
        <ele>1245.8</ele>
        <time>2025-06-12T08:48:02Z</time>
      </trkpt>
      <trkpt lat="44.66278" lon="6.16994">
        <ele>1246.2</ele>
        <time>2025-06-12T08:48:04Z</time>
      </trkpt>
      <trkpt lat="44.66278" lon="6.16991">
        <ele>1246.4</ele>
        <time>2025-06-12T08:48:05Z</time>
      </trkpt>
      <trkpt lat="44.66278" lon="6.16988">
        <ele>1246.6</ele>
        <time>2025-06-12T08:48:06Z</time>
      </trkpt>
      <trkpt lat="44.66279" lon="6.16981">
        <ele>1247</ele>
        <time>2025-06-12T08:48:08Z</time>
      </trkpt>
      <trkpt lat="44.66281" lon="6.16975">
        <ele>1247.6</ele>
        <time>2025-06-12T08:48:10Z</time>
      </trkpt>
      <trkpt lat="44.66282" lon="6.16972">
        <ele>1247.8</ele>
        <time>2025-06-12T08:48:11Z</time>
      </trkpt>
      <trkpt lat="44.66283" lon="6.16969">
        <ele>1248</ele>
        <time>2025-06-12T08:48:12Z</time>
      </trkpt>
      <trkpt lat="44.66284" lon="6.16966">
        <ele>1248.2</ele>
        <time>2025-06-12T08:48:13Z</time>
      </trkpt>
      <trkpt lat="44.66285" lon="6.16963">
        <ele>1248.6</ele>
        <time>2025-06-12T08:48:14Z</time>
      </trkpt>
      <trkpt lat="44.66286" lon="6.1696">
        <ele>1248.8</ele>
        <time>2025-06-12T08:48:15Z</time>
      </trkpt>
      <trkpt lat="44.66288" lon="6.16958">
        <ele>1249</ele>
        <time>2025-06-12T08:48:16Z</time>
      </trkpt>
      <trkpt lat="44.66289" lon="6.16955">
        <ele>1249.2</ele>
        <time>2025-06-12T08:48:17Z</time>
      </trkpt>
      <trkpt lat="44.66291" lon="6.16952">
        <ele>1249.4</ele>
        <time>2025-06-12T08:48:18Z</time>
      </trkpt>
      <trkpt lat="44.66292" lon="6.1695">
        <ele>1249.6</ele>
        <time>2025-06-12T08:48:19Z</time>
      </trkpt>
      <trkpt lat="44.66294" lon="6.16948">
        <ele>1249.8</ele>
        <time>2025-06-12T08:48:20Z</time>
      </trkpt>
      <trkpt lat="44.66296" lon="6.16946">
        <ele>1250</ele>
        <time>2025-06-12T08:48:21Z</time>
      </trkpt>
      <trkpt lat="44.66298" lon="6.16945">
        <ele>1250.2</ele>
        <time>2025-06-12T08:48:22Z</time>
      </trkpt>
      <trkpt lat="44.663" lon="6.16943">
        <ele>1250.4</ele>
        <time>2025-06-12T08:48:23Z</time>
      </trkpt>
      <trkpt lat="44.66302" lon="6.16942">
        <ele>1250.6</ele>
        <time>2025-06-12T08:48:24Z</time>
      </trkpt>
      <trkpt lat="44.66305" lon="6.1694">
        <ele>1250.8</ele>
        <time>2025-06-12T08:48:25Z</time>
      </trkpt>
      <trkpt lat="44.66307" lon="6.16939">
        <ele>1251</ele>
        <time>2025-06-12T08:48:26Z</time>
      </trkpt>
      <trkpt lat="44.66309" lon="6.16938">
        <ele>1251.4</ele>
        <time>2025-06-12T08:48:27Z</time>
      </trkpt>
      <trkpt lat="44.66314" lon="6.16936">
        <ele>1251.8</ele>
        <time>2025-06-12T08:48:29Z</time>
      </trkpt>
      <trkpt lat="44.66318" lon="6.16936">
        <ele>1252.2</ele>
        <time>2025-06-12T08:48:31Z</time>
      </trkpt>
      <trkpt lat="44.66323" lon="6.16936">
        <ele>1252.8</ele>
        <time>2025-06-12T08:48:33Z</time>
      </trkpt>
      <trkpt lat="44.66327" lon="6.16935">
        <ele>1253</ele>
        <time>2025-06-12T08:48:35Z</time>
      </trkpt>
      <trkpt lat="44.66329" lon="6.16935">
        <ele>1253.4</ele>
        <time>2025-06-12T08:48:36Z</time>
      </trkpt>
      <trkpt lat="44.66331" lon="6.16936">
        <ele>1253.8</ele>
        <time>2025-06-12T08:48:37Z</time>
      </trkpt>
      <trkpt lat="44.66334" lon="6.16936">
        <ele>1254</ele>
        <time>2025-06-12T08:48:38Z</time>
      </trkpt>
      <trkpt lat="44.66336" lon="6.16936">
        <ele>1254.2</ele>
        <time>2025-06-12T08:48:39Z</time>
      </trkpt>
      <trkpt lat="44.66338" lon="6.16936">
        <ele>1254.2</ele>
        <time>2025-06-12T08:48:40Z</time>
      </trkpt>
      <trkpt lat="44.6634" lon="6.16937">
        <ele>1254.4</ele>
        <time>2025-06-12T08:48:41Z</time>
      </trkpt>
      <trkpt lat="44.66342" lon="6.16937">
        <ele>1254.6</ele>
        <time>2025-06-12T08:48:42Z</time>
      </trkpt>
      <trkpt lat="44.66344" lon="6.16937">
        <ele>1254.8</ele>
        <time>2025-06-12T08:48:43Z</time>
      </trkpt>
      <trkpt lat="44.66346" lon="6.16937">
        <ele>1255</ele>
        <time>2025-06-12T08:48:44Z</time>
      </trkpt>
      <trkpt lat="44.66348" lon="6.16938">
        <ele>1255.2</ele>
        <time>2025-06-12T08:48:45Z</time>
      </trkpt>
      <trkpt lat="44.6635" lon="6.16938">
        <ele>1255.4</ele>
        <time>2025-06-12T08:48:46Z</time>
      </trkpt>
      <trkpt lat="44.66352" lon="6.16939">
        <ele>1255.6</ele>
        <time>2025-06-12T08:48:47Z</time>
      </trkpt>
      <trkpt lat="44.66354" lon="6.16939">
        <ele>1255.8</ele>
        <time>2025-06-12T08:48:48Z</time>
      </trkpt>
      <trkpt lat="44.66356" lon="6.16939">
        <ele>1256</ele>
        <time>2025-06-12T08:48:49Z</time>
      </trkpt>
      <trkpt lat="44.66358" lon="6.1694">
        <ele>1256.2</ele>
        <time>2025-06-12T08:48:50Z</time>
      </trkpt>
      <trkpt lat="44.6636" lon="6.1694">
        <ele>1256.4</ele>
        <time>2025-06-12T08:48:51Z</time>
      </trkpt>
      <trkpt lat="44.66362" lon="6.16941">
        <ele>1256.6</ele>
        <time>2025-06-12T08:48:52Z</time>
      </trkpt>
      <trkpt lat="44.66365" lon="6.16941">
        <ele>1256.8</ele>
        <time>2025-06-12T08:48:53Z</time>
      </trkpt>
      <trkpt lat="44.66367" lon="6.16942">
        <ele>1257</ele>
        <time>2025-06-12T08:48:54Z</time>
      </trkpt>
      <trkpt lat="44.66369" lon="6.16943">
        <ele>1257.2</ele>
        <time>2025-06-12T08:48:55Z</time>
      </trkpt>
      <trkpt lat="44.66371" lon="6.16943">
        <ele>1257.4</ele>
        <time>2025-06-12T08:48:56Z</time>
      </trkpt>
      <trkpt lat="44.66373" lon="6.16943">
        <ele>1257.6</ele>
        <time>2025-06-12T08:48:57Z</time>
      </trkpt>
      <trkpt lat="44.66376" lon="6.16943">
        <ele>1257.8</ele>
        <time>2025-06-12T08:48:58Z</time>
      </trkpt>
      <trkpt lat="44.66378" lon="6.16943">
        <ele>1258</ele>
        <time>2025-06-12T08:48:59Z</time>
      </trkpt>
      <trkpt lat="44.6638" lon="6.16943">
        <ele>1258</ele>
        <time>2025-06-12T08:49:00Z</time>
      </trkpt>
      <trkpt lat="44.66382" lon="6.16944">
        <ele>1258.2</ele>
        <time>2025-06-12T08:49:01Z</time>
      </trkpt>
      <trkpt lat="44.66384" lon="6.16944">
        <ele>1258.2</ele>
        <time>2025-06-12T08:49:02Z</time>
      </trkpt>
      <trkpt lat="44.66386" lon="6.16944">
        <ele>1258.6</ele>
        <time>2025-06-12T08:49:03Z</time>
      </trkpt>
      <trkpt lat="44.66389" lon="6.16945">
        <ele>1258.6</ele>
        <time>2025-06-12T08:49:04Z</time>
      </trkpt>
      <trkpt lat="44.66391" lon="6.16944">
        <ele>1258.8</ele>
        <time>2025-06-12T08:49:05Z</time>
      </trkpt>
      <trkpt lat="44.66393" lon="6.16944">
        <ele>1258.8</ele>
        <time>2025-06-12T08:49:06Z</time>
      </trkpt>
      <trkpt lat="44.66395" lon="6.16945">
        <ele>1259</ele>
        <time>2025-06-12T08:49:07Z</time>
      </trkpt>
      <trkpt lat="44.66397" lon="6.16945">
        <ele>1259.2</ele>
        <time>2025-06-12T08:49:08Z</time>
      </trkpt>
      <trkpt lat="44.66399" lon="6.16946">
        <ele>1259.4</ele>
        <time>2025-06-12T08:49:09Z</time>
      </trkpt>
      <trkpt lat="44.66401" lon="6.16947">
        <ele>1259.6</ele>
        <time>2025-06-12T08:49:10Z</time>
      </trkpt>
      <trkpt lat="44.66403" lon="6.16947">
        <ele>1259.8</ele>
        <time>2025-06-12T08:49:11Z</time>
      </trkpt>
      <trkpt lat="44.66406" lon="6.16947">
        <ele>1260</ele>
        <time>2025-06-12T08:49:12Z</time>
      </trkpt>
      <trkpt lat="44.66408" lon="6.16947">
        <ele>1260.2</ele>
        <time>2025-06-12T08:49:13Z</time>
      </trkpt>
      <trkpt lat="44.6641" lon="6.16948">
        <ele>1260.4</ele>
        <time>2025-06-12T08:49:14Z</time>
      </trkpt>
      <trkpt lat="44.66412" lon="6.16948">
        <ele>1260.4</ele>
        <time>2025-06-12T08:49:15Z</time>
      </trkpt>
      <trkpt lat="44.66414" lon="6.16948">
        <ele>1260.6</ele>
        <time>2025-06-12T08:49:16Z</time>
      </trkpt>
      <trkpt lat="44.66416" lon="6.16948">
        <ele>1261</ele>
        <time>2025-06-12T08:49:17Z</time>
      </trkpt>
      <trkpt lat="44.66419" lon="6.16948">
        <ele>1261</ele>
        <time>2025-06-12T08:49:18Z</time>
      </trkpt>
      <trkpt lat="44.66423" lon="6.16948">
        <ele>1261.4</ele>
        <time>2025-06-12T08:49:20Z</time>
      </trkpt>
      <trkpt lat="44.66428" lon="6.16948">
        <ele>1261.8</ele>
        <time>2025-06-12T08:49:22Z</time>
      </trkpt>
      <trkpt lat="44.6643" lon="6.16948">
        <ele>1262</ele>
        <time>2025-06-12T08:49:23Z</time>
      </trkpt>
      <trkpt lat="44.66432" lon="6.16948">
        <ele>1262.2</ele>
        <time>2025-06-12T08:49:24Z</time>
      </trkpt>
      <trkpt lat="44.66436" lon="6.16948">
        <ele>1262.6</ele>
        <time>2025-06-12T08:49:26Z</time>
      </trkpt>
      <trkpt lat="44.66439" lon="6.16948">
        <ele>1262.8</ele>
        <time>2025-06-12T08:49:27Z</time>
      </trkpt>
      <trkpt lat="44.66441" lon="6.16947">
        <ele>1263</ele>
        <time>2025-06-12T08:49:28Z</time>
      </trkpt>
      <trkpt lat="44.66443" lon="6.16946">
        <ele>1263.2</ele>
        <time>2025-06-12T08:49:29Z</time>
      </trkpt>
      <trkpt lat="44.66445" lon="6.16945">
        <ele>1263.2</ele>
        <time>2025-06-12T08:49:30Z</time>
      </trkpt>
      <trkpt lat="44.66447" lon="6.16945">
        <ele>1263.4</ele>
        <time>2025-06-12T08:49:31Z</time>
      </trkpt>
      <trkpt lat="44.66449" lon="6.16944">
        <ele>1263.8</ele>
        <time>2025-06-12T08:49:32Z</time>
      </trkpt>
      <trkpt lat="44.66451" lon="6.16943">
        <ele>1263.8</ele>
        <time>2025-06-12T08:49:33Z</time>
      </trkpt>
      <trkpt lat="44.66453" lon="6.16943">
        <ele>1264</ele>
        <time>2025-06-12T08:49:34Z</time>
      </trkpt>
      <trkpt lat="44.66455" lon="6.16943">
        <ele>1264.2</ele>
        <time>2025-06-12T08:49:35Z</time>
      </trkpt>
      <trkpt lat="44.66458" lon="6.16942">
        <ele>1264.4</ele>
        <time>2025-06-12T08:49:36Z</time>
      </trkpt>
      <trkpt lat="44.6646" lon="6.16942">
        <ele>1264.6</ele>
        <time>2025-06-12T08:49:37Z</time>
      </trkpt>
      <trkpt lat="44.66462" lon="6.16942">
        <ele>1264.8</ele>
        <time>2025-06-12T08:49:38Z</time>
      </trkpt>
      <trkpt lat="44.66464" lon="6.16942">
        <ele>1264.8</ele>
        <time>2025-06-12T08:49:39Z</time>
      </trkpt>
      <trkpt lat="44.66466" lon="6.16941">
        <ele>1265</ele>
        <time>2025-06-12T08:49:40Z</time>
      </trkpt>
      <trkpt lat="44.66469" lon="6.1694">
        <ele>1265.2</ele>
        <time>2025-06-12T08:49:41Z</time>
      </trkpt>
      <trkpt lat="44.66471" lon="6.1694">
        <ele>1265.6</ele>
        <time>2025-06-12T08:49:42Z</time>
      </trkpt>
      <trkpt lat="44.66473" lon="6.16939">
        <ele>1265.8</ele>
        <time>2025-06-12T08:49:43Z</time>
      </trkpt>
      <trkpt lat="44.66475" lon="6.16939">
        <ele>1265.8</ele>
        <time>2025-06-12T08:49:44Z</time>
      </trkpt>
      <trkpt lat="44.66477" lon="6.16938">
        <ele>1266</ele>
        <time>2025-06-12T08:49:45Z</time>
      </trkpt>
      <trkpt lat="44.66479" lon="6.16938">
        <ele>1266.2</ele>
        <time>2025-06-12T08:49:46Z</time>
      </trkpt>
      <trkpt lat="44.66481" lon="6.16937">
        <ele>1266.4</ele>
        <time>2025-06-12T08:49:47Z</time>
      </trkpt>
      <trkpt lat="44.66483" lon="6.16936">
        <ele>1266.6</ele>
        <time>2025-06-12T08:49:48Z</time>
      </trkpt>
      <trkpt lat="44.66485" lon="6.16935">
        <ele>1266.8</ele>
        <time>2025-06-12T08:49:49Z</time>
      </trkpt>
      <trkpt lat="44.66488" lon="6.16934">
        <ele>1267</ele>
        <time>2025-06-12T08:49:50Z</time>
      </trkpt>
      <trkpt lat="44.6649" lon="6.16933">
        <ele>1267.2</ele>
        <time>2025-06-12T08:49:51Z</time>
      </trkpt>
      <trkpt lat="44.66492" lon="6.16932">
        <ele>1267.4</ele>
        <time>2025-06-12T08:49:52Z</time>
      </trkpt>
      <trkpt lat="44.66494" lon="6.16931">
        <ele>1267.6</ele>
        <time>2025-06-12T08:49:53Z</time>
      </trkpt>
      <trkpt lat="44.66498" lon="6.16929">
        <ele>1268.2</ele>
        <time>2025-06-12T08:49:55Z</time>
      </trkpt>
      <trkpt lat="44.665" lon="6.16928">
        <ele>1268.4</ele>
        <time>2025-06-12T08:49:56Z</time>
      </trkpt>
      <trkpt lat="44.66502" lon="6.16927">
        <ele>1268.6</ele>
        <time>2025-06-12T08:49:57Z</time>
      </trkpt>
      <trkpt lat="44.66506" lon="6.16926">
        <ele>1269</ele>
        <time>2025-06-12T08:49:59Z</time>
      </trkpt>
      <trkpt lat="44.6651" lon="6.16925">
        <ele>1269.6</ele>
        <time>2025-06-12T08:50:01Z</time>
      </trkpt>
      <trkpt lat="44.66512" lon="6.16924">
        <ele>1269.8</ele>
        <time>2025-06-12T08:50:02Z</time>
      </trkpt>
      <trkpt lat="44.66514" lon="6.16924">
        <ele>1270</ele>
        <time>2025-06-12T08:50:03Z</time>
      </trkpt>
      <trkpt lat="44.66518" lon="6.16922">
        <ele>1270.4</ele>
        <time>2025-06-12T08:50:05Z</time>
      </trkpt>
      <trkpt lat="44.6652" lon="6.16921">
        <ele>1270.4</ele>
        <time>2025-06-12T08:50:06Z</time>
      </trkpt>
      <trkpt lat="44.66522" lon="6.16921">
        <ele>1270.6</ele>
        <time>2025-06-12T08:50:07Z</time>
      </trkpt>
      <trkpt lat="44.66524" lon="6.16919">
        <ele>1270.8</ele>
        <time>2025-06-12T08:50:08Z</time>
      </trkpt>
      <trkpt lat="44.66526" lon="6.16918">
        <ele>1271</ele>
        <time>2025-06-12T08:50:09Z</time>
      </trkpt>
      <trkpt lat="44.66528" lon="6.16918">
        <ele>1271.2</ele>
        <time>2025-06-12T08:50:10Z</time>
      </trkpt>
      <trkpt lat="44.6653" lon="6.16916">
        <ele>1271.4</ele>
        <time>2025-06-12T08:50:11Z</time>
      </trkpt>
      <trkpt lat="44.66532" lon="6.16915">
        <ele>1271.6</ele>
        <time>2025-06-12T08:50:12Z</time>
      </trkpt>
      <trkpt lat="44.66534" lon="6.16914">
        <ele>1271.8</ele>
        <time>2025-06-12T08:50:13Z</time>
      </trkpt>
      <trkpt lat="44.66536" lon="6.16914">
        <ele>1272</ele>
        <time>2025-06-12T08:50:14Z</time>
      </trkpt>
      <trkpt lat="44.66538" lon="6.16913">
        <ele>1272.2</ele>
        <time>2025-06-12T08:50:15Z</time>
      </trkpt>
      <trkpt lat="44.6654" lon="6.16912">
        <ele>1272.4</ele>
        <time>2025-06-12T08:50:16Z</time>
      </trkpt>
      <trkpt lat="44.66542" lon="6.16912">
        <ele>1272.4</ele>
        <time>2025-06-12T08:50:17Z</time>
      </trkpt>
      <trkpt lat="44.66544" lon="6.16911">
        <ele>1272.8</ele>
        <time>2025-06-12T08:50:18Z</time>
      </trkpt>
      <trkpt lat="44.66549" lon="6.16909">
        <ele>1273.2</ele>
        <time>2025-06-12T08:50:20Z</time>
      </trkpt>
      <trkpt lat="44.66553" lon="6.16908">
        <ele>1273.4</ele>
        <time>2025-06-12T08:50:22Z</time>
      </trkpt>
      <trkpt lat="44.66555" lon="6.16907">
        <ele>1273.6</ele>
        <time>2025-06-12T08:50:23Z</time>
      </trkpt>
      <trkpt lat="44.66557" lon="6.16906">
        <ele>1273.6</ele>
        <time>2025-06-12T08:50:24Z</time>
      </trkpt>
      <trkpt lat="44.66559" lon="6.16906">
        <ele>1273.8</ele>
        <time>2025-06-12T08:50:25Z</time>
      </trkpt>
      <trkpt lat="44.66562" lon="6.16905">
        <ele>1274.2</ele>
        <time>2025-06-12T08:50:26Z</time>
      </trkpt>
      <trkpt lat="44.66566" lon="6.16903">
        <ele>1274.8</ele>
        <time>2025-06-12T08:50:28Z</time>
      </trkpt>
      <trkpt lat="44.6657" lon="6.16899">
        <ele>1275.2</ele>
        <time>2025-06-12T08:50:30Z</time>
      </trkpt>
      <trkpt lat="44.66572" lon="6.16897">
        <ele>1275.4</ele>
        <time>2025-06-12T08:50:31Z</time>
      </trkpt>
      <trkpt lat="44.66574" lon="6.16895">
        <ele>1275.6</ele>
        <time>2025-06-12T08:50:32Z</time>
      </trkpt>
      <trkpt lat="44.66576" lon="6.16891">
        <ele>1275.8</ele>
        <time>2025-06-12T08:50:33Z</time>
      </trkpt>
      <trkpt lat="44.66578" lon="6.16889">
        <ele>1276</ele>
        <time>2025-06-12T08:50:34Z</time>
      </trkpt>
      <trkpt lat="44.6658" lon="6.16888">
        <ele>1276.2</ele>
        <time>2025-06-12T08:50:35Z</time>
      </trkpt>
      <trkpt lat="44.66582" lon="6.16886">
        <ele>1276.2</ele>
        <time>2025-06-12T08:50:36Z</time>
      </trkpt>
      <trkpt lat="44.66584" lon="6.16885">
        <ele>1276.4</ele>
        <time>2025-06-12T08:50:37Z</time>
      </trkpt>
      <trkpt lat="44.66586" lon="6.16884">
        <ele>1276.6</ele>
        <time>2025-06-12T08:50:38Z</time>
      </trkpt>
      <trkpt lat="44.66589" lon="6.16882">
        <ele>1276.8</ele>
        <time>2025-06-12T08:50:39Z</time>
      </trkpt>
      <trkpt lat="44.66591" lon="6.16881">
        <ele>1277</ele>
        <time>2025-06-12T08:50:40Z</time>
      </trkpt>
      <trkpt lat="44.66593" lon="6.16879">
        <ele>1277.2</ele>
        <time>2025-06-12T08:50:41Z</time>
      </trkpt>
      <trkpt lat="44.66595" lon="6.16878">
        <ele>1277.4</ele>
        <time>2025-06-12T08:50:42Z</time>
      </trkpt>
      <trkpt lat="44.66598" lon="6.16876">
        <ele>1277.8</ele>
        <time>2025-06-12T08:50:43Z</time>
      </trkpt>
      <trkpt lat="44.66602" lon="6.16874">
        <ele>1278</ele>
        <time>2025-06-12T08:50:45Z</time>
      </trkpt>
      <trkpt lat="44.66605" lon="6.16872">
        <ele>1278.2</ele>
        <time>2025-06-12T08:50:46Z</time>
      </trkpt>
      <trkpt lat="44.66607" lon="6.16871">
        <ele>1278.4</ele>
        <time>2025-06-12T08:50:47Z</time>
      </trkpt>
      <trkpt lat="44.66611" lon="6.16868">
        <ele>1278.6</ele>
        <time>2025-06-12T08:50:49Z</time>
      </trkpt>
      <trkpt lat="44.66616" lon="6.16866">
        <ele>1279</ele>
        <time>2025-06-12T08:50:51Z</time>
      </trkpt>
      <trkpt lat="44.66619" lon="6.16865">
        <ele>1279.2</ele>
        <time>2025-06-12T08:50:52Z</time>
      </trkpt>
      <trkpt lat="44.66621" lon="6.16863">
        <ele>1279.2</ele>
        <time>2025-06-12T08:50:53Z</time>
      </trkpt>
      <trkpt lat="44.66623" lon="6.16862">
        <ele>1279.4</ele>
        <time>2025-06-12T08:50:54Z</time>
      </trkpt>
      <trkpt lat="44.66625" lon="6.16861">
        <ele>1279.8</ele>
        <time>2025-06-12T08:50:55Z</time>
      </trkpt>
      <trkpt lat="44.66628" lon="6.16859">
        <ele>1279.8</ele>
        <time>2025-06-12T08:50:56Z</time>
      </trkpt>
      <trkpt lat="44.6663" lon="6.16858">
        <ele>1280</ele>
        <time>2025-06-12T08:50:57Z</time>
      </trkpt>
      <trkpt lat="44.66633" lon="6.16856">
        <ele>1280</ele>
        <time>2025-06-12T08:50:58Z</time>
      </trkpt>
      <trkpt lat="44.66635" lon="6.16855">
        <ele>1280.2</ele>
        <time>2025-06-12T08:50:59Z</time>
      </trkpt>
      <trkpt lat="44.66637" lon="6.16853">
        <ele>1280.4</ele>
        <time>2025-06-12T08:51:00Z</time>
      </trkpt>
      <trkpt lat="44.66642" lon="6.16851">
        <ele>1280.6</ele>
        <time>2025-06-12T08:51:02Z</time>
      </trkpt>
      <trkpt lat="44.66647" lon="6.16848">
        <ele>1281</ele>
        <time>2025-06-12T08:51:04Z</time>
      </trkpt>
      <trkpt lat="44.6665" lon="6.16847">
        <ele>1281</ele>
        <time>2025-06-12T08:51:05Z</time>
      </trkpt>
      <trkpt lat="44.66652" lon="6.16846">
        <ele>1281.2</ele>
        <time>2025-06-12T08:51:06Z</time>
      </trkpt>
      <trkpt lat="44.66654" lon="6.16844">
        <ele>1281.2</ele>
        <time>2025-06-12T08:51:07Z</time>
      </trkpt>
      <trkpt lat="44.66657" lon="6.16843">
        <ele>1281.4</ele>
        <time>2025-06-12T08:51:08Z</time>
      </trkpt>
      <trkpt lat="44.66659" lon="6.16842">
        <ele>1281.4</ele>
        <time>2025-06-12T08:51:09Z</time>
      </trkpt>
      <trkpt lat="44.66664" lon="6.16839">
        <ele>1281.6</ele>
        <time>2025-06-12T08:51:11Z</time>
      </trkpt>
      <trkpt lat="44.6667" lon="6.16837">
        <ele>1281.8</ele>
        <time>2025-06-12T08:51:13Z</time>
      </trkpt>
      <trkpt lat="44.66675" lon="6.16833">
        <ele>1282</ele>
        <time>2025-06-12T08:51:15Z</time>
      </trkpt>
      <trkpt lat="44.66678" lon="6.16832">
        <ele>1282.2</ele>
        <time>2025-06-12T08:51:16Z</time>
      </trkpt>
      <trkpt lat="44.66681" lon="6.1683">
        <ele>1282.4</ele>
        <time>2025-06-12T08:51:17Z</time>
      </trkpt>
      <trkpt lat="44.66684" lon="6.16828">
        <ele>1282.4</ele>
        <time>2025-06-12T08:51:18Z</time>
      </trkpt>
      <trkpt lat="44.66687" lon="6.16826">
        <ele>1282.6</ele>
        <time>2025-06-12T08:51:19Z</time>
      </trkpt>
      <trkpt lat="44.6669" lon="6.16825">
        <ele>1282.8</ele>
        <time>2025-06-12T08:51:20Z</time>
      </trkpt>
      <trkpt lat="44.66693" lon="6.16823">
        <ele>1282.8</ele>
        <time>2025-06-12T08:51:21Z</time>
      </trkpt>
      <trkpt lat="44.66696" lon="6.16822">
        <ele>1282.8</ele>
        <time>2025-06-12T08:51:22Z</time>
      </trkpt>
      <trkpt lat="44.66698" lon="6.1682">
        <ele>1283</ele>
        <time>2025-06-12T08:51:23Z</time>
      </trkpt>
      <trkpt lat="44.66701" lon="6.16818">
        <ele>1283</ele>
        <time>2025-06-12T08:51:24Z</time>
      </trkpt>
      <trkpt lat="44.66707" lon="6.16815">
        <ele>1283.2</ele>
        <time>2025-06-12T08:51:26Z</time>
      </trkpt>
      <trkpt lat="44.66713" lon="6.16811">
        <ele>1283.6</ele>
        <time>2025-06-12T08:51:28Z</time>
      </trkpt>
      <trkpt lat="44.66719" lon="6.16808">
        <ele>1283.8</ele>
        <time>2025-06-12T08:51:30Z</time>
      </trkpt>
      <trkpt lat="44.66722" lon="6.16806">
        <ele>1283.8</ele>
        <time>2025-06-12T08:51:31Z</time>
      </trkpt>
      <trkpt lat="44.66725" lon="6.16805">
        <ele>1283.8</ele>
        <time>2025-06-12T08:51:32Z</time>
      </trkpt>
      <trkpt lat="44.66728" lon="6.16803">
        <ele>1284</ele>
        <time>2025-06-12T08:51:33Z</time>
      </trkpt>
      <trkpt lat="44.66731" lon="6.16801">
        <ele>1284</ele>
        <time>2025-06-12T08:51:34Z</time>
      </trkpt>
      <trkpt lat="44.66734" lon="6.168">
        <ele>1284</ele>
        <time>2025-06-12T08:51:35Z</time>
      </trkpt>
      <trkpt lat="44.66738" lon="6.16798">
        <ele>1284</ele>
        <time>2025-06-12T08:51:36Z</time>
      </trkpt>
      <trkpt lat="44.66741" lon="6.16795">
        <ele>1284</ele>
        <time>2025-06-12T08:51:37Z</time>
      </trkpt>
      <trkpt lat="44.66744" lon="6.16793">
        <ele>1284.2</ele>
        <time>2025-06-12T08:51:38Z</time>
      </trkpt>
      <trkpt lat="44.66747" lon="6.16792">
        <ele>1284.4</ele>
        <time>2025-06-12T08:51:39Z</time>
      </trkpt>
      <trkpt lat="44.6675" lon="6.1679">
        <ele>1284.6</ele>
        <time>2025-06-12T08:51:40Z</time>
      </trkpt>
      <trkpt lat="44.66753" lon="6.16788">
        <ele>1284.8</ele>
        <time>2025-06-12T08:51:41Z</time>
      </trkpt>
      <trkpt lat="44.66757" lon="6.16785">
        <ele>1284.8</ele>
        <time>2025-06-12T08:51:42Z</time>
      </trkpt>
      <trkpt lat="44.6676" lon="6.16783">
        <ele>1285</ele>
        <time>2025-06-12T08:51:43Z</time>
      </trkpt>
      <trkpt lat="44.66767" lon="6.1678">
        <ele>1285.2</ele>
        <time>2025-06-12T08:51:45Z</time>
      </trkpt>
      <trkpt lat="44.6677" lon="6.16778">
        <ele>1285.2</ele>
        <time>2025-06-12T08:51:46Z</time>
      </trkpt>
      <trkpt lat="44.66773" lon="6.16777">
        <ele>1285.2</ele>
        <time>2025-06-12T08:51:47Z</time>
      </trkpt>
      <trkpt lat="44.66777" lon="6.16775">
        <ele>1285.2</ele>
        <time>2025-06-12T08:51:48Z</time>
      </trkpt>
      <trkpt lat="44.6678" lon="6.16773">
        <ele>1285.4</ele>
        <time>2025-06-12T08:51:49Z</time>
      </trkpt>
      <trkpt lat="44.66783" lon="6.16771">
        <ele>1285.4</ele>
        <time>2025-06-12T08:51:50Z</time>
      </trkpt>
      <trkpt lat="44.66787" lon="6.1677">
        <ele>1285.4</ele>
        <time>2025-06-12T08:51:51Z</time>
      </trkpt>
      <trkpt lat="44.6679" lon="6.16768">
        <ele>1285.6</ele>
        <time>2025-06-12T08:51:52Z</time>
      </trkpt>
      <trkpt lat="44.66796" lon="6.16764">
        <ele>1285.8</ele>
        <time>2025-06-12T08:51:54Z</time>
      </trkpt>
      <trkpt lat="44.66803" lon="6.16761">
        <ele>1285.8</ele>
        <time>2025-06-12T08:51:56Z</time>
      </trkpt>
      <trkpt lat="44.66806" lon="6.1676">
        <ele>1286</ele>
        <time>2025-06-12T08:51:57Z</time>
      </trkpt>
      <trkpt lat="44.66809" lon="6.16759">
        <ele>1286</ele>
        <time>2025-06-12T08:51:58Z</time>
      </trkpt>
      <trkpt lat="44.66812" lon="6.16758">
        <ele>1286.2</ele>
        <time>2025-06-12T08:51:59Z</time>
      </trkpt>
      <trkpt lat="44.66816" lon="6.16756">
        <ele>1286.4</ele>
        <time>2025-06-12T08:52:00Z</time>
      </trkpt>
      <trkpt lat="44.66819" lon="6.16755">
        <ele>1286.4</ele>
        <time>2025-06-12T08:52:01Z</time>
      </trkpt>
      <trkpt lat="44.66822" lon="6.16753">
        <ele>1286.6</ele>
        <time>2025-06-12T08:52:02Z</time>
      </trkpt>
      <trkpt lat="44.66825" lon="6.16752">
        <ele>1286.8</ele>
        <time>2025-06-12T08:52:03Z</time>
      </trkpt>
      <trkpt lat="44.66831" lon="6.1675">
        <ele>1287</ele>
        <time>2025-06-12T08:52:05Z</time>
      </trkpt>
      <trkpt lat="44.66834" lon="6.16748">
        <ele>1287.2</ele>
        <time>2025-06-12T08:52:06Z</time>
      </trkpt>
      <trkpt lat="44.66837" lon="6.16747">
        <ele>1287.4</ele>
        <time>2025-06-12T08:52:07Z</time>
      </trkpt>
      <trkpt lat="44.66842" lon="6.16745">
        <ele>1287.4</ele>
        <time>2025-06-12T08:52:09Z</time>
      </trkpt>
      <trkpt lat="44.66845" lon="6.16744">
        <ele>1287.6</ele>
        <time>2025-06-12T08:52:10Z</time>
      </trkpt>
      <trkpt lat="44.66848" lon="6.16743">
        <ele>1287.8</ele>
        <time>2025-06-12T08:52:11Z</time>
      </trkpt>
      <trkpt lat="44.66851" lon="6.16742">
        <ele>1287.8</ele>
        <time>2025-06-12T08:52:12Z</time>
      </trkpt>
      <trkpt lat="44.66854" lon="6.16742">
        <ele>1288</ele>
        <time>2025-06-12T08:52:13Z</time>
      </trkpt>
      <trkpt lat="44.66856" lon="6.16741">
        <ele>1288.2</ele>
        <time>2025-06-12T08:52:14Z</time>
      </trkpt>
      <trkpt lat="44.66861" lon="6.16739">
        <ele>1288.6</ele>
        <time>2025-06-12T08:52:16Z</time>
      </trkpt>
      <trkpt lat="44.66864" lon="6.16738">
        <ele>1288.8</ele>
        <time>2025-06-12T08:52:17Z</time>
      </trkpt>
      <trkpt lat="44.66867" lon="6.16738">
        <ele>1289.2</ele>
        <time>2025-06-12T08:52:18Z</time>
      </trkpt>
      <trkpt lat="44.66872" lon="6.16737">
        <ele>1289.6</ele>
        <time>2025-06-12T08:52:20Z</time>
      </trkpt>
      <trkpt lat="44.66877" lon="6.16735">
        <ele>1289.8</ele>
        <time>2025-06-12T08:52:22Z</time>
      </trkpt>
      <trkpt lat="44.66879" lon="6.16735">
        <ele>1290</ele>
        <time>2025-06-12T08:52:23Z</time>
      </trkpt>
      <trkpt lat="44.66882" lon="6.16734">
        <ele>1290.2</ele>
        <time>2025-06-12T08:52:24Z</time>
      </trkpt>
      <trkpt lat="44.66884" lon="6.16734">
        <ele>1290.6</ele>
        <time>2025-06-12T08:52:25Z</time>
      </trkpt>
      <trkpt lat="44.66887" lon="6.16733">
        <ele>1291</ele>
        <time>2025-06-12T08:52:26Z</time>
      </trkpt>
      <trkpt lat="44.66889" lon="6.16732">
        <ele>1291.2</ele>
        <time>2025-06-12T08:52:27Z</time>
      </trkpt>
      <trkpt lat="44.66892" lon="6.16731">
        <ele>1291.4</ele>
        <time>2025-06-12T08:52:28Z</time>
      </trkpt>
      <trkpt lat="44.66894" lon="6.1673">
        <ele>1291.6</ele>
        <time>2025-06-12T08:52:29Z</time>
      </trkpt>
      <trkpt lat="44.66899" lon="6.16728">
        <ele>1292.2</ele>
        <time>2025-06-12T08:52:31Z</time>
      </trkpt>
      <trkpt lat="44.66902" lon="6.16728">
        <ele>1292.4</ele>
        <time>2025-06-12T08:52:32Z</time>
      </trkpt>
      <trkpt lat="44.66904" lon="6.16727">
        <ele>1292.8</ele>
        <time>2025-06-12T08:52:33Z</time>
      </trkpt>
      <trkpt lat="44.66906" lon="6.16727">
        <ele>1293</ele>
        <time>2025-06-12T08:52:34Z</time>
      </trkpt>
      <trkpt lat="44.66909" lon="6.16727">
        <ele>1293</ele>
        <time>2025-06-12T08:52:35Z</time>
      </trkpt>
      <trkpt lat="44.66912" lon="6.16726">
        <ele>1293.2</ele>
        <time>2025-06-12T08:52:36Z</time>
      </trkpt>
      <trkpt lat="44.66917" lon="6.16726">
        <ele>1293.8</ele>
        <time>2025-06-12T08:52:38Z</time>
      </trkpt>
      <trkpt lat="44.66922" lon="6.16725">
        <ele>1294</ele>
        <time>2025-06-12T08:52:40Z</time>
      </trkpt>
      <trkpt lat="44.66924" lon="6.16724">
        <ele>1294</ele>
        <time>2025-06-12T08:52:41Z</time>
      </trkpt>
      <trkpt lat="44.66927" lon="6.16723">
        <ele>1294.4</ele>
        <time>2025-06-12T08:52:42Z</time>
      </trkpt>
      <trkpt lat="44.66929" lon="6.16723">
        <ele>1294.4</ele>
        <time>2025-06-12T08:52:43Z</time>
      </trkpt>
      <trkpt lat="44.66934" lon="6.16721">
        <ele>1295.2</ele>
        <time>2025-06-12T08:52:45Z</time>
      </trkpt>
      <trkpt lat="44.66937" lon="6.16721">
        <ele>1295.4</ele>
        <time>2025-06-12T08:52:46Z</time>
      </trkpt>
      <trkpt lat="44.66939" lon="6.1672">
        <ele>1295.6</ele>
        <time>2025-06-12T08:52:47Z</time>
      </trkpt>
      <trkpt lat="44.66942" lon="6.16719">
        <ele>1296</ele>
        <time>2025-06-12T08:52:48Z</time>
      </trkpt>
      <trkpt lat="44.66947" lon="6.16718">
        <ele>1296.4</ele>
        <time>2025-06-12T08:52:50Z</time>
      </trkpt>
      <trkpt lat="44.66952" lon="6.16717">
        <ele>1297</ele>
        <time>2025-06-12T08:52:52Z</time>
      </trkpt>
      <trkpt lat="44.66954" lon="6.16716">
        <ele>1297.2</ele>
        <time>2025-06-12T08:52:53Z</time>
      </trkpt>
      <trkpt lat="44.66957" lon="6.16716">
        <ele>1297.4</ele>
        <time>2025-06-12T08:52:54Z</time>
      </trkpt>
      <trkpt lat="44.66959" lon="6.16715">
        <ele>1297.8</ele>
        <time>2025-06-12T08:52:55Z</time>
      </trkpt>
      <trkpt lat="44.66962" lon="6.16714">
        <ele>1298</ele>
        <time>2025-06-12T08:52:56Z</time>
      </trkpt>
      <trkpt lat="44.66964" lon="6.16713">
        <ele>1298.4</ele>
        <time>2025-06-12T08:52:57Z</time>
      </trkpt>
      <trkpt lat="44.66969" lon="6.16712">
        <ele>1298.6</ele>
        <time>2025-06-12T08:52:59Z</time>
      </trkpt>
      <trkpt lat="44.66971" lon="6.16711">
        <ele>1298.8</ele>
        <time>2025-06-12T08:53:00Z</time>
      </trkpt>
      <trkpt lat="44.66974" lon="6.16711">
        <ele>1299</ele>
        <time>2025-06-12T08:53:01Z</time>
      </trkpt>
      <trkpt lat="44.66976" lon="6.1671">
        <ele>1299</ele>
        <time>2025-06-12T08:53:02Z</time>
      </trkpt>
      <trkpt lat="44.66978" lon="6.16709">
        <ele>1299.2</ele>
        <time>2025-06-12T08:53:03Z</time>
      </trkpt>
      <trkpt lat="44.66981" lon="6.16708">
        <ele>1299.4</ele>
        <time>2025-06-12T08:53:04Z</time>
      </trkpt>
      <trkpt lat="44.66983" lon="6.16707">
        <ele>1299.4</ele>
        <time>2025-06-12T08:53:05Z</time>
      </trkpt>
      <trkpt lat="44.66985" lon="6.16706">
        <ele>1299.6</ele>
        <time>2025-06-12T08:53:06Z</time>
      </trkpt>
      <trkpt lat="44.66988" lon="6.16705">
        <ele>1299.8</ele>
        <time>2025-06-12T08:53:07Z</time>
      </trkpt>
      <trkpt lat="44.6699" lon="6.16704">
        <ele>1300</ele>
        <time>2025-06-12T08:53:08Z</time>
      </trkpt>
      <trkpt lat="44.66992" lon="6.16703">
        <ele>1300.2</ele>
        <time>2025-06-12T08:53:09Z</time>
      </trkpt>
      <trkpt lat="44.66995" lon="6.16702">
        <ele>1300.4</ele>
        <time>2025-06-12T08:53:10Z</time>
      </trkpt>
      <trkpt lat="44.66997" lon="6.167">
        <ele>1300.6</ele>
        <time>2025-06-12T08:53:11Z</time>
      </trkpt>
      <trkpt lat="44.66999" lon="6.16698">
        <ele>1300.8</ele>
        <time>2025-06-12T08:53:12Z</time>
      </trkpt>
      <trkpt lat="44.67001" lon="6.16697">
        <ele>1301</ele>
        <time>2025-06-12T08:53:13Z</time>
      </trkpt>
      <trkpt lat="44.67004" lon="6.16695">
        <ele>1301.2</ele>
        <time>2025-06-12T08:53:14Z</time>
      </trkpt>
      <trkpt lat="44.67006" lon="6.16694">
        <ele>1301.4</ele>
        <time>2025-06-12T08:53:15Z</time>
      </trkpt>
      <trkpt lat="44.67011" lon="6.1669">
        <ele>1301.6</ele>
        <time>2025-06-12T08:53:17Z</time>
      </trkpt>
      <trkpt lat="44.67015" lon="6.16686">
        <ele>1301.8</ele>
        <time>2025-06-12T08:53:19Z</time>
      </trkpt>
      <trkpt lat="44.67017" lon="6.16684">
        <ele>1301.8</ele>
        <time>2025-06-12T08:53:20Z</time>
      </trkpt>
      <trkpt lat="44.67019" lon="6.16682">
        <ele>1302</ele>
        <time>2025-06-12T08:53:21Z</time>
      </trkpt>
      <trkpt lat="44.67021" lon="6.16679">
        <ele>1302</ele>
        <time>2025-06-12T08:53:22Z</time>
      </trkpt>
      <trkpt lat="44.67024" lon="6.16677">
        <ele>1302.2</ele>
        <time>2025-06-12T08:53:23Z</time>
      </trkpt>
      <trkpt lat="44.67026" lon="6.16674">
        <ele>1302.4</ele>
        <time>2025-06-12T08:53:24Z</time>
      </trkpt>
      <trkpt lat="44.67028" lon="6.16672">
        <ele>1302.6</ele>
        <time>2025-06-12T08:53:25Z</time>
      </trkpt>
      <trkpt lat="44.6703" lon="6.16669">
        <ele>1303</ele>
        <time>2025-06-12T08:53:26Z</time>
      </trkpt>
      <trkpt lat="44.67032" lon="6.16667">
        <ele>1303</ele>
        <time>2025-06-12T08:53:27Z</time>
      </trkpt>
      <trkpt lat="44.67034" lon="6.16664">
        <ele>1303.2</ele>
        <time>2025-06-12T08:53:28Z</time>
      </trkpt>
      <trkpt lat="44.67038" lon="6.16659">
        <ele>1303.2</ele>
        <time>2025-06-12T08:53:30Z</time>
      </trkpt>
      <trkpt lat="44.67042" lon="6.16654">
        <ele>1303.2</ele>
        <time>2025-06-12T08:53:32Z</time>
      </trkpt>
      <trkpt lat="44.67044" lon="6.16651">
        <ele>1303.4</ele>
        <time>2025-06-12T08:53:33Z</time>
      </trkpt>
      <trkpt lat="44.67046" lon="6.16648">
        <ele>1303.6</ele>
        <time>2025-06-12T08:53:34Z</time>
      </trkpt>
      <trkpt lat="44.67048" lon="6.16646">
        <ele>1304</ele>
        <time>2025-06-12T08:53:35Z</time>
      </trkpt>
      <trkpt lat="44.6705" lon="6.16643">
        <ele>1304</ele>
        <time>2025-06-12T08:53:36Z</time>
      </trkpt>
      <trkpt lat="44.67052" lon="6.1664">
        <ele>1304.2</ele>
        <time>2025-06-12T08:53:37Z</time>
      </trkpt>
      <trkpt lat="44.67056" lon="6.16635">
        <ele>1304.4</ele>
        <time>2025-06-12T08:53:39Z</time>
      </trkpt>
      <trkpt lat="44.6706" lon="6.16629">
        <ele>1304.8</ele>
        <time>2025-06-12T08:53:41Z</time>
      </trkpt>
      <trkpt lat="44.67064" lon="6.16623">
        <ele>1305</ele>
        <time>2025-06-12T08:53:43Z</time>
      </trkpt>
      <trkpt lat="44.67066" lon="6.1662">
        <ele>1305</ele>
        <time>2025-06-12T08:53:44Z</time>
      </trkpt>
      <trkpt lat="44.67068" lon="6.16618">
        <ele>1305.2</ele>
        <time>2025-06-12T08:53:45Z</time>
      </trkpt>
      <trkpt lat="44.6707" lon="6.16615">
        <ele>1305.4</ele>
        <time>2025-06-12T08:53:46Z</time>
      </trkpt>
      <trkpt lat="44.67071" lon="6.16612">
        <ele>1305.6</ele>
        <time>2025-06-12T08:53:47Z</time>
      </trkpt>
      <trkpt lat="44.67073" lon="6.16609">
        <ele>1305.6</ele>
        <time>2025-06-12T08:53:48Z</time>
      </trkpt>
      <trkpt lat="44.67075" lon="6.16606">
        <ele>1305.8</ele>
        <time>2025-06-12T08:53:49Z</time>
      </trkpt>
      <trkpt lat="44.67077" lon="6.16604">
        <ele>1306</ele>
        <time>2025-06-12T08:53:50Z</time>
      </trkpt>
      <trkpt lat="44.67079" lon="6.16601">
        <ele>1306</ele>
        <time>2025-06-12T08:53:51Z</time>
      </trkpt>
      <trkpt lat="44.6708" lon="6.16598">
        <ele>1306.2</ele>
        <time>2025-06-12T08:53:52Z</time>
      </trkpt>
      <trkpt lat="44.67082" lon="6.16596">
        <ele>1306.2</ele>
        <time>2025-06-12T08:53:53Z</time>
      </trkpt>
      <trkpt lat="44.67084" lon="6.16593">
        <ele>1306.2</ele>
        <time>2025-06-12T08:53:54Z</time>
      </trkpt>
      <trkpt lat="44.67088" lon="6.16588">
        <ele>1306.4</ele>
        <time>2025-06-12T08:53:56Z</time>
      </trkpt>
      <trkpt lat="44.67091" lon="6.16582">
        <ele>1306.8</ele>
        <time>2025-06-12T08:53:58Z</time>
      </trkpt>
      <trkpt lat="44.67094" lon="6.16577">
        <ele>1307.4</ele>
        <time>2025-06-12T08:54:00Z</time>
      </trkpt>
      <trkpt lat="44.67096" lon="6.16574">
        <ele>1307.4</ele>
        <time>2025-06-12T08:54:01Z</time>
      </trkpt>
      <trkpt lat="44.67098" lon="6.16572">
        <ele>1307.6</ele>
        <time>2025-06-12T08:54:02Z</time>
      </trkpt>
      <trkpt lat="44.671" lon="6.1657">
        <ele>1307.6</ele>
        <time>2025-06-12T08:54:03Z</time>
      </trkpt>
      <trkpt lat="44.67102" lon="6.16568">
        <ele>1308</ele>
        <time>2025-06-12T08:54:04Z</time>
      </trkpt>
      <trkpt lat="44.67104" lon="6.16566">
        <ele>1308</ele>
        <time>2025-06-12T08:54:05Z</time>
      </trkpt>
      <trkpt lat="44.67108" lon="6.16563">
        <ele>1308.2</ele>
        <time>2025-06-12T08:54:07Z</time>
      </trkpt>
      <trkpt lat="44.67113" lon="6.16561">
        <ele>1308.6</ele>
        <time>2025-06-12T08:54:09Z</time>
      </trkpt>
      <trkpt lat="44.67116" lon="6.1656">
        <ele>1308.8</ele>
        <time>2025-06-12T08:54:10Z</time>
      </trkpt>
      <trkpt lat="44.67118" lon="6.16558">
        <ele>1308.8</ele>
        <time>2025-06-12T08:54:11Z</time>
      </trkpt>
      <trkpt lat="44.67121" lon="6.16558">
        <ele>1309</ele>
        <time>2025-06-12T08:54:12Z</time>
      </trkpt>
      <trkpt lat="44.67123" lon="6.16557">
        <ele>1309.2</ele>
        <time>2025-06-12T08:54:13Z</time>
      </trkpt>
      <trkpt lat="44.67125" lon="6.16556">
        <ele>1309.4</ele>
        <time>2025-06-12T08:54:14Z</time>
      </trkpt>
      <trkpt lat="44.67129" lon="6.16555">
        <ele>1309.6</ele>
        <time>2025-06-12T08:54:16Z</time>
      </trkpt>
      <trkpt lat="44.67134" lon="6.16555">
        <ele>1310</ele>
        <time>2025-06-12T08:54:18Z</time>
      </trkpt>
      <trkpt lat="44.67137" lon="6.16556">
        <ele>1310</ele>
        <time>2025-06-12T08:54:19Z</time>
      </trkpt>
      <trkpt lat="44.67139" lon="6.16557">
        <ele>1310.2</ele>
        <time>2025-06-12T08:54:20Z</time>
      </trkpt>
      <trkpt lat="44.67142" lon="6.16559">
        <ele>1310.4</ele>
        <time>2025-06-12T08:54:21Z</time>
      </trkpt>
      <trkpt lat="44.67144" lon="6.1656">
        <ele>1310.6</ele>
        <time>2025-06-12T08:54:22Z</time>
      </trkpt>
      <trkpt lat="44.67147" lon="6.16562">
        <ele>1310.8</ele>
        <time>2025-06-12T08:54:23Z</time>
      </trkpt>
      <trkpt lat="44.67149" lon="6.16563">
        <ele>1310.8</ele>
        <time>2025-06-12T08:54:24Z</time>
      </trkpt>
      <trkpt lat="44.67151" lon="6.16565">
        <ele>1311</ele>
        <time>2025-06-12T08:54:25Z</time>
      </trkpt>
      <trkpt lat="44.67155" lon="6.16569">
        <ele>1311</ele>
        <time>2025-06-12T08:54:27Z</time>
      </trkpt>
      <trkpt lat="44.67159" lon="6.16573">
        <ele>1311.4</ele>
        <time>2025-06-12T08:54:29Z</time>
      </trkpt>
      <trkpt lat="44.67161" lon="6.16575">
        <ele>1311.6</ele>
        <time>2025-06-12T08:54:30Z</time>
      </trkpt>
      <trkpt lat="44.67163" lon="6.16577">
        <ele>1311.8</ele>
        <time>2025-06-12T08:54:31Z</time>
      </trkpt>
      <trkpt lat="44.67165" lon="6.1658">
        <ele>1312</ele>
        <time>2025-06-12T08:54:32Z</time>
      </trkpt>
      <trkpt lat="44.67167" lon="6.16581">
        <ele>1312.2</ele>
        <time>2025-06-12T08:54:33Z</time>
      </trkpt>
      <trkpt lat="44.67168" lon="6.16583">
        <ele>1312.4</ele>
        <time>2025-06-12T08:54:34Z</time>
      </trkpt>
      <trkpt lat="44.6717" lon="6.16585">
        <ele>1312.6</ele>
        <time>2025-06-12T08:54:35Z</time>
      </trkpt>
      <trkpt lat="44.67172" lon="6.16587">
        <ele>1312.8</ele>
        <time>2025-06-12T08:54:36Z</time>
      </trkpt>
      <trkpt lat="44.67174" lon="6.1659">
        <ele>1313</ele>
        <time>2025-06-12T08:54:37Z</time>
      </trkpt>
      <trkpt lat="44.67176" lon="6.16592">
        <ele>1313</ele>
        <time>2025-06-12T08:54:38Z</time>
      </trkpt>
      <trkpt lat="44.67178" lon="6.16594">
        <ele>1313.2</ele>
        <time>2025-06-12T08:54:39Z</time>
      </trkpt>
      <trkpt lat="44.6718" lon="6.16596">
        <ele>1313.4</ele>
        <time>2025-06-12T08:54:40Z</time>
      </trkpt>
      <trkpt lat="44.67182" lon="6.16598">
        <ele>1313.4</ele>
        <time>2025-06-12T08:54:41Z</time>
      </trkpt>
      <trkpt lat="44.67184" lon="6.16601">
        <ele>1313.8</ele>
        <time>2025-06-12T08:54:42Z</time>
      </trkpt>
      <trkpt lat="44.67187" lon="6.16602">
        <ele>1314</ele>
        <time>2025-06-12T08:54:43Z</time>
      </trkpt>
      <trkpt lat="44.67189" lon="6.16604">
        <ele>1314.2</ele>
        <time>2025-06-12T08:54:44Z</time>
      </trkpt>
      <trkpt lat="44.67192" lon="6.16605">
        <ele>1314.4</ele>
        <time>2025-06-12T08:54:45Z</time>
      </trkpt>
      <trkpt lat="44.67198" lon="6.16605">
        <ele>1314.6</ele>
        <time>2025-06-12T08:54:47Z</time>
      </trkpt>
      <trkpt lat="44.67201" lon="6.16606">
        <ele>1314.8</ele>
        <time>2025-06-12T08:54:48Z</time>
      </trkpt>
      <trkpt lat="44.67204" lon="6.16606">
        <ele>1315</ele>
        <time>2025-06-12T08:54:49Z</time>
      </trkpt>
      <trkpt lat="44.67209" lon="6.16605">
        <ele>1315.2</ele>
        <time>2025-06-12T08:54:51Z</time>
      </trkpt>
      <trkpt lat="44.67214" lon="6.16603">
        <ele>1315.4</ele>
        <time>2025-06-12T08:54:53Z</time>
      </trkpt>
      <trkpt lat="44.67217" lon="6.16602">
        <ele>1315.6</ele>
        <time>2025-06-12T08:54:54Z</time>
      </trkpt>
      <trkpt lat="44.6722" lon="6.166">
        <ele>1315.6</ele>
        <time>2025-06-12T08:54:55Z</time>
      </trkpt>
      <trkpt lat="44.67222" lon="6.16599">
        <ele>1315.6</ele>
        <time>2025-06-12T08:54:56Z</time>
      </trkpt>
      <trkpt lat="44.67225" lon="6.16597">
        <ele>1315.8</ele>
        <time>2025-06-12T08:54:57Z</time>
      </trkpt>
      <trkpt lat="44.67227" lon="6.16594">
        <ele>1315.8</ele>
        <time>2025-06-12T08:54:58Z</time>
      </trkpt>
      <trkpt lat="44.67232" lon="6.16589">
        <ele>1316.2</ele>
        <time>2025-06-12T08:55:00Z</time>
      </trkpt>
      <trkpt lat="44.67236" lon="6.16582">
        <ele>1316.6</ele>
        <time>2025-06-12T08:55:02Z</time>
      </trkpt>
      <trkpt lat="44.6724" lon="6.16576">
        <ele>1316.8</ele>
        <time>2025-06-12T08:55:04Z</time>
      </trkpt>
      <trkpt lat="44.67243" lon="6.16573">
        <ele>1316.8</ele>
        <time>2025-06-12T08:55:05Z</time>
      </trkpt>
      <trkpt lat="44.67245" lon="6.1657">
        <ele>1317</ele>
        <time>2025-06-12T08:55:06Z</time>
      </trkpt>
      <trkpt lat="44.6725" lon="6.16563">
        <ele>1317.2</ele>
        <time>2025-06-12T08:55:08Z</time>
      </trkpt>
      <trkpt lat="44.67252" lon="6.1656">
        <ele>1317.4</ele>
        <time>2025-06-12T08:55:09Z</time>
      </trkpt>
      <trkpt lat="44.67254" lon="6.16557">
        <ele>1317.6</ele>
        <time>2025-06-12T08:55:10Z</time>
      </trkpt>
      <trkpt lat="44.67256" lon="6.16554">
        <ele>1317.8</ele>
        <time>2025-06-12T08:55:11Z</time>
      </trkpt>
      <trkpt lat="44.67259" lon="6.1655">
        <ele>1317.8</ele>
        <time>2025-06-12T08:55:12Z</time>
      </trkpt>
      <trkpt lat="44.6726" lon="6.16546">
        <ele>1317.8</ele>
        <time>2025-06-12T08:55:13Z</time>
      </trkpt>
      <trkpt lat="44.67262" lon="6.16543">
        <ele>1317.8</ele>
        <time>2025-06-12T08:55:14Z</time>
      </trkpt>
      <trkpt lat="44.67264" lon="6.16539">
        <ele>1317.8</ele>
        <time>2025-06-12T08:55:15Z</time>
      </trkpt>
      <trkpt lat="44.67268" lon="6.16532">
        <ele>1318.2</ele>
        <time>2025-06-12T08:55:17Z</time>
      </trkpt>
      <trkpt lat="44.67272" lon="6.16525">
        <ele>1318.4</ele>
        <time>2025-06-12T08:55:19Z</time>
      </trkpt>
      <trkpt lat="44.67275" lon="6.16521">
        <ele>1318.4</ele>
        <time>2025-06-12T08:55:20Z</time>
      </trkpt>
      <trkpt lat="44.67277" lon="6.16518">
        <ele>1318.4</ele>
        <time>2025-06-12T08:55:21Z</time>
      </trkpt>
      <trkpt lat="44.67279" lon="6.16514">
        <ele>1318.4</ele>
        <time>2025-06-12T08:55:22Z</time>
      </trkpt>
      <trkpt lat="44.67281" lon="6.1651">
        <ele>1318.6</ele>
        <time>2025-06-12T08:55:23Z</time>
      </trkpt>
      <trkpt lat="44.67284" lon="6.16507">
        <ele>1318.6</ele>
        <time>2025-06-12T08:55:24Z</time>
      </trkpt>
      <trkpt lat="44.67289" lon="6.16499">
        <ele>1318.6</ele>
        <time>2025-06-12T08:55:26Z</time>
      </trkpt>
      <trkpt lat="44.67291" lon="6.16495">
        <ele>1318.8</ele>
        <time>2025-06-12T08:55:27Z</time>
      </trkpt>
      <trkpt lat="44.67294" lon="6.16491">
        <ele>1318.8</ele>
        <time>2025-06-12T08:55:28Z</time>
      </trkpt>
      <trkpt lat="44.67297" lon="6.16487">
        <ele>1318.8</ele>
        <time>2025-06-12T08:55:29Z</time>
      </trkpt>
      <trkpt lat="44.673" lon="6.16484">
        <ele>1319</ele>
        <time>2025-06-12T08:55:30Z</time>
      </trkpt>
      <trkpt lat="44.67306" lon="6.16476">
        <ele>1319</ele>
        <time>2025-06-12T08:55:32Z</time>
      </trkpt>
      <trkpt lat="44.67309" lon="6.16473">
        <ele>1319</ele>
        <time>2025-06-12T08:55:33Z</time>
      </trkpt>
      <trkpt lat="44.67312" lon="6.16469">
        <ele>1319.2</ele>
        <time>2025-06-12T08:55:34Z</time>
      </trkpt>
      <trkpt lat="44.67315" lon="6.16465">
        <ele>1319.2</ele>
        <time>2025-06-12T08:55:35Z</time>
      </trkpt>
      <trkpt lat="44.67319" lon="6.16461">
        <ele>1319.4</ele>
        <time>2025-06-12T08:55:36Z</time>
      </trkpt>
      <trkpt lat="44.67322" lon="6.16457">
        <ele>1319.4</ele>
        <time>2025-06-12T08:55:37Z</time>
      </trkpt>
      <trkpt lat="44.67325" lon="6.16454">
        <ele>1319.4</ele>
        <time>2025-06-12T08:55:38Z</time>
      </trkpt>
      <trkpt lat="44.67329" lon="6.1645">
        <ele>1319.6</ele>
        <time>2025-06-12T08:55:39Z</time>
      </trkpt>
      <trkpt lat="44.67333" lon="6.16447">
        <ele>1319.8</ele>
        <time>2025-06-12T08:55:40Z</time>
      </trkpt>
      <trkpt lat="44.67337" lon="6.16444">
        <ele>1319.8</ele>
        <time>2025-06-12T08:55:41Z</time>
      </trkpt>
      <trkpt lat="44.67345" lon="6.16437">
        <ele>1319.8</ele>
        <time>2025-06-12T08:55:43Z</time>
      </trkpt>
      <trkpt lat="44.67354" lon="6.1643">
        <ele>1319.8</ele>
        <time>2025-06-12T08:55:45Z</time>
      </trkpt>
      <trkpt lat="44.67363" lon="6.16423">
        <ele>1319.8</ele>
        <time>2025-06-12T08:55:47Z</time>
      </trkpt>
      <trkpt lat="44.67372" lon="6.16417">
        <ele>1319.8</ele>
        <time>2025-06-12T08:55:49Z</time>
      </trkpt>
      <trkpt lat="44.67376" lon="6.16413">
        <ele>1319.8</ele>
        <time>2025-06-12T08:55:50Z</time>
      </trkpt>
      <trkpt lat="44.67381" lon="6.16411">
        <ele>1319.6</ele>
        <time>2025-06-12T08:55:51Z</time>
      </trkpt>
      <trkpt lat="44.67385" lon="6.16408">
        <ele>1319.4</ele>
        <time>2025-06-12T08:55:52Z</time>
      </trkpt>
      <trkpt lat="44.67389" lon="6.16406">
        <ele>1319.4</ele>
        <time>2025-06-12T08:55:53Z</time>
      </trkpt>
      <trkpt lat="44.67393" lon="6.16405">
        <ele>1319.4</ele>
        <time>2025-06-12T08:55:54Z</time>
      </trkpt>
      <trkpt lat="44.67397" lon="6.16403">
        <ele>1319.4</ele>
        <time>2025-06-12T08:55:55Z</time>
      </trkpt>
      <trkpt lat="44.67401" lon="6.16402">
        <ele>1319.4</ele>
        <time>2025-06-12T08:55:56Z</time>
      </trkpt>
      <trkpt lat="44.67405" lon="6.164">
        <ele>1319.4</ele>
        <time>2025-06-12T08:55:57Z</time>
      </trkpt>
      <trkpt lat="44.67409" lon="6.16398">
        <ele>1319.4</ele>
        <time>2025-06-12T08:55:58Z</time>
      </trkpt>
      <trkpt lat="44.67416" lon="6.16396">
        <ele>1319.8</ele>
        <time>2025-06-12T08:56:00Z</time>
      </trkpt>
      <trkpt lat="44.67419" lon="6.16394">
        <ele>1320</ele>
        <time>2025-06-12T08:56:01Z</time>
      </trkpt>
      <trkpt lat="44.67423" lon="6.16393">
        <ele>1320.2</ele>
        <time>2025-06-12T08:56:02Z</time>
      </trkpt>
      <trkpt lat="44.67429" lon="6.1639">
        <ele>1320.4</ele>
        <time>2025-06-12T08:56:04Z</time>
      </trkpt>
      <trkpt lat="44.67436" lon="6.16387">
        <ele>1320.6</ele>
        <time>2025-06-12T08:56:06Z</time>
      </trkpt>
      <trkpt lat="44.67439" lon="6.16386">
        <ele>1321</ele>
        <time>2025-06-12T08:56:07Z</time>
      </trkpt>
      <trkpt lat="44.67442" lon="6.16385">
        <ele>1321.2</ele>
        <time>2025-06-12T08:56:08Z</time>
      </trkpt>
      <trkpt lat="44.67445" lon="6.16383">
        <ele>1321.4</ele>
        <time>2025-06-12T08:56:09Z</time>
      </trkpt>
      <trkpt lat="44.67449" lon="6.16382">
        <ele>1321.8</ele>
        <time>2025-06-12T08:56:10Z</time>
      </trkpt>
      <trkpt lat="44.67452" lon="6.1638">
        <ele>1322</ele>
        <time>2025-06-12T08:56:11Z</time>
      </trkpt>
      <trkpt lat="44.67455" lon="6.16379">
        <ele>1322.2</ele>
        <time>2025-06-12T08:56:12Z</time>
      </trkpt>
      <trkpt lat="44.67458" lon="6.16378">
        <ele>1322.4</ele>
        <time>2025-06-12T08:56:13Z</time>
      </trkpt>
      <trkpt lat="44.67461" lon="6.16377">
        <ele>1322.6</ele>
        <time>2025-06-12T08:56:14Z</time>
      </trkpt>
      <trkpt lat="44.67464" lon="6.16376">
        <ele>1322.8</ele>
        <time>2025-06-12T08:56:15Z</time>
      </trkpt>
      <trkpt lat="44.67468" lon="6.16374">
        <ele>1323.2</ele>
        <time>2025-06-12T08:56:16Z</time>
      </trkpt>
      <trkpt lat="44.67471" lon="6.16373">
        <ele>1323.4</ele>
        <time>2025-06-12T08:56:17Z</time>
      </trkpt>
      <trkpt lat="44.67474" lon="6.16371">
        <ele>1323.6</ele>
        <time>2025-06-12T08:56:18Z</time>
      </trkpt>
      <trkpt lat="44.67478" lon="6.1637">
        <ele>1323.8</ele>
        <time>2025-06-12T08:56:19Z</time>
      </trkpt>
      <trkpt lat="44.67481" lon="6.16369">
        <ele>1324</ele>
        <time>2025-06-12T08:56:20Z</time>
      </trkpt>
      <trkpt lat="44.67484" lon="6.16368">
        <ele>1324</ele>
        <time>2025-06-12T08:56:21Z</time>
      </trkpt>
      <trkpt lat="44.67491" lon="6.16366">
        <ele>1324.4</ele>
        <time>2025-06-12T08:56:23Z</time>
      </trkpt>
      <trkpt lat="44.67497" lon="6.16363">
        <ele>1324.8</ele>
        <time>2025-06-12T08:56:25Z</time>
      </trkpt>
      <trkpt lat="44.675" lon="6.16362">
        <ele>1325</ele>
        <time>2025-06-12T08:56:26Z</time>
      </trkpt>
      <trkpt lat="44.67503" lon="6.1636">
        <ele>1325.2</ele>
        <time>2025-06-12T08:56:27Z</time>
      </trkpt>
      <trkpt lat="44.67507" lon="6.16359">
        <ele>1325.8</ele>
        <time>2025-06-12T08:56:28Z</time>
      </trkpt>
      <trkpt lat="44.6751" lon="6.16358">
        <ele>1326</ele>
        <time>2025-06-12T08:56:29Z</time>
      </trkpt>
      <trkpt lat="44.67513" lon="6.16357">
        <ele>1326.2</ele>
        <time>2025-06-12T08:56:30Z</time>
      </trkpt>
      <trkpt lat="44.67517" lon="6.16355">
        <ele>1326.4</ele>
        <time>2025-06-12T08:56:31Z</time>
      </trkpt>
      <trkpt lat="44.6752" lon="6.16354">
        <ele>1326.6</ele>
        <time>2025-06-12T08:56:32Z</time>
      </trkpt>
      <trkpt lat="44.67523" lon="6.16352">
        <ele>1326.8</ele>
        <time>2025-06-12T08:56:33Z</time>
      </trkpt>
      <trkpt lat="44.67526" lon="6.16351">
        <ele>1326.8</ele>
        <time>2025-06-12T08:56:34Z</time>
      </trkpt>
      <trkpt lat="44.67529" lon="6.1635">
        <ele>1327</ele>
        <time>2025-06-12T08:56:35Z</time>
      </trkpt>
      <trkpt lat="44.67532" lon="6.16348">
        <ele>1327.2</ele>
        <time>2025-06-12T08:56:36Z</time>
      </trkpt>
      <trkpt lat="44.67536" lon="6.16346">
        <ele>1327.4</ele>
        <time>2025-06-12T08:56:37Z</time>
      </trkpt>
      <trkpt lat="44.67539" lon="6.16344">
        <ele>1327.6</ele>
        <time>2025-06-12T08:56:38Z</time>
      </trkpt>
      <trkpt lat="44.67542" lon="6.16342">
        <ele>1327.6</ele>
        <time>2025-06-12T08:56:39Z</time>
      </trkpt>
      <trkpt lat="44.67544" lon="6.1634">
        <ele>1327.8</ele>
        <time>2025-06-12T08:56:40Z</time>
      </trkpt>
      <trkpt lat="44.6755" lon="6.16335">
        <ele>1328</ele>
        <time>2025-06-12T08:56:42Z</time>
      </trkpt>
      <trkpt lat="44.67553" lon="6.16332">
        <ele>1328.2</ele>
        <time>2025-06-12T08:56:43Z</time>
      </trkpt>
      <trkpt lat="44.67555" lon="6.16329">
        <ele>1328.2</ele>
        <time>2025-06-12T08:56:44Z</time>
      </trkpt>
      <trkpt lat="44.67558" lon="6.16326">
        <ele>1328.4</ele>
        <time>2025-06-12T08:56:45Z</time>
      </trkpt>
      <trkpt lat="44.6756" lon="6.16322">
        <ele>1328.4</ele>
        <time>2025-06-12T08:56:46Z</time>
      </trkpt>
      <trkpt lat="44.67565" lon="6.16315">
        <ele>1328.6</ele>
        <time>2025-06-12T08:56:48Z</time>
      </trkpt>
      <trkpt lat="44.67567" lon="6.16312">
        <ele>1328.6</ele>
        <time>2025-06-12T08:56:49Z</time>
      </trkpt>
      <trkpt lat="44.6757" lon="6.16309">
        <ele>1328.8</ele>
        <time>2025-06-12T08:56:50Z</time>
      </trkpt>
      <trkpt lat="44.67572" lon="6.16306">
        <ele>1329</ele>
        <time>2025-06-12T08:56:51Z</time>
      </trkpt>
      <trkpt lat="44.67574" lon="6.16302">
        <ele>1329</ele>
        <time>2025-06-12T08:56:52Z</time>
      </trkpt>
      <trkpt lat="44.67576" lon="6.16299">
        <ele>1329</ele>
        <time>2025-06-12T08:56:53Z</time>
      </trkpt>
      <trkpt lat="44.67578" lon="6.16296">
        <ele>1329</ele>
        <time>2025-06-12T08:56:54Z</time>
      </trkpt>
      <trkpt lat="44.6758" lon="6.16293">
        <ele>1329.2</ele>
        <time>2025-06-12T08:56:55Z</time>
      </trkpt>
      <trkpt lat="44.67582" lon="6.16289">
        <ele>1329.4</ele>
        <time>2025-06-12T08:56:56Z</time>
      </trkpt>
      <trkpt lat="44.67584" lon="6.16287">
        <ele>1329.4</ele>
        <time>2025-06-12T08:56:57Z</time>
      </trkpt>
      <trkpt lat="44.67587" lon="6.16285">
        <ele>1329.6</ele>
        <time>2025-06-12T08:56:58Z</time>
      </trkpt>
      <trkpt lat="44.6759" lon="6.16284">
        <ele>1329.8</ele>
        <time>2025-06-12T08:56:59Z</time>
      </trkpt>
      <trkpt lat="44.67593" lon="6.16283">
        <ele>1330</ele>
        <time>2025-06-12T08:57:00Z</time>
      </trkpt>
      <trkpt lat="44.67596" lon="6.16284">
        <ele>1330.4</ele>
        <time>2025-06-12T08:57:01Z</time>
      </trkpt>
      <trkpt lat="44.67601" lon="6.16285">
        <ele>1330.6</ele>
        <time>2025-06-12T08:57:03Z</time>
      </trkpt>
      <trkpt lat="44.67605" lon="6.16286">
        <ele>1331</ele>
        <time>2025-06-12T08:57:05Z</time>
      </trkpt>
      <trkpt lat="44.67607" lon="6.16286">
        <ele>1331</ele>
        <time>2025-06-12T08:57:06Z</time>
      </trkpt>
      <trkpt lat="44.67608" lon="6.16286">
        <ele>1331.2</ele>
        <time>2025-06-12T08:57:07Z</time>
      </trkpt>
      <trkpt lat="44.67609" lon="6.16285">
        <ele>1331.4</ele>
        <time>2025-06-12T08:57:08Z</time>
      </trkpt>
      <trkpt lat="44.6761" lon="6.16285">
        <ele>1331.6</ele>
        <time>2025-06-12T08:57:09Z</time>
      </trkpt>
      <trkpt lat="44.6761" lon="6.16285">
        <ele>1331.8</ele>
        <time>2025-06-12T08:57:10Z</time>
      </trkpt>
      <trkpt lat="44.6761" lon="6.16285">
        <ele>1332</ele>
        <time>2025-06-12T08:57:11Z</time>
      </trkpt>
      <trkpt lat="44.6761" lon="6.16285">
        <ele>1332.2</ele>
        <time>2025-06-12T08:57:12Z</time>
      </trkpt>
      <trkpt lat="44.6761" lon="6.16285">
        <ele>1332.4</ele>
        <time>2025-06-12T08:57:13Z</time>
      </trkpt>
      <trkpt lat="44.6761" lon="6.16285">
        <ele>1332.6</ele>
        <time>2025-06-12T08:57:14Z</time>
      </trkpt>
      <trkpt lat="44.67611" lon="6.16286">
        <ele>1332.8</ele>
        <time>2025-06-12T08:57:15Z</time>
      </trkpt>
      <trkpt lat="44.67612" lon="6.16286">
        <ele>1333</ele>
        <time>2025-06-12T08:57:16Z</time>
      </trkpt>
      <trkpt lat="44.67612" lon="6.16287">
        <ele>1333</ele>
        <time>2025-06-12T08:57:17Z</time>
      </trkpt>
      <trkpt lat="44.67611" lon="6.16287">
        <ele>1333.2</ele>
        <time>2025-06-12T08:57:18Z</time>
      </trkpt>
      <trkpt lat="44.67611" lon="6.16288">
        <ele>1333</ele>
        <time>2025-06-12T08:57:19Z</time>
      </trkpt>
      <trkpt lat="44.6761" lon="6.16289">
        <ele>1333.2</ele>
        <time>2025-06-12T08:57:20Z</time>
      </trkpt>
      <trkpt lat="44.67608" lon="6.16289">
        <ele>1333.2</ele>
        <time>2025-06-12T08:57:21Z</time>
      </trkpt>
      <trkpt lat="44.67606" lon="6.1629">
        <ele>1333.2</ele>
        <time>2025-06-12T08:57:22Z</time>
      </trkpt>
      <trkpt lat="44.67604" lon="6.16289">
        <ele>1333.2</ele>
        <time>2025-06-12T08:57:23Z</time>
      </trkpt>
      <trkpt lat="44.67601" lon="6.16288">
        <ele>1333.2</ele>
        <time>2025-06-12T08:57:24Z</time>
      </trkpt>
      <trkpt lat="44.67598" lon="6.16286">
        <ele>1333.2</ele>
        <time>2025-06-12T08:57:25Z</time>
      </trkpt>
      <trkpt lat="44.67594" lon="6.16284">
        <ele>1333.2</ele>
        <time>2025-06-12T08:57:26Z</time>
      </trkpt>
      <trkpt lat="44.67589" lon="6.16282">
        <ele>1333.2</ele>
        <time>2025-06-12T08:57:28Z</time>
      </trkpt>
      <trkpt lat="44.67585" lon="6.16283">
        <ele>1333.2</ele>
        <time>2025-06-12T08:57:30Z</time>
      </trkpt>
      <trkpt lat="44.67584" lon="6.16284">
        <ele>1333</ele>
        <time>2025-06-12T08:57:32Z</time>
      </trkpt>
      <trkpt lat="44.67584" lon="6.16284">
        <ele>1332.8</ele>
        <time>2025-06-12T08:57:33Z</time>
      </trkpt>
      <trkpt lat="44.67584" lon="6.16284">
        <ele>1332.4</ele>
        <time>2025-06-12T08:57:34Z</time>
      </trkpt>
      <trkpt lat="44.67584" lon="6.16285">
        <ele>1332.2</ele>
        <time>2025-06-12T08:57:35Z</time>
      </trkpt>
      <trkpt lat="44.67583" lon="6.16285">
        <ele>1332</ele>
        <time>2025-06-12T08:57:36Z</time>
      </trkpt>
      <trkpt lat="44.67582" lon="6.16287">
        <ele>1331.8</ele>
        <time>2025-06-12T08:57:37Z</time>
      </trkpt>
      <trkpt lat="44.67584" lon="6.16293">
        <ele>1331.6</ele>
        <time>2025-06-12T08:57:42Z</time>
      </trkpt>
      <trkpt lat="44.67584" lon="6.16293">
        <ele>1331.6</ele>
        <time>2025-06-12T08:57:44Z</time>
      </trkpt>
      <trkpt lat="44.67584" lon="6.16293">
        <ele>1331.6</ele>
        <time>2025-06-12T08:57:46Z</time>
      </trkpt>
      <trkpt lat="44.67584" lon="6.16293">
        <ele>1331.6</ele>
        <time>2025-06-12T08:57:47Z</time>
      </trkpt>
      <trkpt lat="44.67584" lon="6.16293">
        <ele>1331.6</ele>
        <time>2025-06-12T08:57:48Z</time>
      </trkpt>
      <trkpt lat="44.67577" lon="6.16297">
        <ele>1331</ele>
        <time>2025-06-12T09:00:24Z</time>
      </trkpt>
      <trkpt lat="44.67577" lon="6.16298">
        <ele>1331</ele>
        <time>2025-06-12T09:00:25Z</time>
      </trkpt>
      <trkpt lat="44.67576" lon="6.16299">
        <ele>1331</ele>
        <time>2025-06-12T09:00:26Z</time>
      </trkpt>
      <trkpt lat="44.67575" lon="6.163">
        <ele>1331</ele>
        <time>2025-06-12T09:00:27Z</time>
      </trkpt>
      <trkpt lat="44.67575" lon="6.16301">
        <ele>1331</ele>
        <time>2025-06-12T09:00:28Z</time>
      </trkpt>
      <trkpt lat="44.67574" lon="6.16302">
        <ele>1331</ele>
        <time>2025-06-12T09:00:29Z</time>
      </trkpt>
      <trkpt lat="44.67574" lon="6.16303">
        <ele>1331</ele>
        <time>2025-06-12T09:00:30Z</time>
      </trkpt>
      <trkpt lat="44.67573" lon="6.16304">
        <ele>1331</ele>
        <time>2025-06-12T09:00:31Z</time>
      </trkpt>
      <trkpt lat="44.67572" lon="6.16305">
        <ele>1331</ele>
        <time>2025-06-12T09:00:32Z</time>
      </trkpt>
      <trkpt lat="44.67572" lon="6.16306">
        <ele>1330.8</ele>
        <time>2025-06-12T09:00:33Z</time>
      </trkpt>
      <trkpt lat="44.67571" lon="6.16307">
        <ele>1330.8</ele>
        <time>2025-06-12T09:00:34Z</time>
      </trkpt>
      <trkpt lat="44.67571" lon="6.16308">
        <ele>1330.8</ele>
        <time>2025-06-12T09:00:35Z</time>
      </trkpt>
      <trkpt lat="44.67569" lon="6.1631">
        <ele>1330.6</ele>
        <time>2025-06-12T09:00:37Z</time>
      </trkpt>
      <trkpt lat="44.67568" lon="6.16313">
        <ele>1330.4</ele>
        <time>2025-06-12T09:00:39Z</time>
      </trkpt>
      <trkpt lat="44.67568" lon="6.16314">
        <ele>1330.4</ele>
        <time>2025-06-12T09:00:40Z</time>
      </trkpt>
      <trkpt lat="44.67567" lon="6.16315">
        <ele>1330.2</ele>
        <time>2025-06-12T09:00:41Z</time>
      </trkpt>
      <trkpt lat="44.67567" lon="6.16316">
        <ele>1330.2</ele>
        <time>2025-06-12T09:00:42Z</time>
      </trkpt>
      <trkpt lat="44.67566" lon="6.16317">
        <ele>1330</ele>
        <time>2025-06-12T09:00:43Z</time>
      </trkpt>
      <trkpt lat="44.67566" lon="6.16318">
        <ele>1330</ele>
        <time>2025-06-12T09:00:44Z</time>
      </trkpt>
      <trkpt lat="44.67566" lon="6.16319">
        <ele>1330</ele>
        <time>2025-06-12T09:00:45Z</time>
      </trkpt>
      <trkpt lat="44.67566" lon="6.1632">
        <ele>1329.8</ele>
        <time>2025-06-12T09:00:46Z</time>
      </trkpt>
      <trkpt lat="44.67566" lon="6.1632">
        <ele>1329.8</ele>
        <time>2025-06-12T09:00:48Z</time>
      </trkpt>
      <trkpt lat="44.67566" lon="6.1632">
        <ele>1329.8</ele>
        <time>2025-06-12T09:00:50Z</time>
      </trkpt>
      <trkpt lat="44.67566" lon="6.1632">
        <ele>1329.6</ele>
        <time>2025-06-12T09:00:51Z</time>
      </trkpt>
      <trkpt lat="44.67552" lon="6.16327">
        <ele>1329.2</ele>
        <time>2025-06-12T09:01:16Z</time>
      </trkpt>
      <trkpt lat="44.67549" lon="6.16329">
        <ele>1329</ele>
        <time>2025-06-12T09:01:17Z</time>
      </trkpt>
      <trkpt lat="44.67543" lon="6.16334">
        <ele>1329</ele>
        <time>2025-06-12T09:01:19Z</time>
      </trkpt>
      <trkpt lat="44.67535" lon="6.16338">
        <ele>1328.8</ele>
        <time>2025-06-12T09:01:21Z</time>
      </trkpt>
      <trkpt lat="44.67532" lon="6.1634">
        <ele>1328.6</ele>
        <time>2025-06-12T09:01:22Z</time>
      </trkpt>
      <trkpt lat="44.67528" lon="6.16342">
        <ele>1328.4</ele>
        <time>2025-06-12T09:01:23Z</time>
      </trkpt>
      <trkpt lat="44.67523" lon="6.16344">
        <ele>1328.4</ele>
        <time>2025-06-12T09:01:24Z</time>
      </trkpt>
      <trkpt lat="44.67515" lon="6.16348">
        <ele>1328.2</ele>
        <time>2025-06-12T09:01:26Z</time>
      </trkpt>
      <trkpt lat="44.67505" lon="6.16352">
        <ele>1327.8</ele>
        <time>2025-06-12T09:01:28Z</time>
      </trkpt>
      <trkpt lat="44.67501" lon="6.16353">
        <ele>1327.6</ele>
        <time>2025-06-12T09:01:29Z</time>
      </trkpt>
      <trkpt lat="44.67498" lon="6.16355">
        <ele>1327.4</ele>
        <time>2025-06-12T09:01:30Z</time>
      </trkpt>
      <trkpt lat="44.67495" lon="6.16356">
        <ele>1327.2</ele>
        <time>2025-06-12T09:01:31Z</time>
      </trkpt>
      <trkpt lat="44.67493" lon="6.16357">
        <ele>1327.2</ele>
        <time>2025-06-12T09:01:32Z</time>
      </trkpt>
      <trkpt lat="44.6749" lon="6.16358">
        <ele>1326.8</ele>
        <time>2025-06-12T09:01:33Z</time>
      </trkpt>
      <trkpt lat="44.67487" lon="6.16359">
        <ele>1326.8</ele>
        <time>2025-06-12T09:01:34Z</time>
      </trkpt>
      <trkpt lat="44.67484" lon="6.16361">
        <ele>1326.6</ele>
        <time>2025-06-12T09:01:35Z</time>
      </trkpt>
      <trkpt lat="44.67481" lon="6.16362">
        <ele>1326.4</ele>
        <time>2025-06-12T09:01:36Z</time>
      </trkpt>
      <trkpt lat="44.67477" lon="6.16364">
        <ele>1326.4</ele>
        <time>2025-06-12T09:01:37Z</time>
      </trkpt>
      <trkpt lat="44.67473" lon="6.16365">
        <ele>1326.2</ele>
        <time>2025-06-12T09:01:38Z</time>
      </trkpt>
      <trkpt lat="44.67468" lon="6.16367">
        <ele>1326.2</ele>
        <time>2025-06-12T09:01:39Z</time>
      </trkpt>
      <trkpt lat="44.67463" lon="6.16369">
        <ele>1326.2</ele>
        <time>2025-06-12T09:01:40Z</time>
      </trkpt>
      <trkpt lat="44.67458" lon="6.16371">
        <ele>1326</ele>
        <time>2025-06-12T09:01:41Z</time>
      </trkpt>
      <trkpt lat="44.67452" lon="6.16374">
        <ele>1326</ele>
        <time>2025-06-12T09:01:42Z</time>
      </trkpt>
      <trkpt lat="44.67446" lon="6.16376">
        <ele>1326</ele>
        <time>2025-06-12T09:01:43Z</time>
      </trkpt>
      <trkpt lat="44.67439" lon="6.16379">
        <ele>1325.8</ele>
        <time>2025-06-12T09:01:44Z</time>
      </trkpt>
      <trkpt lat="44.67433" lon="6.16382">
        <ele>1325.6</ele>
        <time>2025-06-12T09:01:45Z</time>
      </trkpt>
      <trkpt lat="44.67426" lon="6.16385">
        <ele>1325.2</ele>
        <time>2025-06-12T09:01:46Z</time>
      </trkpt>
      <trkpt lat="44.67419" lon="6.16388">
        <ele>1325</ele>
        <time>2025-06-12T09:01:47Z</time>
      </trkpt>
      <trkpt lat="44.67412" lon="6.16392">
        <ele>1324.6</ele>
        <time>2025-06-12T09:01:48Z</time>
      </trkpt>
      <trkpt lat="44.67406" lon="6.16395">
        <ele>1324.4</ele>
        <time>2025-06-12T09:01:49Z</time>
      </trkpt>
      <trkpt lat="44.674" lon="6.16399">
        <ele>1324</ele>
        <time>2025-06-12T09:01:50Z</time>
      </trkpt>
      <trkpt lat="44.67394" lon="6.16402">
        <ele>1323.6</ele>
        <time>2025-06-12T09:01:51Z</time>
      </trkpt>
      <trkpt lat="44.67384" lon="6.16409">
        <ele>1322.8</ele>
        <time>2025-06-12T09:01:53Z</time>
      </trkpt>
      <trkpt lat="44.67375" lon="6.16415">
        <ele>1322</ele>
        <time>2025-06-12T09:01:55Z</time>
      </trkpt>
      <trkpt lat="44.67371" lon="6.16418">
        <ele>1321.4</ele>
        <time>2025-06-12T09:01:56Z</time>
      </trkpt>
      <trkpt lat="44.67367" lon="6.1642">
        <ele>1321</ele>
        <time>2025-06-12T09:01:57Z</time>
      </trkpt>
      <trkpt lat="44.67364" lon="6.16423">
        <ele>1320.8</ele>
        <time>2025-06-12T09:01:58Z</time>
      </trkpt>
      <trkpt lat="44.67361" lon="6.16426">
        <ele>1320.4</ele>
        <time>2025-06-12T09:01:59Z</time>
      </trkpt>
      <trkpt lat="44.67359" lon="6.16428">
        <ele>1320.2</ele>
        <time>2025-06-12T09:02:00Z</time>
      </trkpt>
      <trkpt lat="44.67356" lon="6.16429">
        <ele>1320</ele>
        <time>2025-06-12T09:02:01Z</time>
      </trkpt>
      <trkpt lat="44.67355" lon="6.16432">
        <ele>1320</ele>
        <time>2025-06-12T09:02:02Z</time>
      </trkpt>
      <trkpt lat="44.67354" lon="6.16434">
        <ele>1320</ele>
        <time>2025-06-12T09:02:03Z</time>
      </trkpt>
      <trkpt lat="44.67355" lon="6.16437">
        <ele>1320</ele>
        <time>2025-06-12T09:02:04Z</time>
      </trkpt>
      <trkpt lat="44.67356" lon="6.1644">
        <ele>1319.8</ele>
        <time>2025-06-12T09:02:05Z</time>
      </trkpt>
      <trkpt lat="44.67358" lon="6.16442">
        <ele>1319.8</ele>
        <time>2025-06-12T09:02:06Z</time>
      </trkpt>
      <trkpt lat="44.67359" lon="6.16444">
        <ele>1319.8</ele>
        <time>2025-06-12T09:02:07Z</time>
      </trkpt>
      <trkpt lat="44.67361" lon="6.16446">
        <ele>1319.8</ele>
        <time>2025-06-12T09:02:08Z</time>
      </trkpt>
      <trkpt lat="44.67362" lon="6.16448">
        <ele>1319.8</ele>
        <time>2025-06-12T09:02:09Z</time>
      </trkpt>
      <trkpt lat="44.67364" lon="6.16448">
        <ele>1319.8</ele>
        <time>2025-06-12T09:02:10Z</time>
      </trkpt>
      <trkpt lat="44.67365" lon="6.16449">
        <ele>1319.8</ele>
        <time>2025-06-12T09:02:11Z</time>
      </trkpt>
      <trkpt lat="44.67366" lon="6.1645">
        <ele>1319.8</ele>
        <time>2025-06-12T09:02:12Z</time>
      </trkpt>
      <trkpt lat="44.67366" lon="6.1645">
        <ele>1319.8</ele>
        <time>2025-06-12T09:02:13Z</time>
      </trkpt>
      <trkpt lat="44.67366" lon="6.1645">
        <ele>1319.8</ele>
        <time>2025-06-12T09:02:14Z</time>
      </trkpt>
      <trkpt lat="44.67366" lon="6.1645">
        <ele>1319.8</ele>
        <time>2025-06-12T09:02:15Z</time>
      </trkpt>
      <trkpt lat="44.67366" lon="6.1645">
        <ele>1320</ele>
        <time>2025-06-12T09:02:16Z</time>
      </trkpt>
      <trkpt lat="44.67366" lon="6.1645">
        <ele>1320</ele>
        <time>2025-06-12T09:02:17Z</time>
      </trkpt>
      <trkpt lat="44.67359" lon="6.16438">
        <ele>1319.4</ele>
        <time>2025-06-12T09:03:30Z</time>
      </trkpt>
      <trkpt lat="44.67359" lon="6.16435">
        <ele>1319.4</ele>
        <time>2025-06-12T09:03:31Z</time>
      </trkpt>
      <trkpt lat="44.6736" lon="6.16431">
        <ele>1319.4</ele>
        <time>2025-06-12T09:03:32Z</time>
      </trkpt>
      <trkpt lat="44.67364" lon="6.16426">
        <ele>1319.4</ele>
        <time>2025-06-12T09:03:34Z</time>
      </trkpt>
      <trkpt lat="44.67366" lon="6.16423">
        <ele>1319.4</ele>
        <time>2025-06-12T09:03:35Z</time>
      </trkpt>
      <trkpt lat="44.67369" lon="6.16421">
        <ele>1319.4</ele>
        <time>2025-06-12T09:03:36Z</time>
      </trkpt>
      <trkpt lat="44.67371" lon="6.16418">
        <ele>1319.4</ele>
        <time>2025-06-12T09:03:37Z</time>
      </trkpt>
      <trkpt lat="44.67377" lon="6.16415">
        <ele>1319.4</ele>
        <time>2025-06-12T09:03:39Z</time>
      </trkpt>
      <trkpt lat="44.67382" lon="6.16412">
        <ele>1319.4</ele>
        <time>2025-06-12T09:03:41Z</time>
      </trkpt>
      <trkpt lat="44.67386" lon="6.1641">
        <ele>1319.4</ele>
        <time>2025-06-12T09:03:43Z</time>
      </trkpt>
      <trkpt lat="44.67387" lon="6.16409">
        <ele>1319.6</ele>
        <time>2025-06-12T09:03:45Z</time>
      </trkpt>
      <trkpt lat="44.67387" lon="6.16409">
        <ele>1319.6</ele>
        <time>2025-06-12T09:03:46Z</time>
      </trkpt>
      <trkpt lat="44.67387" lon="6.16409">
        <ele>1319.6</ele>
        <time>2025-06-12T09:03:47Z</time>
      </trkpt>
      <trkpt lat="44.67387" lon="6.16409">
        <ele>1319.6</ele>
        <time>2025-06-12T09:03:48Z</time>
      </trkpt>
      <trkpt lat="44.67387" lon="6.16409">
        <ele>1319.8</ele>
        <time>2025-06-12T09:03:49Z</time>
      </trkpt>
      <trkpt lat="44.67387" lon="6.16409">
        <ele>1319.8</ele>
        <time>2025-06-12T09:03:50Z</time>
      </trkpt>
      <trkpt lat="44.67387" lon="6.16409">
        <ele>1320.4</ele>
        <time>2025-06-12T09:03:52Z</time>
      </trkpt>
      <trkpt lat="44.67387" lon="6.16409">
        <ele>1320.6</ele>
        <time>2025-06-12T09:03:53Z</time>
      </trkpt>
      <trkpt lat="44.67387" lon="6.16409">
        <ele>1320.6</ele>
        <time>2025-06-12T09:03:54Z</time>
      </trkpt>
      <trkpt lat="44.67387" lon="6.16409">
        <ele>1320.6</ele>
        <time>2025-06-12T09:03:55Z</time>
      </trkpt>
      <trkpt lat="44.67387" lon="6.16409">
        <ele>1320.6</ele>
        <time>2025-06-12T09:03:56Z</time>
      </trkpt>
      <trkpt lat="44.67387" lon="6.16409">
        <ele>1320.6</ele>
        <time>2025-06-12T09:03:57Z</time>
      </trkpt>
      <trkpt lat="44.67396" lon="6.16404">
        <ele>1320.6</ele>
        <time>2025-06-12T09:05:22Z</time>
      </trkpt>
      <trkpt lat="44.67398" lon="6.16403">
        <ele>1320.6</ele>
        <time>2025-06-12T09:05:23Z</time>
      </trkpt>
      <trkpt lat="44.674" lon="6.16402">
        <ele>1320.6</ele>
        <time>2025-06-12T09:05:24Z</time>
      </trkpt>
      <trkpt lat="44.67403" lon="6.16401">
        <ele>1320.6</ele>
        <time>2025-06-12T09:05:25Z</time>
      </trkpt>
      <trkpt lat="44.67406" lon="6.164">
        <ele>1320.6</ele>
        <time>2025-06-12T09:05:26Z</time>
      </trkpt>
      <trkpt lat="44.67411" lon="6.16397">
        <ele>1320.6</ele>
        <time>2025-06-12T09:05:28Z</time>
      </trkpt>
      <trkpt lat="44.67414" lon="6.16395">
        <ele>1320.8</ele>
        <time>2025-06-12T09:05:29Z</time>
      </trkpt>
      <trkpt lat="44.67417" lon="6.16394">
        <ele>1320.8</ele>
        <time>2025-06-12T09:05:30Z</time>
      </trkpt>
      <trkpt lat="44.6742" lon="6.16392">
        <ele>1320.8</ele>
        <time>2025-06-12T09:05:31Z</time>
      </trkpt>
      <trkpt lat="44.67424" lon="6.16391">
        <ele>1320.8</ele>
        <time>2025-06-12T09:05:32Z</time>
      </trkpt>
      <trkpt lat="44.67427" lon="6.1639">
        <ele>1321</ele>
        <time>2025-06-12T09:05:33Z</time>
      </trkpt>
      <trkpt lat="44.6743" lon="6.16389">
        <ele>1321</ele>
        <time>2025-06-12T09:05:34Z</time>
      </trkpt>
      <trkpt lat="44.67433" lon="6.16388">
        <ele>1321</ele>
        <time>2025-06-12T09:05:35Z</time>
      </trkpt>
      <trkpt lat="44.67436" lon="6.16387">
        <ele>1321.2</ele>
        <time>2025-06-12T09:05:36Z</time>
      </trkpt>
      <trkpt lat="44.6744" lon="6.16385">
        <ele>1321.2</ele>
        <time>2025-06-12T09:05:37Z</time>
      </trkpt>
      <trkpt lat="44.67443" lon="6.16384">
        <ele>1321.4</ele>
        <time>2025-06-12T09:05:38Z</time>
      </trkpt>
      <trkpt lat="44.67449" lon="6.16382">
        <ele>1321.8</ele>
        <time>2025-06-12T09:05:40Z</time>
      </trkpt>
      <trkpt lat="44.67456" lon="6.16379">
        <ele>1322.2</ele>
        <time>2025-06-12T09:05:42Z</time>
      </trkpt>
      <trkpt lat="44.67463" lon="6.16376">
        <ele>1322.6</ele>
        <time>2025-06-12T09:05:44Z</time>
      </trkpt>
      <trkpt lat="44.67469" lon="6.16373">
        <ele>1323</ele>
        <time>2025-06-12T09:05:46Z</time>
      </trkpt>
      <trkpt lat="44.67473" lon="6.16372">
        <ele>1323</ele>
        <time>2025-06-12T09:05:47Z</time>
      </trkpt>
      <trkpt lat="44.67476" lon="6.1637">
        <ele>1323.2</ele>
        <time>2025-06-12T09:05:48Z</time>
      </trkpt>
      <trkpt lat="44.67479" lon="6.16368">
        <ele>1323.4</ele>
        <time>2025-06-12T09:05:49Z</time>
      </trkpt>
      <trkpt lat="44.67483" lon="6.16367">
        <ele>1323.6</ele>
        <time>2025-06-12T09:05:50Z</time>
      </trkpt>
      <trkpt lat="44.67486" lon="6.16366">
        <ele>1323.6</ele>
        <time>2025-06-12T09:05:51Z</time>
      </trkpt>
      <trkpt lat="44.6749" lon="6.16365">
        <ele>1323.8</ele>
        <time>2025-06-12T09:05:52Z</time>
      </trkpt>
      <trkpt lat="44.67493" lon="6.16363">
        <ele>1324</ele>
        <time>2025-06-12T09:05:53Z</time>
      </trkpt>
      <trkpt lat="44.67496" lon="6.16362">
        <ele>1324.2</ele>
        <time>2025-06-12T09:05:54Z</time>
      </trkpt>
      <trkpt lat="44.675" lon="6.16361">
        <ele>1324.6</ele>
        <time>2025-06-12T09:05:55Z</time>
      </trkpt>
      <trkpt lat="44.67507" lon="6.16359">
        <ele>1324.8</ele>
        <time>2025-06-12T09:05:57Z</time>
      </trkpt>
      <trkpt lat="44.67514" lon="6.16356">
        <ele>1325.4</ele>
        <time>2025-06-12T09:05:59Z</time>
      </trkpt>
      <trkpt lat="44.67521" lon="6.16353">
        <ele>1325.8</ele>
        <time>2025-06-12T09:06:01Z</time>
      </trkpt>
      <trkpt lat="44.67527" lon="6.1635">
        <ele>1326.2</ele>
        <time>2025-06-12T09:06:03Z</time>
      </trkpt>
      <trkpt lat="44.67531" lon="6.16348">
        <ele>1326.6</ele>
        <time>2025-06-12T09:06:04Z</time>
      </trkpt>
      <trkpt lat="44.67534" lon="6.16346">
        <ele>1326.8</ele>
        <time>2025-06-12T09:06:05Z</time>
      </trkpt>
      <trkpt lat="44.67538" lon="6.16344">
        <ele>1327</ele>
        <time>2025-06-12T09:06:06Z</time>
      </trkpt>
      <trkpt lat="44.67541" lon="6.16342">
        <ele>1327.2</ele>
        <time>2025-06-12T09:06:07Z</time>
      </trkpt>
      <trkpt lat="44.67544" lon="6.1634">
        <ele>1327.2</ele>
        <time>2025-06-12T09:06:08Z</time>
      </trkpt>
      <trkpt lat="44.67548" lon="6.16337">
        <ele>1327.2</ele>
        <time>2025-06-12T09:06:09Z</time>
      </trkpt>
      <trkpt lat="44.67551" lon="6.16334">
        <ele>1327.4</ele>
        <time>2025-06-12T09:06:10Z</time>
      </trkpt>
      <trkpt lat="44.67554" lon="6.16331">
        <ele>1327.4</ele>
        <time>2025-06-12T09:06:11Z</time>
      </trkpt>
      <trkpt lat="44.67557" lon="6.16328">
        <ele>1327.4</ele>
        <time>2025-06-12T09:06:12Z</time>
      </trkpt>
      <trkpt lat="44.6756" lon="6.16324">
        <ele>1327.6</ele>
        <time>2025-06-12T09:06:13Z</time>
      </trkpt>
      <trkpt lat="44.67562" lon="6.1632">
        <ele>1327.6</ele>
        <time>2025-06-12T09:06:14Z</time>
      </trkpt>
      <trkpt lat="44.67565" lon="6.16316">
        <ele>1327.8</ele>
        <time>2025-06-12T09:06:15Z</time>
      </trkpt>
      <trkpt lat="44.67568" lon="6.16313">
        <ele>1328</ele>
        <time>2025-06-12T09:06:16Z</time>
      </trkpt>
      <trkpt lat="44.6757" lon="6.16309">
        <ele>1328.2</ele>
        <time>2025-06-12T09:06:17Z</time>
      </trkpt>
      <trkpt lat="44.67573" lon="6.16305">
        <ele>1328.2</ele>
        <time>2025-06-12T09:06:18Z</time>
      </trkpt>
      <trkpt lat="44.67575" lon="6.16302">
        <ele>1328.2</ele>
        <time>2025-06-12T09:06:19Z</time>
      </trkpt>
      <trkpt lat="44.67577" lon="6.16298">
        <ele>1328.4</ele>
        <time>2025-06-12T09:06:20Z</time>
      </trkpt>
      <trkpt lat="44.67579" lon="6.16293">
        <ele>1328.6</ele>
        <time>2025-06-12T09:06:21Z</time>
      </trkpt>
      <trkpt lat="44.6758" lon="6.16289">
        <ele>1328.6</ele>
        <time>2025-06-12T09:06:22Z</time>
      </trkpt>
      <trkpt lat="44.67581" lon="6.16279">
        <ele>1328.8</ele>
        <time>2025-06-12T09:06:24Z</time>
      </trkpt>
      <trkpt lat="44.67582" lon="6.1627">
        <ele>1329.4</ele>
        <time>2025-06-12T09:06:26Z</time>
      </trkpt>
      <trkpt lat="44.67582" lon="6.16266">
        <ele>1329.8</ele>
        <time>2025-06-12T09:06:27Z</time>
      </trkpt>
      <trkpt lat="44.67582" lon="6.16261">
        <ele>1330</ele>
        <time>2025-06-12T09:06:28Z</time>
      </trkpt>
      <trkpt lat="44.67582" lon="6.16256">
        <ele>1330.2</ele>
        <time>2025-06-12T09:06:29Z</time>
      </trkpt>
      <trkpt lat="44.67581" lon="6.16251">
        <ele>1330.4</ele>
        <time>2025-06-12T09:06:30Z</time>
      </trkpt>
      <trkpt lat="44.67581" lon="6.16246">
        <ele>1330.6</ele>
        <time>2025-06-12T09:06:31Z</time>
      </trkpt>
      <trkpt lat="44.67581" lon="6.1624">
        <ele>1330.6</ele>
        <time>2025-06-12T09:06:32Z</time>
      </trkpt>
      <trkpt lat="44.67581" lon="6.16234">
        <ele>1330.8</ele>
        <time>2025-06-12T09:06:33Z</time>
      </trkpt>
      <trkpt lat="44.67581" lon="6.16229">
        <ele>1330.8</ele>
        <time>2025-06-12T09:06:34Z</time>
      </trkpt>
      <trkpt lat="44.67581" lon="6.16223">
        <ele>1330.8</ele>
        <time>2025-06-12T09:06:35Z</time>
      </trkpt>
      <trkpt lat="44.67581" lon="6.16217">
        <ele>1330.8</ele>
        <time>2025-06-12T09:06:36Z</time>
      </trkpt>
      <trkpt lat="44.67581" lon="6.16211">
        <ele>1330.8</ele>
        <time>2025-06-12T09:06:37Z</time>
      </trkpt>
      <trkpt lat="44.67582" lon="6.16205">
        <ele>1330.8</ele>
        <time>2025-06-12T09:06:38Z</time>
      </trkpt>
      <trkpt lat="44.67582" lon="6.16199">
        <ele>1330.8</ele>
        <time>2025-06-12T09:06:39Z</time>
      </trkpt>
      <trkpt lat="44.67583" lon="6.16187">
        <ele>1330.6</ele>
        <time>2025-06-12T09:06:41Z</time>
      </trkpt>
      <trkpt lat="44.67584" lon="6.16182">
        <ele>1330.4</ele>
        <time>2025-06-12T09:06:42Z</time>
      </trkpt>
      <trkpt lat="44.67584" lon="6.16176">
        <ele>1330.4</ele>
        <time>2025-06-12T09:06:43Z</time>
      </trkpt>
      <trkpt lat="44.67585" lon="6.16164">
        <ele>1330.2</ele>
        <time>2025-06-12T09:06:45Z</time>
      </trkpt>
      <trkpt lat="44.67586" lon="6.16151">
        <ele>1330.2</ele>
        <time>2025-06-12T09:06:47Z</time>
      </trkpt>
      <trkpt lat="44.67586" lon="6.16144">
        <ele>1330.2</ele>
        <time>2025-06-12T09:06:48Z</time>
      </trkpt>
      <trkpt lat="44.67586" lon="6.16137">
        <ele>1330</ele>
        <time>2025-06-12T09:06:49Z</time>
      </trkpt>
      <trkpt lat="44.67587" lon="6.16129">
        <ele>1330</ele>
        <time>2025-06-12T09:06:50Z</time>
      </trkpt>
      <trkpt lat="44.67587" lon="6.16121">
        <ele>1330</ele>
        <time>2025-06-12T09:06:51Z</time>
      </trkpt>
      <trkpt lat="44.67588" lon="6.16113">
        <ele>1329.8</ele>
        <time>2025-06-12T09:06:52Z</time>
      </trkpt>
      <trkpt lat="44.67587" lon="6.16105">
        <ele>1329.8</ele>
        <time>2025-06-12T09:06:53Z</time>
      </trkpt>
      <trkpt lat="44.67588" lon="6.16097">
        <ele>1329.6</ele>
        <time>2025-06-12T09:06:54Z</time>
      </trkpt>
      <trkpt lat="44.67588" lon="6.16088">
        <ele>1329.4</ele>
        <time>2025-06-12T09:06:55Z</time>
      </trkpt>
      <trkpt lat="44.67589" lon="6.16079">
        <ele>1329.2</ele>
        <time>2025-06-12T09:06:56Z</time>
      </trkpt>
      <trkpt lat="44.67589" lon="6.1607">
        <ele>1329</ele>
        <time>2025-06-12T09:06:57Z</time>
      </trkpt>
      <trkpt lat="44.67589" lon="6.16061">
        <ele>1328.8</ele>
        <time>2025-06-12T09:06:58Z</time>
      </trkpt>
      <trkpt lat="44.6759" lon="6.16052">
        <ele>1328.6</ele>
        <time>2025-06-12T09:06:59Z</time>
      </trkpt>
      <trkpt lat="44.6759" lon="6.16041">
        <ele>1328</ele>
        <time>2025-06-12T09:07:00Z</time>
      </trkpt>
      <trkpt lat="44.6759" lon="6.16031">
        <ele>1327.8</ele>
        <time>2025-06-12T09:07:01Z</time>
      </trkpt>
      <trkpt lat="44.6759" lon="6.1602">
        <ele>1327.6</ele>
        <time>2025-06-12T09:07:02Z</time>
      </trkpt>
      <trkpt lat="44.6759" lon="6.1601">
        <ele>1327.4</ele>
        <time>2025-06-12T09:07:03Z</time>
      </trkpt>
      <trkpt lat="44.67588" lon="6.16">
        <ele>1327</ele>
        <time>2025-06-12T09:07:04Z</time>
      </trkpt>
      <trkpt lat="44.67584" lon="6.1599">
        <ele>1327</ele>
        <time>2025-06-12T09:07:05Z</time>
      </trkpt>
      <trkpt lat="44.67579" lon="6.15981">
        <ele>1326.6</ele>
        <time>2025-06-12T09:07:06Z</time>
      </trkpt>
      <trkpt lat="44.67573" lon="6.15973">
        <ele>1326</ele>
        <time>2025-06-12T09:07:07Z</time>
      </trkpt>
      <trkpt lat="44.67566" lon="6.15966">
        <ele>1325.4</ele>
        <time>2025-06-12T09:07:08Z</time>
      </trkpt>
      <trkpt lat="44.67558" lon="6.15961">
        <ele>1324.8</ele>
        <time>2025-06-12T09:07:09Z</time>
      </trkpt>
      <trkpt lat="44.6755" lon="6.15957">
        <ele>1324.6</ele>
        <time>2025-06-12T09:07:10Z</time>
      </trkpt>
      <trkpt lat="44.67542" lon="6.15954">
        <ele>1324.2</ele>
        <time>2025-06-12T09:07:11Z</time>
      </trkpt>
      <trkpt lat="44.67533" lon="6.15951">
        <ele>1324</ele>
        <time>2025-06-12T09:07:12Z</time>
      </trkpt>
      <trkpt lat="44.67524" lon="6.15947">
        <ele>1323.4</ele>
        <time>2025-06-12T09:07:13Z</time>
      </trkpt>
      <trkpt lat="44.67515" lon="6.15942">
        <ele>1322.8</ele>
        <time>2025-06-12T09:07:14Z</time>
      </trkpt>
      <trkpt lat="44.67506" lon="6.15938">
        <ele>1321.8</ele>
        <time>2025-06-12T09:07:15Z</time>
      </trkpt>
      <trkpt lat="44.67496" lon="6.15933">
        <ele>1321.2</ele>
        <time>2025-06-12T09:07:16Z</time>
      </trkpt>
      <trkpt lat="44.67486" lon="6.15927">
        <ele>1320.4</ele>
        <time>2025-06-12T09:07:17Z</time>
      </trkpt>
      <trkpt lat="44.67476" lon="6.15923">
        <ele>1319.8</ele>
        <time>2025-06-12T09:07:18Z</time>
      </trkpt>
      <trkpt lat="44.67454" lon="6.15915">
        <ele>1319</ele>
        <time>2025-06-12T09:07:20Z</time>
      </trkpt>
      <trkpt lat="44.67443" lon="6.15912">
        <ele>1318.6</ele>
        <time>2025-06-12T09:07:21Z</time>
      </trkpt>
      <trkpt lat="44.67432" lon="6.15908">
        <ele>1318.2</ele>
        <time>2025-06-12T09:07:22Z</time>
      </trkpt>
      <trkpt lat="44.67422" lon="6.15902">
        <ele>1317.6</ele>
        <time>2025-06-12T09:07:23Z</time>
      </trkpt>
      <trkpt lat="44.67411" lon="6.15896">
        <ele>1317</ele>
        <time>2025-06-12T09:07:24Z</time>
      </trkpt>
      <trkpt lat="44.674" lon="6.15891">
        <ele>1316.2</ele>
        <time>2025-06-12T09:07:25Z</time>
      </trkpt>
      <trkpt lat="44.6739" lon="6.15887">
        <ele>1315.4</ele>
        <time>2025-06-12T09:07:26Z</time>
      </trkpt>
      <trkpt lat="44.67378" lon="6.15887">
        <ele>1314.2</ele>
        <time>2025-06-12T09:07:27Z</time>
      </trkpt>
      <trkpt lat="44.67367" lon="6.15888">
        <ele>1313.4</ele>
        <time>2025-06-12T09:07:28Z</time>
      </trkpt>
      <trkpt lat="44.67355" lon="6.1589">
        <ele>1312.6</ele>
        <time>2025-06-12T09:07:29Z</time>
      </trkpt>
      <trkpt lat="44.67344" lon="6.15892">
        <ele>1311.8</ele>
        <time>2025-06-12T09:07:30Z</time>
      </trkpt>
      <trkpt lat="44.67332" lon="6.15893">
        <ele>1311.2</ele>
        <time>2025-06-12T09:07:31Z</time>
      </trkpt>
      <trkpt lat="44.67321" lon="6.15892">
        <ele>1310.4</ele>
        <time>2025-06-12T09:07:32Z</time>
      </trkpt>
      <trkpt lat="44.67309" lon="6.15889">
        <ele>1309.4</ele>
        <time>2025-06-12T09:07:33Z</time>
      </trkpt>
      <trkpt lat="44.67298" lon="6.15885">
        <ele>1307.2</ele>
        <time>2025-06-12T09:07:34Z</time>
      </trkpt>
      <trkpt lat="44.67286" lon="6.15882">
        <ele>1306.6</ele>
        <time>2025-06-12T09:07:35Z</time>
      </trkpt>
      <trkpt lat="44.67274" lon="6.1588">
        <ele>1306.2</ele>
        <time>2025-06-12T09:07:36Z</time>
      </trkpt>
      <trkpt lat="44.6725" lon="6.15873">
        <ele>1304.8</ele>
        <time>2025-06-12T09:07:38Z</time>
      </trkpt>
      <trkpt lat="44.67228" lon="6.15861">
        <ele>1303.8</ele>
        <time>2025-06-12T09:07:40Z</time>
      </trkpt>
      <trkpt lat="44.67206" lon="6.1585">
        <ele>1302.6</ele>
        <time>2025-06-12T09:07:42Z</time>
      </trkpt>
      <trkpt lat="44.67196" lon="6.15844">
        <ele>1302</ele>
        <time>2025-06-12T09:07:43Z</time>
      </trkpt>
      <trkpt lat="44.67186" lon="6.15837">
        <ele>1301.4</ele>
        <time>2025-06-12T09:07:44Z</time>
      </trkpt>
      <trkpt lat="44.67178" lon="6.15828">
        <ele>1300.4</ele>
        <time>2025-06-12T09:07:45Z</time>
      </trkpt>
      <trkpt lat="44.67171" lon="6.15817">
        <ele>1299.4</ele>
        <time>2025-06-12T09:07:46Z</time>
      </trkpt>
      <trkpt lat="44.67166" lon="6.15805">
        <ele>1298.8</ele>
        <time>2025-06-12T09:07:47Z</time>
      </trkpt>
      <trkpt lat="44.67162" lon="6.15792">
        <ele>1298.4</ele>
        <time>2025-06-12T09:07:48Z</time>
      </trkpt>
      <trkpt lat="44.67158" lon="6.15779">
        <ele>1298</ele>
        <time>2025-06-12T09:07:49Z</time>
      </trkpt>
      <trkpt lat="44.67154" lon="6.15765">
        <ele>1297.6</ele>
        <time>2025-06-12T09:07:50Z</time>
      </trkpt>
      <trkpt lat="44.6715" lon="6.15752">
        <ele>1297.2</ele>
        <time>2025-06-12T09:07:51Z</time>
      </trkpt>
      <trkpt lat="44.67145" lon="6.15739">
        <ele>1297</ele>
        <time>2025-06-12T09:07:52Z</time>
      </trkpt>
      <trkpt lat="44.6714" lon="6.15725">
        <ele>1296.8</ele>
        <time>2025-06-12T09:07:53Z</time>
      </trkpt>
      <trkpt lat="44.67135" lon="6.15712">
        <ele>1296.6</ele>
        <time>2025-06-12T09:07:54Z</time>
      </trkpt>
      <trkpt lat="44.6713" lon="6.15697">
        <ele>1296.6</ele>
        <time>2025-06-12T09:07:55Z</time>
      </trkpt>
      <trkpt lat="44.67126" lon="6.15682">
        <ele>1296.4</ele>
        <time>2025-06-12T09:07:56Z</time>
      </trkpt>
      <trkpt lat="44.67123" lon="6.15666">
        <ele>1296.4</ele>
        <time>2025-06-12T09:07:57Z</time>
      </trkpt>
      <trkpt lat="44.67121" lon="6.1565">
        <ele>1296.2</ele>
        <time>2025-06-12T09:07:58Z</time>
      </trkpt>
      <trkpt lat="44.67121" lon="6.15634">
        <ele>1295.8</ele>
        <time>2025-06-12T09:07:59Z</time>
      </trkpt>
      <trkpt lat="44.6712" lon="6.1562">
        <ele>1295.2</ele>
        <time>2025-06-12T09:08:00Z</time>
      </trkpt>
      <trkpt lat="44.6712" lon="6.15606">
        <ele>1294.4</ele>
        <time>2025-06-12T09:08:01Z</time>
      </trkpt>
      <trkpt lat="44.67118" lon="6.15594">
        <ele>1292.6</ele>
        <time>2025-06-12T09:08:02Z</time>
      </trkpt>
      <trkpt lat="44.67115" lon="6.15582">
        <ele>1291.2</ele>
        <time>2025-06-12T09:08:03Z</time>
      </trkpt>
      <trkpt lat="44.6711" lon="6.15572">
        <ele>1290</ele>
        <time>2025-06-12T09:08:04Z</time>
      </trkpt>
      <trkpt lat="44.67105" lon="6.15563">
        <ele>1288.8</ele>
        <time>2025-06-12T09:08:05Z</time>
      </trkpt>
      <trkpt lat="44.67102" lon="6.15554">
        <ele>1288</ele>
        <time>2025-06-12T09:08:06Z</time>
      </trkpt>
      <trkpt lat="44.671" lon="6.15544">
        <ele>1287.4</ele>
        <time>2025-06-12T09:08:07Z</time>
      </trkpt>
      <trkpt lat="44.67099" lon="6.15535">
        <ele>1287</ele>
        <time>2025-06-12T09:08:08Z</time>
      </trkpt>
      <trkpt lat="44.67097" lon="6.15526">
        <ele>1286.8</ele>
        <time>2025-06-12T09:08:09Z</time>
      </trkpt>
      <trkpt lat="44.67092" lon="6.15519">
        <ele>1286.8</ele>
        <time>2025-06-12T09:08:10Z</time>
      </trkpt>
      <trkpt lat="44.6708" lon="6.15508">
        <ele>1286.2</ele>
        <time>2025-06-12T09:08:12Z</time>
      </trkpt>
      <trkpt lat="44.67066" lon="6.15495">
        <ele>1286</ele>
        <time>2025-06-12T09:08:14Z</time>
      </trkpt>
      <trkpt lat="44.67062" lon="6.15487">
        <ele>1285.8</ele>
        <time>2025-06-12T09:08:15Z</time>
      </trkpt>
      <trkpt lat="44.67059" lon="6.15478">
        <ele>1285.4</ele>
        <time>2025-06-12T09:08:16Z</time>
      </trkpt>
      <trkpt lat="44.67058" lon="6.15468">
        <ele>1285.2</ele>
        <time>2025-06-12T09:08:17Z</time>
      </trkpt>
      <trkpt lat="44.67059" lon="6.15457">
        <ele>1284.6</ele>
        <time>2025-06-12T09:08:18Z</time>
      </trkpt>
      <trkpt lat="44.67063" lon="6.15447">
        <ele>1283.8</ele>
        <time>2025-06-12T09:08:19Z</time>
      </trkpt>
      <trkpt lat="44.67073" lon="6.15427">
        <ele>1282.2</ele>
        <time>2025-06-12T09:08:21Z</time>
      </trkpt>
      <trkpt lat="44.67078" lon="6.15417">
        <ele>1281.2</ele>
        <time>2025-06-12T09:08:22Z</time>
      </trkpt>
      <trkpt lat="44.67083" lon="6.15406">
        <ele>1280.6</ele>
        <time>2025-06-12T09:08:23Z</time>
      </trkpt>
      <trkpt lat="44.67084" lon="6.15394">
        <ele>1280.2</ele>
        <time>2025-06-12T09:08:24Z</time>
      </trkpt>
      <trkpt lat="44.6708" lon="6.15369">
        <ele>1279.4</ele>
        <time>2025-06-12T09:08:26Z</time>
      </trkpt>
      <trkpt lat="44.67076" lon="6.15358">
        <ele>1279</ele>
        <time>2025-06-12T09:08:27Z</time>
      </trkpt>
      <trkpt lat="44.67073" lon="6.15347">
        <ele>1278.2</ele>
        <time>2025-06-12T09:08:28Z</time>
      </trkpt>
      <trkpt lat="44.67071" lon="6.15337">
        <ele>1276.8</ele>
        <time>2025-06-12T09:08:29Z</time>
      </trkpt>
      <trkpt lat="44.67072" lon="6.15328">
        <ele>1276</ele>
        <time>2025-06-12T09:08:30Z</time>
      </trkpt>
      <trkpt lat="44.67075" lon="6.15319">
        <ele>1275.6</ele>
        <time>2025-06-12T09:08:31Z</time>
      </trkpt>
      <trkpt lat="44.67078" lon="6.15311">
        <ele>1275</ele>
        <time>2025-06-12T09:08:32Z</time>
      </trkpt>
      <trkpt lat="44.6708" lon="6.15302">
        <ele>1274.4</ele>
        <time>2025-06-12T09:08:33Z</time>
      </trkpt>
      <trkpt lat="44.67079" lon="6.15293">
        <ele>1273.4</ele>
        <time>2025-06-12T09:08:34Z</time>
      </trkpt>
      <trkpt lat="44.67076" lon="6.15286">
        <ele>1272.8</ele>
        <time>2025-06-12T09:08:35Z</time>
      </trkpt>
      <trkpt lat="44.67071" lon="6.15281">
        <ele>1272.6</ele>
        <time>2025-06-12T09:08:36Z</time>
      </trkpt>
      <trkpt lat="44.67065" lon="6.1528">
        <ele>1272.2</ele>
        <time>2025-06-12T09:08:37Z</time>
      </trkpt>
      <trkpt lat="44.67053" lon="6.15283">
        <ele>1272</ele>
        <time>2025-06-12T09:08:39Z</time>
      </trkpt>
      <trkpt lat="44.67047" lon="6.15287">
        <ele>1271.8</ele>
        <time>2025-06-12T09:08:40Z</time>
      </trkpt>
      <trkpt lat="44.67041" lon="6.15292">
        <ele>1271.8</ele>
        <time>2025-06-12T09:08:41Z</time>
      </trkpt>
      <trkpt lat="44.67035" lon="6.15294">
        <ele>1271.6</ele>
        <time>2025-06-12T09:08:42Z</time>
      </trkpt>
      <trkpt lat="44.67028" lon="6.15293">
        <ele>1271.6</ele>
        <time>2025-06-12T09:08:43Z</time>
      </trkpt>
      <trkpt lat="44.67021" lon="6.15289">
        <ele>1271.4</ele>
        <time>2025-06-12T09:08:44Z</time>
      </trkpt>
      <trkpt lat="44.67016" lon="6.15282">
        <ele>1271.4</ele>
        <time>2025-06-12T09:08:45Z</time>
      </trkpt>
      <trkpt lat="44.67011" lon="6.15272">
        <ele>1271.2</ele>
        <time>2025-06-12T09:08:46Z</time>
      </trkpt>
      <trkpt lat="44.67006" lon="6.15252">
        <ele>1271.2</ele>
        <time>2025-06-12T09:08:48Z</time>
      </trkpt>
      <trkpt lat="44.67" lon="6.15231">
        <ele>1270.4</ele>
        <time>2025-06-12T09:08:50Z</time>
      </trkpt>
      <trkpt lat="44.66996" lon="6.15221">
        <ele>1270</ele>
        <time>2025-06-12T09:08:51Z</time>
      </trkpt>
      <trkpt lat="44.66992" lon="6.1521">
        <ele>1269.4</ele>
        <time>2025-06-12T09:08:52Z</time>
      </trkpt>
      <trkpt lat="44.66987" lon="6.152">
        <ele>1268.8</ele>
        <time>2025-06-12T09:08:53Z</time>
      </trkpt>
      <trkpt lat="44.66983" lon="6.15189">
        <ele>1268.2</ele>
        <time>2025-06-12T09:08:54Z</time>
      </trkpt>
      <trkpt lat="44.66979" lon="6.15177">
        <ele>1267.6</ele>
        <time>2025-06-12T09:08:55Z</time>
      </trkpt>
      <trkpt lat="44.66975" lon="6.15165">
        <ele>1267</ele>
        <time>2025-06-12T09:08:56Z</time>
      </trkpt>
      <trkpt lat="44.6697" lon="6.15153">
        <ele>1266.4</ele>
        <time>2025-06-12T09:08:57Z</time>
      </trkpt>
      <trkpt lat="44.66965" lon="6.15141">
        <ele>1266.2</ele>
        <time>2025-06-12T09:08:58Z</time>
      </trkpt>
      <trkpt lat="44.66958" lon="6.15131">
        <ele>1266</ele>
        <time>2025-06-12T09:08:59Z</time>
      </trkpt>
      <trkpt lat="44.66952" lon="6.15121">
        <ele>1265.4</ele>
        <time>2025-06-12T09:09:00Z</time>
      </trkpt>
      <trkpt lat="44.66945" lon="6.151">
        <ele>1264.8</ele>
        <time>2025-06-12T09:09:02Z</time>
      </trkpt>
      <trkpt lat="44.66946" lon="6.15078">
        <ele>1264</ele>
        <time>2025-06-12T09:09:04Z</time>
      </trkpt>
      <trkpt lat="44.66949" lon="6.15067">
        <ele>1263.4</ele>
        <time>2025-06-12T09:09:05Z</time>
      </trkpt>
      <trkpt lat="44.66954" lon="6.15055">
        <ele>1262.6</ele>
        <time>2025-06-12T09:09:06Z</time>
      </trkpt>
      <trkpt lat="44.66961" lon="6.15044">
        <ele>1262</ele>
        <time>2025-06-12T09:09:07Z</time>
      </trkpt>
      <trkpt lat="44.66968" lon="6.15032">
        <ele>1261.4</ele>
        <time>2025-06-12T09:09:08Z</time>
      </trkpt>
      <trkpt lat="44.66975" lon="6.15019">
        <ele>1260.8</ele>
        <time>2025-06-12T09:09:09Z</time>
      </trkpt>
      <trkpt lat="44.66981" lon="6.15005">
        <ele>1260.6</ele>
        <time>2025-06-12T09:09:10Z</time>
      </trkpt>
      <trkpt lat="44.66983" lon="6.14989">
        <ele>1260.4</ele>
        <time>2025-06-12T09:09:11Z</time>
      </trkpt>
      <trkpt lat="44.66984" lon="6.14974">
        <ele>1259.8</ele>
        <time>2025-06-12T09:09:12Z</time>
      </trkpt>
      <trkpt lat="44.66983" lon="6.1496">
        <ele>1259.4</ele>
        <time>2025-06-12T09:09:13Z</time>
      </trkpt>
      <trkpt lat="44.6698" lon="6.14947">
        <ele>1258.6</ele>
        <time>2025-06-12T09:09:14Z</time>
      </trkpt>
      <trkpt lat="44.66975" lon="6.14936">
        <ele>1257.4</ele>
        <time>2025-06-12T09:09:15Z</time>
      </trkpt>
      <trkpt lat="44.6697" lon="6.14926">
        <ele>1256.2</ele>
        <time>2025-06-12T09:09:16Z</time>
      </trkpt>
      <trkpt lat="44.66964" lon="6.14916">
        <ele>1255</ele>
        <time>2025-06-12T09:09:17Z</time>
      </trkpt>
      <trkpt lat="44.66958" lon="6.14906">
        <ele>1254.2</ele>
        <time>2025-06-12T09:09:18Z</time>
      </trkpt>
      <trkpt lat="44.66952" lon="6.14895">
        <ele>1253.4</ele>
        <time>2025-06-12T09:09:19Z</time>
      </trkpt>
      <trkpt lat="44.66946" lon="6.14884">
        <ele>1253</ele>
        <time>2025-06-12T09:09:20Z</time>
      </trkpt>
      <trkpt lat="44.66941" lon="6.14872">
        <ele>1252.6</ele>
        <time>2025-06-12T09:09:21Z</time>
      </trkpt>
      <trkpt lat="44.66939" lon="6.14859">
        <ele>1252.4</ele>
        <time>2025-06-12T09:09:22Z</time>
      </trkpt>
      <trkpt lat="44.66933" lon="6.14831">
        <ele>1251.8</ele>
        <time>2025-06-12T09:09:24Z</time>
      </trkpt>
      <trkpt lat="44.66921" lon="6.14808">
        <ele>1251.2</ele>
        <time>2025-06-12T09:09:26Z</time>
      </trkpt>
      <trkpt lat="44.66914" lon="6.14799">
        <ele>1250.8</ele>
        <time>2025-06-12T09:09:27Z</time>
      </trkpt>
      <trkpt lat="44.66907" lon="6.1479">
        <ele>1250.4</ele>
        <time>2025-06-12T09:09:28Z</time>
      </trkpt>
      <trkpt lat="44.66899" lon="6.14781">
        <ele>1250</ele>
        <time>2025-06-12T09:09:29Z</time>
      </trkpt>
      <trkpt lat="44.66893" lon="6.14774">
        <ele>1249.8</ele>
        <time>2025-06-12T09:09:30Z</time>
      </trkpt>
      <trkpt lat="44.66886" lon="6.14765">
        <ele>1249.4</ele>
        <time>2025-06-12T09:09:31Z</time>
      </trkpt>
      <trkpt lat="44.6688" lon="6.14757">
        <ele>1248.8</ele>
        <time>2025-06-12T09:09:32Z</time>
      </trkpt>
      <trkpt lat="44.66874" lon="6.14748">
        <ele>1248.2</ele>
        <time>2025-06-12T09:09:33Z</time>
      </trkpt>
      <trkpt lat="44.66868" lon="6.1474">
        <ele>1247.6</ele>
        <time>2025-06-12T09:09:34Z</time>
      </trkpt>
      <trkpt lat="44.66863" lon="6.14732">
        <ele>1247.2</ele>
        <time>2025-06-12T09:09:35Z</time>
      </trkpt>
      <trkpt lat="44.6686" lon="6.14723">
        <ele>1246.8</ele>
        <time>2025-06-12T09:09:36Z</time>
      </trkpt>
      <trkpt lat="44.66857" lon="6.14714">
        <ele>1246.4</ele>
        <time>2025-06-12T09:09:37Z</time>
      </trkpt>
      <trkpt lat="44.66856" lon="6.14704">
        <ele>1246.2</ele>
        <time>2025-06-12T09:09:38Z</time>
      </trkpt>
      <trkpt lat="44.66856" lon="6.14693">
        <ele>1245.8</ele>
        <time>2025-06-12T09:09:39Z</time>
      </trkpt>
      <trkpt lat="44.66856" lon="6.14682">
        <ele>1245.4</ele>
        <time>2025-06-12T09:09:40Z</time>
      </trkpt>
      <trkpt lat="44.66857" lon="6.14671">
        <ele>1245.2</ele>
        <time>2025-06-12T09:09:41Z</time>
      </trkpt>
      <trkpt lat="44.66858" lon="6.1466">
        <ele>1245</ele>
        <time>2025-06-12T09:09:42Z</time>
      </trkpt>
      <trkpt lat="44.6686" lon="6.14636">
        <ele>1244.6</ele>
        <time>2025-06-12T09:09:44Z</time>
      </trkpt>
      <trkpt lat="44.66861" lon="6.14623">
        <ele>1244.6</ele>
        <time>2025-06-12T09:09:45Z</time>
      </trkpt>
      <trkpt lat="44.66863" lon="6.1461">
        <ele>1244.4</ele>
        <time>2025-06-12T09:09:46Z</time>
      </trkpt>
      <trkpt lat="44.66864" lon="6.14598">
        <ele>1244.2</ele>
        <time>2025-06-12T09:09:47Z</time>
      </trkpt>
      <trkpt lat="44.66866" lon="6.14586">
        <ele>1243.8</ele>
        <time>2025-06-12T09:09:48Z</time>
      </trkpt>
      <trkpt lat="44.66869" lon="6.14574">
        <ele>1243.4</ele>
        <time>2025-06-12T09:09:49Z</time>
      </trkpt>
      <trkpt lat="44.66876" lon="6.14551">
        <ele>1242.4</ele>
        <time>2025-06-12T09:09:51Z</time>
      </trkpt>
      <trkpt lat="44.6688" lon="6.14541">
        <ele>1241.2</ele>
        <time>2025-06-12T09:09:52Z</time>
      </trkpt>
      <trkpt lat="44.66884" lon="6.1453">
        <ele>1240.6</ele>
        <time>2025-06-12T09:09:53Z</time>
      </trkpt>
      <trkpt lat="44.66889" lon="6.14521">
        <ele>1240.2</ele>
        <time>2025-06-12T09:09:54Z</time>
      </trkpt>
      <trkpt lat="44.66893" lon="6.14513">
        <ele>1240</ele>
        <time>2025-06-12T09:09:55Z</time>
      </trkpt>
      <trkpt lat="44.66898" lon="6.14503">
        <ele>1239.8</ele>
        <time>2025-06-12T09:09:56Z</time>
      </trkpt>
      <trkpt lat="44.66906" lon="6.14486">
        <ele>1239.4</ele>
        <time>2025-06-12T09:09:58Z</time>
      </trkpt>
      <trkpt lat="44.66911" lon="6.14477">
        <ele>1239.4</ele>
        <time>2025-06-12T09:09:59Z</time>
      </trkpt>
      <trkpt lat="44.66915" lon="6.14469">
        <ele>1239.4</ele>
        <time>2025-06-12T09:10:00Z</time>
      </trkpt>
      <trkpt lat="44.66919" lon="6.14461">
        <ele>1239.2</ele>
        <time>2025-06-12T09:10:01Z</time>
      </trkpt>
      <trkpt lat="44.66928" lon="6.14447">
        <ele>1239.2</ele>
        <time>2025-06-12T09:10:03Z</time>
      </trkpt>
      <trkpt lat="44.66937" lon="6.14432">
        <ele>1239.2</ele>
        <time>2025-06-12T09:10:05Z</time>
      </trkpt>
      <trkpt lat="44.66941" lon="6.14424">
        <ele>1239.2</ele>
        <time>2025-06-12T09:10:06Z</time>
      </trkpt>
      <trkpt lat="44.66945" lon="6.14416">
        <ele>1239.2</ele>
        <time>2025-06-12T09:10:07Z</time>
      </trkpt>
      <trkpt lat="44.66949" lon="6.14409">
        <ele>1239.4</ele>
        <time>2025-06-12T09:10:08Z</time>
      </trkpt>
      <trkpt lat="44.66953" lon="6.14401">
        <ele>1239.4</ele>
        <time>2025-06-12T09:10:09Z</time>
      </trkpt>
      <trkpt lat="44.66957" lon="6.14393">
        <ele>1239.4</ele>
        <time>2025-06-12T09:10:10Z</time>
      </trkpt>
      <trkpt lat="44.66963" lon="6.14377">
        <ele>1239.4</ele>
        <time>2025-06-12T09:10:12Z</time>
      </trkpt>
      <trkpt lat="44.66969" lon="6.14362">
        <ele>1239.2</ele>
        <time>2025-06-12T09:10:14Z</time>
      </trkpt>
      <trkpt lat="44.66972" lon="6.14354">
        <ele>1239.2</ele>
        <time>2025-06-12T09:10:15Z</time>
      </trkpt>
      <trkpt lat="44.66975" lon="6.14347">
        <ele>1239.2</ele>
        <time>2025-06-12T09:10:16Z</time>
      </trkpt>
      <trkpt lat="44.66978" lon="6.14339">
        <ele>1239.2</ele>
        <time>2025-06-12T09:10:17Z</time>
      </trkpt>
      <trkpt lat="44.66981" lon="6.14332">
        <ele>1239.2</ele>
        <time>2025-06-12T09:10:18Z</time>
      </trkpt>
      <trkpt lat="44.66984" lon="6.14325">
        <ele>1239.4</ele>
        <time>2025-06-12T09:10:19Z</time>
      </trkpt>
      <trkpt lat="44.66991" lon="6.14311">
        <ele>1239.2</ele>
        <time>2025-06-12T09:10:21Z</time>
      </trkpt>
      <trkpt lat="44.66994" lon="6.14304">
        <ele>1239.2</ele>
        <time>2025-06-12T09:10:22Z</time>
      </trkpt>
      <trkpt lat="44.66998" lon="6.14298">
        <ele>1239.2</ele>
        <time>2025-06-12T09:10:23Z</time>
      </trkpt>
      <trkpt lat="44.67002" lon="6.14291">
        <ele>1239.2</ele>
        <time>2025-06-12T09:10:24Z</time>
      </trkpt>
      <trkpt lat="44.67006" lon="6.14285">
        <ele>1239.2</ele>
        <time>2025-06-12T09:10:25Z</time>
      </trkpt>
      <trkpt lat="44.6701" lon="6.14279">
        <ele>1239.2</ele>
        <time>2025-06-12T09:10:26Z</time>
      </trkpt>
      <trkpt lat="44.67021" lon="6.14271">
        <ele>1239.2</ele>
        <time>2025-06-12T09:10:28Z</time>
      </trkpt>
      <trkpt lat="44.67032" lon="6.14268">
        <ele>1239.2</ele>
        <time>2025-06-12T09:10:30Z</time>
      </trkpt>
      <trkpt lat="44.67038" lon="6.14269">
        <ele>1239.2</ele>
        <time>2025-06-12T09:10:31Z</time>
      </trkpt>
      <trkpt lat="44.67044" lon="6.1427">
        <ele>1239.2</ele>
        <time>2025-06-12T09:10:32Z</time>
      </trkpt>
      <trkpt lat="44.6705" lon="6.14272">
        <ele>1239.2</ele>
        <time>2025-06-12T09:10:33Z</time>
      </trkpt>
      <trkpt lat="44.67055" lon="6.14272">
        <ele>1239.2</ele>
        <time>2025-06-12T09:10:34Z</time>
      </trkpt>
      <trkpt lat="44.67061" lon="6.14273">
        <ele>1239.2</ele>
        <time>2025-06-12T09:10:35Z</time>
      </trkpt>
      <trkpt lat="44.67067" lon="6.14272">
        <ele>1239.2</ele>
        <time>2025-06-12T09:10:36Z</time>
      </trkpt>
      <trkpt lat="44.67072" lon="6.14272">
        <ele>1239.2</ele>
        <time>2025-06-12T09:10:37Z</time>
      </trkpt>
      <trkpt lat="44.67078" lon="6.14272">
        <ele>1239.2</ele>
        <time>2025-06-12T09:10:38Z</time>
      </trkpt>
      <trkpt lat="44.67083" lon="6.14273">
        <ele>1239.2</ele>
        <time>2025-06-12T09:10:39Z</time>
      </trkpt>
      <trkpt lat="44.67088" lon="6.14275">
        <ele>1239.2</ele>
        <time>2025-06-12T09:10:40Z</time>
      </trkpt>
      <trkpt lat="44.67092" lon="6.14279">
        <ele>1239.2</ele>
        <time>2025-06-12T09:10:41Z</time>
      </trkpt>
      <trkpt lat="44.67097" lon="6.14283">
        <ele>1239.2</ele>
        <time>2025-06-12T09:10:42Z</time>
      </trkpt>
      <trkpt lat="44.67101" lon="6.14288">
        <ele>1239.2</ele>
        <time>2025-06-12T09:10:43Z</time>
      </trkpt>
      <trkpt lat="44.67106" lon="6.14293">
        <ele>1239.2</ele>
        <time>2025-06-12T09:10:44Z</time>
      </trkpt>
      <trkpt lat="44.67116" lon="6.143">
        <ele>1239.2</ele>
        <time>2025-06-12T09:10:46Z</time>
      </trkpt>
      <trkpt lat="44.67121" lon="6.14303">
        <ele>1239.2</ele>
        <time>2025-06-12T09:10:47Z</time>
      </trkpt>
      <trkpt lat="44.67127" lon="6.14305">
        <ele>1239.2</ele>
        <time>2025-06-12T09:10:48Z</time>
      </trkpt>
      <trkpt lat="44.67133" lon="6.14305">
        <ele>1239.2</ele>
        <time>2025-06-12T09:10:49Z</time>
      </trkpt>
      <trkpt lat="44.67143" lon="6.143">
        <ele>1239.2</ele>
        <time>2025-06-12T09:10:51Z</time>
      </trkpt>
      <trkpt lat="44.67151" lon="6.14287">
        <ele>1239.2</ele>
        <time>2025-06-12T09:10:53Z</time>
      </trkpt>
      <trkpt lat="44.67152" lon="6.14278">
        <ele>1239.2</ele>
        <time>2025-06-12T09:10:54Z</time>
      </trkpt>
      <trkpt lat="44.67153" lon="6.1427">
        <ele>1239.2</ele>
        <time>2025-06-12T09:10:55Z</time>
      </trkpt>
      <trkpt lat="44.67152" lon="6.14263">
        <ele>1239</ele>
        <time>2025-06-12T09:10:56Z</time>
      </trkpt>
      <trkpt lat="44.6715" lon="6.14255">
        <ele>1239</ele>
        <time>2025-06-12T09:10:57Z</time>
      </trkpt>
      <trkpt lat="44.67147" lon="6.14248">
        <ele>1239</ele>
        <time>2025-06-12T09:10:58Z</time>
      </trkpt>
      <trkpt lat="44.67141" lon="6.14236">
        <ele>1239</ele>
        <time>2025-06-12T09:11:00Z</time>
      </trkpt>
      <trkpt lat="44.67137" lon="6.1423">
        <ele>1239</ele>
        <time>2025-06-12T09:11:01Z</time>
      </trkpt>
      <trkpt lat="44.67134" lon="6.14224">
        <ele>1238.8</ele>
        <time>2025-06-12T09:11:02Z</time>
      </trkpt>
      <trkpt lat="44.6713" lon="6.14217">
        <ele>1238.8</ele>
        <time>2025-06-12T09:11:03Z</time>
      </trkpt>
      <trkpt lat="44.67127" lon="6.14211">
        <ele>1238.8</ele>
        <time>2025-06-12T09:11:04Z</time>
      </trkpt>
      <trkpt lat="44.67124" lon="6.14205">
        <ele>1238.8</ele>
        <time>2025-06-12T09:11:05Z</time>
      </trkpt>
      <trkpt lat="44.6712" lon="6.14199">
        <ele>1238.6</ele>
        <time>2025-06-12T09:11:06Z</time>
      </trkpt>
      <trkpt lat="44.67117" lon="6.14192">
        <ele>1238.6</ele>
        <time>2025-06-12T09:11:07Z</time>
      </trkpt>
      <trkpt lat="44.67113" lon="6.14186">
        <ele>1238.6</ele>
        <time>2025-06-12T09:11:08Z</time>
      </trkpt>
      <trkpt lat="44.6711" lon="6.14179">
        <ele>1238.6</ele>
        <time>2025-06-12T09:11:09Z</time>
      </trkpt>
      <trkpt lat="44.67107" lon="6.14173">
        <ele>1238.6</ele>
        <time>2025-06-12T09:11:10Z</time>
      </trkpt>
      <trkpt lat="44.67103" lon="6.14167">
        <ele>1238.6</ele>
        <time>2025-06-12T09:11:11Z</time>
      </trkpt>
      <trkpt lat="44.671" lon="6.14161">
        <ele>1238.4</ele>
        <time>2025-06-12T09:11:12Z</time>
      </trkpt>
      <trkpt lat="44.67097" lon="6.14154">
        <ele>1238.4</ele>
        <time>2025-06-12T09:11:13Z</time>
      </trkpt>
      <trkpt lat="44.67095" lon="6.14146">
        <ele>1238.4</ele>
        <time>2025-06-12T09:11:14Z</time>
      </trkpt>
      <trkpt lat="44.67094" lon="6.14139">
        <ele>1238.2</ele>
        <time>2025-06-12T09:11:15Z</time>
      </trkpt>
      <trkpt lat="44.67093" lon="6.14131">
        <ele>1238.2</ele>
        <time>2025-06-12T09:11:16Z</time>
      </trkpt>
      <trkpt lat="44.67094" lon="6.14123">
        <ele>1238.2</ele>
        <time>2025-06-12T09:11:17Z</time>
      </trkpt>
      <trkpt lat="44.67095" lon="6.14116">
        <ele>1238.2</ele>
        <time>2025-06-12T09:11:18Z</time>
      </trkpt>
      <trkpt lat="44.67096" lon="6.14108">
        <ele>1238.2</ele>
        <time>2025-06-12T09:11:19Z</time>
      </trkpt>
      <trkpt lat="44.67098" lon="6.14101">
        <ele>1238.2</ele>
        <time>2025-06-12T09:11:20Z</time>
      </trkpt>
      <trkpt lat="44.671" lon="6.14094">
        <ele>1238.2</ele>
        <time>2025-06-12T09:11:21Z</time>
      </trkpt>
      <trkpt lat="44.67103" lon="6.14081">
        <ele>1238.2</ele>
        <time>2025-06-12T09:11:23Z</time>
      </trkpt>
      <trkpt lat="44.67106" lon="6.14074">
        <ele>1238.2</ele>
        <time>2025-06-12T09:11:24Z</time>
      </trkpt>
      <trkpt lat="44.67108" lon="6.14068">
        <ele>1238.4</ele>
        <time>2025-06-12T09:11:25Z</time>
      </trkpt>
      <trkpt lat="44.67111" lon="6.14062">
        <ele>1238.4</ele>
        <time>2025-06-12T09:11:26Z</time>
      </trkpt>
      <trkpt lat="44.67114" lon="6.14056">
        <ele>1238.6</ele>
        <time>2025-06-12T09:11:27Z</time>
      </trkpt>
      <trkpt lat="44.67116" lon="6.1405">
        <ele>1238.8</ele>
        <time>2025-06-12T09:11:28Z</time>
      </trkpt>
      <trkpt lat="44.67119" lon="6.14045">
        <ele>1238.8</ele>
        <time>2025-06-12T09:11:29Z</time>
      </trkpt>
      <trkpt lat="44.67122" lon="6.14039">
        <ele>1239</ele>
        <time>2025-06-12T09:11:30Z</time>
      </trkpt>
      <trkpt lat="44.67124" lon="6.14033">
        <ele>1239</ele>
        <time>2025-06-12T09:11:31Z</time>
      </trkpt>
      <trkpt lat="44.67126" lon="6.14026">
        <ele>1239</ele>
        <time>2025-06-12T09:11:32Z</time>
      </trkpt>
      <trkpt lat="44.67129" lon="6.14019">
        <ele>1239</ele>
        <time>2025-06-12T09:11:33Z</time>
      </trkpt>
      <trkpt lat="44.67133" lon="6.14013">
        <ele>1239</ele>
        <time>2025-06-12T09:11:34Z</time>
      </trkpt>
      <trkpt lat="44.67137" lon="6.14007">
        <ele>1239</ele>
        <time>2025-06-12T09:11:35Z</time>
      </trkpt>
      <trkpt lat="44.67142" lon="6.14001">
        <ele>1239</ele>
        <time>2025-06-12T09:11:36Z</time>
      </trkpt>
      <trkpt lat="44.67147" lon="6.13993">
        <ele>1239</ele>
        <time>2025-06-12T09:11:37Z</time>
      </trkpt>
      <trkpt lat="44.6715" lon="6.13985">
        <ele>1239</ele>
        <time>2025-06-12T09:11:38Z</time>
      </trkpt>
      <trkpt lat="44.67151" lon="6.13975">
        <ele>1239</ele>
        <time>2025-06-12T09:11:39Z</time>
      </trkpt>
      <trkpt lat="44.67151" lon="6.13966">
        <ele>1239</ele>
        <time>2025-06-12T09:11:40Z</time>
      </trkpt>
      <trkpt lat="44.6715" lon="6.13958">
        <ele>1239</ele>
        <time>2025-06-12T09:11:41Z</time>
      </trkpt>
      <trkpt lat="44.67147" lon="6.13951">
        <ele>1239</ele>
        <time>2025-06-12T09:11:42Z</time>
      </trkpt>
      <trkpt lat="44.67136" lon="6.13937">
        <ele>1237.4</ele>
        <time>2025-06-12T09:11:44Z</time>
      </trkpt>
      <trkpt lat="44.67129" lon="6.13931">
        <ele>1236.8</ele>
        <time>2025-06-12T09:11:45Z</time>
      </trkpt>
      <trkpt lat="44.67122" lon="6.13925">
        <ele>1236.2</ele>
        <time>2025-06-12T09:11:46Z</time>
      </trkpt>
      <trkpt lat="44.67106" lon="6.13913">
        <ele>1235.4</ele>
        <time>2025-06-12T09:11:48Z</time>
      </trkpt>
      <trkpt lat="44.67098" lon="6.13907">
        <ele>1235</ele>
        <time>2025-06-12T09:11:49Z</time>
      </trkpt>
      <trkpt lat="44.6709" lon="6.13902">
        <ele>1234.6</ele>
        <time>2025-06-12T09:11:50Z</time>
      </trkpt>
      <trkpt lat="44.67082" lon="6.13898">
        <ele>1233.8</ele>
        <time>2025-06-12T09:11:51Z</time>
      </trkpt>
      <trkpt lat="44.67074" lon="6.13895">
        <ele>1232.8</ele>
        <time>2025-06-12T09:11:52Z</time>
      </trkpt>
      <trkpt lat="44.67066" lon="6.13891">
        <ele>1231.6</ele>
        <time>2025-06-12T09:11:53Z</time>
      </trkpt>
      <trkpt lat="44.67058" lon="6.13888">
        <ele>1230.6</ele>
        <time>2025-06-12T09:11:54Z</time>
      </trkpt>
      <trkpt lat="44.67051" lon="6.13883">
        <ele>1229.6</ele>
        <time>2025-06-12T09:11:55Z</time>
      </trkpt>
      <trkpt lat="44.67044" lon="6.13876">
        <ele>1228.8</ele>
        <time>2025-06-12T09:11:56Z</time>
      </trkpt>
      <trkpt lat="44.67033" lon="6.13856">
        <ele>1227.6</ele>
        <time>2025-06-12T09:11:58Z</time>
      </trkpt>
      <trkpt lat="44.67028" lon="6.13844">
        <ele>1226.8</ele>
        <time>2025-06-12T09:11:59Z</time>
      </trkpt>
      <trkpt lat="44.67024" lon="6.13832">
        <ele>1226</ele>
        <time>2025-06-12T09:12:00Z</time>
      </trkpt>
      <trkpt lat="44.6702" lon="6.13819">
        <ele>1225.4</ele>
        <time>2025-06-12T09:12:01Z</time>
      </trkpt>
      <trkpt lat="44.67016" lon="6.13807">
        <ele>1225</ele>
        <time>2025-06-12T09:12:02Z</time>
      </trkpt>
      <trkpt lat="44.67012" lon="6.13795">
        <ele>1224.4</ele>
        <time>2025-06-12T09:12:03Z</time>
      </trkpt>
      <trkpt lat="44.6701" lon="6.13783">
        <ele>1223.6</ele>
        <time>2025-06-12T09:12:04Z</time>
      </trkpt>
      <trkpt lat="44.67008" lon="6.1377">
        <ele>1222.8</ele>
        <time>2025-06-12T09:12:05Z</time>
      </trkpt>
      <trkpt lat="44.67007" lon="6.13758">
        <ele>1222</ele>
        <time>2025-06-12T09:12:06Z</time>
      </trkpt>
      <trkpt lat="44.67005" lon="6.13746">
        <ele>1221</ele>
        <time>2025-06-12T09:12:07Z</time>
      </trkpt>
      <trkpt lat="44.67002" lon="6.13734">
        <ele>1220</ele>
        <time>2025-06-12T09:12:08Z</time>
      </trkpt>
      <trkpt lat="44.66999" lon="6.13722">
        <ele>1219</ele>
        <time>2025-06-12T09:12:09Z</time>
      </trkpt>
      <trkpt lat="44.66995" lon="6.1371">
        <ele>1217.2</ele>
        <time>2025-06-12T09:12:10Z</time>
      </trkpt>
      <trkpt lat="44.66993" lon="6.13698">
        <ele>1216.6</ele>
        <time>2025-06-12T09:12:11Z</time>
      </trkpt>
      <trkpt lat="44.66991" lon="6.13686">
        <ele>1216</ele>
        <time>2025-06-12T09:12:12Z</time>
      </trkpt>
      <trkpt lat="44.66991" lon="6.13675">
        <ele>1215.6</ele>
        <time>2025-06-12T09:12:13Z</time>
      </trkpt>
      <trkpt lat="44.6699" lon="6.13663">
        <ele>1215</ele>
        <time>2025-06-12T09:12:14Z</time>
      </trkpt>
      <trkpt lat="44.6699" lon="6.1365">
        <ele>1214.4</ele>
        <time>2025-06-12T09:12:15Z</time>
      </trkpt>
      <trkpt lat="44.66989" lon="6.13637">
        <ele>1213.8</ele>
        <time>2025-06-12T09:12:16Z</time>
      </trkpt>
      <trkpt lat="44.66986" lon="6.13624">
        <ele>1213</ele>
        <time>2025-06-12T09:12:17Z</time>
      </trkpt>
      <trkpt lat="44.66983" lon="6.13612">
        <ele>1211.8</ele>
        <time>2025-06-12T09:12:18Z</time>
      </trkpt>
      <trkpt lat="44.6698" lon="6.13601">
        <ele>1210.8</ele>
        <time>2025-06-12T09:12:19Z</time>
      </trkpt>
      <trkpt lat="44.66976" lon="6.13592">
        <ele>1210.2</ele>
        <time>2025-06-12T09:12:20Z</time>
      </trkpt>
      <trkpt lat="44.66971" lon="6.13583">
        <ele>1210</ele>
        <time>2025-06-12T09:12:21Z</time>
      </trkpt>
      <trkpt lat="44.66965" lon="6.13577">
        <ele>1209.4</ele>
        <time>2025-06-12T09:12:22Z</time>
      </trkpt>
      <trkpt lat="44.66959" lon="6.13571">
        <ele>1209</ele>
        <time>2025-06-12T09:12:23Z</time>
      </trkpt>
      <trkpt lat="44.66953" lon="6.13566">
        <ele>1208</ele>
        <time>2025-06-12T09:12:24Z</time>
      </trkpt>
      <trkpt lat="44.66949" lon="6.13558">
        <ele>1206.8</ele>
        <time>2025-06-12T09:12:25Z</time>
      </trkpt>
      <trkpt lat="44.66945" lon="6.13549">
        <ele>1205.6</ele>
        <time>2025-06-12T09:12:26Z</time>
      </trkpt>
      <trkpt lat="44.66941" lon="6.13531">
        <ele>1204.4</ele>
        <time>2025-06-12T09:12:28Z</time>
      </trkpt>
      <trkpt lat="44.66941" lon="6.13518">
        <ele>1203.4</ele>
        <time>2025-06-12T09:12:30Z</time>
      </trkpt>
      <trkpt lat="44.66938" lon="6.13508">
        <ele>1202.2</ele>
        <time>2025-06-12T09:12:32Z</time>
      </trkpt>
      <trkpt lat="44.6693" lon="6.13504">
        <ele>1201.4</ele>
        <time>2025-06-12T09:12:34Z</time>
      </trkpt>
      <trkpt lat="44.66926" lon="6.13506">
        <ele>1200.8</ele>
        <time>2025-06-12T09:12:35Z</time>
      </trkpt>
      <trkpt lat="44.66922" lon="6.13511">
        <ele>1200.2</ele>
        <time>2025-06-12T09:12:36Z</time>
      </trkpt>
      <trkpt lat="44.66919" lon="6.13517">
        <ele>1200</ele>
        <time>2025-06-12T09:12:37Z</time>
      </trkpt>
      <trkpt lat="44.66915" lon="6.13526">
        <ele>1199.8</ele>
        <time>2025-06-12T09:12:38Z</time>
      </trkpt>
      <trkpt lat="44.6691" lon="6.13534">
        <ele>1199.6</ele>
        <time>2025-06-12T09:12:39Z</time>
      </trkpt>
      <trkpt lat="44.66905" lon="6.13541">
        <ele>1199.4</ele>
        <time>2025-06-12T09:12:40Z</time>
      </trkpt>
      <trkpt lat="44.66898" lon="6.13547">
        <ele>1199.2</ele>
        <time>2025-06-12T09:12:41Z</time>
      </trkpt>
      <trkpt lat="44.66891" lon="6.13551">
        <ele>1198.8</ele>
        <time>2025-06-12T09:12:42Z</time>
      </trkpt>
      <trkpt lat="44.66883" lon="6.13553">
        <ele>1198.4</ele>
        <time>2025-06-12T09:12:43Z</time>
      </trkpt>
      <trkpt lat="44.66875" lon="6.13555">
        <ele>1197.8</ele>
        <time>2025-06-12T09:12:44Z</time>
      </trkpt>
      <trkpt lat="44.66866" lon="6.13557">
        <ele>1197</ele>
        <time>2025-06-12T09:12:45Z</time>
      </trkpt>
      <trkpt lat="44.66859" lon="6.1356">
        <ele>1195.8</ele>
        <time>2025-06-12T09:12:46Z</time>
      </trkpt>
      <trkpt lat="44.66852" lon="6.13563">
        <ele>1194.8</ele>
        <time>2025-06-12T09:12:47Z</time>
      </trkpt>
      <trkpt lat="44.66846" lon="6.13567">
        <ele>1194</ele>
        <time>2025-06-12T09:12:48Z</time>
      </trkpt>
      <trkpt lat="44.6684" lon="6.13571">
        <ele>1193.4</ele>
        <time>2025-06-12T09:12:49Z</time>
      </trkpt>
      <trkpt lat="44.66836" lon="6.13578">
        <ele>1192.8</ele>
        <time>2025-06-12T09:12:50Z</time>
      </trkpt>
      <trkpt lat="44.66833" lon="6.13586">
        <ele>1192.2</ele>
        <time>2025-06-12T09:12:51Z</time>
      </trkpt>
      <trkpt lat="44.66832" lon="6.13596">
        <ele>1191.6</ele>
        <time>2025-06-12T09:12:52Z</time>
      </trkpt>
      <trkpt lat="44.66833" lon="6.13607">
        <ele>1190.8</ele>
        <time>2025-06-12T09:12:53Z</time>
      </trkpt>
      <trkpt lat="44.66832" lon="6.13618">
        <ele>1190</ele>
        <time>2025-06-12T09:12:54Z</time>
      </trkpt>
      <trkpt lat="44.66828" lon="6.13638">
        <ele>1188.6</ele>
        <time>2025-06-12T09:12:56Z</time>
      </trkpt>
      <trkpt lat="44.66824" lon="6.13645">
        <ele>1188.2</ele>
        <time>2025-06-12T09:12:57Z</time>
      </trkpt>
      <trkpt lat="44.66818" lon="6.13651">
        <ele>1187.8</ele>
        <time>2025-06-12T09:12:58Z</time>
      </trkpt>
      <trkpt lat="44.66812" lon="6.13655">
        <ele>1187.4</ele>
        <time>2025-06-12T09:12:59Z</time>
      </trkpt>
      <trkpt lat="44.66805" lon="6.13657">
        <ele>1186.8</ele>
        <time>2025-06-12T09:13:00Z</time>
      </trkpt>
      <trkpt lat="44.66798" lon="6.13658">
        <ele>1186.2</ele>
        <time>2025-06-12T09:13:01Z</time>
      </trkpt>
      <trkpt lat="44.6679" lon="6.1366">
        <ele>1185.4</ele>
        <time>2025-06-12T09:13:02Z</time>
      </trkpt>
      <trkpt lat="44.66783" lon="6.1366">
        <ele>1184.4</ele>
        <time>2025-06-12T09:13:03Z</time>
      </trkpt>
      <trkpt lat="44.66776" lon="6.1366">
        <ele>1183.6</ele>
        <time>2025-06-12T09:13:04Z</time>
      </trkpt>
      <trkpt lat="44.66769" lon="6.13659">
        <ele>1182.4</ele>
        <time>2025-06-12T09:13:05Z</time>
      </trkpt>
      <trkpt lat="44.66762" lon="6.13656">
        <ele>1182</ele>
        <time>2025-06-12T09:13:06Z</time>
      </trkpt>
      <trkpt lat="44.66755" lon="6.1365">
        <ele>1181.6</ele>
        <time>2025-06-12T09:13:07Z</time>
      </trkpt>
      <trkpt lat="44.66749" lon="6.13643">
        <ele>1181.2</ele>
        <time>2025-06-12T09:13:08Z</time>
      </trkpt>
      <trkpt lat="44.66734" lon="6.13628">
        <ele>1180.2</ele>
        <time>2025-06-12T09:13:10Z</time>
      </trkpt>
      <trkpt lat="44.66725" lon="6.13623">
        <ele>1179.6</ele>
        <time>2025-06-12T09:13:11Z</time>
      </trkpt>
      <trkpt lat="44.66716" lon="6.13621">
        <ele>1178.8</ele>
        <time>2025-06-12T09:13:12Z</time>
      </trkpt>
      <trkpt lat="44.66706" lon="6.13619">
        <ele>1178.4</ele>
        <time>2025-06-12T09:13:13Z</time>
      </trkpt>
      <trkpt lat="44.66696" lon="6.13619">
        <ele>1177.6</ele>
        <time>2025-06-12T09:13:14Z</time>
      </trkpt>
      <trkpt lat="44.66686" lon="6.13619">
        <ele>1177</ele>
        <time>2025-06-12T09:13:15Z</time>
      </trkpt>
      <trkpt lat="44.66676" lon="6.1362">
        <ele>1176</ele>
        <time>2025-06-12T09:13:16Z</time>
      </trkpt>
      <trkpt lat="44.66666" lon="6.13622">
        <ele>1175</ele>
        <time>2025-06-12T09:13:17Z</time>
      </trkpt>
      <trkpt lat="44.66655" lon="6.13626">
        <ele>1174</ele>
        <time>2025-06-12T09:13:18Z</time>
      </trkpt>
      <trkpt lat="44.66645" lon="6.13631">
        <ele>1173</ele>
        <time>2025-06-12T09:13:19Z</time>
      </trkpt>
      <trkpt lat="44.66634" lon="6.13635">
        <ele>1172</ele>
        <time>2025-06-12T09:13:20Z</time>
      </trkpt>
      <trkpt lat="44.66624" lon="6.1364">
        <ele>1170.8</ele>
        <time>2025-06-12T09:13:21Z</time>
      </trkpt>
      <trkpt lat="44.66613" lon="6.13646">
        <ele>1169.6</ele>
        <time>2025-06-12T09:13:22Z</time>
      </trkpt>
      <trkpt lat="44.66603" lon="6.13653">
        <ele>1168.8</ele>
        <time>2025-06-12T09:13:23Z</time>
      </trkpt>
      <trkpt lat="44.66593" lon="6.13662">
        <ele>1168.2</ele>
        <time>2025-06-12T09:13:24Z</time>
      </trkpt>
      <trkpt lat="44.66583" lon="6.13672">
        <ele>1167.6</ele>
        <time>2025-06-12T09:13:25Z</time>
      </trkpt>
      <trkpt lat="44.66573" lon="6.13683">
        <ele>1167</ele>
        <time>2025-06-12T09:13:26Z</time>
      </trkpt>
      <trkpt lat="44.66563" lon="6.13694">
        <ele>1166.2</ele>
        <time>2025-06-12T09:13:27Z</time>
      </trkpt>
      <trkpt lat="44.66553" lon="6.13706">
        <ele>1165.2</ele>
        <time>2025-06-12T09:13:28Z</time>
      </trkpt>
      <trkpt lat="44.66544" lon="6.13718">
        <ele>1164</ele>
        <time>2025-06-12T09:13:29Z</time>
      </trkpt>
      <trkpt lat="44.66534" lon="6.1373">
        <ele>1162.8</ele>
        <time>2025-06-12T09:13:30Z</time>
      </trkpt>
      <trkpt lat="44.66526" lon="6.1374">
        <ele>1161.6</ele>
        <time>2025-06-12T09:13:31Z</time>
      </trkpt>
      <trkpt lat="44.66518" lon="6.1375">
        <ele>1160.4</ele>
        <time>2025-06-12T09:13:32Z</time>
      </trkpt>
      <trkpt lat="44.66511" lon="6.13759">
        <ele>1158.4</ele>
        <time>2025-06-12T09:13:33Z</time>
      </trkpt>
      <trkpt lat="44.66504" lon="6.13767">
        <ele>1157.2</ele>
        <time>2025-06-12T09:13:34Z</time>
      </trkpt>
      <trkpt lat="44.66498" lon="6.13775">
        <ele>1156</ele>
        <time>2025-06-12T09:13:35Z</time>
      </trkpt>
      <trkpt lat="44.66494" lon="6.13783">
        <ele>1154.8</ele>
        <time>2025-06-12T09:13:36Z</time>
      </trkpt>
      <trkpt lat="44.6649" lon="6.13792">
        <ele>1153.8</ele>
        <time>2025-06-12T09:13:37Z</time>
      </trkpt>
      <trkpt lat="44.66488" lon="6.13812">
        <ele>1152.2</ele>
        <time>2025-06-12T09:13:39Z</time>
      </trkpt>
      <trkpt lat="44.6649" lon="6.13833">
        <ele>1151.2</ele>
        <time>2025-06-12T09:13:41Z</time>
      </trkpt>
      <trkpt lat="44.66489" lon="6.13852">
        <ele>1150.8</ele>
        <time>2025-06-12T09:13:43Z</time>
      </trkpt>
      <trkpt lat="44.66482" lon="6.13865">
        <ele>1150.4</ele>
        <time>2025-06-12T09:13:45Z</time>
      </trkpt>
      <trkpt lat="44.66477" lon="6.1387">
        <ele>1150</ele>
        <time>2025-06-12T09:13:46Z</time>
      </trkpt>
      <trkpt lat="44.6647" lon="6.13872">
        <ele>1149.6</ele>
        <time>2025-06-12T09:13:47Z</time>
      </trkpt>
      <trkpt lat="44.66456" lon="6.13871">
        <ele>1149</ele>
        <time>2025-06-12T09:13:49Z</time>
      </trkpt>
      <trkpt lat="44.66442" lon="6.1386">
        <ele>1148.2</ele>
        <time>2025-06-12T09:13:51Z</time>
      </trkpt>
      <trkpt lat="44.66436" lon="6.13853">
        <ele>1147.8</ele>
        <time>2025-06-12T09:13:52Z</time>
      </trkpt>
      <trkpt lat="44.66429" lon="6.13846">
        <ele>1147.4</ele>
        <time>2025-06-12T09:13:53Z</time>
      </trkpt>
      <trkpt lat="44.66422" lon="6.13839">
        <ele>1147</ele>
        <time>2025-06-12T09:13:54Z</time>
      </trkpt>
      <trkpt lat="44.66415" lon="6.13834">
        <ele>1146.4</ele>
        <time>2025-06-12T09:13:55Z</time>
      </trkpt>
      <trkpt lat="44.66406" lon="6.13829">
        <ele>1145.6</ele>
        <time>2025-06-12T09:13:56Z</time>
      </trkpt>
      <trkpt lat="44.66397" lon="6.13826">
        <ele>1144.8</ele>
        <time>2025-06-12T09:13:57Z</time>
      </trkpt>
      <trkpt lat="44.66387" lon="6.13823">
        <ele>1144</ele>
        <time>2025-06-12T09:13:58Z</time>
      </trkpt>
      <trkpt lat="44.66377" lon="6.1382">
        <ele>1143.2</ele>
        <time>2025-06-12T09:13:59Z</time>
      </trkpt>
      <trkpt lat="44.66366" lon="6.13817">
        <ele>1142.8</ele>
        <time>2025-06-12T09:14:00Z</time>
      </trkpt>
      <trkpt lat="44.66355" lon="6.13813">
        <ele>1141.8</ele>
        <time>2025-06-12T09:14:01Z</time>
      </trkpt>
      <trkpt lat="44.66344" lon="6.13808">
        <ele>1141.2</ele>
        <time>2025-06-12T09:14:02Z</time>
      </trkpt>
      <trkpt lat="44.66333" lon="6.13802">
        <ele>1140.4</ele>
        <time>2025-06-12T09:14:03Z</time>
      </trkpt>
      <trkpt lat="44.66323" lon="6.13796">
        <ele>1139.6</ele>
        <time>2025-06-12T09:14:04Z</time>
      </trkpt>
      <trkpt lat="44.66313" lon="6.13789">
        <ele>1138.4</ele>
        <time>2025-06-12T09:14:05Z</time>
      </trkpt>
      <trkpt lat="44.66304" lon="6.13783">
        <ele>1137.2</ele>
        <time>2025-06-12T09:14:06Z</time>
      </trkpt>
      <trkpt lat="44.66296" lon="6.13777">
        <ele>1136</ele>
        <time>2025-06-12T09:14:07Z</time>
      </trkpt>
      <trkpt lat="44.66289" lon="6.1377">
        <ele>1135</ele>
        <time>2025-06-12T09:14:08Z</time>
      </trkpt>
      <trkpt lat="44.66282" lon="6.13761">
        <ele>1133.8</ele>
        <time>2025-06-12T09:14:09Z</time>
      </trkpt>
      <trkpt lat="44.66277" lon="6.13752">
        <ele>1132.8</ele>
        <time>2025-06-12T09:14:10Z</time>
      </trkpt>
      <trkpt lat="44.66271" lon="6.1374">
        <ele>1131.8</ele>
        <time>2025-06-12T09:14:11Z</time>
      </trkpt>
      <trkpt lat="44.66265" lon="6.13729">
        <ele>1131.2</ele>
        <time>2025-06-12T09:14:12Z</time>
      </trkpt>
      <trkpt lat="44.66254" lon="6.13703">
        <ele>1130.6</ele>
        <time>2025-06-12T09:14:14Z</time>
      </trkpt>
      <trkpt lat="44.66249" lon="6.13689">
        <ele>1130.4</ele>
        <time>2025-06-12T09:14:15Z</time>
      </trkpt>
      <trkpt lat="44.66245" lon="6.13673">
        <ele>1130</ele>
        <time>2025-06-12T09:14:16Z</time>
      </trkpt>
      <trkpt lat="44.66239" lon="6.13642">
        <ele>1129.6</ele>
        <time>2025-06-12T09:14:18Z</time>
      </trkpt>
      <trkpt lat="44.66237" lon="6.13625">
        <ele>1129</ele>
        <time>2025-06-12T09:14:19Z</time>
      </trkpt>
      <trkpt lat="44.66234" lon="6.13609">
        <ele>1128.4</ele>
        <time>2025-06-12T09:14:20Z</time>
      </trkpt>
      <trkpt lat="44.66231" lon="6.13592">
        <ele>1127.6</ele>
        <time>2025-06-12T09:14:21Z</time>
      </trkpt>
      <trkpt lat="44.66227" lon="6.13574">
        <ele>1126.8</ele>
        <time>2025-06-12T09:14:22Z</time>
      </trkpt>
      <trkpt lat="44.66224" lon="6.13557">
        <ele>1125.6</ele>
        <time>2025-06-12T09:14:23Z</time>
      </trkpt>
      <trkpt lat="44.6622" lon="6.13539">
        <ele>1124.4</ele>
        <time>2025-06-12T09:14:24Z</time>
      </trkpt>
      <trkpt lat="44.66217" lon="6.1352">
        <ele>1123.2</ele>
        <time>2025-06-12T09:14:25Z</time>
      </trkpt>
      <trkpt lat="44.66214" lon="6.13501">
        <ele>1122.2</ele>
        <time>2025-06-12T09:14:26Z</time>
      </trkpt>
      <trkpt lat="44.6621" lon="6.13482">
        <ele>1121.4</ele>
        <time>2025-06-12T09:14:27Z</time>
      </trkpt>
      <trkpt lat="44.66207" lon="6.13464">
        <ele>1119.2</ele>
        <time>2025-06-12T09:14:28Z</time>
      </trkpt>
      <trkpt lat="44.66203" lon="6.13447">
        <ele>1118</ele>
        <time>2025-06-12T09:14:29Z</time>
      </trkpt>
      <trkpt lat="44.662" lon="6.13431">
        <ele>1117.2</ele>
        <time>2025-06-12T09:14:30Z</time>
      </trkpt>
      <trkpt lat="44.66196" lon="6.13417">
        <ele>1116.2</ele>
        <time>2025-06-12T09:14:31Z</time>
      </trkpt>
      <trkpt lat="44.66192" lon="6.13403">
        <ele>1115</ele>
        <time>2025-06-12T09:14:32Z</time>
      </trkpt>
      <trkpt lat="44.66188" lon="6.1339">
        <ele>1113.8</ele>
        <time>2025-06-12T09:14:33Z</time>
      </trkpt>
      <trkpt lat="44.66184" lon="6.13378">
        <ele>1112.4</ele>
        <time>2025-06-12T09:14:34Z</time>
      </trkpt>
      <trkpt lat="44.6618" lon="6.13367">
        <ele>1111.2</ele>
        <time>2025-06-12T09:14:35Z</time>
      </trkpt>
      <trkpt lat="44.66175" lon="6.13357">
        <ele>1110</ele>
        <time>2025-06-12T09:14:36Z</time>
      </trkpt>
      <trkpt lat="44.66169" lon="6.1335">
        <ele>1109</ele>
        <time>2025-06-12T09:14:37Z</time>
      </trkpt>
      <trkpt lat="44.66156" lon="6.1334">
        <ele>1107.6</ele>
        <time>2025-06-12T09:14:39Z</time>
      </trkpt>
      <trkpt lat="44.66148" lon="6.13337">
        <ele>1107.2</ele>
        <time>2025-06-12T09:14:40Z</time>
      </trkpt>
      <trkpt lat="44.6614" lon="6.13335">
        <ele>1107</ele>
        <time>2025-06-12T09:14:41Z</time>
      </trkpt>
      <trkpt lat="44.66132" lon="6.13334">
        <ele>1106.8</ele>
        <time>2025-06-12T09:14:42Z</time>
      </trkpt>
      <trkpt lat="44.66124" lon="6.13332">
        <ele>1106.6</ele>
        <time>2025-06-12T09:14:43Z</time>
      </trkpt>
      <trkpt lat="44.66116" lon="6.13331">
        <ele>1106.4</ele>
        <time>2025-06-12T09:14:44Z</time>
      </trkpt>
      <trkpt lat="44.66108" lon="6.1333">
        <ele>1106</ele>
        <time>2025-06-12T09:14:45Z</time>
      </trkpt>
      <trkpt lat="44.66099" lon="6.13328">
        <ele>1105.4</ele>
        <time>2025-06-12T09:14:46Z</time>
      </trkpt>
      <trkpt lat="44.66091" lon="6.13326">
        <ele>1104.8</ele>
        <time>2025-06-12T09:14:47Z</time>
      </trkpt>
      <trkpt lat="44.66084" lon="6.13322">
        <ele>1104.2</ele>
        <time>2025-06-12T09:14:48Z</time>
      </trkpt>
      <trkpt lat="44.66077" lon="6.13318">
        <ele>1103.6</ele>
        <time>2025-06-12T09:14:49Z</time>
      </trkpt>
      <trkpt lat="44.6607" lon="6.13313">
        <ele>1103.2</ele>
        <time>2025-06-12T09:14:50Z</time>
      </trkpt>
      <trkpt lat="44.66063" lon="6.13306">
        <ele>1102.6</ele>
        <time>2025-06-12T09:14:51Z</time>
      </trkpt>
      <trkpt lat="44.66057" lon="6.13299">
        <ele>1102.2</ele>
        <time>2025-06-12T09:14:52Z</time>
      </trkpt>
      <trkpt lat="44.6605" lon="6.13292">
        <ele>1101.8</ele>
        <time>2025-06-12T09:14:53Z</time>
      </trkpt>
      <trkpt lat="44.66043" lon="6.13287">
        <ele>1101.6</ele>
        <time>2025-06-12T09:14:54Z</time>
      </trkpt>
      <trkpt lat="44.66037" lon="6.13284">
        <ele>1101.4</ele>
        <time>2025-06-12T09:14:55Z</time>
      </trkpt>
      <trkpt lat="44.6603" lon="6.13283">
        <ele>1101</ele>
        <time>2025-06-12T09:14:56Z</time>
      </trkpt>
      <trkpt lat="44.66024" lon="6.13281">
        <ele>1100.8</ele>
        <time>2025-06-12T09:14:57Z</time>
      </trkpt>
      <trkpt lat="44.66019" lon="6.13278">
        <ele>1100.4</ele>
        <time>2025-06-12T09:14:58Z</time>
      </trkpt>
      <trkpt lat="44.66013" lon="6.13272">
        <ele>1100</ele>
        <time>2025-06-12T09:14:59Z</time>
      </trkpt>
      <trkpt lat="44.66008" lon="6.13265">
        <ele>1099.2</ele>
        <time>2025-06-12T09:15:00Z</time>
      </trkpt>
      <trkpt lat="44.66004" lon="6.13257">
        <ele>1098.6</ele>
        <time>2025-06-12T09:15:01Z</time>
      </trkpt>
      <trkpt lat="44.66" lon="6.13247">
        <ele>1098.2</ele>
        <time>2025-06-12T09:15:02Z</time>
      </trkpt>
      <trkpt lat="44.65997" lon="6.13235">
        <ele>1098</ele>
        <time>2025-06-12T09:15:03Z</time>
      </trkpt>
      <trkpt lat="44.65996" lon="6.13223">
        <ele>1097.8</ele>
        <time>2025-06-12T09:15:04Z</time>
      </trkpt>
      <trkpt lat="44.65995" lon="6.1321">
        <ele>1097.6</ele>
        <time>2025-06-12T09:15:05Z</time>
      </trkpt>
      <trkpt lat="44.65994" lon="6.13198">
        <ele>1097.4</ele>
        <time>2025-06-12T09:15:06Z</time>
      </trkpt>
      <trkpt lat="44.65994" lon="6.13186">
        <ele>1097.2</ele>
        <time>2025-06-12T09:15:07Z</time>
      </trkpt>
      <trkpt lat="44.65994" lon="6.13175">
        <ele>1096.8</ele>
        <time>2025-06-12T09:15:08Z</time>
      </trkpt>
      <trkpt lat="44.65996" lon="6.13165">
        <ele>1096.2</ele>
        <time>2025-06-12T09:15:09Z</time>
      </trkpt>
      <trkpt lat="44.65999" lon="6.13155">
        <ele>1095.6</ele>
        <time>2025-06-12T09:15:10Z</time>
      </trkpt>
      <trkpt lat="44.66004" lon="6.13146">
        <ele>1094.8</ele>
        <time>2025-06-12T09:15:11Z</time>
      </trkpt>
      <trkpt lat="44.66009" lon="6.13139">
        <ele>1094.2</ele>
        <time>2025-06-12T09:15:12Z</time>
      </trkpt>
      <trkpt lat="44.66016" lon="6.13134">
        <ele>1093.4</ele>
        <time>2025-06-12T09:15:13Z</time>
      </trkpt>
      <trkpt lat="44.66023" lon="6.13132">
        <ele>1092.6</ele>
        <time>2025-06-12T09:15:14Z</time>
      </trkpt>
      <trkpt lat="44.66029" lon="6.1313">
        <ele>1092</ele>
        <time>2025-06-12T09:15:15Z</time>
      </trkpt>
      <trkpt lat="44.66035" lon="6.13129">
        <ele>1091.4</ele>
        <time>2025-06-12T09:15:16Z</time>
      </trkpt>
      <trkpt lat="44.66039" lon="6.13125">
        <ele>1091</ele>
        <time>2025-06-12T09:15:17Z</time>
      </trkpt>
      <trkpt lat="44.66041" lon="6.13121">
        <ele>1090.6</ele>
        <time>2025-06-12T09:15:18Z</time>
      </trkpt>
      <trkpt lat="44.66043" lon="6.13115">
        <ele>1089.8</ele>
        <time>2025-06-12T09:15:19Z</time>
      </trkpt>
      <trkpt lat="44.66041" lon="6.13102">
        <ele>1088.6</ele>
        <time>2025-06-12T09:15:21Z</time>
      </trkpt>
      <trkpt lat="44.66038" lon="6.13088">
        <ele>1087.8</ele>
        <time>2025-06-12T09:15:23Z</time>
      </trkpt>
      <trkpt lat="44.66037" lon="6.1308">
        <ele>1087.2</ele>
        <time>2025-06-12T09:15:24Z</time>
      </trkpt>
      <trkpt lat="44.66038" lon="6.13071">
        <ele>1087</ele>
        <time>2025-06-12T09:15:25Z</time>
      </trkpt>
      <trkpt lat="44.66039" lon="6.13063">
        <ele>1086.6</ele>
        <time>2025-06-12T09:15:26Z</time>
      </trkpt>
      <trkpt lat="44.66042" lon="6.13054">
        <ele>1086.2</ele>
        <time>2025-06-12T09:15:27Z</time>
      </trkpt>
      <trkpt lat="44.66045" lon="6.13045">
        <ele>1085.8</ele>
        <time>2025-06-12T09:15:28Z</time>
      </trkpt>
      <trkpt lat="44.66048" lon="6.13035">
        <ele>1085.2</ele>
        <time>2025-06-12T09:15:29Z</time>
      </trkpt>
      <trkpt lat="44.66052" lon="6.13025">
        <ele>1084.6</ele>
        <time>2025-06-12T09:15:30Z</time>
      </trkpt>
      <trkpt lat="44.66056" lon="6.13016">
        <ele>1084</ele>
        <time>2025-06-12T09:15:31Z</time>
      </trkpt>
      <trkpt lat="44.66059" lon="6.13007">
        <ele>1083.6</ele>
        <time>2025-06-12T09:15:32Z</time>
      </trkpt>
      <trkpt lat="44.66062" lon="6.12998">
        <ele>1083.2</ele>
        <time>2025-06-12T09:15:33Z</time>
      </trkpt>
      <trkpt lat="44.66065" lon="6.12991">
        <ele>1082.6</ele>
        <time>2025-06-12T09:15:34Z</time>
      </trkpt>
      <trkpt lat="44.66066" lon="6.12983">
        <ele>1082</ele>
        <time>2025-06-12T09:15:35Z</time>
      </trkpt>
      <trkpt lat="44.66067" lon="6.12975">
        <ele>1081.6</ele>
        <time>2025-06-12T09:15:36Z</time>
      </trkpt>
      <trkpt lat="44.66066" lon="6.12967">
        <ele>1081</ele>
        <time>2025-06-12T09:15:37Z</time>
      </trkpt>
      <trkpt lat="44.66064" lon="6.1296">
        <ele>1080.2</ele>
        <time>2025-06-12T09:15:38Z</time>
      </trkpt>
      <trkpt lat="44.66059" lon="6.12954">
        <ele>1079.8</ele>
        <time>2025-06-12T09:15:39Z</time>
      </trkpt>
      <trkpt lat="44.66055" lon="6.12948">
        <ele>1079.4</ele>
        <time>2025-06-12T09:15:40Z</time>
      </trkpt>
      <trkpt lat="44.6605" lon="6.12944">
        <ele>1079</ele>
        <time>2025-06-12T09:15:41Z</time>
      </trkpt>
      <trkpt lat="44.66044" lon="6.1294">
        <ele>1078.8</ele>
        <time>2025-06-12T09:15:42Z</time>
      </trkpt>
      <trkpt lat="44.66038" lon="6.12937">
        <ele>1078.6</ele>
        <time>2025-06-12T09:15:43Z</time>
      </trkpt>
      <trkpt lat="44.66033" lon="6.12933">
        <ele>1078.6</ele>
        <time>2025-06-12T09:15:44Z</time>
      </trkpt>
      <trkpt lat="44.66028" lon="6.1293">
        <ele>1078.4</ele>
        <time>2025-06-12T09:15:45Z</time>
      </trkpt>
      <trkpt lat="44.66024" lon="6.12925">
        <ele>1078.2</ele>
        <time>2025-06-12T09:15:46Z</time>
      </trkpt>
      <trkpt lat="44.66021" lon="6.12919">
        <ele>1078</ele>
        <time>2025-06-12T09:15:47Z</time>
      </trkpt>
      <trkpt lat="44.6602" lon="6.12912">
        <ele>1077.4</ele>
        <time>2025-06-12T09:15:48Z</time>
      </trkpt>
      <trkpt lat="44.66019" lon="6.12906">
        <ele>1077</ele>
        <time>2025-06-12T09:15:49Z</time>
      </trkpt>
      <trkpt lat="44.66019" lon="6.12899">
        <ele>1076.6</ele>
        <time>2025-06-12T09:15:50Z</time>
      </trkpt>
      <trkpt lat="44.66019" lon="6.12893">
        <ele>1076.2</ele>
        <time>2025-06-12T09:15:51Z</time>
      </trkpt>
      <trkpt lat="44.6602" lon="6.12887">
        <ele>1076</ele>
        <time>2025-06-12T09:15:52Z</time>
      </trkpt>
      <trkpt lat="44.66021" lon="6.12881">
        <ele>1075.8</ele>
        <time>2025-06-12T09:15:53Z</time>
      </trkpt>
      <trkpt lat="44.66023" lon="6.12875">
        <ele>1075.8</ele>
        <time>2025-06-12T09:15:54Z</time>
      </trkpt>
      <trkpt lat="44.66023" lon="6.12869">
        <ele>1075.8</ele>
        <time>2025-06-12T09:15:55Z</time>
      </trkpt>
      <trkpt lat="44.66023" lon="6.12864">
        <ele>1075.8</ele>
        <time>2025-06-12T09:15:56Z</time>
      </trkpt>
      <trkpt lat="44.66023" lon="6.12859">
        <ele>1075.8</ele>
        <time>2025-06-12T09:15:57Z</time>
      </trkpt>
      <trkpt lat="44.66021" lon="6.12848">
        <ele>1075.8</ele>
        <time>2025-06-12T09:15:59Z</time>
      </trkpt>
      <trkpt lat="44.66018" lon="6.12838">
        <ele>1075.8</ele>
        <time>2025-06-12T09:16:01Z</time>
      </trkpt>
      <trkpt lat="44.66016" lon="6.12832">
        <ele>1075.8</ele>
        <time>2025-06-12T09:16:02Z</time>
      </trkpt>
      <trkpt lat="44.66015" lon="6.12826">
        <ele>1075.8</ele>
        <time>2025-06-12T09:16:03Z</time>
      </trkpt>
      <trkpt lat="44.66014" lon="6.12821">
        <ele>1075.8</ele>
        <time>2025-06-12T09:16:04Z</time>
      </trkpt>
      <trkpt lat="44.66013" lon="6.12818">
        <ele>1075.8</ele>
        <time>2025-06-12T09:16:05Z</time>
      </trkpt>
      <trkpt lat="44.66012" lon="6.12815">
        <ele>1075.8</ele>
        <time>2025-06-12T09:16:06Z</time>
      </trkpt>
      <trkpt lat="44.6601" lon="6.12812">
        <ele>1075.8</ele>
        <time>2025-06-12T09:16:07Z</time>
      </trkpt>
      <trkpt lat="44.66007" lon="6.12809">
        <ele>1075.8</ele>
        <time>2025-06-12T09:16:08Z</time>
      </trkpt>
      <trkpt lat="44.66003" lon="6.12805">
        <ele>1075.8</ele>
        <time>2025-06-12T09:16:09Z</time>
      </trkpt>
      <trkpt lat="44.65998" lon="6.12802">
        <ele>1075.8</ele>
        <time>2025-06-12T09:16:10Z</time>
      </trkpt>
      <trkpt lat="44.65994" lon="6.12799">
        <ele>1075.8</ele>
        <time>2025-06-12T09:16:11Z</time>
      </trkpt>
      <trkpt lat="44.65989" lon="6.12797">
        <ele>1075.6</ele>
        <time>2025-06-12T09:16:12Z</time>
      </trkpt>
      <trkpt lat="44.65984" lon="6.12796">
        <ele>1075.6</ele>
        <time>2025-06-12T09:16:13Z</time>
      </trkpt>
      <trkpt lat="44.6598" lon="6.12796">
        <ele>1075.4</ele>
        <time>2025-06-12T09:16:14Z</time>
      </trkpt>
      <trkpt lat="44.65975" lon="6.12796">
        <ele>1075.2</ele>
        <time>2025-06-12T09:16:15Z</time>
      </trkpt>
      <trkpt lat="44.6597" lon="6.12798">
        <ele>1075</ele>
        <time>2025-06-12T09:16:16Z</time>
      </trkpt>
      <trkpt lat="44.65964" lon="6.12799">
        <ele>1074.6</ele>
        <time>2025-06-12T09:16:17Z</time>
      </trkpt>
      <trkpt lat="44.65957" lon="6.12801">
        <ele>1074.4</ele>
        <time>2025-06-12T09:16:18Z</time>
      </trkpt>
      <trkpt lat="44.65951" lon="6.12802">
        <ele>1073.2</ele>
        <time>2025-06-12T09:16:19Z</time>
      </trkpt>
      <trkpt lat="44.65944" lon="6.12804">
        <ele>1072.8</ele>
        <time>2025-06-12T09:16:20Z</time>
      </trkpt>
      <trkpt lat="44.6593" lon="6.12808">
        <ele>1071.8</ele>
        <time>2025-06-12T09:16:22Z</time>
      </trkpt>
      <trkpt lat="44.65924" lon="6.1281">
        <ele>1071.4</ele>
        <time>2025-06-12T09:16:23Z</time>
      </trkpt>
      <trkpt lat="44.65918" lon="6.12813">
        <ele>1070.8</ele>
        <time>2025-06-12T09:16:24Z</time>
      </trkpt>
      <trkpt lat="44.65912" lon="6.12815">
        <ele>1070.2</ele>
        <time>2025-06-12T09:16:25Z</time>
      </trkpt>
      <trkpt lat="44.65907" lon="6.12818">
        <ele>1069.6</ele>
        <time>2025-06-12T09:16:26Z</time>
      </trkpt>
      <trkpt lat="44.65902" lon="6.1282">
        <ele>1068.8</ele>
        <time>2025-06-12T09:16:27Z</time>
      </trkpt>
      <trkpt lat="44.65897" lon="6.12823">
        <ele>1068.2</ele>
        <time>2025-06-12T09:16:28Z</time>
      </trkpt>
      <trkpt lat="44.65893" lon="6.12825">
        <ele>1067.4</ele>
        <time>2025-06-12T09:16:29Z</time>
      </trkpt>
      <trkpt lat="44.65889" lon="6.12826">
        <ele>1066.8</ele>
        <time>2025-06-12T09:16:30Z</time>
      </trkpt>
      <trkpt lat="44.65885" lon="6.12826">
        <ele>1066.2</ele>
        <time>2025-06-12T09:16:31Z</time>
      </trkpt>
      <trkpt lat="44.65882" lon="6.12825">
        <ele>1065.8</ele>
        <time>2025-06-12T09:16:32Z</time>
      </trkpt>
      <trkpt lat="44.65879" lon="6.12823">
        <ele>1065.2</ele>
        <time>2025-06-12T09:16:33Z</time>
      </trkpt>
      <trkpt lat="44.65874" lon="6.1282">
        <ele>1064.2</ele>
        <time>2025-06-12T09:16:35Z</time>
      </trkpt>
      <trkpt lat="44.65873" lon="6.12819">
        <ele>1063.8</ele>
        <time>2025-06-12T09:16:36Z</time>
      </trkpt>
      <trkpt lat="44.65872" lon="6.12819">
        <ele>1063.2</ele>
        <time>2025-06-12T09:16:37Z</time>
      </trkpt>
      <trkpt lat="44.65872" lon="6.12819">
        <ele>1062.8</ele>
        <time>2025-06-12T09:16:38Z</time>
      </trkpt>
      <trkpt lat="44.65872" lon="6.12819">
        <ele>1062.6</ele>
        <time>2025-06-12T09:16:39Z</time>
      </trkpt>
      <trkpt lat="44.65872" lon="6.12819">
        <ele>1062.2</ele>
        <time>2025-06-12T09:16:40Z</time>
      </trkpt>
      <trkpt lat="44.65872" lon="6.12819">
        <ele>1062</ele>
        <time>2025-06-12T09:16:41Z</time>
      </trkpt>
      <trkpt lat="44.65872" lon="6.12819">
        <ele>1062</ele>
        <time>2025-06-12T09:16:42Z</time>
      </trkpt>
      <trkpt lat="44.65872" lon="6.12819">
        <ele>1061.8</ele>
        <time>2025-06-12T09:16:43Z</time>
      </trkpt>
      <trkpt lat="44.65875" lon="6.12826">
        <ele>1061.2</ele>
        <time>2025-06-12T09:17:58Z</time>
      </trkpt>
      <trkpt lat="44.65876" lon="6.12828">
        <ele>1061.2</ele>
        <time>2025-06-12T09:17:59Z</time>
      </trkpt>
      <trkpt lat="44.65879" lon="6.12834">
        <ele>1061.2</ele>
        <time>2025-06-12T09:18:01Z</time>
      </trkpt>
      <trkpt lat="44.6588" lon="6.12843">
        <ele>1061.2</ele>
        <time>2025-06-12T09:18:03Z</time>
      </trkpt>
      <trkpt lat="44.6588" lon="6.12848">
        <ele>1061.2</ele>
        <time>2025-06-12T09:18:04Z</time>
      </trkpt>
      <trkpt lat="44.65879" lon="6.12853">
        <ele>1061.2</ele>
        <time>2025-06-12T09:18:05Z</time>
      </trkpt>
      <trkpt lat="44.65878" lon="6.12857">
        <ele>1061.2</ele>
        <time>2025-06-12T09:18:06Z</time>
      </trkpt>
      <trkpt lat="44.65877" lon="6.12862">
        <ele>1061.2</ele>
        <time>2025-06-12T09:18:07Z</time>
      </trkpt>
      <trkpt lat="44.65875" lon="6.12865">
        <ele>1061.2</ele>
        <time>2025-06-12T09:18:08Z</time>
      </trkpt>
      <trkpt lat="44.65872" lon="6.12869">
        <ele>1061.2</ele>
        <time>2025-06-12T09:18:09Z</time>
      </trkpt>
      <trkpt lat="44.65867" lon="6.12873">
        <ele>1061</ele>
        <time>2025-06-12T09:18:10Z</time>
      </trkpt>
      <trkpt lat="44.65862" lon="6.12876">
        <ele>1060.6</ele>
        <time>2025-06-12T09:18:11Z</time>
      </trkpt>
      <trkpt lat="44.65856" lon="6.1288">
        <ele>1060.2</ele>
        <time>2025-06-12T09:18:12Z</time>
      </trkpt>
      <trkpt lat="44.65843" lon="6.12887">
        <ele>1059.4</ele>
        <time>2025-06-12T09:18:14Z</time>
      </trkpt>
      <trkpt lat="44.65837" lon="6.12891">
        <ele>1059.2</ele>
        <time>2025-06-12T09:18:15Z</time>
      </trkpt>
      <trkpt lat="44.6583" lon="6.12895">
        <ele>1058.8</ele>
        <time>2025-06-12T09:18:16Z</time>
      </trkpt>
      <trkpt lat="44.65819" lon="6.12904">
        <ele>1057.8</ele>
        <time>2025-06-12T09:18:18Z</time>
      </trkpt>
      <trkpt lat="44.65813" lon="6.12909">
        <ele>1057</ele>
        <time>2025-06-12T09:18:19Z</time>
      </trkpt>
      <trkpt lat="44.65809" lon="6.12916">
        <ele>1056.4</ele>
        <time>2025-06-12T09:18:20Z</time>
      </trkpt>
      <trkpt lat="44.65805" lon="6.12923">
        <ele>1055.4</ele>
        <time>2025-06-12T09:18:21Z</time>
      </trkpt>
      <trkpt lat="44.65801" lon="6.1293">
        <ele>1054.6</ele>
        <time>2025-06-12T09:18:22Z</time>
      </trkpt>
      <trkpt lat="44.65797" lon="6.12936">
        <ele>1053.6</ele>
        <time>2025-06-12T09:18:23Z</time>
      </trkpt>
      <trkpt lat="44.65793" lon="6.12941">
        <ele>1052.6</ele>
        <time>2025-06-12T09:18:24Z</time>
      </trkpt>
      <trkpt lat="44.65789" lon="6.12947">
        <ele>1052</ele>
        <time>2025-06-12T09:18:25Z</time>
      </trkpt>
      <trkpt lat="44.65785" lon="6.12951">
        <ele>1051.6</ele>
        <time>2025-06-12T09:18:26Z</time>
      </trkpt>
      <trkpt lat="44.65781" lon="6.12956">
        <ele>1051.4</ele>
        <time>2025-06-12T09:18:27Z</time>
      </trkpt>
      <trkpt lat="44.65773" lon="6.12966">
        <ele>1051.2</ele>
        <time>2025-06-12T09:18:29Z</time>
      </trkpt>
      <trkpt lat="44.65768" lon="6.12971">
        <ele>1051</ele>
        <time>2025-06-12T09:18:30Z</time>
      </trkpt>
      <trkpt lat="44.65763" lon="6.12976">
        <ele>1051</ele>
        <time>2025-06-12T09:18:31Z</time>
      </trkpt>
      <trkpt lat="44.65752" lon="6.12986">
        <ele>1050.6</ele>
        <time>2025-06-12T09:18:33Z</time>
      </trkpt>
      <trkpt lat="44.65746" lon="6.12991">
        <ele>1050.4</ele>
        <time>2025-06-12T09:18:34Z</time>
      </trkpt>
      <trkpt lat="44.65741" lon="6.12997">
        <ele>1050.4</ele>
        <time>2025-06-12T09:18:35Z</time>
      </trkpt>
      <trkpt lat="44.65735" lon="6.13002">
        <ele>1050.2</ele>
        <time>2025-06-12T09:18:36Z</time>
      </trkpt>
      <trkpt lat="44.65728" lon="6.13007">
        <ele>1050.2</ele>
        <time>2025-06-12T09:18:37Z</time>
      </trkpt>
      <trkpt lat="44.65722" lon="6.13011">
        <ele>1050.2</ele>
        <time>2025-06-12T09:18:38Z</time>
      </trkpt>
      <trkpt lat="44.65716" lon="6.13016">
        <ele>1050</ele>
        <time>2025-06-12T09:18:39Z</time>
      </trkpt>
      <trkpt lat="44.6571" lon="6.13021">
        <ele>1050</ele>
        <time>2025-06-12T09:18:40Z</time>
      </trkpt>
      <trkpt lat="44.65698" lon="6.13031">
        <ele>1049.2</ele>
        <time>2025-06-12T09:18:42Z</time>
      </trkpt>
      <trkpt lat="44.65692" lon="6.13036">
        <ele>1048.8</ele>
        <time>2025-06-12T09:18:43Z</time>
      </trkpt>
      <trkpt lat="44.65687" lon="6.13042">
        <ele>1048.4</ele>
        <time>2025-06-12T09:18:44Z</time>
      </trkpt>
      <trkpt lat="44.65681" lon="6.13047">
        <ele>1048.2</ele>
        <time>2025-06-12T09:18:45Z</time>
      </trkpt>
      <trkpt lat="44.65676" lon="6.13053">
        <ele>1048.2</ele>
        <time>2025-06-12T09:18:46Z</time>
      </trkpt>
      <trkpt lat="44.65671" lon="6.13059">
        <ele>1048</ele>
        <time>2025-06-12T09:18:47Z</time>
      </trkpt>
      <trkpt lat="44.65662" lon="6.13073">
        <ele>1047.6</ele>
        <time>2025-06-12T09:18:49Z</time>
      </trkpt>
      <trkpt lat="44.65657" lon="6.1308">
        <ele>1047.4</ele>
        <time>2025-06-12T09:18:50Z</time>
      </trkpt>
      <trkpt lat="44.65652" lon="6.13087">
        <ele>1047.4</ele>
        <time>2025-06-12T09:18:51Z</time>
      </trkpt>
      <trkpt lat="44.65648" lon="6.13095">
        <ele>1047.2</ele>
        <time>2025-06-12T09:18:52Z</time>
      </trkpt>
      <trkpt lat="44.65639" lon="6.13109">
        <ele>1047.2</ele>
        <time>2025-06-12T09:18:54Z</time>
      </trkpt>
      <trkpt lat="44.6563" lon="6.13124">
        <ele>1047</ele>
        <time>2025-06-12T09:18:56Z</time>
      </trkpt>
      <trkpt lat="44.65626" lon="6.13132">
        <ele>1046.8</ele>
        <time>2025-06-12T09:18:57Z</time>
      </trkpt>
      <trkpt lat="44.65622" lon="6.1314">
        <ele>1046.8</ele>
        <time>2025-06-12T09:18:58Z</time>
      </trkpt>
      <trkpt lat="44.65618" lon="6.13148">
        <ele>1046.8</ele>
        <time>2025-06-12T09:18:59Z</time>
      </trkpt>
      <trkpt lat="44.65611" lon="6.13165">
        <ele>1046.8</ele>
        <time>2025-06-12T09:19:01Z</time>
      </trkpt>
      <trkpt lat="44.65607" lon="6.13173">
        <ele>1046.4</ele>
        <time>2025-06-12T09:19:02Z</time>
      </trkpt>
      <trkpt lat="44.65603" lon="6.13181">
        <ele>1046.4</ele>
        <time>2025-06-12T09:19:03Z</time>
      </trkpt>
      <trkpt lat="44.65599" lon="6.13189">
        <ele>1046.2</ele>
        <time>2025-06-12T09:19:04Z</time>
      </trkpt>
      <trkpt lat="44.65596" lon="6.13197">
        <ele>1046</ele>
        <time>2025-06-12T09:19:05Z</time>
      </trkpt>
      <trkpt lat="44.65593" lon="6.13205">
        <ele>1046</ele>
        <time>2025-06-12T09:19:06Z</time>
      </trkpt>
      <trkpt lat="44.6559" lon="6.13214">
        <ele>1045.8</ele>
        <time>2025-06-12T09:19:07Z</time>
      </trkpt>
      <trkpt lat="44.65589" lon="6.13223">
        <ele>1045.6</ele>
        <time>2025-06-12T09:19:08Z</time>
      </trkpt>
      <trkpt lat="44.65585" lon="6.13241">
        <ele>1045.6</ele>
        <time>2025-06-12T09:19:10Z</time>
      </trkpt>
      <trkpt lat="44.65583" lon="6.1325">
        <ele>1045.4</ele>
        <time>2025-06-12T09:19:11Z</time>
      </trkpt>
      <trkpt lat="44.65582" lon="6.13259">
        <ele>1045.4</ele>
        <time>2025-06-12T09:19:12Z</time>
      </trkpt>
      <trkpt lat="44.65579" lon="6.13268">
        <ele>1045.4</ele>
        <time>2025-06-12T09:19:13Z</time>
      </trkpt>
      <trkpt lat="44.65577" lon="6.13276">
        <ele>1045.4</ele>
        <time>2025-06-12T09:19:14Z</time>
      </trkpt>
      <trkpt lat="44.65574" lon="6.13284">
        <ele>1045.4</ele>
        <time>2025-06-12T09:19:15Z</time>
      </trkpt>
      <trkpt lat="44.6557" lon="6.13292">
        <ele>1045.2</ele>
        <time>2025-06-12T09:19:16Z</time>
      </trkpt>
      <trkpt lat="44.65566" lon="6.133">
        <ele>1045.2</ele>
        <time>2025-06-12T09:19:17Z</time>
      </trkpt>
      <trkpt lat="44.65557" lon="6.13316">
        <ele>1045.2</ele>
        <time>2025-06-12T09:19:19Z</time>
      </trkpt>
      <trkpt lat="44.65552" lon="6.13325">
        <ele>1045</ele>
        <time>2025-06-12T09:19:20Z</time>
      </trkpt>
      <trkpt lat="44.65547" lon="6.13333">
        <ele>1045</ele>
        <time>2025-06-12T09:19:21Z</time>
      </trkpt>
      <trkpt lat="44.65541" lon="6.13342">
        <ele>1045</ele>
        <time>2025-06-12T09:19:22Z</time>
      </trkpt>
      <trkpt lat="44.65535" lon="6.13349">
        <ele>1044.8</ele>
        <time>2025-06-12T09:19:23Z</time>
      </trkpt>
      <trkpt lat="44.65527" lon="6.13356">
        <ele>1044.8</ele>
        <time>2025-06-12T09:19:24Z</time>
      </trkpt>
      <trkpt lat="44.6551" lon="6.13369">
        <ele>1044</ele>
        <time>2025-06-12T09:19:26Z</time>
      </trkpt>
      <trkpt lat="44.65492" lon="6.13382">
        <ele>1042.8</ele>
        <time>2025-06-12T09:19:28Z</time>
      </trkpt>
      <trkpt lat="44.65481" lon="6.13387">
        <ele>1042.4</ele>
        <time>2025-06-12T09:19:29Z</time>
      </trkpt>
      <trkpt lat="44.65471" lon="6.13391">
        <ele>1042</ele>
        <time>2025-06-12T09:19:30Z</time>
      </trkpt>
      <trkpt lat="44.6546" lon="6.13393">
        <ele>1041.2</ele>
        <time>2025-06-12T09:19:31Z</time>
      </trkpt>
      <trkpt lat="44.65449" lon="6.13395">
        <ele>1039.4</ele>
        <time>2025-06-12T09:19:32Z</time>
      </trkpt>
      <trkpt lat="44.65437" lon="6.13397">
        <ele>1038.8</ele>
        <time>2025-06-12T09:19:33Z</time>
      </trkpt>
      <trkpt lat="44.65426" lon="6.13399">
        <ele>1038.2</ele>
        <time>2025-06-12T09:19:34Z</time>
      </trkpt>
      <trkpt lat="44.65414" lon="6.13401">
        <ele>1037.2</ele>
        <time>2025-06-12T09:19:35Z</time>
      </trkpt>
      <trkpt lat="44.65403" lon="6.13405">
        <ele>1036.2</ele>
        <time>2025-06-12T09:19:36Z</time>
      </trkpt>
      <trkpt lat="44.65392" lon="6.13408">
        <ele>1035.4</ele>
        <time>2025-06-12T09:19:37Z</time>
      </trkpt>
      <trkpt lat="44.65381" lon="6.13412">
        <ele>1034.6</ele>
        <time>2025-06-12T09:19:38Z</time>
      </trkpt>
      <trkpt lat="44.65369" lon="6.13416">
        <ele>1033.8</ele>
        <time>2025-06-12T09:19:39Z</time>
      </trkpt>
      <trkpt lat="44.65357" lon="6.1342">
        <ele>1032.8</ele>
        <time>2025-06-12T09:19:40Z</time>
      </trkpt>
      <trkpt lat="44.65345" lon="6.13424">
        <ele>1031.8</ele>
        <time>2025-06-12T09:19:41Z</time>
      </trkpt>
      <trkpt lat="44.65334" lon="6.13428">
        <ele>1030.8</ele>
        <time>2025-06-12T09:19:42Z</time>
      </trkpt>
      <trkpt lat="44.65323" lon="6.13433">
        <ele>1030</ele>
        <time>2025-06-12T09:19:43Z</time>
      </trkpt>
      <trkpt lat="44.65312" lon="6.13438">
        <ele>1029.2</ele>
        <time>2025-06-12T09:19:44Z</time>
      </trkpt>
      <trkpt lat="44.65302" lon="6.13441">
        <ele>1028.4</ele>
        <time>2025-06-12T09:19:45Z</time>
      </trkpt>
      <trkpt lat="44.65292" lon="6.13443">
        <ele>1027.4</ele>
        <time>2025-06-12T09:19:46Z</time>
      </trkpt>
      <trkpt lat="44.65283" lon="6.13444">
        <ele>1026.4</ele>
        <time>2025-06-12T09:19:47Z</time>
      </trkpt>
      <trkpt lat="44.65274" lon="6.13446">
        <ele>1025.4</ele>
        <time>2025-06-12T09:19:48Z</time>
      </trkpt>
      <trkpt lat="44.65267" lon="6.13449">
        <ele>1024.4</ele>
        <time>2025-06-12T09:19:49Z</time>
      </trkpt>
      <trkpt lat="44.6526" lon="6.13453">
        <ele>1023.4</ele>
        <time>2025-06-12T09:19:50Z</time>
      </trkpt>
      <trkpt lat="44.65254" lon="6.13456">
        <ele>1022.4</ele>
        <time>2025-06-12T09:19:51Z</time>
      </trkpt>
      <trkpt lat="44.65249" lon="6.1346">
        <ele>1021.8</ele>
        <time>2025-06-12T09:19:52Z</time>
      </trkpt>
      <trkpt lat="44.65245" lon="6.13463">
        <ele>1021.8</ele>
        <time>2025-06-12T09:19:53Z</time>
      </trkpt>
      <trkpt lat="44.65241" lon="6.13464">
        <ele>1021.4</ele>
        <time>2025-06-12T09:19:54Z</time>
      </trkpt>
      <trkpt lat="44.65238" lon="6.13466">
        <ele>1021.2</ele>
        <time>2025-06-12T09:19:55Z</time>
      </trkpt>
      <trkpt lat="44.65235" lon="6.13466">
        <ele>1021</ele>
        <time>2025-06-12T09:19:56Z</time>
      </trkpt>
      <trkpt lat="44.65232" lon="6.13467">
        <ele>1021</ele>
        <time>2025-06-12T09:19:57Z</time>
      </trkpt>
      <trkpt lat="44.6523" lon="6.13467">
        <ele>1020.8</ele>
        <time>2025-06-12T09:19:58Z</time>
      </trkpt>
      <trkpt lat="44.65227" lon="6.13468">
        <ele>1020</ele>
        <time>2025-06-12T09:20:00Z</time>
      </trkpt>
      <trkpt lat="44.65226" lon="6.13469">
        <ele>1019.8</ele>
        <time>2025-06-12T09:20:01Z</time>
      </trkpt>
      <trkpt lat="44.65226" lon="6.13469">
        <ele>1019.6</ele>
        <time>2025-06-12T09:20:02Z</time>
      </trkpt>
      <trkpt lat="44.65225" lon="6.1347">
        <ele>1019.2</ele>
        <time>2025-06-12T09:20:04Z</time>
      </trkpt>
      <trkpt lat="44.65225" lon="6.1347">
        <ele>1019</ele>
        <time>2025-06-12T09:20:05Z</time>
      </trkpt>
      <trkpt lat="44.65226" lon="6.1347">
        <ele>1018.8</ele>
        <time>2025-06-12T09:20:06Z</time>
      </trkpt>
      <trkpt lat="44.65226" lon="6.1347">
        <ele>1018.6</ele>
        <time>2025-06-12T09:20:07Z</time>
      </trkpt>
      <trkpt lat="44.65217" lon="6.13479">
        <ele>1018</ele>
        <time>2025-06-12T09:21:00Z</time>
      </trkpt>
      <trkpt lat="44.65215" lon="6.13483">
        <ele>1018</ele>
        <time>2025-06-12T09:21:01Z</time>
      </trkpt>
      <trkpt lat="44.65214" lon="6.13488">
        <ele>1018</ele>
        <time>2025-06-12T09:21:02Z</time>
      </trkpt>
      <trkpt lat="44.65213" lon="6.13492">
        <ele>1017.8</ele>
        <time>2025-06-12T09:21:03Z</time>
      </trkpt>
      <trkpt lat="44.65212" lon="6.13497">
        <ele>1017.8</ele>
        <time>2025-06-12T09:21:04Z</time>
      </trkpt>
      <trkpt lat="44.6521" lon="6.13502">
        <ele>1017.8</ele>
        <time>2025-06-12T09:21:05Z</time>
      </trkpt>
      <trkpt lat="44.65208" lon="6.13508">
        <ele>1017.8</ele>
        <time>2025-06-12T09:21:06Z</time>
      </trkpt>
      <trkpt lat="44.65207" lon="6.13513">
        <ele>1017.8</ele>
        <time>2025-06-12T09:21:07Z</time>
      </trkpt>
      <trkpt lat="44.65204" lon="6.13519">
        <ele>1017.8</ele>
        <time>2025-06-12T09:21:08Z</time>
      </trkpt>
      <trkpt lat="44.65202" lon="6.13525">
        <ele>1017.6</ele>
        <time>2025-06-12T09:21:09Z</time>
      </trkpt>
      <trkpt lat="44.65199" lon="6.1353">
        <ele>1017.4</ele>
        <time>2025-06-12T09:21:10Z</time>
      </trkpt>
      <trkpt lat="44.65196" lon="6.13536">
        <ele>1017.2</ele>
        <time>2025-06-12T09:21:11Z</time>
      </trkpt>
      <trkpt lat="44.65193" lon="6.13543">
        <ele>1017.2</ele>
        <time>2025-06-12T09:21:12Z</time>
      </trkpt>
      <trkpt lat="44.6519" lon="6.13548">
        <ele>1017</ele>
        <time>2025-06-12T09:21:13Z</time>
      </trkpt>
      <trkpt lat="44.65185" lon="6.13553">
        <ele>1016.8</ele>
        <time>2025-06-12T09:21:14Z</time>
      </trkpt>
      <trkpt lat="44.6518" lon="6.13557">
        <ele>1016.6</ele>
        <time>2025-06-12T09:21:15Z</time>
      </trkpt>
      <trkpt lat="44.65167" lon="6.1356">
        <ele>1016</ele>
        <time>2025-06-12T09:21:17Z</time>
      </trkpt>
      <trkpt lat="44.6516" lon="6.13559">
        <ele>1015.8</ele>
        <time>2025-06-12T09:21:18Z</time>
      </trkpt>
      <trkpt lat="44.65153" lon="6.13557">
        <ele>1015.4</ele>
        <time>2025-06-12T09:21:19Z</time>
      </trkpt>
      <trkpt lat="44.65146" lon="6.13554">
        <ele>1014.8</ele>
        <time>2025-06-12T09:21:20Z</time>
      </trkpt>
      <trkpt lat="44.65139" lon="6.13551">
        <ele>1014.6</ele>
        <time>2025-06-12T09:21:21Z</time>
      </trkpt>
      <trkpt lat="44.65131" lon="6.13547">
        <ele>1014.2</ele>
        <time>2025-06-12T09:21:22Z</time>
      </trkpt>
      <trkpt lat="44.65124" lon="6.13544">
        <ele>1013.6</ele>
        <time>2025-06-12T09:21:23Z</time>
      </trkpt>
      <trkpt lat="44.65116" lon="6.1354">
        <ele>1013</ele>
        <time>2025-06-12T09:21:24Z</time>
      </trkpt>
      <trkpt lat="44.65101" lon="6.13531">
        <ele>1012.2</ele>
        <time>2025-06-12T09:21:26Z</time>
      </trkpt>
      <trkpt lat="44.65093" lon="6.13527">
        <ele>1012</ele>
        <time>2025-06-12T09:21:27Z</time>
      </trkpt>
      <trkpt lat="44.65085" lon="6.13522">
        <ele>1011.8</ele>
        <time>2025-06-12T09:21:28Z</time>
      </trkpt>
      <trkpt lat="44.65076" lon="6.13518">
        <ele>1011</ele>
        <time>2025-06-12T09:21:29Z</time>
      </trkpt>
      <trkpt lat="44.65068" lon="6.13513">
        <ele>1010.4</ele>
        <time>2025-06-12T09:21:30Z</time>
      </trkpt>
      <trkpt lat="44.6506" lon="6.13509">
        <ele>1010</ele>
        <time>2025-06-12T09:21:31Z</time>
      </trkpt>
      <trkpt lat="44.65051" lon="6.13504">
        <ele>1009.2</ele>
        <time>2025-06-12T09:21:32Z</time>
      </trkpt>
      <trkpt lat="44.65043" lon="6.135">
        <ele>1008.6</ele>
        <time>2025-06-12T09:21:33Z</time>
      </trkpt>
      <trkpt lat="44.65034" lon="6.13498">
        <ele>1008</ele>
        <time>2025-06-12T09:21:34Z</time>
      </trkpt>
      <trkpt lat="44.65024" lon="6.13498">
        <ele>1007.4</ele>
        <time>2025-06-12T09:21:35Z</time>
      </trkpt>
      <trkpt lat="44.65016" lon="6.135">
        <ele>1006.8</ele>
        <time>2025-06-12T09:21:36Z</time>
      </trkpt>
      <trkpt lat="44.65007" lon="6.13505">
        <ele>1006.2</ele>
        <time>2025-06-12T09:21:37Z</time>
      </trkpt>
      <trkpt lat="44.64999" lon="6.1351">
        <ele>1005.8</ele>
        <time>2025-06-12T09:21:38Z</time>
      </trkpt>
      <trkpt lat="44.64992" lon="6.13516">
        <ele>1005.4</ele>
        <time>2025-06-12T09:21:39Z</time>
      </trkpt>
      <trkpt lat="44.64985" lon="6.13521">
        <ele>1005</ele>
        <time>2025-06-12T09:21:40Z</time>
      </trkpt>
      <trkpt lat="44.64979" lon="6.13527">
        <ele>1004.6</ele>
        <time>2025-06-12T09:21:41Z</time>
      </trkpt>
      <trkpt lat="44.64972" lon="6.13531">
        <ele>1004.6</ele>
        <time>2025-06-12T09:21:42Z</time>
      </trkpt>
      <trkpt lat="44.64966" lon="6.13536">
        <ele>1004.4</ele>
        <time>2025-06-12T09:21:43Z</time>
      </trkpt>
      <trkpt lat="44.64959" lon="6.13541">
        <ele>1004.4</ele>
        <time>2025-06-12T09:21:44Z</time>
      </trkpt>
      <trkpt lat="44.64953" lon="6.13545">
        <ele>1004.2</ele>
        <time>2025-06-12T09:21:45Z</time>
      </trkpt>
      <trkpt lat="44.64941" lon="6.13555">
        <ele>1004</ele>
        <time>2025-06-12T09:21:47Z</time>
      </trkpt>
      <trkpt lat="44.64929" lon="6.13564">
        <ele>1004</ele>
        <time>2025-06-12T09:21:49Z</time>
      </trkpt>
      <trkpt lat="44.64917" lon="6.13574">
        <ele>1004</ele>
        <time>2025-06-12T09:21:51Z</time>
      </trkpt>
      <trkpt lat="44.64911" lon="6.13578">
        <ele>1004.2</ele>
        <time>2025-06-12T09:21:52Z</time>
      </trkpt>
      <trkpt lat="44.64905" lon="6.13583">
        <ele>1004.2</ele>
        <time>2025-06-12T09:21:53Z</time>
      </trkpt>
      <trkpt lat="44.649" lon="6.13587">
        <ele>1004.2</ele>
        <time>2025-06-12T09:21:54Z</time>
      </trkpt>
      <trkpt lat="44.64894" lon="6.13591">
        <ele>1004.2</ele>
        <time>2025-06-12T09:21:55Z</time>
      </trkpt>
      <trkpt lat="44.64889" lon="6.13595">
        <ele>1004.2</ele>
        <time>2025-06-12T09:21:56Z</time>
      </trkpt>
      <trkpt lat="44.64884" lon="6.13599">
        <ele>1004.4</ele>
        <time>2025-06-12T09:21:57Z</time>
      </trkpt>
      <trkpt lat="44.64879" lon="6.13603">
        <ele>1004.4</ele>
        <time>2025-06-12T09:21:58Z</time>
      </trkpt>
      <trkpt lat="44.64874" lon="6.13606">
        <ele>1004.4</ele>
        <time>2025-06-12T09:21:59Z</time>
      </trkpt>
      <trkpt lat="44.64868" lon="6.13609">
        <ele>1004.4</ele>
        <time>2025-06-12T09:22:00Z</time>
      </trkpt>
      <trkpt lat="44.64863" lon="6.13612">
        <ele>1004.4</ele>
        <time>2025-06-12T09:22:01Z</time>
      </trkpt>
      <trkpt lat="44.64858" lon="6.13615">
        <ele>1004.6</ele>
        <time>2025-06-12T09:22:02Z</time>
      </trkpt>
      <trkpt lat="44.64853" lon="6.13617">
        <ele>1004.6</ele>
        <time>2025-06-12T09:22:03Z</time>
      </trkpt>
      <trkpt lat="44.64848" lon="6.13618">
        <ele>1005</ele>
        <time>2025-06-12T09:22:04Z</time>
      </trkpt>
      <trkpt lat="44.64843" lon="6.1362">
        <ele>1005.4</ele>
        <time>2025-06-12T09:22:05Z</time>
      </trkpt>
      <trkpt lat="44.64839" lon="6.1362">
        <ele>1006</ele>
        <time>2025-06-12T09:22:06Z</time>
      </trkpt>
      <trkpt lat="44.64834" lon="6.1362">
        <ele>1006.2</ele>
        <time>2025-06-12T09:22:07Z</time>
      </trkpt>
      <trkpt lat="44.64825" lon="6.13619">
        <ele>1006.6</ele>
        <time>2025-06-12T09:22:09Z</time>
      </trkpt>
      <trkpt lat="44.64817" lon="6.13618">
        <ele>1007</ele>
        <time>2025-06-12T09:22:11Z</time>
      </trkpt>
      <trkpt lat="44.64813" lon="6.13616">
        <ele>1007.4</ele>
        <time>2025-06-12T09:22:12Z</time>
      </trkpt>
      <trkpt lat="44.6481" lon="6.13615">
        <ele>1007.8</ele>
        <time>2025-06-12T09:22:13Z</time>
      </trkpt>
      <trkpt lat="44.64806" lon="6.13613">
        <ele>1008</ele>
        <time>2025-06-12T09:22:14Z</time>
      </trkpt>
      <trkpt lat="44.64803" lon="6.13611">
        <ele>1008.2</ele>
        <time>2025-06-12T09:22:15Z</time>
      </trkpt>
      <trkpt lat="44.64799" lon="6.13609">
        <ele>1008.6</ele>
        <time>2025-06-12T09:22:16Z</time>
      </trkpt>
      <trkpt lat="44.64795" lon="6.13607">
        <ele>1008.8</ele>
        <time>2025-06-12T09:22:17Z</time>
      </trkpt>
      <trkpt lat="44.64792" lon="6.13605">
        <ele>1009</ele>
        <time>2025-06-12T09:22:18Z</time>
      </trkpt>
      <trkpt lat="44.64785" lon="6.136">
        <ele>1009.6</ele>
        <time>2025-06-12T09:22:20Z</time>
      </trkpt>
      <trkpt lat="44.64782" lon="6.13597">
        <ele>1009.8</ele>
        <time>2025-06-12T09:22:21Z</time>
      </trkpt>
      <trkpt lat="44.64778" lon="6.13595">
        <ele>1010</ele>
        <time>2025-06-12T09:22:22Z</time>
      </trkpt>
      <trkpt lat="44.64771" lon="6.13589">
        <ele>1010.4</ele>
        <time>2025-06-12T09:22:24Z</time>
      </trkpt>
      <trkpt lat="44.64764" lon="6.13585">
        <ele>1010.6</ele>
        <time>2025-06-12T09:22:26Z</time>
      </trkpt>
      <trkpt lat="44.64761" lon="6.13582">
        <ele>1011</ele>
        <time>2025-06-12T09:22:27Z</time>
      </trkpt>
      <trkpt lat="44.64757" lon="6.1358">
        <ele>1011.4</ele>
        <time>2025-06-12T09:22:28Z</time>
      </trkpt>
      <trkpt lat="44.64753" lon="6.13579">
        <ele>1011.4</ele>
        <time>2025-06-12T09:22:29Z</time>
      </trkpt>
      <trkpt lat="44.6475" lon="6.13577">
        <ele>1011.6</ele>
        <time>2025-06-12T09:22:30Z</time>
      </trkpt>
      <trkpt lat="44.64746" lon="6.13576">
        <ele>1011.8</ele>
        <time>2025-06-12T09:22:31Z</time>
      </trkpt>
      <trkpt lat="44.64742" lon="6.13576">
        <ele>1011.8</ele>
        <time>2025-06-12T09:22:32Z</time>
      </trkpt>
      <trkpt lat="44.64738" lon="6.13575">
        <ele>1012</ele>
        <time>2025-06-12T09:22:33Z</time>
      </trkpt>
      <trkpt lat="44.64734" lon="6.13575">
        <ele>1012.4</ele>
        <time>2025-06-12T09:22:34Z</time>
      </trkpt>
      <trkpt lat="44.6473" lon="6.13575">
        <ele>1012.4</ele>
        <time>2025-06-12T09:22:35Z</time>
      </trkpt>
      <trkpt lat="44.64726" lon="6.13575">
        <ele>1012.6</ele>
        <time>2025-06-12T09:22:36Z</time>
      </trkpt>
      <trkpt lat="44.64722" lon="6.13575">
        <ele>1012.8</ele>
        <time>2025-06-12T09:22:37Z</time>
      </trkpt>
      <trkpt lat="44.64718" lon="6.13576">
        <ele>1013.2</ele>
        <time>2025-06-12T09:22:38Z</time>
      </trkpt>
      <trkpt lat="44.64714" lon="6.13577">
        <ele>1013.4</ele>
        <time>2025-06-12T09:22:39Z</time>
      </trkpt>
      <trkpt lat="44.64707" lon="6.13579">
        <ele>1013.6</ele>
        <time>2025-06-12T09:22:41Z</time>
      </trkpt>
      <trkpt lat="44.64699" lon="6.1358">
        <ele>1013.6</ele>
        <time>2025-06-12T09:22:43Z</time>
      </trkpt>
      <trkpt lat="44.64695" lon="6.1358">
        <ele>1014</ele>
        <time>2025-06-12T09:22:44Z</time>
      </trkpt>
      <trkpt lat="44.64691" lon="6.13581">
        <ele>1014.2</ele>
        <time>2025-06-12T09:22:45Z</time>
      </trkpt>
      <trkpt lat="44.64688" lon="6.13582">
        <ele>1014.4</ele>
        <time>2025-06-12T09:22:46Z</time>
      </trkpt>
      <trkpt lat="44.64684" lon="6.13583">
        <ele>1014.6</ele>
        <time>2025-06-12T09:22:47Z</time>
      </trkpt>
      <trkpt lat="44.6468" lon="6.13584">
        <ele>1014.8</ele>
        <time>2025-06-12T09:22:48Z</time>
      </trkpt>
      <trkpt lat="44.64677" lon="6.13585">
        <ele>1014.8</ele>
        <time>2025-06-12T09:22:49Z</time>
      </trkpt>
      <trkpt lat="44.64673" lon="6.13586">
        <ele>1015</ele>
        <time>2025-06-12T09:22:50Z</time>
      </trkpt>
      <trkpt lat="44.64669" lon="6.13587">
        <ele>1015.2</ele>
        <time>2025-06-12T09:22:51Z</time>
      </trkpt>
      <trkpt lat="44.64665" lon="6.13588">
        <ele>1015.2</ele>
        <time>2025-06-12T09:22:52Z</time>
      </trkpt>
      <trkpt lat="44.64662" lon="6.13589">
        <ele>1015.4</ele>
        <time>2025-06-12T09:22:53Z</time>
      </trkpt>
      <trkpt lat="44.64658" lon="6.13589">
        <ele>1015.6</ele>
        <time>2025-06-12T09:22:54Z</time>
      </trkpt>
      <trkpt lat="44.64654" lon="6.1359">
        <ele>1015.8</ele>
        <time>2025-06-12T09:22:55Z</time>
      </trkpt>
      <trkpt lat="44.6465" lon="6.13592">
        <ele>1015.8</ele>
        <time>2025-06-12T09:22:56Z</time>
      </trkpt>
      <trkpt lat="44.64646" lon="6.13593">
        <ele>1016</ele>
        <time>2025-06-12T09:22:57Z</time>
      </trkpt>
      <trkpt lat="44.64642" lon="6.13593">
        <ele>1016.2</ele>
        <time>2025-06-12T09:22:58Z</time>
      </trkpt>
      <trkpt lat="44.64639" lon="6.13594">
        <ele>1016.4</ele>
        <time>2025-06-12T09:22:59Z</time>
      </trkpt>
      <trkpt lat="44.64635" lon="6.13595">
        <ele>1016.6</ele>
        <time>2025-06-12T09:23:00Z</time>
      </trkpt>
      <trkpt lat="44.64631" lon="6.13595">
        <ele>1016.8</ele>
        <time>2025-06-12T09:23:01Z</time>
      </trkpt>
      <trkpt lat="44.64627" lon="6.13596">
        <ele>1016.8</ele>
        <time>2025-06-12T09:23:02Z</time>
      </trkpt>
      <trkpt lat="44.6462" lon="6.13599">
        <ele>1017</ele>
        <time>2025-06-12T09:23:04Z</time>
      </trkpt>
      <trkpt lat="44.64612" lon="6.136">
        <ele>1017.2</ele>
        <time>2025-06-12T09:23:06Z</time>
      </trkpt>
      <trkpt lat="44.64605" lon="6.13601">
        <ele>1017.4</ele>
        <time>2025-06-12T09:23:08Z</time>
      </trkpt>
      <trkpt lat="44.64597" lon="6.13603">
        <ele>1017.4</ele>
        <time>2025-06-12T09:23:10Z</time>
      </trkpt>
      <trkpt lat="44.64593" lon="6.13604">
        <ele>1017.4</ele>
        <time>2025-06-12T09:23:11Z</time>
      </trkpt>
      <trkpt lat="44.64589" lon="6.13605">
        <ele>1017.4</ele>
        <time>2025-06-12T09:23:12Z</time>
      </trkpt>
      <trkpt lat="44.64585" lon="6.13606">
        <ele>1017.4</ele>
        <time>2025-06-12T09:23:13Z</time>
      </trkpt>
      <trkpt lat="44.64581" lon="6.13606">
        <ele>1017.4</ele>
        <time>2025-06-12T09:23:14Z</time>
      </trkpt>
      <trkpt lat="44.64578" lon="6.13608">
        <ele>1017.8</ele>
        <time>2025-06-12T09:23:15Z</time>
      </trkpt>
      <trkpt lat="44.64574" lon="6.13609">
        <ele>1018.2</ele>
        <time>2025-06-12T09:23:16Z</time>
      </trkpt>
      <trkpt lat="44.6457" lon="6.1361">
        <ele>1018.4</ele>
        <time>2025-06-12T09:23:17Z</time>
      </trkpt>
      <trkpt lat="44.64566" lon="6.1361">
        <ele>1018.6</ele>
        <time>2025-06-12T09:23:18Z</time>
      </trkpt>
      <trkpt lat="44.64562" lon="6.13611">
        <ele>1018.6</ele>
        <time>2025-06-12T09:23:19Z</time>
      </trkpt>
      <trkpt lat="44.64555" lon="6.13612">
        <ele>1019</ele>
        <time>2025-06-12T09:23:21Z</time>
      </trkpt>
      <trkpt lat="44.64551" lon="6.13612">
        <ele>1019.2</ele>
        <time>2025-06-12T09:23:22Z</time>
      </trkpt>
      <trkpt lat="44.64547" lon="6.13613">
        <ele>1019.2</ele>
        <time>2025-06-12T09:23:23Z</time>
      </trkpt>
      <trkpt lat="44.64544" lon="6.13614">
        <ele>1019.4</ele>
        <time>2025-06-12T09:23:24Z</time>
      </trkpt>
      <trkpt lat="44.64536" lon="6.13615">
        <ele>1019.6</ele>
        <time>2025-06-12T09:23:26Z</time>
      </trkpt>
      <trkpt lat="44.64532" lon="6.13616">
        <ele>1019.6</ele>
        <time>2025-06-12T09:23:27Z</time>
      </trkpt>
      <trkpt lat="44.64529" lon="6.13617">
        <ele>1019.8</ele>
        <time>2025-06-12T09:23:28Z</time>
      </trkpt>
      <trkpt lat="44.64525" lon="6.13618">
        <ele>1019.8</ele>
        <time>2025-06-12T09:23:29Z</time>
      </trkpt>
      <trkpt lat="44.64521" lon="6.13619">
        <ele>1020</ele>
        <time>2025-06-12T09:23:30Z</time>
      </trkpt>
      <trkpt lat="44.64518" lon="6.1362">
        <ele>1020.2</ele>
        <time>2025-06-12T09:23:31Z</time>
      </trkpt>
      <trkpt lat="44.64511" lon="6.13621">
        <ele>1020.4</ele>
        <time>2025-06-12T09:23:33Z</time>
      </trkpt>
      <trkpt lat="44.64507" lon="6.13622">
        <ele>1020.6</ele>
        <time>2025-06-12T09:23:34Z</time>
      </trkpt>
      <trkpt lat="44.645" lon="6.13624">
        <ele>1021</ele>
        <time>2025-06-12T09:23:36Z</time>
      </trkpt>
      <trkpt lat="44.64493" lon="6.13625">
        <ele>1021.2</ele>
        <time>2025-06-12T09:23:38Z</time>
      </trkpt>
      <trkpt lat="44.64485" lon="6.13627">
        <ele>1021.4</ele>
        <time>2025-06-12T09:23:40Z</time>
      </trkpt>
      <trkpt lat="44.64482" lon="6.13628">
        <ele>1021.4</ele>
        <time>2025-06-12T09:23:41Z</time>
      </trkpt>
      <trkpt lat="44.64478" lon="6.13629">
        <ele>1021.6</ele>
        <time>2025-06-12T09:23:42Z</time>
      </trkpt>
      <trkpt lat="44.64474" lon="6.1363">
        <ele>1022</ele>
        <time>2025-06-12T09:23:43Z</time>
      </trkpt>
      <trkpt lat="44.64467" lon="6.13631">
        <ele>1022.4</ele>
        <time>2025-06-12T09:23:45Z</time>
      </trkpt>
      <trkpt lat="44.6446" lon="6.13632">
        <ele>1022.6</ele>
        <time>2025-06-12T09:23:47Z</time>
      </trkpt>
      <trkpt lat="44.64456" lon="6.13633">
        <ele>1022.6</ele>
        <time>2025-06-12T09:23:48Z</time>
      </trkpt>
      <trkpt lat="44.64453" lon="6.13634">
        <ele>1022.6</ele>
        <time>2025-06-12T09:23:49Z</time>
      </trkpt>
      <trkpt lat="44.64449" lon="6.13635">
        <ele>1022.6</ele>
        <time>2025-06-12T09:23:50Z</time>
      </trkpt>
      <trkpt lat="44.64445" lon="6.13636">
        <ele>1022.6</ele>
        <time>2025-06-12T09:23:51Z</time>
      </trkpt>
      <trkpt lat="44.64442" lon="6.13637">
        <ele>1022.8</ele>
        <time>2025-06-12T09:23:52Z</time>
      </trkpt>
      <trkpt lat="44.64434" lon="6.13638">
        <ele>1022.8</ele>
        <time>2025-06-12T09:23:54Z</time>
      </trkpt>
      <trkpt lat="44.64427" lon="6.13639">
        <ele>1022.8</ele>
        <time>2025-06-12T09:23:56Z</time>
      </trkpt>
      <trkpt lat="44.64423" lon="6.1364">
        <ele>1022.8</ele>
        <time>2025-06-12T09:23:57Z</time>
      </trkpt>
      <trkpt lat="44.64419" lon="6.13641">
        <ele>1023</ele>
        <time>2025-06-12T09:23:58Z</time>
      </trkpt>
      <trkpt lat="44.64416" lon="6.13641">
        <ele>1023.2</ele>
        <time>2025-06-12T09:23:59Z</time>
      </trkpt>
      <trkpt lat="44.64408" lon="6.13643">
        <ele>1023.4</ele>
        <time>2025-06-12T09:24:01Z</time>
      </trkpt>
      <trkpt lat="44.64401" lon="6.13645">
        <ele>1023.4</ele>
        <time>2025-06-12T09:24:03Z</time>
      </trkpt>
      <trkpt lat="44.64393" lon="6.13647">
        <ele>1023.6</ele>
        <time>2025-06-12T09:24:05Z</time>
      </trkpt>
      <trkpt lat="44.6439" lon="6.13647">
        <ele>1023.6</ele>
        <time>2025-06-12T09:24:06Z</time>
      </trkpt>
      <trkpt lat="44.64386" lon="6.13648">
        <ele>1023.6</ele>
        <time>2025-06-12T09:24:07Z</time>
      </trkpt>
      <trkpt lat="44.64382" lon="6.13649">
        <ele>1023.8</ele>
        <time>2025-06-12T09:24:08Z</time>
      </trkpt>
      <trkpt lat="44.64378" lon="6.13649">
        <ele>1023.8</ele>
        <time>2025-06-12T09:24:09Z</time>
      </trkpt>
      <trkpt lat="44.64374" lon="6.13649">
        <ele>1024</ele>
        <time>2025-06-12T09:24:10Z</time>
      </trkpt>
      <trkpt lat="44.64371" lon="6.1365">
        <ele>1024</ele>
        <time>2025-06-12T09:24:11Z</time>
      </trkpt>
      <trkpt lat="44.64367" lon="6.13651">
        <ele>1024</ele>
        <time>2025-06-12T09:24:12Z</time>
      </trkpt>
      <trkpt lat="44.64359" lon="6.13653">
        <ele>1024.2</ele>
        <time>2025-06-12T09:24:14Z</time>
      </trkpt>
      <trkpt lat="44.64352" lon="6.13655">
        <ele>1024.4</ele>
        <time>2025-06-12T09:24:16Z</time>
      </trkpt>
      <trkpt lat="44.64345" lon="6.13656">
        <ele>1024.4</ele>
        <time>2025-06-12T09:24:18Z</time>
      </trkpt>
      <trkpt lat="44.64337" lon="6.13657">
        <ele>1024.4</ele>
        <time>2025-06-12T09:24:20Z</time>
      </trkpt>
      <trkpt lat="44.64333" lon="6.13657">
        <ele>1024.6</ele>
        <time>2025-06-12T09:24:21Z</time>
      </trkpt>
      <trkpt lat="44.64329" lon="6.13658">
        <ele>1024.6</ele>
        <time>2025-06-12T09:24:22Z</time>
      </trkpt>
      <trkpt lat="44.64326" lon="6.13659">
        <ele>1024.6</ele>
        <time>2025-06-12T09:24:23Z</time>
      </trkpt>
      <trkpt lat="44.64322" lon="6.1366">
        <ele>1024.8</ele>
        <time>2025-06-12T09:24:24Z</time>
      </trkpt>
      <trkpt lat="44.64318" lon="6.13661">
        <ele>1024.8</ele>
        <time>2025-06-12T09:24:25Z</time>
      </trkpt>
      <trkpt lat="44.64315" lon="6.13662">
        <ele>1025</ele>
        <time>2025-06-12T09:24:26Z</time>
      </trkpt>
      <trkpt lat="44.64311" lon="6.13663">
        <ele>1025</ele>
        <time>2025-06-12T09:24:27Z</time>
      </trkpt>
      <trkpt lat="44.64307" lon="6.13664">
        <ele>1025.2</ele>
        <time>2025-06-12T09:24:28Z</time>
      </trkpt>
      <trkpt lat="44.64304" lon="6.13665">
        <ele>1025.2</ele>
        <time>2025-06-12T09:24:29Z</time>
      </trkpt>
      <trkpt lat="44.643" lon="6.13665">
        <ele>1025.2</ele>
        <time>2025-06-12T09:24:30Z</time>
      </trkpt>
      <trkpt lat="44.64296" lon="6.13666">
        <ele>1025.2</ele>
        <time>2025-06-12T09:24:31Z</time>
      </trkpt>
      <trkpt lat="44.64293" lon="6.13666">
        <ele>1025.4</ele>
        <time>2025-06-12T09:24:32Z</time>
      </trkpt>
      <trkpt lat="44.64289" lon="6.13667">
        <ele>1025.4</ele>
        <time>2025-06-12T09:24:33Z</time>
      </trkpt>
      <trkpt lat="44.64285" lon="6.13668">
        <ele>1025.4</ele>
        <time>2025-06-12T09:24:34Z</time>
      </trkpt>
      <trkpt lat="44.64282" lon="6.13669">
        <ele>1025.4</ele>
        <time>2025-06-12T09:24:35Z</time>
      </trkpt>
      <trkpt lat="44.64278" lon="6.13669">
        <ele>1025.6</ele>
        <time>2025-06-12T09:24:36Z</time>
      </trkpt>
      <trkpt lat="44.64275" lon="6.13669">
        <ele>1025.6</ele>
        <time>2025-06-12T09:24:37Z</time>
      </trkpt>
      <trkpt lat="44.64268" lon="6.13667">
        <ele>1026.4</ele>
        <time>2025-06-12T09:24:39Z</time>
      </trkpt>
      <trkpt lat="44.64264" lon="6.13664">
        <ele>1026.6</ele>
        <time>2025-06-12T09:24:41Z</time>
      </trkpt>
      <trkpt lat="44.6426" lon="6.13662">
        <ele>1026.6</ele>
        <time>2025-06-12T09:24:43Z</time>
      </trkpt>
      <trkpt lat="44.64256" lon="6.13662">
        <ele>1026.6</ele>
        <time>2025-06-12T09:24:44Z</time>
      </trkpt>
      <trkpt lat="44.64253" lon="6.13663">
        <ele>1026.6</ele>
        <time>2025-06-12T09:24:45Z</time>
      </trkpt>
      <trkpt lat="44.64249" lon="6.13665">
        <ele>1026.6</ele>
        <time>2025-06-12T09:24:46Z</time>
      </trkpt>
      <trkpt lat="44.64246" lon="6.13668">
        <ele>1026.6</ele>
        <time>2025-06-12T09:24:47Z</time>
      </trkpt>
      <trkpt lat="44.64243" lon="6.13672">
        <ele>1026.6</ele>
        <time>2025-06-12T09:24:48Z</time>
      </trkpt>
      <trkpt lat="44.6424" lon="6.13676">
        <ele>1026.6</ele>
        <time>2025-06-12T09:24:49Z</time>
      </trkpt>
      <trkpt lat="44.64236" lon="6.13685">
        <ele>1026.8</ele>
        <time>2025-06-12T09:24:51Z</time>
      </trkpt>
      <trkpt lat="44.64233" lon="6.13689">
        <ele>1026.8</ele>
        <time>2025-06-12T09:24:52Z</time>
      </trkpt>
      <trkpt lat="44.64231" lon="6.13694">
        <ele>1026.8</ele>
        <time>2025-06-12T09:24:53Z</time>
      </trkpt>
      <trkpt lat="44.64229" lon="6.13699">
        <ele>1026.8</ele>
        <time>2025-06-12T09:24:54Z</time>
      </trkpt>
      <trkpt lat="44.64226" lon="6.13703">
        <ele>1026.8</ele>
        <time>2025-06-12T09:24:55Z</time>
      </trkpt>
      <trkpt lat="44.64224" lon="6.13708">
        <ele>1026.8</ele>
        <time>2025-06-12T09:24:56Z</time>
      </trkpt>
      <trkpt lat="44.64222" lon="6.13712">
        <ele>1026.8</ele>
        <time>2025-06-12T09:24:57Z</time>
      </trkpt>
      <trkpt lat="44.64219" lon="6.13717">
        <ele>1026.8</ele>
        <time>2025-06-12T09:24:58Z</time>
      </trkpt>
      <trkpt lat="44.64217" lon="6.13721">
        <ele>1027</ele>
        <time>2025-06-12T09:24:59Z</time>
      </trkpt>
      <trkpt lat="44.64215" lon="6.13726">
        <ele>1027.2</ele>
        <time>2025-06-12T09:25:00Z</time>
      </trkpt>
      <trkpt lat="44.64213" lon="6.1373">
        <ele>1027.2</ele>
        <time>2025-06-12T09:25:01Z</time>
      </trkpt>
      <trkpt lat="44.6421" lon="6.13735">
        <ele>1027.4</ele>
        <time>2025-06-12T09:25:02Z</time>
      </trkpt>
      <trkpt lat="44.64208" lon="6.13739">
        <ele>1027.4</ele>
        <time>2025-06-12T09:25:03Z</time>
      </trkpt>
      <trkpt lat="44.64206" lon="6.13744">
        <ele>1027.8</ele>
        <time>2025-06-12T09:25:04Z</time>
      </trkpt>
      <trkpt lat="44.64203" lon="6.13748">
        <ele>1028.2</ele>
        <time>2025-06-12T09:25:05Z</time>
      </trkpt>
      <trkpt lat="44.64201" lon="6.13753">
        <ele>1028.2</ele>
        <time>2025-06-12T09:25:06Z</time>
      </trkpt>
      <trkpt lat="44.64199" lon="6.13758">
        <ele>1028.6</ele>
        <time>2025-06-12T09:25:07Z</time>
      </trkpt>
      <trkpt lat="44.64197" lon="6.13762">
        <ele>1028.6</ele>
        <time>2025-06-12T09:25:08Z</time>
      </trkpt>
      <trkpt lat="44.64192" lon="6.13771">
        <ele>1029</ele>
        <time>2025-06-12T09:25:10Z</time>
      </trkpt>
      <trkpt lat="44.64187" lon="6.1378">
        <ele>1029.2</ele>
        <time>2025-06-12T09:25:12Z</time>
      </trkpt>
      <trkpt lat="44.64185" lon="6.13784">
        <ele>1029.2</ele>
        <time>2025-06-12T09:25:13Z</time>
      </trkpt>
      <trkpt lat="44.64183" lon="6.13788">
        <ele>1029.4</ele>
        <time>2025-06-12T09:25:14Z</time>
      </trkpt>
      <trkpt lat="44.6418" lon="6.13792">
        <ele>1029.4</ele>
        <time>2025-06-12T09:25:15Z</time>
      </trkpt>
      <trkpt lat="44.64178" lon="6.13796">
        <ele>1029.4</ele>
        <time>2025-06-12T09:25:16Z</time>
      </trkpt>
      <trkpt lat="44.64176" lon="6.13801">
        <ele>1029.4</ele>
        <time>2025-06-12T09:25:17Z</time>
      </trkpt>
      <trkpt lat="44.64171" lon="6.13809">
        <ele>1029.4</ele>
        <time>2025-06-12T09:25:19Z</time>
      </trkpt>
      <trkpt lat="44.64169" lon="6.13813">
        <ele>1029.4</ele>
        <time>2025-06-12T09:25:20Z</time>
      </trkpt>
      <trkpt lat="44.64167" lon="6.13817">
        <ele>1029.6</ele>
        <time>2025-06-12T09:25:21Z</time>
      </trkpt>
      <trkpt lat="44.64164" lon="6.13821">
        <ele>1029.6</ele>
        <time>2025-06-12T09:25:22Z</time>
      </trkpt>
      <trkpt lat="44.64162" lon="6.13824">
        <ele>1029.8</ele>
        <time>2025-06-12T09:25:23Z</time>
      </trkpt>
      <trkpt lat="44.64159" lon="6.13828">
        <ele>1030.2</ele>
        <time>2025-06-12T09:25:24Z</time>
      </trkpt>
      <trkpt lat="44.64157" lon="6.13832">
        <ele>1030.6</ele>
        <time>2025-06-12T09:25:25Z</time>
      </trkpt>
      <trkpt lat="44.64151" lon="6.1384">
        <ele>1031.2</ele>
        <time>2025-06-12T09:25:27Z</time>
      </trkpt>
      <trkpt lat="44.64145" lon="6.13848">
        <ele>1031.6</ele>
        <time>2025-06-12T09:25:29Z</time>
      </trkpt>
      <trkpt lat="44.64142" lon="6.13852">
        <ele>1031.6</ele>
        <time>2025-06-12T09:25:30Z</time>
      </trkpt>
      <trkpt lat="44.64139" lon="6.13856">
        <ele>1031.8</ele>
        <time>2025-06-12T09:25:31Z</time>
      </trkpt>
      <trkpt lat="44.64136" lon="6.1386">
        <ele>1031.8</ele>
        <time>2025-06-12T09:25:32Z</time>
      </trkpt>
      <trkpt lat="44.64133" lon="6.13863">
        <ele>1032</ele>
        <time>2025-06-12T09:25:33Z</time>
      </trkpt>
      <trkpt lat="44.6413" lon="6.13867">
        <ele>1032.4</ele>
        <time>2025-06-12T09:25:34Z</time>
      </trkpt>
      <trkpt lat="44.64127" lon="6.13871">
        <ele>1032.6</ele>
        <time>2025-06-12T09:25:35Z</time>
      </trkpt>
      <trkpt lat="44.64124" lon="6.13875">
        <ele>1032.8</ele>
        <time>2025-06-12T09:25:36Z</time>
      </trkpt>
      <trkpt lat="44.64118" lon="6.13883">
        <ele>1033</ele>
        <time>2025-06-12T09:25:38Z</time>
      </trkpt>
      <trkpt lat="44.64112" lon="6.13891">
        <ele>1033.2</ele>
        <time>2025-06-12T09:25:40Z</time>
      </trkpt>
      <trkpt lat="44.64106" lon="6.13899">
        <ele>1033.4</ele>
        <time>2025-06-12T09:25:42Z</time>
      </trkpt>
      <trkpt lat="44.641" lon="6.13907">
        <ele>1033.4</ele>
        <time>2025-06-12T09:25:44Z</time>
      </trkpt>
      <trkpt lat="44.64094" lon="6.13915">
        <ele>1033.6</ele>
        <time>2025-06-12T09:25:46Z</time>
      </trkpt>
      <trkpt lat="44.64091" lon="6.13919">
        <ele>1033.8</ele>
        <time>2025-06-12T09:25:47Z</time>
      </trkpt>
      <trkpt lat="44.64088" lon="6.13922">
        <ele>1034</ele>
        <time>2025-06-12T09:25:48Z</time>
      </trkpt>
      <trkpt lat="44.64085" lon="6.13926">
        <ele>1034.2</ele>
        <time>2025-06-12T09:25:49Z</time>
      </trkpt>
      <trkpt lat="44.64083" lon="6.1393">
        <ele>1034.2</ele>
        <time>2025-06-12T09:25:50Z</time>
      </trkpt>
      <trkpt lat="44.6408" lon="6.13933">
        <ele>1034.2</ele>
        <time>2025-06-12T09:25:51Z</time>
      </trkpt>
      <trkpt lat="44.64077" lon="6.13937">
        <ele>1034.4</ele>
        <time>2025-06-12T09:25:52Z</time>
      </trkpt>
      <trkpt lat="44.64074" lon="6.13941">
        <ele>1034.4</ele>
        <time>2025-06-12T09:25:53Z</time>
      </trkpt>
      <trkpt lat="44.64072" lon="6.13944">
        <ele>1034.6</ele>
        <time>2025-06-12T09:25:54Z</time>
      </trkpt>
      <trkpt lat="44.64069" lon="6.13948">
        <ele>1034.6</ele>
        <time>2025-06-12T09:25:55Z</time>
      </trkpt>
      <trkpt lat="44.64066" lon="6.13952">
        <ele>1034.6</ele>
        <time>2025-06-12T09:25:56Z</time>
      </trkpt>
      <trkpt lat="44.64064" lon="6.13955">
        <ele>1034.8</ele>
        <time>2025-06-12T09:25:57Z</time>
      </trkpt>
      <trkpt lat="44.64061" lon="6.13958">
        <ele>1035</ele>
        <time>2025-06-12T09:25:58Z</time>
      </trkpt>
      <trkpt lat="44.64059" lon="6.13962">
        <ele>1035.2</ele>
        <time>2025-06-12T09:25:59Z</time>
      </trkpt>
      <trkpt lat="44.64053" lon="6.13969">
        <ele>1035.6</ele>
        <time>2025-06-12T09:26:01Z</time>
      </trkpt>
      <trkpt lat="44.64051" lon="6.13972">
        <ele>1036.2</ele>
        <time>2025-06-12T09:26:02Z</time>
      </trkpt>
      <trkpt lat="44.64049" lon="6.13975">
        <ele>1036.6</ele>
        <time>2025-06-12T09:26:03Z</time>
      </trkpt>
      <trkpt lat="44.64046" lon="6.13979">
        <ele>1037</ele>
        <time>2025-06-12T09:26:04Z</time>
      </trkpt>
      <trkpt lat="44.64043" lon="6.13982">
        <ele>1037.4</ele>
        <time>2025-06-12T09:26:05Z</time>
      </trkpt>
      <trkpt lat="44.64041" lon="6.13985">
        <ele>1037.6</ele>
        <time>2025-06-12T09:26:06Z</time>
      </trkpt>
      <trkpt lat="44.64039" lon="6.13989">
        <ele>1037.8</ele>
        <time>2025-06-12T09:26:07Z</time>
      </trkpt>
      <trkpt lat="44.64036" lon="6.13992">
        <ele>1038</ele>
        <time>2025-06-12T09:26:08Z</time>
      </trkpt>
      <trkpt lat="44.64033" lon="6.13996">
        <ele>1038.2</ele>
        <time>2025-06-12T09:26:09Z</time>
      </trkpt>
      <trkpt lat="44.64031" lon="6.13999">
        <ele>1038.2</ele>
        <time>2025-06-12T09:26:10Z</time>
      </trkpt>
      <trkpt lat="44.64028" lon="6.14003">
        <ele>1038.4</ele>
        <time>2025-06-12T09:26:11Z</time>
      </trkpt>
      <trkpt lat="44.64025" lon="6.14006">
        <ele>1038.8</ele>
        <time>2025-06-12T09:26:12Z</time>
      </trkpt>
      <trkpt lat="44.64023" lon="6.14009">
        <ele>1039</ele>
        <time>2025-06-12T09:26:13Z</time>
      </trkpt>
      <trkpt lat="44.6402" lon="6.14013">
        <ele>1039.2</ele>
        <time>2025-06-12T09:26:14Z</time>
      </trkpt>
      <trkpt lat="44.64015" lon="6.1402">
        <ele>1039.6</ele>
        <time>2025-06-12T09:26:16Z</time>
      </trkpt>
      <trkpt lat="44.64009" lon="6.14025">
        <ele>1039.8</ele>
        <time>2025-06-12T09:26:18Z</time>
      </trkpt>
      <trkpt lat="44.64006" lon="6.14028">
        <ele>1039.8</ele>
        <time>2025-06-12T09:26:19Z</time>
      </trkpt>
      <trkpt lat="44.64003" lon="6.1403">
        <ele>1040</ele>
        <time>2025-06-12T09:26:20Z</time>
      </trkpt>
      <trkpt lat="44.64" lon="6.14032">
        <ele>1040</ele>
        <time>2025-06-12T09:26:21Z</time>
      </trkpt>
      <trkpt lat="44.63997" lon="6.14034">
        <ele>1040</ele>
        <time>2025-06-12T09:26:22Z</time>
      </trkpt>
      <trkpt lat="44.63994" lon="6.14036">
        <ele>1040.2</ele>
        <time>2025-06-12T09:26:23Z</time>
      </trkpt>
      <trkpt lat="44.63991" lon="6.14038">
        <ele>1040.4</ele>
        <time>2025-06-12T09:26:24Z</time>
      </trkpt>
      <trkpt lat="44.63988" lon="6.14041">
        <ele>1040.6</ele>
        <time>2025-06-12T09:26:25Z</time>
      </trkpt>
      <trkpt lat="44.63985" lon="6.14044">
        <ele>1040.6</ele>
        <time>2025-06-12T09:26:26Z</time>
      </trkpt>
      <trkpt lat="44.63983" lon="6.14048">
        <ele>1040.8</ele>
        <time>2025-06-12T09:26:27Z</time>
      </trkpt>
      <trkpt lat="44.63981" lon="6.14052">
        <ele>1041.2</ele>
        <time>2025-06-12T09:26:28Z</time>
      </trkpt>
      <trkpt lat="44.63979" lon="6.14056">
        <ele>1041.4</ele>
        <time>2025-06-12T09:26:29Z</time>
      </trkpt>
      <trkpt lat="44.63976" lon="6.14065">
        <ele>1041.6</ele>
        <time>2025-06-12T09:26:31Z</time>
      </trkpt>
      <trkpt lat="44.63972" lon="6.14073">
        <ele>1042</ele>
        <time>2025-06-12T09:26:33Z</time>
      </trkpt>
      <trkpt lat="44.63969" lon="6.14076">
        <ele>1042.4</ele>
        <time>2025-06-12T09:26:34Z</time>
      </trkpt>
      <trkpt lat="44.63967" lon="6.1408">
        <ele>1042.6</ele>
        <time>2025-06-12T09:26:35Z</time>
      </trkpt>
      <trkpt lat="44.63962" lon="6.14087">
        <ele>1043</ele>
        <time>2025-06-12T09:26:37Z</time>
      </trkpt>
      <trkpt lat="44.6396" lon="6.1409">
        <ele>1043.2</ele>
        <time>2025-06-12T09:26:38Z</time>
      </trkpt>
      <trkpt lat="44.63958" lon="6.14094">
        <ele>1043.4</ele>
        <time>2025-06-12T09:26:39Z</time>
      </trkpt>
      <trkpt lat="44.63955" lon="6.14097">
        <ele>1043.6</ele>
        <time>2025-06-12T09:26:40Z</time>
      </trkpt>
      <trkpt lat="44.63953" lon="6.141">
        <ele>1044</ele>
        <time>2025-06-12T09:26:41Z</time>
      </trkpt>
      <trkpt lat="44.6395" lon="6.14103">
        <ele>1044</ele>
        <time>2025-06-12T09:26:42Z</time>
      </trkpt>
      <trkpt lat="44.63948" lon="6.14106">
        <ele>1044.2</ele>
        <time>2025-06-12T09:26:43Z</time>
      </trkpt>
      <trkpt lat="44.63945" lon="6.14109">
        <ele>1044.2</ele>
        <time>2025-06-12T09:26:44Z</time>
      </trkpt>
      <trkpt lat="44.63943" lon="6.14112">
        <ele>1044.6</ele>
        <time>2025-06-12T09:26:45Z</time>
      </trkpt>
      <trkpt lat="44.63941" lon="6.14115">
        <ele>1044.8</ele>
        <time>2025-06-12T09:26:46Z</time>
      </trkpt>
      <trkpt lat="44.63939" lon="6.14118">
        <ele>1045.2</ele>
        <time>2025-06-12T09:26:47Z</time>
      </trkpt>
      <trkpt lat="44.63936" lon="6.14122">
        <ele>1045.2</ele>
        <time>2025-06-12T09:26:48Z</time>
      </trkpt>
      <trkpt lat="44.63932" lon="6.14128">
        <ele>1045.6</ele>
        <time>2025-06-12T09:26:50Z</time>
      </trkpt>
      <trkpt lat="44.63929" lon="6.14131">
        <ele>1045.8</ele>
        <time>2025-06-12T09:26:51Z</time>
      </trkpt>
      <trkpt lat="44.63927" lon="6.14134">
        <ele>1046</ele>
        <time>2025-06-12T09:26:52Z</time>
      </trkpt>
      <trkpt lat="44.63925" lon="6.14137">
        <ele>1046.2</ele>
        <time>2025-06-12T09:26:53Z</time>
      </trkpt>
      <trkpt lat="44.63922" lon="6.1414">
        <ele>1046.4</ele>
        <time>2025-06-12T09:26:54Z</time>
      </trkpt>
      <trkpt lat="44.63918" lon="6.14147">
        <ele>1046.6</ele>
        <time>2025-06-12T09:26:56Z</time>
      </trkpt>
      <trkpt lat="44.63915" lon="6.1415">
        <ele>1046.8</ele>
        <time>2025-06-12T09:26:57Z</time>
      </trkpt>
      <trkpt lat="44.63913" lon="6.14153">
        <ele>1047</ele>
        <time>2025-06-12T09:26:58Z</time>
      </trkpt>
      <trkpt lat="44.63911" lon="6.14156">
        <ele>1047.2</ele>
        <time>2025-06-12T09:26:59Z</time>
      </trkpt>
      <trkpt lat="44.63909" lon="6.14159">
        <ele>1047.4</ele>
        <time>2025-06-12T09:27:00Z</time>
      </trkpt>
      <trkpt lat="44.63906" lon="6.14162">
        <ele>1047.4</ele>
        <time>2025-06-12T09:27:01Z</time>
      </trkpt>
      <trkpt lat="44.63904" lon="6.14165">
        <ele>1047.6</ele>
        <time>2025-06-12T09:27:02Z</time>
      </trkpt>
      <trkpt lat="44.63902" lon="6.14169">
        <ele>1047.6</ele>
        <time>2025-06-12T09:27:03Z</time>
      </trkpt>
      <trkpt lat="44.639" lon="6.14172">
        <ele>1047.8</ele>
        <time>2025-06-12T09:27:04Z</time>
      </trkpt>
      <trkpt lat="44.63898" lon="6.14176">
        <ele>1048</ele>
        <time>2025-06-12T09:27:05Z</time>
      </trkpt>
      <trkpt lat="44.63896" lon="6.14179">
        <ele>1048.2</ele>
        <time>2025-06-12T09:27:06Z</time>
      </trkpt>
      <trkpt lat="44.63894" lon="6.14183">
        <ele>1048.4</ele>
        <time>2025-06-12T09:27:07Z</time>
      </trkpt>
      <trkpt lat="44.63891" lon="6.14186">
        <ele>1048.6</ele>
        <time>2025-06-12T09:27:08Z</time>
      </trkpt>
      <trkpt lat="44.63889" lon="6.14189">
        <ele>1048.8</ele>
        <time>2025-06-12T09:27:09Z</time>
      </trkpt>
      <trkpt lat="44.63887" lon="6.14192">
        <ele>1049</ele>
        <time>2025-06-12T09:27:10Z</time>
      </trkpt>
      <trkpt lat="44.63885" lon="6.14195">
        <ele>1049</ele>
        <time>2025-06-12T09:27:11Z</time>
      </trkpt>
      <trkpt lat="44.63883" lon="6.14198">
        <ele>1049.2</ele>
        <time>2025-06-12T09:27:12Z</time>
      </trkpt>
      <trkpt lat="44.63881" lon="6.14201">
        <ele>1049.2</ele>
        <time>2025-06-12T09:27:13Z</time>
      </trkpt>
      <trkpt lat="44.63876" lon="6.14207">
        <ele>1049.8</ele>
        <time>2025-06-12T09:27:15Z</time>
      </trkpt>
      <trkpt lat="44.63872" lon="6.14213">
        <ele>1050</ele>
        <time>2025-06-12T09:27:17Z</time>
      </trkpt>
      <trkpt lat="44.63868" lon="6.1422">
        <ele>1050.2</ele>
        <time>2025-06-12T09:27:19Z</time>
      </trkpt>
      <trkpt lat="44.63866" lon="6.14223">
        <ele>1050.2</ele>
        <time>2025-06-12T09:27:20Z</time>
      </trkpt>
      <trkpt lat="44.63864" lon="6.14226">
        <ele>1050.4</ele>
        <time>2025-06-12T09:27:21Z</time>
      </trkpt>
      <trkpt lat="44.6386" lon="6.14233">
        <ele>1050.6</ele>
        <time>2025-06-12T09:27:23Z</time>
      </trkpt>
      <trkpt lat="44.63856" lon="6.14239">
        <ele>1051</ele>
        <time>2025-06-12T09:27:25Z</time>
      </trkpt>
      <trkpt lat="44.63854" lon="6.14242">
        <ele>1051.6</ele>
        <time>2025-06-12T09:27:26Z</time>
      </trkpt>
      <trkpt lat="44.63851" lon="6.14245">
        <ele>1051.8</ele>
        <time>2025-06-12T09:27:27Z</time>
      </trkpt>
      <trkpt lat="44.63849" lon="6.14247">
        <ele>1052</ele>
        <time>2025-06-12T09:27:28Z</time>
      </trkpt>
      <trkpt lat="44.63847" lon="6.1425">
        <ele>1052</ele>
        <time>2025-06-12T09:27:29Z</time>
      </trkpt>
      <trkpt lat="44.63841" lon="6.14254">
        <ele>1052.2</ele>
        <time>2025-06-12T09:27:31Z</time>
      </trkpt>
      <trkpt lat="44.63838" lon="6.14255">
        <ele>1052.2</ele>
        <time>2025-06-12T09:27:32Z</time>
      </trkpt>
      <trkpt lat="44.63835" lon="6.14256">
        <ele>1052.4</ele>
        <time>2025-06-12T09:27:33Z</time>
      </trkpt>
      <trkpt lat="44.63832" lon="6.14255">
        <ele>1052.4</ele>
        <time>2025-06-12T09:27:34Z</time>
      </trkpt>
      <trkpt lat="44.63829" lon="6.14253">
        <ele>1052.6</ele>
        <time>2025-06-12T09:27:35Z</time>
      </trkpt>
      <trkpt lat="44.63826" lon="6.1425">
        <ele>1053</ele>
        <time>2025-06-12T09:27:36Z</time>
      </trkpt>
      <trkpt lat="44.63824" lon="6.14247">
        <ele>1053.2</ele>
        <time>2025-06-12T09:27:37Z</time>
      </trkpt>
      <trkpt lat="44.63823" lon="6.14243">
        <ele>1053.4</ele>
        <time>2025-06-12T09:27:38Z</time>
      </trkpt>
      <trkpt lat="44.63821" lon="6.14239">
        <ele>1053.6</ele>
        <time>2025-06-12T09:27:39Z</time>
      </trkpt>
      <trkpt lat="44.63819" lon="6.14235">
        <ele>1053.8</ele>
        <time>2025-06-12T09:27:40Z</time>
      </trkpt>
      <trkpt lat="44.63817" lon="6.1423">
        <ele>1053.8</ele>
        <time>2025-06-12T09:27:41Z</time>
      </trkpt>
      <trkpt lat="44.63814" lon="6.14222">
        <ele>1053.8</ele>
        <time>2025-06-12T09:27:43Z</time>
      </trkpt>
      <trkpt lat="44.63811" lon="6.14212">
        <ele>1054</ele>
        <time>2025-06-12T09:27:45Z</time>
      </trkpt>
      <trkpt lat="44.63809" lon="6.14207">
        <ele>1054.2</ele>
        <time>2025-06-12T09:27:46Z</time>
      </trkpt>
      <trkpt lat="44.63808" lon="6.14203">
        <ele>1054.2</ele>
        <time>2025-06-12T09:27:47Z</time>
      </trkpt>
      <trkpt lat="44.63807" lon="6.14193">
        <ele>1054.6</ele>
        <time>2025-06-12T09:27:49Z</time>
      </trkpt>
      <trkpt lat="44.63807" lon="6.14188">
        <ele>1055</ele>
        <time>2025-06-12T09:27:50Z</time>
      </trkpt>
      <trkpt lat="44.63807" lon="6.14183">
        <ele>1055.4</ele>
        <time>2025-06-12T09:27:51Z</time>
      </trkpt>
      <trkpt lat="44.63807" lon="6.14179">
        <ele>1055.4</ele>
        <time>2025-06-12T09:27:52Z</time>
      </trkpt>
      <trkpt lat="44.63808" lon="6.14174">
        <ele>1055.6</ele>
        <time>2025-06-12T09:27:53Z</time>
      </trkpt>
      <trkpt lat="44.6381" lon="6.14165">
        <ele>1055.8</ele>
        <time>2025-06-12T09:27:55Z</time>
      </trkpt>
      <trkpt lat="44.63812" lon="6.14156">
        <ele>1055.8</ele>
        <time>2025-06-12T09:27:57Z</time>
      </trkpt>
      <trkpt lat="44.63814" lon="6.14152">
        <ele>1056</ele>
        <time>2025-06-12T09:27:58Z</time>
      </trkpt>
      <trkpt lat="44.63816" lon="6.14148">
        <ele>1056.2</ele>
        <time>2025-06-12T09:27:59Z</time>
      </trkpt>
      <trkpt lat="44.6382" lon="6.14141">
        <ele>1056.6</ele>
        <time>2025-06-12T09:28:01Z</time>
      </trkpt>
      <trkpt lat="44.63824" lon="6.14135">
        <ele>1057</ele>
        <time>2025-06-12T09:28:03Z</time>
      </trkpt>
      <trkpt lat="44.63826" lon="6.14132">
        <ele>1057.2</ele>
        <time>2025-06-12T09:28:04Z</time>
      </trkpt>
      <trkpt lat="44.63829" lon="6.14129">
        <ele>1057.2</ele>
        <time>2025-06-12T09:28:05Z</time>
      </trkpt>
      <trkpt lat="44.63834" lon="6.14123">
        <ele>1057.4</ele>
        <time>2025-06-12T09:28:07Z</time>
      </trkpt>
      <trkpt lat="44.63837" lon="6.14121">
        <ele>1057.6</ele>
        <time>2025-06-12T09:28:08Z</time>
      </trkpt>
      <trkpt lat="44.63839" lon="6.14118">
        <ele>1057.8</ele>
        <time>2025-06-12T09:28:09Z</time>
      </trkpt>
      <trkpt lat="44.63842" lon="6.14116">
        <ele>1058</ele>
        <time>2025-06-12T09:28:10Z</time>
      </trkpt>
      <trkpt lat="44.63845" lon="6.14113">
        <ele>1058.2</ele>
        <time>2025-06-12T09:28:11Z</time>
      </trkpt>
      <trkpt lat="44.63847" lon="6.14111">
        <ele>1058.6</ele>
        <time>2025-06-12T09:28:12Z</time>
      </trkpt>
      <trkpt lat="44.6385" lon="6.14108">
        <ele>1058.8</ele>
        <time>2025-06-12T09:28:13Z</time>
      </trkpt>
      <trkpt lat="44.63852" lon="6.14105">
        <ele>1059</ele>
        <time>2025-06-12T09:28:14Z</time>
      </trkpt>
      <trkpt lat="44.63855" lon="6.14103">
        <ele>1059.4</ele>
        <time>2025-06-12T09:28:15Z</time>
      </trkpt>
      <trkpt lat="44.63858" lon="6.141">
        <ele>1059.6</ele>
        <time>2025-06-12T09:28:16Z</time>
      </trkpt>
      <trkpt lat="44.6386" lon="6.14098">
        <ele>1059.6</ele>
        <time>2025-06-12T09:28:17Z</time>
      </trkpt>
      <trkpt lat="44.63863" lon="6.14095">
        <ele>1060</ele>
        <time>2025-06-12T09:28:18Z</time>
      </trkpt>
      <trkpt lat="44.63865" lon="6.14092">
        <ele>1060.2</ele>
        <time>2025-06-12T09:28:19Z</time>
      </trkpt>
      <trkpt lat="44.63867" lon="6.14089">
        <ele>1060.4</ele>
        <time>2025-06-12T09:28:20Z</time>
      </trkpt>
      <trkpt lat="44.6387" lon="6.14086">
        <ele>1060.6</ele>
        <time>2025-06-12T09:28:21Z</time>
      </trkpt>
      <trkpt lat="44.63872" lon="6.14083">
        <ele>1060.8</ele>
        <time>2025-06-12T09:28:22Z</time>
      </trkpt>
      <trkpt lat="44.63876" lon="6.14076">
        <ele>1061</ele>
        <time>2025-06-12T09:28:24Z</time>
      </trkpt>
      <trkpt lat="44.63878" lon="6.14072">
        <ele>1061.2</ele>
        <time>2025-06-12T09:28:25Z</time>
      </trkpt>
      <trkpt lat="44.63879" lon="6.14068">
        <ele>1061.2</ele>
        <time>2025-06-12T09:28:26Z</time>
      </trkpt>
      <trkpt lat="44.63881" lon="6.14064">
        <ele>1061.4</ele>
        <time>2025-06-12T09:28:27Z</time>
      </trkpt>
      <trkpt lat="44.63882" lon="6.14061">
        <ele>1061.6</ele>
        <time>2025-06-12T09:28:28Z</time>
      </trkpt>
      <trkpt lat="44.63884" lon="6.14057">
        <ele>1061.8</ele>
        <time>2025-06-12T09:28:29Z</time>
      </trkpt>
      <trkpt lat="44.63885" lon="6.14053">
        <ele>1062</ele>
        <time>2025-06-12T09:28:30Z</time>
      </trkpt>
      <trkpt lat="44.63886" lon="6.14049">
        <ele>1062</ele>
        <time>2025-06-12T09:28:31Z</time>
      </trkpt>
      <trkpt lat="44.63887" lon="6.14044">
        <ele>1062.4</ele>
        <time>2025-06-12T09:28:32Z</time>
      </trkpt>
      <trkpt lat="44.63888" lon="6.1404">
        <ele>1062.6</ele>
        <time>2025-06-12T09:28:33Z</time>
      </trkpt>
      <trkpt lat="44.63889" lon="6.14036">
        <ele>1062.8</ele>
        <time>2025-06-12T09:28:34Z</time>
      </trkpt>
      <trkpt lat="44.63889" lon="6.14031">
        <ele>1063</ele>
        <time>2025-06-12T09:28:35Z</time>
      </trkpt>
      <trkpt lat="44.6389" lon="6.14027">
        <ele>1063.4</ele>
        <time>2025-06-12T09:28:36Z</time>
      </trkpt>
      <trkpt lat="44.6389" lon="6.14022">
        <ele>1063.6</ele>
        <time>2025-06-12T09:28:37Z</time>
      </trkpt>
      <trkpt lat="44.63889" lon="6.14018">
        <ele>1063.8</ele>
        <time>2025-06-12T09:28:38Z</time>
      </trkpt>
      <trkpt lat="44.63889" lon="6.14014">
        <ele>1064</ele>
        <time>2025-06-12T09:28:39Z</time>
      </trkpt>
      <trkpt lat="44.63888" lon="6.14009">
        <ele>1064.4</ele>
        <time>2025-06-12T09:28:40Z</time>
      </trkpt>
      <trkpt lat="44.63887" lon="6.14005">
        <ele>1064.6</ele>
        <time>2025-06-12T09:28:41Z</time>
      </trkpt>
      <trkpt lat="44.63886" lon="6.14001">
        <ele>1064.8</ele>
        <time>2025-06-12T09:28:42Z</time>
      </trkpt>
      <trkpt lat="44.63885" lon="6.13996">
        <ele>1065</ele>
        <time>2025-06-12T09:28:43Z</time>
      </trkpt>
      <trkpt lat="44.63883" lon="6.13993">
        <ele>1065.2</ele>
        <time>2025-06-12T09:28:44Z</time>
      </trkpt>
      <trkpt lat="44.63881" lon="6.13989">
        <ele>1065.2</ele>
        <time>2025-06-12T09:28:45Z</time>
      </trkpt>
      <trkpt lat="44.63879" lon="6.13985">
        <ele>1065.6</ele>
        <time>2025-06-12T09:28:46Z</time>
      </trkpt>
      <trkpt lat="44.63877" lon="6.13982">
        <ele>1065.8</ele>
        <time>2025-06-12T09:28:47Z</time>
      </trkpt>
      <trkpt lat="44.63874" lon="6.13978">
        <ele>1065.8</ele>
        <time>2025-06-12T09:28:48Z</time>
      </trkpt>
      <trkpt lat="44.63872" lon="6.13975">
        <ele>1066</ele>
        <time>2025-06-12T09:28:49Z</time>
      </trkpt>
      <trkpt lat="44.63869" lon="6.13972">
        <ele>1066.2</ele>
        <time>2025-06-12T09:28:50Z</time>
      </trkpt>
      <trkpt lat="44.63867" lon="6.13969">
        <ele>1066.4</ele>
        <time>2025-06-12T09:28:51Z</time>
      </trkpt>
      <trkpt lat="44.63862" lon="6.13963">
        <ele>1066.8</ele>
        <time>2025-06-12T09:28:53Z</time>
      </trkpt>
      <trkpt lat="44.63859" lon="6.1396">
        <ele>1067</ele>
        <time>2025-06-12T09:28:54Z</time>
      </trkpt>
      <trkpt lat="44.63857" lon="6.13958">
        <ele>1067.2</ele>
        <time>2025-06-12T09:28:55Z</time>
      </trkpt>
      <trkpt lat="44.63854" lon="6.13955">
        <ele>1067.4</ele>
        <time>2025-06-12T09:28:56Z</time>
      </trkpt>
      <trkpt lat="44.63852" lon="6.13951">
        <ele>1067.6</ele>
        <time>2025-06-12T09:28:57Z</time>
      </trkpt>
      <trkpt lat="44.63849" lon="6.13948">
        <ele>1067.8</ele>
        <time>2025-06-12T09:28:58Z</time>
      </trkpt>
      <trkpt lat="44.63847" lon="6.13945">
        <ele>1068</ele>
        <time>2025-06-12T09:28:59Z</time>
      </trkpt>
      <trkpt lat="44.63845" lon="6.13942">
        <ele>1068.2</ele>
        <time>2025-06-12T09:29:00Z</time>
      </trkpt>
      <trkpt lat="44.63843" lon="6.13938">
        <ele>1068.4</ele>
        <time>2025-06-12T09:29:01Z</time>
      </trkpt>
      <trkpt lat="44.63841" lon="6.13935">
        <ele>1068.6</ele>
        <time>2025-06-12T09:29:02Z</time>
      </trkpt>
      <trkpt lat="44.6384" lon="6.13931">
        <ele>1068.6</ele>
        <time>2025-06-12T09:29:03Z</time>
      </trkpt>
      <trkpt lat="44.63839" lon="6.13926">
        <ele>1068.8</ele>
        <time>2025-06-12T09:29:04Z</time>
      </trkpt>
      <trkpt lat="44.63837" lon="6.13918">
        <ele>1069</ele>
        <time>2025-06-12T09:29:06Z</time>
      </trkpt>
      <trkpt lat="44.63837" lon="6.13909">
        <ele>1069.2</ele>
        <time>2025-06-12T09:29:08Z</time>
      </trkpt>
      <trkpt lat="44.63837" lon="6.13905">
        <ele>1069.4</ele>
        <time>2025-06-12T09:29:09Z</time>
      </trkpt>
      <trkpt lat="44.63838" lon="6.13901">
        <ele>1069.6</ele>
        <time>2025-06-12T09:29:10Z</time>
      </trkpt>
      <trkpt lat="44.63838" lon="6.13896">
        <ele>1069.8</ele>
        <time>2025-06-12T09:29:11Z</time>
      </trkpt>
      <trkpt lat="44.63839" lon="6.13892">
        <ele>1070</ele>
        <time>2025-06-12T09:29:12Z</time>
      </trkpt>
      <trkpt lat="44.6384" lon="6.13888">
        <ele>1070.2</ele>
        <time>2025-06-12T09:29:13Z</time>
      </trkpt>
      <trkpt lat="44.63842" lon="6.13884">
        <ele>1070.4</ele>
        <time>2025-06-12T09:29:14Z</time>
      </trkpt>
      <trkpt lat="44.63843" lon="6.1388">
        <ele>1070.6</ele>
        <time>2025-06-12T09:29:15Z</time>
      </trkpt>
      <trkpt lat="44.63846" lon="6.13873">
        <ele>1071.2</ele>
        <time>2025-06-12T09:29:17Z</time>
      </trkpt>
      <trkpt lat="44.63848" lon="6.1387">
        <ele>1071.4</ele>
        <time>2025-06-12T09:29:18Z</time>
      </trkpt>
      <trkpt lat="44.63849" lon="6.13867">
        <ele>1071.6</ele>
        <time>2025-06-12T09:29:19Z</time>
      </trkpt>
      <trkpt lat="44.63852" lon="6.13861">
        <ele>1071.8</ele>
        <time>2025-06-12T09:29:21Z</time>
      </trkpt>
      <trkpt lat="44.63854" lon="6.13854">
        <ele>1072.4</ele>
        <time>2025-06-12T09:29:23Z</time>
      </trkpt>
      <trkpt lat="44.63854" lon="6.1385">
        <ele>1072.6</ele>
        <time>2025-06-12T09:29:24Z</time>
      </trkpt>
      <trkpt lat="44.63855" lon="6.13847">
        <ele>1072.8</ele>
        <time>2025-06-12T09:29:25Z</time>
      </trkpt>
      <trkpt lat="44.63855" lon="6.13843">
        <ele>1072.8</ele>
        <time>2025-06-12T09:29:26Z</time>
      </trkpt>
      <trkpt lat="44.63856" lon="6.13839">
        <ele>1073.2</ele>
        <time>2025-06-12T09:29:27Z</time>
      </trkpt>
      <trkpt lat="44.63856" lon="6.13835">
        <ele>1073.4</ele>
        <time>2025-06-12T09:29:28Z</time>
      </trkpt>
      <trkpt lat="44.63856" lon="6.13831">
        <ele>1073.4</ele>
        <time>2025-06-12T09:29:29Z</time>
      </trkpt>
      <trkpt lat="44.63857" lon="6.13828">
        <ele>1073.6</ele>
        <time>2025-06-12T09:29:30Z</time>
      </trkpt>
      <trkpt lat="44.63857" lon="6.13824">
        <ele>1073.8</ele>
        <time>2025-06-12T09:29:31Z</time>
      </trkpt>
      <trkpt lat="44.63857" lon="6.1382">
        <ele>1074</ele>
        <time>2025-06-12T09:29:32Z</time>
      </trkpt>
      <trkpt lat="44.63858" lon="6.13815">
        <ele>1074</ele>
        <time>2025-06-12T09:29:33Z</time>
      </trkpt>
      <trkpt lat="44.63858" lon="6.13811">
        <ele>1074.2</ele>
        <time>2025-06-12T09:29:34Z</time>
      </trkpt>
      <trkpt lat="44.6386" lon="6.13803">
        <ele>1074.6</ele>
        <time>2025-06-12T09:29:36Z</time>
      </trkpt>
      <trkpt lat="44.6386" lon="6.13795">
        <ele>1074.8</ele>
        <time>2025-06-12T09:29:38Z</time>
      </trkpt>
      <trkpt lat="44.63861" lon="6.13791">
        <ele>1074.8</ele>
        <time>2025-06-12T09:29:39Z</time>
      </trkpt>
      <trkpt lat="44.63861" lon="6.13788">
        <ele>1075</ele>
        <time>2025-06-12T09:29:40Z</time>
      </trkpt>
      <trkpt lat="44.63861" lon="6.13784">
        <ele>1075.4</ele>
        <time>2025-06-12T09:29:41Z</time>
      </trkpt>
      <trkpt lat="44.63861" lon="6.1378">
        <ele>1075.4</ele>
        <time>2025-06-12T09:29:42Z</time>
      </trkpt>
      <trkpt lat="44.63861" lon="6.13775">
        <ele>1075.6</ele>
        <time>2025-06-12T09:29:43Z</time>
      </trkpt>
      <trkpt lat="44.63862" lon="6.13771">
        <ele>1075.8</ele>
        <time>2025-06-12T09:29:44Z</time>
      </trkpt>
      <trkpt lat="44.63862" lon="6.13767">
        <ele>1076</ele>
        <time>2025-06-12T09:29:45Z</time>
      </trkpt>
      <trkpt lat="44.63863" lon="6.13762">
        <ele>1076.2</ele>
        <time>2025-06-12T09:29:46Z</time>
      </trkpt>
      <trkpt lat="44.63863" lon="6.13758">
        <ele>1076.4</ele>
        <time>2025-06-12T09:29:47Z</time>
      </trkpt>
      <trkpt lat="44.63865" lon="6.13749">
        <ele>1076.8</ele>
        <time>2025-06-12T09:29:49Z</time>
      </trkpt>
      <trkpt lat="44.63867" lon="6.13742">
        <ele>1077</ele>
        <time>2025-06-12T09:29:51Z</time>
      </trkpt>
      <trkpt lat="44.63868" lon="6.13738">
        <ele>1077</ele>
        <time>2025-06-12T09:29:52Z</time>
      </trkpt>
      <trkpt lat="44.63869" lon="6.13733">
        <ele>1077.2</ele>
        <time>2025-06-12T09:29:53Z</time>
      </trkpt>
      <trkpt lat="44.6387" lon="6.1373">
        <ele>1077.2</ele>
        <time>2025-06-12T09:29:54Z</time>
      </trkpt>
      <trkpt lat="44.63871" lon="6.13725">
        <ele>1077.4</ele>
        <time>2025-06-12T09:29:55Z</time>
      </trkpt>
      <trkpt lat="44.63872" lon="6.1372">
        <ele>1077.6</ele>
        <time>2025-06-12T09:29:56Z</time>
      </trkpt>
      <trkpt lat="44.63872" lon="6.13712">
        <ele>1078</ele>
        <time>2025-06-12T09:29:58Z</time>
      </trkpt>
      <trkpt lat="44.63873" lon="6.13708">
        <ele>1078.2</ele>
        <time>2025-06-12T09:29:59Z</time>
      </trkpt>
      <trkpt lat="44.63874" lon="6.13704">
        <ele>1078.4</ele>
        <time>2025-06-12T09:30:00Z</time>
      </trkpt>
      <trkpt lat="44.63874" lon="6.137">
        <ele>1078.4</ele>
        <time>2025-06-12T09:30:01Z</time>
      </trkpt>
      <trkpt lat="44.63875" lon="6.13696">
        <ele>1078.8</ele>
        <time>2025-06-12T09:30:02Z</time>
      </trkpt>
      <trkpt lat="44.63875" lon="6.13692">
        <ele>1078.8</ele>
        <time>2025-06-12T09:30:03Z</time>
      </trkpt>
      <trkpt lat="44.63875" lon="6.13688">
        <ele>1079.2</ele>
        <time>2025-06-12T09:30:04Z</time>
      </trkpt>
      <trkpt lat="44.63876" lon="6.13684">
        <ele>1079.2</ele>
        <time>2025-06-12T09:30:05Z</time>
      </trkpt>
      <trkpt lat="44.63876" lon="6.13675">
        <ele>1079.6</ele>
        <time>2025-06-12T09:30:07Z</time>
      </trkpt>
      <trkpt lat="44.63877" lon="6.13667">
        <ele>1080</ele>
        <time>2025-06-12T09:30:09Z</time>
      </trkpt>
      <trkpt lat="44.63877" lon="6.13663">
        <ele>1080.2</ele>
        <time>2025-06-12T09:30:10Z</time>
      </trkpt>
      <trkpt lat="44.63878" lon="6.13659">
        <ele>1080.4</ele>
        <time>2025-06-12T09:30:11Z</time>
      </trkpt>
      <trkpt lat="44.63878" lon="6.13654">
        <ele>1080.6</ele>
        <time>2025-06-12T09:30:12Z</time>
      </trkpt>
      <trkpt lat="44.63878" lon="6.1365">
        <ele>1080.8</ele>
        <time>2025-06-12T09:30:13Z</time>
      </trkpt>
      <trkpt lat="44.63878" lon="6.13646">
        <ele>1081</ele>
        <time>2025-06-12T09:30:14Z</time>
      </trkpt>
      <trkpt lat="44.63879" lon="6.13639">
        <ele>1081.2</ele>
        <time>2025-06-12T09:30:16Z</time>
      </trkpt>
      <trkpt lat="44.63879" lon="6.13635">
        <ele>1081.2</ele>
        <time>2025-06-12T09:30:17Z</time>
      </trkpt>
      <trkpt lat="44.6388" lon="6.13631">
        <ele>1081.4</ele>
        <time>2025-06-12T09:30:18Z</time>
      </trkpt>
      <trkpt lat="44.63881" lon="6.13627">
        <ele>1081.4</ele>
        <time>2025-06-12T09:30:19Z</time>
      </trkpt>
      <trkpt lat="44.63881" lon="6.13623">
        <ele>1081.6</ele>
        <time>2025-06-12T09:30:20Z</time>
      </trkpt>
      <trkpt lat="44.63881" lon="6.13618">
        <ele>1081.8</ele>
        <time>2025-06-12T09:30:21Z</time>
      </trkpt>
      <trkpt lat="44.63881" lon="6.13607">
        <ele>1082</ele>
        <time>2025-06-12T09:30:23Z</time>
      </trkpt>
      <trkpt lat="44.63881" lon="6.13598">
        <ele>1082.4</ele>
        <time>2025-06-12T09:30:25Z</time>
      </trkpt>
      <trkpt lat="44.63881" lon="6.13593">
        <ele>1082.6</ele>
        <time>2025-06-12T09:30:26Z</time>
      </trkpt>
      <trkpt lat="44.6388" lon="6.13588">
        <ele>1082.8</ele>
        <time>2025-06-12T09:30:27Z</time>
      </trkpt>
      <trkpt lat="44.63879" lon="6.13584">
        <ele>1083</ele>
        <time>2025-06-12T09:30:28Z</time>
      </trkpt>
      <trkpt lat="44.63879" lon="6.13579">
        <ele>1083.2</ele>
        <time>2025-06-12T09:30:29Z</time>
      </trkpt>
      <trkpt lat="44.63878" lon="6.13575">
        <ele>1083.2</ele>
        <time>2025-06-12T09:30:30Z</time>
      </trkpt>
      <trkpt lat="44.63877" lon="6.1357">
        <ele>1083.6</ele>
        <time>2025-06-12T09:30:31Z</time>
      </trkpt>
      <trkpt lat="44.63875" lon="6.13566">
        <ele>1083.8</ele>
        <time>2025-06-12T09:30:32Z</time>
      </trkpt>
      <trkpt lat="44.63872" lon="6.13558">
        <ele>1084</ele>
        <time>2025-06-12T09:30:34Z</time>
      </trkpt>
      <trkpt lat="44.63868" lon="6.1355">
        <ele>1084.2</ele>
        <time>2025-06-12T09:30:36Z</time>
      </trkpt>
      <trkpt lat="44.63866" lon="6.13547">
        <ele>1084.2</ele>
        <time>2025-06-12T09:30:37Z</time>
      </trkpt>
      <trkpt lat="44.63863" lon="6.13542">
        <ele>1084.2</ele>
        <time>2025-06-12T09:30:38Z</time>
      </trkpt>
      <trkpt lat="44.6386" lon="6.13538">
        <ele>1084.2</ele>
        <time>2025-06-12T09:30:39Z</time>
      </trkpt>
      <trkpt lat="44.63856" lon="6.13534">
        <ele>1084.4</ele>
        <time>2025-06-12T09:30:40Z</time>
      </trkpt>
      <trkpt lat="44.63853" lon="6.13531">
        <ele>1084.4</ele>
        <time>2025-06-12T09:30:41Z</time>
      </trkpt>
      <trkpt lat="44.63849" lon="6.13528">
        <ele>1084.6</ele>
        <time>2025-06-12T09:30:42Z</time>
      </trkpt>
      <trkpt lat="44.63846" lon="6.13526">
        <ele>1085</ele>
        <time>2025-06-12T09:30:43Z</time>
      </trkpt>
      <trkpt lat="44.63839" lon="6.13522">
        <ele>1085.2</ele>
        <time>2025-06-12T09:30:45Z</time>
      </trkpt>
      <trkpt lat="44.63832" lon="6.1352">
        <ele>1085.4</ele>
        <time>2025-06-12T09:30:47Z</time>
      </trkpt>
      <trkpt lat="44.63825" lon="6.13518">
        <ele>1085.8</ele>
        <time>2025-06-12T09:30:49Z</time>
      </trkpt>
      <trkpt lat="44.63821" lon="6.13517">
        <ele>1086</ele>
        <time>2025-06-12T09:30:50Z</time>
      </trkpt>
      <trkpt lat="44.63818" lon="6.13516">
        <ele>1086.4</ele>
        <time>2025-06-12T09:30:51Z</time>
      </trkpt>
      <trkpt lat="44.63815" lon="6.13516">
        <ele>1086.8</ele>
        <time>2025-06-12T09:30:52Z</time>
      </trkpt>
      <trkpt lat="44.63812" lon="6.13515">
        <ele>1087</ele>
        <time>2025-06-12T09:30:53Z</time>
      </trkpt>
      <trkpt lat="44.63808" lon="6.13514">
        <ele>1087.4</ele>
        <time>2025-06-12T09:30:54Z</time>
      </trkpt>
      <trkpt lat="44.63805" lon="6.13514">
        <ele>1087.6</ele>
        <time>2025-06-12T09:30:55Z</time>
      </trkpt>
      <trkpt lat="44.63802" lon="6.13513">
        <ele>1087.6</ele>
        <time>2025-06-12T09:30:56Z</time>
      </trkpt>
      <trkpt lat="44.63796" lon="6.13512">
        <ele>1087.8</ele>
        <time>2025-06-12T09:30:58Z</time>
      </trkpt>
      <trkpt lat="44.63789" lon="6.13511">
        <ele>1088.2</ele>
        <time>2025-06-12T09:31:00Z</time>
      </trkpt>
      <trkpt lat="44.63786" lon="6.1351">
        <ele>1088.4</ele>
        <time>2025-06-12T09:31:01Z</time>
      </trkpt>
      <trkpt lat="44.63783" lon="6.1351">
        <ele>1088.6</ele>
        <time>2025-06-12T09:31:02Z</time>
      </trkpt>
      <trkpt lat="44.63777" lon="6.13508">
        <ele>1089.2</ele>
        <time>2025-06-12T09:31:04Z</time>
      </trkpt>
      <trkpt lat="44.63774" lon="6.13508">
        <ele>1089.6</ele>
        <time>2025-06-12T09:31:05Z</time>
      </trkpt>
      <trkpt lat="44.63771" lon="6.13507">
        <ele>1089.8</ele>
        <time>2025-06-12T09:31:06Z</time>
      </trkpt>
      <trkpt lat="44.63768" lon="6.13507">
        <ele>1090</ele>
        <time>2025-06-12T09:31:07Z</time>
      </trkpt>
      <trkpt lat="44.63765" lon="6.13506">
        <ele>1090.2</ele>
        <time>2025-06-12T09:31:08Z</time>
      </trkpt>
      <trkpt lat="44.63762" lon="6.13506">
        <ele>1090.4</ele>
        <time>2025-06-12T09:31:09Z</time>
      </trkpt>
      <trkpt lat="44.63759" lon="6.13506">
        <ele>1090.6</ele>
        <time>2025-06-12T09:31:10Z</time>
      </trkpt>
      <trkpt lat="44.63756" lon="6.13506">
        <ele>1090.8</ele>
        <time>2025-06-12T09:31:11Z</time>
      </trkpt>
      <trkpt lat="44.63753" lon="6.13505">
        <ele>1091</ele>
        <time>2025-06-12T09:31:12Z</time>
      </trkpt>
      <trkpt lat="44.6375" lon="6.13505">
        <ele>1091.2</ele>
        <time>2025-06-12T09:31:13Z</time>
      </trkpt>
      <trkpt lat="44.63747" lon="6.13504">
        <ele>1091.4</ele>
        <time>2025-06-12T09:31:14Z</time>
      </trkpt>
      <trkpt lat="44.63744" lon="6.13504">
        <ele>1091.6</ele>
        <time>2025-06-12T09:31:15Z</time>
      </trkpt>
      <trkpt lat="44.63741" lon="6.13504">
        <ele>1091.8</ele>
        <time>2025-06-12T09:31:16Z</time>
      </trkpt>
      <trkpt lat="44.63738" lon="6.13503">
        <ele>1092.2</ele>
        <time>2025-06-12T09:31:17Z</time>
      </trkpt>
      <trkpt lat="44.63735" lon="6.13503">
        <ele>1092.2</ele>
        <time>2025-06-12T09:31:18Z</time>
      </trkpt>
      <trkpt lat="44.63732" lon="6.13503">
        <ele>1092.4</ele>
        <time>2025-06-12T09:31:19Z</time>
      </trkpt>
      <trkpt lat="44.63729" lon="6.13503">
        <ele>1092.8</ele>
        <time>2025-06-12T09:31:20Z</time>
      </trkpt>
      <trkpt lat="44.63726" lon="6.13503">
        <ele>1093</ele>
        <time>2025-06-12T09:31:21Z</time>
      </trkpt>
      <trkpt lat="44.6372" lon="6.13503">
        <ele>1093.4</ele>
        <time>2025-06-12T09:31:23Z</time>
      </trkpt>
      <trkpt lat="44.63714" lon="6.13503">
        <ele>1093.6</ele>
        <time>2025-06-12T09:31:25Z</time>
      </trkpt>
      <trkpt lat="44.63711" lon="6.13504">
        <ele>1093.8</ele>
        <time>2025-06-12T09:31:26Z</time>
      </trkpt>
      <trkpt lat="44.63708" lon="6.13504">
        <ele>1094.2</ele>
        <time>2025-06-12T09:31:27Z</time>
      </trkpt>
      <trkpt lat="44.63705" lon="6.13504">
        <ele>1094.4</ele>
        <time>2025-06-12T09:31:28Z</time>
      </trkpt>
      <trkpt lat="44.63702" lon="6.13505">
        <ele>1094.6</ele>
        <time>2025-06-12T09:31:29Z</time>
      </trkpt>
      <trkpt lat="44.63699" lon="6.13505">
        <ele>1094.8</ele>
        <time>2025-06-12T09:31:30Z</time>
      </trkpt>
      <trkpt lat="44.63696" lon="6.13505">
        <ele>1095</ele>
        <time>2025-06-12T09:31:31Z</time>
      </trkpt>
      <trkpt lat="44.63693" lon="6.13506">
        <ele>1095.4</ele>
        <time>2025-06-12T09:31:32Z</time>
      </trkpt>
      <trkpt lat="44.6369" lon="6.13507">
        <ele>1095.6</ele>
        <time>2025-06-12T09:31:33Z</time>
      </trkpt>
      <trkpt lat="44.63687" lon="6.13507">
        <ele>1096</ele>
        <time>2025-06-12T09:31:34Z</time>
      </trkpt>
      <trkpt lat="44.63683" lon="6.13508">
        <ele>1096.4</ele>
        <time>2025-06-12T09:31:35Z</time>
      </trkpt>
      <trkpt lat="44.6368" lon="6.13509">
        <ele>1096.8</ele>
        <time>2025-06-12T09:31:36Z</time>
      </trkpt>
      <trkpt lat="44.63677" lon="6.13509">
        <ele>1097.2</ele>
        <time>2025-06-12T09:31:37Z</time>
      </trkpt>
      <trkpt lat="44.63674" lon="6.1351">
        <ele>1097.4</ele>
        <time>2025-06-12T09:31:38Z</time>
      </trkpt>
      <trkpt lat="44.63668" lon="6.13511">
        <ele>1097.6</ele>
        <time>2025-06-12T09:31:40Z</time>
      </trkpt>
      <trkpt lat="44.63662" lon="6.13513">
        <ele>1097.8</ele>
        <time>2025-06-12T09:31:42Z</time>
      </trkpt>
      <trkpt lat="44.63659" lon="6.13513">
        <ele>1098</ele>
        <time>2025-06-12T09:31:43Z</time>
      </trkpt>
      <trkpt lat="44.63656" lon="6.13514">
        <ele>1098.2</ele>
        <time>2025-06-12T09:31:44Z</time>
      </trkpt>
      <trkpt lat="44.63653" lon="6.13514">
        <ele>1098.4</ele>
        <time>2025-06-12T09:31:45Z</time>
      </trkpt>
      <trkpt lat="44.6365" lon="6.13514">
        <ele>1098.8</ele>
        <time>2025-06-12T09:31:46Z</time>
      </trkpt>
      <trkpt lat="44.63648" lon="6.13515">
        <ele>1099</ele>
        <time>2025-06-12T09:31:47Z</time>
      </trkpt>
      <trkpt lat="44.63645" lon="6.13515">
        <ele>1099.2</ele>
        <time>2025-06-12T09:31:48Z</time>
      </trkpt>
      <trkpt lat="44.63642" lon="6.13516">
        <ele>1099.4</ele>
        <time>2025-06-12T09:31:49Z</time>
      </trkpt>
      <trkpt lat="44.63639" lon="6.13517">
        <ele>1099.6</ele>
        <time>2025-06-12T09:31:50Z</time>
      </trkpt>
      <trkpt lat="44.63636" lon="6.13518">
        <ele>1099.8</ele>
        <time>2025-06-12T09:31:51Z</time>
      </trkpt>
      <trkpt lat="44.6363" lon="6.13519">
        <ele>1100</ele>
        <time>2025-06-12T09:31:53Z</time>
      </trkpt>
      <trkpt lat="44.63625" lon="6.1352">
        <ele>1100.4</ele>
        <time>2025-06-12T09:31:55Z</time>
      </trkpt>
      <trkpt lat="44.63619" lon="6.13521">
        <ele>1100.8</ele>
        <time>2025-06-12T09:31:57Z</time>
      </trkpt>
      <trkpt lat="44.63614" lon="6.13522">
        <ele>1101</ele>
        <time>2025-06-12T09:31:59Z</time>
      </trkpt>
      <trkpt lat="44.63611" lon="6.13523">
        <ele>1101.6</ele>
        <time>2025-06-12T09:32:00Z</time>
      </trkpt>
      <trkpt lat="44.63608" lon="6.13523">
        <ele>1102</ele>
        <time>2025-06-12T09:32:01Z</time>
      </trkpt>
      <trkpt lat="44.63606" lon="6.13523">
        <ele>1102.2</ele>
        <time>2025-06-12T09:32:02Z</time>
      </trkpt>
      <trkpt lat="44.63603" lon="6.13523">
        <ele>1102.4</ele>
        <time>2025-06-12T09:32:03Z</time>
      </trkpt>
      <trkpt lat="44.636" lon="6.13523">
        <ele>1102.6</ele>
        <time>2025-06-12T09:32:04Z</time>
      </trkpt>
      <trkpt lat="44.63598" lon="6.13521">
        <ele>1102.6</ele>
        <time>2025-06-12T09:32:05Z</time>
      </trkpt>
      <trkpt lat="44.63595" lon="6.1352">
        <ele>1102.6</ele>
        <time>2025-06-12T09:32:06Z</time>
      </trkpt>
      <trkpt lat="44.63593" lon="6.13518">
        <ele>1102.6</ele>
        <time>2025-06-12T09:32:07Z</time>
      </trkpt>
      <trkpt lat="44.6359" lon="6.13516">
        <ele>1102.6</ele>
        <time>2025-06-12T09:32:08Z</time>
      </trkpt>
      <trkpt lat="44.63587" lon="6.13511">
        <ele>1102.8</ele>
        <time>2025-06-12T09:32:10Z</time>
      </trkpt>
      <trkpt lat="44.63585" lon="6.13507">
        <ele>1103</ele>
        <time>2025-06-12T09:32:11Z</time>
      </trkpt>
      <trkpt lat="44.63583" lon="6.13504">
        <ele>1103.2</ele>
        <time>2025-06-12T09:32:12Z</time>
      </trkpt>
      <trkpt lat="44.63582" lon="6.13496">
        <ele>1103.8</ele>
        <time>2025-06-12T09:32:14Z</time>
      </trkpt>
      <trkpt lat="44.63581" lon="6.13488">
        <ele>1104</ele>
        <time>2025-06-12T09:32:16Z</time>
      </trkpt>
      <trkpt lat="44.63581" lon="6.13484">
        <ele>1104.2</ele>
        <time>2025-06-12T09:32:17Z</time>
      </trkpt>
      <trkpt lat="44.63582" lon="6.1348">
        <ele>1104.4</ele>
        <time>2025-06-12T09:32:18Z</time>
      </trkpt>
      <trkpt lat="44.63583" lon="6.13476">
        <ele>1104.6</ele>
        <time>2025-06-12T09:32:19Z</time>
      </trkpt>
      <trkpt lat="44.63583" lon="6.13473">
        <ele>1104.6</ele>
        <time>2025-06-12T09:32:20Z</time>
      </trkpt>
      <trkpt lat="44.63585" lon="6.13469">
        <ele>1104.8</ele>
        <time>2025-06-12T09:32:21Z</time>
      </trkpt>
      <trkpt lat="44.63586" lon="6.13466">
        <ele>1105.2</ele>
        <time>2025-06-12T09:32:22Z</time>
      </trkpt>
      <trkpt lat="44.63588" lon="6.13463">
        <ele>1105.2</ele>
        <time>2025-06-12T09:32:23Z</time>
      </trkpt>
      <trkpt lat="44.6359" lon="6.1346">
        <ele>1105.4</ele>
        <time>2025-06-12T09:32:24Z</time>
      </trkpt>
      <trkpt lat="44.63592" lon="6.13457">
        <ele>1105.6</ele>
        <time>2025-06-12T09:32:25Z</time>
      </trkpt>
      <trkpt lat="44.63593" lon="6.13454">
        <ele>1105.8</ele>
        <time>2025-06-12T09:32:26Z</time>
      </trkpt>
      <trkpt lat="44.63595" lon="6.13451">
        <ele>1105.8</ele>
        <time>2025-06-12T09:32:27Z</time>
      </trkpt>
      <trkpt lat="44.63597" lon="6.13448">
        <ele>1106.2</ele>
        <time>2025-06-12T09:32:28Z</time>
      </trkpt>
      <trkpt lat="44.63599" lon="6.13445">
        <ele>1106.2</ele>
        <time>2025-06-12T09:32:29Z</time>
      </trkpt>
      <trkpt lat="44.636" lon="6.13441">
        <ele>1106.6</ele>
        <time>2025-06-12T09:32:30Z</time>
      </trkpt>
      <trkpt lat="44.63602" lon="6.13438">
        <ele>1106.8</ele>
        <time>2025-06-12T09:32:31Z</time>
      </trkpt>
      <trkpt lat="44.63604" lon="6.13431">
        <ele>1107</ele>
        <time>2025-06-12T09:32:33Z</time>
      </trkpt>
      <trkpt lat="44.63605" lon="6.13427">
        <ele>1107</ele>
        <time>2025-06-12T09:32:34Z</time>
      </trkpt>
      <trkpt lat="44.63605" lon="6.13423">
        <ele>1107.2</ele>
        <time>2025-06-12T09:32:35Z</time>
      </trkpt>
      <trkpt lat="44.63606" lon="6.1342">
        <ele>1107.2</ele>
        <time>2025-06-12T09:32:36Z</time>
      </trkpt>
      <trkpt lat="44.63606" lon="6.13416">
        <ele>1107.4</ele>
        <time>2025-06-12T09:32:37Z</time>
      </trkpt>
      <trkpt lat="44.63606" lon="6.13412">
        <ele>1107.6</ele>
        <time>2025-06-12T09:32:38Z</time>
      </trkpt>
      <trkpt lat="44.63606" lon="6.13408">
        <ele>1107.6</ele>
        <time>2025-06-12T09:32:39Z</time>
      </trkpt>
      <trkpt lat="44.63605" lon="6.13404">
        <ele>1107.6</ele>
        <time>2025-06-12T09:32:40Z</time>
      </trkpt>
      <trkpt lat="44.63605" lon="6.13401">
        <ele>1107.8</ele>
        <time>2025-06-12T09:32:41Z</time>
      </trkpt>
      <trkpt lat="44.63604" lon="6.13397">
        <ele>1107.8</ele>
        <time>2025-06-12T09:32:42Z</time>
      </trkpt>
      <trkpt lat="44.63602" lon="6.1339">
        <ele>1107.8</ele>
        <time>2025-06-12T09:32:44Z</time>
      </trkpt>
      <trkpt lat="44.636" lon="6.13383">
        <ele>1108</ele>
        <time>2025-06-12T09:32:46Z</time>
      </trkpt>
      <trkpt lat="44.63596" lon="6.13377">
        <ele>1108.2</ele>
        <time>2025-06-12T09:32:48Z</time>
      </trkpt>
      <trkpt lat="44.63595" lon="6.13374">
        <ele>1108.2</ele>
        <time>2025-06-12T09:32:49Z</time>
      </trkpt>
      <trkpt lat="44.63593" lon="6.13372">
        <ele>1108.4</ele>
        <time>2025-06-12T09:32:50Z</time>
      </trkpt>
      <trkpt lat="44.63591" lon="6.13369">
        <ele>1108.6</ele>
        <time>2025-06-12T09:32:51Z</time>
      </trkpt>
      <trkpt lat="44.63589" lon="6.13367">
        <ele>1108.6</ele>
        <time>2025-06-12T09:32:52Z</time>
      </trkpt>
      <trkpt lat="44.63587" lon="6.13364">
        <ele>1108.8</ele>
        <time>2025-06-12T09:32:53Z</time>
      </trkpt>
      <trkpt lat="44.63582" lon="6.13361">
        <ele>1109.2</ele>
        <time>2025-06-12T09:32:55Z</time>
      </trkpt>
      <trkpt lat="44.63579" lon="6.13359">
        <ele>1109.2</ele>
        <time>2025-06-12T09:32:56Z</time>
      </trkpt>
      <trkpt lat="44.63576" lon="6.13358">
        <ele>1109.4</ele>
        <time>2025-06-12T09:32:57Z</time>
      </trkpt>
      <trkpt lat="44.63573" lon="6.13357">
        <ele>1109.6</ele>
        <time>2025-06-12T09:32:58Z</time>
      </trkpt>
      <trkpt lat="44.6357" lon="6.13356">
        <ele>1109.6</ele>
        <time>2025-06-12T09:32:59Z</time>
      </trkpt>
      <trkpt lat="44.63568" lon="6.13356">
        <ele>1109.8</ele>
        <time>2025-06-12T09:33:00Z</time>
      </trkpt>
      <trkpt lat="44.63565" lon="6.13356">
        <ele>1110</ele>
        <time>2025-06-12T09:33:01Z</time>
      </trkpt>
      <trkpt lat="44.63562" lon="6.13356">
        <ele>1110.2</ele>
        <time>2025-06-12T09:33:02Z</time>
      </trkpt>
      <trkpt lat="44.63559" lon="6.13357">
        <ele>1110.4</ele>
        <time>2025-06-12T09:33:03Z</time>
      </trkpt>
      <trkpt lat="44.63556" lon="6.13358">
        <ele>1110.4</ele>
        <time>2025-06-12T09:33:04Z</time>
      </trkpt>
      <trkpt lat="44.63553" lon="6.13359">
        <ele>1110.6</ele>
        <time>2025-06-12T09:33:05Z</time>
      </trkpt>
      <trkpt lat="44.63551" lon="6.1336">
        <ele>1110.6</ele>
        <time>2025-06-12T09:33:06Z</time>
      </trkpt>
      <trkpt lat="44.63548" lon="6.13362">
        <ele>1110.6</ele>
        <time>2025-06-12T09:33:07Z</time>
      </trkpt>
      <trkpt lat="44.63545" lon="6.13364">
        <ele>1110.6</ele>
        <time>2025-06-12T09:33:08Z</time>
      </trkpt>
      <trkpt lat="44.63543" lon="6.13366">
        <ele>1110.8</ele>
        <time>2025-06-12T09:33:09Z</time>
      </trkpt>
      <trkpt lat="44.63541" lon="6.13368">
        <ele>1110.8</ele>
        <time>2025-06-12T09:33:10Z</time>
      </trkpt>
      <trkpt lat="44.63538" lon="6.13371">
        <ele>1111</ele>
        <time>2025-06-12T09:33:11Z</time>
      </trkpt>
      <trkpt lat="44.63536" lon="6.13373">
        <ele>1111</ele>
        <time>2025-06-12T09:33:12Z</time>
      </trkpt>
      <trkpt lat="44.63532" lon="6.13378">
        <ele>1111.2</ele>
        <time>2025-06-12T09:33:14Z</time>
      </trkpt>
      <trkpt lat="44.6353" lon="6.13386">
        <ele>1111.6</ele>
        <time>2025-06-12T09:33:16Z</time>
      </trkpt>
      <trkpt lat="44.63528" lon="6.13394">
        <ele>1111.8</ele>
        <time>2025-06-12T09:33:18Z</time>
      </trkpt>
      <trkpt lat="44.63527" lon="6.13402">
        <ele>1112.2</ele>
        <time>2025-06-12T09:33:20Z</time>
      </trkpt>
      <trkpt lat="44.63526" lon="6.1341">
        <ele>1112.4</ele>
        <time>2025-06-12T09:33:22Z</time>
      </trkpt>
      <trkpt lat="44.63526" lon="6.13414">
        <ele>1112.6</ele>
        <time>2025-06-12T09:33:23Z</time>
      </trkpt>
      <trkpt lat="44.63526" lon="6.13418">
        <ele>1112.8</ele>
        <time>2025-06-12T09:33:24Z</time>
      </trkpt>
      <trkpt lat="44.63526" lon="6.13426">
        <ele>1113</ele>
        <time>2025-06-12T09:33:26Z</time>
      </trkpt>
      <trkpt lat="44.63526" lon="6.13434">
        <ele>1113.2</ele>
        <time>2025-06-12T09:33:28Z</time>
      </trkpt>
      <trkpt lat="44.63526" lon="6.13438">
        <ele>1113.4</ele>
        <time>2025-06-12T09:33:29Z</time>
      </trkpt>
      <trkpt lat="44.63527" lon="6.13442">
        <ele>1113.4</ele>
        <time>2025-06-12T09:33:30Z</time>
      </trkpt>
      <trkpt lat="44.63527" lon="6.13446">
        <ele>1113.6</ele>
        <time>2025-06-12T09:33:31Z</time>
      </trkpt>
      <trkpt lat="44.63526" lon="6.1345">
        <ele>1113.6</ele>
        <time>2025-06-12T09:33:32Z</time>
      </trkpt>
      <trkpt lat="44.63526" lon="6.13453">
        <ele>1113.8</ele>
        <time>2025-06-12T09:33:33Z</time>
      </trkpt>
      <trkpt lat="44.63526" lon="6.13457">
        <ele>1113.8</ele>
        <time>2025-06-12T09:33:34Z</time>
      </trkpt>
      <trkpt lat="44.63526" lon="6.13461">
        <ele>1114</ele>
        <time>2025-06-12T09:33:35Z</time>
      </trkpt>
      <trkpt lat="44.63526" lon="6.13465">
        <ele>1114.2</ele>
        <time>2025-06-12T09:33:36Z</time>
      </trkpt>
      <trkpt lat="44.63526" lon="6.13469">
        <ele>1114.2</ele>
        <time>2025-06-12T09:33:37Z</time>
      </trkpt>
      <trkpt lat="44.63525" lon="6.13473">
        <ele>1114.4</ele>
        <time>2025-06-12T09:33:38Z</time>
      </trkpt>
      <trkpt lat="44.63524" lon="6.13477">
        <ele>1114.6</ele>
        <time>2025-06-12T09:33:39Z</time>
      </trkpt>
      <trkpt lat="44.63524" lon="6.13481">
        <ele>1114.8</ele>
        <time>2025-06-12T09:33:40Z</time>
      </trkpt>
      <trkpt lat="44.63523" lon="6.13485">
        <ele>1114.8</ele>
        <time>2025-06-12T09:33:41Z</time>
      </trkpt>
      <trkpt lat="44.63523" lon="6.13489">
        <ele>1114.8</ele>
        <time>2025-06-12T09:33:42Z</time>
      </trkpt>
      <trkpt lat="44.63522" lon="6.13494">
        <ele>1115</ele>
        <time>2025-06-12T09:33:43Z</time>
      </trkpt>
      <trkpt lat="44.63521" lon="6.13498">
        <ele>1115.2</ele>
        <time>2025-06-12T09:33:44Z</time>
      </trkpt>
      <trkpt lat="44.63521" lon="6.13502">
        <ele>1115.4</ele>
        <time>2025-06-12T09:33:45Z</time>
      </trkpt>
      <trkpt lat="44.6352" lon="6.13506">
        <ele>1115.6</ele>
        <time>2025-06-12T09:33:46Z</time>
      </trkpt>
      <trkpt lat="44.63519" lon="6.1351">
        <ele>1115.8</ele>
        <time>2025-06-12T09:33:47Z</time>
      </trkpt>
      <trkpt lat="44.63519" lon="6.13514">
        <ele>1116</ele>
        <time>2025-06-12T09:33:48Z</time>
      </trkpt>
      <trkpt lat="44.63518" lon="6.13518">
        <ele>1116.4</ele>
        <time>2025-06-12T09:33:49Z</time>
      </trkpt>
      <trkpt lat="44.63517" lon="6.13522">
        <ele>1116.4</ele>
        <time>2025-06-12T09:33:50Z</time>
      </trkpt>
      <trkpt lat="44.63517" lon="6.13526">
        <ele>1116.8</ele>
        <time>2025-06-12T09:33:51Z</time>
      </trkpt>
      <trkpt lat="44.63516" lon="6.1353">
        <ele>1117</ele>
        <time>2025-06-12T09:33:52Z</time>
      </trkpt>
      <trkpt lat="44.63515" lon="6.13534">
        <ele>1117.2</ele>
        <time>2025-06-12T09:33:53Z</time>
      </trkpt>
      <trkpt lat="44.63515" lon="6.13538">
        <ele>1117.4</ele>
        <time>2025-06-12T09:33:54Z</time>
      </trkpt>
      <trkpt lat="44.63514" lon="6.13542">
        <ele>1117.6</ele>
        <time>2025-06-12T09:33:55Z</time>
      </trkpt>
      <trkpt lat="44.63513" lon="6.13546">
        <ele>1117.6</ele>
        <time>2025-06-12T09:33:56Z</time>
      </trkpt>
      <trkpt lat="44.63513" lon="6.1355">
        <ele>1117.8</ele>
        <time>2025-06-12T09:33:57Z</time>
      </trkpt>
      <trkpt lat="44.63512" lon="6.13553">
        <ele>1118</ele>
        <time>2025-06-12T09:33:58Z</time>
      </trkpt>
      <trkpt lat="44.63511" lon="6.13557">
        <ele>1118.2</ele>
        <time>2025-06-12T09:33:59Z</time>
      </trkpt>
      <trkpt lat="44.63511" lon="6.13561">
        <ele>1118.4</ele>
        <time>2025-06-12T09:34:00Z</time>
      </trkpt>
      <trkpt lat="44.6351" lon="6.13565">
        <ele>1118.6</ele>
        <time>2025-06-12T09:34:01Z</time>
      </trkpt>
      <trkpt lat="44.63509" lon="6.13569">
        <ele>1118.8</ele>
        <time>2025-06-12T09:34:02Z</time>
      </trkpt>
      <trkpt lat="44.63509" lon="6.13573">
        <ele>1119</ele>
        <time>2025-06-12T09:34:03Z</time>
      </trkpt>
      <trkpt lat="44.63508" lon="6.13576">
        <ele>1119</ele>
        <time>2025-06-12T09:34:04Z</time>
      </trkpt>
      <trkpt lat="44.63508" lon="6.1358">
        <ele>1119.2</ele>
        <time>2025-06-12T09:34:05Z</time>
      </trkpt>
      <trkpt lat="44.63507" lon="6.13584">
        <ele>1119.4</ele>
        <time>2025-06-12T09:34:06Z</time>
      </trkpt>
      <trkpt lat="44.63506" lon="6.13588">
        <ele>1119.6</ele>
        <time>2025-06-12T09:34:07Z</time>
      </trkpt>
      <trkpt lat="44.63505" lon="6.13592">
        <ele>1119.8</ele>
        <time>2025-06-12T09:34:08Z</time>
      </trkpt>
      <trkpt lat="44.63505" lon="6.13595">
        <ele>1120</ele>
        <time>2025-06-12T09:34:09Z</time>
      </trkpt>
      <trkpt lat="44.63504" lon="6.13599">
        <ele>1120</ele>
        <time>2025-06-12T09:34:10Z</time>
      </trkpt>
      <trkpt lat="44.63503" lon="6.13603">
        <ele>1120.2</ele>
        <time>2025-06-12T09:34:11Z</time>
      </trkpt>
      <trkpt lat="44.63502" lon="6.13606">
        <ele>1120.2</ele>
        <time>2025-06-12T09:34:12Z</time>
      </trkpt>
      <trkpt lat="44.63501" lon="6.13609">
        <ele>1120.2</ele>
        <time>2025-06-12T09:34:13Z</time>
      </trkpt>
      <trkpt lat="44.63499" lon="6.13613">
        <ele>1120.4</ele>
        <time>2025-06-12T09:34:14Z</time>
      </trkpt>
      <trkpt lat="44.63498" lon="6.13616">
        <ele>1120.6</ele>
        <time>2025-06-12T09:34:15Z</time>
      </trkpt>
      <trkpt lat="44.63497" lon="6.1362">
        <ele>1120.8</ele>
        <time>2025-06-12T09:34:16Z</time>
      </trkpt>
      <trkpt lat="44.63496" lon="6.13623">
        <ele>1121</ele>
        <time>2025-06-12T09:34:17Z</time>
      </trkpt>
      <trkpt lat="44.63494" lon="6.13626">
        <ele>1121.2</ele>
        <time>2025-06-12T09:34:18Z</time>
      </trkpt>
      <trkpt lat="44.63492" lon="6.13629">
        <ele>1121.4</ele>
        <time>2025-06-12T09:34:19Z</time>
      </trkpt>
      <trkpt lat="44.63489" lon="6.13635">
        <ele>1121.6</ele>
        <time>2025-06-12T09:34:21Z</time>
      </trkpt>
      <trkpt lat="44.63485" lon="6.13641">
        <ele>1121.8</ele>
        <time>2025-06-12T09:34:23Z</time>
      </trkpt>
      <trkpt lat="44.63483" lon="6.13643">
        <ele>1122</ele>
        <time>2025-06-12T09:34:24Z</time>
      </trkpt>
      <trkpt lat="44.63481" lon="6.13646">
        <ele>1122</ele>
        <time>2025-06-12T09:34:25Z</time>
      </trkpt>
      <trkpt lat="44.63477" lon="6.13651">
        <ele>1122.2</ele>
        <time>2025-06-12T09:34:27Z</time>
      </trkpt>
      <trkpt lat="44.63475" lon="6.13653">
        <ele>1122.4</ele>
        <time>2025-06-12T09:34:28Z</time>
      </trkpt>
      <trkpt lat="44.63472" lon="6.13656">
        <ele>1122.6</ele>
        <time>2025-06-12T09:34:29Z</time>
      </trkpt>
      <trkpt lat="44.6347" lon="6.13658">
        <ele>1122.6</ele>
        <time>2025-06-12T09:34:30Z</time>
      </trkpt>
      <trkpt lat="44.63468" lon="6.1366">
        <ele>1122.8</ele>
        <time>2025-06-12T09:34:31Z</time>
      </trkpt>
      <trkpt lat="44.63465" lon="6.13662">
        <ele>1123</ele>
        <time>2025-06-12T09:34:32Z</time>
      </trkpt>
      <trkpt lat="44.63463" lon="6.13664">
        <ele>1123.4</ele>
        <time>2025-06-12T09:34:33Z</time>
      </trkpt>
      <trkpt lat="44.6346" lon="6.13665">
        <ele>1123.6</ele>
        <time>2025-06-12T09:34:34Z</time>
      </trkpt>
      <trkpt lat="44.63458" lon="6.13667">
        <ele>1124</ele>
        <time>2025-06-12T09:34:35Z</time>
      </trkpt>
      <trkpt lat="44.63455" lon="6.13668">
        <ele>1124.4</ele>
        <time>2025-06-12T09:34:36Z</time>
      </trkpt>
      <trkpt lat="44.63452" lon="6.13669">
        <ele>1124.4</ele>
        <time>2025-06-12T09:34:37Z</time>
      </trkpt>
      <trkpt lat="44.6345" lon="6.1367">
        <ele>1124.8</ele>
        <time>2025-06-12T09:34:38Z</time>
      </trkpt>
      <trkpt lat="44.63447" lon="6.13671">
        <ele>1125.2</ele>
        <time>2025-06-12T09:34:39Z</time>
      </trkpt>
      <trkpt lat="44.63444" lon="6.13672">
        <ele>1125.4</ele>
        <time>2025-06-12T09:34:40Z</time>
      </trkpt>
      <trkpt lat="44.63442" lon="6.13673">
        <ele>1125.6</ele>
        <time>2025-06-12T09:34:41Z</time>
      </trkpt>
      <trkpt lat="44.63439" lon="6.13673">
        <ele>1125.8</ele>
        <time>2025-06-12T09:34:42Z</time>
      </trkpt>
      <trkpt lat="44.63436" lon="6.13674">
        <ele>1126</ele>
        <time>2025-06-12T09:34:43Z</time>
      </trkpt>
      <trkpt lat="44.63433" lon="6.13674">
        <ele>1126.2</ele>
        <time>2025-06-12T09:34:44Z</time>
      </trkpt>
      <trkpt lat="44.63428" lon="6.13674">
        <ele>1126.4</ele>
        <time>2025-06-12T09:34:46Z</time>
      </trkpt>
      <trkpt lat="44.63425" lon="6.13674">
        <ele>1126.4</ele>
        <time>2025-06-12T09:34:47Z</time>
      </trkpt>
      <trkpt lat="44.63422" lon="6.13673">
        <ele>1126.6</ele>
        <time>2025-06-12T09:34:48Z</time>
      </trkpt>
      <trkpt lat="44.63416" lon="6.13672">
        <ele>1127.2</ele>
        <time>2025-06-12T09:34:50Z</time>
      </trkpt>
      <trkpt lat="44.63411" lon="6.13671">
        <ele>1127.6</ele>
        <time>2025-06-12T09:34:52Z</time>
      </trkpt>
      <trkpt lat="44.63405" lon="6.1367">
        <ele>1128.2</ele>
        <time>2025-06-12T09:34:54Z</time>
      </trkpt>
      <trkpt lat="44.634" lon="6.13667">
        <ele>1128.6</ele>
        <time>2025-06-12T09:34:56Z</time>
      </trkpt>
      <trkpt lat="44.63397" lon="6.13666">
        <ele>1128.8</ele>
        <time>2025-06-12T09:34:57Z</time>
      </trkpt>
      <trkpt lat="44.63395" lon="6.13665">
        <ele>1129</ele>
        <time>2025-06-12T09:34:58Z</time>
      </trkpt>
      <trkpt lat="44.6339" lon="6.13662">
        <ele>1129.2</ele>
        <time>2025-06-12T09:35:00Z</time>
      </trkpt>
      <trkpt lat="44.63384" lon="6.1366">
        <ele>1129.2</ele>
        <time>2025-06-12T09:35:02Z</time>
      </trkpt>
      <trkpt lat="44.63379" lon="6.13658">
        <ele>1129.8</ele>
        <time>2025-06-12T09:35:04Z</time>
      </trkpt>
      <trkpt lat="44.63377" lon="6.13657">
        <ele>1130</ele>
        <time>2025-06-12T09:35:05Z</time>
      </trkpt>
      <trkpt lat="44.63374" lon="6.13656">
        <ele>1130.2</ele>
        <time>2025-06-12T09:35:06Z</time>
      </trkpt>
      <trkpt lat="44.63371" lon="6.13655">
        <ele>1130.4</ele>
        <time>2025-06-12T09:35:07Z</time>
      </trkpt>
      <trkpt lat="44.63369" lon="6.13654">
        <ele>1130.4</ele>
        <time>2025-06-12T09:35:08Z</time>
      </trkpt>
      <trkpt lat="44.63366" lon="6.13653">
        <ele>1130.8</ele>
        <time>2025-06-12T09:35:09Z</time>
      </trkpt>
      <trkpt lat="44.63364" lon="6.13651">
        <ele>1131</ele>
        <time>2025-06-12T09:35:10Z</time>
      </trkpt>
      <trkpt lat="44.63361" lon="6.1365">
        <ele>1131.2</ele>
        <time>2025-06-12T09:35:11Z</time>
      </trkpt>
      <trkpt lat="44.63356" lon="6.13648">
        <ele>1131.6</ele>
        <time>2025-06-12T09:35:13Z</time>
      </trkpt>
      <trkpt lat="44.63354" lon="6.13647">
        <ele>1131.8</ele>
        <time>2025-06-12T09:35:14Z</time>
      </trkpt>
      <trkpt lat="44.63351" lon="6.13646">
        <ele>1132</ele>
        <time>2025-06-12T09:35:15Z</time>
      </trkpt>
      <trkpt lat="44.63349" lon="6.13645">
        <ele>1132.2</ele>
        <time>2025-06-12T09:35:16Z</time>
      </trkpt>
      <trkpt lat="44.63346" lon="6.13643">
        <ele>1132.4</ele>
        <time>2025-06-12T09:35:17Z</time>
      </trkpt>
      <trkpt lat="44.63344" lon="6.13642">
        <ele>1132.6</ele>
        <time>2025-06-12T09:35:18Z</time>
      </trkpt>
      <trkpt lat="44.63341" lon="6.13641">
        <ele>1132.8</ele>
        <time>2025-06-12T09:35:19Z</time>
      </trkpt>
      <trkpt lat="44.63339" lon="6.13639">
        <ele>1133.2</ele>
        <time>2025-06-12T09:35:20Z</time>
      </trkpt>
      <trkpt lat="44.63336" lon="6.13638">
        <ele>1133.4</ele>
        <time>2025-06-12T09:35:21Z</time>
      </trkpt>
      <trkpt lat="44.63333" lon="6.13637">
        <ele>1133.6</ele>
        <time>2025-06-12T09:35:22Z</time>
      </trkpt>
      <trkpt lat="44.63329" lon="6.13633">
        <ele>1134</ele>
        <time>2025-06-12T09:35:24Z</time>
      </trkpt>
      <trkpt lat="44.63326" lon="6.13631">
        <ele>1134.4</ele>
        <time>2025-06-12T09:35:25Z</time>
      </trkpt>
      <trkpt lat="44.63324" lon="6.1363">
        <ele>1134.4</ele>
        <time>2025-06-12T09:35:26Z</time>
      </trkpt>
      <trkpt lat="44.63321" lon="6.13628">
        <ele>1134.6</ele>
        <time>2025-06-12T09:35:27Z</time>
      </trkpt>
      <trkpt lat="44.63318" lon="6.13627">
        <ele>1134.6</ele>
        <time>2025-06-12T09:35:28Z</time>
      </trkpt>
      <trkpt lat="44.63316" lon="6.13626">
        <ele>1134.8</ele>
        <time>2025-06-12T09:35:29Z</time>
      </trkpt>
      <trkpt lat="44.63313" lon="6.13624">
        <ele>1135</ele>
        <time>2025-06-12T09:35:30Z</time>
      </trkpt>
      <trkpt lat="44.63311" lon="6.13622">
        <ele>1135</ele>
        <time>2025-06-12T09:35:31Z</time>
      </trkpt>
      <trkpt lat="44.63309" lon="6.1362">
        <ele>1135.2</ele>
        <time>2025-06-12T09:35:32Z</time>
      </trkpt>
      <trkpt lat="44.63306" lon="6.13618">
        <ele>1135.4</ele>
        <time>2025-06-12T09:35:33Z</time>
      </trkpt>
      <trkpt lat="44.63302" lon="6.13613">
        <ele>1135.8</ele>
        <time>2025-06-12T09:35:35Z</time>
      </trkpt>
      <trkpt lat="44.63301" lon="6.1361">
        <ele>1135.8</ele>
        <time>2025-06-12T09:35:36Z</time>
      </trkpt>
      <trkpt lat="44.63299" lon="6.13607">
        <ele>1136</ele>
        <time>2025-06-12T09:35:37Z</time>
      </trkpt>
      <trkpt lat="44.63297" lon="6.13604">
        <ele>1136.2</ele>
        <time>2025-06-12T09:35:38Z</time>
      </trkpt>
      <trkpt lat="44.63296" lon="6.136">
        <ele>1136.4</ele>
        <time>2025-06-12T09:35:39Z</time>
      </trkpt>
      <trkpt lat="44.63295" lon="6.13596">
        <ele>1136.6</ele>
        <time>2025-06-12T09:35:40Z</time>
      </trkpt>
      <trkpt lat="44.63293" lon="6.13589">
        <ele>1137</ele>
        <time>2025-06-12T09:35:42Z</time>
      </trkpt>
      <trkpt lat="44.63293" lon="6.13585">
        <ele>1137.2</ele>
        <time>2025-06-12T09:35:43Z</time>
      </trkpt>
      <trkpt lat="44.63292" lon="6.13582">
        <ele>1137.4</ele>
        <time>2025-06-12T09:35:44Z</time>
      </trkpt>
      <trkpt lat="44.63292" lon="6.13577">
        <ele>1137.4</ele>
        <time>2025-06-12T09:35:45Z</time>
      </trkpt>
      <trkpt lat="44.63292" lon="6.13574">
        <ele>1137.6</ele>
        <time>2025-06-12T09:35:46Z</time>
      </trkpt>
      <trkpt lat="44.63292" lon="6.1357">
        <ele>1137.6</ele>
        <time>2025-06-12T09:35:47Z</time>
      </trkpt>
      <trkpt lat="44.63292" lon="6.13562">
        <ele>1138</ele>
        <time>2025-06-12T09:35:49Z</time>
      </trkpt>
      <trkpt lat="44.63292" lon="6.13554">
        <ele>1138.2</ele>
        <time>2025-06-12T09:35:51Z</time>
      </trkpt>
      <trkpt lat="44.63292" lon="6.13546">
        <ele>1138.8</ele>
        <time>2025-06-12T09:35:53Z</time>
      </trkpt>
      <trkpt lat="44.63293" lon="6.13538">
        <ele>1139</ele>
        <time>2025-06-12T09:35:55Z</time>
      </trkpt>
      <trkpt lat="44.63293" lon="6.13534">
        <ele>1139.2</ele>
        <time>2025-06-12T09:35:56Z</time>
      </trkpt>
      <trkpt lat="44.63293" lon="6.1353">
        <ele>1139.4</ele>
        <time>2025-06-12T09:35:57Z</time>
      </trkpt>
      <trkpt lat="44.63293" lon="6.13526">
        <ele>1139.6</ele>
        <time>2025-06-12T09:35:58Z</time>
      </trkpt>
      <trkpt lat="44.63293" lon="6.13522">
        <ele>1139.6</ele>
        <time>2025-06-12T09:35:59Z</time>
      </trkpt>
      <trkpt lat="44.63294" lon="6.13518">
        <ele>1139.6</ele>
        <time>2025-06-12T09:36:00Z</time>
      </trkpt>
      <trkpt lat="44.63294" lon="6.13514">
        <ele>1139.8</ele>
        <time>2025-06-12T09:36:01Z</time>
      </trkpt>
      <trkpt lat="44.63294" lon="6.1351">
        <ele>1140</ele>
        <time>2025-06-12T09:36:02Z</time>
      </trkpt>
      <trkpt lat="44.63295" lon="6.13506">
        <ele>1140</ele>
        <time>2025-06-12T09:36:03Z</time>
      </trkpt>
      <trkpt lat="44.63295" lon="6.13502">
        <ele>1140</ele>
        <time>2025-06-12T09:36:04Z</time>
      </trkpt>
      <trkpt lat="44.63295" lon="6.13494">
        <ele>1140.2</ele>
        <time>2025-06-12T09:36:06Z</time>
      </trkpt>
      <trkpt lat="44.63295" lon="6.13486">
        <ele>1140.4</ele>
        <time>2025-06-12T09:36:08Z</time>
      </trkpt>
      <trkpt lat="44.63296" lon="6.13477">
        <ele>1140.6</ele>
        <time>2025-06-12T09:36:10Z</time>
      </trkpt>
      <trkpt lat="44.63296" lon="6.13468">
        <ele>1140.6</ele>
        <time>2025-06-12T09:36:12Z</time>
      </trkpt>
      <trkpt lat="44.63297" lon="6.13458">
        <ele>1140.8</ele>
        <time>2025-06-12T09:36:14Z</time>
      </trkpt>
      <trkpt lat="44.63297" lon="6.13448">
        <ele>1141.2</ele>
        <time>2025-06-12T09:36:16Z</time>
      </trkpt>
      <trkpt lat="44.63297" lon="6.13438">
        <ele>1141.2</ele>
        <time>2025-06-12T09:36:18Z</time>
      </trkpt>
      <trkpt lat="44.63298" lon="6.13433">
        <ele>1141.2</ele>
        <time>2025-06-12T09:36:19Z</time>
      </trkpt>
      <trkpt lat="44.63298" lon="6.13427">
        <ele>1141.2</ele>
        <time>2025-06-12T09:36:20Z</time>
      </trkpt>
      <trkpt lat="44.63298" lon="6.13422">
        <ele>1141.4</ele>
        <time>2025-06-12T09:36:21Z</time>
      </trkpt>
      <trkpt lat="44.63298" lon="6.13417">
        <ele>1141.4</ele>
        <time>2025-06-12T09:36:22Z</time>
      </trkpt>
      <trkpt lat="44.63298" lon="6.13411">
        <ele>1141.4</ele>
        <time>2025-06-12T09:36:23Z</time>
      </trkpt>
      <trkpt lat="44.63299" lon="6.13406">
        <ele>1141.4</ele>
        <time>2025-06-12T09:36:24Z</time>
      </trkpt>
      <trkpt lat="44.63299" lon="6.13401">
        <ele>1141.4</ele>
        <time>2025-06-12T09:36:25Z</time>
      </trkpt>
      <trkpt lat="44.633" lon="6.1339">
        <ele>1141.6</ele>
        <time>2025-06-12T09:36:27Z</time>
      </trkpt>
      <trkpt lat="44.633" lon="6.13385">
        <ele>1141.6</ele>
        <time>2025-06-12T09:36:28Z</time>
      </trkpt>
      <trkpt lat="44.633" lon="6.1338">
        <ele>1141.8</ele>
        <time>2025-06-12T09:36:29Z</time>
      </trkpt>
      <trkpt lat="44.633" lon="6.13374">
        <ele>1141.8</ele>
        <time>2025-06-12T09:36:30Z</time>
      </trkpt>
      <trkpt lat="44.633" lon="6.13368">
        <ele>1141.8</ele>
        <time>2025-06-12T09:36:31Z</time>
      </trkpt>
      <trkpt lat="44.63301" lon="6.13363">
        <ele>1141.8</ele>
        <time>2025-06-12T09:36:32Z</time>
      </trkpt>
      <trkpt lat="44.63301" lon="6.13357">
        <ele>1142</ele>
        <time>2025-06-12T09:36:33Z</time>
      </trkpt>
      <trkpt lat="44.63301" lon="6.13352">
        <ele>1142</ele>
        <time>2025-06-12T09:36:34Z</time>
      </trkpt>
      <trkpt lat="44.63301" lon="6.13341">
        <ele>1142.2</ele>
        <time>2025-06-12T09:36:36Z</time>
      </trkpt>
      <trkpt lat="44.63302" lon="6.13331">
        <ele>1142.6</ele>
        <time>2025-06-12T09:36:38Z</time>
      </trkpt>
      <trkpt lat="44.63302" lon="6.13325">
        <ele>1142.8</ele>
        <time>2025-06-12T09:36:39Z</time>
      </trkpt>
      <trkpt lat="44.63302" lon="6.1332">
        <ele>1143</ele>
        <time>2025-06-12T09:36:40Z</time>
      </trkpt>
      <trkpt lat="44.63302" lon="6.13315">
        <ele>1143</ele>
        <time>2025-06-12T09:36:41Z</time>
      </trkpt>
      <trkpt lat="44.63302" lon="6.1331">
        <ele>1143.2</ele>
        <time>2025-06-12T09:36:42Z</time>
      </trkpt>
      <trkpt lat="44.63302" lon="6.13305">
        <ele>1143.4</ele>
        <time>2025-06-12T09:36:43Z</time>
      </trkpt>
      <trkpt lat="44.63301" lon="6.13296">
        <ele>1143.6</ele>
        <time>2025-06-12T09:36:45Z</time>
      </trkpt>
      <trkpt lat="44.63301" lon="6.13286">
        <ele>1144</ele>
        <time>2025-06-12T09:36:47Z</time>
      </trkpt>
      <trkpt lat="44.63301" lon="6.13276">
        <ele>1144.2</ele>
        <time>2025-06-12T09:36:49Z</time>
      </trkpt>
      <trkpt lat="44.63301" lon="6.13271">
        <ele>1144.4</ele>
        <time>2025-06-12T09:36:50Z</time>
      </trkpt>
      <trkpt lat="44.633" lon="6.13266">
        <ele>1144.4</ele>
        <time>2025-06-12T09:36:51Z</time>
      </trkpt>
      <trkpt lat="44.633" lon="6.13261">
        <ele>1144.6</ele>
        <time>2025-06-12T09:36:52Z</time>
      </trkpt>
      <trkpt lat="44.633" lon="6.13256">
        <ele>1144.8</ele>
        <time>2025-06-12T09:36:53Z</time>
      </trkpt>
      <trkpt lat="44.633" lon="6.13251">
        <ele>1144.8</ele>
        <time>2025-06-12T09:36:54Z</time>
      </trkpt>
      <trkpt lat="44.63299" lon="6.13246">
        <ele>1145</ele>
        <time>2025-06-12T09:36:55Z</time>
      </trkpt>
      <trkpt lat="44.63299" lon="6.13241">
        <ele>1145</ele>
        <time>2025-06-12T09:36:56Z</time>
      </trkpt>
      <trkpt lat="44.63298" lon="6.13237">
        <ele>1145.2</ele>
        <time>2025-06-12T09:36:57Z</time>
      </trkpt>
      <trkpt lat="44.63298" lon="6.13232">
        <ele>1145.4</ele>
        <time>2025-06-12T09:36:58Z</time>
      </trkpt>
      <trkpt lat="44.63298" lon="6.13227">
        <ele>1145.6</ele>
        <time>2025-06-12T09:36:59Z</time>
      </trkpt>
      <trkpt lat="44.63298" lon="6.13222">
        <ele>1145.8</ele>
        <time>2025-06-12T09:37:00Z</time>
      </trkpt>
      <trkpt lat="44.63298" lon="6.13218">
        <ele>1146</ele>
        <time>2025-06-12T09:37:01Z</time>
      </trkpt>
      <trkpt lat="44.63298" lon="6.13213">
        <ele>1146.2</ele>
        <time>2025-06-12T09:37:02Z</time>
      </trkpt>
      <trkpt lat="44.63297" lon="6.13208">
        <ele>1146.2</ele>
        <time>2025-06-12T09:37:03Z</time>
      </trkpt>
      <trkpt lat="44.63297" lon="6.13204">
        <ele>1146.4</ele>
        <time>2025-06-12T09:37:04Z</time>
      </trkpt>
      <trkpt lat="44.63297" lon="6.13199">
        <ele>1146.8</ele>
        <time>2025-06-12T09:37:05Z</time>
      </trkpt>
      <trkpt lat="44.63296" lon="6.13194">
        <ele>1147</ele>
        <time>2025-06-12T09:37:06Z</time>
      </trkpt>
      <trkpt lat="44.63296" lon="6.1319">
        <ele>1147</ele>
        <time>2025-06-12T09:37:07Z</time>
      </trkpt>
      <trkpt lat="44.63296" lon="6.13185">
        <ele>1147.2</ele>
        <time>2025-06-12T09:37:08Z</time>
      </trkpt>
      <trkpt lat="44.63296" lon="6.13176">
        <ele>1147.6</ele>
        <time>2025-06-12T09:37:10Z</time>
      </trkpt>
      <trkpt lat="44.63295" lon="6.13167">
        <ele>1148</ele>
        <time>2025-06-12T09:37:12Z</time>
      </trkpt>
      <trkpt lat="44.63295" lon="6.13157">
        <ele>1148.2</ele>
        <time>2025-06-12T09:37:14Z</time>
      </trkpt>
      <trkpt lat="44.63294" lon="6.13153">
        <ele>1148.4</ele>
        <time>2025-06-12T09:37:15Z</time>
      </trkpt>
      <trkpt lat="44.63294" lon="6.13148">
        <ele>1148.6</ele>
        <time>2025-06-12T09:37:16Z</time>
      </trkpt>
      <trkpt lat="44.63294" lon="6.13144">
        <ele>1148.6</ele>
        <time>2025-06-12T09:37:17Z</time>
      </trkpt>
      <trkpt lat="44.63293" lon="6.13139">
        <ele>1148.8</ele>
        <time>2025-06-12T09:37:18Z</time>
      </trkpt>
      <trkpt lat="44.63293" lon="6.13135">
        <ele>1149</ele>
        <time>2025-06-12T09:37:19Z</time>
      </trkpt>
      <trkpt lat="44.63293" lon="6.13131">
        <ele>1149.2</ele>
        <time>2025-06-12T09:37:20Z</time>
      </trkpt>
      <trkpt lat="44.63293" lon="6.13127">
        <ele>1149.4</ele>
        <time>2025-06-12T09:37:21Z</time>
      </trkpt>
      <trkpt lat="44.63293" lon="6.13122">
        <ele>1149.4</ele>
        <time>2025-06-12T09:37:22Z</time>
      </trkpt>
      <trkpt lat="44.63292" lon="6.13118">
        <ele>1149.6</ele>
        <time>2025-06-12T09:37:23Z</time>
      </trkpt>
      <trkpt lat="44.63292" lon="6.13114">
        <ele>1149.8</ele>
        <time>2025-06-12T09:37:24Z</time>
      </trkpt>
      <trkpt lat="44.63292" lon="6.13109">
        <ele>1150</ele>
        <time>2025-06-12T09:37:25Z</time>
      </trkpt>
      <trkpt lat="44.63292" lon="6.13105">
        <ele>1150.2</ele>
        <time>2025-06-12T09:37:26Z</time>
      </trkpt>
      <trkpt lat="44.63292" lon="6.13101">
        <ele>1150.2</ele>
        <time>2025-06-12T09:37:27Z</time>
      </trkpt>
      <trkpt lat="44.63292" lon="6.13097">
        <ele>1150.2</ele>
        <time>2025-06-12T09:37:28Z</time>
      </trkpt>
      <trkpt lat="44.63292" lon="6.13093">
        <ele>1150.4</ele>
        <time>2025-06-12T09:37:29Z</time>
      </trkpt>
      <trkpt lat="44.63291" lon="6.13084">
        <ele>1150.8</ele>
        <time>2025-06-12T09:37:31Z</time>
      </trkpt>
      <trkpt lat="44.63291" lon="6.13076">
        <ele>1151</ele>
        <time>2025-06-12T09:37:33Z</time>
      </trkpt>
      <trkpt lat="44.6329" lon="6.13071">
        <ele>1151.2</ele>
        <time>2025-06-12T09:37:34Z</time>
      </trkpt>
      <trkpt lat="44.6329" lon="6.13067">
        <ele>1151.4</ele>
        <time>2025-06-12T09:37:35Z</time>
      </trkpt>
      <trkpt lat="44.6329" lon="6.13063">
        <ele>1151.6</ele>
        <time>2025-06-12T09:37:36Z</time>
      </trkpt>
      <trkpt lat="44.6329" lon="6.13058">
        <ele>1152</ele>
        <time>2025-06-12T09:37:37Z</time>
      </trkpt>
      <trkpt lat="44.63289" lon="6.13054">
        <ele>1152</ele>
        <time>2025-06-12T09:37:38Z</time>
      </trkpt>
      <trkpt lat="44.63289" lon="6.1305">
        <ele>1152.2</ele>
        <time>2025-06-12T09:37:39Z</time>
      </trkpt>
      <trkpt lat="44.6329" lon="6.13045">
        <ele>1152.4</ele>
        <time>2025-06-12T09:37:40Z</time>
      </trkpt>
      <trkpt lat="44.6329" lon="6.13041">
        <ele>1152.6</ele>
        <time>2025-06-12T09:37:41Z</time>
      </trkpt>
      <trkpt lat="44.6329" lon="6.13037">
        <ele>1152.6</ele>
        <time>2025-06-12T09:37:42Z</time>
      </trkpt>
      <trkpt lat="44.6329" lon="6.13032">
        <ele>1152.6</ele>
        <time>2025-06-12T09:37:43Z</time>
      </trkpt>
      <trkpt lat="44.6329" lon="6.13028">
        <ele>1152.8</ele>
        <time>2025-06-12T09:37:44Z</time>
      </trkpt>
      <trkpt lat="44.63289" lon="6.13024">
        <ele>1153</ele>
        <time>2025-06-12T09:37:45Z</time>
      </trkpt>
      <trkpt lat="44.63289" lon="6.13019">
        <ele>1153</ele>
        <time>2025-06-12T09:37:46Z</time>
      </trkpt>
      <trkpt lat="44.63288" lon="6.13015">
        <ele>1153.4</ele>
        <time>2025-06-12T09:37:47Z</time>
      </trkpt>
      <trkpt lat="44.63286" lon="6.13007">
        <ele>1153.6</ele>
        <time>2025-06-12T09:37:49Z</time>
      </trkpt>
      <trkpt lat="44.63283" lon="6.12999">
        <ele>1153.6</ele>
        <time>2025-06-12T09:37:51Z</time>
      </trkpt>
      <trkpt lat="44.63281" lon="6.12996">
        <ele>1153.6</ele>
        <time>2025-06-12T09:37:52Z</time>
      </trkpt>
      <trkpt lat="44.63278" lon="6.12993">
        <ele>1153.8</ele>
        <time>2025-06-12T09:37:53Z</time>
      </trkpt>
      <trkpt lat="44.63276" lon="6.12991">
        <ele>1153.8</ele>
        <time>2025-06-12T09:37:54Z</time>
      </trkpt>
      <trkpt lat="44.63273" lon="6.12989">
        <ele>1154</ele>
        <time>2025-06-12T09:37:55Z</time>
      </trkpt>
      <trkpt lat="44.6327" lon="6.12988">
        <ele>1154.2</ele>
        <time>2025-06-12T09:37:56Z</time>
      </trkpt>
      <trkpt lat="44.63267" lon="6.12987">
        <ele>1154.2</ele>
        <time>2025-06-12T09:37:57Z</time>
      </trkpt>
      <trkpt lat="44.63264" lon="6.12986">
        <ele>1154.2</ele>
        <time>2025-06-12T09:37:58Z</time>
      </trkpt>
      <trkpt lat="44.63261" lon="6.12986">
        <ele>1154.4</ele>
        <time>2025-06-12T09:37:59Z</time>
      </trkpt>
      <trkpt lat="44.63258" lon="6.12987">
        <ele>1154.6</ele>
        <time>2025-06-12T09:38:00Z</time>
      </trkpt>
      <trkpt lat="44.63254" lon="6.12988">
        <ele>1154.8</ele>
        <time>2025-06-12T09:38:01Z</time>
      </trkpt>
      <trkpt lat="44.63251" lon="6.12989">
        <ele>1155</ele>
        <time>2025-06-12T09:38:02Z</time>
      </trkpt>
      <trkpt lat="44.63246" lon="6.12993">
        <ele>1155.4</ele>
        <time>2025-06-12T09:38:04Z</time>
      </trkpt>
      <trkpt lat="44.63241" lon="6.12999">
        <ele>1155.6</ele>
        <time>2025-06-12T09:38:06Z</time>
      </trkpt>
      <trkpt lat="44.63239" lon="6.13003">
        <ele>1155.8</ele>
        <time>2025-06-12T09:38:07Z</time>
      </trkpt>
      <trkpt lat="44.63237" lon="6.13008">
        <ele>1156</ele>
        <time>2025-06-12T09:38:08Z</time>
      </trkpt>
      <trkpt lat="44.63236" lon="6.13012">
        <ele>1156.2</ele>
        <time>2025-06-12T09:38:09Z</time>
      </trkpt>
      <trkpt lat="44.63235" lon="6.13017">
        <ele>1156.2</ele>
        <time>2025-06-12T09:38:10Z</time>
      </trkpt>
      <trkpt lat="44.63234" lon="6.13022">
        <ele>1156.4</ele>
        <time>2025-06-12T09:38:11Z</time>
      </trkpt>
      <trkpt lat="44.63233" lon="6.13028">
        <ele>1156.6</ele>
        <time>2025-06-12T09:38:12Z</time>
      </trkpt>
      <trkpt lat="44.63233" lon="6.13033">
        <ele>1156.8</ele>
        <time>2025-06-12T09:38:13Z</time>
      </trkpt>
      <trkpt lat="44.63233" lon="6.13043">
        <ele>1157.4</ele>
        <time>2025-06-12T09:38:15Z</time>
      </trkpt>
      <trkpt lat="44.63233" lon="6.13053">
        <ele>1157.6</ele>
        <time>2025-06-12T09:38:17Z</time>
      </trkpt>
      <trkpt lat="44.63233" lon="6.13058">
        <ele>1157.6</ele>
        <time>2025-06-12T09:38:18Z</time>
      </trkpt>
      <trkpt lat="44.63233" lon="6.13063">
        <ele>1157.8</ele>
        <time>2025-06-12T09:38:19Z</time>
      </trkpt>
      <trkpt lat="44.63233" lon="6.13068">
        <ele>1158</ele>
        <time>2025-06-12T09:38:20Z</time>
      </trkpt>
      <trkpt lat="44.63232" lon="6.13073">
        <ele>1158</ele>
        <time>2025-06-12T09:38:21Z</time>
      </trkpt>
      <trkpt lat="44.63232" lon="6.13078">
        <ele>1158.2</ele>
        <time>2025-06-12T09:38:22Z</time>
      </trkpt>
      <trkpt lat="44.63232" lon="6.13087">
        <ele>1158.8</ele>
        <time>2025-06-12T09:38:24Z</time>
      </trkpt>
      <trkpt lat="44.63231" lon="6.13092">
        <ele>1159</ele>
        <time>2025-06-12T09:38:25Z</time>
      </trkpt>
      <trkpt lat="44.6323" lon="6.13097">
        <ele>1159.2</ele>
        <time>2025-06-12T09:38:26Z</time>
      </trkpt>
      <trkpt lat="44.6323" lon="6.13102">
        <ele>1159.4</ele>
        <time>2025-06-12T09:38:27Z</time>
      </trkpt>
      <trkpt lat="44.63229" lon="6.13106">
        <ele>1159.4</ele>
        <time>2025-06-12T09:38:28Z</time>
      </trkpt>
      <trkpt lat="44.63229" lon="6.13111">
        <ele>1159.6</ele>
        <time>2025-06-12T09:38:29Z</time>
      </trkpt>
      <trkpt lat="44.63228" lon="6.13116">
        <ele>1159.6</ele>
        <time>2025-06-12T09:38:30Z</time>
      </trkpt>
      <trkpt lat="44.63227" lon="6.13121">
        <ele>1160</ele>
        <time>2025-06-12T09:38:31Z</time>
      </trkpt>
      <trkpt lat="44.63226" lon="6.13126">
        <ele>1160.2</ele>
        <time>2025-06-12T09:38:32Z</time>
      </trkpt>
      <trkpt lat="44.63225" lon="6.13131">
        <ele>1160.4</ele>
        <time>2025-06-12T09:38:33Z</time>
      </trkpt>
      <trkpt lat="44.63223" lon="6.13141">
        <ele>1160.6</ele>
        <time>2025-06-12T09:38:35Z</time>
      </trkpt>
      <trkpt lat="44.63222" lon="6.13146">
        <ele>1160.8</ele>
        <time>2025-06-12T09:38:36Z</time>
      </trkpt>
      <trkpt lat="44.63222" lon="6.13151">
        <ele>1161</ele>
        <time>2025-06-12T09:38:37Z</time>
      </trkpt>
      <trkpt lat="44.63221" lon="6.13156">
        <ele>1161</ele>
        <time>2025-06-12T09:38:38Z</time>
      </trkpt>
      <trkpt lat="44.6322" lon="6.13161">
        <ele>1161.2</ele>
        <time>2025-06-12T09:38:39Z</time>
      </trkpt>
      <trkpt lat="44.63219" lon="6.13166">
        <ele>1161.4</ele>
        <time>2025-06-12T09:38:40Z</time>
      </trkpt>
      <trkpt lat="44.63218" lon="6.13171">
        <ele>1161.4</ele>
        <time>2025-06-12T09:38:41Z</time>
      </trkpt>
      <trkpt lat="44.63217" lon="6.13176">
        <ele>1161.6</ele>
        <time>2025-06-12T09:38:42Z</time>
      </trkpt>
      <trkpt lat="44.63216" lon="6.13186">
        <ele>1161.8</ele>
        <time>2025-06-12T09:38:44Z</time>
      </trkpt>
      <trkpt lat="44.63214" lon="6.13196">
        <ele>1162.2</ele>
        <time>2025-06-12T09:38:46Z</time>
      </trkpt>
      <trkpt lat="44.63213" lon="6.13201">
        <ele>1162.2</ele>
        <time>2025-06-12T09:38:47Z</time>
      </trkpt>
      <trkpt lat="44.63212" lon="6.13206">
        <ele>1162.4</ele>
        <time>2025-06-12T09:38:48Z</time>
      </trkpt>
      <trkpt lat="44.63211" lon="6.13211">
        <ele>1162.6</ele>
        <time>2025-06-12T09:38:49Z</time>
      </trkpt>
      <trkpt lat="44.6321" lon="6.13216">
        <ele>1162.6</ele>
        <time>2025-06-12T09:38:50Z</time>
      </trkpt>
      <trkpt lat="44.6321" lon="6.13221">
        <ele>1162.8</ele>
        <time>2025-06-12T09:38:51Z</time>
      </trkpt>
      <trkpt lat="44.63208" lon="6.13231">
        <ele>1163</ele>
        <time>2025-06-12T09:38:53Z</time>
      </trkpt>
      <trkpt lat="44.63206" lon="6.13241">
        <ele>1163.4</ele>
        <time>2025-06-12T09:38:55Z</time>
      </trkpt>
      <trkpt lat="44.63205" lon="6.13246">
        <ele>1163.6</ele>
        <time>2025-06-12T09:38:56Z</time>
      </trkpt>
      <trkpt lat="44.63205" lon="6.13251">
        <ele>1163.6</ele>
        <time>2025-06-12T09:38:57Z</time>
      </trkpt>
      <trkpt lat="44.63204" lon="6.13256">
        <ele>1163.8</ele>
        <time>2025-06-12T09:38:58Z</time>
      </trkpt>
      <trkpt lat="44.63203" lon="6.13261">
        <ele>1163.8</ele>
        <time>2025-06-12T09:38:59Z</time>
      </trkpt>
      <trkpt lat="44.63202" lon="6.13266">
        <ele>1163.8</ele>
        <time>2025-06-12T09:39:00Z</time>
      </trkpt>
      <trkpt lat="44.63201" lon="6.13271">
        <ele>1164</ele>
        <time>2025-06-12T09:39:01Z</time>
      </trkpt>
      <trkpt lat="44.632" lon="6.13275">
        <ele>1164.2</ele>
        <time>2025-06-12T09:39:02Z</time>
      </trkpt>
      <trkpt lat="44.63199" lon="6.13285">
        <ele>1164.4</ele>
        <time>2025-06-12T09:39:04Z</time>
      </trkpt>
      <trkpt lat="44.63197" lon="6.13295">
        <ele>1164.6</ele>
        <time>2025-06-12T09:39:06Z</time>
      </trkpt>
      <trkpt lat="44.63197" lon="6.133">
        <ele>1164.8</ele>
        <time>2025-06-12T09:39:07Z</time>
      </trkpt>
      <trkpt lat="44.63196" lon="6.13305">
        <ele>1165</ele>
        <time>2025-06-12T09:39:08Z</time>
      </trkpt>
      <trkpt lat="44.63195" lon="6.1331">
        <ele>1165</ele>
        <time>2025-06-12T09:39:09Z</time>
      </trkpt>
      <trkpt lat="44.63194" lon="6.13315">
        <ele>1165</ele>
        <time>2025-06-12T09:39:10Z</time>
      </trkpt>
      <trkpt lat="44.63193" lon="6.1332">
        <ele>1165.2</ele>
        <time>2025-06-12T09:39:11Z</time>
      </trkpt>
      <trkpt lat="44.63192" lon="6.1333">
        <ele>1165.2</ele>
        <time>2025-06-12T09:39:13Z</time>
      </trkpt>
      <trkpt lat="44.63191" lon="6.13335">
        <ele>1165.2</ele>
        <time>2025-06-12T09:39:14Z</time>
      </trkpt>
      <trkpt lat="44.6319" lon="6.1334">
        <ele>1165.4</ele>
        <time>2025-06-12T09:39:15Z</time>
      </trkpt>
      <trkpt lat="44.63188" lon="6.1335">
        <ele>1165.8</ele>
        <time>2025-06-12T09:39:17Z</time>
      </trkpt>
      <trkpt lat="44.63187" lon="6.13355">
        <ele>1166.4</ele>
        <time>2025-06-12T09:39:18Z</time>
      </trkpt>
      <trkpt lat="44.63186" lon="6.1336">
        <ele>1166.4</ele>
        <time>2025-06-12T09:39:19Z</time>
      </trkpt>
      <trkpt lat="44.63185" lon="6.13365">
        <ele>1166.6</ele>
        <time>2025-06-12T09:39:20Z</time>
      </trkpt>
      <trkpt lat="44.63184" lon="6.1337">
        <ele>1166.6</ele>
        <time>2025-06-12T09:39:21Z</time>
      </trkpt>
      <trkpt lat="44.63183" lon="6.13375">
        <ele>1166.8</ele>
        <time>2025-06-12T09:39:22Z</time>
      </trkpt>
      <trkpt lat="44.63183" lon="6.13381">
        <ele>1166.8</ele>
        <time>2025-06-12T09:39:23Z</time>
      </trkpt>
      <trkpt lat="44.63182" lon="6.13386">
        <ele>1167.2</ele>
        <time>2025-06-12T09:39:24Z</time>
      </trkpt>
      <trkpt lat="44.63181" lon="6.13391">
        <ele>1167.2</ele>
        <time>2025-06-12T09:39:25Z</time>
      </trkpt>
      <trkpt lat="44.6318" lon="6.13397">
        <ele>1167.4</ele>
        <time>2025-06-12T09:39:26Z</time>
      </trkpt>
      <trkpt lat="44.63179" lon="6.13402">
        <ele>1167.4</ele>
        <time>2025-06-12T09:39:27Z</time>
      </trkpt>
      <trkpt lat="44.63178" lon="6.13408">
        <ele>1167.6</ele>
        <time>2025-06-12T09:39:28Z</time>
      </trkpt>
      <trkpt lat="44.63176" lon="6.13419">
        <ele>1168</ele>
        <time>2025-06-12T09:39:30Z</time>
      </trkpt>
      <trkpt lat="44.63174" lon="6.13431">
        <ele>1168.4</ele>
        <time>2025-06-12T09:39:32Z</time>
      </trkpt>
      <trkpt lat="44.63172" lon="6.13442">
        <ele>1168.8</ele>
        <time>2025-06-12T09:39:34Z</time>
      </trkpt>
      <trkpt lat="44.63171" lon="6.13447">
        <ele>1168.8</ele>
        <time>2025-06-12T09:39:35Z</time>
      </trkpt>
      <trkpt lat="44.6317" lon="6.13453">
        <ele>1168.8</ele>
        <time>2025-06-12T09:39:36Z</time>
      </trkpt>
      <trkpt lat="44.63169" lon="6.13459">
        <ele>1168.8</ele>
        <time>2025-06-12T09:39:37Z</time>
      </trkpt>
      <trkpt lat="44.63168" lon="6.13464">
        <ele>1169</ele>
        <time>2025-06-12T09:39:38Z</time>
      </trkpt>
      <trkpt lat="44.63167" lon="6.1347">
        <ele>1169</ele>
        <time>2025-06-12T09:39:39Z</time>
      </trkpt>
      <trkpt lat="44.63166" lon="6.13475">
        <ele>1169</ele>
        <time>2025-06-12T09:39:40Z</time>
      </trkpt>
      <trkpt lat="44.63165" lon="6.13481">
        <ele>1169.2</ele>
        <time>2025-06-12T09:39:41Z</time>
      </trkpt>
      <trkpt lat="44.63165" lon="6.13486">
        <ele>1169.2</ele>
        <time>2025-06-12T09:39:42Z</time>
      </trkpt>
      <trkpt lat="44.63164" lon="6.13492">
        <ele>1169.4</ele>
        <time>2025-06-12T09:39:43Z</time>
      </trkpt>
      <trkpt lat="44.63163" lon="6.13498">
        <ele>1169.4</ele>
        <time>2025-06-12T09:39:44Z</time>
      </trkpt>
      <trkpt lat="44.63162" lon="6.13503">
        <ele>1169.6</ele>
        <time>2025-06-12T09:39:45Z</time>
      </trkpt>
      <trkpt lat="44.63161" lon="6.13509">
        <ele>1169.8</ele>
        <time>2025-06-12T09:39:46Z</time>
      </trkpt>
      <trkpt lat="44.63161" lon="6.13514">
        <ele>1169.8</ele>
        <time>2025-06-12T09:39:47Z</time>
      </trkpt>
      <trkpt lat="44.6316" lon="6.13525">
        <ele>1170</ele>
        <time>2025-06-12T09:39:49Z</time>
      </trkpt>
      <trkpt lat="44.63159" lon="6.13531">
        <ele>1170</ele>
        <time>2025-06-12T09:39:50Z</time>
      </trkpt>
      <trkpt lat="44.63158" lon="6.13536">
        <ele>1170</ele>
        <time>2025-06-12T09:39:51Z</time>
      </trkpt>
      <trkpt lat="44.63157" lon="6.13547">
        <ele>1170.2</ele>
        <time>2025-06-12T09:39:53Z</time>
      </trkpt>
      <trkpt lat="44.63157" lon="6.13558">
        <ele>1170.4</ele>
        <time>2025-06-12T09:39:55Z</time>
      </trkpt>
      <trkpt lat="44.63156" lon="6.13569">
        <ele>1170.6</ele>
        <time>2025-06-12T09:39:57Z</time>
      </trkpt>
      <trkpt lat="44.63156" lon="6.13574">
        <ele>1170.8</ele>
        <time>2025-06-12T09:39:58Z</time>
      </trkpt>
      <trkpt lat="44.63156" lon="6.1358">
        <ele>1171</ele>
        <time>2025-06-12T09:39:59Z</time>
      </trkpt>
      <trkpt lat="44.63155" lon="6.13591">
        <ele>1171.4</ele>
        <time>2025-06-12T09:40:01Z</time>
      </trkpt>
      <trkpt lat="44.63155" lon="6.13602">
        <ele>1171.6</ele>
        <time>2025-06-12T09:40:03Z</time>
      </trkpt>
      <trkpt lat="44.63155" lon="6.13607">
        <ele>1171.6</ele>
        <time>2025-06-12T09:40:04Z</time>
      </trkpt>
      <trkpt lat="44.63155" lon="6.13613">
        <ele>1171.6</ele>
        <time>2025-06-12T09:40:05Z</time>
      </trkpt>
      <trkpt lat="44.63154" lon="6.13618">
        <ele>1171.8</ele>
        <time>2025-06-12T09:40:06Z</time>
      </trkpt>
      <trkpt lat="44.63154" lon="6.13624">
        <ele>1171.8</ele>
        <time>2025-06-12T09:40:07Z</time>
      </trkpt>
      <trkpt lat="44.63153" lon="6.13629">
        <ele>1172</ele>
        <time>2025-06-12T09:40:08Z</time>
      </trkpt>
      <trkpt lat="44.63152" lon="6.13635">
        <ele>1172.2</ele>
        <time>2025-06-12T09:40:09Z</time>
      </trkpt>
      <trkpt lat="44.63151" lon="6.13641">
        <ele>1172.2</ele>
        <time>2025-06-12T09:40:10Z</time>
      </trkpt>
      <trkpt lat="44.6315" lon="6.13646">
        <ele>1172.2</ele>
        <time>2025-06-12T09:40:11Z</time>
      </trkpt>
      <trkpt lat="44.63149" lon="6.13651">
        <ele>1172.4</ele>
        <time>2025-06-12T09:40:12Z</time>
      </trkpt>
      <trkpt lat="44.63148" lon="6.13657">
        <ele>1172.4</ele>
        <time>2025-06-12T09:40:13Z</time>
      </trkpt>
      <trkpt lat="44.63146" lon="6.13662">
        <ele>1172.6</ele>
        <time>2025-06-12T09:40:14Z</time>
      </trkpt>
      <trkpt lat="44.63145" lon="6.13667">
        <ele>1172.6</ele>
        <time>2025-06-12T09:40:15Z</time>
      </trkpt>
      <trkpt lat="44.63143" lon="6.13672">
        <ele>1172.6</ele>
        <time>2025-06-12T09:40:16Z</time>
      </trkpt>
      <trkpt lat="44.63139" lon="6.13681">
        <ele>1173</ele>
        <time>2025-06-12T09:40:18Z</time>
      </trkpt>
      <trkpt lat="44.63136" lon="6.1369">
        <ele>1173.4</ele>
        <time>2025-06-12T09:40:20Z</time>
      </trkpt>
      <trkpt lat="44.63134" lon="6.13694">
        <ele>1173.4</ele>
        <time>2025-06-12T09:40:21Z</time>
      </trkpt>
      <trkpt lat="44.63132" lon="6.13699">
        <ele>1173.6</ele>
        <time>2025-06-12T09:40:22Z</time>
      </trkpt>
      <trkpt lat="44.63128" lon="6.13707">
        <ele>1173.8</ele>
        <time>2025-06-12T09:40:24Z</time>
      </trkpt>
      <trkpt lat="44.63126" lon="6.13711">
        <ele>1174</ele>
        <time>2025-06-12T09:40:25Z</time>
      </trkpt>
      <trkpt lat="44.63125" lon="6.13715">
        <ele>1174</ele>
        <time>2025-06-12T09:40:26Z</time>
      </trkpt>
      <trkpt lat="44.63123" lon="6.13719">
        <ele>1174.2</ele>
        <time>2025-06-12T09:40:27Z</time>
      </trkpt>
      <trkpt lat="44.63121" lon="6.13723">
        <ele>1174.2</ele>
        <time>2025-06-12T09:40:28Z</time>
      </trkpt>
      <trkpt lat="44.63119" lon="6.13727">
        <ele>1174.6</ele>
        <time>2025-06-12T09:40:29Z</time>
      </trkpt>
      <trkpt lat="44.63118" lon="6.13731">
        <ele>1174.8</ele>
        <time>2025-06-12T09:40:30Z</time>
      </trkpt>
      <trkpt lat="44.63116" lon="6.13735">
        <ele>1175</ele>
        <time>2025-06-12T09:40:31Z</time>
      </trkpt>
      <trkpt lat="44.63114" lon="6.13738">
        <ele>1175.2</ele>
        <time>2025-06-12T09:40:32Z</time>
      </trkpt>
      <trkpt lat="44.63113" lon="6.13742">
        <ele>1175.6</ele>
        <time>2025-06-12T09:40:33Z</time>
      </trkpt>
      <trkpt lat="44.63111" lon="6.13746">
        <ele>1175.8</ele>
        <time>2025-06-12T09:40:34Z</time>
      </trkpt>
      <trkpt lat="44.6311" lon="6.1375">
        <ele>1175.8</ele>
        <time>2025-06-12T09:40:35Z</time>
      </trkpt>
      <trkpt lat="44.63108" lon="6.13753">
        <ele>1176</ele>
        <time>2025-06-12T09:40:36Z</time>
      </trkpt>
      <trkpt lat="44.63106" lon="6.13757">
        <ele>1176.2</ele>
        <time>2025-06-12T09:40:37Z</time>
      </trkpt>
      <trkpt lat="44.63105" lon="6.13761">
        <ele>1176.2</ele>
        <time>2025-06-12T09:40:38Z</time>
      </trkpt>
      <trkpt lat="44.63103" lon="6.13764">
        <ele>1176.4</ele>
        <time>2025-06-12T09:40:39Z</time>
      </trkpt>
      <trkpt lat="44.63101" lon="6.13768">
        <ele>1176.4</ele>
        <time>2025-06-12T09:40:40Z</time>
      </trkpt>
      <trkpt lat="44.63099" lon="6.13771">
        <ele>1176.6</ele>
        <time>2025-06-12T09:40:41Z</time>
      </trkpt>
      <trkpt lat="44.63097" lon="6.13775">
        <ele>1176.8</ele>
        <time>2025-06-12T09:40:42Z</time>
      </trkpt>
      <trkpt lat="44.63096" lon="6.13779">
        <ele>1177</ele>
        <time>2025-06-12T09:40:43Z</time>
      </trkpt>
      <trkpt lat="44.63094" lon="6.13782">
        <ele>1177.2</ele>
        <time>2025-06-12T09:40:44Z</time>
      </trkpt>
      <trkpt lat="44.63092" lon="6.13785">
        <ele>1177.4</ele>
        <time>2025-06-12T09:40:45Z</time>
      </trkpt>
      <trkpt lat="44.6309" lon="6.13789">
        <ele>1177.8</ele>
        <time>2025-06-12T09:40:46Z</time>
      </trkpt>
      <trkpt lat="44.63086" lon="6.13795">
        <ele>1178.2</ele>
        <time>2025-06-12T09:40:48Z</time>
      </trkpt>
      <trkpt lat="44.63084" lon="6.13798">
        <ele>1178.4</ele>
        <time>2025-06-12T09:40:49Z</time>
      </trkpt>
      <trkpt lat="44.63082" lon="6.13801">
        <ele>1178.8</ele>
        <time>2025-06-12T09:40:50Z</time>
      </trkpt>
      <trkpt lat="44.63077" lon="6.13806">
        <ele>1179</ele>
        <time>2025-06-12T09:40:52Z</time>
      </trkpt>
      <trkpt lat="44.63075" lon="6.13808">
        <ele>1179.2</ele>
        <time>2025-06-12T09:40:53Z</time>
      </trkpt>
      <trkpt lat="44.63073" lon="6.13811">
        <ele>1179.4</ele>
        <time>2025-06-12T09:40:54Z</time>
      </trkpt>
      <trkpt lat="44.63071" lon="6.13813">
        <ele>1179.6</ele>
        <time>2025-06-12T09:40:55Z</time>
      </trkpt>
      <trkpt lat="44.63068" lon="6.13816">
        <ele>1179.8</ele>
        <time>2025-06-12T09:40:56Z</time>
      </trkpt>
      <trkpt lat="44.63066" lon="6.13818">
        <ele>1179.8</ele>
        <time>2025-06-12T09:40:57Z</time>
      </trkpt>
      <trkpt lat="44.63063" lon="6.1382">
        <ele>1180.2</ele>
        <time>2025-06-12T09:40:58Z</time>
      </trkpt>
      <trkpt lat="44.63061" lon="6.13822">
        <ele>1180.2</ele>
        <time>2025-06-12T09:40:59Z</time>
      </trkpt>
      <trkpt lat="44.63058" lon="6.13824">
        <ele>1180.4</ele>
        <time>2025-06-12T09:41:00Z</time>
      </trkpt>
      <trkpt lat="44.63056" lon="6.13826">
        <ele>1180.4</ele>
        <time>2025-06-12T09:41:01Z</time>
      </trkpt>
      <trkpt lat="44.63053" lon="6.13828">
        <ele>1180.6</ele>
        <time>2025-06-12T09:41:02Z</time>
      </trkpt>
      <trkpt lat="44.63051" lon="6.1383">
        <ele>1180.8</ele>
        <time>2025-06-12T09:41:03Z</time>
      </trkpt>
      <trkpt lat="44.63048" lon="6.13832">
        <ele>1180.8</ele>
        <time>2025-06-12T09:41:04Z</time>
      </trkpt>
      <trkpt lat="44.63045" lon="6.13833">
        <ele>1181</ele>
        <time>2025-06-12T09:41:05Z</time>
      </trkpt>
      <trkpt lat="44.63043" lon="6.13835">
        <ele>1181</ele>
        <time>2025-06-12T09:41:06Z</time>
      </trkpt>
      <trkpt lat="44.6304" lon="6.13837">
        <ele>1181.2</ele>
        <time>2025-06-12T09:41:07Z</time>
      </trkpt>
      <trkpt lat="44.63037" lon="6.13838">
        <ele>1181.2</ele>
        <time>2025-06-12T09:41:08Z</time>
      </trkpt>
      <trkpt lat="44.63034" lon="6.1384">
        <ele>1181.4</ele>
        <time>2025-06-12T09:41:09Z</time>
      </trkpt>
      <trkpt lat="44.63032" lon="6.13841">
        <ele>1181.6</ele>
        <time>2025-06-12T09:41:10Z</time>
      </trkpt>
      <trkpt lat="44.63029" lon="6.13842">
        <ele>1181.8</ele>
        <time>2025-06-12T09:41:11Z</time>
      </trkpt>
      <trkpt lat="44.63026" lon="6.13843">
        <ele>1182</ele>
        <time>2025-06-12T09:41:12Z</time>
      </trkpt>
      <trkpt lat="44.63023" lon="6.13844">
        <ele>1182.2</ele>
        <time>2025-06-12T09:41:13Z</time>
      </trkpt>
      <trkpt lat="44.6302" lon="6.13845">
        <ele>1182.6</ele>
        <time>2025-06-12T09:41:14Z</time>
      </trkpt>
      <trkpt lat="44.63017" lon="6.13846">
        <ele>1183</ele>
        <time>2025-06-12T09:41:15Z</time>
      </trkpt>
      <trkpt lat="44.63014" lon="6.13846">
        <ele>1183.2</ele>
        <time>2025-06-12T09:41:16Z</time>
      </trkpt>
      <trkpt lat="44.63011" lon="6.13847">
        <ele>1183.4</ele>
        <time>2025-06-12T09:41:17Z</time>
      </trkpt>
      <trkpt lat="44.63008" lon="6.13848">
        <ele>1183.4</ele>
        <time>2025-06-12T09:41:18Z</time>
      </trkpt>
      <trkpt lat="44.63005" lon="6.13848">
        <ele>1183.6</ele>
        <time>2025-06-12T09:41:19Z</time>
      </trkpt>
      <trkpt lat="44.63003" lon="6.13849">
        <ele>1183.6</ele>
        <time>2025-06-12T09:41:20Z</time>
      </trkpt>
      <trkpt lat="44.63" lon="6.13849">
        <ele>1184</ele>
        <time>2025-06-12T09:41:21Z</time>
      </trkpt>
      <trkpt lat="44.62996" lon="6.13849">
        <ele>1184.2</ele>
        <time>2025-06-12T09:41:22Z</time>
      </trkpt>
      <trkpt lat="44.62993" lon="6.13849">
        <ele>1184.4</ele>
        <time>2025-06-12T09:41:23Z</time>
      </trkpt>
      <trkpt lat="44.6299" lon="6.13849">
        <ele>1184.4</ele>
        <time>2025-06-12T09:41:24Z</time>
      </trkpt>
      <trkpt lat="44.62987" lon="6.13849">
        <ele>1184.6</ele>
        <time>2025-06-12T09:41:25Z</time>
      </trkpt>
      <trkpt lat="44.62984" lon="6.13849">
        <ele>1184.8</ele>
        <time>2025-06-12T09:41:26Z</time>
      </trkpt>
      <trkpt lat="44.62978" lon="6.13849">
        <ele>1185</ele>
        <time>2025-06-12T09:41:28Z</time>
      </trkpt>
      <trkpt lat="44.62975" lon="6.13848">
        <ele>1185.2</ele>
        <time>2025-06-12T09:41:29Z</time>
      </trkpt>
      <trkpt lat="44.62972" lon="6.13848">
        <ele>1185.6</ele>
        <time>2025-06-12T09:41:30Z</time>
      </trkpt>
      <trkpt lat="44.62967" lon="6.13846">
        <ele>1186</ele>
        <time>2025-06-12T09:41:32Z</time>
      </trkpt>
      <trkpt lat="44.62964" lon="6.13845">
        <ele>1186.4</ele>
        <time>2025-06-12T09:41:33Z</time>
      </trkpt>
      <trkpt lat="44.62961" lon="6.13845">
        <ele>1186.8</ele>
        <time>2025-06-12T09:41:34Z</time>
      </trkpt>
      <trkpt lat="44.62955" lon="6.13842">
        <ele>1187</ele>
        <time>2025-06-12T09:41:36Z</time>
      </trkpt>
      <trkpt lat="44.62949" lon="6.1384">
        <ele>1187.4</ele>
        <time>2025-06-12T09:41:38Z</time>
      </trkpt>
      <trkpt lat="44.62946" lon="6.13838">
        <ele>1187.6</ele>
        <time>2025-06-12T09:41:39Z</time>
      </trkpt>
      <trkpt lat="44.62943" lon="6.13836">
        <ele>1188</ele>
        <time>2025-06-12T09:41:40Z</time>
      </trkpt>
      <trkpt lat="44.62941" lon="6.13835">
        <ele>1188.6</ele>
        <time>2025-06-12T09:41:41Z</time>
      </trkpt>
      <trkpt lat="44.62938" lon="6.13833">
        <ele>1188.6</ele>
        <time>2025-06-12T09:41:42Z</time>
      </trkpt>
      <trkpt lat="44.62932" lon="6.1383">
        <ele>1188.8</ele>
        <time>2025-06-12T09:41:44Z</time>
      </trkpt>
      <trkpt lat="44.62927" lon="6.13826">
        <ele>1189</ele>
        <time>2025-06-12T09:41:46Z</time>
      </trkpt>
      <trkpt lat="44.62921" lon="6.13821">
        <ele>1189.6</ele>
        <time>2025-06-12T09:41:48Z</time>
      </trkpt>
      <trkpt lat="44.62918" lon="6.13819">
        <ele>1189.8</ele>
        <time>2025-06-12T09:41:49Z</time>
      </trkpt>
      <trkpt lat="44.62916" lon="6.13817">
        <ele>1190</ele>
        <time>2025-06-12T09:41:50Z</time>
      </trkpt>
      <trkpt lat="44.6291" lon="6.13813">
        <ele>1190.4</ele>
        <time>2025-06-12T09:41:52Z</time>
      </trkpt>
      <trkpt lat="44.62908" lon="6.13811">
        <ele>1190.6</ele>
        <time>2025-06-12T09:41:53Z</time>
      </trkpt>
      <trkpt lat="44.62905" lon="6.13809">
        <ele>1190.8</ele>
        <time>2025-06-12T09:41:54Z</time>
      </trkpt>
      <trkpt lat="44.62903" lon="6.13807">
        <ele>1191.2</ele>
        <time>2025-06-12T09:41:55Z</time>
      </trkpt>
      <trkpt lat="44.629" lon="6.13805">
        <ele>1191.2</ele>
        <time>2025-06-12T09:41:56Z</time>
      </trkpt>
      <trkpt lat="44.62897" lon="6.13802">
        <ele>1191.4</ele>
        <time>2025-06-12T09:41:57Z</time>
      </trkpt>
      <trkpt lat="44.62895" lon="6.138">
        <ele>1191.6</ele>
        <time>2025-06-12T09:41:58Z</time>
      </trkpt>
      <trkpt lat="44.62892" lon="6.13798">
        <ele>1191.8</ele>
        <time>2025-06-12T09:41:59Z</time>
      </trkpt>
      <trkpt lat="44.6289" lon="6.13796">
        <ele>1192.2</ele>
        <time>2025-06-12T09:42:00Z</time>
      </trkpt>
      <trkpt lat="44.62887" lon="6.13794">
        <ele>1192.4</ele>
        <time>2025-06-12T09:42:01Z</time>
      </trkpt>
      <trkpt lat="44.62884" lon="6.13792">
        <ele>1192.4</ele>
        <time>2025-06-12T09:42:02Z</time>
      </trkpt>
      <trkpt lat="44.62882" lon="6.1379">
        <ele>1192.4</ele>
        <time>2025-06-12T09:42:03Z</time>
      </trkpt>
      <trkpt lat="44.62879" lon="6.13788">
        <ele>1192.6</ele>
        <time>2025-06-12T09:42:04Z</time>
      </trkpt>
      <trkpt lat="44.62877" lon="6.13786">
        <ele>1192.6</ele>
        <time>2025-06-12T09:42:05Z</time>
      </trkpt>
      <trkpt lat="44.62874" lon="6.13783">
        <ele>1192.8</ele>
        <time>2025-06-12T09:42:06Z</time>
      </trkpt>
      <trkpt lat="44.62871" lon="6.13781">
        <ele>1193</ele>
        <time>2025-06-12T09:42:07Z</time>
      </trkpt>
      <trkpt lat="44.62869" lon="6.13779">
        <ele>1193.2</ele>
        <time>2025-06-12T09:42:08Z</time>
      </trkpt>
      <trkpt lat="44.62866" lon="6.13777">
        <ele>1193.6</ele>
        <time>2025-06-12T09:42:09Z</time>
      </trkpt>
      <trkpt lat="44.62863" lon="6.13775">
        <ele>1193.8</ele>
        <time>2025-06-12T09:42:10Z</time>
      </trkpt>
      <trkpt lat="44.62861" lon="6.13774">
        <ele>1193.8</ele>
        <time>2025-06-12T09:42:11Z</time>
      </trkpt>
      <trkpt lat="44.62855" lon="6.1377">
        <ele>1194.2</ele>
        <time>2025-06-12T09:42:13Z</time>
      </trkpt>
      <trkpt lat="44.62849" lon="6.13767">
        <ele>1194.6</ele>
        <time>2025-06-12T09:42:15Z</time>
      </trkpt>
      <trkpt lat="44.62844" lon="6.13763">
        <ele>1194.8</ele>
        <time>2025-06-12T09:42:17Z</time>
      </trkpt>
      <trkpt lat="44.62838" lon="6.1376">
        <ele>1195.2</ele>
        <time>2025-06-12T09:42:19Z</time>
      </trkpt>
      <trkpt lat="44.62835" lon="6.13759">
        <ele>1195.2</ele>
        <time>2025-06-12T09:42:20Z</time>
      </trkpt>
      <trkpt lat="44.62832" lon="6.13757">
        <ele>1195.2</ele>
        <time>2025-06-12T09:42:21Z</time>
      </trkpt>
      <trkpt lat="44.62829" lon="6.13756">
        <ele>1195.4</ele>
        <time>2025-06-12T09:42:22Z</time>
      </trkpt>
      <trkpt lat="44.62826" lon="6.13755">
        <ele>1195.4</ele>
        <time>2025-06-12T09:42:23Z</time>
      </trkpt>
      <trkpt lat="44.62823" lon="6.13753">
        <ele>1195.6</ele>
        <time>2025-06-12T09:42:24Z</time>
      </trkpt>
      <trkpt lat="44.62821" lon="6.13752">
        <ele>1195.6</ele>
        <time>2025-06-12T09:42:25Z</time>
      </trkpt>
      <trkpt lat="44.62818" lon="6.13751">
        <ele>1195.8</ele>
        <time>2025-06-12T09:42:26Z</time>
      </trkpt>
      <trkpt lat="44.62815" lon="6.1375">
        <ele>1195.8</ele>
        <time>2025-06-12T09:42:27Z</time>
      </trkpt>
      <trkpt lat="44.62812" lon="6.13748">
        <ele>1196</ele>
        <time>2025-06-12T09:42:28Z</time>
      </trkpt>
      <trkpt lat="44.62809" lon="6.13747">
        <ele>1196.2</ele>
        <time>2025-06-12T09:42:29Z</time>
      </trkpt>
      <trkpt lat="44.62806" lon="6.13746">
        <ele>1196.2</ele>
        <time>2025-06-12T09:42:30Z</time>
      </trkpt>
      <trkpt lat="44.62804" lon="6.13745">
        <ele>1196.2</ele>
        <time>2025-06-12T09:42:31Z</time>
      </trkpt>
      <trkpt lat="44.62801" lon="6.13744">
        <ele>1196.4</ele>
        <time>2025-06-12T09:42:32Z</time>
      </trkpt>
      <trkpt lat="44.62795" lon="6.13741">
        <ele>1196.6</ele>
        <time>2025-06-12T09:42:34Z</time>
      </trkpt>
      <trkpt lat="44.62789" lon="6.13739">
        <ele>1197.2</ele>
        <time>2025-06-12T09:42:36Z</time>
      </trkpt>
      <trkpt lat="44.62783" lon="6.13737">
        <ele>1197.8</ele>
        <time>2025-06-12T09:42:38Z</time>
      </trkpt>
      <trkpt lat="44.62777" lon="6.13734">
        <ele>1198</ele>
        <time>2025-06-12T09:42:40Z</time>
      </trkpt>
      <trkpt lat="44.62774" lon="6.13733">
        <ele>1198</ele>
        <time>2025-06-12T09:42:41Z</time>
      </trkpt>
      <trkpt lat="44.62771" lon="6.13732">
        <ele>1198.2</ele>
        <time>2025-06-12T09:42:42Z</time>
      </trkpt>
      <trkpt lat="44.62768" lon="6.1373">
        <ele>1198.2</ele>
        <time>2025-06-12T09:42:43Z</time>
      </trkpt>
      <trkpt lat="44.62765" lon="6.13729">
        <ele>1198.4</ele>
        <time>2025-06-12T09:42:44Z</time>
      </trkpt>
      <trkpt lat="44.62762" lon="6.13728">
        <ele>1198.6</ele>
        <time>2025-06-12T09:42:45Z</time>
      </trkpt>
      <trkpt lat="44.62759" lon="6.13727">
        <ele>1198.8</ele>
        <time>2025-06-12T09:42:46Z</time>
      </trkpt>
      <trkpt lat="44.62755" lon="6.13725">
        <ele>1198.8</ele>
        <time>2025-06-12T09:42:47Z</time>
      </trkpt>
      <trkpt lat="44.62752" lon="6.13724">
        <ele>1199</ele>
        <time>2025-06-12T09:42:48Z</time>
      </trkpt>
      <trkpt lat="44.62748" lon="6.13722">
        <ele>1199.2</ele>
        <time>2025-06-12T09:42:49Z</time>
      </trkpt>
      <trkpt lat="44.62745" lon="6.13721">
        <ele>1199.4</ele>
        <time>2025-06-12T09:42:50Z</time>
      </trkpt>
      <trkpt lat="44.62741" lon="6.1372">
        <ele>1199.6</ele>
        <time>2025-06-12T09:42:51Z</time>
      </trkpt>
      <trkpt lat="44.62734" lon="6.13717">
        <ele>1199.8</ele>
        <time>2025-06-12T09:42:53Z</time>
      </trkpt>
      <trkpt lat="44.62728" lon="6.13714">
        <ele>1200</ele>
        <time>2025-06-12T09:42:55Z</time>
      </trkpt>
      <trkpt lat="44.62721" lon="6.13711">
        <ele>1200.2</ele>
        <time>2025-06-12T09:42:57Z</time>
      </trkpt>
      <trkpt lat="44.62718" lon="6.1371">
        <ele>1200.2</ele>
        <time>2025-06-12T09:42:58Z</time>
      </trkpt>
      <trkpt lat="44.62714" lon="6.13708">
        <ele>1200.4</ele>
        <time>2025-06-12T09:42:59Z</time>
      </trkpt>
      <trkpt lat="44.62708" lon="6.13706">
        <ele>1200.4</ele>
        <time>2025-06-12T09:43:01Z</time>
      </trkpt>
      <trkpt lat="44.62704" lon="6.13705">
        <ele>1200.4</ele>
        <time>2025-06-12T09:43:02Z</time>
      </trkpt>
      <trkpt lat="44.62701" lon="6.13704">
        <ele>1200.6</ele>
        <time>2025-06-12T09:43:03Z</time>
      </trkpt>
      <trkpt lat="44.62698" lon="6.13702">
        <ele>1200.6</ele>
        <time>2025-06-12T09:43:04Z</time>
      </trkpt>
      <trkpt lat="44.62694" lon="6.13701">
        <ele>1201</ele>
        <time>2025-06-12T09:43:05Z</time>
      </trkpt>
      <trkpt lat="44.62691" lon="6.13699">
        <ele>1201</ele>
        <time>2025-06-12T09:43:06Z</time>
      </trkpt>
      <trkpt lat="44.62687" lon="6.13698">
        <ele>1201.2</ele>
        <time>2025-06-12T09:43:07Z</time>
      </trkpt>
      <trkpt lat="44.62684" lon="6.13697">
        <ele>1201.2</ele>
        <time>2025-06-12T09:43:08Z</time>
      </trkpt>
      <trkpt lat="44.6268" lon="6.13695">
        <ele>1201.4</ele>
        <time>2025-06-12T09:43:09Z</time>
      </trkpt>
      <trkpt lat="44.62677" lon="6.13694">
        <ele>1201.6</ele>
        <time>2025-06-12T09:43:10Z</time>
      </trkpt>
      <trkpt lat="44.6267" lon="6.13691">
        <ele>1202</ele>
        <time>2025-06-12T09:43:12Z</time>
      </trkpt>
      <trkpt lat="44.62663" lon="6.13689">
        <ele>1202.2</ele>
        <time>2025-06-12T09:43:14Z</time>
      </trkpt>
      <trkpt lat="44.6266" lon="6.13688">
        <ele>1202.2</ele>
        <time>2025-06-12T09:43:15Z</time>
      </trkpt>
      <trkpt lat="44.62657" lon="6.13686">
        <ele>1202.4</ele>
        <time>2025-06-12T09:43:16Z</time>
      </trkpt>
      <trkpt lat="44.6265" lon="6.13684">
        <ele>1202.4</ele>
        <time>2025-06-12T09:43:18Z</time>
      </trkpt>
      <trkpt lat="44.62647" lon="6.13683">
        <ele>1202.4</ele>
        <time>2025-06-12T09:43:19Z</time>
      </trkpt>
      <trkpt lat="44.62643" lon="6.13681">
        <ele>1202.4</ele>
        <time>2025-06-12T09:43:20Z</time>
      </trkpt>
      <trkpt lat="44.6264" lon="6.1368">
        <ele>1202.4</ele>
        <time>2025-06-12T09:43:21Z</time>
      </trkpt>
      <trkpt lat="44.62636" lon="6.13679">
        <ele>1202.6</ele>
        <time>2025-06-12T09:43:22Z</time>
      </trkpt>
      <trkpt lat="44.62633" lon="6.13677">
        <ele>1202.8</ele>
        <time>2025-06-12T09:43:23Z</time>
      </trkpt>
      <trkpt lat="44.62626" lon="6.13674">
        <ele>1203</ele>
        <time>2025-06-12T09:43:25Z</time>
      </trkpt>
      <trkpt lat="44.62619" lon="6.13672">
        <ele>1203.2</ele>
        <time>2025-06-12T09:43:27Z</time>
      </trkpt>
      <trkpt lat="44.62616" lon="6.13672">
        <ele>1203.4</ele>
        <time>2025-06-12T09:43:28Z</time>
      </trkpt>
      <trkpt lat="44.62612" lon="6.1367">
        <ele>1203.4</ele>
        <time>2025-06-12T09:43:29Z</time>
      </trkpt>
      <trkpt lat="44.62608" lon="6.13669">
        <ele>1203.4</ele>
        <time>2025-06-12T09:43:30Z</time>
      </trkpt>
      <trkpt lat="44.62604" lon="6.13668">
        <ele>1203.6</ele>
        <time>2025-06-12T09:43:31Z</time>
      </trkpt>
      <trkpt lat="44.62601" lon="6.13666">
        <ele>1203.6</ele>
        <time>2025-06-12T09:43:32Z</time>
      </trkpt>
      <trkpt lat="44.62593" lon="6.13664">
        <ele>1203.8</ele>
        <time>2025-06-12T09:43:34Z</time>
      </trkpt>
      <trkpt lat="44.62586" lon="6.13663">
        <ele>1203.8</ele>
        <time>2025-06-12T09:43:36Z</time>
      </trkpt>
      <trkpt lat="44.62578" lon="6.13661">
        <ele>1203.8</ele>
        <time>2025-06-12T09:43:38Z</time>
      </trkpt>
      <trkpt lat="44.62571" lon="6.1366">
        <ele>1203.8</ele>
        <time>2025-06-12T09:43:40Z</time>
      </trkpt>
      <trkpt lat="44.62567" lon="6.13659">
        <ele>1203.8</ele>
        <time>2025-06-12T09:43:41Z</time>
      </trkpt>
      <trkpt lat="44.62563" lon="6.13659">
        <ele>1203.8</ele>
        <time>2025-06-12T09:43:42Z</time>
      </trkpt>
      <trkpt lat="44.62559" lon="6.13659">
        <ele>1203.8</ele>
        <time>2025-06-12T09:43:43Z</time>
      </trkpt>
      <trkpt lat="44.62555" lon="6.13658">
        <ele>1203.8</ele>
        <time>2025-06-12T09:43:44Z</time>
      </trkpt>
      <trkpt lat="44.62552" lon="6.13658">
        <ele>1203.8</ele>
        <time>2025-06-12T09:43:45Z</time>
      </trkpt>
      <trkpt lat="44.62544" lon="6.13658">
        <ele>1203.8</ele>
        <time>2025-06-12T09:43:47Z</time>
      </trkpt>
      <trkpt lat="44.62541" lon="6.13657">
        <ele>1203.8</ele>
        <time>2025-06-12T09:43:48Z</time>
      </trkpt>
      <trkpt lat="44.62537" lon="6.13657">
        <ele>1203.8</ele>
        <time>2025-06-12T09:43:49Z</time>
      </trkpt>
      <trkpt lat="44.6253" lon="6.13656">
        <ele>1203.8</ele>
        <time>2025-06-12T09:43:51Z</time>
      </trkpt>
      <trkpt lat="44.62526" lon="6.13656">
        <ele>1203.8</ele>
        <time>2025-06-12T09:43:52Z</time>
      </trkpt>
      <trkpt lat="44.62522" lon="6.13656">
        <ele>1203.8</ele>
        <time>2025-06-12T09:43:53Z</time>
      </trkpt>
      <trkpt lat="44.62518" lon="6.13655">
        <ele>1203.8</ele>
        <time>2025-06-12T09:43:54Z</time>
      </trkpt>
      <trkpt lat="44.62514" lon="6.13655">
        <ele>1203.8</ele>
        <time>2025-06-12T09:43:55Z</time>
      </trkpt>
      <trkpt lat="44.6251" lon="6.13655">
        <ele>1204</ele>
        <time>2025-06-12T09:43:56Z</time>
      </trkpt>
      <trkpt lat="44.62506" lon="6.13654">
        <ele>1204</ele>
        <time>2025-06-12T09:43:57Z</time>
      </trkpt>
      <trkpt lat="44.62502" lon="6.13654">
        <ele>1204.2</ele>
        <time>2025-06-12T09:43:58Z</time>
      </trkpt>
      <trkpt lat="44.62498" lon="6.13653">
        <ele>1204.4</ele>
        <time>2025-06-12T09:43:59Z</time>
      </trkpt>
      <trkpt lat="44.62494" lon="6.13653">
        <ele>1204.4</ele>
        <time>2025-06-12T09:44:00Z</time>
      </trkpt>
      <trkpt lat="44.62486" lon="6.13652">
        <ele>1204.4</ele>
        <time>2025-06-12T09:44:02Z</time>
      </trkpt>
      <trkpt lat="44.62478" lon="6.13652">
        <ele>1204.4</ele>
        <time>2025-06-12T09:44:04Z</time>
      </trkpt>
      <trkpt lat="44.62474" lon="6.13651">
        <ele>1204.6</ele>
        <time>2025-06-12T09:44:05Z</time>
      </trkpt>
      <trkpt lat="44.6247" lon="6.13651">
        <ele>1204.6</ele>
        <time>2025-06-12T09:44:06Z</time>
      </trkpt>
      <trkpt lat="44.62466" lon="6.1365">
        <ele>1204.6</ele>
        <time>2025-06-12T09:44:07Z</time>
      </trkpt>
      <trkpt lat="44.62462" lon="6.1365">
        <ele>1204.6</ele>
        <time>2025-06-12T09:44:08Z</time>
      </trkpt>
      <trkpt lat="44.62459" lon="6.13649">
        <ele>1204.6</ele>
        <time>2025-06-12T09:44:09Z</time>
      </trkpt>
      <trkpt lat="44.62455" lon="6.13649">
        <ele>1204.6</ele>
        <time>2025-06-12T09:44:10Z</time>
      </trkpt>
      <trkpt lat="44.62451" lon="6.13649">
        <ele>1204.6</ele>
        <time>2025-06-12T09:44:11Z</time>
      </trkpt>
      <trkpt lat="44.62447" lon="6.13648">
        <ele>1204.6</ele>
        <time>2025-06-12T09:44:12Z</time>
      </trkpt>
      <trkpt lat="44.62443" lon="6.13648">
        <ele>1204.8</ele>
        <time>2025-06-12T09:44:13Z</time>
      </trkpt>
      <trkpt lat="44.62439" lon="6.13647">
        <ele>1204.8</ele>
        <time>2025-06-12T09:44:14Z</time>
      </trkpt>
      <trkpt lat="44.62434" lon="6.13647">
        <ele>1204.8</ele>
        <time>2025-06-12T09:44:15Z</time>
      </trkpt>
      <trkpt lat="44.62426" lon="6.13646">
        <ele>1205</ele>
        <time>2025-06-12T09:44:17Z</time>
      </trkpt>
      <trkpt lat="44.62421" lon="6.13646">
        <ele>1205</ele>
        <time>2025-06-12T09:44:18Z</time>
      </trkpt>
      <trkpt lat="44.62417" lon="6.13645">
        <ele>1205</ele>
        <time>2025-06-12T09:44:19Z</time>
      </trkpt>
      <trkpt lat="44.62412" lon="6.13644">
        <ele>1205</ele>
        <time>2025-06-12T09:44:20Z</time>
      </trkpt>
      <trkpt lat="44.62407" lon="6.13644">
        <ele>1205</ele>
        <time>2025-06-12T09:44:21Z</time>
      </trkpt>
      <trkpt lat="44.62402" lon="6.13643">
        <ele>1205</ele>
        <time>2025-06-12T09:44:22Z</time>
      </trkpt>
      <trkpt lat="44.62397" lon="6.13643">
        <ele>1205</ele>
        <time>2025-06-12T09:44:23Z</time>
      </trkpt>
      <trkpt lat="44.62392" lon="6.13642">
        <ele>1205</ele>
        <time>2025-06-12T09:44:24Z</time>
      </trkpt>
      <trkpt lat="44.62382" lon="6.13641">
        <ele>1205</ele>
        <time>2025-06-12T09:44:26Z</time>
      </trkpt>
      <trkpt lat="44.62377" lon="6.13641">
        <ele>1205</ele>
        <time>2025-06-12T09:44:27Z</time>
      </trkpt>
      <trkpt lat="44.62372" lon="6.1364">
        <ele>1205</ele>
        <time>2025-06-12T09:44:28Z</time>
      </trkpt>
      <trkpt lat="44.62366" lon="6.1364">
        <ele>1205</ele>
        <time>2025-06-12T09:44:29Z</time>
      </trkpt>
      <trkpt lat="44.62356" lon="6.13639">
        <ele>1205</ele>
        <time>2025-06-12T09:44:31Z</time>
      </trkpt>
      <trkpt lat="44.62346" lon="6.13637">
        <ele>1205</ele>
        <time>2025-06-12T09:44:33Z</time>
      </trkpt>
      <trkpt lat="44.62341" lon="6.13636">
        <ele>1205</ele>
        <time>2025-06-12T09:44:34Z</time>
      </trkpt>
      <trkpt lat="44.62335" lon="6.13634">
        <ele>1205</ele>
        <time>2025-06-12T09:44:35Z</time>
      </trkpt>
      <trkpt lat="44.6233" lon="6.13633">
        <ele>1205</ele>
        <time>2025-06-12T09:44:36Z</time>
      </trkpt>
      <trkpt lat="44.6232" lon="6.1363">
        <ele>1205</ele>
        <time>2025-06-12T09:44:38Z</time>
      </trkpt>
      <trkpt lat="44.6231" lon="6.13626">
        <ele>1205</ele>
        <time>2025-06-12T09:44:40Z</time>
      </trkpt>
      <trkpt lat="44.62305" lon="6.13624">
        <ele>1205</ele>
        <time>2025-06-12T09:44:41Z</time>
      </trkpt>
      <trkpt lat="44.62295" lon="6.1362">
        <ele>1205</ele>
        <time>2025-06-12T09:44:43Z</time>
      </trkpt>
      <trkpt lat="44.62285" lon="6.13615">
        <ele>1204.8</ele>
        <time>2025-06-12T09:44:45Z</time>
      </trkpt>
      <trkpt lat="44.6228" lon="6.13613">
        <ele>1204.8</ele>
        <time>2025-06-12T09:44:46Z</time>
      </trkpt>
      <trkpt lat="44.62275" lon="6.1361">
        <ele>1204.8</ele>
        <time>2025-06-12T09:44:47Z</time>
      </trkpt>
      <trkpt lat="44.62271" lon="6.13608">
        <ele>1204.8</ele>
        <time>2025-06-12T09:44:48Z</time>
      </trkpt>
      <trkpt lat="44.62266" lon="6.13605">
        <ele>1204.8</ele>
        <time>2025-06-12T09:44:49Z</time>
      </trkpt>
      <trkpt lat="44.62261" lon="6.13603">
        <ele>1204.8</ele>
        <time>2025-06-12T09:44:50Z</time>
      </trkpt>
      <trkpt lat="44.62256" lon="6.136">
        <ele>1204.8</ele>
        <time>2025-06-12T09:44:51Z</time>
      </trkpt>
      <trkpt lat="44.62251" lon="6.13598">
        <ele>1204.8</ele>
        <time>2025-06-12T09:44:52Z</time>
      </trkpt>
      <trkpt lat="44.62246" lon="6.13596">
        <ele>1204.8</ele>
        <time>2025-06-12T09:44:53Z</time>
      </trkpt>
      <trkpt lat="44.62241" lon="6.13593">
        <ele>1204.6</ele>
        <time>2025-06-12T09:44:54Z</time>
      </trkpt>
      <trkpt lat="44.62236" lon="6.13591">
        <ele>1204.6</ele>
        <time>2025-06-12T09:44:55Z</time>
      </trkpt>
      <trkpt lat="44.62231" lon="6.13588">
        <ele>1204.6</ele>
        <time>2025-06-12T09:44:56Z</time>
      </trkpt>
      <trkpt lat="44.62221" lon="6.13583">
        <ele>1204.6</ele>
        <time>2025-06-12T09:44:58Z</time>
      </trkpt>
      <trkpt lat="44.6221" lon="6.13577">
        <ele>1204.6</ele>
        <time>2025-06-12T09:45:00Z</time>
      </trkpt>
      <trkpt lat="44.62204" lon="6.13574">
        <ele>1204.6</ele>
        <time>2025-06-12T09:45:01Z</time>
      </trkpt>
      <trkpt lat="44.62198" lon="6.13571">
        <ele>1204.6</ele>
        <time>2025-06-12T09:45:02Z</time>
      </trkpt>
      <trkpt lat="44.62192" lon="6.13568">
        <ele>1204.6</ele>
        <time>2025-06-12T09:45:03Z</time>
      </trkpt>
      <trkpt lat="44.62186" lon="6.13565">
        <ele>1204.6</ele>
        <time>2025-06-12T09:45:04Z</time>
      </trkpt>
      <trkpt lat="44.6218" lon="6.13562">
        <ele>1204.6</ele>
        <time>2025-06-12T09:45:05Z</time>
      </trkpt>
      <trkpt lat="44.62174" lon="6.13558">
        <ele>1204.4</ele>
        <time>2025-06-12T09:45:06Z</time>
      </trkpt>
      <trkpt lat="44.62167" lon="6.13555">
        <ele>1204.2</ele>
        <time>2025-06-12T09:45:07Z</time>
      </trkpt>
      <trkpt lat="44.62154" lon="6.13549">
        <ele>1203.6</ele>
        <time>2025-06-12T09:45:09Z</time>
      </trkpt>
      <trkpt lat="44.62148" lon="6.13546">
        <ele>1203.2</ele>
        <time>2025-06-12T09:45:10Z</time>
      </trkpt>
      <trkpt lat="44.62141" lon="6.13542">
        <ele>1202.8</ele>
        <time>2025-06-12T09:45:11Z</time>
      </trkpt>
      <trkpt lat="44.62135" lon="6.13539">
        <ele>1202.4</ele>
        <time>2025-06-12T09:45:12Z</time>
      </trkpt>
      <trkpt lat="44.62129" lon="6.13535">
        <ele>1202.4</ele>
        <time>2025-06-12T09:45:13Z</time>
      </trkpt>
      <trkpt lat="44.62123" lon="6.13532">
        <ele>1202.2</ele>
        <time>2025-06-12T09:45:14Z</time>
      </trkpt>
      <trkpt lat="44.62117" lon="6.13528">
        <ele>1202</ele>
        <time>2025-06-12T09:45:15Z</time>
      </trkpt>
      <trkpt lat="44.62111" lon="6.13523">
        <ele>1201.8</ele>
        <time>2025-06-12T09:45:16Z</time>
      </trkpt>
      <trkpt lat="44.62105" lon="6.13519">
        <ele>1201.6</ele>
        <time>2025-06-12T09:45:17Z</time>
      </trkpt>
      <trkpt lat="44.62099" lon="6.13516">
        <ele>1201.4</ele>
        <time>2025-06-12T09:45:18Z</time>
      </trkpt>
      <trkpt lat="44.62094" lon="6.13512">
        <ele>1201.2</ele>
        <time>2025-06-12T09:45:19Z</time>
      </trkpt>
      <trkpt lat="44.62088" lon="6.13509">
        <ele>1201.2</ele>
        <time>2025-06-12T09:45:20Z</time>
      </trkpt>
      <trkpt lat="44.62082" lon="6.13506">
        <ele>1201.2</ele>
        <time>2025-06-12T09:45:21Z</time>
      </trkpt>
      <trkpt lat="44.62077" lon="6.13503">
        <ele>1201.2</ele>
        <time>2025-06-12T09:45:22Z</time>
      </trkpt>
      <trkpt lat="44.62072" lon="6.135">
        <ele>1201.2</ele>
        <time>2025-06-12T09:45:23Z</time>
      </trkpt>
      <trkpt lat="44.62066" lon="6.13497">
        <ele>1201.2</ele>
        <time>2025-06-12T09:45:24Z</time>
      </trkpt>
      <trkpt lat="44.62061" lon="6.13494">
        <ele>1201.2</ele>
        <time>2025-06-12T09:45:25Z</time>
      </trkpt>
      <trkpt lat="44.62056" lon="6.13491">
        <ele>1201.4</ele>
        <time>2025-06-12T09:45:26Z</time>
      </trkpt>
      <trkpt lat="44.62051" lon="6.13488">
        <ele>1201.4</ele>
        <time>2025-06-12T09:45:27Z</time>
      </trkpt>
      <trkpt lat="44.6204" lon="6.13483">
        <ele>1202</ele>
        <time>2025-06-12T09:45:29Z</time>
      </trkpt>
      <trkpt lat="44.62031" lon="6.13478">
        <ele>1202.2</ele>
        <time>2025-06-12T09:45:31Z</time>
      </trkpt>
      <trkpt lat="44.62022" lon="6.13474">
        <ele>1202.6</ele>
        <time>2025-06-12T09:45:33Z</time>
      </trkpt>
      <trkpt lat="44.62013" lon="6.1347">
        <ele>1203.2</ele>
        <time>2025-06-12T09:45:35Z</time>
      </trkpt>
      <trkpt lat="44.62008" lon="6.13469">
        <ele>1203.6</ele>
        <time>2025-06-12T09:45:36Z</time>
      </trkpt>
      <trkpt lat="44.62004" lon="6.13467">
        <ele>1203.8</ele>
        <time>2025-06-12T09:45:37Z</time>
      </trkpt>
      <trkpt lat="44.61996" lon="6.13464">
        <ele>1204</ele>
        <time>2025-06-12T09:45:39Z</time>
      </trkpt>
      <trkpt lat="44.61992" lon="6.13462">
        <ele>1204</ele>
        <time>2025-06-12T09:45:40Z</time>
      </trkpt>
      <trkpt lat="44.61988" lon="6.13461">
        <ele>1204.2</ele>
        <time>2025-06-12T09:45:41Z</time>
      </trkpt>
      <trkpt lat="44.61984" lon="6.1346">
        <ele>1204.2</ele>
        <time>2025-06-12T09:45:42Z</time>
      </trkpt>
      <trkpt lat="44.6198" lon="6.13458">
        <ele>1204.4</ele>
        <time>2025-06-12T09:45:43Z</time>
      </trkpt>
      <trkpt lat="44.61976" lon="6.13457">
        <ele>1204.8</ele>
        <time>2025-06-12T09:45:44Z</time>
      </trkpt>
      <trkpt lat="44.61972" lon="6.13456">
        <ele>1205.2</ele>
        <time>2025-06-12T09:45:45Z</time>
      </trkpt>
      <trkpt lat="44.61969" lon="6.13455">
        <ele>1205.4</ele>
        <time>2025-06-12T09:45:46Z</time>
      </trkpt>
      <trkpt lat="44.61965" lon="6.13454">
        <ele>1205.8</ele>
        <time>2025-06-12T09:45:47Z</time>
      </trkpt>
      <trkpt lat="44.61961" lon="6.13453">
        <ele>1206.2</ele>
        <time>2025-06-12T09:45:48Z</time>
      </trkpt>
      <trkpt lat="44.61957" lon="6.13452">
        <ele>1206.6</ele>
        <time>2025-06-12T09:45:49Z</time>
      </trkpt>
      <trkpt lat="44.61954" lon="6.13451">
        <ele>1206.8</ele>
        <time>2025-06-12T09:45:50Z</time>
      </trkpt>
      <trkpt lat="44.6195" lon="6.1345">
        <ele>1207</ele>
        <time>2025-06-12T09:45:51Z</time>
      </trkpt>
      <trkpt lat="44.61946" lon="6.13449">
        <ele>1207.2</ele>
        <time>2025-06-12T09:45:52Z</time>
      </trkpt>
      <trkpt lat="44.61943" lon="6.13449">
        <ele>1207.4</ele>
        <time>2025-06-12T09:45:53Z</time>
      </trkpt>
      <trkpt lat="44.61939" lon="6.13448">
        <ele>1207.6</ele>
        <time>2025-06-12T09:45:54Z</time>
      </trkpt>
      <trkpt lat="44.61931" lon="6.13447">
        <ele>1207.8</ele>
        <time>2025-06-12T09:45:56Z</time>
      </trkpt>
      <trkpt lat="44.61923" lon="6.13447">
        <ele>1208.2</ele>
        <time>2025-06-12T09:45:58Z</time>
      </trkpt>
      <trkpt lat="44.6192" lon="6.13447">
        <ele>1208.4</ele>
        <time>2025-06-12T09:45:59Z</time>
      </trkpt>
      <trkpt lat="44.61916" lon="6.13447">
        <ele>1208.6</ele>
        <time>2025-06-12T09:46:00Z</time>
      </trkpt>
      <trkpt lat="44.61912" lon="6.13447">
        <ele>1208.8</ele>
        <time>2025-06-12T09:46:01Z</time>
      </trkpt>
      <trkpt lat="44.61908" lon="6.13448">
        <ele>1209</ele>
        <time>2025-06-12T09:46:02Z</time>
      </trkpt>
      <trkpt lat="44.61904" lon="6.13448">
        <ele>1209.2</ele>
        <time>2025-06-12T09:46:03Z</time>
      </trkpt>
      <trkpt lat="44.619" lon="6.13448">
        <ele>1209.4</ele>
        <time>2025-06-12T09:46:04Z</time>
      </trkpt>
      <trkpt lat="44.61896" lon="6.13449">
        <ele>1209.6</ele>
        <time>2025-06-12T09:46:05Z</time>
      </trkpt>
      <trkpt lat="44.61888" lon="6.13451">
        <ele>1210</ele>
        <time>2025-06-12T09:46:07Z</time>
      </trkpt>
      <trkpt lat="44.61881" lon="6.13452">
        <ele>1210.4</ele>
        <time>2025-06-12T09:46:09Z</time>
      </trkpt>
      <trkpt lat="44.61877" lon="6.13453">
        <ele>1210.4</ele>
        <time>2025-06-12T09:46:10Z</time>
      </trkpt>
      <trkpt lat="44.61874" lon="6.13454">
        <ele>1210.6</ele>
        <time>2025-06-12T09:46:11Z</time>
      </trkpt>
      <trkpt lat="44.6187" lon="6.13456">
        <ele>1210.6</ele>
        <time>2025-06-12T09:46:12Z</time>
      </trkpt>
      <trkpt lat="44.61866" lon="6.13457">
        <ele>1210.8</ele>
        <time>2025-06-12T09:46:13Z</time>
      </trkpt>
      <trkpt lat="44.61863" lon="6.13459">
        <ele>1211</ele>
        <time>2025-06-12T09:46:14Z</time>
      </trkpt>
      <trkpt lat="44.61859" lon="6.13461">
        <ele>1211</ele>
        <time>2025-06-12T09:46:15Z</time>
      </trkpt>
      <trkpt lat="44.61855" lon="6.13462">
        <ele>1211.4</ele>
        <time>2025-06-12T09:46:16Z</time>
      </trkpt>
      <trkpt lat="44.61848" lon="6.13466">
        <ele>1211.6</ele>
        <time>2025-06-12T09:46:18Z</time>
      </trkpt>
      <trkpt lat="44.61841" lon="6.1347">
        <ele>1212</ele>
        <time>2025-06-12T09:46:20Z</time>
      </trkpt>
      <trkpt lat="44.61837" lon="6.13473">
        <ele>1212.2</ele>
        <time>2025-06-12T09:46:21Z</time>
      </trkpt>
      <trkpt lat="44.61834" lon="6.13476">
        <ele>1212.4</ele>
        <time>2025-06-12T09:46:22Z</time>
      </trkpt>
      <trkpt lat="44.6183" lon="6.13479">
        <ele>1212.4</ele>
        <time>2025-06-12T09:46:23Z</time>
      </trkpt>
      <trkpt lat="44.61827" lon="6.13482">
        <ele>1212.6</ele>
        <time>2025-06-12T09:46:24Z</time>
      </trkpt>
      <trkpt lat="44.61823" lon="6.13485">
        <ele>1212.6</ele>
        <time>2025-06-12T09:46:25Z</time>
      </trkpt>
      <trkpt lat="44.61819" lon="6.13489">
        <ele>1212.6</ele>
        <time>2025-06-12T09:46:26Z</time>
      </trkpt>
      <trkpt lat="44.61815" lon="6.13493">
        <ele>1212.8</ele>
        <time>2025-06-12T09:46:27Z</time>
      </trkpt>
      <trkpt lat="44.61807" lon="6.13502">
        <ele>1212.8</ele>
        <time>2025-06-12T09:46:29Z</time>
      </trkpt>
      <trkpt lat="44.61803" lon="6.13506">
        <ele>1212.8</ele>
        <time>2025-06-12T09:46:30Z</time>
      </trkpt>
      <trkpt lat="44.618" lon="6.13511">
        <ele>1212.8</ele>
        <time>2025-06-12T09:46:31Z</time>
      </trkpt>
      <trkpt lat="44.61796" lon="6.13515">
        <ele>1213</ele>
        <time>2025-06-12T09:46:32Z</time>
      </trkpt>
      <trkpt lat="44.61792" lon="6.1352">
        <ele>1213</ele>
        <time>2025-06-12T09:46:33Z</time>
      </trkpt>
      <trkpt lat="44.61788" lon="6.13525">
        <ele>1213</ele>
        <time>2025-06-12T09:46:34Z</time>
      </trkpt>
      <trkpt lat="44.61784" lon="6.13529">
        <ele>1213</ele>
        <time>2025-06-12T09:46:35Z</time>
      </trkpt>
      <trkpt lat="44.6178" lon="6.13534">
        <ele>1213</ele>
        <time>2025-06-12T09:46:36Z</time>
      </trkpt>
      <trkpt lat="44.61776" lon="6.13539">
        <ele>1213</ele>
        <time>2025-06-12T09:46:37Z</time>
      </trkpt>
      <trkpt lat="44.61773" lon="6.13544">
        <ele>1213</ele>
        <time>2025-06-12T09:46:38Z</time>
      </trkpt>
      <trkpt lat="44.61765" lon="6.13552">
        <ele>1213</ele>
        <time>2025-06-12T09:46:40Z</time>
      </trkpt>
      <trkpt lat="44.61761" lon="6.13557">
        <ele>1213</ele>
        <time>2025-06-12T09:46:41Z</time>
      </trkpt>
      <trkpt lat="44.61758" lon="6.13562">
        <ele>1213</ele>
        <time>2025-06-12T09:46:42Z</time>
      </trkpt>
      <trkpt lat="44.61754" lon="6.13566">
        <ele>1213</ele>
        <time>2025-06-12T09:46:43Z</time>
      </trkpt>
      <trkpt lat="44.6175" lon="6.13571">
        <ele>1213</ele>
        <time>2025-06-12T09:46:44Z</time>
      </trkpt>
      <trkpt lat="44.61747" lon="6.13575">
        <ele>1213</ele>
        <time>2025-06-12T09:46:45Z</time>
      </trkpt>
      <trkpt lat="44.61743" lon="6.13579">
        <ele>1213.2</ele>
        <time>2025-06-12T09:46:46Z</time>
      </trkpt>
      <trkpt lat="44.6174" lon="6.13583">
        <ele>1213.2</ele>
        <time>2025-06-12T09:46:47Z</time>
      </trkpt>
      <trkpt lat="44.61736" lon="6.13588">
        <ele>1213.2</ele>
        <time>2025-06-12T09:46:48Z</time>
      </trkpt>
      <trkpt lat="44.61733" lon="6.13592">
        <ele>1213.2</ele>
        <time>2025-06-12T09:46:49Z</time>
      </trkpt>
      <trkpt lat="44.61729" lon="6.13596">
        <ele>1213.2</ele>
        <time>2025-06-12T09:46:50Z</time>
      </trkpt>
      <trkpt lat="44.61725" lon="6.136">
        <ele>1213.4</ele>
        <time>2025-06-12T09:46:51Z</time>
      </trkpt>
      <trkpt lat="44.61722" lon="6.13604">
        <ele>1213.4</ele>
        <time>2025-06-12T09:46:52Z</time>
      </trkpt>
      <trkpt lat="44.61718" lon="6.13608">
        <ele>1213.4</ele>
        <time>2025-06-12T09:46:53Z</time>
      </trkpt>
      <trkpt lat="44.6171" lon="6.13614">
        <ele>1213.6</ele>
        <time>2025-06-12T09:46:55Z</time>
      </trkpt>
      <trkpt lat="44.61706" lon="6.13617">
        <ele>1213.8</ele>
        <time>2025-06-12T09:46:56Z</time>
      </trkpt>
      <trkpt lat="44.61701" lon="6.1362">
        <ele>1214</ele>
        <time>2025-06-12T09:46:57Z</time>
      </trkpt>
      <trkpt lat="44.61697" lon="6.13623">
        <ele>1214.4</ele>
        <time>2025-06-12T09:46:58Z</time>
      </trkpt>
      <trkpt lat="44.61693" lon="6.13626">
        <ele>1214.6</ele>
        <time>2025-06-12T09:46:59Z</time>
      </trkpt>
      <trkpt lat="44.61689" lon="6.13628">
        <ele>1214.8</ele>
        <time>2025-06-12T09:47:00Z</time>
      </trkpt>
      <trkpt lat="44.61685" lon="6.1363">
        <ele>1215</ele>
        <time>2025-06-12T09:47:01Z</time>
      </trkpt>
      <trkpt lat="44.61681" lon="6.13633">
        <ele>1215.2</ele>
        <time>2025-06-12T09:47:02Z</time>
      </trkpt>
      <trkpt lat="44.61673" lon="6.13638">
        <ele>1215.6</ele>
        <time>2025-06-12T09:47:04Z</time>
      </trkpt>
      <trkpt lat="44.61669" lon="6.1364">
        <ele>1215.8</ele>
        <time>2025-06-12T09:47:05Z</time>
      </trkpt>
      <trkpt lat="44.61664" lon="6.13642">
        <ele>1216</ele>
        <time>2025-06-12T09:47:06Z</time>
      </trkpt>
      <trkpt lat="44.6166" lon="6.13644">
        <ele>1216.2</ele>
        <time>2025-06-12T09:47:07Z</time>
      </trkpt>
      <trkpt lat="44.61656" lon="6.13646">
        <ele>1216.4</ele>
        <time>2025-06-12T09:47:08Z</time>
      </trkpt>
      <trkpt lat="44.61652" lon="6.13648">
        <ele>1216.4</ele>
        <time>2025-06-12T09:47:09Z</time>
      </trkpt>
      <trkpt lat="44.61648" lon="6.1365">
        <ele>1216.6</ele>
        <time>2025-06-12T09:47:10Z</time>
      </trkpt>
      <trkpt lat="44.61644" lon="6.13652">
        <ele>1217</ele>
        <time>2025-06-12T09:47:11Z</time>
      </trkpt>
      <trkpt lat="44.6164" lon="6.13655">
        <ele>1217.2</ele>
        <time>2025-06-12T09:47:12Z</time>
      </trkpt>
      <trkpt lat="44.61636" lon="6.13657">
        <ele>1217.4</ele>
        <time>2025-06-12T09:47:13Z</time>
      </trkpt>
      <trkpt lat="44.61628" lon="6.13662">
        <ele>1217.6</ele>
        <time>2025-06-12T09:47:15Z</time>
      </trkpt>
      <trkpt lat="44.6162" lon="6.13666">
        <ele>1218</ele>
        <time>2025-06-12T09:47:17Z</time>
      </trkpt>
      <trkpt lat="44.61616" lon="6.13669">
        <ele>1218.2</ele>
        <time>2025-06-12T09:47:18Z</time>
      </trkpt>
      <trkpt lat="44.61612" lon="6.13671">
        <ele>1218.4</ele>
        <time>2025-06-12T09:47:19Z</time>
      </trkpt>
      <trkpt lat="44.61608" lon="6.13673">
        <ele>1218.6</ele>
        <time>2025-06-12T09:47:20Z</time>
      </trkpt>
      <trkpt lat="44.61604" lon="6.13675">
        <ele>1218.8</ele>
        <time>2025-06-12T09:47:21Z</time>
      </trkpt>
      <trkpt lat="44.61599" lon="6.13677">
        <ele>1218.8</ele>
        <time>2025-06-12T09:47:22Z</time>
      </trkpt>
      <trkpt lat="44.61592" lon="6.13682">
        <ele>1219</ele>
        <time>2025-06-12T09:47:24Z</time>
      </trkpt>
      <trkpt lat="44.61583" lon="6.13687">
        <ele>1219.4</ele>
        <time>2025-06-12T09:47:26Z</time>
      </trkpt>
      <trkpt lat="44.61579" lon="6.13689">
        <ele>1219.6</ele>
        <time>2025-06-12T09:47:27Z</time>
      </trkpt>
      <trkpt lat="44.61575" lon="6.13691">
        <ele>1219.8</ele>
        <time>2025-06-12T09:47:28Z</time>
      </trkpt>
      <trkpt lat="44.61571" lon="6.13694">
        <ele>1220</ele>
        <time>2025-06-12T09:47:29Z</time>
      </trkpt>
      <trkpt lat="44.61567" lon="6.13696">
        <ele>1220</ele>
        <time>2025-06-12T09:47:30Z</time>
      </trkpt>
      <trkpt lat="44.61563" lon="6.13698">
        <ele>1220.2</ele>
        <time>2025-06-12T09:47:31Z</time>
      </trkpt>
      <trkpt lat="44.61559" lon="6.13701">
        <ele>1220.2</ele>
        <time>2025-06-12T09:47:32Z</time>
      </trkpt>
      <trkpt lat="44.61555" lon="6.13703">
        <ele>1220.2</ele>
        <time>2025-06-12T09:47:33Z</time>
      </trkpt>
      <trkpt lat="44.61551" lon="6.13705">
        <ele>1220.2</ele>
        <time>2025-06-12T09:47:34Z</time>
      </trkpt>
      <trkpt lat="44.61547" lon="6.13707">
        <ele>1220.4</ele>
        <time>2025-06-12T09:47:35Z</time>
      </trkpt>
      <trkpt lat="44.61543" lon="6.13709">
        <ele>1220.4</ele>
        <time>2025-06-12T09:47:36Z</time>
      </trkpt>
      <trkpt lat="44.6154" lon="6.13712">
        <ele>1220.6</ele>
        <time>2025-06-12T09:47:37Z</time>
      </trkpt>
      <trkpt lat="44.61532" lon="6.13717">
        <ele>1221.2</ele>
        <time>2025-06-12T09:47:39Z</time>
      </trkpt>
      <trkpt lat="44.61524" lon="6.1372">
        <ele>1221.4</ele>
        <time>2025-06-12T09:47:41Z</time>
      </trkpt>
      <trkpt lat="44.6152" lon="6.13722">
        <ele>1221.4</ele>
        <time>2025-06-12T09:47:42Z</time>
      </trkpt>
      <trkpt lat="44.61516" lon="6.13725">
        <ele>1221.6</ele>
        <time>2025-06-12T09:47:43Z</time>
      </trkpt>
      <trkpt lat="44.61512" lon="6.13727">
        <ele>1221.8</ele>
        <time>2025-06-12T09:47:44Z</time>
      </trkpt>
      <trkpt lat="44.61508" lon="6.1373">
        <ele>1221.8</ele>
        <time>2025-06-12T09:47:45Z</time>
      </trkpt>
      <trkpt lat="44.61504" lon="6.13732">
        <ele>1222</ele>
        <time>2025-06-12T09:47:46Z</time>
      </trkpt>
      <trkpt lat="44.61496" lon="6.13736">
        <ele>1222.2</ele>
        <time>2025-06-12T09:47:48Z</time>
      </trkpt>
      <trkpt lat="44.61488" lon="6.1374">
        <ele>1222.4</ele>
        <time>2025-06-12T09:47:50Z</time>
      </trkpt>
      <trkpt lat="44.6148" lon="6.13742">
        <ele>1223</ele>
        <time>2025-06-12T09:47:52Z</time>
      </trkpt>
      <trkpt lat="44.61476" lon="6.13743">
        <ele>1223</ele>
        <time>2025-06-12T09:47:53Z</time>
      </trkpt>
      <trkpt lat="44.61472" lon="6.13744">
        <ele>1223.2</ele>
        <time>2025-06-12T09:47:54Z</time>
      </trkpt>
      <trkpt lat="44.61467" lon="6.13743">
        <ele>1223.2</ele>
        <time>2025-06-12T09:47:55Z</time>
      </trkpt>
      <trkpt lat="44.61463" lon="6.13742">
        <ele>1223.2</ele>
        <time>2025-06-12T09:47:56Z</time>
      </trkpt>
      <trkpt lat="44.61459" lon="6.1374">
        <ele>1223.4</ele>
        <time>2025-06-12T09:47:57Z</time>
      </trkpt>
      <trkpt lat="44.61455" lon="6.13739">
        <ele>1223.6</ele>
        <time>2025-06-12T09:47:58Z</time>
      </trkpt>
      <trkpt lat="44.61451" lon="6.13737">
        <ele>1223.8</ele>
        <time>2025-06-12T09:47:59Z</time>
      </trkpt>
      <trkpt lat="44.61446" lon="6.13735">
        <ele>1223.8</ele>
        <time>2025-06-12T09:48:00Z</time>
      </trkpt>
      <trkpt lat="44.61443" lon="6.13731">
        <ele>1224</ele>
        <time>2025-06-12T09:48:01Z</time>
      </trkpt>
      <trkpt lat="44.61439" lon="6.13727">
        <ele>1224.2</ele>
        <time>2025-06-12T09:48:02Z</time>
      </trkpt>
      <trkpt lat="44.61436" lon="6.13723">
        <ele>1224.2</ele>
        <time>2025-06-12T09:48:03Z</time>
      </trkpt>
      <trkpt lat="44.61432" lon="6.13718">
        <ele>1224.4</ele>
        <time>2025-06-12T09:48:04Z</time>
      </trkpt>
      <trkpt lat="44.61429" lon="6.13713">
        <ele>1224.4</ele>
        <time>2025-06-12T09:48:05Z</time>
      </trkpt>
      <trkpt lat="44.61426" lon="6.13709">
        <ele>1224.6</ele>
        <time>2025-06-12T09:48:06Z</time>
      </trkpt>
      <trkpt lat="44.61424" lon="6.13704">
        <ele>1224.8</ele>
        <time>2025-06-12T09:48:07Z</time>
      </trkpt>
      <trkpt lat="44.61421" lon="6.13699">
        <ele>1224.8</ele>
        <time>2025-06-12T09:48:08Z</time>
      </trkpt>
      <trkpt lat="44.61418" lon="6.13695">
        <ele>1225</ele>
        <time>2025-06-12T09:48:09Z</time>
      </trkpt>
      <trkpt lat="44.61415" lon="6.1369">
        <ele>1225</ele>
        <time>2025-06-12T09:48:10Z</time>
      </trkpt>
      <trkpt lat="44.61409" lon="6.13681">
        <ele>1225.2</ele>
        <time>2025-06-12T09:48:12Z</time>
      </trkpt>
      <trkpt lat="44.61403" lon="6.13672">
        <ele>1225.6</ele>
        <time>2025-06-12T09:48:14Z</time>
      </trkpt>
      <trkpt lat="44.614" lon="6.13667">
        <ele>1225.6</ele>
        <time>2025-06-12T09:48:15Z</time>
      </trkpt>
      <trkpt lat="44.61397" lon="6.13662">
        <ele>1226</ele>
        <time>2025-06-12T09:48:16Z</time>
      </trkpt>
      <trkpt lat="44.61394" lon="6.13657">
        <ele>1226</ele>
        <time>2025-06-12T09:48:17Z</time>
      </trkpt>
      <trkpt lat="44.61391" lon="6.13652">
        <ele>1226.2</ele>
        <time>2025-06-12T09:48:18Z</time>
      </trkpt>
      <trkpt lat="44.61388" lon="6.13647">
        <ele>1226.4</ele>
        <time>2025-06-12T09:48:19Z</time>
      </trkpt>
      <trkpt lat="44.61382" lon="6.13638">
        <ele>1226.8</ele>
        <time>2025-06-12T09:48:21Z</time>
      </trkpt>
      <trkpt lat="44.61376" lon="6.13628">
        <ele>1226.8</ele>
        <time>2025-06-12T09:48:23Z</time>
      </trkpt>
      <trkpt lat="44.61371" lon="6.13619">
        <ele>1227</ele>
        <time>2025-06-12T09:48:25Z</time>
      </trkpt>
      <trkpt lat="44.61368" lon="6.13614">
        <ele>1227.4</ele>
        <time>2025-06-12T09:48:26Z</time>
      </trkpt>
      <trkpt lat="44.61365" lon="6.1361">
        <ele>1227.8</ele>
        <time>2025-06-12T09:48:27Z</time>
      </trkpt>
      <trkpt lat="44.61362" lon="6.13605">
        <ele>1228</ele>
        <time>2025-06-12T09:48:28Z</time>
      </trkpt>
      <trkpt lat="44.61359" lon="6.136">
        <ele>1228.2</ele>
        <time>2025-06-12T09:48:29Z</time>
      </trkpt>
      <trkpt lat="44.61356" lon="6.13596">
        <ele>1228.4</ele>
        <time>2025-06-12T09:48:30Z</time>
      </trkpt>
      <trkpt lat="44.61353" lon="6.13591">
        <ele>1228.6</ele>
        <time>2025-06-12T09:48:31Z</time>
      </trkpt>
      <trkpt lat="44.6135" lon="6.13586">
        <ele>1228.6</ele>
        <time>2025-06-12T09:48:32Z</time>
      </trkpt>
      <trkpt lat="44.61347" lon="6.13581">
        <ele>1228.8</ele>
        <time>2025-06-12T09:48:33Z</time>
      </trkpt>
      <trkpt lat="44.61344" lon="6.13575">
        <ele>1229</ele>
        <time>2025-06-12T09:48:34Z</time>
      </trkpt>
      <trkpt lat="44.61337" lon="6.13565">
        <ele>1229.2</ele>
        <time>2025-06-12T09:48:36Z</time>
      </trkpt>
      <trkpt lat="44.61334" lon="6.1356">
        <ele>1229.2</ele>
        <time>2025-06-12T09:48:37Z</time>
      </trkpt>
      <trkpt lat="44.61331" lon="6.13554">
        <ele>1229.4</ele>
        <time>2025-06-12T09:48:38Z</time>
      </trkpt>
      <trkpt lat="44.61324" lon="6.13544">
        <ele>1229.4</ele>
        <time>2025-06-12T09:48:40Z</time>
      </trkpt>
      <trkpt lat="44.61321" lon="6.13539">
        <ele>1229.4</ele>
        <time>2025-06-12T09:48:41Z</time>
      </trkpt>
      <trkpt lat="44.61318" lon="6.13534">
        <ele>1229.6</ele>
        <time>2025-06-12T09:48:42Z</time>
      </trkpt>
      <trkpt lat="44.61315" lon="6.13529">
        <ele>1229.6</ele>
        <time>2025-06-12T09:48:43Z</time>
      </trkpt>
      <trkpt lat="44.61312" lon="6.13524">
        <ele>1229.8</ele>
        <time>2025-06-12T09:48:44Z</time>
      </trkpt>
      <trkpt lat="44.61308" lon="6.13519">
        <ele>1229.8</ele>
        <time>2025-06-12T09:48:45Z</time>
      </trkpt>
      <trkpt lat="44.61302" lon="6.13509">
        <ele>1230</ele>
        <time>2025-06-12T09:48:47Z</time>
      </trkpt>
      <trkpt lat="44.61296" lon="6.13499">
        <ele>1230.2</ele>
        <time>2025-06-12T09:48:49Z</time>
      </trkpt>
      <trkpt lat="44.61293" lon="6.13494">
        <ele>1230.4</ele>
        <time>2025-06-12T09:48:50Z</time>
      </trkpt>
      <trkpt lat="44.6129" lon="6.1349">
        <ele>1230.6</ele>
        <time>2025-06-12T09:48:51Z</time>
      </trkpt>
      <trkpt lat="44.61287" lon="6.13485">
        <ele>1230.8</ele>
        <time>2025-06-12T09:48:52Z</time>
      </trkpt>
      <trkpt lat="44.61283" lon="6.13481">
        <ele>1230.8</ele>
        <time>2025-06-12T09:48:53Z</time>
      </trkpt>
      <trkpt lat="44.6128" lon="6.13476">
        <ele>1230.8</ele>
        <time>2025-06-12T09:48:54Z</time>
      </trkpt>
      <trkpt lat="44.61277" lon="6.13472">
        <ele>1231</ele>
        <time>2025-06-12T09:48:55Z</time>
      </trkpt>
      <trkpt lat="44.61273" lon="6.13468">
        <ele>1231.2</ele>
        <time>2025-06-12T09:48:56Z</time>
      </trkpt>
      <trkpt lat="44.61266" lon="6.1346">
        <ele>1231.4</ele>
        <time>2025-06-12T09:48:58Z</time>
      </trkpt>
      <trkpt lat="44.61258" lon="6.13453">
        <ele>1231.4</ele>
        <time>2025-06-12T09:49:00Z</time>
      </trkpt>
      <trkpt lat="44.61254" lon="6.13449">
        <ele>1231.4</ele>
        <time>2025-06-12T09:49:01Z</time>
      </trkpt>
      <trkpt lat="44.6125" lon="6.13445">
        <ele>1231.6</ele>
        <time>2025-06-12T09:49:02Z</time>
      </trkpt>
      <trkpt lat="44.61246" lon="6.13442">
        <ele>1231.6</ele>
        <time>2025-06-12T09:49:03Z</time>
      </trkpt>
      <trkpt lat="44.61242" lon="6.13438">
        <ele>1231.6</ele>
        <time>2025-06-12T09:49:04Z</time>
      </trkpt>
      <trkpt lat="44.61238" lon="6.13435">
        <ele>1231.6</ele>
        <time>2025-06-12T09:49:05Z</time>
      </trkpt>
      <trkpt lat="44.61234" lon="6.13432">
        <ele>1231.6</ele>
        <time>2025-06-12T09:49:06Z</time>
      </trkpt>
      <trkpt lat="44.6123" lon="6.13428">
        <ele>1231.6</ele>
        <time>2025-06-12T09:49:07Z</time>
      </trkpt>
      <trkpt lat="44.61226" lon="6.13425">
        <ele>1231.6</ele>
        <time>2025-06-12T09:49:08Z</time>
      </trkpt>
      <trkpt lat="44.61222" lon="6.13421">
        <ele>1231.6</ele>
        <time>2025-06-12T09:49:09Z</time>
      </trkpt>
      <trkpt lat="44.61218" lon="6.13418">
        <ele>1231.8</ele>
        <time>2025-06-12T09:49:10Z</time>
      </trkpt>
      <trkpt lat="44.61213" lon="6.13414">
        <ele>1231.8</ele>
        <time>2025-06-12T09:49:11Z</time>
      </trkpt>
      <trkpt lat="44.61206" lon="6.13406">
        <ele>1232</ele>
        <time>2025-06-12T09:49:13Z</time>
      </trkpt>
      <trkpt lat="44.61202" lon="6.13401">
        <ele>1232</ele>
        <time>2025-06-12T09:49:14Z</time>
      </trkpt>
      <trkpt lat="44.61198" lon="6.13396">
        <ele>1232</ele>
        <time>2025-06-12T09:49:15Z</time>
      </trkpt>
      <trkpt lat="44.61195" lon="6.13391">
        <ele>1232</ele>
        <time>2025-06-12T09:49:16Z</time>
      </trkpt>
      <trkpt lat="44.61191" lon="6.13385">
        <ele>1232</ele>
        <time>2025-06-12T09:49:17Z</time>
      </trkpt>
      <trkpt lat="44.61188" lon="6.1338">
        <ele>1232.2</ele>
        <time>2025-06-12T09:49:18Z</time>
      </trkpt>
      <trkpt lat="44.61185" lon="6.13374">
        <ele>1232.2</ele>
        <time>2025-06-12T09:49:19Z</time>
      </trkpt>
      <trkpt lat="44.61182" lon="6.13367">
        <ele>1232.2</ele>
        <time>2025-06-12T09:49:20Z</time>
      </trkpt>
      <trkpt lat="44.6118" lon="6.1336">
        <ele>1232.2</ele>
        <time>2025-06-12T09:49:21Z</time>
      </trkpt>
      <trkpt lat="44.61178" lon="6.13353">
        <ele>1232.2</ele>
        <time>2025-06-12T09:49:22Z</time>
      </trkpt>
      <trkpt lat="44.61174" lon="6.13339">
        <ele>1232.2</ele>
        <time>2025-06-12T09:49:24Z</time>
      </trkpt>
      <trkpt lat="44.61173" lon="6.13332">
        <ele>1232.4</ele>
        <time>2025-06-12T09:49:25Z</time>
      </trkpt>
      <trkpt lat="44.61173" lon="6.13324">
        <ele>1232.4</ele>
        <time>2025-06-12T09:49:26Z</time>
      </trkpt>
      <trkpt lat="44.61172" lon="6.13317">
        <ele>1232.4</ele>
        <time>2025-06-12T09:49:27Z</time>
      </trkpt>
      <trkpt lat="44.61172" lon="6.1331">
        <ele>1232.4</ele>
        <time>2025-06-12T09:49:28Z</time>
      </trkpt>
      <trkpt lat="44.61172" lon="6.13295">
        <ele>1232.4</ele>
        <time>2025-06-12T09:49:30Z</time>
      </trkpt>
      <trkpt lat="44.61173" lon="6.13281">
        <ele>1232.2</ele>
        <time>2025-06-12T09:49:32Z</time>
      </trkpt>
      <trkpt lat="44.61173" lon="6.13274">
        <ele>1232.2</ele>
        <time>2025-06-12T09:49:33Z</time>
      </trkpt>
      <trkpt lat="44.61173" lon="6.13268">
        <ele>1232.2</ele>
        <time>2025-06-12T09:49:34Z</time>
      </trkpt>
      <trkpt lat="44.61173" lon="6.13261">
        <ele>1232.2</ele>
        <time>2025-06-12T09:49:35Z</time>
      </trkpt>
      <trkpt lat="44.61173" lon="6.13254">
        <ele>1232.2</ele>
        <time>2025-06-12T09:49:36Z</time>
      </trkpt>
      <trkpt lat="44.61173" lon="6.13248">
        <ele>1232.2</ele>
        <time>2025-06-12T09:49:37Z</time>
      </trkpt>
      <trkpt lat="44.61173" lon="6.13241">
        <ele>1232</ele>
        <time>2025-06-12T09:49:38Z</time>
      </trkpt>
      <trkpt lat="44.61174" lon="6.13235">
        <ele>1232</ele>
        <time>2025-06-12T09:49:39Z</time>
      </trkpt>
      <trkpt lat="44.61174" lon="6.13228">
        <ele>1232</ele>
        <time>2025-06-12T09:49:40Z</time>
      </trkpt>
      <trkpt lat="44.61174" lon="6.13222">
        <ele>1232</ele>
        <time>2025-06-12T09:49:41Z</time>
      </trkpt>
      <trkpt lat="44.61174" lon="6.13208">
        <ele>1232</ele>
        <time>2025-06-12T09:49:43Z</time>
      </trkpt>
      <trkpt lat="44.61173" lon="6.13195">
        <ele>1232</ele>
        <time>2025-06-12T09:49:45Z</time>
      </trkpt>
      <trkpt lat="44.61171" lon="6.13182">
        <ele>1231.8</ele>
        <time>2025-06-12T09:49:47Z</time>
      </trkpt>
      <trkpt lat="44.61169" lon="6.13169">
        <ele>1231.8</ele>
        <time>2025-06-12T09:49:49Z</time>
      </trkpt>
      <trkpt lat="44.61169" lon="6.13158">
        <ele>1231.6</ele>
        <time>2025-06-12T09:49:51Z</time>
      </trkpt>
      <trkpt lat="44.61169" lon="6.13153">
        <ele>1231.6</ele>
        <time>2025-06-12T09:49:52Z</time>
      </trkpt>
      <trkpt lat="44.61169" lon="6.13149">
        <ele>1231.8</ele>
        <time>2025-06-12T09:49:53Z</time>
      </trkpt>
      <trkpt lat="44.61168" lon="6.13145">
        <ele>1231.4</ele>
        <time>2025-06-12T09:49:54Z</time>
      </trkpt>
      <trkpt lat="44.61168" lon="6.13142">
        <ele>1231.4</ele>
        <time>2025-06-12T09:49:55Z</time>
      </trkpt>
      <trkpt lat="44.61167" lon="6.13139">
        <ele>1231.4</ele>
        <time>2025-06-12T09:49:56Z</time>
      </trkpt>
      <trkpt lat="44.61166" lon="6.13138">
        <ele>1231.2</ele>
        <time>2025-06-12T09:49:57Z</time>
      </trkpt>
      <trkpt lat="44.61166" lon="6.13137">
        <ele>1231.2</ele>
        <time>2025-06-12T09:49:58Z</time>
      </trkpt>
      <trkpt lat="44.61166" lon="6.13137">
        <ele>1231.2</ele>
        <time>2025-06-12T09:49:59Z</time>
      </trkpt>
      <trkpt lat="44.61166" lon="6.13137">
        <ele>1231.2</ele>
        <time>2025-06-12T09:50:00Z</time>
      </trkpt>
      <trkpt lat="44.61166" lon="6.13137">
        <ele>1231.2</ele>
        <time>2025-06-12T09:50:01Z</time>
      </trkpt>
      <trkpt lat="44.61166" lon="6.13137">
        <ele>1231.2</ele>
        <time>2025-06-12T09:50:02Z</time>
      </trkpt>
      <trkpt lat="44.61166" lon="6.13137">
        <ele>1231.2</ele>
        <time>2025-06-12T09:50:03Z</time>
      </trkpt>
      <trkpt lat="44.61164" lon="6.13131">
        <ele>1231.2</ele>
        <time>2025-06-12T09:52:33Z</time>
      </trkpt>
      <trkpt lat="44.61163" lon="6.1313">
        <ele>1231.2</ele>
        <time>2025-06-12T09:52:34Z</time>
      </trkpt>
      <trkpt lat="44.61161" lon="6.13128">
        <ele>1231.2</ele>
        <time>2025-06-12T09:52:35Z</time>
      </trkpt>
      <trkpt lat="44.61159" lon="6.13125">
        <ele>1231.2</ele>
        <time>2025-06-12T09:52:36Z</time>
      </trkpt>
      <trkpt lat="44.61157" lon="6.13122">
        <ele>1231.2</ele>
        <time>2025-06-12T09:52:37Z</time>
      </trkpt>
      <trkpt lat="44.61155" lon="6.13119">
        <ele>1231</ele>
        <time>2025-06-12T09:52:38Z</time>
      </trkpt>
      <trkpt lat="44.61153" lon="6.13116">
        <ele>1231</ele>
        <time>2025-06-12T09:52:39Z</time>
      </trkpt>
      <trkpt lat="44.61151" lon="6.13112">
        <ele>1231</ele>
        <time>2025-06-12T09:52:40Z</time>
      </trkpt>
      <trkpt lat="44.61149" lon="6.13108">
        <ele>1230.8</ele>
        <time>2025-06-12T09:52:41Z</time>
      </trkpt>
      <trkpt lat="44.61146" lon="6.13103">
        <ele>1230.8</ele>
        <time>2025-06-12T09:52:42Z</time>
      </trkpt>
      <trkpt lat="44.61143" lon="6.13099">
        <ele>1230.6</ele>
        <time>2025-06-12T09:52:43Z</time>
      </trkpt>
      <trkpt lat="44.61141" lon="6.13094">
        <ele>1230</ele>
        <time>2025-06-12T09:52:44Z</time>
      </trkpt>
      <trkpt lat="44.61138" lon="6.1309">
        <ele>1229.8</ele>
        <time>2025-06-12T09:52:45Z</time>
      </trkpt>
      <trkpt lat="44.61135" lon="6.13085">
        <ele>1229.6</ele>
        <time>2025-06-12T09:52:46Z</time>
      </trkpt>
      <trkpt lat="44.61132" lon="6.1308">
        <ele>1229.6</ele>
        <time>2025-06-12T09:52:47Z</time>
      </trkpt>
      <trkpt lat="44.61129" lon="6.13075">
        <ele>1229.4</ele>
        <time>2025-06-12T09:52:48Z</time>
      </trkpt>
      <trkpt lat="44.61126" lon="6.1307">
        <ele>1229.4</ele>
        <time>2025-06-12T09:52:49Z</time>
      </trkpt>
      <trkpt lat="44.61122" lon="6.13065">
        <ele>1229.4</ele>
        <time>2025-06-12T09:52:50Z</time>
      </trkpt>
      <trkpt lat="44.61119" lon="6.13059">
        <ele>1229.2</ele>
        <time>2025-06-12T09:52:51Z</time>
      </trkpt>
      <trkpt lat="44.61116" lon="6.13053">
        <ele>1229</ele>
        <time>2025-06-12T09:52:52Z</time>
      </trkpt>
      <trkpt lat="44.61113" lon="6.13048">
        <ele>1228.8</ele>
        <time>2025-06-12T09:52:53Z</time>
      </trkpt>
      <trkpt lat="44.61109" lon="6.13042">
        <ele>1228.8</ele>
        <time>2025-06-12T09:52:54Z</time>
      </trkpt>
      <trkpt lat="44.61106" lon="6.13035">
        <ele>1228.8</ele>
        <time>2025-06-12T09:52:55Z</time>
      </trkpt>
      <trkpt lat="44.61102" lon="6.13029">
        <ele>1228.6</ele>
        <time>2025-06-12T09:52:56Z</time>
      </trkpt>
      <trkpt lat="44.61095" lon="6.13016">
        <ele>1228.2</ele>
        <time>2025-06-12T09:52:58Z</time>
      </trkpt>
      <trkpt lat="44.61088" lon="6.13002">
        <ele>1228</ele>
        <time>2025-06-12T09:53:00Z</time>
      </trkpt>
      <trkpt lat="44.61085" lon="6.12994">
        <ele>1228</ele>
        <time>2025-06-12T09:53:01Z</time>
      </trkpt>
      <trkpt lat="44.61081" lon="6.12986">
        <ele>1227.8</ele>
        <time>2025-06-12T09:53:02Z</time>
      </trkpt>
      <trkpt lat="44.61078" lon="6.12978">
        <ele>1227.6</ele>
        <time>2025-06-12T09:53:03Z</time>
      </trkpt>
      <trkpt lat="44.61075" lon="6.12969">
        <ele>1227.4</ele>
        <time>2025-06-12T09:53:04Z</time>
      </trkpt>
      <trkpt lat="44.61073" lon="6.1296">
        <ele>1227.2</ele>
        <time>2025-06-12T09:53:05Z</time>
      </trkpt>
      <trkpt lat="44.6107" lon="6.1295">
        <ele>1227</ele>
        <time>2025-06-12T09:53:06Z</time>
      </trkpt>
      <trkpt lat="44.61068" lon="6.12941">
        <ele>1227</ele>
        <time>2025-06-12T09:53:07Z</time>
      </trkpt>
      <trkpt lat="44.61065" lon="6.1292">
        <ele>1226.8</ele>
        <time>2025-06-12T09:53:09Z</time>
      </trkpt>
      <trkpt lat="44.61063" lon="6.1291">
        <ele>1226.6</ele>
        <time>2025-06-12T09:53:10Z</time>
      </trkpt>
      <trkpt lat="44.61062" lon="6.12899">
        <ele>1226</ele>
        <time>2025-06-12T09:53:11Z</time>
      </trkpt>
      <trkpt lat="44.61061" lon="6.12887">
        <ele>1225.4</ele>
        <time>2025-06-12T09:53:12Z</time>
      </trkpt>
      <trkpt lat="44.6106" lon="6.12876">
        <ele>1225.2</ele>
        <time>2025-06-12T09:53:13Z</time>
      </trkpt>
      <trkpt lat="44.61058" lon="6.12852">
        <ele>1224.4</ele>
        <time>2025-06-12T09:53:15Z</time>
      </trkpt>
      <trkpt lat="44.61056" lon="6.12828">
        <ele>1223.8</ele>
        <time>2025-06-12T09:53:17Z</time>
      </trkpt>
      <trkpt lat="44.61055" lon="6.12815">
        <ele>1223.4</ele>
        <time>2025-06-12T09:53:18Z</time>
      </trkpt>
      <trkpt lat="44.61055" lon="6.12803">
        <ele>1223.2</ele>
        <time>2025-06-12T09:53:19Z</time>
      </trkpt>
      <trkpt lat="44.61054" lon="6.1279">
        <ele>1223</ele>
        <time>2025-06-12T09:53:20Z</time>
      </trkpt>
      <trkpt lat="44.61053" lon="6.12776">
        <ele>1222.8</ele>
        <time>2025-06-12T09:53:21Z</time>
      </trkpt>
      <trkpt lat="44.61052" lon="6.12763">
        <ele>1222.4</ele>
        <time>2025-06-12T09:53:22Z</time>
      </trkpt>
      <trkpt lat="44.61051" lon="6.1275">
        <ele>1222.2</ele>
        <time>2025-06-12T09:53:23Z</time>
      </trkpt>
      <trkpt lat="44.6105" lon="6.12736">
        <ele>1222</ele>
        <time>2025-06-12T09:53:24Z</time>
      </trkpt>
      <trkpt lat="44.61048" lon="6.12709">
        <ele>1221.4</ele>
        <time>2025-06-12T09:53:26Z</time>
      </trkpt>
      <trkpt lat="44.61048" lon="6.12695">
        <ele>1220.8</ele>
        <time>2025-06-12T09:53:27Z</time>
      </trkpt>
      <trkpt lat="44.61048" lon="6.1268">
        <ele>1220.4</ele>
        <time>2025-06-12T09:53:28Z</time>
      </trkpt>
      <trkpt lat="44.6105" lon="6.12666">
        <ele>1219.8</ele>
        <time>2025-06-12T09:53:29Z</time>
      </trkpt>
      <trkpt lat="44.61054" lon="6.12653">
        <ele>1219.2</ele>
        <time>2025-06-12T09:53:30Z</time>
      </trkpt>
      <trkpt lat="44.61066" lon="6.12629">
        <ele>1218</ele>
        <time>2025-06-12T09:53:32Z</time>
      </trkpt>
      <trkpt lat="44.61084" lon="6.12612">
        <ele>1217.2</ele>
        <time>2025-06-12T09:53:34Z</time>
      </trkpt>
      <trkpt lat="44.61094" lon="6.12605">
        <ele>1216.4</ele>
        <time>2025-06-12T09:53:35Z</time>
      </trkpt>
      <trkpt lat="44.61103" lon="6.12597">
        <ele>1215.8</ele>
        <time>2025-06-12T09:53:36Z</time>
      </trkpt>
      <trkpt lat="44.61112" lon="6.12588">
        <ele>1215.2</ele>
        <time>2025-06-12T09:53:37Z</time>
      </trkpt>
      <trkpt lat="44.61121" lon="6.12578">
        <ele>1214.8</ele>
        <time>2025-06-12T09:53:38Z</time>
      </trkpt>
      <trkpt lat="44.61129" lon="6.12568">
        <ele>1214.4</ele>
        <time>2025-06-12T09:53:39Z</time>
      </trkpt>
      <trkpt lat="44.61136" lon="6.12556">
        <ele>1213.8</ele>
        <time>2025-06-12T09:53:40Z</time>
      </trkpt>
      <trkpt lat="44.61142" lon="6.12543">
        <ele>1213.6</ele>
        <time>2025-06-12T09:53:41Z</time>
      </trkpt>
      <trkpt lat="44.61147" lon="6.12529">
        <ele>1213</ele>
        <time>2025-06-12T09:53:42Z</time>
      </trkpt>
      <trkpt lat="44.61151" lon="6.12515">
        <ele>1212.2</ele>
        <time>2025-06-12T09:53:43Z</time>
      </trkpt>
      <trkpt lat="44.61155" lon="6.12501">
        <ele>1211.6</ele>
        <time>2025-06-12T09:53:44Z</time>
      </trkpt>
      <trkpt lat="44.61157" lon="6.12486">
        <ele>1211</ele>
        <time>2025-06-12T09:53:45Z</time>
      </trkpt>
      <trkpt lat="44.61158" lon="6.1247">
        <ele>1210.4</ele>
        <time>2025-06-12T09:53:46Z</time>
      </trkpt>
      <trkpt lat="44.61158" lon="6.12455">
        <ele>1209.6</ele>
        <time>2025-06-12T09:53:47Z</time>
      </trkpt>
      <trkpt lat="44.61158" lon="6.1244">
        <ele>1208.8</ele>
        <time>2025-06-12T09:53:48Z</time>
      </trkpt>
      <trkpt lat="44.61157" lon="6.12425">
        <ele>1208.2</ele>
        <time>2025-06-12T09:53:49Z</time>
      </trkpt>
      <trkpt lat="44.61157" lon="6.12409">
        <ele>1207.8</ele>
        <time>2025-06-12T09:53:50Z</time>
      </trkpt>
      <trkpt lat="44.61156" lon="6.12394">
        <ele>1207.6</ele>
        <time>2025-06-12T09:53:51Z</time>
      </trkpt>
      <trkpt lat="44.61155" lon="6.12379">
        <ele>1207.6</ele>
        <time>2025-06-12T09:53:52Z</time>
      </trkpt>
      <trkpt lat="44.61155" lon="6.12364">
        <ele>1207.2</ele>
        <time>2025-06-12T09:53:53Z</time>
      </trkpt>
      <trkpt lat="44.61154" lon="6.12348">
        <ele>1206.6</ele>
        <time>2025-06-12T09:53:54Z</time>
      </trkpt>
      <trkpt lat="44.61153" lon="6.12318">
        <ele>1205.4</ele>
        <time>2025-06-12T09:53:56Z</time>
      </trkpt>
      <trkpt lat="44.61151" lon="6.12288">
        <ele>1204.8</ele>
        <time>2025-06-12T09:53:58Z</time>
      </trkpt>
      <trkpt lat="44.61151" lon="6.12273">
        <ele>1204.6</ele>
        <time>2025-06-12T09:53:59Z</time>
      </trkpt>
      <trkpt lat="44.6115" lon="6.12258">
        <ele>1204.4</ele>
        <time>2025-06-12T09:54:00Z</time>
      </trkpt>
      <trkpt lat="44.61149" lon="6.12244">
        <ele>1204</ele>
        <time>2025-06-12T09:54:01Z</time>
      </trkpt>
      <trkpt lat="44.61147" lon="6.12215">
        <ele>1203</ele>
        <time>2025-06-12T09:54:03Z</time>
      </trkpt>
      <trkpt lat="44.61144" lon="6.12202">
        <ele>1202.2</ele>
        <time>2025-06-12T09:54:04Z</time>
      </trkpt>
      <trkpt lat="44.61141" lon="6.12188">
        <ele>1201.6</ele>
        <time>2025-06-12T09:54:05Z</time>
      </trkpt>
      <trkpt lat="44.61137" lon="6.12175">
        <ele>1201.2</ele>
        <time>2025-06-12T09:54:06Z</time>
      </trkpt>
      <trkpt lat="44.61133" lon="6.12162">
        <ele>1201</ele>
        <time>2025-06-12T09:54:07Z</time>
      </trkpt>
      <trkpt lat="44.61128" lon="6.12149">
        <ele>1199.6</ele>
        <time>2025-06-12T09:54:08Z</time>
      </trkpt>
      <trkpt lat="44.61122" lon="6.12137">
        <ele>1199</ele>
        <time>2025-06-12T09:54:09Z</time>
      </trkpt>
      <trkpt lat="44.61117" lon="6.12124">
        <ele>1198.4</ele>
        <time>2025-06-12T09:54:10Z</time>
      </trkpt>
      <trkpt lat="44.61107" lon="6.12099">
        <ele>1197.8</ele>
        <time>2025-06-12T09:54:12Z</time>
      </trkpt>
      <trkpt lat="44.61096" lon="6.12073">
        <ele>1197.2</ele>
        <time>2025-06-12T09:54:14Z</time>
      </trkpt>
      <trkpt lat="44.61091" lon="6.1206">
        <ele>1197</ele>
        <time>2025-06-12T09:54:15Z</time>
      </trkpt>
      <trkpt lat="44.61085" lon="6.12046">
        <ele>1197</ele>
        <time>2025-06-12T09:54:16Z</time>
      </trkpt>
      <trkpt lat="44.6108" lon="6.12033">
        <ele>1196.8</ele>
        <time>2025-06-12T09:54:17Z</time>
      </trkpt>
      <trkpt lat="44.61074" lon="6.1202">
        <ele>1196.8</ele>
        <time>2025-06-12T09:54:18Z</time>
      </trkpt>
      <trkpt lat="44.61069" lon="6.12006">
        <ele>1196.8</ele>
        <time>2025-06-12T09:54:19Z</time>
      </trkpt>
      <trkpt lat="44.61062" lon="6.11993">
        <ele>1196.6</ele>
        <time>2025-06-12T09:54:20Z</time>
      </trkpt>
      <trkpt lat="44.61055" lon="6.1198">
        <ele>1196.6</ele>
        <time>2025-06-12T09:54:21Z</time>
      </trkpt>
      <trkpt lat="44.61047" lon="6.11969">
        <ele>1196.4</ele>
        <time>2025-06-12T09:54:22Z</time>
      </trkpt>
      <trkpt lat="44.61038" lon="6.11958">
        <ele>1196.2</ele>
        <time>2025-06-12T09:54:23Z</time>
      </trkpt>
      <trkpt lat="44.61029" lon="6.11948">
        <ele>1195.6</ele>
        <time>2025-06-12T09:54:24Z</time>
      </trkpt>
      <trkpt lat="44.61018" lon="6.11939">
        <ele>1195</ele>
        <time>2025-06-12T09:54:25Z</time>
      </trkpt>
      <trkpt lat="44.61008" lon="6.11931">
        <ele>1194.6</ele>
        <time>2025-06-12T09:54:26Z</time>
      </trkpt>
      <trkpt lat="44.60997" lon="6.11923">
        <ele>1194</ele>
        <time>2025-06-12T09:54:27Z</time>
      </trkpt>
      <trkpt lat="44.60974" lon="6.11907">
        <ele>1192.4</ele>
        <time>2025-06-12T09:54:29Z</time>
      </trkpt>
      <trkpt lat="44.60963" lon="6.119">
        <ele>1191.4</ele>
        <time>2025-06-12T09:54:30Z</time>
      </trkpt>
      <trkpt lat="44.60951" lon="6.11891">
        <ele>1190.4</ele>
        <time>2025-06-12T09:54:31Z</time>
      </trkpt>
      <trkpt lat="44.6094" lon="6.11883">
        <ele>1189.2</ele>
        <time>2025-06-12T09:54:32Z</time>
      </trkpt>
      <trkpt lat="44.60928" lon="6.11874">
        <ele>1188</ele>
        <time>2025-06-12T09:54:33Z</time>
      </trkpt>
      <trkpt lat="44.60916" lon="6.11866">
        <ele>1187</ele>
        <time>2025-06-12T09:54:34Z</time>
      </trkpt>
      <trkpt lat="44.60904" lon="6.11858">
        <ele>1185.2</ele>
        <time>2025-06-12T09:54:35Z</time>
      </trkpt>
      <trkpt lat="44.60892" lon="6.11851">
        <ele>1184.4</ele>
        <time>2025-06-12T09:54:36Z</time>
      </trkpt>
      <trkpt lat="44.6088" lon="6.11845">
        <ele>1183.2</ele>
        <time>2025-06-12T09:54:37Z</time>
      </trkpt>
      <trkpt lat="44.60867" lon="6.1184">
        <ele>1182</ele>
        <time>2025-06-12T09:54:38Z</time>
      </trkpt>
      <trkpt lat="44.60841" lon="6.11833">
        <ele>1180.4</ele>
        <time>2025-06-12T09:54:40Z</time>
      </trkpt>
      <trkpt lat="44.60814" lon="6.11828">
        <ele>1178.2</ele>
        <time>2025-06-12T09:54:42Z</time>
      </trkpt>
      <trkpt lat="44.60787" lon="6.11824">
        <ele>1176.4</ele>
        <time>2025-06-12T09:54:44Z</time>
      </trkpt>
      <trkpt lat="44.60773" lon="6.11821">
        <ele>1175.4</ele>
        <time>2025-06-12T09:54:45Z</time>
      </trkpt>
      <trkpt lat="44.6076" lon="6.1182">
        <ele>1174.4</ele>
        <time>2025-06-12T09:54:46Z</time>
      </trkpt>
      <trkpt lat="44.60747" lon="6.11818">
        <ele>1173.4</ele>
        <time>2025-06-12T09:54:47Z</time>
      </trkpt>
      <trkpt lat="44.60733" lon="6.11816">
        <ele>1172.6</ele>
        <time>2025-06-12T09:54:48Z</time>
      </trkpt>
      <trkpt lat="44.6072" lon="6.11814">
        <ele>1172</ele>
        <time>2025-06-12T09:54:49Z</time>
      </trkpt>
      <trkpt lat="44.60707" lon="6.11812">
        <ele>1171.2</ele>
        <time>2025-06-12T09:54:50Z</time>
      </trkpt>
      <trkpt lat="44.60693" lon="6.1181">
        <ele>1170.4</ele>
        <time>2025-06-12T09:54:51Z</time>
      </trkpt>
      <trkpt lat="44.60667" lon="6.11806">
        <ele>1168.4</ele>
        <time>2025-06-12T09:54:53Z</time>
      </trkpt>
      <trkpt lat="44.60654" lon="6.11804">
        <ele>1167.2</ele>
        <time>2025-06-12T09:54:54Z</time>
      </trkpt>
      <trkpt lat="44.60641" lon="6.118">
        <ele>1166.2</ele>
        <time>2025-06-12T09:54:55Z</time>
      </trkpt>
      <trkpt lat="44.60629" lon="6.11793">
        <ele>1165.6</ele>
        <time>2025-06-12T09:54:56Z</time>
      </trkpt>
      <trkpt lat="44.60618" lon="6.11783">
        <ele>1165</ele>
        <time>2025-06-12T09:54:57Z</time>
      </trkpt>
      <trkpt lat="44.60607" lon="6.11772">
        <ele>1164.4</ele>
        <time>2025-06-12T09:54:58Z</time>
      </trkpt>
      <trkpt lat="44.60597" lon="6.1176">
        <ele>1163.8</ele>
        <time>2025-06-12T09:54:59Z</time>
      </trkpt>
      <trkpt lat="44.60587" lon="6.11748">
        <ele>1163</ele>
        <time>2025-06-12T09:55:00Z</time>
      </trkpt>
      <trkpt lat="44.60578" lon="6.11735">
        <ele>1162</ele>
        <time>2025-06-12T09:55:01Z</time>
      </trkpt>
      <trkpt lat="44.60568" lon="6.11722">
        <ele>1161.2</ele>
        <time>2025-06-12T09:55:02Z</time>
      </trkpt>
      <trkpt lat="44.60559" lon="6.11708">
        <ele>1160.6</ele>
        <time>2025-06-12T09:55:03Z</time>
      </trkpt>
      <trkpt lat="44.60549" lon="6.11695">
        <ele>1159.8</ele>
        <time>2025-06-12T09:55:04Z</time>
      </trkpt>
      <trkpt lat="44.6054" lon="6.11682">
        <ele>1158.8</ele>
        <time>2025-06-12T09:55:05Z</time>
      </trkpt>
      <trkpt lat="44.60529" lon="6.1167">
        <ele>1157.6</ele>
        <time>2025-06-12T09:55:06Z</time>
      </trkpt>
      <trkpt lat="44.60518" lon="6.11659">
        <ele>1156.8</ele>
        <time>2025-06-12T09:55:07Z</time>
      </trkpt>
      <trkpt lat="44.60506" lon="6.1165">
        <ele>1156.2</ele>
        <time>2025-06-12T09:55:08Z</time>
      </trkpt>
      <trkpt lat="44.60481" lon="6.11635">
        <ele>1154.2</ele>
        <time>2025-06-12T09:55:10Z</time>
      </trkpt>
      <trkpt lat="44.60456" lon="6.11622">
        <ele>1152.6</ele>
        <time>2025-06-12T09:55:12Z</time>
      </trkpt>
      <trkpt lat="44.60443" lon="6.11614">
        <ele>1151.8</ele>
        <time>2025-06-12T09:55:13Z</time>
      </trkpt>
      <trkpt lat="44.60431" lon="6.11606">
        <ele>1151.2</ele>
        <time>2025-06-12T09:55:14Z</time>
      </trkpt>
      <trkpt lat="44.60419" lon="6.11596">
        <ele>1150.4</ele>
        <time>2025-06-12T09:55:15Z</time>
      </trkpt>
      <trkpt lat="44.60409" lon="6.11583">
        <ele>1149.6</ele>
        <time>2025-06-12T09:55:16Z</time>
      </trkpt>
      <trkpt lat="44.604" lon="6.11569">
        <ele>1148.6</ele>
        <time>2025-06-12T09:55:17Z</time>
      </trkpt>
      <trkpt lat="44.60392" lon="6.11553">
        <ele>1147.6</ele>
        <time>2025-06-12T09:55:18Z</time>
      </trkpt>
      <trkpt lat="44.60386" lon="6.11536">
        <ele>1146.6</ele>
        <time>2025-06-12T09:55:19Z</time>
      </trkpt>
      <trkpt lat="44.60381" lon="6.11518">
        <ele>1145.6</ele>
        <time>2025-06-12T09:55:20Z</time>
      </trkpt>
      <trkpt lat="44.60377" lon="6.115">
        <ele>1144.6</ele>
        <time>2025-06-12T09:55:21Z</time>
      </trkpt>
      <trkpt lat="44.60373" lon="6.11482">
        <ele>1143.6</ele>
        <time>2025-06-12T09:55:22Z</time>
      </trkpt>
      <trkpt lat="44.6037" lon="6.11463">
        <ele>1142.6</ele>
        <time>2025-06-12T09:55:23Z</time>
      </trkpt>
      <trkpt lat="44.60366" lon="6.11444">
        <ele>1141.8</ele>
        <time>2025-06-12T09:55:24Z</time>
      </trkpt>
      <trkpt lat="44.60363" lon="6.11424">
        <ele>1141</ele>
        <time>2025-06-12T09:55:25Z</time>
      </trkpt>
      <trkpt lat="44.60359" lon="6.11405">
        <ele>1140</ele>
        <time>2025-06-12T09:55:26Z</time>
      </trkpt>
      <trkpt lat="44.60355" lon="6.11387">
        <ele>1139</ele>
        <time>2025-06-12T09:55:27Z</time>
      </trkpt>
      <trkpt lat="44.60349" lon="6.11368">
        <ele>1138.4</ele>
        <time>2025-06-12T09:55:28Z</time>
      </trkpt>
      <trkpt lat="44.60342" lon="6.11351">
        <ele>1137.6</ele>
        <time>2025-06-12T09:55:29Z</time>
      </trkpt>
      <trkpt lat="44.60333" lon="6.11335">
        <ele>1137</ele>
        <time>2025-06-12T09:55:30Z</time>
      </trkpt>
      <trkpt lat="44.60322" lon="6.11321">
        <ele>1135</ele>
        <time>2025-06-12T09:55:31Z</time>
      </trkpt>
      <trkpt lat="44.60311" lon="6.11309">
        <ele>1134</ele>
        <time>2025-06-12T09:55:32Z</time>
      </trkpt>
      <trkpt lat="44.60298" lon="6.11298">
        <ele>1132.4</ele>
        <time>2025-06-12T09:55:33Z</time>
      </trkpt>
      <trkpt lat="44.60284" lon="6.11289">
        <ele>1131</ele>
        <time>2025-06-12T09:55:34Z</time>
      </trkpt>
      <trkpt lat="44.6027" lon="6.1128">
        <ele>1129.6</ele>
        <time>2025-06-12T09:55:35Z</time>
      </trkpt>
      <trkpt lat="44.60256" lon="6.11272">
        <ele>1128.4</ele>
        <time>2025-06-12T09:55:36Z</time>
      </trkpt>
      <trkpt lat="44.60242" lon="6.11264">
        <ele>1127.2</ele>
        <time>2025-06-12T09:55:37Z</time>
      </trkpt>
      <trkpt lat="44.60229" lon="6.11256">
        <ele>1126</ele>
        <time>2025-06-12T09:55:38Z</time>
      </trkpt>
      <trkpt lat="44.60216" lon="6.11248">
        <ele>1124.8</ele>
        <time>2025-06-12T09:55:39Z</time>
      </trkpt>
      <trkpt lat="44.60204" lon="6.1124">
        <ele>1123.4</ele>
        <time>2025-06-12T09:55:40Z</time>
      </trkpt>
      <trkpt lat="44.60194" lon="6.11231">
        <ele>1122.2</ele>
        <time>2025-06-12T09:55:41Z</time>
      </trkpt>
      <trkpt lat="44.60186" lon="6.1122">
        <ele>1120.8</ele>
        <time>2025-06-12T09:55:42Z</time>
      </trkpt>
      <trkpt lat="44.60181" lon="6.11207">
        <ele>1119.6</ele>
        <time>2025-06-12T09:55:43Z</time>
      </trkpt>
      <trkpt lat="44.60178" lon="6.11193">
        <ele>1118.6</ele>
        <time>2025-06-12T09:55:44Z</time>
      </trkpt>
      <trkpt lat="44.60177" lon="6.11179">
        <ele>1117.4</ele>
        <time>2025-06-12T09:55:45Z</time>
      </trkpt>
      <trkpt lat="44.6018" lon="6.11164">
        <ele>1116.6</ele>
        <time>2025-06-12T09:55:46Z</time>
      </trkpt>
      <trkpt lat="44.60184" lon="6.1115">
        <ele>1116</ele>
        <time>2025-06-12T09:55:47Z</time>
      </trkpt>
      <trkpt lat="44.6019" lon="6.11139">
        <ele>1115.6</ele>
        <time>2025-06-12T09:55:48Z</time>
      </trkpt>
      <trkpt lat="44.60205" lon="6.11122">
        <ele>1115</ele>
        <time>2025-06-12T09:55:50Z</time>
      </trkpt>
      <trkpt lat="44.60211" lon="6.11115">
        <ele>1114.6</ele>
        <time>2025-06-12T09:55:51Z</time>
      </trkpt>
      <trkpt lat="44.60217" lon="6.11106">
        <ele>1114.4</ele>
        <time>2025-06-12T09:55:52Z</time>
      </trkpt>
      <trkpt lat="44.6022" lon="6.11095">
        <ele>1114</ele>
        <time>2025-06-12T09:55:53Z</time>
      </trkpt>
      <trkpt lat="44.60219" lon="6.11083">
        <ele>1113.6</ele>
        <time>2025-06-12T09:55:54Z</time>
      </trkpt>
      <trkpt lat="44.60216" lon="6.11072">
        <ele>1113</ele>
        <time>2025-06-12T09:55:55Z</time>
      </trkpt>
      <trkpt lat="44.60209" lon="6.11064">
        <ele>1112</ele>
        <time>2025-06-12T09:55:56Z</time>
      </trkpt>
      <trkpt lat="44.60202" lon="6.1106">
        <ele>1111.2</ele>
        <time>2025-06-12T09:55:57Z</time>
      </trkpt>
      <trkpt lat="44.60194" lon="6.11059">
        <ele>1110.8</ele>
        <time>2025-06-12T09:55:58Z</time>
      </trkpt>
      <trkpt lat="44.60185" lon="6.11059">
        <ele>1110.4</ele>
        <time>2025-06-12T09:55:59Z</time>
      </trkpt>
      <trkpt lat="44.60176" lon="6.11061">
        <ele>1110.4</ele>
        <time>2025-06-12T09:56:00Z</time>
      </trkpt>
      <trkpt lat="44.60168" lon="6.11062">
        <ele>1110.2</ele>
        <time>2025-06-12T09:56:01Z</time>
      </trkpt>
      <trkpt lat="44.60159" lon="6.11064">
        <ele>1110</ele>
        <time>2025-06-12T09:56:02Z</time>
      </trkpt>
      <trkpt lat="44.60151" lon="6.11065">
        <ele>1109.6</ele>
        <time>2025-06-12T09:56:03Z</time>
      </trkpt>
      <trkpt lat="44.60143" lon="6.11067">
        <ele>1109.4</ele>
        <time>2025-06-12T09:56:04Z</time>
      </trkpt>
      <trkpt lat="44.60135" lon="6.11068">
        <ele>1109.2</ele>
        <time>2025-06-12T09:56:05Z</time>
      </trkpt>
      <trkpt lat="44.60127" lon="6.11069">
        <ele>1109.2</ele>
        <time>2025-06-12T09:56:06Z</time>
      </trkpt>
      <trkpt lat="44.60112" lon="6.11068">
        <ele>1108.8</ele>
        <time>2025-06-12T09:56:08Z</time>
      </trkpt>
      <trkpt lat="44.60104" lon="6.11064">
        <ele>1108.6</ele>
        <time>2025-06-12T09:56:09Z</time>
      </trkpt>
      <trkpt lat="44.60097" lon="6.11058">
        <ele>1108.4</ele>
        <time>2025-06-12T09:56:10Z</time>
      </trkpt>
      <trkpt lat="44.60091" lon="6.11051">
        <ele>1108</ele>
        <time>2025-06-12T09:56:11Z</time>
      </trkpt>
      <trkpt lat="44.60085" lon="6.11043">
        <ele>1107.8</ele>
        <time>2025-06-12T09:56:12Z</time>
      </trkpt>
      <trkpt lat="44.60078" lon="6.11036">
        <ele>1107.6</ele>
        <time>2025-06-12T09:56:13Z</time>
      </trkpt>
      <trkpt lat="44.60071" lon="6.11028">
        <ele>1107.4</ele>
        <time>2025-06-12T09:56:14Z</time>
      </trkpt>
      <trkpt lat="44.60065" lon="6.11021">
        <ele>1107.4</ele>
        <time>2025-06-12T09:56:15Z</time>
      </trkpt>
      <trkpt lat="44.60058" lon="6.11013">
        <ele>1107.2</ele>
        <time>2025-06-12T09:56:16Z</time>
      </trkpt>
      <trkpt lat="44.60051" lon="6.11005">
        <ele>1107</ele>
        <time>2025-06-12T09:56:17Z</time>
      </trkpt>
      <trkpt lat="44.60037" lon="6.10989">
        <ele>1106.4</ele>
        <time>2025-06-12T09:56:19Z</time>
      </trkpt>
      <trkpt lat="44.6003" lon="6.1098">
        <ele>1106.2</ele>
        <time>2025-06-12T09:56:20Z</time>
      </trkpt>
      <trkpt lat="44.60023" lon="6.10972">
        <ele>1106</ele>
        <time>2025-06-12T09:56:21Z</time>
      </trkpt>
      <trkpt lat="44.60016" lon="6.10964">
        <ele>1105.8</ele>
        <time>2025-06-12T09:56:22Z</time>
      </trkpt>
      <trkpt lat="44.60008" lon="6.10956">
        <ele>1105.2</ele>
        <time>2025-06-12T09:56:23Z</time>
      </trkpt>
      <trkpt lat="44.60001" lon="6.10948">
        <ele>1105</ele>
        <time>2025-06-12T09:56:24Z</time>
      </trkpt>
      <trkpt lat="44.59986" lon="6.10931">
        <ele>1104</ele>
        <time>2025-06-12T09:56:26Z</time>
      </trkpt>
      <trkpt lat="44.59979" lon="6.10922">
        <ele>1103.6</ele>
        <time>2025-06-12T09:56:27Z</time>
      </trkpt>
      <trkpt lat="44.59971" lon="6.10913">
        <ele>1103</ele>
        <time>2025-06-12T09:56:28Z</time>
      </trkpt>
      <trkpt lat="44.59963" lon="6.10905">
        <ele>1102.4</ele>
        <time>2025-06-12T09:56:29Z</time>
      </trkpt>
      <trkpt lat="44.59955" lon="6.10896">
        <ele>1101.6</ele>
        <time>2025-06-12T09:56:30Z</time>
      </trkpt>
      <trkpt lat="44.59947" lon="6.10887">
        <ele>1101.2</ele>
        <time>2025-06-12T09:56:31Z</time>
      </trkpt>
      <trkpt lat="44.59939" lon="6.10879">
        <ele>1100.8</ele>
        <time>2025-06-12T09:56:32Z</time>
      </trkpt>
      <trkpt lat="44.59931" lon="6.10871">
        <ele>1100.6</ele>
        <time>2025-06-12T09:56:33Z</time>
      </trkpt>
      <trkpt lat="44.59922" lon="6.10863">
        <ele>1100.2</ele>
        <time>2025-06-12T09:56:34Z</time>
      </trkpt>
      <trkpt lat="44.59913" lon="6.10856">
        <ele>1100</ele>
        <time>2025-06-12T09:56:35Z</time>
      </trkpt>
      <trkpt lat="44.59894" lon="6.10843">
        <ele>1099.6</ele>
        <time>2025-06-12T09:56:37Z</time>
      </trkpt>
      <trkpt lat="44.59885" lon="6.10836">
        <ele>1099.2</ele>
        <time>2025-06-12T09:56:38Z</time>
      </trkpt>
      <trkpt lat="44.59875" lon="6.10829">
        <ele>1098.4</ele>
        <time>2025-06-12T09:56:39Z</time>
      </trkpt>
      <trkpt lat="44.59866" lon="6.10821">
        <ele>1097.8</ele>
        <time>2025-06-12T09:56:40Z</time>
      </trkpt>
      <trkpt lat="44.59857" lon="6.1081">
        <ele>1097</ele>
        <time>2025-06-12T09:56:41Z</time>
      </trkpt>
      <trkpt lat="44.59849" lon="6.10798">
        <ele>1096.2</ele>
        <time>2025-06-12T09:56:42Z</time>
      </trkpt>
      <trkpt lat="44.59843" lon="6.10785">
        <ele>1095.4</ele>
        <time>2025-06-12T09:56:43Z</time>
      </trkpt>
      <trkpt lat="44.59837" lon="6.1077">
        <ele>1094.6</ele>
        <time>2025-06-12T09:56:44Z</time>
      </trkpt>
      <trkpt lat="44.59833" lon="6.10754">
        <ele>1094</ele>
        <time>2025-06-12T09:56:45Z</time>
      </trkpt>
      <trkpt lat="44.59829" lon="6.10737">
        <ele>1093.2</ele>
        <time>2025-06-12T09:56:46Z</time>
      </trkpt>
      <trkpt lat="44.59826" lon="6.10721">
        <ele>1092.8</ele>
        <time>2025-06-12T09:56:47Z</time>
      </trkpt>
      <trkpt lat="44.59822" lon="6.10704">
        <ele>1092.2</ele>
        <time>2025-06-12T09:56:48Z</time>
      </trkpt>
      <trkpt lat="44.59818" lon="6.10687">
        <ele>1091.6</ele>
        <time>2025-06-12T09:56:49Z</time>
      </trkpt>
      <trkpt lat="44.59815" lon="6.10669">
        <ele>1091</ele>
        <time>2025-06-12T09:56:50Z</time>
      </trkpt>
      <trkpt lat="44.59811" lon="6.10652">
        <ele>1090.4</ele>
        <time>2025-06-12T09:56:51Z</time>
      </trkpt>
      <trkpt lat="44.59808" lon="6.10634">
        <ele>1089.6</ele>
        <time>2025-06-12T09:56:52Z</time>
      </trkpt>
      <trkpt lat="44.59804" lon="6.10616">
        <ele>1089.2</ele>
        <time>2025-06-12T09:56:53Z</time>
      </trkpt>
      <trkpt lat="44.598" lon="6.10598">
        <ele>1087.4</ele>
        <time>2025-06-12T09:56:54Z</time>
      </trkpt>
      <trkpt lat="44.59797" lon="6.1058">
        <ele>1086.4</ele>
        <time>2025-06-12T09:56:55Z</time>
      </trkpt>
      <trkpt lat="44.59794" lon="6.10561">
        <ele>1085.4</ele>
        <time>2025-06-12T09:56:56Z</time>
      </trkpt>
      <trkpt lat="44.59791" lon="6.10542">
        <ele>1084.4</ele>
        <time>2025-06-12T09:56:57Z</time>
      </trkpt>
      <trkpt lat="44.59788" lon="6.10524">
        <ele>1083.6</ele>
        <time>2025-06-12T09:56:58Z</time>
      </trkpt>
      <trkpt lat="44.59785" lon="6.10505">
        <ele>1082.6</ele>
        <time>2025-06-12T09:56:59Z</time>
      </trkpt>
      <trkpt lat="44.59783" lon="6.10486">
        <ele>1081.6</ele>
        <time>2025-06-12T09:57:00Z</time>
      </trkpt>
      <trkpt lat="44.5978" lon="6.10467">
        <ele>1080.8</ele>
        <time>2025-06-12T09:57:01Z</time>
      </trkpt>
      <trkpt lat="44.59777" lon="6.10448">
        <ele>1080</ele>
        <time>2025-06-12T09:57:02Z</time>
      </trkpt>
      <trkpt lat="44.59774" lon="6.10429">
        <ele>1079.2</ele>
        <time>2025-06-12T09:57:03Z</time>
      </trkpt>
      <trkpt lat="44.59771" lon="6.10411">
        <ele>1078</ele>
        <time>2025-06-12T09:57:04Z</time>
      </trkpt>
      <trkpt lat="44.59766" lon="6.10392">
        <ele>1077</ele>
        <time>2025-06-12T09:57:05Z</time>
      </trkpt>
      <trkpt lat="44.59761" lon="6.10374">
        <ele>1076</ele>
        <time>2025-06-12T09:57:06Z</time>
      </trkpt>
      <trkpt lat="44.59756" lon="6.10357">
        <ele>1075</ele>
        <time>2025-06-12T09:57:07Z</time>
      </trkpt>
      <trkpt lat="44.59751" lon="6.10339">
        <ele>1074</ele>
        <time>2025-06-12T09:57:08Z</time>
      </trkpt>
      <trkpt lat="44.59746" lon="6.10322">
        <ele>1073.2</ele>
        <time>2025-06-12T09:57:09Z</time>
      </trkpt>
      <trkpt lat="44.5974" lon="6.10305">
        <ele>1072.4</ele>
        <time>2025-06-12T09:57:10Z</time>
      </trkpt>
      <trkpt lat="44.59735" lon="6.10288">
        <ele>1071.4</ele>
        <time>2025-06-12T09:57:11Z</time>
      </trkpt>
      <trkpt lat="44.5973" lon="6.10271">
        <ele>1070.4</ele>
        <time>2025-06-12T09:57:12Z</time>
      </trkpt>
      <trkpt lat="44.59725" lon="6.10255">
        <ele>1069.4</ele>
        <time>2025-06-12T09:57:13Z</time>
      </trkpt>
      <trkpt lat="44.5972" lon="6.1024">
        <ele>1068.6</ele>
        <time>2025-06-12T09:57:14Z</time>
      </trkpt>
      <trkpt lat="44.59715" lon="6.10224">
        <ele>1067.8</ele>
        <time>2025-06-12T09:57:15Z</time>
      </trkpt>
      <trkpt lat="44.59711" lon="6.10209">
        <ele>1067</ele>
        <time>2025-06-12T09:57:16Z</time>
      </trkpt>
      <trkpt lat="44.59706" lon="6.10194">
        <ele>1066</ele>
        <time>2025-06-12T09:57:17Z</time>
      </trkpt>
      <trkpt lat="44.59702" lon="6.10179">
        <ele>1065.4</ele>
        <time>2025-06-12T09:57:18Z</time>
      </trkpt>
      <trkpt lat="44.59693" lon="6.10148">
        <ele>1064</ele>
        <time>2025-06-12T09:57:20Z</time>
      </trkpt>
      <trkpt lat="44.59687" lon="6.10134">
        <ele>1063.4</ele>
        <time>2025-06-12T09:57:21Z</time>
      </trkpt>
      <trkpt lat="44.59679" lon="6.1012">
        <ele>1062.8</ele>
        <time>2025-06-12T09:57:22Z</time>
      </trkpt>
      <trkpt lat="44.59661" lon="6.10096">
        <ele>1062.2</ele>
        <time>2025-06-12T09:57:24Z</time>
      </trkpt>
      <trkpt lat="44.59651" lon="6.10085">
        <ele>1062</ele>
        <time>2025-06-12T09:57:25Z</time>
      </trkpt>
      <trkpt lat="44.59642" lon="6.10072">
        <ele>1061.6</ele>
        <time>2025-06-12T09:57:26Z</time>
      </trkpt>
      <trkpt lat="44.59635" lon="6.10059">
        <ele>1061.4</ele>
        <time>2025-06-12T09:57:27Z</time>
      </trkpt>
      <trkpt lat="44.59629" lon="6.10045">
        <ele>1060.8</ele>
        <time>2025-06-12T09:57:28Z</time>
      </trkpt>
      <trkpt lat="44.59625" lon="6.10029">
        <ele>1060.4</ele>
        <time>2025-06-12T09:57:29Z</time>
      </trkpt>
      <trkpt lat="44.59621" lon="6.10014">
        <ele>1059.8</ele>
        <time>2025-06-12T09:57:30Z</time>
      </trkpt>
      <trkpt lat="44.59618" lon="6.09999">
        <ele>1059.2</ele>
        <time>2025-06-12T09:57:31Z</time>
      </trkpt>
      <trkpt lat="44.59614" lon="6.09984">
        <ele>1058.4</ele>
        <time>2025-06-12T09:57:32Z</time>
      </trkpt>
      <trkpt lat="44.59611" lon="6.09969">
        <ele>1057.4</ele>
        <time>2025-06-12T09:57:33Z</time>
      </trkpt>
      <trkpt lat="44.59606" lon="6.09939">
        <ele>1056</ele>
        <time>2025-06-12T09:57:35Z</time>
      </trkpt>
      <trkpt lat="44.59605" lon="6.09923">
        <ele>1055.8</ele>
        <time>2025-06-12T09:57:36Z</time>
      </trkpt>
      <trkpt lat="44.59607" lon="6.09908">
        <ele>1055.6</ele>
        <time>2025-06-12T09:57:37Z</time>
      </trkpt>
      <trkpt lat="44.5961" lon="6.09893">
        <ele>1055.4</ele>
        <time>2025-06-12T09:57:38Z</time>
      </trkpt>
      <trkpt lat="44.59615" lon="6.09878">
        <ele>1055.4</ele>
        <time>2025-06-12T09:57:39Z</time>
      </trkpt>
      <trkpt lat="44.5962" lon="6.09865">
        <ele>1055.2</ele>
        <time>2025-06-12T09:57:40Z</time>
      </trkpt>
      <trkpt lat="44.59626" lon="6.09851">
        <ele>1055</ele>
        <time>2025-06-12T09:57:41Z</time>
      </trkpt>
      <trkpt lat="44.59632" lon="6.09837">
        <ele>1054.8</ele>
        <time>2025-06-12T09:57:42Z</time>
      </trkpt>
      <trkpt lat="44.59636" lon="6.09823">
        <ele>1054.4</ele>
        <time>2025-06-12T09:57:43Z</time>
      </trkpt>
      <trkpt lat="44.5964" lon="6.09808">
        <ele>1054.2</ele>
        <time>2025-06-12T09:57:44Z</time>
      </trkpt>
      <trkpt lat="44.59643" lon="6.09793">
        <ele>1053.6</ele>
        <time>2025-06-12T09:57:45Z</time>
      </trkpt>
      <trkpt lat="44.59646" lon="6.09778">
        <ele>1053.2</ele>
        <time>2025-06-12T09:57:46Z</time>
      </trkpt>
      <trkpt lat="44.59651" lon="6.09763">
        <ele>1052.4</ele>
        <time>2025-06-12T09:57:47Z</time>
      </trkpt>
      <trkpt lat="44.59657" lon="6.0975">
        <ele>1051.8</ele>
        <time>2025-06-12T09:57:48Z</time>
      </trkpt>
      <trkpt lat="44.59665" lon="6.09739">
        <ele>1050.6</ele>
        <time>2025-06-12T09:57:49Z</time>
      </trkpt>
      <trkpt lat="44.59674" lon="6.09729">
        <ele>1050</ele>
        <time>2025-06-12T09:57:50Z</time>
      </trkpt>
      <trkpt lat="44.59684" lon="6.09721">
        <ele>1049.6</ele>
        <time>2025-06-12T09:57:51Z</time>
      </trkpt>
      <trkpt lat="44.59694" lon="6.09714">
        <ele>1049.2</ele>
        <time>2025-06-12T09:57:52Z</time>
      </trkpt>
      <trkpt lat="44.59704" lon="6.09706">
        <ele>1048.8</ele>
        <time>2025-06-12T09:57:53Z</time>
      </trkpt>
      <trkpt lat="44.59713" lon="6.09695">
        <ele>1048.2</ele>
        <time>2025-06-12T09:57:54Z</time>
      </trkpt>
      <trkpt lat="44.5972" lon="6.09683">
        <ele>1047.8</ele>
        <time>2025-06-12T09:57:55Z</time>
      </trkpt>
      <trkpt lat="44.59727" lon="6.09671">
        <ele>1047.4</ele>
        <time>2025-06-12T09:57:56Z</time>
      </trkpt>
      <trkpt lat="44.59733" lon="6.09658">
        <ele>1046.8</ele>
        <time>2025-06-12T09:57:57Z</time>
      </trkpt>
      <trkpt lat="44.59738" lon="6.09647">
        <ele>1046.4</ele>
        <time>2025-06-12T09:57:58Z</time>
      </trkpt>
      <trkpt lat="44.59742" lon="6.09636">
        <ele>1046.2</ele>
        <time>2025-06-12T09:57:59Z</time>
      </trkpt>
      <trkpt lat="44.59743" lon="6.09624">
        <ele>1046</ele>
        <time>2025-06-12T09:58:00Z</time>
      </trkpt>
      <trkpt lat="44.59742" lon="6.09614">
        <ele>1045.8</ele>
        <time>2025-06-12T09:58:01Z</time>
      </trkpt>
      <trkpt lat="44.59737" lon="6.09607">
        <ele>1045.2</ele>
        <time>2025-06-12T09:58:02Z</time>
      </trkpt>
      <trkpt lat="44.59731" lon="6.09602">
        <ele>1044.8</ele>
        <time>2025-06-12T09:58:03Z</time>
      </trkpt>
      <trkpt lat="44.59725" lon="6.09602">
        <ele>1044.6</ele>
        <time>2025-06-12T09:58:04Z</time>
      </trkpt>
      <trkpt lat="44.59717" lon="6.09603">
        <ele>1044.4</ele>
        <time>2025-06-12T09:58:05Z</time>
      </trkpt>
      <trkpt lat="44.5971" lon="6.09605">
        <ele>1044.2</ele>
        <time>2025-06-12T09:58:06Z</time>
      </trkpt>
      <trkpt lat="44.59701" lon="6.09606">
        <ele>1044.2</ele>
        <time>2025-06-12T09:58:07Z</time>
      </trkpt>
      <trkpt lat="44.59685" lon="6.09605">
        <ele>1044</ele>
        <time>2025-06-12T09:58:09Z</time>
      </trkpt>
      <trkpt lat="44.59678" lon="6.09604">
        <ele>1044</ele>
        <time>2025-06-12T09:58:10Z</time>
      </trkpt>
      <trkpt lat="44.5967" lon="6.09602">
        <ele>1044</ele>
        <time>2025-06-12T09:58:11Z</time>
      </trkpt>
      <trkpt lat="44.59663" lon="6.096">
        <ele>1043.8</ele>
        <time>2025-06-12T09:58:12Z</time>
      </trkpt>
      <trkpt lat="44.59656" lon="6.09598">
        <ele>1043.8</ele>
        <time>2025-06-12T09:58:13Z</time>
      </trkpt>
      <trkpt lat="44.59649" lon="6.09596">
        <ele>1043.8</ele>
        <time>2025-06-12T09:58:14Z</time>
      </trkpt>
      <trkpt lat="44.59643" lon="6.09596">
        <ele>1043.8</ele>
        <time>2025-06-12T09:58:15Z</time>
      </trkpt>
      <trkpt lat="44.59636" lon="6.09596">
        <ele>1044</ele>
        <time>2025-06-12T09:58:16Z</time>
      </trkpt>
      <trkpt lat="44.5963" lon="6.09595">
        <ele>1044</ele>
        <time>2025-06-12T09:58:17Z</time>
      </trkpt>
      <trkpt lat="44.59624" lon="6.09595">
        <ele>1044.2</ele>
        <time>2025-06-12T09:58:18Z</time>
      </trkpt>
      <trkpt lat="44.59619" lon="6.09594">
        <ele>1044.4</ele>
        <time>2025-06-12T09:58:19Z</time>
      </trkpt>
      <trkpt lat="44.59613" lon="6.09594">
        <ele>1044.4</ele>
        <time>2025-06-12T09:58:20Z</time>
      </trkpt>
      <trkpt lat="44.59607" lon="6.09593">
        <ele>1044.4</ele>
        <time>2025-06-12T09:58:21Z</time>
      </trkpt>
      <trkpt lat="44.59595" lon="6.09593">
        <ele>1044.8</ele>
        <time>2025-06-12T09:58:23Z</time>
      </trkpt>
      <trkpt lat="44.59589" lon="6.09592">
        <ele>1045.2</ele>
        <time>2025-06-12T09:58:24Z</time>
      </trkpt>
      <trkpt lat="44.59583" lon="6.09591">
        <ele>1045.4</ele>
        <time>2025-06-12T09:58:25Z</time>
      </trkpt>
      <trkpt lat="44.59577" lon="6.09591">
        <ele>1045.6</ele>
        <time>2025-06-12T09:58:26Z</time>
      </trkpt>
      <trkpt lat="44.59571" lon="6.09591">
        <ele>1046</ele>
        <time>2025-06-12T09:58:27Z</time>
      </trkpt>
      <trkpt lat="44.59565" lon="6.09592">
        <ele>1046</ele>
        <time>2025-06-12T09:58:28Z</time>
      </trkpt>
      <trkpt lat="44.59558" lon="6.09594">
        <ele>1046.2</ele>
        <time>2025-06-12T09:58:29Z</time>
      </trkpt>
      <trkpt lat="44.59552" lon="6.09597">
        <ele>1046.2</ele>
        <time>2025-06-12T09:58:30Z</time>
      </trkpt>
      <trkpt lat="44.59546" lon="6.096">
        <ele>1046.2</ele>
        <time>2025-06-12T09:58:31Z</time>
      </trkpt>
      <trkpt lat="44.59539" lon="6.09602">
        <ele>1046.2</ele>
        <time>2025-06-12T09:58:32Z</time>
      </trkpt>
      <trkpt lat="44.59532" lon="6.09604">
        <ele>1046.2</ele>
        <time>2025-06-12T09:58:33Z</time>
      </trkpt>
      <trkpt lat="44.59525" lon="6.09604">
        <ele>1046.2</ele>
        <time>2025-06-12T09:58:34Z</time>
      </trkpt>
      <trkpt lat="44.59518" lon="6.09603">
        <ele>1046.2</ele>
        <time>2025-06-12T09:58:35Z</time>
      </trkpt>
      <trkpt lat="44.59512" lon="6.096">
        <ele>1046.2</ele>
        <time>2025-06-12T09:58:36Z</time>
      </trkpt>
      <trkpt lat="44.59505" lon="6.09596">
        <ele>1046.2</ele>
        <time>2025-06-12T09:58:37Z</time>
      </trkpt>
      <trkpt lat="44.59499" lon="6.09591">
        <ele>1046.2</ele>
        <time>2025-06-12T09:58:38Z</time>
      </trkpt>
      <trkpt lat="44.59494" lon="6.09585">
        <ele>1046</ele>
        <time>2025-06-12T09:58:39Z</time>
      </trkpt>
      <trkpt lat="44.59483" lon="6.09571">
        <ele>1045.4</ele>
        <time>2025-06-12T09:58:41Z</time>
      </trkpt>
      <trkpt lat="44.59478" lon="6.09563">
        <ele>1045.2</ele>
        <time>2025-06-12T09:58:42Z</time>
      </trkpt>
      <trkpt lat="44.59473" lon="6.09555">
        <ele>1045</ele>
        <time>2025-06-12T09:58:43Z</time>
      </trkpt>
      <trkpt lat="44.59467" lon="6.09547">
        <ele>1044.8</ele>
        <time>2025-06-12T09:58:44Z</time>
      </trkpt>
      <trkpt lat="44.59462" lon="6.0954">
        <ele>1044.4</ele>
        <time>2025-06-12T09:58:45Z</time>
      </trkpt>
      <trkpt lat="44.59457" lon="6.09532">
        <ele>1044.4</ele>
        <time>2025-06-12T09:58:46Z</time>
      </trkpt>
      <trkpt lat="44.59445" lon="6.09516">
        <ele>1044</ele>
        <time>2025-06-12T09:58:48Z</time>
      </trkpt>
      <trkpt lat="44.59434" lon="6.09498">
        <ele>1043.6</ele>
        <time>2025-06-12T09:58:50Z</time>
      </trkpt>
      <trkpt lat="44.59428" lon="6.09489">
        <ele>1043.2</ele>
        <time>2025-06-12T09:58:51Z</time>
      </trkpt>
      <trkpt lat="44.59422" lon="6.0948">
        <ele>1042.6</ele>
        <time>2025-06-12T09:58:52Z</time>
      </trkpt>
      <trkpt lat="44.59416" lon="6.0947">
        <ele>1042.4</ele>
        <time>2025-06-12T09:58:53Z</time>
      </trkpt>
      <trkpt lat="44.5941" lon="6.0946">
        <ele>1042.2</ele>
        <time>2025-06-12T09:58:54Z</time>
      </trkpt>
      <trkpt lat="44.59403" lon="6.0945">
        <ele>1041.8</ele>
        <time>2025-06-12T09:58:55Z</time>
      </trkpt>
      <trkpt lat="44.59396" lon="6.0944">
        <ele>1041.6</ele>
        <time>2025-06-12T09:58:56Z</time>
      </trkpt>
      <trkpt lat="44.5939" lon="6.0943">
        <ele>1041</ele>
        <time>2025-06-12T09:58:57Z</time>
      </trkpt>
      <trkpt lat="44.59375" lon="6.09408">
        <ele>1039.8</ele>
        <time>2025-06-12T09:58:59Z</time>
      </trkpt>
      <trkpt lat="44.59368" lon="6.09397">
        <ele>1039</ele>
        <time>2025-06-12T09:59:00Z</time>
      </trkpt>
      <trkpt lat="44.5936" lon="6.09386">
        <ele>1038.4</ele>
        <time>2025-06-12T09:59:01Z</time>
      </trkpt>
      <trkpt lat="44.59353" lon="6.09374">
        <ele>1038</ele>
        <time>2025-06-12T09:59:02Z</time>
      </trkpt>
      <trkpt lat="44.59346" lon="6.09362">
        <ele>1037.6</ele>
        <time>2025-06-12T09:59:03Z</time>
      </trkpt>
      <trkpt lat="44.59339" lon="6.09349">
        <ele>1037</ele>
        <time>2025-06-12T09:59:04Z</time>
      </trkpt>
      <trkpt lat="44.59334" lon="6.09334">
        <ele>1036.6</ele>
        <time>2025-06-12T09:59:05Z</time>
      </trkpt>
      <trkpt lat="44.59329" lon="6.09319">
        <ele>1036</ele>
        <time>2025-06-12T09:59:06Z</time>
      </trkpt>
      <trkpt lat="44.59326" lon="6.09303">
        <ele>1035.4</ele>
        <time>2025-06-12T09:59:07Z</time>
      </trkpt>
      <trkpt lat="44.59323" lon="6.09286">
        <ele>1034.2</ele>
        <time>2025-06-12T09:59:08Z</time>
      </trkpt>
      <trkpt lat="44.59321" lon="6.0927">
        <ele>1033.2</ele>
        <time>2025-06-12T09:59:09Z</time>
      </trkpt>
      <trkpt lat="44.59319" lon="6.09253">
        <ele>1032.2</ele>
        <time>2025-06-12T09:59:10Z</time>
      </trkpt>
      <trkpt lat="44.59318" lon="6.09236">
        <ele>1031.2</ele>
        <time>2025-06-12T09:59:11Z</time>
      </trkpt>
      <trkpt lat="44.59316" lon="6.09219">
        <ele>1030</ele>
        <time>2025-06-12T09:59:12Z</time>
      </trkpt>
      <trkpt lat="44.59315" lon="6.09202">
        <ele>1028</ele>
        <time>2025-06-12T09:59:13Z</time>
      </trkpt>
      <trkpt lat="44.59316" lon="6.09168">
        <ele>1026.2</ele>
        <time>2025-06-12T09:59:15Z</time>
      </trkpt>
      <trkpt lat="44.59317" lon="6.09151">
        <ele>1025.6</ele>
        <time>2025-06-12T09:59:16Z</time>
      </trkpt>
      <trkpt lat="44.59318" lon="6.09134">
        <ele>1025</ele>
        <time>2025-06-12T09:59:17Z</time>
      </trkpt>
      <trkpt lat="44.59319" lon="6.09117">
        <ele>1024.8</ele>
        <time>2025-06-12T09:59:18Z</time>
      </trkpt>
      <trkpt lat="44.59319" lon="6.091">
        <ele>1024.6</ele>
        <time>2025-06-12T09:59:19Z</time>
      </trkpt>
      <trkpt lat="44.59318" lon="6.09083">
        <ele>1024.2</ele>
        <time>2025-06-12T09:59:20Z</time>
      </trkpt>
      <trkpt lat="44.59316" lon="6.09066">
        <ele>1023.6</ele>
        <time>2025-06-12T09:59:21Z</time>
      </trkpt>
      <trkpt lat="44.59312" lon="6.0905">
        <ele>1023</ele>
        <time>2025-06-12T09:59:22Z</time>
      </trkpt>
      <trkpt lat="44.59307" lon="6.09035">
        <ele>1022.8</ele>
        <time>2025-06-12T09:59:23Z</time>
      </trkpt>
      <trkpt lat="44.593" lon="6.0902">
        <ele>1022.4</ele>
        <time>2025-06-12T09:59:24Z</time>
      </trkpt>
      <trkpt lat="44.59293" lon="6.09007">
        <ele>1021.8</ele>
        <time>2025-06-12T09:59:25Z</time>
      </trkpt>
      <trkpt lat="44.59286" lon="6.08993">
        <ele>1021.2</ele>
        <time>2025-06-12T09:59:26Z</time>
      </trkpt>
      <trkpt lat="44.59279" lon="6.08979">
        <ele>1020.6</ele>
        <time>2025-06-12T09:59:27Z</time>
      </trkpt>
      <trkpt lat="44.59271" lon="6.08966">
        <ele>1020</ele>
        <time>2025-06-12T09:59:28Z</time>
      </trkpt>
      <trkpt lat="44.59264" lon="6.08952">
        <ele>1019.4</ele>
        <time>2025-06-12T09:59:29Z</time>
      </trkpt>
      <trkpt lat="44.59256" lon="6.08939">
        <ele>1019</ele>
        <time>2025-06-12T09:59:30Z</time>
      </trkpt>
      <trkpt lat="44.59248" lon="6.08925">
        <ele>1018.2</ele>
        <time>2025-06-12T09:59:31Z</time>
      </trkpt>
      <trkpt lat="44.59241" lon="6.08911">
        <ele>1017.6</ele>
        <time>2025-06-12T09:59:32Z</time>
      </trkpt>
      <trkpt lat="44.59233" lon="6.08898">
        <ele>1017.2</ele>
        <time>2025-06-12T09:59:33Z</time>
      </trkpt>
      <trkpt lat="44.59225" lon="6.08884">
        <ele>1016.8</ele>
        <time>2025-06-12T09:59:34Z</time>
      </trkpt>
      <trkpt lat="44.59218" lon="6.08871">
        <ele>1016.2</ele>
        <time>2025-06-12T09:59:35Z</time>
      </trkpt>
      <trkpt lat="44.5921" lon="6.08858">
        <ele>1015.6</ele>
        <time>2025-06-12T09:59:36Z</time>
      </trkpt>
      <trkpt lat="44.59203" lon="6.08845">
        <ele>1015</ele>
        <time>2025-06-12T09:59:37Z</time>
      </trkpt>
      <trkpt lat="44.59189" lon="6.08818">
        <ele>1013.8</ele>
        <time>2025-06-12T09:59:39Z</time>
      </trkpt>
      <trkpt lat="44.59176" lon="6.08792">
        <ele>1012.2</ele>
        <time>2025-06-12T09:59:41Z</time>
      </trkpt>
      <trkpt lat="44.59162" lon="6.08764">
        <ele>1011</ele>
        <time>2025-06-12T09:59:43Z</time>
      </trkpt>
      <trkpt lat="44.59155" lon="6.0875">
        <ele>1010.4</ele>
        <time>2025-06-12T09:59:44Z</time>
      </trkpt>
      <trkpt lat="44.59149" lon="6.08736">
        <ele>1010</ele>
        <time>2025-06-12T09:59:45Z</time>
      </trkpt>
      <trkpt lat="44.59143" lon="6.08721">
        <ele>1010</ele>
        <time>2025-06-12T09:59:46Z</time>
      </trkpt>
      <trkpt lat="44.59137" lon="6.08706">
        <ele>1009.8</ele>
        <time>2025-06-12T09:59:47Z</time>
      </trkpt>
      <trkpt lat="44.59131" lon="6.08691">
        <ele>1009.6</ele>
        <time>2025-06-12T09:59:48Z</time>
      </trkpt>
      <trkpt lat="44.59126" lon="6.08676">
        <ele>1009.4</ele>
        <time>2025-06-12T09:59:49Z</time>
      </trkpt>
      <trkpt lat="44.5912" lon="6.08661">
        <ele>1009.2</ele>
        <time>2025-06-12T09:59:50Z</time>
      </trkpt>
      <trkpt lat="44.59115" lon="6.08645">
        <ele>1008.8</ele>
        <time>2025-06-12T09:59:51Z</time>
      </trkpt>
      <trkpt lat="44.5911" lon="6.0863">
        <ele>1008</ele>
        <time>2025-06-12T09:59:52Z</time>
      </trkpt>
      <trkpt lat="44.59105" lon="6.08614">
        <ele>1007.4</ele>
        <time>2025-06-12T09:59:53Z</time>
      </trkpt>
      <trkpt lat="44.591" lon="6.08599">
        <ele>1006.6</ele>
        <time>2025-06-12T09:59:54Z</time>
      </trkpt>
      <trkpt lat="44.59095" lon="6.08583">
        <ele>1006</ele>
        <time>2025-06-12T09:59:55Z</time>
      </trkpt>
      <trkpt lat="44.5909" lon="6.08567">
        <ele>1005.2</ele>
        <time>2025-06-12T09:59:56Z</time>
      </trkpt>
      <trkpt lat="44.59085" lon="6.08552">
        <ele>1004.6</ele>
        <time>2025-06-12T09:59:57Z</time>
      </trkpt>
      <trkpt lat="44.5908" lon="6.08536">
        <ele>1004.2</ele>
        <time>2025-06-12T09:59:58Z</time>
      </trkpt>
      <trkpt lat="44.59075" lon="6.0852">
        <ele>1003.6</ele>
        <time>2025-06-12T09:59:59Z</time>
      </trkpt>
      <trkpt lat="44.59071" lon="6.08505">
        <ele>1003</ele>
        <time>2025-06-12T10:00:00Z</time>
      </trkpt>
      <trkpt lat="44.59066" lon="6.08489">
        <ele>1002.2</ele>
        <time>2025-06-12T10:00:01Z</time>
      </trkpt>
      <trkpt lat="44.59061" lon="6.08474">
        <ele>1001.8</ele>
        <time>2025-06-12T10:00:02Z</time>
      </trkpt>
      <trkpt lat="44.59056" lon="6.08458">
        <ele>1001</ele>
        <time>2025-06-12T10:00:03Z</time>
      </trkpt>
      <trkpt lat="44.59051" lon="6.08443">
        <ele>1000.4</ele>
        <time>2025-06-12T10:00:04Z</time>
      </trkpt>
      <trkpt lat="44.59045" lon="6.08427">
        <ele>999.6</ele>
        <time>2025-06-12T10:00:05Z</time>
      </trkpt>
      <trkpt lat="44.59035" lon="6.08396">
        <ele>997.6</ele>
        <time>2025-06-12T10:00:07Z</time>
      </trkpt>
      <trkpt lat="44.59023" lon="6.08366">
        <ele>995.6</ele>
        <time>2025-06-12T10:00:09Z</time>
      </trkpt>
      <trkpt lat="44.59017" lon="6.08352">
        <ele>995</ele>
        <time>2025-06-12T10:00:10Z</time>
      </trkpt>
      <trkpt lat="44.59011" lon="6.08338">
        <ele>994.6</ele>
        <time>2025-06-12T10:00:11Z</time>
      </trkpt>
      <trkpt lat="44.59004" lon="6.08325">
        <ele>994.2</ele>
        <time>2025-06-12T10:00:12Z</time>
      </trkpt>
      <trkpt lat="44.58998" lon="6.08311">
        <ele>993.8</ele>
        <time>2025-06-12T10:00:13Z</time>
      </trkpt>
      <trkpt lat="44.58992" lon="6.08298">
        <ele>993.2</ele>
        <time>2025-06-12T10:00:14Z</time>
      </trkpt>
      <trkpt lat="44.58979" lon="6.08271">
        <ele>991.8</ele>
        <time>2025-06-12T10:00:16Z</time>
      </trkpt>
      <trkpt lat="44.58973" lon="6.08258">
        <ele>990.8</ele>
        <time>2025-06-12T10:00:17Z</time>
      </trkpt>
      <trkpt lat="44.58966" lon="6.08246">
        <ele>990</ele>
        <time>2025-06-12T10:00:18Z</time>
      </trkpt>
      <trkpt lat="44.5896" lon="6.08233">
        <ele>989.4</ele>
        <time>2025-06-12T10:00:19Z</time>
      </trkpt>
      <trkpt lat="44.58954" lon="6.08221">
        <ele>989</ele>
        <time>2025-06-12T10:00:20Z</time>
      </trkpt>
      <trkpt lat="44.58942" lon="6.08196">
        <ele>988.6</ele>
        <time>2025-06-12T10:00:22Z</time>
      </trkpt>
      <trkpt lat="44.58931" lon="6.08171">
        <ele>988.2</ele>
        <time>2025-06-12T10:00:24Z</time>
      </trkpt>
      <trkpt lat="44.58925" lon="6.0816">
        <ele>987.8</ele>
        <time>2025-06-12T10:00:25Z</time>
      </trkpt>
      <trkpt lat="44.5892" lon="6.0815">
        <ele>987.2</ele>
        <time>2025-06-12T10:00:26Z</time>
      </trkpt>
      <trkpt lat="44.58916" lon="6.0814">
        <ele>986.8</ele>
        <time>2025-06-12T10:00:27Z</time>
      </trkpt>
      <trkpt lat="44.58912" lon="6.08132">
        <ele>986.6</ele>
        <time>2025-06-12T10:00:28Z</time>
      </trkpt>
      <trkpt lat="44.58909" lon="6.08125">
        <ele>986.6</ele>
        <time>2025-06-12T10:00:29Z</time>
      </trkpt>
      <trkpt lat="44.58907" lon="6.08119">
        <ele>986.6</ele>
        <time>2025-06-12T10:00:30Z</time>
      </trkpt>
      <trkpt lat="44.58905" lon="6.08115">
        <ele>986.6</ele>
        <time>2025-06-12T10:00:31Z</time>
      </trkpt>
      <trkpt lat="44.58903" lon="6.08111">
        <ele>986.6</ele>
        <time>2025-06-12T10:00:32Z</time>
      </trkpt>
      <trkpt lat="44.58901" lon="6.08108">
        <ele>986.6</ele>
        <time>2025-06-12T10:00:33Z</time>
      </trkpt>
      <trkpt lat="44.58893" lon="6.08106">
        <ele>986.6</ele>
        <time>2025-06-12T10:00:35Z</time>
      </trkpt>
      <trkpt lat="44.58888" lon="6.08106">
        <ele>986.4</ele>
        <time>2025-06-12T10:00:36Z</time>
      </trkpt>
      <trkpt lat="44.58882" lon="6.08107">
        <ele>986.4</ele>
        <time>2025-06-12T10:00:37Z</time>
      </trkpt>
      <trkpt lat="44.58876" lon="6.08108">
        <ele>986.2</ele>
        <time>2025-06-12T10:00:38Z</time>
      </trkpt>
      <trkpt lat="44.5887" lon="6.08108">
        <ele>986.2</ele>
        <time>2025-06-12T10:00:39Z</time>
      </trkpt>
      <trkpt lat="44.58863" lon="6.08109">
        <ele>986</ele>
        <time>2025-06-12T10:00:40Z</time>
      </trkpt>
      <trkpt lat="44.58856" lon="6.0811">
        <ele>986</ele>
        <time>2025-06-12T10:00:41Z</time>
      </trkpt>
      <trkpt lat="44.58848" lon="6.08111">
        <ele>986</ele>
        <time>2025-06-12T10:00:42Z</time>
      </trkpt>
      <trkpt lat="44.5884" lon="6.08112">
        <ele>986</ele>
        <time>2025-06-12T10:00:43Z</time>
      </trkpt>
      <trkpt lat="44.58832" lon="6.08113">
        <ele>986</ele>
        <time>2025-06-12T10:00:44Z</time>
      </trkpt>
      <trkpt lat="44.58824" lon="6.08114">
        <ele>985.8</ele>
        <time>2025-06-12T10:00:45Z</time>
      </trkpt>
      <trkpt lat="44.58815" lon="6.08115">
        <ele>985.4</ele>
        <time>2025-06-12T10:00:46Z</time>
      </trkpt>
      <trkpt lat="44.58806" lon="6.08117">
        <ele>984.8</ele>
        <time>2025-06-12T10:00:47Z</time>
      </trkpt>
      <trkpt lat="44.58797" lon="6.08118">
        <ele>984.4</ele>
        <time>2025-06-12T10:00:48Z</time>
      </trkpt>
      <trkpt lat="44.58787" lon="6.08119">
        <ele>983.8</ele>
        <time>2025-06-12T10:00:49Z</time>
      </trkpt>
      <trkpt lat="44.58778" lon="6.0812">
        <ele>983.2</ele>
        <time>2025-06-12T10:00:50Z</time>
      </trkpt>
      <trkpt lat="44.58768" lon="6.08122">
        <ele>982.6</ele>
        <time>2025-06-12T10:00:51Z</time>
      </trkpt>
      <trkpt lat="44.58758" lon="6.08123">
        <ele>982</ele>
        <time>2025-06-12T10:00:52Z</time>
      </trkpt>
      <trkpt lat="44.58748" lon="6.08124">
        <ele>981.4</ele>
        <time>2025-06-12T10:00:53Z</time>
      </trkpt>
      <trkpt lat="44.58738" lon="6.08125">
        <ele>981</ele>
        <time>2025-06-12T10:00:54Z</time>
      </trkpt>
      <trkpt lat="44.58727" lon="6.08127">
        <ele>980.4</ele>
        <time>2025-06-12T10:00:55Z</time>
      </trkpt>
      <trkpt lat="44.58717" lon="6.08128">
        <ele>980</ele>
        <time>2025-06-12T10:00:56Z</time>
      </trkpt>
      <trkpt lat="44.58706" lon="6.08129">
        <ele>979.2</ele>
        <time>2025-06-12T10:00:57Z</time>
      </trkpt>
      <trkpt lat="44.58695" lon="6.0813">
        <ele>978.6</ele>
        <time>2025-06-12T10:00:58Z</time>
      </trkpt>
      <trkpt lat="44.58684" lon="6.08131">
        <ele>977.8</ele>
        <time>2025-06-12T10:00:59Z</time>
      </trkpt>
      <trkpt lat="44.58673" lon="6.08133">
        <ele>977.2</ele>
        <time>2025-06-12T10:01:00Z</time>
      </trkpt>
      <trkpt lat="44.58662" lon="6.08134">
        <ele>976.8</ele>
        <time>2025-06-12T10:01:01Z</time>
      </trkpt>
      <trkpt lat="44.5865" lon="6.08134">
        <ele>976.2</ele>
        <time>2025-06-12T10:01:02Z</time>
      </trkpt>
      <trkpt lat="44.58638" lon="6.08136">
        <ele>975.6</ele>
        <time>2025-06-12T10:01:03Z</time>
      </trkpt>
      <trkpt lat="44.58627" lon="6.08137">
        <ele>974.6</ele>
        <time>2025-06-12T10:01:04Z</time>
      </trkpt>
      <trkpt lat="44.58603" lon="6.0814">
        <ele>973</ele>
        <time>2025-06-12T10:01:06Z</time>
      </trkpt>
      <trkpt lat="44.58591" lon="6.08141">
        <ele>972.2</ele>
        <time>2025-06-12T10:01:07Z</time>
      </trkpt>
      <trkpt lat="44.58579" lon="6.08142">
        <ele>971.4</ele>
        <time>2025-06-12T10:01:08Z</time>
      </trkpt>
      <trkpt lat="44.58567" lon="6.08143">
        <ele>970.8</ele>
        <time>2025-06-12T10:01:09Z</time>
      </trkpt>
      <trkpt lat="44.58555" lon="6.08144">
        <ele>970.2</ele>
        <time>2025-06-12T10:01:10Z</time>
      </trkpt>
      <trkpt lat="44.58543" lon="6.08146">
        <ele>969.6</ele>
        <time>2025-06-12T10:01:11Z</time>
      </trkpt>
      <trkpt lat="44.58531" lon="6.08147">
        <ele>968.6</ele>
        <time>2025-06-12T10:01:12Z</time>
      </trkpt>
      <trkpt lat="44.58519" lon="6.08149">
        <ele>967.8</ele>
        <time>2025-06-12T10:01:13Z</time>
      </trkpt>
      <trkpt lat="44.58507" lon="6.0815">
        <ele>967.2</ele>
        <time>2025-06-12T10:01:14Z</time>
      </trkpt>
      <trkpt lat="44.58495" lon="6.08151">
        <ele>966.6</ele>
        <time>2025-06-12T10:01:15Z</time>
      </trkpt>
      <trkpt lat="44.58484" lon="6.08152">
        <ele>965.6</ele>
        <time>2025-06-12T10:01:16Z</time>
      </trkpt>
      <trkpt lat="44.58472" lon="6.08153">
        <ele>964.6</ele>
        <time>2025-06-12T10:01:17Z</time>
      </trkpt>
      <trkpt lat="44.58461" lon="6.08153">
        <ele>964</ele>
        <time>2025-06-12T10:01:18Z</time>
      </trkpt>
      <trkpt lat="44.5845" lon="6.08153">
        <ele>963.2</ele>
        <time>2025-06-12T10:01:19Z</time>
      </trkpt>
      <trkpt lat="44.58438" lon="6.08152">
        <ele>962.6</ele>
        <time>2025-06-12T10:01:20Z</time>
      </trkpt>
      <trkpt lat="44.58428" lon="6.08152">
        <ele>961.8</ele>
        <time>2025-06-12T10:01:21Z</time>
      </trkpt>
      <trkpt lat="44.58417" lon="6.08152">
        <ele>961</ele>
        <time>2025-06-12T10:01:22Z</time>
      </trkpt>
      <trkpt lat="44.58408" lon="6.08152">
        <ele>960</ele>
        <time>2025-06-12T10:01:23Z</time>
      </trkpt>
      <trkpt lat="44.58399" lon="6.08155">
        <ele>959.2</ele>
        <time>2025-06-12T10:01:24Z</time>
      </trkpt>
      <trkpt lat="44.58391" lon="6.08159">
        <ele>958.6</ele>
        <time>2025-06-12T10:01:25Z</time>
      </trkpt>
      <trkpt lat="44.58385" lon="6.08166">
        <ele>958.2</ele>
        <time>2025-06-12T10:01:26Z</time>
      </trkpt>
      <trkpt lat="44.58381" lon="6.08175">
        <ele>957.8</ele>
        <time>2025-06-12T10:01:27Z</time>
      </trkpt>
      <trkpt lat="44.58379" lon="6.08186">
        <ele>957.2</ele>
        <time>2025-06-12T10:01:28Z</time>
      </trkpt>
      <trkpt lat="44.5838" lon="6.08197">
        <ele>956.4</ele>
        <time>2025-06-12T10:01:29Z</time>
      </trkpt>
      <trkpt lat="44.58383" lon="6.08209">
        <ele>956</ele>
        <time>2025-06-12T10:01:30Z</time>
      </trkpt>
      <trkpt lat="44.58387" lon="6.0822">
        <ele>955.8</ele>
        <time>2025-06-12T10:01:31Z</time>
      </trkpt>
      <trkpt lat="44.58391" lon="6.08232">
        <ele>955.4</ele>
        <time>2025-06-12T10:01:32Z</time>
      </trkpt>
      <trkpt lat="44.58397" lon="6.08244">
        <ele>955.2</ele>
        <time>2025-06-12T10:01:33Z</time>
      </trkpt>
      <trkpt lat="44.5841" lon="6.08267">
        <ele>955</ele>
        <time>2025-06-12T10:01:35Z</time>
      </trkpt>
      <trkpt lat="44.58418" lon="6.08276">
        <ele>954.8</ele>
        <time>2025-06-12T10:01:36Z</time>
      </trkpt>
      <trkpt lat="44.58424" lon="6.08283">
        <ele>954.4</ele>
        <time>2025-06-12T10:01:37Z</time>
      </trkpt>
      <trkpt lat="44.58429" lon="6.08291">
        <ele>953.6</ele>
        <time>2025-06-12T10:01:38Z</time>
      </trkpt>
      <trkpt lat="44.58431" lon="6.08299">
        <ele>952.6</ele>
        <time>2025-06-12T10:01:39Z</time>
      </trkpt>
      <trkpt lat="44.5843" lon="6.08307">
        <ele>951.6</ele>
        <time>2025-06-12T10:01:40Z</time>
      </trkpt>
      <trkpt lat="44.58427" lon="6.08313">
        <ele>950.6</ele>
        <time>2025-06-12T10:01:41Z</time>
      </trkpt>
      <trkpt lat="44.58421" lon="6.08315">
        <ele>949.6</ele>
        <time>2025-06-12T10:01:42Z</time>
      </trkpt>
      <trkpt lat="44.58415" lon="6.08313">
        <ele>949.2</ele>
        <time>2025-06-12T10:01:43Z</time>
      </trkpt>
      <trkpt lat="44.5841" lon="6.08307">
        <ele>948.8</ele>
        <time>2025-06-12T10:01:44Z</time>
      </trkpt>
      <trkpt lat="44.58406" lon="6.083">
        <ele>948.6</ele>
        <time>2025-06-12T10:01:45Z</time>
      </trkpt>
      <trkpt lat="44.58402" lon="6.08291">
        <ele>948.4</ele>
        <time>2025-06-12T10:01:46Z</time>
      </trkpt>
      <trkpt lat="44.58398" lon="6.08282">
        <ele>948.2</ele>
        <time>2025-06-12T10:01:47Z</time>
      </trkpt>
      <trkpt lat="44.58393" lon="6.08273">
        <ele>948.2</ele>
        <time>2025-06-12T10:01:48Z</time>
      </trkpt>
      <trkpt lat="44.58389" lon="6.08263">
        <ele>948</ele>
        <time>2025-06-12T10:01:49Z</time>
      </trkpt>
      <trkpt lat="44.58383" lon="6.08254">
        <ele>948</ele>
        <time>2025-06-12T10:01:50Z</time>
      </trkpt>
      <trkpt lat="44.58377" lon="6.08245">
        <ele>947.6</ele>
        <time>2025-06-12T10:01:51Z</time>
      </trkpt>
      <trkpt lat="44.5837" lon="6.08236">
        <ele>947.2</ele>
        <time>2025-06-12T10:01:52Z</time>
      </trkpt>
      <trkpt lat="44.58362" lon="6.08226">
        <ele>946.6</ele>
        <time>2025-06-12T10:01:53Z</time>
      </trkpt>
      <trkpt lat="44.58354" lon="6.08217">
        <ele>946.2</ele>
        <time>2025-06-12T10:01:54Z</time>
      </trkpt>
      <trkpt lat="44.58346" lon="6.08207">
        <ele>945.6</ele>
        <time>2025-06-12T10:01:55Z</time>
      </trkpt>
      <trkpt lat="44.58338" lon="6.08197">
        <ele>945</ele>
        <time>2025-06-12T10:01:56Z</time>
      </trkpt>
      <trkpt lat="44.58329" lon="6.08186">
        <ele>944.2</ele>
        <time>2025-06-12T10:01:57Z</time>
      </trkpt>
      <trkpt lat="44.5832" lon="6.08175">
        <ele>943.8</ele>
        <time>2025-06-12T10:01:58Z</time>
      </trkpt>
      <trkpt lat="44.58311" lon="6.08163">
        <ele>943.2</ele>
        <time>2025-06-12T10:01:59Z</time>
      </trkpt>
      <trkpt lat="44.58301" lon="6.08151">
        <ele>941.6</ele>
        <time>2025-06-12T10:02:00Z</time>
      </trkpt>
      <trkpt lat="44.58292" lon="6.08137">
        <ele>940.6</ele>
        <time>2025-06-12T10:02:01Z</time>
      </trkpt>
      <trkpt lat="44.58284" lon="6.08123">
        <ele>939.6</ele>
        <time>2025-06-12T10:02:02Z</time>
      </trkpt>
      <trkpt lat="44.58277" lon="6.08108">
        <ele>938.6</ele>
        <time>2025-06-12T10:02:03Z</time>
      </trkpt>
      <trkpt lat="44.58271" lon="6.08094">
        <ele>937.4</ele>
        <time>2025-06-12T10:02:04Z</time>
      </trkpt>
      <trkpt lat="44.58266" lon="6.08081">
        <ele>935.8</ele>
        <time>2025-06-12T10:02:05Z</time>
      </trkpt>
      <trkpt lat="44.58261" lon="6.08068">
        <ele>934.4</ele>
        <time>2025-06-12T10:02:06Z</time>
      </trkpt>
      <trkpt lat="44.58256" lon="6.08058">
        <ele>933</ele>
        <time>2025-06-12T10:02:07Z</time>
      </trkpt>
      <trkpt lat="44.5825" lon="6.08052">
        <ele>931.6</ele>
        <time>2025-06-12T10:02:08Z</time>
      </trkpt>
      <trkpt lat="44.58243" lon="6.08049">
        <ele>930.4</ele>
        <time>2025-06-12T10:02:09Z</time>
      </trkpt>
      <trkpt lat="44.58237" lon="6.08052">
        <ele>929.2</ele>
        <time>2025-06-12T10:02:10Z</time>
      </trkpt>
      <trkpt lat="44.58232" lon="6.08057">
        <ele>928.6</ele>
        <time>2025-06-12T10:02:11Z</time>
      </trkpt>
      <trkpt lat="44.5823" lon="6.08066">
        <ele>928</ele>
        <time>2025-06-12T10:02:12Z</time>
      </trkpt>
      <trkpt lat="44.58231" lon="6.08076">
        <ele>927.6</ele>
        <time>2025-06-12T10:02:13Z</time>
      </trkpt>
      <trkpt lat="44.58233" lon="6.08086">
        <ele>927.4</ele>
        <time>2025-06-12T10:02:14Z</time>
      </trkpt>
      <trkpt lat="44.58236" lon="6.08096">
        <ele>927.2</ele>
        <time>2025-06-12T10:02:15Z</time>
      </trkpt>
      <trkpt lat="44.58239" lon="6.08107">
        <ele>927</ele>
        <time>2025-06-12T10:02:16Z</time>
      </trkpt>
      <trkpt lat="44.58243" lon="6.08118">
        <ele>926.8</ele>
        <time>2025-06-12T10:02:17Z</time>
      </trkpt>
      <trkpt lat="44.58246" lon="6.08129">
        <ele>926.4</ele>
        <time>2025-06-12T10:02:18Z</time>
      </trkpt>
      <trkpt lat="44.5825" lon="6.08141">
        <ele>926.2</ele>
        <time>2025-06-12T10:02:19Z</time>
      </trkpt>
      <trkpt lat="44.58258" lon="6.08165">
        <ele>926</ele>
        <time>2025-06-12T10:02:21Z</time>
      </trkpt>
      <trkpt lat="44.58265" lon="6.0819">
        <ele>925.8</ele>
        <time>2025-06-12T10:02:23Z</time>
      </trkpt>
      <trkpt lat="44.58268" lon="6.08202">
        <ele>925.6</ele>
        <time>2025-06-12T10:02:24Z</time>
      </trkpt>
      <trkpt lat="44.58269" lon="6.08212">
        <ele>925.2</ele>
        <time>2025-06-12T10:02:25Z</time>
      </trkpt>
      <trkpt lat="44.58268" lon="6.08221">
        <ele>924.6</ele>
        <time>2025-06-12T10:02:26Z</time>
      </trkpt>
      <trkpt lat="44.58265" lon="6.08228">
        <ele>924</ele>
        <time>2025-06-12T10:02:27Z</time>
      </trkpt>
      <trkpt lat="44.5826" lon="6.08233">
        <ele>923</ele>
        <time>2025-06-12T10:02:28Z</time>
      </trkpt>
      <trkpt lat="44.58246" lon="6.08229">
        <ele>921.4</ele>
        <time>2025-06-12T10:02:30Z</time>
      </trkpt>
      <trkpt lat="44.58232" lon="6.08213">
        <ele>920.2</ele>
        <time>2025-06-12T10:02:32Z</time>
      </trkpt>
      <trkpt lat="44.58225" lon="6.08203">
        <ele>920</ele>
        <time>2025-06-12T10:02:33Z</time>
      </trkpt>
      <trkpt lat="44.58218" lon="6.08193">
        <ele>919.8</ele>
        <time>2025-06-12T10:02:34Z</time>
      </trkpt>
      <trkpt lat="44.58209" lon="6.08183">
        <ele>919.4</ele>
        <time>2025-06-12T10:02:35Z</time>
      </trkpt>
      <trkpt lat="44.58201" lon="6.08173">
        <ele>918.8</ele>
        <time>2025-06-12T10:02:36Z</time>
      </trkpt>
      <trkpt lat="44.58192" lon="6.08162">
        <ele>918</ele>
        <time>2025-06-12T10:02:37Z</time>
      </trkpt>
      <trkpt lat="44.58184" lon="6.08151">
        <ele>916.8</ele>
        <time>2025-06-12T10:02:38Z</time>
      </trkpt>
      <trkpt lat="44.58177" lon="6.08141">
        <ele>915.6</ele>
        <time>2025-06-12T10:02:39Z</time>
      </trkpt>
      <trkpt lat="44.58171" lon="6.0813">
        <ele>914.4</ele>
        <time>2025-06-12T10:02:40Z</time>
      </trkpt>
      <trkpt lat="44.58165" lon="6.08119">
        <ele>913.2</ele>
        <time>2025-06-12T10:02:41Z</time>
      </trkpt>
      <trkpt lat="44.58162" lon="6.08107">
        <ele>911.8</ele>
        <time>2025-06-12T10:02:42Z</time>
      </trkpt>
      <trkpt lat="44.58159" lon="6.08094">
        <ele>910.4</ele>
        <time>2025-06-12T10:02:43Z</time>
      </trkpt>
      <trkpt lat="44.58158" lon="6.08083">
        <ele>909.2</ele>
        <time>2025-06-12T10:02:44Z</time>
      </trkpt>
      <trkpt lat="44.58157" lon="6.08072">
        <ele>908</ele>
        <time>2025-06-12T10:02:45Z</time>
      </trkpt>
      <trkpt lat="44.58154" lon="6.08062">
        <ele>906.8</ele>
        <time>2025-06-12T10:02:46Z</time>
      </trkpt>
      <trkpt lat="44.58149" lon="6.08055">
        <ele>905.8</ele>
        <time>2025-06-12T10:02:47Z</time>
      </trkpt>
      <trkpt lat="44.58142" lon="6.08052">
        <ele>905</ele>
        <time>2025-06-12T10:02:48Z</time>
      </trkpt>
      <trkpt lat="44.58136" lon="6.08052">
        <ele>904.2</ele>
        <time>2025-06-12T10:02:49Z</time>
      </trkpt>
      <trkpt lat="44.5813" lon="6.08055">
        <ele>903.6</ele>
        <time>2025-06-12T10:02:50Z</time>
      </trkpt>
      <trkpt lat="44.58126" lon="6.08062">
        <ele>903.2</ele>
        <time>2025-06-12T10:02:51Z</time>
      </trkpt>
      <trkpt lat="44.58124" lon="6.0807">
        <ele>902.8</ele>
        <time>2025-06-12T10:02:52Z</time>
      </trkpt>
      <trkpt lat="44.58124" lon="6.0808">
        <ele>902.6</ele>
        <time>2025-06-12T10:02:53Z</time>
      </trkpt>
      <trkpt lat="44.58125" lon="6.08091">
        <ele>902.6</ele>
        <time>2025-06-12T10:02:54Z</time>
      </trkpt>
      <trkpt lat="44.58127" lon="6.08102">
        <ele>902.2</ele>
        <time>2025-06-12T10:02:55Z</time>
      </trkpt>
      <trkpt lat="44.5813" lon="6.08125">
        <ele>902</ele>
        <time>2025-06-12T10:02:57Z</time>
      </trkpt>
      <trkpt lat="44.5813" lon="6.0815">
        <ele>902</ele>
        <time>2025-06-12T10:02:59Z</time>
      </trkpt>
      <trkpt lat="44.58126" lon="6.08172">
        <ele>901.4</ele>
        <time>2025-06-12T10:03:01Z</time>
      </trkpt>
      <trkpt lat="44.58121" lon="6.08182">
        <ele>901</ele>
        <time>2025-06-12T10:03:02Z</time>
      </trkpt>
      <trkpt lat="44.58113" lon="6.08189">
        <ele>900.6</ele>
        <time>2025-06-12T10:03:03Z</time>
      </trkpt>
      <trkpt lat="44.58104" lon="6.08193">
        <ele>900.2</ele>
        <time>2025-06-12T10:03:04Z</time>
      </trkpt>
      <trkpt lat="44.58094" lon="6.08195">
        <ele>899.6</ele>
        <time>2025-06-12T10:03:05Z</time>
      </trkpt>
      <trkpt lat="44.58083" lon="6.08197">
        <ele>899.2</ele>
        <time>2025-06-12T10:03:06Z</time>
      </trkpt>
      <trkpt lat="44.58071" lon="6.08198">
        <ele>898.6</ele>
        <time>2025-06-12T10:03:07Z</time>
      </trkpt>
      <trkpt lat="44.5806" lon="6.08199">
        <ele>898</ele>
        <time>2025-06-12T10:03:08Z</time>
      </trkpt>
      <trkpt lat="44.58048" lon="6.082">
        <ele>897.4</ele>
        <time>2025-06-12T10:03:09Z</time>
      </trkpt>
      <trkpt lat="44.58036" lon="6.082">
        <ele>896.6</ele>
        <time>2025-06-12T10:03:10Z</time>
      </trkpt>
      <trkpt lat="44.58023" lon="6.08201">
        <ele>895.6</ele>
        <time>2025-06-12T10:03:11Z</time>
      </trkpt>
      <trkpt lat="44.5801" lon="6.08202">
        <ele>894.2</ele>
        <time>2025-06-12T10:03:12Z</time>
      </trkpt>
      <trkpt lat="44.57997" lon="6.08202">
        <ele>892.8</ele>
        <time>2025-06-12T10:03:13Z</time>
      </trkpt>
      <trkpt lat="44.57983" lon="6.082">
        <ele>891.2</ele>
        <time>2025-06-12T10:03:14Z</time>
      </trkpt>
      <trkpt lat="44.5797" lon="6.08197">
        <ele>889.8</ele>
        <time>2025-06-12T10:03:15Z</time>
      </trkpt>
      <trkpt lat="44.57957" lon="6.08193">
        <ele>888.6</ele>
        <time>2025-06-12T10:03:16Z</time>
      </trkpt>
      <trkpt lat="44.57944" lon="6.08187">
        <ele>887.4</ele>
        <time>2025-06-12T10:03:17Z</time>
      </trkpt>
      <trkpt lat="44.57931" lon="6.08181">
        <ele>886</ele>
        <time>2025-06-12T10:03:18Z</time>
      </trkpt>
      <trkpt lat="44.57918" lon="6.08172">
        <ele>884.2</ele>
        <time>2025-06-12T10:03:19Z</time>
      </trkpt>
      <trkpt lat="44.57905" lon="6.08163">
        <ele>882.6</ele>
        <time>2025-06-12T10:03:20Z</time>
      </trkpt>
      <trkpt lat="44.57893" lon="6.08153">
        <ele>881.6</ele>
        <time>2025-06-12T10:03:21Z</time>
      </trkpt>
      <trkpt lat="44.57881" lon="6.08142">
        <ele>880.4</ele>
        <time>2025-06-12T10:03:22Z</time>
      </trkpt>
      <trkpt lat="44.57869" lon="6.08132">
        <ele>878.4</ele>
        <time>2025-06-12T10:03:23Z</time>
      </trkpt>
      <trkpt lat="44.57845" lon="6.08111">
        <ele>876.2</ele>
        <time>2025-06-12T10:03:25Z</time>
      </trkpt>
      <trkpt lat="44.57834" lon="6.08101">
        <ele>875</ele>
        <time>2025-06-12T10:03:26Z</time>
      </trkpt>
      <trkpt lat="44.57822" lon="6.08091">
        <ele>873.8</ele>
        <time>2025-06-12T10:03:27Z</time>
      </trkpt>
      <trkpt lat="44.57811" lon="6.0808">
        <ele>872.6</ele>
        <time>2025-06-12T10:03:28Z</time>
      </trkpt>
      <trkpt lat="44.57801" lon="6.0807">
        <ele>871.4</ele>
        <time>2025-06-12T10:03:29Z</time>
      </trkpt>
      <trkpt lat="44.57791" lon="6.08058">
        <ele>870.2</ele>
        <time>2025-06-12T10:03:30Z</time>
      </trkpt>
      <trkpt lat="44.57782" lon="6.08046">
        <ele>868.8</ele>
        <time>2025-06-12T10:03:31Z</time>
      </trkpt>
      <trkpt lat="44.57773" lon="6.08034">
        <ele>867.8</ele>
        <time>2025-06-12T10:03:32Z</time>
      </trkpt>
      <trkpt lat="44.57757" lon="6.08006">
        <ele>866</ele>
        <time>2025-06-12T10:03:34Z</time>
      </trkpt>
      <trkpt lat="44.57749" lon="6.07991">
        <ele>865.2</ele>
        <time>2025-06-12T10:03:35Z</time>
      </trkpt>
      <trkpt lat="44.57743" lon="6.07975">
        <ele>864.8</ele>
        <time>2025-06-12T10:03:36Z</time>
      </trkpt>
      <trkpt lat="44.57737" lon="6.07959">
        <ele>863.8</ele>
        <time>2025-06-12T10:03:37Z</time>
      </trkpt>
      <trkpt lat="44.57731" lon="6.07943">
        <ele>862.8</ele>
        <time>2025-06-12T10:03:38Z</time>
      </trkpt>
      <trkpt lat="44.57727" lon="6.07926">
        <ele>862.2</ele>
        <time>2025-06-12T10:03:39Z</time>
      </trkpt>
      <trkpt lat="44.57722" lon="6.07908">
        <ele>861.6</ele>
        <time>2025-06-12T10:03:40Z</time>
      </trkpt>
      <trkpt lat="44.57718" lon="6.07891">
        <ele>861</ele>
        <time>2025-06-12T10:03:41Z</time>
      </trkpt>
      <trkpt lat="44.57714" lon="6.07873">
        <ele>860</ele>
        <time>2025-06-12T10:03:42Z</time>
      </trkpt>
      <trkpt lat="44.5771" lon="6.07856">
        <ele>859.2</ele>
        <time>2025-06-12T10:03:43Z</time>
      </trkpt>
      <trkpt lat="44.57707" lon="6.07838">
        <ele>858.2</ele>
        <time>2025-06-12T10:03:44Z</time>
      </trkpt>
      <trkpt lat="44.57704" lon="6.0782">
        <ele>857.2</ele>
        <time>2025-06-12T10:03:45Z</time>
      </trkpt>
      <trkpt lat="44.577" lon="6.07803">
        <ele>856.2</ele>
        <time>2025-06-12T10:03:46Z</time>
      </trkpt>
      <trkpt lat="44.57697" lon="6.07785">
        <ele>855.2</ele>
        <time>2025-06-12T10:03:47Z</time>
      </trkpt>
      <trkpt lat="44.57694" lon="6.07767">
        <ele>854.6</ele>
        <time>2025-06-12T10:03:48Z</time>
      </trkpt>
      <trkpt lat="44.5769" lon="6.07749">
        <ele>854.2</ele>
        <time>2025-06-12T10:03:49Z</time>
      </trkpt>
      <trkpt lat="44.57687" lon="6.07731">
        <ele>852.8</ele>
        <time>2025-06-12T10:03:50Z</time>
      </trkpt>
      <trkpt lat="44.57684" lon="6.07713">
        <ele>850.4</ele>
        <time>2025-06-12T10:03:51Z</time>
      </trkpt>
      <trkpt lat="44.5768" lon="6.07696">
        <ele>849</ele>
        <time>2025-06-12T10:03:52Z</time>
      </trkpt>
      <trkpt lat="44.57676" lon="6.07678">
        <ele>848</ele>
        <time>2025-06-12T10:03:53Z</time>
      </trkpt>
      <trkpt lat="44.5767" lon="6.07642">
        <ele>846.8</ele>
        <time>2025-06-12T10:03:55Z</time>
      </trkpt>
      <trkpt lat="44.57667" lon="6.07623">
        <ele>846.2</ele>
        <time>2025-06-12T10:03:56Z</time>
      </trkpt>
      <trkpt lat="44.57664" lon="6.07605">
        <ele>845.6</ele>
        <time>2025-06-12T10:03:57Z</time>
      </trkpt>
      <trkpt lat="44.57663" lon="6.07587">
        <ele>845</ele>
        <time>2025-06-12T10:03:58Z</time>
      </trkpt>
      <trkpt lat="44.57662" lon="6.07569">
        <ele>844</ele>
        <time>2025-06-12T10:03:59Z</time>
      </trkpt>
      <trkpt lat="44.57662" lon="6.07551">
        <ele>842.8</ele>
        <time>2025-06-12T10:04:00Z</time>
      </trkpt>
      <trkpt lat="44.57662" lon="6.07534">
        <ele>842.2</ele>
        <time>2025-06-12T10:04:01Z</time>
      </trkpt>
      <trkpt lat="44.57663" lon="6.07517">
        <ele>841.2</ele>
        <time>2025-06-12T10:04:02Z</time>
      </trkpt>
      <trkpt lat="44.57664" lon="6.07501">
        <ele>840</ele>
        <time>2025-06-12T10:04:03Z</time>
      </trkpt>
      <trkpt lat="44.57665" lon="6.07486">
        <ele>838.8</ele>
        <time>2025-06-12T10:04:04Z</time>
      </trkpt>
      <trkpt lat="44.57666" lon="6.07472">
        <ele>837.8</ele>
        <time>2025-06-12T10:04:05Z</time>
      </trkpt>
      <trkpt lat="44.57667" lon="6.07459">
        <ele>837</ele>
        <time>2025-06-12T10:04:06Z</time>
      </trkpt>
      <trkpt lat="44.57668" lon="6.07446">
        <ele>836.4</ele>
        <time>2025-06-12T10:04:07Z</time>
      </trkpt>
      <trkpt lat="44.5767" lon="6.07434">
        <ele>836</ele>
        <time>2025-06-12T10:04:08Z</time>
      </trkpt>
      <trkpt lat="44.57672" lon="6.07424">
        <ele>835.8</ele>
        <time>2025-06-12T10:04:09Z</time>
      </trkpt>
      <trkpt lat="44.57676" lon="6.07415">
        <ele>835.8</ele>
        <time>2025-06-12T10:04:10Z</time>
      </trkpt>
      <trkpt lat="44.5768" lon="6.07407">
        <ele>835.8</ele>
        <time>2025-06-12T10:04:11Z</time>
      </trkpt>
      <trkpt lat="44.57683" lon="6.07399">
        <ele>835.8</ele>
        <time>2025-06-12T10:04:12Z</time>
      </trkpt>
      <trkpt lat="44.57683" lon="6.07391">
        <ele>835.8</ele>
        <time>2025-06-12T10:04:13Z</time>
      </trkpt>
      <trkpt lat="44.57683" lon="6.07383">
        <ele>835.8</ele>
        <time>2025-06-12T10:04:14Z</time>
      </trkpt>
      <trkpt lat="44.57681" lon="6.07376">
        <ele>835.8</ele>
        <time>2025-06-12T10:04:15Z</time>
      </trkpt>
      <trkpt lat="44.57676" lon="6.07366">
        <ele>835.8</ele>
        <time>2025-06-12T10:04:17Z</time>
      </trkpt>
      <trkpt lat="44.57673" lon="6.07362">
        <ele>836</ele>
        <time>2025-06-12T10:04:18Z</time>
      </trkpt>
      <trkpt lat="44.57672" lon="6.07357">
        <ele>836.8</ele>
        <time>2025-06-12T10:04:19Z</time>
      </trkpt>
      <trkpt lat="44.57671" lon="6.07352">
        <ele>837</ele>
        <time>2025-06-12T10:04:20Z</time>
      </trkpt>
      <trkpt lat="44.57669" lon="6.07349">
        <ele>837.2</ele>
        <time>2025-06-12T10:04:21Z</time>
      </trkpt>
      <trkpt lat="44.57668" lon="6.07348">
        <ele>837.4</ele>
        <time>2025-06-12T10:04:22Z</time>
      </trkpt>
      <trkpt lat="44.57666" lon="6.07349">
        <ele>837.6</ele>
        <time>2025-06-12T10:04:23Z</time>
      </trkpt>
      <trkpt lat="44.57665" lon="6.07352">
        <ele>837.6</ele>
        <time>2025-06-12T10:04:24Z</time>
      </trkpt>
      <trkpt lat="44.57665" lon="6.07358">
        <ele>837.8</ele>
        <time>2025-06-12T10:04:26Z</time>
      </trkpt>
      <trkpt lat="44.57665" lon="6.07361">
        <ele>838.2</ele>
        <time>2025-06-12T10:04:28Z</time>
      </trkpt>
      <trkpt lat="44.57665" lon="6.07361">
        <ele>838.2</ele>
        <time>2025-06-12T10:04:29Z</time>
      </trkpt>
      <trkpt lat="44.57665" lon="6.07361">
        <ele>838.2</ele>
        <time>2025-06-12T10:04:30Z</time>
      </trkpt>
      <trkpt lat="44.57665" lon="6.07362">
        <ele>838.4</ele>
        <time>2025-06-12T10:04:32Z</time>
      </trkpt>
      <trkpt lat="44.57665" lon="6.07362">
        <ele>838.6</ele>
        <time>2025-06-12T10:04:33Z</time>
      </trkpt>
      <trkpt lat="44.57662" lon="6.07374">
        <ele>838.4</ele>
        <time>2025-06-12T10:06:20Z</time>
      </trkpt>
      <trkpt lat="44.57661" lon="6.07376">
        <ele>838.4</ele>
        <time>2025-06-12T10:06:21Z</time>
      </trkpt>
      <trkpt lat="44.57659" lon="6.07379">
        <ele>838.4</ele>
        <time>2025-06-12T10:06:22Z</time>
      </trkpt>
      <trkpt lat="44.57657" lon="6.07382">
        <ele>838.4</ele>
        <time>2025-06-12T10:06:23Z</time>
      </trkpt>
      <trkpt lat="44.57656" lon="6.07385">
        <ele>838.4</ele>
        <time>2025-06-12T10:06:24Z</time>
      </trkpt>
      <trkpt lat="44.57652" lon="6.0739">
        <ele>838.4</ele>
        <time>2025-06-12T10:06:26Z</time>
      </trkpt>
      <trkpt lat="44.5765" lon="6.07391">
        <ele>838.4</ele>
        <time>2025-06-12T10:06:27Z</time>
      </trkpt>
      <trkpt lat="44.57647" lon="6.07392">
        <ele>838.4</ele>
        <time>2025-06-12T10:06:28Z</time>
      </trkpt>
      <trkpt lat="44.57645" lon="6.07393">
        <ele>838.4</ele>
        <time>2025-06-12T10:06:29Z</time>
      </trkpt>
      <trkpt lat="44.57642" lon="6.07394">
        <ele>838.4</ele>
        <time>2025-06-12T10:06:30Z</time>
      </trkpt>
      <trkpt lat="44.57639" lon="6.07396">
        <ele>838.4</ele>
        <time>2025-06-12T10:06:31Z</time>
      </trkpt>
      <trkpt lat="44.57636" lon="6.07397">
        <ele>838.4</ele>
        <time>2025-06-12T10:06:32Z</time>
      </trkpt>
      <trkpt lat="44.57633" lon="6.07398">
        <ele>838.4</ele>
        <time>2025-06-12T10:06:33Z</time>
      </trkpt>
      <trkpt lat="44.57626" lon="6.07399">
        <ele>838.4</ele>
        <time>2025-06-12T10:06:35Z</time>
      </trkpt>
      <trkpt lat="44.57618" lon="6.07401">
        <ele>838.2</ele>
        <time>2025-06-12T10:06:37Z</time>
      </trkpt>
      <trkpt lat="44.57613" lon="6.07402">
        <ele>838</ele>
        <time>2025-06-12T10:06:38Z</time>
      </trkpt>
      <trkpt lat="44.57608" lon="6.07403">
        <ele>837.8</ele>
        <time>2025-06-12T10:06:39Z</time>
      </trkpt>
      <trkpt lat="44.57603" lon="6.07404">
        <ele>837.8</ele>
        <time>2025-06-12T10:06:40Z</time>
      </trkpt>
      <trkpt lat="44.57597" lon="6.07405">
        <ele>837.6</ele>
        <time>2025-06-12T10:06:41Z</time>
      </trkpt>
      <trkpt lat="44.57591" lon="6.07406">
        <ele>837.8</ele>
        <time>2025-06-12T10:06:42Z</time>
      </trkpt>
      <trkpt lat="44.57584" lon="6.07407">
        <ele>837.6</ele>
        <time>2025-06-12T10:06:43Z</time>
      </trkpt>
      <trkpt lat="44.57577" lon="6.07408">
        <ele>837.2</ele>
        <time>2025-06-12T10:06:44Z</time>
      </trkpt>
      <trkpt lat="44.5757" lon="6.07409">
        <ele>837.2</ele>
        <time>2025-06-12T10:06:45Z</time>
      </trkpt>
      <trkpt lat="44.57563" lon="6.0741">
        <ele>837</ele>
        <time>2025-06-12T10:06:46Z</time>
      </trkpt>
      <trkpt lat="44.57555" lon="6.07412">
        <ele>836.8</ele>
        <time>2025-06-12T10:06:47Z</time>
      </trkpt>
      <trkpt lat="44.57546" lon="6.07413">
        <ele>836.4</ele>
        <time>2025-06-12T10:06:48Z</time>
      </trkpt>
      <trkpt lat="44.57538" lon="6.07414">
        <ele>836.2</ele>
        <time>2025-06-12T10:06:49Z</time>
      </trkpt>
      <trkpt lat="44.57529" lon="6.07415">
        <ele>836</ele>
        <time>2025-06-12T10:06:50Z</time>
      </trkpt>
      <trkpt lat="44.5752" lon="6.07417">
        <ele>835.2</ele>
        <time>2025-06-12T10:06:51Z</time>
      </trkpt>
      <trkpt lat="44.57511" lon="6.07418">
        <ele>834.8</ele>
        <time>2025-06-12T10:06:52Z</time>
      </trkpt>
      <trkpt lat="44.57501" lon="6.0742">
        <ele>834.2</ele>
        <time>2025-06-12T10:06:53Z</time>
      </trkpt>
      <trkpt lat="44.57482" lon="6.07424">
        <ele>833.2</ele>
        <time>2025-06-12T10:06:55Z</time>
      </trkpt>
      <trkpt lat="44.57462" lon="6.0743">
        <ele>831.6</ele>
        <time>2025-06-12T10:06:57Z</time>
      </trkpt>
      <trkpt lat="44.57452" lon="6.07435">
        <ele>831</ele>
        <time>2025-06-12T10:06:58Z</time>
      </trkpt>
      <trkpt lat="44.57442" lon="6.0744">
        <ele>830.2</ele>
        <time>2025-06-12T10:06:59Z</time>
      </trkpt>
      <trkpt lat="44.57432" lon="6.07447">
        <ele>829.6</ele>
        <time>2025-06-12T10:07:00Z</time>
      </trkpt>
      <trkpt lat="44.57423" lon="6.07454">
        <ele>828.8</ele>
        <time>2025-06-12T10:07:01Z</time>
      </trkpt>
      <trkpt lat="44.57414" lon="6.07463">
        <ele>828.2</ele>
        <time>2025-06-12T10:07:02Z</time>
      </trkpt>
      <trkpt lat="44.57405" lon="6.07472">
        <ele>827.6</ele>
        <time>2025-06-12T10:07:03Z</time>
      </trkpt>
      <trkpt lat="44.57396" lon="6.07482">
        <ele>827</ele>
        <time>2025-06-12T10:07:04Z</time>
      </trkpt>
      <trkpt lat="44.57387" lon="6.07493">
        <ele>825.4</ele>
        <time>2025-06-12T10:07:05Z</time>
      </trkpt>
      <trkpt lat="44.57379" lon="6.07504">
        <ele>824.8</ele>
        <time>2025-06-12T10:07:06Z</time>
      </trkpt>
      <trkpt lat="44.5737" lon="6.07515">
        <ele>824</ele>
        <time>2025-06-12T10:07:07Z</time>
      </trkpt>
      <trkpt lat="44.57361" lon="6.07526">
        <ele>823.2</ele>
        <time>2025-06-12T10:07:08Z</time>
      </trkpt>
      <trkpt lat="44.57351" lon="6.07537">
        <ele>822.6</ele>
        <time>2025-06-12T10:07:09Z</time>
      </trkpt>
      <trkpt lat="44.57342" lon="6.07548">
        <ele>821.8</ele>
        <time>2025-06-12T10:07:10Z</time>
      </trkpt>
      <trkpt lat="44.57333" lon="6.0756">
        <ele>820.8</ele>
        <time>2025-06-12T10:07:11Z</time>
      </trkpt>
      <trkpt lat="44.57316" lon="6.07582">
        <ele>819.4</ele>
        <time>2025-06-12T10:07:13Z</time>
      </trkpt>
      <trkpt lat="44.573" lon="6.07602">
        <ele>818.2</ele>
        <time>2025-06-12T10:07:15Z</time>
      </trkpt>
      <trkpt lat="44.57293" lon="6.07611">
        <ele>817.2</ele>
        <time>2025-06-12T10:07:16Z</time>
      </trkpt>
      <trkpt lat="44.57288" lon="6.07619">
        <ele>816.2</ele>
        <time>2025-06-12T10:07:17Z</time>
      </trkpt>
      <trkpt lat="44.57283" lon="6.07626">
        <ele>815.4</ele>
        <time>2025-06-12T10:07:18Z</time>
      </trkpt>
      <trkpt lat="44.57278" lon="6.0763">
        <ele>815</ele>
        <time>2025-06-12T10:07:19Z</time>
      </trkpt>
      <trkpt lat="44.57272" lon="6.07631">
        <ele>814.4</ele>
        <time>2025-06-12T10:07:20Z</time>
      </trkpt>
      <trkpt lat="44.57267" lon="6.0763">
        <ele>813.8</ele>
        <time>2025-06-12T10:07:21Z</time>
      </trkpt>
      <trkpt lat="44.5726" lon="6.07628">
        <ele>813.4</ele>
        <time>2025-06-12T10:07:22Z</time>
      </trkpt>
      <trkpt lat="44.57254" lon="6.07627">
        <ele>813</ele>
        <time>2025-06-12T10:07:23Z</time>
      </trkpt>
      <trkpt lat="44.57248" lon="6.07627">
        <ele>812.8</ele>
        <time>2025-06-12T10:07:24Z</time>
      </trkpt>
      <trkpt lat="44.57242" lon="6.07627">
        <ele>812.6</ele>
        <time>2025-06-12T10:07:25Z</time>
      </trkpt>
      <trkpt lat="44.57235" lon="6.07631">
        <ele>812.6</ele>
        <time>2025-06-12T10:07:26Z</time>
      </trkpt>
      <trkpt lat="44.57228" lon="6.07636">
        <ele>812.4</ele>
        <time>2025-06-12T10:07:27Z</time>
      </trkpt>
      <trkpt lat="44.57221" lon="6.07644">
        <ele>812.2</ele>
        <time>2025-06-12T10:07:28Z</time>
      </trkpt>
      <trkpt lat="44.57214" lon="6.07653">
        <ele>812.2</ele>
        <time>2025-06-12T10:07:29Z</time>
      </trkpt>
      <trkpt lat="44.57205" lon="6.07663">
        <ele>812</ele>
        <time>2025-06-12T10:07:30Z</time>
      </trkpt>
      <trkpt lat="44.57197" lon="6.07674">
        <ele>811.2</ele>
        <time>2025-06-12T10:07:31Z</time>
      </trkpt>
      <trkpt lat="44.57188" lon="6.07685">
        <ele>810.2</ele>
        <time>2025-06-12T10:07:32Z</time>
      </trkpt>
      <trkpt lat="44.5718" lon="6.07695">
        <ele>807.8</ele>
        <time>2025-06-12T10:07:33Z</time>
      </trkpt>
      <trkpt lat="44.57173" lon="6.07706">
        <ele>806.6</ele>
        <time>2025-06-12T10:07:34Z</time>
      </trkpt>
      <trkpt lat="44.57165" lon="6.07718">
        <ele>805</ele>
        <time>2025-06-12T10:07:35Z</time>
      </trkpt>
      <trkpt lat="44.57157" lon="6.07729">
        <ele>803.6</ele>
        <time>2025-06-12T10:07:36Z</time>
      </trkpt>
      <trkpt lat="44.57149" lon="6.07739">
        <ele>802</ele>
        <time>2025-06-12T10:07:37Z</time>
      </trkpt>
      <trkpt lat="44.57141" lon="6.07748">
        <ele>800.2</ele>
        <time>2025-06-12T10:07:38Z</time>
      </trkpt>
      <trkpt lat="44.57132" lon="6.07757">
        <ele>798.2</ele>
        <time>2025-06-12T10:07:39Z</time>
      </trkpt>
      <trkpt lat="44.57123" lon="6.07764">
        <ele>796.6</ele>
        <time>2025-06-12T10:07:40Z</time>
      </trkpt>
      <trkpt lat="44.57114" lon="6.0777">
        <ele>795.2</ele>
        <time>2025-06-12T10:07:41Z</time>
      </trkpt>
      <trkpt lat="44.57105" lon="6.07775">
        <ele>793.8</ele>
        <time>2025-06-12T10:07:42Z</time>
      </trkpt>
      <trkpt lat="44.57097" lon="6.0778">
        <ele>792.4</ele>
        <time>2025-06-12T10:07:43Z</time>
      </trkpt>
      <trkpt lat="44.57089" lon="6.07784">
        <ele>791</ele>
        <time>2025-06-12T10:07:44Z</time>
      </trkpt>
      <trkpt lat="44.5708" lon="6.07787">
        <ele>789.4</ele>
        <time>2025-06-12T10:07:45Z</time>
      </trkpt>
      <trkpt lat="44.57073" lon="6.07791">
        <ele>787.8</ele>
        <time>2025-06-12T10:07:46Z</time>
      </trkpt>
      <trkpt lat="44.57066" lon="6.07794">
        <ele>786.4</ele>
        <time>2025-06-12T10:07:47Z</time>
      </trkpt>
      <trkpt lat="44.5706" lon="6.07796">
        <ele>785</ele>
        <time>2025-06-12T10:07:48Z</time>
      </trkpt>
      <trkpt lat="44.57054" lon="6.078">
        <ele>784</ele>
        <time>2025-06-12T10:07:49Z</time>
      </trkpt>
      <trkpt lat="44.57048" lon="6.07804">
        <ele>783</ele>
        <time>2025-06-12T10:07:50Z</time>
      </trkpt>
      <trkpt lat="44.57041" lon="6.07807">
        <ele>782.2</ele>
        <time>2025-06-12T10:07:51Z</time>
      </trkpt>
      <trkpt lat="44.57024" lon="6.07813">
        <ele>780.4</ele>
        <time>2025-06-12T10:07:53Z</time>
      </trkpt>
      <trkpt lat="44.57008" lon="6.07816">
        <ele>779.2</ele>
        <time>2025-06-12T10:07:55Z</time>
      </trkpt>
      <trkpt lat="44.57001" lon="6.07821">
        <ele>778.4</ele>
        <time>2025-06-12T10:07:56Z</time>
      </trkpt>
      <trkpt lat="44.56995" lon="6.07826">
        <ele>777.8</ele>
        <time>2025-06-12T10:07:57Z</time>
      </trkpt>
      <trkpt lat="44.5699" lon="6.07831">
        <ele>777.2</ele>
        <time>2025-06-12T10:07:58Z</time>
      </trkpt>
      <trkpt lat="44.56985" lon="6.07837">
        <ele>776.4</ele>
        <time>2025-06-12T10:07:59Z</time>
      </trkpt>
      <trkpt lat="44.56981" lon="6.07843">
        <ele>774.6</ele>
        <time>2025-06-12T10:08:00Z</time>
      </trkpt>
      <trkpt lat="44.56977" lon="6.07851">
        <ele>773.4</ele>
        <time>2025-06-12T10:08:01Z</time>
      </trkpt>
      <trkpt lat="44.56974" lon="6.07859">
        <ele>772.2</ele>
        <time>2025-06-12T10:08:02Z</time>
      </trkpt>
      <trkpt lat="44.56972" lon="6.07869">
        <ele>771.6</ele>
        <time>2025-06-12T10:08:03Z</time>
      </trkpt>
      <trkpt lat="44.5697" lon="6.07878">
        <ele>771</ele>
        <time>2025-06-12T10:08:04Z</time>
      </trkpt>
      <trkpt lat="44.56967" lon="6.07893">
        <ele>769.8</ele>
        <time>2025-06-12T10:08:06Z</time>
      </trkpt>
      <trkpt lat="44.56965" lon="6.079">
        <ele>769</ele>
        <time>2025-06-12T10:08:07Z</time>
      </trkpt>
      <trkpt lat="44.56964" lon="6.07907">
        <ele>768.4</ele>
        <time>2025-06-12T10:08:08Z</time>
      </trkpt>
      <trkpt lat="44.56962" lon="6.07917">
        <ele>767.8</ele>
        <time>2025-06-12T10:08:09Z</time>
      </trkpt>
      <trkpt lat="44.5696" lon="6.07925">
        <ele>767.4</ele>
        <time>2025-06-12T10:08:10Z</time>
      </trkpt>
      <trkpt lat="44.56958" lon="6.07934">
        <ele>767.2</ele>
        <time>2025-06-12T10:08:11Z</time>
      </trkpt>
      <trkpt lat="44.56956" lon="6.07942">
        <ele>767</ele>
        <time>2025-06-12T10:08:12Z</time>
      </trkpt>
      <trkpt lat="44.56954" lon="6.07951">
        <ele>766.8</ele>
        <time>2025-06-12T10:08:13Z</time>
      </trkpt>
      <trkpt lat="44.56952" lon="6.0796">
        <ele>766.8</ele>
        <time>2025-06-12T10:08:14Z</time>
      </trkpt>
      <trkpt lat="44.56949" lon="6.07969">
        <ele>766.6</ele>
        <time>2025-06-12T10:08:15Z</time>
      </trkpt>
      <trkpt lat="44.56947" lon="6.07978">
        <ele>766.4</ele>
        <time>2025-06-12T10:08:16Z</time>
      </trkpt>
      <trkpt lat="44.56945" lon="6.07986">
        <ele>766.2</ele>
        <time>2025-06-12T10:08:17Z</time>
      </trkpt>
      <trkpt lat="44.5694" lon="6.08004">
        <ele>766.2</ele>
        <time>2025-06-12T10:08:19Z</time>
      </trkpt>
      <trkpt lat="44.56935" lon="6.08021">
        <ele>766.2</ele>
        <time>2025-06-12T10:08:21Z</time>
      </trkpt>
      <trkpt lat="44.56932" lon="6.08029">
        <ele>766</ele>
        <time>2025-06-12T10:08:22Z</time>
      </trkpt>
      <trkpt lat="44.56929" lon="6.08037">
        <ele>765.8</ele>
        <time>2025-06-12T10:08:23Z</time>
      </trkpt>
      <trkpt lat="44.56925" lon="6.08045">
        <ele>765.6</ele>
        <time>2025-06-12T10:08:24Z</time>
      </trkpt>
      <trkpt lat="44.5692" lon="6.08052">
        <ele>765.4</ele>
        <time>2025-06-12T10:08:25Z</time>
      </trkpt>
      <trkpt lat="44.56915" lon="6.08059">
        <ele>765.2</ele>
        <time>2025-06-12T10:08:26Z</time>
      </trkpt>
      <trkpt lat="44.5691" lon="6.08065">
        <ele>765</ele>
        <time>2025-06-12T10:08:27Z</time>
      </trkpt>
      <trkpt lat="44.56905" lon="6.08071">
        <ele>765</ele>
        <time>2025-06-12T10:08:28Z</time>
      </trkpt>
      <trkpt lat="44.56899" lon="6.08077">
        <ele>764.8</ele>
        <time>2025-06-12T10:08:29Z</time>
      </trkpt>
      <trkpt lat="44.56893" lon="6.08081">
        <ele>764.6</ele>
        <time>2025-06-12T10:08:30Z</time>
      </trkpt>
      <trkpt lat="44.56887" lon="6.08084">
        <ele>764.2</ele>
        <time>2025-06-12T10:08:31Z</time>
      </trkpt>
      <trkpt lat="44.56881" lon="6.08087">
        <ele>764</ele>
        <time>2025-06-12T10:08:32Z</time>
      </trkpt>
      <trkpt lat="44.56875" lon="6.0809">
        <ele>763.8</ele>
        <time>2025-06-12T10:08:33Z</time>
      </trkpt>
      <trkpt lat="44.56862" lon="6.08093">
        <ele>763.6</ele>
        <time>2025-06-12T10:08:35Z</time>
      </trkpt>
      <trkpt lat="44.5685" lon="6.08098">
        <ele>763.4</ele>
        <time>2025-06-12T10:08:37Z</time>
      </trkpt>
      <trkpt lat="44.56844" lon="6.081">
        <ele>763.4</ele>
        <time>2025-06-12T10:08:38Z</time>
      </trkpt>
      <trkpt lat="44.56837" lon="6.08102">
        <ele>763.2</ele>
        <time>2025-06-12T10:08:39Z</time>
      </trkpt>
      <trkpt lat="44.5683" lon="6.08104">
        <ele>763.2</ele>
        <time>2025-06-12T10:08:40Z</time>
      </trkpt>
      <trkpt lat="44.56824" lon="6.08105">
        <ele>763</ele>
        <time>2025-06-12T10:08:41Z</time>
      </trkpt>
      <trkpt lat="44.56817" lon="6.08106">
        <ele>762.8</ele>
        <time>2025-06-12T10:08:42Z</time>
      </trkpt>
      <trkpt lat="44.5681" lon="6.08106">
        <ele>762.8</ele>
        <time>2025-06-12T10:08:43Z</time>
      </trkpt>
      <trkpt lat="44.56803" lon="6.08107">
        <ele>762.6</ele>
        <time>2025-06-12T10:08:44Z</time>
      </trkpt>
      <trkpt lat="44.56789" lon="6.08107">
        <ele>762.6</ele>
        <time>2025-06-12T10:08:46Z</time>
      </trkpt>
      <trkpt lat="44.56775" lon="6.0811">
        <ele>762.2</ele>
        <time>2025-06-12T10:08:48Z</time>
      </trkpt>
      <trkpt lat="44.56767" lon="6.08113">
        <ele>761.8</ele>
        <time>2025-06-12T10:08:49Z</time>
      </trkpt>
      <trkpt lat="44.56758" lon="6.08117">
        <ele>761.4</ele>
        <time>2025-06-12T10:08:50Z</time>
      </trkpt>
      <trkpt lat="44.5675" lon="6.08122">
        <ele>761</ele>
        <time>2025-06-12T10:08:51Z</time>
      </trkpt>
      <trkpt lat="44.56742" lon="6.08127">
        <ele>760.8</ele>
        <time>2025-06-12T10:08:52Z</time>
      </trkpt>
      <trkpt lat="44.56734" lon="6.08132">
        <ele>760.4</ele>
        <time>2025-06-12T10:08:53Z</time>
      </trkpt>
      <trkpt lat="44.56726" lon="6.08137">
        <ele>760.2</ele>
        <time>2025-06-12T10:08:54Z</time>
      </trkpt>
      <trkpt lat="44.56718" lon="6.08142">
        <ele>759.6</ele>
        <time>2025-06-12T10:08:55Z</time>
      </trkpt>
      <trkpt lat="44.56709" lon="6.08146">
        <ele>759</ele>
        <time>2025-06-12T10:08:56Z</time>
      </trkpt>
      <trkpt lat="44.56701" lon="6.08149">
        <ele>758.4</ele>
        <time>2025-06-12T10:08:57Z</time>
      </trkpt>
      <trkpt lat="44.56694" lon="6.08152">
        <ele>757.6</ele>
        <time>2025-06-12T10:08:58Z</time>
      </trkpt>
      <trkpt lat="44.56689" lon="6.08153">
        <ele>756.6</ele>
        <time>2025-06-12T10:08:59Z</time>
      </trkpt>
      <trkpt lat="44.56685" lon="6.08154">
        <ele>755.4</ele>
        <time>2025-06-12T10:09:00Z</time>
      </trkpt>
      <trkpt lat="44.56683" lon="6.08155">
        <ele>754.4</ele>
        <time>2025-06-12T10:09:01Z</time>
      </trkpt>
      <trkpt lat="44.56681" lon="6.08156">
        <ele>753.4</ele>
        <time>2025-06-12T10:09:02Z</time>
      </trkpt>
      <trkpt lat="44.56681" lon="6.08156">
        <ele>752.6</ele>
        <time>2025-06-12T10:09:03Z</time>
      </trkpt>
      <trkpt lat="44.56681" lon="6.08156">
        <ele>752</ele>
        <time>2025-06-12T10:09:04Z</time>
      </trkpt>
      <trkpt lat="44.56681" lon="6.08156">
        <ele>751.4</ele>
        <time>2025-06-12T10:09:05Z</time>
      </trkpt>
      <trkpt lat="44.56681" lon="6.08157">
        <ele>751</ele>
        <time>2025-06-12T10:09:06Z</time>
      </trkpt>
      <trkpt lat="44.5668" lon="6.08156">
        <ele>750.8</ele>
        <time>2025-06-12T10:09:08Z</time>
      </trkpt>
      <trkpt lat="44.56668" lon="6.0816">
        <ele>750.6</ele>
        <time>2025-06-12T10:09:13Z</time>
      </trkpt>
      <trkpt lat="44.56666" lon="6.08161">
        <ele>750.4</ele>
        <time>2025-06-12T10:09:14Z</time>
      </trkpt>
      <trkpt lat="44.56663" lon="6.08161">
        <ele>750.2</ele>
        <time>2025-06-12T10:09:15Z</time>
      </trkpt>
      <trkpt lat="44.56656" lon="6.08162">
        <ele>750.2</ele>
        <time>2025-06-12T10:09:17Z</time>
      </trkpt>
      <trkpt lat="44.56652" lon="6.08164">
        <ele>750.2</ele>
        <time>2025-06-12T10:09:18Z</time>
      </trkpt>
      <trkpt lat="44.56647" lon="6.08166">
        <ele>750</ele>
        <time>2025-06-12T10:09:19Z</time>
      </trkpt>
      <trkpt lat="44.56637" lon="6.08169">
        <ele>749.4</ele>
        <time>2025-06-12T10:09:21Z</time>
      </trkpt>
      <trkpt lat="44.56632" lon="6.08171">
        <ele>749.4</ele>
        <time>2025-06-12T10:09:22Z</time>
      </trkpt>
      <trkpt lat="44.56626" lon="6.08173">
        <ele>749</ele>
        <time>2025-06-12T10:09:23Z</time>
      </trkpt>
      <trkpt lat="44.56621" lon="6.08174">
        <ele>748.8</ele>
        <time>2025-06-12T10:09:24Z</time>
      </trkpt>
      <trkpt lat="44.56615" lon="6.08176">
        <ele>748.6</ele>
        <time>2025-06-12T10:09:25Z</time>
      </trkpt>
      <trkpt lat="44.56609" lon="6.08177">
        <ele>748.2</ele>
        <time>2025-06-12T10:09:26Z</time>
      </trkpt>
      <trkpt lat="44.56602" lon="6.08179">
        <ele>748</ele>
        <time>2025-06-12T10:09:27Z</time>
      </trkpt>
      <trkpt lat="44.56596" lon="6.08181">
        <ele>747.6</ele>
        <time>2025-06-12T10:09:28Z</time>
      </trkpt>
      <trkpt lat="44.56589" lon="6.08184">
        <ele>747.4</ele>
        <time>2025-06-12T10:09:29Z</time>
      </trkpt>
      <trkpt lat="44.56582" lon="6.08186">
        <ele>747</ele>
        <time>2025-06-12T10:09:30Z</time>
      </trkpt>
      <trkpt lat="44.56569" lon="6.08189">
        <ele>746.4</ele>
        <time>2025-06-12T10:09:32Z</time>
      </trkpt>
      <trkpt lat="44.56556" lon="6.08191">
        <ele>745.6</ele>
        <time>2025-06-12T10:09:34Z</time>
      </trkpt>
      <trkpt lat="44.56543" lon="6.08195">
        <ele>744.8</ele>
        <time>2025-06-12T10:09:36Z</time>
      </trkpt>
      <trkpt lat="44.56536" lon="6.08197">
        <ele>744.6</ele>
        <time>2025-06-12T10:09:37Z</time>
      </trkpt>
      <trkpt lat="44.56529" lon="6.082">
        <ele>744.6</ele>
        <time>2025-06-12T10:09:38Z</time>
      </trkpt>
      <trkpt lat="44.56523" lon="6.08201">
        <ele>744.6</ele>
        <time>2025-06-12T10:09:39Z</time>
      </trkpt>
      <trkpt lat="44.56516" lon="6.08203">
        <ele>744.4</ele>
        <time>2025-06-12T10:09:40Z</time>
      </trkpt>
      <trkpt lat="44.5651" lon="6.08204">
        <ele>744.4</ele>
        <time>2025-06-12T10:09:41Z</time>
      </trkpt>
      <trkpt lat="44.56496" lon="6.08207">
        <ele>743.8</ele>
        <time>2025-06-12T10:09:43Z</time>
      </trkpt>
      <trkpt lat="44.56488" lon="6.08208">
        <ele>743.6</ele>
        <time>2025-06-12T10:09:44Z</time>
      </trkpt>
      <trkpt lat="44.5648" lon="6.0821">
        <ele>743.4</ele>
        <time>2025-06-12T10:09:45Z</time>
      </trkpt>
      <trkpt lat="44.56471" lon="6.08209">
        <ele>743.2</ele>
        <time>2025-06-12T10:09:46Z</time>
      </trkpt>
      <trkpt lat="44.56463" lon="6.08207">
        <ele>743.2</ele>
        <time>2025-06-12T10:09:47Z</time>
      </trkpt>
      <trkpt lat="44.56454" lon="6.08202">
        <ele>743</ele>
        <time>2025-06-12T10:09:48Z</time>
      </trkpt>
      <trkpt lat="44.56446" lon="6.08195">
        <ele>742.8</ele>
        <time>2025-06-12T10:09:49Z</time>
      </trkpt>
      <trkpt lat="44.56438" lon="6.08186">
        <ele>742.6</ele>
        <time>2025-06-12T10:09:50Z</time>
      </trkpt>
      <trkpt lat="44.56431" lon="6.08176">
        <ele>741.8</ele>
        <time>2025-06-12T10:09:51Z</time>
      </trkpt>
      <trkpt lat="44.56425" lon="6.08167">
        <ele>741.2</ele>
        <time>2025-06-12T10:09:52Z</time>
      </trkpt>
      <trkpt lat="44.56418" lon="6.08157">
        <ele>740.8</ele>
        <time>2025-06-12T10:09:53Z</time>
      </trkpt>
      <trkpt lat="44.56411" lon="6.08149">
        <ele>740.2</ele>
        <time>2025-06-12T10:09:54Z</time>
      </trkpt>
      <trkpt lat="44.56403" lon="6.08142">
        <ele>739.6</ele>
        <time>2025-06-12T10:09:55Z</time>
      </trkpt>
      <trkpt lat="44.56395" lon="6.08136">
        <ele>738.8</ele>
        <time>2025-06-12T10:09:56Z</time>
      </trkpt>
      <trkpt lat="44.5638" lon="6.08127">
        <ele>737.4</ele>
        <time>2025-06-12T10:09:58Z</time>
      </trkpt>
      <trkpt lat="44.56375" lon="6.0812">
        <ele>736.4</ele>
        <time>2025-06-12T10:09:59Z</time>
      </trkpt>
      <trkpt lat="44.56372" lon="6.08112">
        <ele>736</ele>
        <time>2025-06-12T10:10:00Z</time>
      </trkpt>
      <trkpt lat="44.56371" lon="6.08093">
        <ele>735.4</ele>
        <time>2025-06-12T10:10:02Z</time>
      </trkpt>
      <trkpt lat="44.56371" lon="6.08084">
        <ele>735.4</ele>
        <time>2025-06-12T10:10:03Z</time>
      </trkpt>
      <trkpt lat="44.56372" lon="6.08074">
        <ele>735.2</ele>
        <time>2025-06-12T10:10:04Z</time>
      </trkpt>
      <trkpt lat="44.56372" lon="6.08065">
        <ele>735.2</ele>
        <time>2025-06-12T10:10:05Z</time>
      </trkpt>
      <trkpt lat="44.56373" lon="6.08055">
        <ele>735.2</ele>
        <time>2025-06-12T10:10:06Z</time>
      </trkpt>
      <trkpt lat="44.56374" lon="6.08045">
        <ele>735.2</ele>
        <time>2025-06-12T10:10:07Z</time>
      </trkpt>
      <trkpt lat="44.56374" lon="6.08036">
        <ele>735.2</ele>
        <time>2025-06-12T10:10:08Z</time>
      </trkpt>
      <trkpt lat="44.56375" lon="6.08026">
        <ele>735.2</ele>
        <time>2025-06-12T10:10:09Z</time>
      </trkpt>
      <trkpt lat="44.56376" lon="6.08006">
        <ele>735.4</ele>
        <time>2025-06-12T10:10:11Z</time>
      </trkpt>
      <trkpt lat="44.56377" lon="6.07996">
        <ele>735.4</ele>
        <time>2025-06-12T10:10:12Z</time>
      </trkpt>
      <trkpt lat="44.56377" lon="6.07986">
        <ele>735.4</ele>
        <time>2025-06-12T10:10:13Z</time>
      </trkpt>
      <trkpt lat="44.56378" lon="6.07976">
        <ele>735.6</ele>
        <time>2025-06-12T10:10:14Z</time>
      </trkpt>
      <trkpt lat="44.56378" lon="6.07966">
        <ele>735.6</ele>
        <time>2025-06-12T10:10:15Z</time>
      </trkpt>
      <trkpt lat="44.56378" lon="6.07956">
        <ele>735.6</ele>
        <time>2025-06-12T10:10:16Z</time>
      </trkpt>
      <trkpt lat="44.56379" lon="6.07936">
        <ele>735.6</ele>
        <time>2025-06-12T10:10:18Z</time>
      </trkpt>
      <trkpt lat="44.56379" lon="6.07916">
        <ele>735.8</ele>
        <time>2025-06-12T10:10:20Z</time>
      </trkpt>
      <trkpt lat="44.56379" lon="6.07906">
        <ele>735.8</ele>
        <time>2025-06-12T10:10:21Z</time>
      </trkpt>
      <trkpt lat="44.56379" lon="6.07896">
        <ele>735.8</ele>
        <time>2025-06-12T10:10:22Z</time>
      </trkpt>
      <trkpt lat="44.56379" lon="6.07887">
        <ele>735.8</ele>
        <time>2025-06-12T10:10:23Z</time>
      </trkpt>
      <trkpt lat="44.56379" lon="6.07871">
        <ele>735.8</ele>
        <time>2025-06-12T10:10:25Z</time>
      </trkpt>
      <trkpt lat="44.5638" lon="6.07864">
        <ele>735.8</ele>
        <time>2025-06-12T10:10:26Z</time>
      </trkpt>
      <trkpt lat="44.56381" lon="6.07857">
        <ele>735.8</ele>
        <time>2025-06-12T10:10:27Z</time>
      </trkpt>
      <trkpt lat="44.56381" lon="6.0785">
        <ele>735.8</ele>
        <time>2025-06-12T10:10:28Z</time>
      </trkpt>
      <trkpt lat="44.5638" lon="6.07843">
        <ele>735.8</ele>
        <time>2025-06-12T10:10:29Z</time>
      </trkpt>
      <trkpt lat="44.56377" lon="6.07839">
        <ele>735.8</ele>
        <time>2025-06-12T10:10:30Z</time>
      </trkpt>
      <trkpt lat="44.56372" lon="6.07837">
        <ele>735.8</ele>
        <time>2025-06-12T10:10:31Z</time>
      </trkpt>
      <trkpt lat="44.56367" lon="6.07836">
        <ele>735.8</ele>
        <time>2025-06-12T10:10:32Z</time>
      </trkpt>
      <trkpt lat="44.56354" lon="6.07834">
        <ele>735.8</ele>
        <time>2025-06-12T10:10:34Z</time>
      </trkpt>
      <trkpt lat="44.56348" lon="6.07833">
        <ele>735.6</ele>
        <time>2025-06-12T10:10:35Z</time>
      </trkpt>
      <trkpt lat="44.56341" lon="6.07831">
        <ele>735.6</ele>
        <time>2025-06-12T10:10:36Z</time>
      </trkpt>
      <trkpt lat="44.56335" lon="6.07829">
        <ele>735.4</ele>
        <time>2025-06-12T10:10:37Z</time>
      </trkpt>
      <trkpt lat="44.56329" lon="6.07825">
        <ele>735.4</ele>
        <time>2025-06-12T10:10:38Z</time>
      </trkpt>
      <trkpt lat="44.56324" lon="6.07818">
        <ele>735.2</ele>
        <time>2025-06-12T10:10:39Z</time>
      </trkpt>
      <trkpt lat="44.56321" lon="6.0781">
        <ele>735</ele>
        <time>2025-06-12T10:10:40Z</time>
      </trkpt>
      <trkpt lat="44.56318" lon="6.07801">
        <ele>735</ele>
        <time>2025-06-12T10:10:41Z</time>
      </trkpt>
      <trkpt lat="44.56316" lon="6.07793">
        <ele>735</ele>
        <time>2025-06-12T10:10:42Z</time>
      </trkpt>
      <trkpt lat="44.56314" lon="6.07784">
        <ele>735</ele>
        <time>2025-06-12T10:10:43Z</time>
      </trkpt>
      <trkpt lat="44.56313" lon="6.07776">
        <ele>735</ele>
        <time>2025-06-12T10:10:44Z</time>
      </trkpt>
      <trkpt lat="44.56312" lon="6.07769">
        <ele>735</ele>
        <time>2025-06-12T10:10:45Z</time>
      </trkpt>
      <trkpt lat="44.5631" lon="6.07755">
        <ele>735</ele>
        <time>2025-06-12T10:10:47Z</time>
      </trkpt>
      <trkpt lat="44.56308" lon="6.07744">
        <ele>735</ele>
        <time>2025-06-12T10:10:49Z</time>
      </trkpt>
      <trkpt lat="44.56307" lon="6.07739">
        <ele>735</ele>
        <time>2025-06-12T10:10:50Z</time>
      </trkpt>
      <trkpt lat="44.56306" lon="6.07735">
        <ele>735</ele>
        <time>2025-06-12T10:10:51Z</time>
      </trkpt>
      <trkpt lat="44.56306" lon="6.0773">
        <ele>735</ele>
        <time>2025-06-12T10:10:52Z</time>
      </trkpt>
      <trkpt lat="44.56305" lon="6.07727">
        <ele>735.2</ele>
        <time>2025-06-12T10:10:53Z</time>
      </trkpt>
      <trkpt lat="44.56304" lon="6.07723">
        <ele>735.6</ele>
        <time>2025-06-12T10:10:54Z</time>
      </trkpt>
      <trkpt lat="44.56303" lon="6.07717">
        <ele>736.2</ele>
        <time>2025-06-12T10:10:56Z</time>
      </trkpt>
      <trkpt lat="44.56302" lon="6.07714">
        <ele>736.4</ele>
        <time>2025-06-12T10:10:57Z</time>
      </trkpt>
      <trkpt lat="44.56302" lon="6.07711">
        <ele>736.8</ele>
        <time>2025-06-12T10:10:58Z</time>
      </trkpt>
      <trkpt lat="44.56301" lon="6.07708">
        <ele>737.2</ele>
        <time>2025-06-12T10:10:59Z</time>
      </trkpt>
      <trkpt lat="44.56301" lon="6.07705">
        <ele>737.4</ele>
        <time>2025-06-12T10:11:00Z</time>
      </trkpt>
      <trkpt lat="44.563" lon="6.07703">
        <ele>737.6</ele>
        <time>2025-06-12T10:11:01Z</time>
      </trkpt>
      <trkpt lat="44.56299" lon="6.07699">
        <ele>737.8</ele>
        <time>2025-06-12T10:11:02Z</time>
      </trkpt>
      <trkpt lat="44.56298" lon="6.07696">
        <ele>737.8</ele>
        <time>2025-06-12T10:11:03Z</time>
      </trkpt>
      <trkpt lat="44.56295" lon="6.07694">
        <ele>738</ele>
        <time>2025-06-12T10:11:04Z</time>
      </trkpt>
      <trkpt lat="44.56292" lon="6.07694">
        <ele>738.2</ele>
        <time>2025-06-12T10:11:05Z</time>
      </trkpt>
      <trkpt lat="44.56285" lon="6.07695">
        <ele>738.4</ele>
        <time>2025-06-12T10:11:07Z</time>
      </trkpt>
      <trkpt lat="44.56277" lon="6.07698">
        <ele>738.6</ele>
        <time>2025-06-12T10:11:09Z</time>
      </trkpt>
      <trkpt lat="44.56273" lon="6.077">
        <ele>738.6</ele>
        <time>2025-06-12T10:11:10Z</time>
      </trkpt>
      <trkpt lat="44.56268" lon="6.07702">
        <ele>738.6</ele>
        <time>2025-06-12T10:11:11Z</time>
      </trkpt>
      <trkpt lat="44.56263" lon="6.07707">
        <ele>738.6</ele>
        <time>2025-06-12T10:11:12Z</time>
      </trkpt>
      <trkpt lat="44.56258" lon="6.07711">
        <ele>738.6</ele>
        <time>2025-06-12T10:11:13Z</time>
      </trkpt>
      <trkpt lat="44.56253" lon="6.07716">
        <ele>738.6</ele>
        <time>2025-06-12T10:11:14Z</time>
      </trkpt>
      <trkpt lat="44.56248" lon="6.0772">
        <ele>738.6</ele>
        <time>2025-06-12T10:11:15Z</time>
      </trkpt>
      <trkpt lat="44.56243" lon="6.07724">
        <ele>738.4</ele>
        <time>2025-06-12T10:11:16Z</time>
      </trkpt>
      <trkpt lat="44.56238" lon="6.07729">
        <ele>737.8</ele>
        <time>2025-06-12T10:11:17Z</time>
      </trkpt>
      <trkpt lat="44.56233" lon="6.07734">
        <ele>737.4</ele>
        <time>2025-06-12T10:11:18Z</time>
      </trkpt>
      <trkpt lat="44.56227" lon="6.07739">
        <ele>737.2</ele>
        <time>2025-06-12T10:11:19Z</time>
      </trkpt>
      <trkpt lat="44.56222" lon="6.07743">
        <ele>737</ele>
        <time>2025-06-12T10:11:20Z</time>
      </trkpt>
      <trkpt lat="44.56217" lon="6.07748">
        <ele>736.8</ele>
        <time>2025-06-12T10:11:21Z</time>
      </trkpt>
      <trkpt lat="44.56211" lon="6.07752">
        <ele>736.6</ele>
        <time>2025-06-12T10:11:22Z</time>
      </trkpt>
      <trkpt lat="44.56199" lon="6.07756">
        <ele>736</ele>
        <time>2025-06-12T10:11:24Z</time>
      </trkpt>
      <trkpt lat="44.56194" lon="6.07756">
        <ele>735.8</ele>
        <time>2025-06-12T10:11:25Z</time>
      </trkpt>
      <trkpt lat="44.56188" lon="6.07754">
        <ele>735.4</ele>
        <time>2025-06-12T10:11:26Z</time>
      </trkpt>
      <trkpt lat="44.56182" lon="6.0775">
        <ele>735.2</ele>
        <time>2025-06-12T10:11:27Z</time>
      </trkpt>
      <trkpt lat="44.56177" lon="6.07747">
        <ele>735</ele>
        <time>2025-06-12T10:11:28Z</time>
      </trkpt>
      <trkpt lat="44.56172" lon="6.07742">
        <ele>734.8</ele>
        <time>2025-06-12T10:11:29Z</time>
      </trkpt>
      <trkpt lat="44.56167" lon="6.07738">
        <ele>734.6</ele>
        <time>2025-06-12T10:11:30Z</time>
      </trkpt>
      <trkpt lat="44.56156" lon="6.07731">
        <ele>734.4</ele>
        <time>2025-06-12T10:11:32Z</time>
      </trkpt>
      <trkpt lat="44.56148" lon="6.07728">
        <ele>734</ele>
        <time>2025-06-12T10:11:34Z</time>
      </trkpt>
      <trkpt lat="44.56144" lon="6.07727">
        <ele>734</ele>
        <time>2025-06-12T10:11:35Z</time>
      </trkpt>
      <trkpt lat="44.56141" lon="6.07725">
        <ele>734</ele>
        <time>2025-06-12T10:11:36Z</time>
      </trkpt>
      <trkpt lat="44.56138" lon="6.07724">
        <ele>733.8</ele>
        <time>2025-06-12T10:11:37Z</time>
      </trkpt>
      <trkpt lat="44.56135" lon="6.07723">
        <ele>733.8</ele>
        <time>2025-06-12T10:11:38Z</time>
      </trkpt>
      <trkpt lat="44.56132" lon="6.07722">
        <ele>733.8</ele>
        <time>2025-06-12T10:11:39Z</time>
      </trkpt>
      <trkpt lat="44.5613" lon="6.0772">
        <ele>733.8</ele>
        <time>2025-06-12T10:11:40Z</time>
      </trkpt>
      <trkpt lat="44.56128" lon="6.07719">
        <ele>733.8</ele>
        <time>2025-06-12T10:11:41Z</time>
      </trkpt>
      <trkpt lat="44.56124" lon="6.07718">
        <ele>733.6</ele>
        <time>2025-06-12T10:11:42Z</time>
      </trkpt>
      <trkpt lat="44.56121" lon="6.07718">
        <ele>733.6</ele>
        <time>2025-06-12T10:11:43Z</time>
      </trkpt>
      <trkpt lat="44.56117" lon="6.07718">
        <ele>733.6</ele>
        <time>2025-06-12T10:11:44Z</time>
      </trkpt>
      <trkpt lat="44.56112" lon="6.07719">
        <ele>733.4</ele>
        <time>2025-06-12T10:11:45Z</time>
      </trkpt>
      <trkpt lat="44.56107" lon="6.07721">
        <ele>733.4</ele>
        <time>2025-06-12T10:11:46Z</time>
      </trkpt>
      <trkpt lat="44.56103" lon="6.07723">
        <ele>733.2</ele>
        <time>2025-06-12T10:11:47Z</time>
      </trkpt>
      <trkpt lat="44.56098" lon="6.07726">
        <ele>733.4</ele>
        <time>2025-06-12T10:11:48Z</time>
      </trkpt>
      <trkpt lat="44.56093" lon="6.07729">
        <ele>733.2</ele>
        <time>2025-06-12T10:11:49Z</time>
      </trkpt>
      <trkpt lat="44.56083" lon="6.07736">
        <ele>732.8</ele>
        <time>2025-06-12T10:11:51Z</time>
      </trkpt>
      <trkpt lat="44.56077" lon="6.07739">
        <ele>732.6</ele>
        <time>2025-06-12T10:11:52Z</time>
      </trkpt>
      <trkpt lat="44.56072" lon="6.07742">
        <ele>732.4</ele>
        <time>2025-06-12T10:11:53Z</time>
      </trkpt>
      <trkpt lat="44.56068" lon="6.07744">
        <ele>732.2</ele>
        <time>2025-06-12T10:11:54Z</time>
      </trkpt>
      <trkpt lat="44.56063" lon="6.07745">
        <ele>732</ele>
        <time>2025-06-12T10:11:55Z</time>
      </trkpt>
      <trkpt lat="44.56058" lon="6.07741">
        <ele>731.6</ele>
        <time>2025-06-12T10:11:56Z</time>
      </trkpt>
      <trkpt lat="44.56054" lon="6.07736">
        <ele>731.2</ele>
        <time>2025-06-12T10:11:57Z</time>
      </trkpt>
      <trkpt lat="44.5605" lon="6.07729">
        <ele>731</ele>
        <time>2025-06-12T10:11:58Z</time>
      </trkpt>
      <trkpt lat="44.56047" lon="6.07721">
        <ele>730.8</ele>
        <time>2025-06-12T10:11:59Z</time>
      </trkpt>
      <trkpt lat="44.56045" lon="6.07714">
        <ele>730.8</ele>
        <time>2025-06-12T10:12:00Z</time>
      </trkpt>
      <trkpt lat="44.56043" lon="6.07707">
        <ele>730.6</ele>
        <time>2025-06-12T10:12:01Z</time>
      </trkpt>
      <trkpt lat="44.56041" lon="6.07702">
        <ele>730.6</ele>
        <time>2025-06-12T10:12:02Z</time>
      </trkpt>
      <trkpt lat="44.5604" lon="6.07698">
        <ele>730.4</ele>
        <time>2025-06-12T10:12:03Z</time>
      </trkpt>
      <trkpt lat="44.5604" lon="6.07695">
        <ele>730.4</ele>
        <time>2025-06-12T10:12:04Z</time>
      </trkpt>
      <trkpt lat="44.56039" lon="6.07693">
        <ele>730.4</ele>
        <time>2025-06-12T10:12:05Z</time>
      </trkpt>
      <trkpt lat="44.56038" lon="6.07691">
        <ele>730.4</ele>
        <time>2025-06-12T10:12:06Z</time>
      </trkpt>
      <trkpt lat="44.56037" lon="6.07688">
        <ele>730.4</ele>
        <time>2025-06-12T10:12:07Z</time>
      </trkpt>
      <trkpt lat="44.56037" lon="6.07686">
        <ele>730.4</ele>
        <time>2025-06-12T10:12:08Z</time>
      </trkpt>
      <trkpt lat="44.56036" lon="6.07684">
        <ele>730.4</ele>
        <time>2025-06-12T10:12:09Z</time>
      </trkpt>
      <trkpt lat="44.56036" lon="6.07683">
        <ele>730.8</ele>
        <time>2025-06-12T10:12:10Z</time>
      </trkpt>
      <trkpt lat="44.56035" lon="6.07683">
        <ele>731</ele>
        <time>2025-06-12T10:12:11Z</time>
      </trkpt>
      <trkpt lat="44.56035" lon="6.07683">
        <ele>731.2</ele>
        <time>2025-06-12T10:12:12Z</time>
      </trkpt>
      <trkpt lat="44.56034" lon="6.07682">
        <ele>731.2</ele>
        <time>2025-06-12T10:12:14Z</time>
      </trkpt>
      <trkpt lat="44.56034" lon="6.07681">
        <ele>731.4</ele>
        <time>2025-06-12T10:12:15Z</time>
      </trkpt>
      <trkpt lat="44.56029" lon="6.07667">
        <ele>731.4</ele>
        <time>2025-06-12T10:12:19Z</time>
      </trkpt>
      <trkpt lat="44.56024" lon="6.07656">
        <ele>731.4</ele>
        <time>2025-06-12T10:12:21Z</time>
      </trkpt>
      <trkpt lat="44.56022" lon="6.07651">
        <ele>731.4</ele>
        <time>2025-06-12T10:12:22Z</time>
      </trkpt>
      <trkpt lat="44.56019" lon="6.07645">
        <ele>731.4</ele>
        <time>2025-06-12T10:12:23Z</time>
      </trkpt>
      <trkpt lat="44.56016" lon="6.0764">
        <ele>731.4</ele>
        <time>2025-06-12T10:12:24Z</time>
      </trkpt>
      <trkpt lat="44.56013" lon="6.07634">
        <ele>731.4</ele>
        <time>2025-06-12T10:12:25Z</time>
      </trkpt>
      <trkpt lat="44.5601" lon="6.07629">
        <ele>731.4</ele>
        <time>2025-06-12T10:12:26Z</time>
      </trkpt>
      <trkpt lat="44.56007" lon="6.07623">
        <ele>731.4</ele>
        <time>2025-06-12T10:12:27Z</time>
      </trkpt>
      <trkpt lat="44.56004" lon="6.07618">
        <ele>731.4</ele>
        <time>2025-06-12T10:12:28Z</time>
      </trkpt>
      <trkpt lat="44.56" lon="6.07614">
        <ele>731.4</ele>
        <time>2025-06-12T10:12:29Z</time>
      </trkpt>
      <trkpt lat="44.55996" lon="6.0761">
        <ele>731.4</ele>
        <time>2025-06-12T10:12:30Z</time>
      </trkpt>
      <trkpt lat="44.55992" lon="6.07606">
        <ele>731.4</ele>
        <time>2025-06-12T10:12:31Z</time>
      </trkpt>
      <trkpt lat="44.55988" lon="6.07602">
        <ele>731.4</ele>
        <time>2025-06-12T10:12:32Z</time>
      </trkpt>
      <trkpt lat="44.5598" lon="6.07594">
        <ele>731.6</ele>
        <time>2025-06-12T10:12:34Z</time>
      </trkpt>
      <trkpt lat="44.55971" lon="6.07586">
        <ele>732</ele>
        <time>2025-06-12T10:12:36Z</time>
      </trkpt>
      <trkpt lat="44.55967" lon="6.07582">
        <ele>732.2</ele>
        <time>2025-06-12T10:12:37Z</time>
      </trkpt>
      <trkpt lat="44.55963" lon="6.07577">
        <ele>732.2</ele>
        <time>2025-06-12T10:12:38Z</time>
      </trkpt>
      <trkpt lat="44.55958" lon="6.07572">
        <ele>732.2</ele>
        <time>2025-06-12T10:12:39Z</time>
      </trkpt>
      <trkpt lat="44.55954" lon="6.07568">
        <ele>732.2</ele>
        <time>2025-06-12T10:12:40Z</time>
      </trkpt>
      <trkpt lat="44.55949" lon="6.07564">
        <ele>732.2</ele>
        <time>2025-06-12T10:12:41Z</time>
      </trkpt>
      <trkpt lat="44.55945" lon="6.07559">
        <ele>732.2</ele>
        <time>2025-06-12T10:12:42Z</time>
      </trkpt>
      <trkpt lat="44.5594" lon="6.07554">
        <ele>732.2</ele>
        <time>2025-06-12T10:12:43Z</time>
      </trkpt>
      <trkpt lat="44.55931" lon="6.07545">
        <ele>732.2</ele>
        <time>2025-06-12T10:12:45Z</time>
      </trkpt>
      <trkpt lat="44.55922" lon="6.07535">
        <ele>732.2</ele>
        <time>2025-06-12T10:12:47Z</time>
      </trkpt>
      <trkpt lat="44.55912" lon="6.07526">
        <ele>732</ele>
        <time>2025-06-12T10:12:49Z</time>
      </trkpt>
      <trkpt lat="44.55903" lon="6.07517">
        <ele>731.8</ele>
        <time>2025-06-12T10:12:51Z</time>
      </trkpt>
      <trkpt lat="44.55899" lon="6.07514">
        <ele>731.6</ele>
        <time>2025-06-12T10:12:52Z</time>
      </trkpt>
      <trkpt lat="44.55895" lon="6.07515">
        <ele>731.8</ele>
        <time>2025-06-12T10:12:53Z</time>
      </trkpt>
      <trkpt lat="44.55891" lon="6.07517">
        <ele>731.8</ele>
        <time>2025-06-12T10:12:54Z</time>
      </trkpt>
      <trkpt lat="44.55888" lon="6.07522">
        <ele>731.6</ele>
        <time>2025-06-12T10:12:55Z</time>
      </trkpt>
      <trkpt lat="44.55885" lon="6.07529">
        <ele>731.6</ele>
        <time>2025-06-12T10:12:56Z</time>
      </trkpt>
      <trkpt lat="44.55882" lon="6.07535">
        <ele>731.4</ele>
        <time>2025-06-12T10:12:57Z</time>
      </trkpt>
      <trkpt lat="44.55879" lon="6.07542">
        <ele>731</ele>
        <time>2025-06-12T10:12:58Z</time>
      </trkpt>
      <trkpt lat="44.55875" lon="6.0755">
        <ele>731</ele>
        <time>2025-06-12T10:12:59Z</time>
      </trkpt>
      <trkpt lat="44.55872" lon="6.07558">
        <ele>730.8</ele>
        <time>2025-06-12T10:13:00Z</time>
      </trkpt>
      <trkpt lat="44.55868" lon="6.07566">
        <ele>730.8</ele>
        <time>2025-06-12T10:13:01Z</time>
      </trkpt>
      <trkpt lat="44.55866" lon="6.07573">
        <ele>730.6</ele>
        <time>2025-06-12T10:13:02Z</time>
      </trkpt>
      <trkpt lat="44.55863" lon="6.0758">
        <ele>730.4</ele>
        <time>2025-06-12T10:13:03Z</time>
      </trkpt>
      <trkpt lat="44.5586" lon="6.07584">
        <ele>729.8</ele>
        <time>2025-06-12T10:13:04Z</time>
      </trkpt>
      <trkpt lat="44.55857" lon="6.07588">
        <ele>729.6</ele>
        <time>2025-06-12T10:13:05Z</time>
      </trkpt>
      <trkpt lat="44.55855" lon="6.07592">
        <ele>729.4</ele>
        <time>2025-06-12T10:13:06Z</time>
      </trkpt>
      <trkpt lat="44.55852" lon="6.076">
        <ele>728.6</ele>
        <time>2025-06-12T10:13:08Z</time>
      </trkpt>
      <trkpt lat="44.5585" lon="6.07604">
        <ele>728.2</ele>
        <time>2025-06-12T10:13:09Z</time>
      </trkpt>
      <trkpt lat="44.55849" lon="6.07606">
        <ele>727.8</ele>
        <time>2025-06-12T10:13:10Z</time>
      </trkpt>
      <trkpt lat="44.55848" lon="6.07608">
        <ele>727.6</ele>
        <time>2025-06-12T10:13:11Z</time>
      </trkpt>
      <trkpt lat="44.55847" lon="6.07611">
        <ele>727.4</ele>
        <time>2025-06-12T10:13:12Z</time>
      </trkpt>
      <trkpt lat="44.55845" lon="6.07613">
        <ele>727.4</ele>
        <time>2025-06-12T10:13:13Z</time>
      </trkpt>
      <trkpt lat="44.55844" lon="6.07617">
        <ele>727.2</ele>
        <time>2025-06-12T10:13:14Z</time>
      </trkpt>
      <trkpt lat="44.55843" lon="6.07621">
        <ele>727.2</ele>
        <time>2025-06-12T10:13:15Z</time>
      </trkpt>
      <trkpt lat="44.55842" lon="6.07626">
        <ele>727</ele>
        <time>2025-06-12T10:13:16Z</time>
      </trkpt>
      <trkpt lat="44.5584" lon="6.07631">
        <ele>726.8</ele>
        <time>2025-06-12T10:13:17Z</time>
      </trkpt>
      <trkpt lat="44.55838" lon="6.07636">
        <ele>726.8</ele>
        <time>2025-06-12T10:13:18Z</time>
      </trkpt>
      <trkpt lat="44.55836" lon="6.07642">
        <ele>726.6</ele>
        <time>2025-06-12T10:13:19Z</time>
      </trkpt>
      <trkpt lat="44.55833" lon="6.07653">
        <ele>726.4</ele>
        <time>2025-06-12T10:13:21Z</time>
      </trkpt>
      <trkpt lat="44.5583" lon="6.07666">
        <ele>726.2</ele>
        <time>2025-06-12T10:13:23Z</time>
      </trkpt>
      <trkpt lat="44.55827" lon="6.07678">
        <ele>726</ele>
        <time>2025-06-12T10:13:25Z</time>
      </trkpt>
      <trkpt lat="44.55824" lon="6.0769">
        <ele>725.8</ele>
        <time>2025-06-12T10:13:27Z</time>
      </trkpt>
      <trkpt lat="44.55818" lon="6.07713">
        <ele>725.2</ele>
        <time>2025-06-12T10:13:31Z</time>
      </trkpt>
      <trkpt lat="44.55813" lon="6.07723">
        <ele>724.8</ele>
        <time>2025-06-12T10:13:33Z</time>
      </trkpt>
      <trkpt lat="44.55806" lon="6.07732">
        <ele>724.6</ele>
        <time>2025-06-12T10:13:35Z</time>
      </trkpt>
      <trkpt lat="44.55802" lon="6.07736">
        <ele>724.6</ele>
        <time>2025-06-12T10:13:36Z</time>
      </trkpt>
      <trkpt lat="44.55799" lon="6.0774">
        <ele>724.6</ele>
        <time>2025-06-12T10:13:37Z</time>
      </trkpt>
      <trkpt lat="44.55796" lon="6.07743">
        <ele>724.4</ele>
        <time>2025-06-12T10:13:38Z</time>
      </trkpt>
      <trkpt lat="44.55793" lon="6.07746">
        <ele>724.4</ele>
        <time>2025-06-12T10:13:39Z</time>
      </trkpt>
      <trkpt lat="44.5579" lon="6.07748">
        <ele>724.4</ele>
        <time>2025-06-12T10:13:40Z</time>
      </trkpt>
      <trkpt lat="44.55788" lon="6.0775">
        <ele>724.4</ele>
        <time>2025-06-12T10:13:41Z</time>
      </trkpt>
      <trkpt lat="44.55785" lon="6.07752">
        <ele>724.4</ele>
        <time>2025-06-12T10:13:42Z</time>
      </trkpt>
      <trkpt lat="44.55783" lon="6.07753">
        <ele>724.4</ele>
        <time>2025-06-12T10:13:43Z</time>
      </trkpt>
      <trkpt lat="44.55782" lon="6.07755">
        <ele>724.4</ele>
        <time>2025-06-12T10:13:44Z</time>
      </trkpt>
      <trkpt lat="44.5578" lon="6.07756">
        <ele>724.4</ele>
        <time>2025-06-12T10:13:45Z</time>
      </trkpt>
      <trkpt lat="44.55779" lon="6.07757">
        <ele>724.6</ele>
        <time>2025-06-12T10:13:46Z</time>
      </trkpt>
      <trkpt lat="44.55777" lon="6.07757">
        <ele>724.6</ele>
        <time>2025-06-12T10:13:47Z</time>
      </trkpt>
      <trkpt lat="44.55775" lon="6.07756">
        <ele>724.4</ele>
        <time>2025-06-12T10:13:48Z</time>
      </trkpt>
      <trkpt lat="44.55773" lon="6.07754">
        <ele>724.4</ele>
        <time>2025-06-12T10:13:49Z</time>
      </trkpt>
      <trkpt lat="44.5577" lon="6.07751">
        <ele>724.4</ele>
        <time>2025-06-12T10:13:50Z</time>
      </trkpt>
      <trkpt lat="44.55768" lon="6.07747">
        <ele>724.4</ele>
        <time>2025-06-12T10:13:51Z</time>
      </trkpt>
      <trkpt lat="44.55765" lon="6.07743">
        <ele>724.4</ele>
        <time>2025-06-12T10:13:52Z</time>
      </trkpt>
      <trkpt lat="44.55762" lon="6.07739">
        <ele>724.2</ele>
        <time>2025-06-12T10:13:53Z</time>
      </trkpt>
      <trkpt lat="44.55759" lon="6.07735">
        <ele>724.2</ele>
        <time>2025-06-12T10:13:54Z</time>
      </trkpt>
      <trkpt lat="44.55757" lon="6.0773">
        <ele>724.2</ele>
        <time>2025-06-12T10:13:55Z</time>
      </trkpt>
      <trkpt lat="44.55754" lon="6.07725">
        <ele>724.2</ele>
        <time>2025-06-12T10:13:56Z</time>
      </trkpt>
      <trkpt lat="44.55751" lon="6.07719">
        <ele>724.2</ele>
        <time>2025-06-12T10:13:57Z</time>
      </trkpt>
      <trkpt lat="44.55748" lon="6.07715">
        <ele>723.6</ele>
        <time>2025-06-12T10:13:58Z</time>
      </trkpt>
      <trkpt lat="44.55744" lon="6.07711">
        <ele>723.2</ele>
        <time>2025-06-12T10:13:59Z</time>
      </trkpt>
      <trkpt lat="44.5574" lon="6.0771">
        <ele>723</ele>
        <time>2025-06-12T10:14:00Z</time>
      </trkpt>
      <trkpt lat="44.55737" lon="6.07707">
        <ele>722.8</ele>
        <time>2025-06-12T10:14:01Z</time>
      </trkpt>
      <trkpt lat="44.55734" lon="6.07704">
        <ele>722.6</ele>
        <time>2025-06-12T10:14:02Z</time>
      </trkpt>
      <trkpt lat="44.55732" lon="6.07702">
        <ele>722.6</ele>
        <time>2025-06-12T10:14:03Z</time>
      </trkpt>
      <trkpt lat="44.5573" lon="6.07701">
        <ele>722.6</ele>
        <time>2025-06-12T10:14:05Z</time>
      </trkpt>
      <trkpt lat="44.55729" lon="6.07701">
        <ele>722</ele>
        <time>2025-06-12T10:14:07Z</time>
      </trkpt>
      <trkpt lat="44.55727" lon="6.07702">
        <ele>721.4</ele>
        <time>2025-06-12T10:14:09Z</time>
      </trkpt>
      <trkpt lat="44.55723" lon="6.077">
        <ele>721.2</ele>
        <time>2025-06-12T10:14:11Z</time>
      </trkpt>
      <trkpt lat="44.55719" lon="6.07699">
        <ele>721.2</ele>
        <time>2025-06-12T10:14:12Z</time>
      </trkpt>
      <trkpt lat="44.55716" lon="6.07697">
        <ele>721</ele>
        <time>2025-06-12T10:14:13Z</time>
      </trkpt>
      <trkpt lat="44.55713" lon="6.07695">
        <ele>721</ele>
        <time>2025-06-12T10:14:14Z</time>
      </trkpt>
      <trkpt lat="44.5571" lon="6.07693">
        <ele>721</ele>
        <time>2025-06-12T10:14:15Z</time>
      </trkpt>
      <trkpt lat="44.55706" lon="6.07691">
        <ele>720.8</ele>
        <time>2025-06-12T10:14:16Z</time>
      </trkpt>
      <trkpt lat="44.55703" lon="6.07688">
        <ele>720.8</ele>
        <time>2025-06-12T10:14:17Z</time>
      </trkpt>
      <trkpt lat="44.557" lon="6.07686">
        <ele>720.8</ele>
        <time>2025-06-12T10:14:18Z</time>
      </trkpt>
      <trkpt lat="44.55696" lon="6.07683">
        <ele>720.6</ele>
        <time>2025-06-12T10:14:19Z</time>
      </trkpt>
      <trkpt lat="44.55692" lon="6.0768">
        <ele>720.6</ele>
        <time>2025-06-12T10:14:20Z</time>
      </trkpt>
      <trkpt lat="44.55685" lon="6.07672">
        <ele>720.4</ele>
        <time>2025-06-12T10:14:22Z</time>
      </trkpt>
      <trkpt lat="44.55678" lon="6.07664">
        <ele>720.4</ele>
        <time>2025-06-12T10:14:24Z</time>
      </trkpt>
      <trkpt lat="44.55671" lon="6.07658">
        <ele>720</ele>
        <time>2025-06-12T10:14:26Z</time>
      </trkpt>
      <trkpt lat="44.55667" lon="6.07655">
        <ele>719.8</ele>
        <time>2025-06-12T10:14:27Z</time>
      </trkpt>
      <trkpt lat="44.55664" lon="6.07652">
        <ele>720</ele>
        <time>2025-06-12T10:14:28Z</time>
      </trkpt>
      <trkpt lat="44.5566" lon="6.07649">
        <ele>719.8</ele>
        <time>2025-06-12T10:14:29Z</time>
      </trkpt>
      <trkpt lat="44.55656" lon="6.07647">
        <ele>719.8</ele>
        <time>2025-06-12T10:14:30Z</time>
      </trkpt>
      <trkpt lat="44.55652" lon="6.07644">
        <ele>719.8</ele>
        <time>2025-06-12T10:14:31Z</time>
      </trkpt>
      <trkpt lat="44.55648" lon="6.07641">
        <ele>719.8</ele>
        <time>2025-06-12T10:14:32Z</time>
      </trkpt>
      <trkpt lat="44.55644" lon="6.07638">
        <ele>719.8</ele>
        <time>2025-06-12T10:14:33Z</time>
      </trkpt>
      <trkpt lat="44.55636" lon="6.07631">
        <ele>719.6</ele>
        <time>2025-06-12T10:14:35Z</time>
      </trkpt>
      <trkpt lat="44.55632" lon="6.07627">
        <ele>719.6</ele>
        <time>2025-06-12T10:14:36Z</time>
      </trkpt>
      <trkpt lat="44.55628" lon="6.07623">
        <ele>719.6</ele>
        <time>2025-06-12T10:14:37Z</time>
      </trkpt>
      <trkpt lat="44.55624" lon="6.07619">
        <ele>719.6</ele>
        <time>2025-06-12T10:14:38Z</time>
      </trkpt>
      <trkpt lat="44.5562" lon="6.07615">
        <ele>719.6</ele>
        <time>2025-06-12T10:14:39Z</time>
      </trkpt>
      <trkpt lat="44.55617" lon="6.07611">
        <ele>719.6</ele>
        <time>2025-06-12T10:14:40Z</time>
      </trkpt>
      <trkpt lat="44.55609" lon="6.07602">
        <ele>719.4</ele>
        <time>2025-06-12T10:14:42Z</time>
      </trkpt>
      <trkpt lat="44.55602" lon="6.07592">
        <ele>719.4</ele>
        <time>2025-06-12T10:14:44Z</time>
      </trkpt>
      <trkpt lat="44.55599" lon="6.07586">
        <ele>719.4</ele>
        <time>2025-06-12T10:14:45Z</time>
      </trkpt>
      <trkpt lat="44.55597" lon="6.0758">
        <ele>719.2</ele>
        <time>2025-06-12T10:14:46Z</time>
      </trkpt>
      <trkpt lat="44.55594" lon="6.07575">
        <ele>719.2</ele>
        <time>2025-06-12T10:14:47Z</time>
      </trkpt>
      <trkpt lat="44.55586" lon="6.07565">
        <ele>719.2</ele>
        <time>2025-06-12T10:14:49Z</time>
      </trkpt>
      <trkpt lat="44.55583" lon="6.07561">
        <ele>719.2</ele>
        <time>2025-06-12T10:14:50Z</time>
      </trkpt>
      <trkpt lat="44.55579" lon="6.07556">
        <ele>719</ele>
        <time>2025-06-12T10:14:51Z</time>
      </trkpt>
      <trkpt lat="44.55576" lon="6.07552">
        <ele>719</ele>
        <time>2025-06-12T10:14:52Z</time>
      </trkpt>
      <trkpt lat="44.55572" lon="6.07548">
        <ele>719</ele>
        <time>2025-06-12T10:14:53Z</time>
      </trkpt>
      <trkpt lat="44.55569" lon="6.07543">
        <ele>718.8</ele>
        <time>2025-06-12T10:14:54Z</time>
      </trkpt>
      <trkpt lat="44.55562" lon="6.07536">
        <ele>719</ele>
        <time>2025-06-12T10:14:56Z</time>
      </trkpt>
      <trkpt lat="44.55556" lon="6.0753">
        <ele>719</ele>
        <time>2025-06-12T10:14:58Z</time>
      </trkpt>
      <trkpt lat="44.55555" lon="6.07528">
        <ele>719</ele>
        <time>2025-06-12T10:14:59Z</time>
      </trkpt>
      <trkpt lat="44.55554" lon="6.07527">
        <ele>719</ele>
        <time>2025-06-12T10:15:00Z</time>
      </trkpt>
      <trkpt lat="44.55552" lon="6.07526">
        <ele>719</ele>
        <time>2025-06-12T10:15:01Z</time>
      </trkpt>
      <trkpt lat="44.55551" lon="6.07525">
        <ele>719</ele>
        <time>2025-06-12T10:15:02Z</time>
      </trkpt>
      <trkpt lat="44.5555" lon="6.07523">
        <ele>719</ele>
        <time>2025-06-12T10:15:03Z</time>
      </trkpt>
      <trkpt lat="44.55549" lon="6.07521">
        <ele>719</ele>
        <time>2025-06-12T10:15:04Z</time>
      </trkpt>
      <trkpt lat="44.55547" lon="6.07519">
        <ele>719</ele>
        <time>2025-06-12T10:15:05Z</time>
      </trkpt>
      <trkpt lat="44.55545" lon="6.07516">
        <ele>719</ele>
        <time>2025-06-12T10:15:06Z</time>
      </trkpt>
      <trkpt lat="44.55542" lon="6.07514">
        <ele>719.2</ele>
        <time>2025-06-12T10:15:07Z</time>
      </trkpt>
      <trkpt lat="44.55539" lon="6.07511">
        <ele>719.2</ele>
        <time>2025-06-12T10:15:08Z</time>
      </trkpt>
      <trkpt lat="44.55536" lon="6.07507">
        <ele>719.2</ele>
        <time>2025-06-12T10:15:09Z</time>
      </trkpt>
      <trkpt lat="44.55533" lon="6.07503">
        <ele>719.4</ele>
        <time>2025-06-12T10:15:10Z</time>
      </trkpt>
      <trkpt lat="44.5553" lon="6.07499">
        <ele>719.4</ele>
        <time>2025-06-12T10:15:11Z</time>
      </trkpt>
      <trkpt lat="44.55527" lon="6.07495">
        <ele>719.4</ele>
        <time>2025-06-12T10:15:12Z</time>
      </trkpt>
      <trkpt lat="44.55524" lon="6.07491">
        <ele>719.4</ele>
        <time>2025-06-12T10:15:13Z</time>
      </trkpt>
      <trkpt lat="44.55521" lon="6.07487">
        <ele>719.4</ele>
        <time>2025-06-12T10:15:14Z</time>
      </trkpt>
      <trkpt lat="44.55517" lon="6.07483">
        <ele>719.4</ele>
        <time>2025-06-12T10:15:15Z</time>
      </trkpt>
      <trkpt lat="44.55512" lon="6.07476">
        <ele>719.4</ele>
        <time>2025-06-12T10:15:17Z</time>
      </trkpt>
      <trkpt lat="44.55506" lon="6.07468">
        <ele>719.2</ele>
        <time>2025-06-12T10:15:19Z</time>
      </trkpt>
      <trkpt lat="44.55503" lon="6.07464">
        <ele>719.2</ele>
        <time>2025-06-12T10:15:20Z</time>
      </trkpt>
      <trkpt lat="44.55499" lon="6.07459">
        <ele>719.2</ele>
        <time>2025-06-12T10:15:21Z</time>
      </trkpt>
      <trkpt lat="44.55495" lon="6.07455">
        <ele>719.2</ele>
        <time>2025-06-12T10:15:22Z</time>
      </trkpt>
      <trkpt lat="44.55492" lon="6.0745">
        <ele>719.2</ele>
        <time>2025-06-12T10:15:23Z</time>
      </trkpt>
      <trkpt lat="44.55488" lon="6.07446">
        <ele>719.2</ele>
        <time>2025-06-12T10:15:24Z</time>
      </trkpt>
      <trkpt lat="44.55484" lon="6.07441">
        <ele>719.2</ele>
        <time>2025-06-12T10:15:25Z</time>
      </trkpt>
      <trkpt lat="44.5548" lon="6.07436">
        <ele>719.2</ele>
        <time>2025-06-12T10:15:26Z</time>
      </trkpt>
      <trkpt lat="44.55473" lon="6.07427">
        <ele>719.4</ele>
        <time>2025-06-12T10:15:28Z</time>
      </trkpt>
      <trkpt lat="44.55469" lon="6.07423">
        <ele>719.4</ele>
        <time>2025-06-12T10:15:29Z</time>
      </trkpt>
      <trkpt lat="44.55466" lon="6.07418">
        <ele>719.4</ele>
        <time>2025-06-12T10:15:30Z</time>
      </trkpt>
      <trkpt lat="44.55462" lon="6.07414">
        <ele>719.4</ele>
        <time>2025-06-12T10:15:31Z</time>
      </trkpt>
      <trkpt lat="44.55458" lon="6.07409">
        <ele>719.4</ele>
        <time>2025-06-12T10:15:32Z</time>
      </trkpt>
      <trkpt lat="44.55455" lon="6.07405">
        <ele>719.4</ele>
        <time>2025-06-12T10:15:33Z</time>
      </trkpt>
      <trkpt lat="44.55451" lon="6.074">
        <ele>719.4</ele>
        <time>2025-06-12T10:15:34Z</time>
      </trkpt>
      <trkpt lat="44.55448" lon="6.07396">
        <ele>719.6</ele>
        <time>2025-06-12T10:15:35Z</time>
      </trkpt>
      <trkpt lat="44.55441" lon="6.07388">
        <ele>719.8</ele>
        <time>2025-06-12T10:15:37Z</time>
      </trkpt>
      <trkpt lat="44.55438" lon="6.07383">
        <ele>719.8</ele>
        <time>2025-06-12T10:15:38Z</time>
      </trkpt>
      <trkpt lat="44.55434" lon="6.07379">
        <ele>719.8</ele>
        <time>2025-06-12T10:15:39Z</time>
      </trkpt>
      <trkpt lat="44.55431" lon="6.07376">
        <ele>719.8</ele>
        <time>2025-06-12T10:15:40Z</time>
      </trkpt>
      <trkpt lat="44.55427" lon="6.07372">
        <ele>719.8</ele>
        <time>2025-06-12T10:15:41Z</time>
      </trkpt>
      <trkpt lat="44.55424" lon="6.07368">
        <ele>720</ele>
        <time>2025-06-12T10:15:42Z</time>
      </trkpt>
      <trkpt lat="44.55417" lon="6.0736">
        <ele>720.2</ele>
        <time>2025-06-12T10:15:44Z</time>
      </trkpt>
      <trkpt lat="44.55415" lon="6.07357">
        <ele>720.2</ele>
        <time>2025-06-12T10:15:45Z</time>
      </trkpt>
      <trkpt lat="44.55412" lon="6.07353">
        <ele>720.2</ele>
        <time>2025-06-12T10:15:46Z</time>
      </trkpt>
      <trkpt lat="44.55409" lon="6.07349">
        <ele>720.4</ele>
        <time>2025-06-12T10:15:47Z</time>
      </trkpt>
      <trkpt lat="44.55405" lon="6.07345">
        <ele>720.4</ele>
        <time>2025-06-12T10:15:48Z</time>
      </trkpt>
      <trkpt lat="44.55402" lon="6.0734">
        <ele>720.4</ele>
        <time>2025-06-12T10:15:49Z</time>
      </trkpt>
      <trkpt lat="44.55394" lon="6.07331">
        <ele>720.4</ele>
        <time>2025-06-12T10:15:51Z</time>
      </trkpt>
      <trkpt lat="44.55391" lon="6.07327">
        <ele>720.6</ele>
        <time>2025-06-12T10:15:52Z</time>
      </trkpt>
      <trkpt lat="44.55387" lon="6.07322">
        <ele>720.6</ele>
        <time>2025-06-12T10:15:53Z</time>
      </trkpt>
      <trkpt lat="44.55383" lon="6.07317">
        <ele>720.6</ele>
        <time>2025-06-12T10:15:54Z</time>
      </trkpt>
      <trkpt lat="44.55379" lon="6.07313">
        <ele>720.6</ele>
        <time>2025-06-12T10:15:55Z</time>
      </trkpt>
      <trkpt lat="44.55375" lon="6.0731">
        <ele>720.6</ele>
        <time>2025-06-12T10:15:56Z</time>
      </trkpt>
      <trkpt lat="44.55371" lon="6.07306">
        <ele>720.8</ele>
        <time>2025-06-12T10:15:57Z</time>
      </trkpt>
      <trkpt lat="44.55366" lon="6.07302">
        <ele>720.8</ele>
        <time>2025-06-12T10:15:58Z</time>
      </trkpt>
      <trkpt lat="44.55362" lon="6.07297">
        <ele>720.8</ele>
        <time>2025-06-12T10:15:59Z</time>
      </trkpt>
      <trkpt lat="44.55358" lon="6.07292">
        <ele>721</ele>
        <time>2025-06-12T10:16:00Z</time>
      </trkpt>
      <trkpt lat="44.55349" lon="6.07283">
        <ele>721.2</ele>
        <time>2025-06-12T10:16:02Z</time>
      </trkpt>
      <trkpt lat="44.55341" lon="6.07273">
        <ele>721.2</ele>
        <time>2025-06-12T10:16:04Z</time>
      </trkpt>
      <trkpt lat="44.55337" lon="6.07267">
        <ele>721.6</ele>
        <time>2025-06-12T10:16:05Z</time>
      </trkpt>
      <trkpt lat="44.55333" lon="6.07262">
        <ele>721.6</ele>
        <time>2025-06-12T10:16:06Z</time>
      </trkpt>
      <trkpt lat="44.55328" lon="6.07257">
        <ele>721.6</ele>
        <time>2025-06-12T10:16:07Z</time>
      </trkpt>
      <trkpt lat="44.55324" lon="6.07252">
        <ele>721.6</ele>
        <time>2025-06-12T10:16:08Z</time>
      </trkpt>
      <trkpt lat="44.5532" lon="6.07247">
        <ele>721.6</ele>
        <time>2025-06-12T10:16:09Z</time>
      </trkpt>
      <trkpt lat="44.55312" lon="6.07237">
        <ele>721.6</ele>
        <time>2025-06-12T10:16:11Z</time>
      </trkpt>
      <trkpt lat="44.55304" lon="6.07227">
        <ele>721.8</ele>
        <time>2025-06-12T10:16:13Z</time>
      </trkpt>
      <trkpt lat="44.55296" lon="6.07217">
        <ele>721.8</ele>
        <time>2025-06-12T10:16:15Z</time>
      </trkpt>
      <trkpt lat="44.55292" lon="6.07212">
        <ele>721.8</ele>
        <time>2025-06-12T10:16:16Z</time>
      </trkpt>
      <trkpt lat="44.55288" lon="6.07207">
        <ele>721.8</ele>
        <time>2025-06-12T10:16:17Z</time>
      </trkpt>
      <trkpt lat="44.55284" lon="6.07202">
        <ele>721.8</ele>
        <time>2025-06-12T10:16:18Z</time>
      </trkpt>
      <trkpt lat="44.5528" lon="6.07197">
        <ele>721.8</ele>
        <time>2025-06-12T10:16:19Z</time>
      </trkpt>
      <trkpt lat="44.55276" lon="6.07192">
        <ele>721.8</ele>
        <time>2025-06-12T10:16:20Z</time>
      </trkpt>
      <trkpt lat="44.55269" lon="6.07183">
        <ele>722</ele>
        <time>2025-06-12T10:16:22Z</time>
      </trkpt>
      <trkpt lat="44.55262" lon="6.07173">
        <ele>722</ele>
        <time>2025-06-12T10:16:24Z</time>
      </trkpt>
      <trkpt lat="44.55258" lon="6.07167">
        <ele>722</ele>
        <time>2025-06-12T10:16:25Z</time>
      </trkpt>
      <trkpt lat="44.55254" lon="6.07162">
        <ele>722</ele>
        <time>2025-06-12T10:16:26Z</time>
      </trkpt>
      <trkpt lat="44.5525" lon="6.07157">
        <ele>722</ele>
        <time>2025-06-12T10:16:27Z</time>
      </trkpt>
      <trkpt lat="44.55246" lon="6.07153">
        <ele>722.2</ele>
        <time>2025-06-12T10:16:28Z</time>
      </trkpt>
      <trkpt lat="44.55241" lon="6.07149">
        <ele>722.2</ele>
        <time>2025-06-12T10:16:29Z</time>
      </trkpt>
      <trkpt lat="44.55237" lon="6.07144">
        <ele>722.2</ele>
        <time>2025-06-12T10:16:30Z</time>
      </trkpt>
      <trkpt lat="44.55233" lon="6.07139">
        <ele>722.4</ele>
        <time>2025-06-12T10:16:31Z</time>
      </trkpt>
      <trkpt lat="44.55226" lon="6.0713">
        <ele>722.6</ele>
        <time>2025-06-12T10:16:33Z</time>
      </trkpt>
      <trkpt lat="44.55218" lon="6.07121">
        <ele>722.8</ele>
        <time>2025-06-12T10:16:35Z</time>
      </trkpt>
      <trkpt lat="44.55214" lon="6.07117">
        <ele>722.8</ele>
        <time>2025-06-12T10:16:36Z</time>
      </trkpt>
      <trkpt lat="44.55211" lon="6.07112">
        <ele>722.8</ele>
        <time>2025-06-12T10:16:37Z</time>
      </trkpt>
      <trkpt lat="44.55207" lon="6.07108">
        <ele>723.2</ele>
        <time>2025-06-12T10:16:38Z</time>
      </trkpt>
      <trkpt lat="44.55204" lon="6.07103">
        <ele>723.2</ele>
        <time>2025-06-12T10:16:39Z</time>
      </trkpt>
      <trkpt lat="44.552" lon="6.07098">
        <ele>723.4</ele>
        <time>2025-06-12T10:16:40Z</time>
      </trkpt>
      <trkpt lat="44.55193" lon="6.07089">
        <ele>723.8</ele>
        <time>2025-06-12T10:16:42Z</time>
      </trkpt>
      <trkpt lat="44.55185" lon="6.0708">
        <ele>724</ele>
        <time>2025-06-12T10:16:44Z</time>
      </trkpt>
      <trkpt lat="44.55182" lon="6.07075">
        <ele>724</ele>
        <time>2025-06-12T10:16:45Z</time>
      </trkpt>
      <trkpt lat="44.55178" lon="6.0707">
        <ele>724</ele>
        <time>2025-06-12T10:16:46Z</time>
      </trkpt>
      <trkpt lat="44.55174" lon="6.07065">
        <ele>724.2</ele>
        <time>2025-06-12T10:16:47Z</time>
      </trkpt>
      <trkpt lat="44.55171" lon="6.0706">
        <ele>724.2</ele>
        <time>2025-06-12T10:16:48Z</time>
      </trkpt>
      <trkpt lat="44.55167" lon="6.07055">
        <ele>724.2</ele>
        <time>2025-06-12T10:16:49Z</time>
      </trkpt>
      <trkpt lat="44.55163" lon="6.0705">
        <ele>724.2</ele>
        <time>2025-06-12T10:16:50Z</time>
      </trkpt>
      <trkpt lat="44.55158" lon="6.07046">
        <ele>724.4</ele>
        <time>2025-06-12T10:16:51Z</time>
      </trkpt>
      <trkpt lat="44.55149" lon="6.07036">
        <ele>724.4</ele>
        <time>2025-06-12T10:16:53Z</time>
      </trkpt>
      <trkpt lat="44.55145" lon="6.0703">
        <ele>724.4</ele>
        <time>2025-06-12T10:16:54Z</time>
      </trkpt>
      <trkpt lat="44.55141" lon="6.07025">
        <ele>724.4</ele>
        <time>2025-06-12T10:16:55Z</time>
      </trkpt>
      <trkpt lat="44.55137" lon="6.0702">
        <ele>724.4</ele>
        <time>2025-06-12T10:16:56Z</time>
      </trkpt>
      <trkpt lat="44.55133" lon="6.07015">
        <ele>724.6</ele>
        <time>2025-06-12T10:16:57Z</time>
      </trkpt>
      <trkpt lat="44.55129" lon="6.0701">
        <ele>724.8</ele>
        <time>2025-06-12T10:16:58Z</time>
      </trkpt>
      <trkpt lat="44.55125" lon="6.07005">
        <ele>724.8</ele>
        <time>2025-06-12T10:16:59Z</time>
      </trkpt>
      <trkpt lat="44.55121" lon="6.07001">
        <ele>724.8</ele>
        <time>2025-06-12T10:17:00Z</time>
      </trkpt>
      <trkpt lat="44.55113" lon="6.06991">
        <ele>724.8</ele>
        <time>2025-06-12T10:17:02Z</time>
      </trkpt>
      <trkpt lat="44.55105" lon="6.06982">
        <ele>724.8</ele>
        <time>2025-06-12T10:17:04Z</time>
      </trkpt>
      <trkpt lat="44.55098" lon="6.06972">
        <ele>724.8</ele>
        <time>2025-06-12T10:17:06Z</time>
      </trkpt>
      <trkpt lat="44.55094" lon="6.06967">
        <ele>724.8</ele>
        <time>2025-06-12T10:17:07Z</time>
      </trkpt>
      <trkpt lat="44.5509" lon="6.06962">
        <ele>724.8</ele>
        <time>2025-06-12T10:17:08Z</time>
      </trkpt>
      <trkpt lat="44.55086" lon="6.06958">
        <ele>724.8</ele>
        <time>2025-06-12T10:17:09Z</time>
      </trkpt>
      <trkpt lat="44.55083" lon="6.06953">
        <ele>725</ele>
        <time>2025-06-12T10:17:10Z</time>
      </trkpt>
      <trkpt lat="44.55081" lon="6.06948">
        <ele>725</ele>
        <time>2025-06-12T10:17:11Z</time>
      </trkpt>
      <trkpt lat="44.55079" lon="6.06943">
        <ele>725.2</ele>
        <time>2025-06-12T10:17:12Z</time>
      </trkpt>
      <trkpt lat="44.55079" lon="6.06937">
        <ele>725.2</ele>
        <time>2025-06-12T10:17:13Z</time>
      </trkpt>
      <trkpt lat="44.55083" lon="6.06928">
        <ele>725.4</ele>
        <time>2025-06-12T10:17:15Z</time>
      </trkpt>
      <trkpt lat="44.55086" lon="6.06924">
        <ele>725.4</ele>
        <time>2025-06-12T10:17:16Z</time>
      </trkpt>
      <trkpt lat="44.55088" lon="6.06919">
        <ele>725.6</ele>
        <time>2025-06-12T10:17:17Z</time>
      </trkpt>
      <trkpt lat="44.55091" lon="6.06915">
        <ele>725.6</ele>
        <time>2025-06-12T10:17:18Z</time>
      </trkpt>
      <trkpt lat="44.55094" lon="6.06911">
        <ele>725.8</ele>
        <time>2025-06-12T10:17:19Z</time>
      </trkpt>
      <trkpt lat="44.55096" lon="6.06907">
        <ele>726</ele>
        <time>2025-06-12T10:17:20Z</time>
      </trkpt>
      <trkpt lat="44.55101" lon="6.06899">
        <ele>726.4</ele>
        <time>2025-06-12T10:17:22Z</time>
      </trkpt>
      <trkpt lat="44.55106" lon="6.06892">
        <ele>727</ele>
        <time>2025-06-12T10:17:24Z</time>
      </trkpt>
      <trkpt lat="44.55112" lon="6.06884">
        <ele>727.6</ele>
        <time>2025-06-12T10:17:26Z</time>
      </trkpt>
      <trkpt lat="44.55114" lon="6.06879">
        <ele>728</ele>
        <time>2025-06-12T10:17:27Z</time>
      </trkpt>
      <trkpt lat="44.55117" lon="6.06875">
        <ele>728.4</ele>
        <time>2025-06-12T10:17:28Z</time>
      </trkpt>
      <trkpt lat="44.55119" lon="6.06871">
        <ele>728.8</ele>
        <time>2025-06-12T10:17:29Z</time>
      </trkpt>
      <trkpt lat="44.55121" lon="6.06867">
        <ele>729</ele>
        <time>2025-06-12T10:17:30Z</time>
      </trkpt>
      <trkpt lat="44.55124" lon="6.06862">
        <ele>729.2</ele>
        <time>2025-06-12T10:17:31Z</time>
      </trkpt>
      <trkpt lat="44.55127" lon="6.06859">
        <ele>729.6</ele>
        <time>2025-06-12T10:17:32Z</time>
      </trkpt>
      <trkpt lat="44.55129" lon="6.06855">
        <ele>729.8</ele>
        <time>2025-06-12T10:17:33Z</time>
      </trkpt>
      <trkpt lat="44.55132" lon="6.06851">
        <ele>729.8</ele>
        <time>2025-06-12T10:17:34Z</time>
      </trkpt>
      <trkpt lat="44.55135" lon="6.06848">
        <ele>730</ele>
        <time>2025-06-12T10:17:35Z</time>
      </trkpt>
      <trkpt lat="44.55137" lon="6.06844">
        <ele>730</ele>
        <time>2025-06-12T10:17:36Z</time>
      </trkpt>
      <trkpt lat="44.55139" lon="6.0684">
        <ele>730.2</ele>
        <time>2025-06-12T10:17:37Z</time>
      </trkpt>
      <trkpt lat="44.55142" lon="6.06835">
        <ele>730.6</ele>
        <time>2025-06-12T10:17:38Z</time>
      </trkpt>
      <trkpt lat="44.55144" lon="6.06831">
        <ele>730.8</ele>
        <time>2025-06-12T10:17:39Z</time>
      </trkpt>
      <trkpt lat="44.55147" lon="6.06827">
        <ele>731</ele>
        <time>2025-06-12T10:17:40Z</time>
      </trkpt>
      <trkpt lat="44.55152" lon="6.06819">
        <ele>731.2</ele>
        <time>2025-06-12T10:17:42Z</time>
      </trkpt>
      <trkpt lat="44.55157" lon="6.0681">
        <ele>731.4</ele>
        <time>2025-06-12T10:17:44Z</time>
      </trkpt>
      <trkpt lat="44.55161" lon="6.06802">
        <ele>731.8</ele>
        <time>2025-06-12T10:17:46Z</time>
      </trkpt>
      <trkpt lat="44.55162" lon="6.06797">
        <ele>732</ele>
        <time>2025-06-12T10:17:47Z</time>
      </trkpt>
      <trkpt lat="44.55164" lon="6.06793">
        <ele>732</ele>
        <time>2025-06-12T10:17:48Z</time>
      </trkpt>
      <trkpt lat="44.55164" lon="6.06789">
        <ele>732.2</ele>
        <time>2025-06-12T10:17:49Z</time>
      </trkpt>
      <trkpt lat="44.55162" lon="6.06784">
        <ele>732.2</ele>
        <time>2025-06-12T10:17:50Z</time>
      </trkpt>
      <trkpt lat="44.5516" lon="6.06781">
        <ele>732.2</ele>
        <time>2025-06-12T10:17:51Z</time>
      </trkpt>
      <trkpt lat="44.55157" lon="6.06777">
        <ele>732.2</ele>
        <time>2025-06-12T10:17:52Z</time>
      </trkpt>
      <trkpt lat="44.55153" lon="6.06774">
        <ele>732.4</ele>
        <time>2025-06-12T10:17:53Z</time>
      </trkpt>
      <trkpt lat="44.55149" lon="6.0677">
        <ele>732.4</ele>
        <time>2025-06-12T10:17:54Z</time>
      </trkpt>
      <trkpt lat="44.55145" lon="6.06766">
        <ele>732.6</ele>
        <time>2025-06-12T10:17:55Z</time>
      </trkpt>
      <trkpt lat="44.55141" lon="6.06762">
        <ele>732.6</ele>
        <time>2025-06-12T10:17:56Z</time>
      </trkpt>
      <trkpt lat="44.55137" lon="6.06758">
        <ele>732.6</ele>
        <time>2025-06-12T10:17:57Z</time>
      </trkpt>
      <trkpt lat="44.55129" lon="6.06749">
        <ele>732.8</ele>
        <time>2025-06-12T10:17:59Z</time>
      </trkpt>
      <trkpt lat="44.55126" lon="6.06745">
        <ele>732.8</ele>
        <time>2025-06-12T10:18:00Z</time>
      </trkpt>
      <trkpt lat="44.55122" lon="6.0674">
        <ele>732.8</ele>
        <time>2025-06-12T10:18:01Z</time>
      </trkpt>
      <trkpt lat="44.55118" lon="6.06736">
        <ele>733</ele>
        <time>2025-06-12T10:18:02Z</time>
      </trkpt>
      <trkpt lat="44.55114" lon="6.06732">
        <ele>733</ele>
        <time>2025-06-12T10:18:03Z</time>
      </trkpt>
      <trkpt lat="44.5511" lon="6.06728">
        <ele>732.8</ele>
        <time>2025-06-12T10:18:04Z</time>
      </trkpt>
      <trkpt lat="44.55106" lon="6.06724">
        <ele>732.8</ele>
        <time>2025-06-12T10:18:05Z</time>
      </trkpt>
      <trkpt lat="44.55102" lon="6.06719">
        <ele>732.6</ele>
        <time>2025-06-12T10:18:06Z</time>
      </trkpt>
      <trkpt lat="44.55098" lon="6.06715">
        <ele>732.6</ele>
        <time>2025-06-12T10:18:07Z</time>
      </trkpt>
      <trkpt lat="44.55094" lon="6.0671">
        <ele>732.6</ele>
        <time>2025-06-12T10:18:08Z</time>
      </trkpt>
      <trkpt lat="44.55091" lon="6.06706">
        <ele>732.6</ele>
        <time>2025-06-12T10:18:09Z</time>
      </trkpt>
      <trkpt lat="44.55087" lon="6.06702">
        <ele>732.6</ele>
        <time>2025-06-12T10:18:10Z</time>
      </trkpt>
      <trkpt lat="44.55079" lon="6.06694">
        <ele>732.6</ele>
        <time>2025-06-12T10:18:12Z</time>
      </trkpt>
      <trkpt lat="44.55075" lon="6.0669">
        <ele>732.6</ele>
        <time>2025-06-12T10:18:13Z</time>
      </trkpt>
      <trkpt lat="44.55072" lon="6.06685">
        <ele>732.8</ele>
        <time>2025-06-12T10:18:14Z</time>
      </trkpt>
      <trkpt lat="44.55065" lon="6.06676">
        <ele>732.8</ele>
        <time>2025-06-12T10:18:16Z</time>
      </trkpt>
      <trkpt lat="44.55059" lon="6.06667">
        <ele>732.8</ele>
        <time>2025-06-12T10:18:18Z</time>
      </trkpt>
      <trkpt lat="44.55057" lon="6.06662">
        <ele>732.8</ele>
        <time>2025-06-12T10:18:19Z</time>
      </trkpt>
      <trkpt lat="44.55054" lon="6.06657">
        <ele>732.8</ele>
        <time>2025-06-12T10:18:20Z</time>
      </trkpt>
      <trkpt lat="44.55051" lon="6.06652">
        <ele>732.8</ele>
        <time>2025-06-12T10:18:21Z</time>
      </trkpt>
      <trkpt lat="44.55048" lon="6.06647">
        <ele>733</ele>
        <time>2025-06-12T10:18:22Z</time>
      </trkpt>
      <trkpt lat="44.55046" lon="6.06642">
        <ele>733</ele>
        <time>2025-06-12T10:18:23Z</time>
      </trkpt>
      <trkpt lat="44.55043" lon="6.06637">
        <ele>733.2</ele>
        <time>2025-06-12T10:18:24Z</time>
      </trkpt>
      <trkpt lat="44.5504" lon="6.06632">
        <ele>733.2</ele>
        <time>2025-06-12T10:18:25Z</time>
      </trkpt>
      <trkpt lat="44.55037" lon="6.06626">
        <ele>733.4</ele>
        <time>2025-06-12T10:18:26Z</time>
      </trkpt>
      <trkpt lat="44.55035" lon="6.06621">
        <ele>733.8</ele>
        <time>2025-06-12T10:18:27Z</time>
      </trkpt>
      <trkpt lat="44.55029" lon="6.06611">
        <ele>734</ele>
        <time>2025-06-12T10:18:29Z</time>
      </trkpt>
      <trkpt lat="44.55022" lon="6.06601">
        <ele>734.2</ele>
        <time>2025-06-12T10:18:31Z</time>
      </trkpt>
      <trkpt lat="44.55019" lon="6.06596">
        <ele>734.2</ele>
        <time>2025-06-12T10:18:32Z</time>
      </trkpt>
      <trkpt lat="44.55016" lon="6.06591">
        <ele>734.4</ele>
        <time>2025-06-12T10:18:33Z</time>
      </trkpt>
      <trkpt lat="44.55013" lon="6.06585">
        <ele>734.4</ele>
        <time>2025-06-12T10:18:34Z</time>
      </trkpt>
      <trkpt lat="44.5501" lon="6.0658">
        <ele>734.4</ele>
        <time>2025-06-12T10:18:35Z</time>
      </trkpt>
      <trkpt lat="44.55007" lon="6.06576">
        <ele>734.6</ele>
        <time>2025-06-12T10:18:36Z</time>
      </trkpt>
      <trkpt lat="44.55003" lon="6.06571">
        <ele>734.6</ele>
        <time>2025-06-12T10:18:37Z</time>
      </trkpt>
      <trkpt lat="44.55" lon="6.06566">
        <ele>734.8</ele>
        <time>2025-06-12T10:18:38Z</time>
      </trkpt>
      <trkpt lat="44.54994" lon="6.06556">
        <ele>735</ele>
        <time>2025-06-12T10:18:40Z</time>
      </trkpt>
      <trkpt lat="44.54992" lon="6.0655">
        <ele>735.2</ele>
        <time>2025-06-12T10:18:41Z</time>
      </trkpt>
      <trkpt lat="44.5499" lon="6.06544">
        <ele>735.2</ele>
        <time>2025-06-12T10:18:42Z</time>
      </trkpt>
      <trkpt lat="44.54988" lon="6.06538">
        <ele>735.2</ele>
        <time>2025-06-12T10:18:43Z</time>
      </trkpt>
      <trkpt lat="44.54986" lon="6.06532">
        <ele>735.4</ele>
        <time>2025-06-12T10:18:44Z</time>
      </trkpt>
      <trkpt lat="44.54984" lon="6.06526">
        <ele>735.4</ele>
        <time>2025-06-12T10:18:45Z</time>
      </trkpt>
      <trkpt lat="44.54982" lon="6.0652">
        <ele>735.4</ele>
        <time>2025-06-12T10:18:46Z</time>
      </trkpt>
      <trkpt lat="44.5498" lon="6.06515">
        <ele>735.6</ele>
        <time>2025-06-12T10:18:47Z</time>
      </trkpt>
      <trkpt lat="44.54977" lon="6.06504">
        <ele>736</ele>
        <time>2025-06-12T10:18:49Z</time>
      </trkpt>
      <trkpt lat="44.54974" lon="6.06492">
        <ele>736.4</ele>
        <time>2025-06-12T10:18:51Z</time>
      </trkpt>
      <trkpt lat="44.54972" lon="6.06486">
        <ele>736.6</ele>
        <time>2025-06-12T10:18:52Z</time>
      </trkpt>
      <trkpt lat="44.54971" lon="6.0648">
        <ele>736.6</ele>
        <time>2025-06-12T10:18:53Z</time>
      </trkpt>
      <trkpt lat="44.54969" lon="6.06474">
        <ele>736.6</ele>
        <time>2025-06-12T10:18:54Z</time>
      </trkpt>
      <trkpt lat="44.54968" lon="6.06469">
        <ele>736.8</ele>
        <time>2025-06-12T10:18:55Z</time>
      </trkpt>
      <trkpt lat="44.54966" lon="6.06463">
        <ele>736.8</ele>
        <time>2025-06-12T10:18:56Z</time>
      </trkpt>
      <trkpt lat="44.54964" lon="6.06457">
        <ele>736.8</ele>
        <time>2025-06-12T10:18:57Z</time>
      </trkpt>
      <trkpt lat="44.54962" lon="6.06451">
        <ele>736.8</ele>
        <time>2025-06-12T10:18:58Z</time>
      </trkpt>
      <trkpt lat="44.54959" lon="6.06439">
        <ele>737.2</ele>
        <time>2025-06-12T10:19:00Z</time>
      </trkpt>
      <trkpt lat="44.54956" lon="6.06428">
        <ele>737.4</ele>
        <time>2025-06-12T10:19:02Z</time>
      </trkpt>
      <trkpt lat="44.54954" lon="6.06422">
        <ele>737.6</ele>
        <time>2025-06-12T10:19:03Z</time>
      </trkpt>
      <trkpt lat="44.54952" lon="6.06416">
        <ele>737.6</ele>
        <time>2025-06-12T10:19:04Z</time>
      </trkpt>
      <trkpt lat="44.54951" lon="6.0641">
        <ele>737.6</ele>
        <time>2025-06-12T10:19:05Z</time>
      </trkpt>
      <trkpt lat="44.54949" lon="6.06404">
        <ele>737.8</ele>
        <time>2025-06-12T10:19:06Z</time>
      </trkpt>
      <trkpt lat="44.54947" lon="6.06399">
        <ele>738</ele>
        <time>2025-06-12T10:19:07Z</time>
      </trkpt>
      <trkpt lat="44.54946" lon="6.06394">
        <ele>738.2</ele>
        <time>2025-06-12T10:19:08Z</time>
      </trkpt>
      <trkpt lat="44.54944" lon="6.06388">
        <ele>738.6</ele>
        <time>2025-06-12T10:19:09Z</time>
      </trkpt>
      <trkpt lat="44.54943" lon="6.06382">
        <ele>739.2</ele>
        <time>2025-06-12T10:19:10Z</time>
      </trkpt>
      <trkpt lat="44.54941" lon="6.06376">
        <ele>739.4</ele>
        <time>2025-06-12T10:19:11Z</time>
      </trkpt>
      <trkpt lat="44.5494" lon="6.06371">
        <ele>739.6</ele>
        <time>2025-06-12T10:19:12Z</time>
      </trkpt>
      <trkpt lat="44.54939" lon="6.06365">
        <ele>739.8</ele>
        <time>2025-06-12T10:19:13Z</time>
      </trkpt>
      <trkpt lat="44.54937" lon="6.06359">
        <ele>739.8</ele>
        <time>2025-06-12T10:19:14Z</time>
      </trkpt>
      <trkpt lat="44.54937" lon="6.06353">
        <ele>739.8</ele>
        <time>2025-06-12T10:19:15Z</time>
      </trkpt>
      <trkpt lat="44.54936" lon="6.06347">
        <ele>739.8</ele>
        <time>2025-06-12T10:19:16Z</time>
      </trkpt>
      <trkpt lat="44.54936" lon="6.06341">
        <ele>739.8</ele>
        <time>2025-06-12T10:19:17Z</time>
      </trkpt>
      <trkpt lat="44.54935" lon="6.06335">
        <ele>740</ele>
        <time>2025-06-12T10:19:18Z</time>
      </trkpt>
      <trkpt lat="44.54934" lon="6.0633">
        <ele>740.4</ele>
        <time>2025-06-12T10:19:19Z</time>
      </trkpt>
      <trkpt lat="44.54934" lon="6.06324">
        <ele>740.6</ele>
        <time>2025-06-12T10:19:20Z</time>
      </trkpt>
      <trkpt lat="44.54932" lon="6.06312">
        <ele>741.2</ele>
        <time>2025-06-12T10:19:22Z</time>
      </trkpt>
      <trkpt lat="44.54932" lon="6.06306">
        <ele>741.6</ele>
        <time>2025-06-12T10:19:23Z</time>
      </trkpt>
      <trkpt lat="44.54931" lon="6.063">
        <ele>741.8</ele>
        <time>2025-06-12T10:19:24Z</time>
      </trkpt>
      <trkpt lat="44.5493" lon="6.06288">
        <ele>742.2</ele>
        <time>2025-06-12T10:19:26Z</time>
      </trkpt>
      <trkpt lat="44.54929" lon="6.06282">
        <ele>742.4</ele>
        <time>2025-06-12T10:19:27Z</time>
      </trkpt>
      <trkpt lat="44.54928" lon="6.06276">
        <ele>742.6</ele>
        <time>2025-06-12T10:19:28Z</time>
      </trkpt>
      <trkpt lat="44.54926" lon="6.0627">
        <ele>742.8</ele>
        <time>2025-06-12T10:19:29Z</time>
      </trkpt>
      <trkpt lat="44.54925" lon="6.06265">
        <ele>742.8</ele>
        <time>2025-06-12T10:19:30Z</time>
      </trkpt>
      <trkpt lat="44.54923" lon="6.06259">
        <ele>743</ele>
        <time>2025-06-12T10:19:31Z</time>
      </trkpt>
      <trkpt lat="44.54922" lon="6.06252">
        <ele>743</ele>
        <time>2025-06-12T10:19:32Z</time>
      </trkpt>
      <trkpt lat="44.5492" lon="6.06246">
        <ele>743</ele>
        <time>2025-06-12T10:19:33Z</time>
      </trkpt>
      <trkpt lat="44.54916" lon="6.06234">
        <ele>743.2</ele>
        <time>2025-06-12T10:19:35Z</time>
      </trkpt>
      <trkpt lat="44.54911" lon="6.06224">
        <ele>743.2</ele>
        <time>2025-06-12T10:19:37Z</time>
      </trkpt>
      <trkpt lat="44.54909" lon="6.06218">
        <ele>743.2</ele>
        <time>2025-06-12T10:19:38Z</time>
      </trkpt>
      <trkpt lat="44.54907" lon="6.06213">
        <ele>743.4</ele>
        <time>2025-06-12T10:19:39Z</time>
      </trkpt>
      <trkpt lat="44.54904" lon="6.06208">
        <ele>743.6</ele>
        <time>2025-06-12T10:19:40Z</time>
      </trkpt>
      <trkpt lat="44.54902" lon="6.06202">
        <ele>743.8</ele>
        <time>2025-06-12T10:19:41Z</time>
      </trkpt>
      <trkpt lat="44.549" lon="6.06197">
        <ele>744</ele>
        <time>2025-06-12T10:19:42Z</time>
      </trkpt>
      <trkpt lat="44.54897" lon="6.06192">
        <ele>744.2</ele>
        <time>2025-06-12T10:19:43Z</time>
      </trkpt>
      <trkpt lat="44.54895" lon="6.06187">
        <ele>744.4</ele>
        <time>2025-06-12T10:19:44Z</time>
      </trkpt>
      <trkpt lat="44.5489" lon="6.06177">
        <ele>744.8</ele>
        <time>2025-06-12T10:19:46Z</time>
      </trkpt>
      <trkpt lat="44.54886" lon="6.06167">
        <ele>745</ele>
        <time>2025-06-12T10:19:48Z</time>
      </trkpt>
      <trkpt lat="44.54884" lon="6.06161">
        <ele>745.2</ele>
        <time>2025-06-12T10:19:49Z</time>
      </trkpt>
      <trkpt lat="44.54883" lon="6.06155">
        <ele>745.2</ele>
        <time>2025-06-12T10:19:50Z</time>
      </trkpt>
      <trkpt lat="44.54881" lon="6.06149">
        <ele>745.4</ele>
        <time>2025-06-12T10:19:51Z</time>
      </trkpt>
      <trkpt lat="44.54879" lon="6.06142">
        <ele>745.4</ele>
        <time>2025-06-12T10:19:52Z</time>
      </trkpt>
      <trkpt lat="44.54878" lon="6.06136">
        <ele>745.4</ele>
        <time>2025-06-12T10:19:53Z</time>
      </trkpt>
      <trkpt lat="44.54876" lon="6.06129">
        <ele>745.4</ele>
        <time>2025-06-12T10:19:54Z</time>
      </trkpt>
      <trkpt lat="44.54874" lon="6.06123">
        <ele>745.4</ele>
        <time>2025-06-12T10:19:55Z</time>
      </trkpt>
      <trkpt lat="44.54869" lon="6.0611">
        <ele>745.4</ele>
        <time>2025-06-12T10:19:57Z</time>
      </trkpt>
      <trkpt lat="44.54867" lon="6.06103">
        <ele>745.6</ele>
        <time>2025-06-12T10:19:58Z</time>
      </trkpt>
      <trkpt lat="44.54864" lon="6.06097">
        <ele>745.6</ele>
        <time>2025-06-12T10:19:59Z</time>
      </trkpt>
      <trkpt lat="44.54861" lon="6.06092">
        <ele>745.6</ele>
        <time>2025-06-12T10:20:00Z</time>
      </trkpt>
      <trkpt lat="44.54858" lon="6.06087">
        <ele>745.6</ele>
        <time>2025-06-12T10:20:01Z</time>
      </trkpt>
      <trkpt lat="44.54854" lon="6.06082">
        <ele>745.6</ele>
        <time>2025-06-12T10:20:02Z</time>
      </trkpt>
      <trkpt lat="44.54846" lon="6.06073">
        <ele>745.6</ele>
        <time>2025-06-12T10:20:04Z</time>
      </trkpt>
      <trkpt lat="44.54838" lon="6.06065">
        <ele>745.6</ele>
        <time>2025-06-12T10:20:06Z</time>
      </trkpt>
      <trkpt lat="44.54834" lon="6.0606">
        <ele>745.6</ele>
        <time>2025-06-12T10:20:07Z</time>
      </trkpt>
      <trkpt lat="44.5483" lon="6.06056">
        <ele>745.6</ele>
        <time>2025-06-12T10:20:08Z</time>
      </trkpt>
      <trkpt lat="44.54826" lon="6.06052">
        <ele>745.6</ele>
        <time>2025-06-12T10:20:09Z</time>
      </trkpt>
      <trkpt lat="44.54822" lon="6.06049">
        <ele>745.6</ele>
        <time>2025-06-12T10:20:10Z</time>
      </trkpt>
      <trkpt lat="44.54818" lon="6.06045">
        <ele>745.6</ele>
        <time>2025-06-12T10:20:11Z</time>
      </trkpt>
      <trkpt lat="44.54809" lon="6.06038">
        <ele>745.4</ele>
        <time>2025-06-12T10:20:13Z</time>
      </trkpt>
      <trkpt lat="44.548" lon="6.06031">
        <ele>745.4</ele>
        <time>2025-06-12T10:20:15Z</time>
      </trkpt>
      <trkpt lat="44.54796" lon="6.06029">
        <ele>745.4</ele>
        <time>2025-06-12T10:20:16Z</time>
      </trkpt>
      <trkpt lat="44.54791" lon="6.06027">
        <ele>745.4</ele>
        <time>2025-06-12T10:20:17Z</time>
      </trkpt>
      <trkpt lat="44.54786" lon="6.06025">
        <ele>745.4</ele>
        <time>2025-06-12T10:20:18Z</time>
      </trkpt>
      <trkpt lat="44.54782" lon="6.06024">
        <ele>745.6</ele>
        <time>2025-06-12T10:20:19Z</time>
      </trkpt>
      <trkpt lat="44.54778" lon="6.06022">
        <ele>745.6</ele>
        <time>2025-06-12T10:20:20Z</time>
      </trkpt>
      <trkpt lat="44.54769" lon="6.06018">
        <ele>745.6</ele>
        <time>2025-06-12T10:20:22Z</time>
      </trkpt>
      <trkpt lat="44.54765" lon="6.06016">
        <ele>745.6</ele>
        <time>2025-06-12T10:20:23Z</time>
      </trkpt>
      <trkpt lat="44.54761" lon="6.06013">
        <ele>745.6</ele>
        <time>2025-06-12T10:20:24Z</time>
      </trkpt>
      <trkpt lat="44.54757" lon="6.0601">
        <ele>745.8</ele>
        <time>2025-06-12T10:20:25Z</time>
      </trkpt>
      <trkpt lat="44.54754" lon="6.06007">
        <ele>745.8</ele>
        <time>2025-06-12T10:20:26Z</time>
      </trkpt>
      <trkpt lat="44.5475" lon="6.06004">
        <ele>745.8</ele>
        <time>2025-06-12T10:20:27Z</time>
      </trkpt>
      <trkpt lat="44.54747" lon="6.06">
        <ele>746</ele>
        <time>2025-06-12T10:20:28Z</time>
      </trkpt>
      <trkpt lat="44.54744" lon="6.05996">
        <ele>746</ele>
        <time>2025-06-12T10:20:29Z</time>
      </trkpt>
      <trkpt lat="44.54741" lon="6.05992">
        <ele>746.2</ele>
        <time>2025-06-12T10:20:30Z</time>
      </trkpt>
      <trkpt lat="44.54738" lon="6.05988">
        <ele>746.4</ele>
        <time>2025-06-12T10:20:31Z</time>
      </trkpt>
      <trkpt lat="44.54732" lon="6.0598">
        <ele>746.8</ele>
        <time>2025-06-12T10:20:33Z</time>
      </trkpt>
      <trkpt lat="44.54729" lon="6.05975">
        <ele>747</ele>
        <time>2025-06-12T10:20:34Z</time>
      </trkpt>
      <trkpt lat="44.54727" lon="6.0597">
        <ele>747.4</ele>
        <time>2025-06-12T10:20:35Z</time>
      </trkpt>
      <trkpt lat="44.54726" lon="6.05964">
        <ele>747.6</ele>
        <time>2025-06-12T10:20:36Z</time>
      </trkpt>
      <trkpt lat="44.54726" lon="6.05958">
        <ele>747.6</ele>
        <time>2025-06-12T10:20:37Z</time>
      </trkpt>
      <trkpt lat="44.54728" lon="6.05952">
        <ele>747.8</ele>
        <time>2025-06-12T10:20:38Z</time>
      </trkpt>
      <trkpt lat="44.5473" lon="6.05946">
        <ele>747.6</ele>
        <time>2025-06-12T10:20:39Z</time>
      </trkpt>
      <trkpt lat="44.54732" lon="6.05942">
        <ele>747.8</ele>
        <time>2025-06-12T10:20:40Z</time>
      </trkpt>
      <trkpt lat="44.54734" lon="6.05937">
        <ele>747.8</ele>
        <time>2025-06-12T10:20:41Z</time>
      </trkpt>
      <trkpt lat="44.54736" lon="6.05933">
        <ele>747.8</ele>
        <time>2025-06-12T10:20:42Z</time>
      </trkpt>
      <trkpt lat="44.54737" lon="6.05929">
        <ele>747.8</ele>
        <time>2025-06-12T10:20:43Z</time>
      </trkpt>
      <trkpt lat="44.54739" lon="6.05924">
        <ele>748</ele>
        <time>2025-06-12T10:20:44Z</time>
      </trkpt>
      <trkpt lat="44.54741" lon="6.05914">
        <ele>748.2</ele>
        <time>2025-06-12T10:20:46Z</time>
      </trkpt>
      <trkpt lat="44.54741" lon="6.0591">
        <ele>748.6</ele>
        <time>2025-06-12T10:20:47Z</time>
      </trkpt>
      <trkpt lat="44.54741" lon="6.05905">
        <ele>749</ele>
        <time>2025-06-12T10:20:48Z</time>
      </trkpt>
      <trkpt lat="44.5474" lon="6.059">
        <ele>749.4</ele>
        <time>2025-06-12T10:20:49Z</time>
      </trkpt>
      <trkpt lat="44.54739" lon="6.05895">
        <ele>749.8</ele>
        <time>2025-06-12T10:20:50Z</time>
      </trkpt>
      <trkpt lat="44.54738" lon="6.0589">
        <ele>750.8</ele>
        <time>2025-06-12T10:20:51Z</time>
      </trkpt>
      <trkpt lat="44.54737" lon="6.05886">
        <ele>751.2</ele>
        <time>2025-06-12T10:20:52Z</time>
      </trkpt>
      <trkpt lat="44.54735" lon="6.05882">
        <ele>751.6</ele>
        <time>2025-06-12T10:20:53Z</time>
      </trkpt>
      <trkpt lat="44.54731" lon="6.05874">
        <ele>752.2</ele>
        <time>2025-06-12T10:20:55Z</time>
      </trkpt>
      <trkpt lat="44.54726" lon="6.05866">
        <ele>752.8</ele>
        <time>2025-06-12T10:20:57Z</time>
      </trkpt>
      <trkpt lat="44.54722" lon="6.05858">
        <ele>753.4</ele>
        <time>2025-06-12T10:20:59Z</time>
      </trkpt>
      <trkpt lat="44.5472" lon="6.05854">
        <ele>753.8</ele>
        <time>2025-06-12T10:21:00Z</time>
      </trkpt>
      <trkpt lat="44.54717" lon="6.0585">
        <ele>754.2</ele>
        <time>2025-06-12T10:21:01Z</time>
      </trkpt>
      <trkpt lat="44.54715" lon="6.05846">
        <ele>754.4</ele>
        <time>2025-06-12T10:21:02Z</time>
      </trkpt>
      <trkpt lat="44.54713" lon="6.05842">
        <ele>754.6</ele>
        <time>2025-06-12T10:21:03Z</time>
      </trkpt>
      <trkpt lat="44.5471" lon="6.05838">
        <ele>754.8</ele>
        <time>2025-06-12T10:21:04Z</time>
      </trkpt>
      <trkpt lat="44.54708" lon="6.05835">
        <ele>754.8</ele>
        <time>2025-06-12T10:21:05Z</time>
      </trkpt>
      <trkpt lat="44.54706" lon="6.05831">
        <ele>755</ele>
        <time>2025-06-12T10:21:06Z</time>
      </trkpt>
      <trkpt lat="44.54701" lon="6.05824">
        <ele>755.4</ele>
        <time>2025-06-12T10:21:08Z</time>
      </trkpt>
      <trkpt lat="44.54699" lon="6.0582">
        <ele>755.4</ele>
        <time>2025-06-12T10:21:09Z</time>
      </trkpt>
      <trkpt lat="44.54697" lon="6.05816">
        <ele>755.6</ele>
        <time>2025-06-12T10:21:10Z</time>
      </trkpt>
      <trkpt lat="44.54695" lon="6.05813">
        <ele>755.6</ele>
        <time>2025-06-12T10:21:11Z</time>
      </trkpt>
      <trkpt lat="44.54693" lon="6.05809">
        <ele>755.8</ele>
        <time>2025-06-12T10:21:12Z</time>
      </trkpt>
      <trkpt lat="44.5469" lon="6.05806">
        <ele>755.8</ele>
        <time>2025-06-12T10:21:13Z</time>
      </trkpt>
      <trkpt lat="44.54686" lon="6.05799">
        <ele>756</ele>
        <time>2025-06-12T10:21:15Z</time>
      </trkpt>
      <trkpt lat="44.54682" lon="6.05792">
        <ele>756.4</ele>
        <time>2025-06-12T10:21:17Z</time>
      </trkpt>
      <trkpt lat="44.5468" lon="6.05789">
        <ele>756.6</ele>
        <time>2025-06-12T10:21:18Z</time>
      </trkpt>
      <trkpt lat="44.54677" lon="6.05785">
        <ele>756.8</ele>
        <time>2025-06-12T10:21:19Z</time>
      </trkpt>
      <trkpt lat="44.54675" lon="6.05782">
        <ele>757</ele>
        <time>2025-06-12T10:21:20Z</time>
      </trkpt>
      <trkpt lat="44.54673" lon="6.05779">
        <ele>757.2</ele>
        <time>2025-06-12T10:21:21Z</time>
      </trkpt>
      <trkpt lat="44.54671" lon="6.05775">
        <ele>757.4</ele>
        <time>2025-06-12T10:21:22Z</time>
      </trkpt>
      <trkpt lat="44.54667" lon="6.05769">
        <ele>758</ele>
        <time>2025-06-12T10:21:24Z</time>
      </trkpt>
      <trkpt lat="44.54663" lon="6.05762">
        <ele>758.6</ele>
        <time>2025-06-12T10:21:26Z</time>
      </trkpt>
      <trkpt lat="44.5466" lon="6.05756">
        <ele>758.8</ele>
        <time>2025-06-12T10:21:28Z</time>
      </trkpt>
      <trkpt lat="44.54658" lon="6.05753">
        <ele>759.2</ele>
        <time>2025-06-12T10:21:29Z</time>
      </trkpt>
      <trkpt lat="44.54656" lon="6.0575">
        <ele>759.4</ele>
        <time>2025-06-12T10:21:30Z</time>
      </trkpt>
      <trkpt lat="44.54654" lon="6.05747">
        <ele>759.6</ele>
        <time>2025-06-12T10:21:31Z</time>
      </trkpt>
      <trkpt lat="44.54653" lon="6.05744">
        <ele>759.8</ele>
        <time>2025-06-12T10:21:32Z</time>
      </trkpt>
      <trkpt lat="44.54651" lon="6.05742">
        <ele>760.2</ele>
        <time>2025-06-12T10:21:33Z</time>
      </trkpt>
      <trkpt lat="44.54649" lon="6.05739">
        <ele>760.4</ele>
        <time>2025-06-12T10:21:34Z</time>
      </trkpt>
      <trkpt lat="44.54647" lon="6.05736">
        <ele>760.8</ele>
        <time>2025-06-12T10:21:35Z</time>
      </trkpt>
      <trkpt lat="44.54644" lon="6.0573">
        <ele>761.8</ele>
        <time>2025-06-12T10:21:37Z</time>
      </trkpt>
      <trkpt lat="44.54641" lon="6.05724">
        <ele>762.4</ele>
        <time>2025-06-12T10:21:39Z</time>
      </trkpt>
      <trkpt lat="44.54637" lon="6.05718">
        <ele>762.8</ele>
        <time>2025-06-12T10:21:41Z</time>
      </trkpt>
      <trkpt lat="44.54635" lon="6.05715">
        <ele>762.8</ele>
        <time>2025-06-12T10:21:42Z</time>
      </trkpt>
      <trkpt lat="44.54633" lon="6.05712">
        <ele>763.2</ele>
        <time>2025-06-12T10:21:43Z</time>
      </trkpt>
      <trkpt lat="44.54631" lon="6.05709">
        <ele>763.4</ele>
        <time>2025-06-12T10:21:44Z</time>
      </trkpt>
      <trkpt lat="44.5463" lon="6.05707">
        <ele>763.6</ele>
        <time>2025-06-12T10:21:45Z</time>
      </trkpt>
      <trkpt lat="44.54628" lon="6.05704">
        <ele>764.2</ele>
        <time>2025-06-12T10:21:46Z</time>
      </trkpt>
      <trkpt lat="44.54626" lon="6.05701">
        <ele>764.6</ele>
        <time>2025-06-12T10:21:47Z</time>
      </trkpt>
      <trkpt lat="44.54624" lon="6.05698">
        <ele>764.8</ele>
        <time>2025-06-12T10:21:48Z</time>
      </trkpt>
      <trkpt lat="44.54623" lon="6.05695">
        <ele>765.2</ele>
        <time>2025-06-12T10:21:49Z</time>
      </trkpt>
      <trkpt lat="44.54621" lon="6.05692">
        <ele>765.4</ele>
        <time>2025-06-12T10:21:50Z</time>
      </trkpt>
      <trkpt lat="44.54619" lon="6.05689">
        <ele>765.8</ele>
        <time>2025-06-12T10:21:51Z</time>
      </trkpt>
      <trkpt lat="44.54617" lon="6.05686">
        <ele>766</ele>
        <time>2025-06-12T10:21:52Z</time>
      </trkpt>
      <trkpt lat="44.54616" lon="6.05683">
        <ele>766.2</ele>
        <time>2025-06-12T10:21:53Z</time>
      </trkpt>
      <trkpt lat="44.54614" lon="6.0568">
        <ele>766.4</ele>
        <time>2025-06-12T10:21:54Z</time>
      </trkpt>
      <trkpt lat="44.54612" lon="6.05678">
        <ele>766.6</ele>
        <time>2025-06-12T10:21:55Z</time>
      </trkpt>
      <trkpt lat="44.54611" lon="6.05675">
        <ele>766.8</ele>
        <time>2025-06-12T10:21:56Z</time>
      </trkpt>
      <trkpt lat="44.54607" lon="6.05669">
        <ele>767.2</ele>
        <time>2025-06-12T10:21:58Z</time>
      </trkpt>
      <trkpt lat="44.54606" lon="6.05665">
        <ele>767.4</ele>
        <time>2025-06-12T10:21:59Z</time>
      </trkpt>
      <trkpt lat="44.54605" lon="6.05662">
        <ele>767.6</ele>
        <time>2025-06-12T10:22:00Z</time>
      </trkpt>
      <trkpt lat="44.54603" lon="6.05659">
        <ele>768</ele>
        <time>2025-06-12T10:22:01Z</time>
      </trkpt>
      <trkpt lat="44.54602" lon="6.05656">
        <ele>768.2</ele>
        <time>2025-06-12T10:22:02Z</time>
      </trkpt>
      <trkpt lat="44.54601" lon="6.05652">
        <ele>768.4</ele>
        <time>2025-06-12T10:22:03Z</time>
      </trkpt>
      <trkpt lat="44.54599" lon="6.05646">
        <ele>769</ele>
        <time>2025-06-12T10:22:05Z</time>
      </trkpt>
      <trkpt lat="44.54598" lon="6.05639">
        <ele>769.6</ele>
        <time>2025-06-12T10:22:07Z</time>
      </trkpt>
      <trkpt lat="44.54595" lon="6.05631">
        <ele>770.2</ele>
        <time>2025-06-12T10:22:09Z</time>
      </trkpt>
      <trkpt lat="44.54594" lon="6.05628">
        <ele>770.6</ele>
        <time>2025-06-12T10:22:10Z</time>
      </trkpt>
      <trkpt lat="44.54594" lon="6.05624">
        <ele>771</ele>
        <time>2025-06-12T10:22:11Z</time>
      </trkpt>
      <trkpt lat="44.54593" lon="6.0562">
        <ele>771.2</ele>
        <time>2025-06-12T10:22:12Z</time>
      </trkpt>
      <trkpt lat="44.54592" lon="6.05617">
        <ele>771.6</ele>
        <time>2025-06-12T10:22:13Z</time>
      </trkpt>
      <trkpt lat="44.54591" lon="6.05613">
        <ele>772</ele>
        <time>2025-06-12T10:22:14Z</time>
      </trkpt>
      <trkpt lat="44.5459" lon="6.05609">
        <ele>772</ele>
        <time>2025-06-12T10:22:15Z</time>
      </trkpt>
      <trkpt lat="44.54589" lon="6.05606">
        <ele>772.2</ele>
        <time>2025-06-12T10:22:16Z</time>
      </trkpt>
      <trkpt lat="44.54588" lon="6.05602">
        <ele>772.4</ele>
        <time>2025-06-12T10:22:17Z</time>
      </trkpt>
      <trkpt lat="44.54586" lon="6.05598">
        <ele>772.6</ele>
        <time>2025-06-12T10:22:18Z</time>
      </trkpt>
      <trkpt lat="44.54584" lon="6.0559">
        <ele>773.2</ele>
        <time>2025-06-12T10:22:20Z</time>
      </trkpt>
      <trkpt lat="44.54582" lon="6.05587">
        <ele>773.6</ele>
        <time>2025-06-12T10:22:21Z</time>
      </trkpt>
      <trkpt lat="44.54581" lon="6.05583">
        <ele>773.6</ele>
        <time>2025-06-12T10:22:22Z</time>
      </trkpt>
      <trkpt lat="44.5458" lon="6.05579">
        <ele>773.8</ele>
        <time>2025-06-12T10:22:23Z</time>
      </trkpt>
      <trkpt lat="44.54578" lon="6.05576">
        <ele>774</ele>
        <time>2025-06-12T10:22:24Z</time>
      </trkpt>
      <trkpt lat="44.54577" lon="6.05573">
        <ele>774</ele>
        <time>2025-06-12T10:22:25Z</time>
      </trkpt>
      <trkpt lat="44.54574" lon="6.05566">
        <ele>774.2</ele>
        <time>2025-06-12T10:22:27Z</time>
      </trkpt>
      <trkpt lat="44.54571" lon="6.05559">
        <ele>774.6</ele>
        <time>2025-06-12T10:22:29Z</time>
      </trkpt>
      <trkpt lat="44.5457" lon="6.05556">
        <ele>774.6</ele>
        <time>2025-06-12T10:22:30Z</time>
      </trkpt>
      <trkpt lat="44.54569" lon="6.05553">
        <ele>774.8</ele>
        <time>2025-06-12T10:22:31Z</time>
      </trkpt>
      <trkpt lat="44.54567" lon="6.05549">
        <ele>774.8</ele>
        <time>2025-06-12T10:22:32Z</time>
      </trkpt>
      <trkpt lat="44.54565" lon="6.05542">
        <ele>775</ele>
        <time>2025-06-12T10:22:34Z</time>
      </trkpt>
      <trkpt lat="44.54563" lon="6.05539">
        <ele>775.2</ele>
        <time>2025-06-12T10:22:35Z</time>
      </trkpt>
      <trkpt lat="44.54562" lon="6.05535">
        <ele>775.4</ele>
        <time>2025-06-12T10:22:36Z</time>
      </trkpt>
      <trkpt lat="44.54561" lon="6.05532">
        <ele>775.4</ele>
        <time>2025-06-12T10:22:37Z</time>
      </trkpt>
      <trkpt lat="44.54558" lon="6.05524">
        <ele>775.8</ele>
        <time>2025-06-12T10:22:39Z</time>
      </trkpt>
      <trkpt lat="44.54556" lon="6.05517">
        <ele>776.4</ele>
        <time>2025-06-12T10:22:41Z</time>
      </trkpt>
      <trkpt lat="44.54555" lon="6.05513">
        <ele>776.6</ele>
        <time>2025-06-12T10:22:42Z</time>
      </trkpt>
      <trkpt lat="44.54554" lon="6.0551">
        <ele>776.8</ele>
        <time>2025-06-12T10:22:43Z</time>
      </trkpt>
      <trkpt lat="44.54553" lon="6.05506">
        <ele>777</ele>
        <time>2025-06-12T10:22:44Z</time>
      </trkpt>
      <trkpt lat="44.54551" lon="6.05498">
        <ele>777.2</ele>
        <time>2025-06-12T10:22:46Z</time>
      </trkpt>
      <trkpt lat="44.5455" lon="6.05495">
        <ele>777.4</ele>
        <time>2025-06-12T10:22:47Z</time>
      </trkpt>
      <trkpt lat="44.54549" lon="6.05491">
        <ele>777.4</ele>
        <time>2025-06-12T10:22:48Z</time>
      </trkpt>
      <trkpt lat="44.54549" lon="6.05487">
        <ele>777.6</ele>
        <time>2025-06-12T10:22:49Z</time>
      </trkpt>
      <trkpt lat="44.54548" lon="6.05479">
        <ele>777.8</ele>
        <time>2025-06-12T10:22:51Z</time>
      </trkpt>
      <trkpt lat="44.54547" lon="6.05472">
        <ele>778.2</ele>
        <time>2025-06-12T10:22:53Z</time>
      </trkpt>
      <trkpt lat="44.54547" lon="6.05468">
        <ele>778.2</ele>
        <time>2025-06-12T10:22:54Z</time>
      </trkpt>
      <trkpt lat="44.54547" lon="6.05464">
        <ele>778.6</ele>
        <time>2025-06-12T10:22:55Z</time>
      </trkpt>
      <trkpt lat="44.54547" lon="6.0546">
        <ele>778.8</ele>
        <time>2025-06-12T10:22:56Z</time>
      </trkpt>
      <trkpt lat="44.54546" lon="6.05456">
        <ele>779</ele>
        <time>2025-06-12T10:22:57Z</time>
      </trkpt>
      <trkpt lat="44.54546" lon="6.05452">
        <ele>779.2</ele>
        <time>2025-06-12T10:22:58Z</time>
      </trkpt>
      <trkpt lat="44.54546" lon="6.05448">
        <ele>779.2</ele>
        <time>2025-06-12T10:22:59Z</time>
      </trkpt>
      <trkpt lat="44.54546" lon="6.05444">
        <ele>779.4</ele>
        <time>2025-06-12T10:23:00Z</time>
      </trkpt>
      <trkpt lat="44.54546" lon="6.05436">
        <ele>779.8</ele>
        <time>2025-06-12T10:23:02Z</time>
      </trkpt>
      <trkpt lat="44.54545" lon="6.05428">
        <ele>780</ele>
        <time>2025-06-12T10:23:04Z</time>
      </trkpt>
      <trkpt lat="44.54545" lon="6.05424">
        <ele>780</ele>
        <time>2025-06-12T10:23:05Z</time>
      </trkpt>
      <trkpt lat="44.54545" lon="6.05419">
        <ele>780.2</ele>
        <time>2025-06-12T10:23:06Z</time>
      </trkpt>
      <trkpt lat="44.54545" lon="6.05415">
        <ele>780.2</ele>
        <time>2025-06-12T10:23:07Z</time>
      </trkpt>
      <trkpt lat="44.54545" lon="6.05412">
        <ele>780.4</ele>
        <time>2025-06-12T10:23:08Z</time>
      </trkpt>
      <trkpt lat="44.54545" lon="6.05408">
        <ele>780.6</ele>
        <time>2025-06-12T10:23:09Z</time>
      </trkpt>
      <trkpt lat="44.54544" lon="6.05399">
        <ele>781</ele>
        <time>2025-06-12T10:23:11Z</time>
      </trkpt>
      <trkpt lat="44.54544" lon="6.05395">
        <ele>781.4</ele>
        <time>2025-06-12T10:23:12Z</time>
      </trkpt>
      <trkpt lat="44.54544" lon="6.0539">
        <ele>781.4</ele>
        <time>2025-06-12T10:23:13Z</time>
      </trkpt>
      <trkpt lat="44.54544" lon="6.05384">
        <ele>781.6</ele>
        <time>2025-06-12T10:23:14Z</time>
      </trkpt>
      <trkpt lat="44.54544" lon="6.05377">
        <ele>781.6</ele>
        <time>2025-06-12T10:23:15Z</time>
      </trkpt>
      <trkpt lat="44.54543" lon="6.05371">
        <ele>781.8</ele>
        <time>2025-06-12T10:23:16Z</time>
      </trkpt>
      <trkpt lat="44.54544" lon="6.05361">
        <ele>782.2</ele>
        <time>2025-06-12T10:23:18Z</time>
      </trkpt>
      <trkpt lat="44.54544" lon="6.05358">
        <ele>782.4</ele>
        <time>2025-06-12T10:23:19Z</time>
      </trkpt>
      <trkpt lat="44.54544" lon="6.05355">
        <ele>782.6</ele>
        <time>2025-06-12T10:23:20Z</time>
      </trkpt>
      <trkpt lat="44.54543" lon="6.05353">
        <ele>782.6</ele>
        <time>2025-06-12T10:23:21Z</time>
      </trkpt>
      <trkpt lat="44.54543" lon="6.0535">
        <ele>783</ele>
        <time>2025-06-12T10:23:23Z</time>
      </trkpt>
      <trkpt lat="44.54543" lon="6.0535">
        <ele>783.2</ele>
        <time>2025-06-12T10:23:24Z</time>
      </trkpt>
      <trkpt lat="44.54543" lon="6.05349">
        <ele>783.4</ele>
        <time>2025-06-12T10:23:25Z</time>
      </trkpt>
      <trkpt lat="44.54542" lon="6.05349">
        <ele>783.8</ele>
        <time>2025-06-12T10:23:26Z</time>
      </trkpt>
      <trkpt lat="44.54542" lon="6.05349">
        <ele>784</ele>
        <time>2025-06-12T10:23:27Z</time>
      </trkpt>
      <trkpt lat="44.54542" lon="6.05349">
        <ele>784.2</ele>
        <time>2025-06-12T10:23:28Z</time>
      </trkpt>
      <trkpt lat="44.54542" lon="6.05349">
        <ele>784.2</ele>
        <time>2025-06-12T10:23:29Z</time>
      </trkpt>
      <trkpt lat="44.54542" lon="6.05349">
        <ele>784.2</ele>
        <time>2025-06-12T10:23:30Z</time>
      </trkpt>
      <trkpt lat="44.54532" lon="6.05337">
        <ele>784.6</ele>
        <time>2025-06-12T10:23:46Z</time>
      </trkpt>
      <trkpt lat="44.54519" lon="6.05335">
        <ele>784.4</ele>
        <time>2025-06-12T10:23:49Z</time>
      </trkpt>
      <trkpt lat="44.54515" lon="6.05334">
        <ele>784.4</ele>
        <time>2025-06-12T10:23:50Z</time>
      </trkpt>
      <trkpt lat="44.5451" lon="6.05333">
        <ele>784.4</ele>
        <time>2025-06-12T10:23:51Z</time>
      </trkpt>
      <trkpt lat="44.54504" lon="6.05332">
        <ele>784.4</ele>
        <time>2025-06-12T10:23:52Z</time>
      </trkpt>
      <trkpt lat="44.54499" lon="6.0533">
        <ele>784.4</ele>
        <time>2025-06-12T10:23:53Z</time>
      </trkpt>
      <trkpt lat="44.54494" lon="6.0533">
        <ele>784.2</ele>
        <time>2025-06-12T10:23:54Z</time>
      </trkpt>
      <trkpt lat="44.54488" lon="6.05329">
        <ele>784</ele>
        <time>2025-06-12T10:23:55Z</time>
      </trkpt>
      <trkpt lat="44.54483" lon="6.05328">
        <ele>783.6</ele>
        <time>2025-06-12T10:23:56Z</time>
      </trkpt>
      <trkpt lat="44.54474" lon="6.05325">
        <ele>783.4</ele>
        <time>2025-06-12T10:23:58Z</time>
      </trkpt>
      <trkpt lat="44.54467" lon="6.05323">
        <ele>782.8</ele>
        <time>2025-06-12T10:24:00Z</time>
      </trkpt>
      <trkpt lat="44.54463" lon="6.05321">
        <ele>782.4</ele>
        <time>2025-06-12T10:24:01Z</time>
      </trkpt>
      <trkpt lat="44.54459" lon="6.0532">
        <ele>782.2</ele>
        <time>2025-06-12T10:24:02Z</time>
      </trkpt>
      <trkpt lat="44.54456" lon="6.05319">
        <ele>782</ele>
        <time>2025-06-12T10:24:03Z</time>
      </trkpt>
      <trkpt lat="44.54453" lon="6.05318">
        <ele>781.6</ele>
        <time>2025-06-12T10:24:04Z</time>
      </trkpt>
      <trkpt lat="44.54451" lon="6.05317">
        <ele>781.6</ele>
        <time>2025-06-12T10:24:05Z</time>
      </trkpt>
      <trkpt lat="44.54447" lon="6.05316">
        <ele>781.4</ele>
        <time>2025-06-12T10:24:07Z</time>
      </trkpt>
      <trkpt lat="44.54445" lon="6.05315">
        <ele>781.4</ele>
        <time>2025-06-12T10:24:09Z</time>
      </trkpt>
      <trkpt lat="44.54443" lon="6.05315">
        <ele>781.2</ele>
        <time>2025-06-12T10:24:10Z</time>
      </trkpt>
      <trkpt lat="44.54441" lon="6.05314">
        <ele>781.2</ele>
        <time>2025-06-12T10:24:11Z</time>
      </trkpt>
      <trkpt lat="44.54437" lon="6.05313">
        <ele>781.2</ele>
        <time>2025-06-12T10:24:12Z</time>
      </trkpt>
      <trkpt lat="44.54433" lon="6.05312">
        <ele>781.2</ele>
        <time>2025-06-12T10:24:13Z</time>
      </trkpt>
      <trkpt lat="44.54428" lon="6.0531">
        <ele>781.2</ele>
        <time>2025-06-12T10:24:14Z</time>
      </trkpt>
      <trkpt lat="44.54422" lon="6.05308">
        <ele>781.2</ele>
        <time>2025-06-12T10:24:15Z</time>
      </trkpt>
      <trkpt lat="44.54416" lon="6.05306">
        <ele>781.2</ele>
        <time>2025-06-12T10:24:16Z</time>
      </trkpt>
      <trkpt lat="44.5441" lon="6.05305">
        <ele>781</ele>
        <time>2025-06-12T10:24:17Z</time>
      </trkpt>
      <trkpt lat="44.54404" lon="6.05303">
        <ele>781</ele>
        <time>2025-06-12T10:24:18Z</time>
      </trkpt>
      <trkpt lat="44.54392" lon="6.053">
        <ele>780.8</ele>
        <time>2025-06-12T10:24:20Z</time>
      </trkpt>
      <trkpt lat="44.5438" lon="6.05297">
        <ele>780.6</ele>
        <time>2025-06-12T10:24:22Z</time>
      </trkpt>
      <trkpt lat="44.54374" lon="6.05295">
        <ele>780.2</ele>
        <time>2025-06-12T10:24:23Z</time>
      </trkpt>
      <trkpt lat="44.54368" lon="6.05294">
        <ele>779.6</ele>
        <time>2025-06-12T10:24:24Z</time>
      </trkpt>
      <trkpt lat="44.54363" lon="6.05292">
        <ele>779.4</ele>
        <time>2025-06-12T10:24:25Z</time>
      </trkpt>
      <trkpt lat="44.54357" lon="6.0529">
        <ele>779.2</ele>
        <time>2025-06-12T10:24:26Z</time>
      </trkpt>
      <trkpt lat="44.54351" lon="6.05288">
        <ele>779.2</ele>
        <time>2025-06-12T10:24:27Z</time>
      </trkpt>
      <trkpt lat="44.5434" lon="6.05286">
        <ele>779</ele>
        <time>2025-06-12T10:24:29Z</time>
      </trkpt>
      <trkpt lat="44.54328" lon="6.05282">
        <ele>779</ele>
        <time>2025-06-12T10:24:31Z</time>
      </trkpt>
      <trkpt lat="44.54322" lon="6.05281">
        <ele>778.8</ele>
        <time>2025-06-12T10:24:32Z</time>
      </trkpt>
      <trkpt lat="44.54317" lon="6.05279">
        <ele>778.6</ele>
        <time>2025-06-12T10:24:33Z</time>
      </trkpt>
      <trkpt lat="44.54311" lon="6.05278">
        <ele>778.6</ele>
        <time>2025-06-12T10:24:34Z</time>
      </trkpt>
      <trkpt lat="44.54305" lon="6.05281">
        <ele>778.6</ele>
        <time>2025-06-12T10:24:35Z</time>
      </trkpt>
      <trkpt lat="44.54301" lon="6.05286">
        <ele>778.6</ele>
        <time>2025-06-12T10:24:36Z</time>
      </trkpt>
      <trkpt lat="44.54294" lon="6.05299">
        <ele>778.6</ele>
        <time>2025-06-12T10:24:38Z</time>
      </trkpt>
      <trkpt lat="44.54292" lon="6.05306">
        <ele>778.6</ele>
        <time>2025-06-12T10:24:39Z</time>
      </trkpt>
      <trkpt lat="44.54291" lon="6.05313">
        <ele>778.4</ele>
        <time>2025-06-12T10:24:40Z</time>
      </trkpt>
      <trkpt lat="44.54289" lon="6.0532">
        <ele>778.4</ele>
        <time>2025-06-12T10:24:41Z</time>
      </trkpt>
      <trkpt lat="44.54288" lon="6.05327">
        <ele>778.2</ele>
        <time>2025-06-12T10:24:42Z</time>
      </trkpt>
      <trkpt lat="44.54285" lon="6.05334">
        <ele>778.2</ele>
        <time>2025-06-12T10:24:43Z</time>
      </trkpt>
      <trkpt lat="44.54284" lon="6.05341">
        <ele>778.2</ele>
        <time>2025-06-12T10:24:44Z</time>
      </trkpt>
      <trkpt lat="44.54282" lon="6.05348">
        <ele>778</ele>
        <time>2025-06-12T10:24:45Z</time>
      </trkpt>
      <trkpt lat="44.54281" lon="6.05354">
        <ele>778</ele>
        <time>2025-06-12T10:24:46Z</time>
      </trkpt>
      <trkpt lat="44.54278" lon="6.05359">
        <ele>778</ele>
        <time>2025-06-12T10:24:47Z</time>
      </trkpt>
      <trkpt lat="44.54274" lon="6.05363">
        <ele>777.8</ele>
        <time>2025-06-12T10:24:48Z</time>
      </trkpt>
      <trkpt lat="44.54269" lon="6.05365">
        <ele>777.8</ele>
        <time>2025-06-12T10:24:49Z</time>
      </trkpt>
      <trkpt lat="44.54257" lon="6.05367">
        <ele>777.6</ele>
        <time>2025-06-12T10:24:51Z</time>
      </trkpt>
      <trkpt lat="44.54247" lon="6.05365">
        <ele>777.4</ele>
        <time>2025-06-12T10:24:53Z</time>
      </trkpt>
      <trkpt lat="44.54242" lon="6.05363">
        <ele>777.2</ele>
        <time>2025-06-12T10:24:54Z</time>
      </trkpt>
      <trkpt lat="44.54238" lon="6.05362">
        <ele>776.8</ele>
        <time>2025-06-12T10:24:55Z</time>
      </trkpt>
      <trkpt lat="44.54235" lon="6.05363">
        <ele>776.6</ele>
        <time>2025-06-12T10:24:56Z</time>
      </trkpt>
      <trkpt lat="44.54231" lon="6.05363">
        <ele>776.4</ele>
        <time>2025-06-12T10:24:57Z</time>
      </trkpt>
      <trkpt lat="44.54228" lon="6.05364">
        <ele>776.2</ele>
        <time>2025-06-12T10:24:58Z</time>
      </trkpt>
      <trkpt lat="44.54224" lon="6.05363">
        <ele>775.6</ele>
        <time>2025-06-12T10:24:59Z</time>
      </trkpt>
      <trkpt lat="44.54221" lon="6.05362">
        <ele>774.2</ele>
        <time>2025-06-12T10:25:00Z</time>
      </trkpt>
      <trkpt lat="44.54217" lon="6.05363">
        <ele>773.4</ele>
        <time>2025-06-12T10:25:02Z</time>
      </trkpt>
      <trkpt lat="44.54216" lon="6.05366">
        <ele>773.2</ele>
        <time>2025-06-12T10:25:03Z</time>
      </trkpt>
      <trkpt lat="44.54216" lon="6.05369">
        <ele>773</ele>
        <time>2025-06-12T10:25:04Z</time>
      </trkpt>
      <trkpt lat="44.54216" lon="6.0537">
        <ele>773</ele>
        <time>2025-06-12T10:25:05Z</time>
      </trkpt>
      <trkpt lat="44.54216" lon="6.05371">
        <ele>772.6</ele>
        <time>2025-06-12T10:25:06Z</time>
      </trkpt>
      <trkpt lat="44.54216" lon="6.05371">
        <ele>772.4</ele>
        <time>2025-06-12T10:25:07Z</time>
      </trkpt>
      <trkpt lat="44.54216" lon="6.05371">
        <ele>772</ele>
        <time>2025-06-12T10:25:08Z</time>
      </trkpt>
      <trkpt lat="44.54216" lon="6.05372">
        <ele>771.8</ele>
        <time>2025-06-12T10:25:09Z</time>
      </trkpt>
      <trkpt lat="44.54216" lon="6.05372">
        <ele>771.6</ele>
        <time>2025-06-12T10:25:10Z</time>
      </trkpt>
      <trkpt lat="44.54216" lon="6.05372">
        <ele>771.6</ele>
        <time>2025-06-12T10:25:11Z</time>
      </trkpt>
      <trkpt lat="44.54216" lon="6.05372">
        <ele>771.4</ele>
        <time>2025-06-12T10:25:12Z</time>
      </trkpt>
    </trkseg>
  </trk>
</gpx>